<?xml version="1.0" encoding="UTF-8" standalone="no" ?>
<gpx xmlns="http://www.topografix.com/GPX/1/1" xmlns:xsi="http://www.w3.org/2001/XMLSchema-instance" xsi:schemaLocation="http://www.topografix.com/GPX/1/1 http://www.topografix.com/GPX/1/1/gpx.xsd" version="1.1" creator="VisuGPX - https://www.visugpx.com">
  <metadata>
    <name>2018-04-11 Bike ride-Chatillon-Limas 39k</name>
    <desc><![CDATA[2018-04-11 Bike ride-Chatillon-Limas 39k]]></desc>
  </metadata>
  <wpt lat="45.92451" lon="4.73701">
    <ele>174</ele>
    <name><![CDATA[2018-04-11 10:43 (Start)]]></name>
  </wpt>
  <wpt lat="45.92446" lon="4.73691">
    <ele>174</ele>
    <name><![CDATA[2018-04-11 10:43 (End)]]></name>
  </wpt>
  <trk>
    <name><![CDATA[2018-04-11 10:43]]></name>
    <trkseg>
      <trkpt lat="45.92451" lon="4.73701">
        <ele>174</ele>
        <time>2018-04-11T08:43:05.307Z</time>
      </trkpt>
      <trkpt lat="45.92454" lon="4.73712">
        <ele>174</ele>
        <time>2018-04-11T08:43:07.837Z</time>
      </trkpt>
      <trkpt lat="45.92456" lon="4.73712">
        <ele>174</ele>
        <time>2018-04-11T08:43:08Z</time>
      </trkpt>
      <trkpt lat="45.92461" lon="4.73711">
        <ele>174</ele>
        <time>2018-04-11T08:43:15Z</time>
      </trkpt>
      <trkpt lat="45.9246" lon="4.73711">
        <ele>174</ele>
        <time>2018-04-11T08:43:16Z</time>
      </trkpt>
      <trkpt lat="45.92456" lon="4.73711">
        <ele>174</ele>
        <time>2018-04-11T08:43:22Z</time>
      </trkpt>
      <trkpt lat="45.92456" lon="4.73711">
        <ele>174</ele>
        <time>2018-04-11T08:43:23Z</time>
      </trkpt>
      <trkpt lat="45.92461" lon="4.73702">
        <ele>174</ele>
        <time>2018-04-11T08:43:31Z</time>
      </trkpt>
      <trkpt lat="45.92462" lon="4.737">
        <ele>174</ele>
        <time>2018-04-11T08:43:32Z</time>
      </trkpt>
      <trkpt lat="45.92463" lon="4.73692">
        <ele>174</ele>
        <time>2018-04-11T08:43:34Z</time>
      </trkpt>
      <trkpt lat="45.92465" lon="4.73681">
        <ele>174</ele>
        <time>2018-04-11T08:43:35Z</time>
      </trkpt>
      <trkpt lat="45.92468" lon="4.73671">
        <ele>174</ele>
        <time>2018-04-11T08:43:37Z</time>
      </trkpt>
      <trkpt lat="45.92468" lon="4.73668">
        <ele>174</ele>
        <time>2018-04-11T08:43:38Z</time>
      </trkpt>
      <trkpt lat="45.92469" lon="4.73657">
        <ele>174</ele>
        <time>2018-04-11T08:43:40Z</time>
      </trkpt>
      <trkpt lat="45.92469" lon="4.73651">
        <ele>174</ele>
        <time>2018-04-11T08:43:41Z</time>
      </trkpt>
      <trkpt lat="45.92469" lon="4.7364">
        <ele>174</ele>
        <time>2018-04-11T08:43:43Z</time>
      </trkpt>
      <trkpt lat="45.92469" lon="4.73634">
        <ele>174</ele>
        <time>2018-04-11T08:43:44Z</time>
      </trkpt>
      <trkpt lat="45.92469" lon="4.73621">
        <ele>174</ele>
        <time>2018-04-11T08:43:46Z</time>
      </trkpt>
      <trkpt lat="45.92469" lon="4.73615">
        <ele>174</ele>
        <time>2018-04-11T08:43:47Z</time>
      </trkpt>
      <trkpt lat="45.9247" lon="4.73607">
        <ele>174</ele>
        <time>2018-04-11T08:43:48Z</time>
      </trkpt>
      <trkpt lat="45.92469" lon="4.736">
        <ele>174</ele>
        <time>2018-04-11T08:43:49Z</time>
      </trkpt>
      <trkpt lat="45.92468" lon="4.73588">
        <ele>174</ele>
        <time>2018-04-11T08:43:51Z</time>
      </trkpt>
      <trkpt lat="45.92468" lon="4.73582">
        <ele>173</ele>
        <time>2018-04-11T08:43:52Z</time>
      </trkpt>
      <trkpt lat="45.92468" lon="4.73569">
        <ele>173</ele>
        <time>2018-04-11T08:43:54Z</time>
      </trkpt>
      <trkpt lat="45.92468" lon="4.73563">
        <ele>173</ele>
        <time>2018-04-11T08:43:55Z</time>
      </trkpt>
      <trkpt lat="45.92465" lon="4.73552">
        <ele>173</ele>
        <time>2018-04-11T08:43:58Z</time>
      </trkpt>
      <trkpt lat="45.92464" lon="4.73549">
        <ele>173</ele>
        <time>2018-04-11T08:43:59Z</time>
      </trkpt>
      <trkpt lat="45.92458" lon="4.73544">
        <ele>174</ele>
        <time>2018-04-11T08:44:00Z</time>
      </trkpt>
      <trkpt lat="45.92454" lon="4.73545">
        <ele>174</ele>
        <time>2018-04-11T08:44:01Z</time>
      </trkpt>
      <trkpt lat="45.92446" lon="4.73548">
        <ele>174</ele>
        <time>2018-04-11T08:44:03Z</time>
      </trkpt>
      <trkpt lat="45.92441" lon="4.7355">
        <ele>174</ele>
        <time>2018-04-11T08:44:04Z</time>
      </trkpt>
      <trkpt lat="45.92437" lon="4.73552">
        <ele>174</ele>
        <time>2018-04-11T08:44:05Z</time>
      </trkpt>
      <trkpt lat="45.92432" lon="4.73554">
        <ele>174</ele>
        <time>2018-04-11T08:44:06Z</time>
      </trkpt>
      <trkpt lat="45.92428" lon="4.73557">
        <ele>174</ele>
        <time>2018-04-11T08:44:07Z</time>
      </trkpt>
      <trkpt lat="45.92423" lon="4.73559">
        <ele>174</ele>
        <time>2018-04-11T08:44:08Z</time>
      </trkpt>
      <trkpt lat="45.92419" lon="4.73562">
        <ele>174</ele>
        <time>2018-04-11T08:44:09Z</time>
      </trkpt>
      <trkpt lat="45.92414" lon="4.73565">
        <ele>173</ele>
        <time>2018-04-11T08:44:10Z</time>
      </trkpt>
      <trkpt lat="45.9241" lon="4.73567">
        <ele>173</ele>
        <time>2018-04-11T08:44:11Z</time>
      </trkpt>
      <trkpt lat="45.92405" lon="4.7357">
        <ele>173</ele>
        <time>2018-04-11T08:44:12Z</time>
      </trkpt>
      <trkpt lat="45.924" lon="4.73572">
        <ele>173</ele>
        <time>2018-04-11T08:44:13Z</time>
      </trkpt>
      <trkpt lat="45.92395" lon="4.73574">
        <ele>173</ele>
        <time>2018-04-11T08:44:14Z</time>
      </trkpt>
      <trkpt lat="45.92391" lon="4.73579">
        <ele>173</ele>
        <time>2018-04-11T08:44:15Z</time>
      </trkpt>
      <trkpt lat="45.92386" lon="4.73582">
        <ele>173</ele>
        <time>2018-04-11T08:44:16Z</time>
      </trkpt>
      <trkpt lat="45.92381" lon="4.73584">
        <ele>173</ele>
        <time>2018-04-11T08:44:17Z</time>
      </trkpt>
      <trkpt lat="45.92376" lon="4.73587">
        <ele>173</ele>
        <time>2018-04-11T08:44:18Z</time>
      </trkpt>
      <trkpt lat="45.9237" lon="4.73589">
        <ele>173</ele>
        <time>2018-04-11T08:44:19Z</time>
      </trkpt>
      <trkpt lat="45.92366" lon="4.73592">
        <ele>173</ele>
        <time>2018-04-11T08:44:20Z</time>
      </trkpt>
      <trkpt lat="45.92361" lon="4.73594">
        <ele>173</ele>
        <time>2018-04-11T08:44:21Z</time>
      </trkpt>
      <trkpt lat="45.92356" lon="4.73597">
        <ele>173</ele>
        <time>2018-04-11T08:44:22Z</time>
      </trkpt>
      <trkpt lat="45.92352" lon="4.73599">
        <ele>173</ele>
        <time>2018-04-11T08:44:23Z</time>
      </trkpt>
      <trkpt lat="45.92347" lon="4.73601">
        <ele>173</ele>
        <time>2018-04-11T08:44:24Z</time>
      </trkpt>
      <trkpt lat="45.92342" lon="4.73604">
        <ele>173</ele>
        <time>2018-04-11T08:44:25Z</time>
      </trkpt>
      <trkpt lat="45.92337" lon="4.73606">
        <ele>173</ele>
        <time>2018-04-11T08:44:26Z</time>
      </trkpt>
      <trkpt lat="45.92332" lon="4.73609">
        <ele>172</ele>
        <time>2018-04-11T08:44:27Z</time>
      </trkpt>
      <trkpt lat="45.92326" lon="4.73611">
        <ele>172</ele>
        <time>2018-04-11T08:44:28Z</time>
      </trkpt>
      <trkpt lat="45.92322" lon="4.73614">
        <ele>172</ele>
        <time>2018-04-11T08:44:29Z</time>
      </trkpt>
      <trkpt lat="45.92317" lon="4.73617">
        <ele>172</ele>
        <time>2018-04-11T08:44:30Z</time>
      </trkpt>
      <trkpt lat="45.92312" lon="4.7362">
        <ele>172</ele>
        <time>2018-04-11T08:44:31Z</time>
      </trkpt>
      <trkpt lat="45.92306" lon="4.73623">
        <ele>172</ele>
        <time>2018-04-11T08:44:32Z</time>
      </trkpt>
      <trkpt lat="45.92301" lon="4.73626">
        <ele>172</ele>
        <time>2018-04-11T08:44:33Z</time>
      </trkpt>
      <trkpt lat="45.92296" lon="4.73629">
        <ele>172</ele>
        <time>2018-04-11T08:44:34Z</time>
      </trkpt>
      <trkpt lat="45.92291" lon="4.7363">
        <ele>172</ele>
        <time>2018-04-11T08:44:35Z</time>
      </trkpt>
      <trkpt lat="45.92286" lon="4.73633">
        <ele>172</ele>
        <time>2018-04-11T08:44:36Z</time>
      </trkpt>
      <trkpt lat="45.92281" lon="4.73637">
        <ele>172</ele>
        <time>2018-04-11T08:44:37Z</time>
      </trkpt>
      <trkpt lat="45.92276" lon="4.7364">
        <ele>172</ele>
        <time>2018-04-11T08:44:38Z</time>
      </trkpt>
      <trkpt lat="45.92271" lon="4.73643">
        <ele>172</ele>
        <time>2018-04-11T08:44:39Z</time>
      </trkpt>
      <trkpt lat="45.92266" lon="4.73647">
        <ele>172</ele>
        <time>2018-04-11T08:44:40Z</time>
      </trkpt>
      <trkpt lat="45.92261" lon="4.7365">
        <ele>171</ele>
        <time>2018-04-11T08:44:41Z</time>
      </trkpt>
      <trkpt lat="45.92256" lon="4.73653">
        <ele>171</ele>
        <time>2018-04-11T08:44:42Z</time>
      </trkpt>
      <trkpt lat="45.92251" lon="4.73656">
        <ele>171</ele>
        <time>2018-04-11T08:44:43Z</time>
      </trkpt>
      <trkpt lat="45.92245" lon="4.7366">
        <ele>171</ele>
        <time>2018-04-11T08:44:44Z</time>
      </trkpt>
      <trkpt lat="45.92239" lon="4.73662">
        <ele>171</ele>
        <time>2018-04-11T08:44:45Z</time>
      </trkpt>
      <trkpt lat="45.92234" lon="4.73665">
        <ele>171</ele>
        <time>2018-04-11T08:44:46Z</time>
      </trkpt>
      <trkpt lat="45.92229" lon="4.73668">
        <ele>171</ele>
        <time>2018-04-11T08:44:47Z</time>
      </trkpt>
      <trkpt lat="45.92224" lon="4.73671">
        <ele>171</ele>
        <time>2018-04-11T08:44:48Z</time>
      </trkpt>
      <trkpt lat="45.92218" lon="4.73675">
        <ele>171</ele>
        <time>2018-04-11T08:44:49Z</time>
      </trkpt>
      <trkpt lat="45.92212" lon="4.73677">
        <ele>171</ele>
        <time>2018-04-11T08:44:50Z</time>
      </trkpt>
      <trkpt lat="45.92207" lon="4.73681">
        <ele>171</ele>
        <time>2018-04-11T08:44:51Z</time>
      </trkpt>
      <trkpt lat="45.92201" lon="4.73685">
        <ele>171</ele>
        <time>2018-04-11T08:44:52Z</time>
      </trkpt>
      <trkpt lat="45.92195" lon="4.73688">
        <ele>171</ele>
        <time>2018-04-11T08:44:53Z</time>
      </trkpt>
      <trkpt lat="45.92189" lon="4.73692">
        <ele>171</ele>
        <time>2018-04-11T08:44:54Z</time>
      </trkpt>
      <trkpt lat="45.92183" lon="4.73695">
        <ele>171</ele>
        <time>2018-04-11T08:44:55Z</time>
      </trkpt>
      <trkpt lat="45.92177" lon="4.73697">
        <ele>171</ele>
        <time>2018-04-11T08:44:56Z</time>
      </trkpt>
      <trkpt lat="45.92172" lon="4.737">
        <ele>171</ele>
        <time>2018-04-11T08:44:57Z</time>
      </trkpt>
      <trkpt lat="45.92166" lon="4.73702">
        <ele>171</ele>
        <time>2018-04-11T08:44:58Z</time>
      </trkpt>
      <trkpt lat="45.92161" lon="4.73704">
        <ele>171</ele>
        <time>2018-04-11T08:44:59Z</time>
      </trkpt>
      <trkpt lat="45.92155" lon="4.73706">
        <ele>171</ele>
        <time>2018-04-11T08:45:00Z</time>
      </trkpt>
      <trkpt lat="45.92149" lon="4.73708">
        <ele>171</ele>
        <time>2018-04-11T08:45:01Z</time>
      </trkpt>
      <trkpt lat="45.92143" lon="4.7371">
        <ele>171</ele>
        <time>2018-04-11T08:45:02Z</time>
      </trkpt>
      <trkpt lat="45.92137" lon="4.73711">
        <ele>171</ele>
        <time>2018-04-11T08:45:03Z</time>
      </trkpt>
      <trkpt lat="45.92132" lon="4.73713">
        <ele>171</ele>
        <time>2018-04-11T08:45:04Z</time>
      </trkpt>
      <trkpt lat="45.92126" lon="4.73715">
        <ele>171</ele>
        <time>2018-04-11T08:45:05Z</time>
      </trkpt>
      <trkpt lat="45.9212" lon="4.73716">
        <ele>171</ele>
        <time>2018-04-11T08:45:06Z</time>
      </trkpt>
      <trkpt lat="45.92114" lon="4.73718">
        <ele>171</ele>
        <time>2018-04-11T08:45:07Z</time>
      </trkpt>
      <trkpt lat="45.92108" lon="4.7372">
        <ele>171</ele>
        <time>2018-04-11T08:45:08Z</time>
      </trkpt>
      <trkpt lat="45.92102" lon="4.73722">
        <ele>171</ele>
        <time>2018-04-11T08:45:09Z</time>
      </trkpt>
      <trkpt lat="45.92095" lon="4.73723">
        <ele>171</ele>
        <time>2018-04-11T08:45:10Z</time>
      </trkpt>
      <trkpt lat="45.92089" lon="4.73724">
        <ele>171</ele>
        <time>2018-04-11T08:45:11Z</time>
      </trkpt>
      <trkpt lat="45.92083" lon="4.73725">
        <ele>171</ele>
        <time>2018-04-11T08:45:12Z</time>
      </trkpt>
      <trkpt lat="45.92077" lon="4.73726">
        <ele>171</ele>
        <time>2018-04-11T08:45:13Z</time>
      </trkpt>
      <trkpt lat="45.9207" lon="4.73726">
        <ele>171</ele>
        <time>2018-04-11T08:45:14Z</time>
      </trkpt>
      <trkpt lat="45.92064" lon="4.73726">
        <ele>171</ele>
        <time>2018-04-11T08:45:15Z</time>
      </trkpt>
      <trkpt lat="45.92058" lon="4.73726">
        <ele>171</ele>
        <time>2018-04-11T08:45:16Z</time>
      </trkpt>
      <trkpt lat="45.92051" lon="4.73726">
        <ele>171</ele>
        <time>2018-04-11T08:45:17Z</time>
      </trkpt>
      <trkpt lat="45.92045" lon="4.73726">
        <ele>171</ele>
        <time>2018-04-11T08:45:18Z</time>
      </trkpt>
      <trkpt lat="45.92039" lon="4.73726">
        <ele>171</ele>
        <time>2018-04-11T08:45:19Z</time>
      </trkpt>
      <trkpt lat="45.92032" lon="4.73727">
        <ele>171</ele>
        <time>2018-04-11T08:45:20Z</time>
      </trkpt>
      <trkpt lat="45.92026" lon="4.73728">
        <ele>171</ele>
        <time>2018-04-11T08:45:21Z</time>
      </trkpt>
      <trkpt lat="45.9202" lon="4.73728">
        <ele>171</ele>
        <time>2018-04-11T08:45:22Z</time>
      </trkpt>
      <trkpt lat="45.92014" lon="4.73729">
        <ele>171</ele>
        <time>2018-04-11T08:45:23Z</time>
      </trkpt>
      <trkpt lat="45.92008" lon="4.73729">
        <ele>171</ele>
        <time>2018-04-11T08:45:24Z</time>
      </trkpt>
      <trkpt lat="45.92001" lon="4.7373">
        <ele>171</ele>
        <time>2018-04-11T08:45:25Z</time>
      </trkpt>
      <trkpt lat="45.91995" lon="4.7373">
        <ele>171</ele>
        <time>2018-04-11T08:45:26Z</time>
      </trkpt>
      <trkpt lat="45.91988" lon="4.7373">
        <ele>171</ele>
        <time>2018-04-11T08:45:27Z</time>
      </trkpt>
      <trkpt lat="45.91982" lon="4.7373">
        <ele>171</ele>
        <time>2018-04-11T08:45:28Z</time>
      </trkpt>
      <trkpt lat="45.91975" lon="4.7373">
        <ele>171</ele>
        <time>2018-04-11T08:45:29Z</time>
      </trkpt>
      <trkpt lat="45.91968" lon="4.73729">
        <ele>171</ele>
        <time>2018-04-11T08:45:30Z</time>
      </trkpt>
      <trkpt lat="45.91962" lon="4.73729">
        <ele>171</ele>
        <time>2018-04-11T08:45:31Z</time>
      </trkpt>
      <trkpt lat="45.91955" lon="4.73729">
        <ele>170</ele>
        <time>2018-04-11T08:45:32Z</time>
      </trkpt>
      <trkpt lat="45.91949" lon="4.73728">
        <ele>170</ele>
        <time>2018-04-11T08:45:33Z</time>
      </trkpt>
      <trkpt lat="45.91944" lon="4.73729">
        <ele>170</ele>
        <time>2018-04-11T08:45:34Z</time>
      </trkpt>
      <trkpt lat="45.91939" lon="4.73729">
        <ele>170</ele>
        <time>2018-04-11T08:45:35Z</time>
      </trkpt>
      <trkpt lat="45.91933" lon="4.73729">
        <ele>170</ele>
        <time>2018-04-11T08:45:36Z</time>
      </trkpt>
      <trkpt lat="45.91925" lon="4.73729">
        <ele>170</ele>
        <time>2018-04-11T08:45:37Z</time>
      </trkpt>
      <trkpt lat="45.91917" lon="4.73729">
        <ele>170</ele>
        <time>2018-04-11T08:45:38Z</time>
      </trkpt>
      <trkpt lat="45.91912" lon="4.7373">
        <ele>171</ele>
        <time>2018-04-11T08:45:39Z</time>
      </trkpt>
      <trkpt lat="45.91905" lon="4.7373">
        <ele>171</ele>
        <time>2018-04-11T08:45:40Z</time>
      </trkpt>
      <trkpt lat="45.91899" lon="4.7373">
        <ele>171</ele>
        <time>2018-04-11T08:45:41Z</time>
      </trkpt>
      <trkpt lat="45.91892" lon="4.7373">
        <ele>171</ele>
        <time>2018-04-11T08:45:42Z</time>
      </trkpt>
      <trkpt lat="45.91886" lon="4.7373">
        <ele>171</ele>
        <time>2018-04-11T08:45:43Z</time>
      </trkpt>
      <trkpt lat="45.9188" lon="4.7373">
        <ele>171</ele>
        <time>2018-04-11T08:45:44Z</time>
      </trkpt>
      <trkpt lat="45.91874" lon="4.73731">
        <ele>171</ele>
        <time>2018-04-11T08:45:45Z</time>
      </trkpt>
      <trkpt lat="45.91867" lon="4.73731">
        <ele>171</ele>
        <time>2018-04-11T08:45:46Z</time>
      </trkpt>
      <trkpt lat="45.91861" lon="4.73731">
        <ele>171</ele>
        <time>2018-04-11T08:45:47Z</time>
      </trkpt>
      <trkpt lat="45.91855" lon="4.73731">
        <ele>171</ele>
        <time>2018-04-11T08:45:48Z</time>
      </trkpt>
      <trkpt lat="45.9185" lon="4.73731">
        <ele>172</ele>
        <time>2018-04-11T08:45:49Z</time>
      </trkpt>
      <trkpt lat="45.91844" lon="4.73731">
        <ele>172</ele>
        <time>2018-04-11T08:45:50Z</time>
      </trkpt>
      <trkpt lat="45.91838" lon="4.7373">
        <ele>172</ele>
        <time>2018-04-11T08:45:51Z</time>
      </trkpt>
      <trkpt lat="45.91833" lon="4.7373">
        <ele>172</ele>
        <time>2018-04-11T08:45:52Z</time>
      </trkpt>
      <trkpt lat="45.91827" lon="4.73729">
        <ele>172</ele>
        <time>2018-04-11T08:45:53Z</time>
      </trkpt>
      <trkpt lat="45.91821" lon="4.73729">
        <ele>172</ele>
        <time>2018-04-11T08:45:54Z</time>
      </trkpt>
      <trkpt lat="45.91815" lon="4.7373">
        <ele>172</ele>
        <time>2018-04-11T08:45:55Z</time>
      </trkpt>
      <trkpt lat="45.91809" lon="4.7373">
        <ele>172</ele>
        <time>2018-04-11T08:45:56Z</time>
      </trkpt>
      <trkpt lat="45.91803" lon="4.73731">
        <ele>172</ele>
        <time>2018-04-11T08:45:57Z</time>
      </trkpt>
      <trkpt lat="45.91798" lon="4.73731">
        <ele>172</ele>
        <time>2018-04-11T08:45:58Z</time>
      </trkpt>
      <trkpt lat="45.91792" lon="4.73731">
        <ele>172</ele>
        <time>2018-04-11T08:45:59Z</time>
      </trkpt>
      <trkpt lat="45.91786" lon="4.73732">
        <ele>173</ele>
        <time>2018-04-11T08:46:00Z</time>
      </trkpt>
      <trkpt lat="45.91782" lon="4.73731">
        <ele>173</ele>
        <time>2018-04-11T08:46:01Z</time>
      </trkpt>
      <trkpt lat="45.91775" lon="4.7373">
        <ele>173</ele>
        <time>2018-04-11T08:46:02Z</time>
      </trkpt>
      <trkpt lat="45.91769" lon="4.73731">
        <ele>173</ele>
        <time>2018-04-11T08:46:03Z</time>
      </trkpt>
      <trkpt lat="45.91764" lon="4.73731">
        <ele>173</ele>
        <time>2018-04-11T08:46:04Z</time>
      </trkpt>
      <trkpt lat="45.91758" lon="4.73731">
        <ele>173</ele>
        <time>2018-04-11T08:46:05Z</time>
      </trkpt>
      <trkpt lat="45.91751" lon="4.73731">
        <ele>173</ele>
        <time>2018-04-11T08:46:06Z</time>
      </trkpt>
      <trkpt lat="45.91745" lon="4.73731">
        <ele>173</ele>
        <time>2018-04-11T08:46:07Z</time>
      </trkpt>
      <trkpt lat="45.91739" lon="4.73731">
        <ele>173</ele>
        <time>2018-04-11T08:46:08Z</time>
      </trkpt>
      <trkpt lat="45.91733" lon="4.73732">
        <ele>173</ele>
        <time>2018-04-11T08:46:09Z</time>
      </trkpt>
      <trkpt lat="45.91726" lon="4.73732">
        <ele>173</ele>
        <time>2018-04-11T08:46:10Z</time>
      </trkpt>
      <trkpt lat="45.9172" lon="4.73732">
        <ele>173</ele>
        <time>2018-04-11T08:46:11Z</time>
      </trkpt>
      <trkpt lat="45.91714" lon="4.73732">
        <ele>173</ele>
        <time>2018-04-11T08:46:12Z</time>
      </trkpt>
      <trkpt lat="45.91708" lon="4.73731">
        <ele>172</ele>
        <time>2018-04-11T08:46:13Z</time>
      </trkpt>
      <trkpt lat="45.91702" lon="4.73731">
        <ele>172</ele>
        <time>2018-04-11T08:46:14Z</time>
      </trkpt>
      <trkpt lat="45.91697" lon="4.73732">
        <ele>172</ele>
        <time>2018-04-11T08:46:15Z</time>
      </trkpt>
      <trkpt lat="45.91692" lon="4.73733">
        <ele>172</ele>
        <time>2018-04-11T08:46:16Z</time>
      </trkpt>
      <trkpt lat="45.91686" lon="4.73733">
        <ele>172</ele>
        <time>2018-04-11T08:46:17Z</time>
      </trkpt>
      <trkpt lat="45.91681" lon="4.73733">
        <ele>172</ele>
        <time>2018-04-11T08:46:18Z</time>
      </trkpt>
      <trkpt lat="45.91676" lon="4.73734">
        <ele>172</ele>
        <time>2018-04-11T08:46:19Z</time>
      </trkpt>
      <trkpt lat="45.9167" lon="4.73733">
        <ele>172</ele>
        <time>2018-04-11T08:46:20Z</time>
      </trkpt>
      <trkpt lat="45.91664" lon="4.73734">
        <ele>172</ele>
        <time>2018-04-11T08:46:21Z</time>
      </trkpt>
      <trkpt lat="45.91658" lon="4.73734">
        <ele>172</ele>
        <time>2018-04-11T08:46:22Z</time>
      </trkpt>
      <trkpt lat="45.91652" lon="4.73734">
        <ele>172</ele>
        <time>2018-04-11T08:46:23Z</time>
      </trkpt>
      <trkpt lat="45.91646" lon="4.73734">
        <ele>172</ele>
        <time>2018-04-11T08:46:24Z</time>
      </trkpt>
      <trkpt lat="45.9164" lon="4.73734">
        <ele>172</ele>
        <time>2018-04-11T08:46:25Z</time>
      </trkpt>
      <trkpt lat="45.91634" lon="4.73734">
        <ele>172</ele>
        <time>2018-04-11T08:46:26Z</time>
      </trkpt>
      <trkpt lat="45.91629" lon="4.73733">
        <ele>172</ele>
        <time>2018-04-11T08:46:27Z</time>
      </trkpt>
      <trkpt lat="45.91623" lon="4.73734">
        <ele>173</ele>
        <time>2018-04-11T08:46:28Z</time>
      </trkpt>
      <trkpt lat="45.91618" lon="4.73734">
        <ele>173</ele>
        <time>2018-04-11T08:46:29Z</time>
      </trkpt>
      <trkpt lat="45.91612" lon="4.73735">
        <ele>173</ele>
        <time>2018-04-11T08:46:30Z</time>
      </trkpt>
      <trkpt lat="45.91606" lon="4.73734">
        <ele>173</ele>
        <time>2018-04-11T08:46:31Z</time>
      </trkpt>
      <trkpt lat="45.916" lon="4.73735">
        <ele>173</ele>
        <time>2018-04-11T08:46:32Z</time>
      </trkpt>
      <trkpt lat="45.91593" lon="4.73735">
        <ele>173</ele>
        <time>2018-04-11T08:46:33Z</time>
      </trkpt>
      <trkpt lat="45.91587" lon="4.73734">
        <ele>173</ele>
        <time>2018-04-11T08:46:34Z</time>
      </trkpt>
      <trkpt lat="45.91582" lon="4.73734">
        <ele>173</ele>
        <time>2018-04-11T08:46:35Z</time>
      </trkpt>
      <trkpt lat="45.91575" lon="4.73734">
        <ele>173</ele>
        <time>2018-04-11T08:46:36Z</time>
      </trkpt>
      <trkpt lat="45.9157" lon="4.73734">
        <ele>173</ele>
        <time>2018-04-11T08:46:37Z</time>
      </trkpt>
      <trkpt lat="45.91563" lon="4.73734">
        <ele>173</ele>
        <time>2018-04-11T08:46:38Z</time>
      </trkpt>
      <trkpt lat="45.91556" lon="4.73733">
        <ele>174</ele>
        <time>2018-04-11T08:46:39Z</time>
      </trkpt>
      <trkpt lat="45.9155" lon="4.73733">
        <ele>174</ele>
        <time>2018-04-11T08:46:40Z</time>
      </trkpt>
      <trkpt lat="45.91543" lon="4.73734">
        <ele>174</ele>
        <time>2018-04-11T08:46:41Z</time>
      </trkpt>
      <trkpt lat="45.91537" lon="4.73734">
        <ele>174</ele>
        <time>2018-04-11T08:46:42Z</time>
      </trkpt>
      <trkpt lat="45.9153" lon="4.73734">
        <ele>174</ele>
        <time>2018-04-11T08:46:43Z</time>
      </trkpt>
      <trkpt lat="45.91524" lon="4.73734">
        <ele>174</ele>
        <time>2018-04-11T08:46:44Z</time>
      </trkpt>
      <trkpt lat="45.91519" lon="4.73734">
        <ele>174</ele>
        <time>2018-04-11T08:46:45Z</time>
      </trkpt>
      <trkpt lat="45.91513" lon="4.73734">
        <ele>174</ele>
        <time>2018-04-11T08:46:46Z</time>
      </trkpt>
      <trkpt lat="45.91507" lon="4.73734">
        <ele>174</ele>
        <time>2018-04-11T08:46:47Z</time>
      </trkpt>
      <trkpt lat="45.91502" lon="4.73734">
        <ele>174</ele>
        <time>2018-04-11T08:46:48Z</time>
      </trkpt>
      <trkpt lat="45.91496" lon="4.73734">
        <ele>174</ele>
        <time>2018-04-11T08:46:49Z</time>
      </trkpt>
      <trkpt lat="45.91488" lon="4.73733">
        <ele>174</ele>
        <time>2018-04-11T08:46:50Z</time>
      </trkpt>
      <trkpt lat="45.91482" lon="4.73733">
        <ele>174</ele>
        <time>2018-04-11T08:46:51Z</time>
      </trkpt>
      <trkpt lat="45.91476" lon="4.73735">
        <ele>174</ele>
        <time>2018-04-11T08:46:52Z</time>
      </trkpt>
      <trkpt lat="45.9147" lon="4.73735">
        <ele>174</ele>
        <time>2018-04-11T08:46:53Z</time>
      </trkpt>
      <trkpt lat="45.91463" lon="4.73735">
        <ele>174</ele>
        <time>2018-04-11T08:46:54Z</time>
      </trkpt>
      <trkpt lat="45.91457" lon="4.73736">
        <ele>174</ele>
        <time>2018-04-11T08:46:55Z</time>
      </trkpt>
      <trkpt lat="45.9145" lon="4.73735">
        <ele>173</ele>
        <time>2018-04-11T08:46:56Z</time>
      </trkpt>
      <trkpt lat="45.91443" lon="4.73736">
        <ele>173</ele>
        <time>2018-04-11T08:46:57Z</time>
      </trkpt>
      <trkpt lat="45.91438" lon="4.73736">
        <ele>173</ele>
        <time>2018-04-11T08:46:58Z</time>
      </trkpt>
      <trkpt lat="45.91431" lon="4.73736">
        <ele>173</ele>
        <time>2018-04-11T08:46:59Z</time>
      </trkpt>
      <trkpt lat="45.91425" lon="4.73736">
        <ele>173</ele>
        <time>2018-04-11T08:47:00Z</time>
      </trkpt>
      <trkpt lat="45.91419" lon="4.73736">
        <ele>173</ele>
        <time>2018-04-11T08:47:01Z</time>
      </trkpt>
      <trkpt lat="45.91412" lon="4.73736">
        <ele>173</ele>
        <time>2018-04-11T08:47:02Z</time>
      </trkpt>
      <trkpt lat="45.91406" lon="4.73737">
        <ele>173</ele>
        <time>2018-04-11T08:47:03Z</time>
      </trkpt>
      <trkpt lat="45.914" lon="4.73737">
        <ele>173</ele>
        <time>2018-04-11T08:47:04Z</time>
      </trkpt>
      <trkpt lat="45.91394" lon="4.73738">
        <ele>173</ele>
        <time>2018-04-11T08:47:05Z</time>
      </trkpt>
      <trkpt lat="45.91388" lon="4.73738">
        <ele>173</ele>
        <time>2018-04-11T08:47:06Z</time>
      </trkpt>
      <trkpt lat="45.91381" lon="4.73738">
        <ele>173</ele>
        <time>2018-04-11T08:47:07Z</time>
      </trkpt>
      <trkpt lat="45.91375" lon="4.73738">
        <ele>173</ele>
        <time>2018-04-11T08:47:08Z</time>
      </trkpt>
      <trkpt lat="45.91369" lon="4.73737">
        <ele>173</ele>
        <time>2018-04-11T08:47:09Z</time>
      </trkpt>
      <trkpt lat="45.91363" lon="4.73737">
        <ele>173</ele>
        <time>2018-04-11T08:47:10Z</time>
      </trkpt>
      <trkpt lat="45.91357" lon="4.73737">
        <ele>173</ele>
        <time>2018-04-11T08:47:11Z</time>
      </trkpt>
      <trkpt lat="45.91351" lon="4.73738">
        <ele>173</ele>
        <time>2018-04-11T08:47:12Z</time>
      </trkpt>
      <trkpt lat="45.91344" lon="4.73739">
        <ele>173</ele>
        <time>2018-04-11T08:47:13Z</time>
      </trkpt>
      <trkpt lat="45.91338" lon="4.73739">
        <ele>173</ele>
        <time>2018-04-11T08:47:14Z</time>
      </trkpt>
      <trkpt lat="45.91333" lon="4.73738">
        <ele>173</ele>
        <time>2018-04-11T08:47:15Z</time>
      </trkpt>
      <trkpt lat="45.91327" lon="4.73738">
        <ele>173</ele>
        <time>2018-04-11T08:47:16Z</time>
      </trkpt>
      <trkpt lat="45.91321" lon="4.73738">
        <ele>174</ele>
        <time>2018-04-11T08:47:17Z</time>
      </trkpt>
      <trkpt lat="45.91315" lon="4.73738">
        <ele>174</ele>
        <time>2018-04-11T08:47:18Z</time>
      </trkpt>
      <trkpt lat="45.91309" lon="4.73739">
        <ele>174</ele>
        <time>2018-04-11T08:47:19Z</time>
      </trkpt>
      <trkpt lat="45.91303" lon="4.73738">
        <ele>174</ele>
        <time>2018-04-11T08:47:20Z</time>
      </trkpt>
      <trkpt lat="45.91297" lon="4.73739">
        <ele>174</ele>
        <time>2018-04-11T08:47:21Z</time>
      </trkpt>
      <trkpt lat="45.9129" lon="4.73738">
        <ele>174</ele>
        <time>2018-04-11T08:47:22Z</time>
      </trkpt>
      <trkpt lat="45.91284" lon="4.73739">
        <ele>174</ele>
        <time>2018-04-11T08:47:23Z</time>
      </trkpt>
      <trkpt lat="45.91278" lon="4.73739">
        <ele>174</ele>
        <time>2018-04-11T08:47:24Z</time>
      </trkpt>
      <trkpt lat="45.91272" lon="4.73739">
        <ele>174</ele>
        <time>2018-04-11T08:47:25Z</time>
      </trkpt>
      <trkpt lat="45.91266" lon="4.7374">
        <ele>174</ele>
        <time>2018-04-11T08:47:26Z</time>
      </trkpt>
      <trkpt lat="45.9126" lon="4.7374">
        <ele>175</ele>
        <time>2018-04-11T08:47:27Z</time>
      </trkpt>
      <trkpt lat="45.91255" lon="4.7374">
        <ele>175</ele>
        <time>2018-04-11T08:47:28Z</time>
      </trkpt>
      <trkpt lat="45.91249" lon="4.7374">
        <ele>175</ele>
        <time>2018-04-11T08:47:29Z</time>
      </trkpt>
      <trkpt lat="45.91244" lon="4.7374">
        <ele>175</ele>
        <time>2018-04-11T08:47:30Z</time>
      </trkpt>
      <trkpt lat="45.91237" lon="4.7374">
        <ele>175</ele>
        <time>2018-04-11T08:47:31Z</time>
      </trkpt>
      <trkpt lat="45.91231" lon="4.7374">
        <ele>175</ele>
        <time>2018-04-11T08:47:32Z</time>
      </trkpt>
      <trkpt lat="45.91226" lon="4.73741">
        <ele>175</ele>
        <time>2018-04-11T08:47:33Z</time>
      </trkpt>
      <trkpt lat="45.9122" lon="4.73741">
        <ele>175</ele>
        <time>2018-04-11T08:47:34Z</time>
      </trkpt>
      <trkpt lat="45.91214" lon="4.73741">
        <ele>175</ele>
        <time>2018-04-11T08:47:35Z</time>
      </trkpt>
      <trkpt lat="45.91208" lon="4.7374">
        <ele>175</ele>
        <time>2018-04-11T08:47:36Z</time>
      </trkpt>
      <trkpt lat="45.91203" lon="4.73741">
        <ele>175</ele>
        <time>2018-04-11T08:47:37Z</time>
      </trkpt>
      <trkpt lat="45.91197" lon="4.73741">
        <ele>175</ele>
        <time>2018-04-11T08:47:38Z</time>
      </trkpt>
      <trkpt lat="45.91192" lon="4.73741">
        <ele>175</ele>
        <time>2018-04-11T08:47:39Z</time>
      </trkpt>
      <trkpt lat="45.91187" lon="4.7374">
        <ele>175</ele>
        <time>2018-04-11T08:47:40Z</time>
      </trkpt>
      <trkpt lat="45.91181" lon="4.73739">
        <ele>175</ele>
        <time>2018-04-11T08:47:41Z</time>
      </trkpt>
      <trkpt lat="45.91177" lon="4.73736">
        <ele>175</ele>
        <time>2018-04-11T08:47:42Z</time>
      </trkpt>
      <trkpt lat="45.91171" lon="4.73735">
        <ele>175</ele>
        <time>2018-04-11T08:47:43Z</time>
      </trkpt>
      <trkpt lat="45.91166" lon="4.73734">
        <ele>175</ele>
        <time>2018-04-11T08:47:44Z</time>
      </trkpt>
      <trkpt lat="45.91161" lon="4.73733">
        <ele>175</ele>
        <time>2018-04-11T08:47:45Z</time>
      </trkpt>
      <trkpt lat="45.91156" lon="4.73732">
        <ele>175</ele>
        <time>2018-04-11T08:47:46Z</time>
      </trkpt>
      <trkpt lat="45.91152" lon="4.7373">
        <ele>175</ele>
        <time>2018-04-11T08:47:47Z</time>
      </trkpt>
      <trkpt lat="45.91147" lon="4.73727">
        <ele>175</ele>
        <time>2018-04-11T08:47:48Z</time>
      </trkpt>
      <trkpt lat="45.91143" lon="4.73723">
        <ele>174</ele>
        <time>2018-04-11T08:47:49Z</time>
      </trkpt>
      <trkpt lat="45.9114" lon="4.73718">
        <ele>174</ele>
        <time>2018-04-11T08:47:50Z</time>
      </trkpt>
      <trkpt lat="45.91138" lon="4.73712">
        <ele>174</ele>
        <time>2018-04-11T08:47:51Z</time>
      </trkpt>
      <trkpt lat="45.91135" lon="4.73706">
        <ele>174</ele>
        <time>2018-04-11T08:47:52Z</time>
      </trkpt>
      <trkpt lat="45.91133" lon="4.737">
        <ele>174</ele>
        <time>2018-04-11T08:47:53Z</time>
      </trkpt>
      <trkpt lat="45.91131" lon="4.73693">
        <ele>174</ele>
        <time>2018-04-11T08:47:54Z</time>
      </trkpt>
      <trkpt lat="45.91128" lon="4.73686">
        <ele>174</ele>
        <time>2018-04-11T08:47:55Z</time>
      </trkpt>
      <trkpt lat="45.91125" lon="4.73678">
        <ele>174</ele>
        <time>2018-04-11T08:47:56Z</time>
      </trkpt>
      <trkpt lat="45.91123" lon="4.73672">
        <ele>174</ele>
        <time>2018-04-11T08:47:57Z</time>
      </trkpt>
      <trkpt lat="45.9112" lon="4.73666">
        <ele>174</ele>
        <time>2018-04-11T08:47:58Z</time>
      </trkpt>
      <trkpt lat="45.91116" lon="4.73659">
        <ele>174</ele>
        <time>2018-04-11T08:47:59Z</time>
      </trkpt>
      <trkpt lat="45.91113" lon="4.73653">
        <ele>174</ele>
        <time>2018-04-11T08:48:00Z</time>
      </trkpt>
      <trkpt lat="45.9111" lon="4.73646">
        <ele>174</ele>
        <time>2018-04-11T08:48:01Z</time>
      </trkpt>
      <trkpt lat="45.91106" lon="4.7364">
        <ele>174</ele>
        <time>2018-04-11T08:48:02Z</time>
      </trkpt>
      <trkpt lat="45.91104" lon="4.73634">
        <ele>174</ele>
        <time>2018-04-11T08:48:03Z</time>
      </trkpt>
      <trkpt lat="45.91101" lon="4.73628">
        <ele>174</ele>
        <time>2018-04-11T08:48:04Z</time>
      </trkpt>
      <trkpt lat="45.91099" lon="4.73621">
        <ele>174</ele>
        <time>2018-04-11T08:48:05Z</time>
      </trkpt>
      <trkpt lat="45.91096" lon="4.73615">
        <ele>174</ele>
        <time>2018-04-11T08:48:06Z</time>
      </trkpt>
      <trkpt lat="45.91093" lon="4.73609">
        <ele>174</ele>
        <time>2018-04-11T08:48:07Z</time>
      </trkpt>
      <trkpt lat="45.9109" lon="4.73603">
        <ele>174</ele>
        <time>2018-04-11T08:48:08Z</time>
      </trkpt>
      <trkpt lat="45.91087" lon="4.73596">
        <ele>174</ele>
        <time>2018-04-11T08:48:09Z</time>
      </trkpt>
      <trkpt lat="45.91084" lon="4.73589">
        <ele>174</ele>
        <time>2018-04-11T08:48:10Z</time>
      </trkpt>
      <trkpt lat="45.91082" lon="4.73583">
        <ele>174</ele>
        <time>2018-04-11T08:48:11Z</time>
      </trkpt>
      <trkpt lat="45.91078" lon="4.73577">
        <ele>174</ele>
        <time>2018-04-11T08:48:12Z</time>
      </trkpt>
      <trkpt lat="45.91075" lon="4.73571">
        <ele>174</ele>
        <time>2018-04-11T08:48:13Z</time>
      </trkpt>
      <trkpt lat="45.91073" lon="4.73564">
        <ele>174</ele>
        <time>2018-04-11T08:48:14Z</time>
      </trkpt>
      <trkpt lat="45.91069" lon="4.73557">
        <ele>174</ele>
        <time>2018-04-11T08:48:15Z</time>
      </trkpt>
      <trkpt lat="45.91066" lon="4.73551">
        <ele>174</ele>
        <time>2018-04-11T08:48:16Z</time>
      </trkpt>
      <trkpt lat="45.91064" lon="4.73544">
        <ele>174</ele>
        <time>2018-04-11T08:48:17Z</time>
      </trkpt>
      <trkpt lat="45.91061" lon="4.73538">
        <ele>175</ele>
        <time>2018-04-11T08:48:18Z</time>
      </trkpt>
      <trkpt lat="45.91057" lon="4.73531">
        <ele>175</ele>
        <time>2018-04-11T08:48:19Z</time>
      </trkpt>
      <trkpt lat="45.91054" lon="4.73525">
        <ele>175</ele>
        <time>2018-04-11T08:48:20Z</time>
      </trkpt>
      <trkpt lat="45.91051" lon="4.73518">
        <ele>175</ele>
        <time>2018-04-11T08:48:21Z</time>
      </trkpt>
      <trkpt lat="45.91048" lon="4.73512">
        <ele>175</ele>
        <time>2018-04-11T08:48:22Z</time>
      </trkpt>
      <trkpt lat="45.91045" lon="4.73505">
        <ele>175</ele>
        <time>2018-04-11T08:48:23Z</time>
      </trkpt>
      <trkpt lat="45.91042" lon="4.73499">
        <ele>175</ele>
        <time>2018-04-11T08:48:24Z</time>
      </trkpt>
      <trkpt lat="45.91041" lon="4.73491">
        <ele>175</ele>
        <time>2018-04-11T08:48:25Z</time>
      </trkpt>
      <trkpt lat="45.91038" lon="4.73484">
        <ele>175</ele>
        <time>2018-04-11T08:48:26Z</time>
      </trkpt>
      <trkpt lat="45.91035" lon="4.73477">
        <ele>175</ele>
        <time>2018-04-11T08:48:27Z</time>
      </trkpt>
      <trkpt lat="45.91033" lon="4.7347">
        <ele>175</ele>
        <time>2018-04-11T08:48:28Z</time>
      </trkpt>
      <trkpt lat="45.91032" lon="4.73463">
        <ele>175</ele>
        <time>2018-04-11T08:48:29Z</time>
      </trkpt>
      <trkpt lat="45.91031" lon="4.73456">
        <ele>175</ele>
        <time>2018-04-11T08:48:30Z</time>
      </trkpt>
      <trkpt lat="45.91031" lon="4.7345">
        <ele>175</ele>
        <time>2018-04-11T08:48:31Z</time>
      </trkpt>
      <trkpt lat="45.9103" lon="4.73442">
        <ele>175</ele>
        <time>2018-04-11T08:48:32Z</time>
      </trkpt>
      <trkpt lat="45.9103" lon="4.73435">
        <ele>175</ele>
        <time>2018-04-11T08:48:33Z</time>
      </trkpt>
      <trkpt lat="45.91028" lon="4.73428">
        <ele>175</ele>
        <time>2018-04-11T08:48:34Z</time>
      </trkpt>
      <trkpt lat="45.91025" lon="4.73422">
        <ele>175</ele>
        <time>2018-04-11T08:48:35Z</time>
      </trkpt>
      <trkpt lat="45.91022" lon="4.73417">
        <ele>175</ele>
        <time>2018-04-11T08:48:36Z</time>
      </trkpt>
      <trkpt lat="45.91017" lon="4.73415">
        <ele>175</ele>
        <time>2018-04-11T08:48:37Z</time>
      </trkpt>
      <trkpt lat="45.91012" lon="4.73416">
        <ele>175</ele>
        <time>2018-04-11T08:48:38Z</time>
      </trkpt>
      <trkpt lat="45.91006" lon="4.73419">
        <ele>175</ele>
        <time>2018-04-11T08:48:39Z</time>
      </trkpt>
      <trkpt lat="45.91002" lon="4.73423">
        <ele>175</ele>
        <time>2018-04-11T08:48:40Z</time>
      </trkpt>
      <trkpt lat="45.90998" lon="4.73429">
        <ele>175</ele>
        <time>2018-04-11T08:48:41Z</time>
      </trkpt>
      <trkpt lat="45.90993" lon="4.73434">
        <ele>175</ele>
        <time>2018-04-11T08:48:42Z</time>
      </trkpt>
      <trkpt lat="45.90988" lon="4.73438">
        <ele>175</ele>
        <time>2018-04-11T08:48:43Z</time>
      </trkpt>
      <trkpt lat="45.90983" lon="4.7344">
        <ele>175</ele>
        <time>2018-04-11T08:48:44Z</time>
      </trkpt>
      <trkpt lat="45.90978" lon="4.73443">
        <ele>175</ele>
        <time>2018-04-11T08:48:45Z</time>
      </trkpt>
      <trkpt lat="45.90971" lon="4.73446">
        <ele>175</ele>
        <time>2018-04-11T08:48:46Z</time>
      </trkpt>
      <trkpt lat="45.90966" lon="4.73449">
        <ele>175</ele>
        <time>2018-04-11T08:48:47Z</time>
      </trkpt>
      <trkpt lat="45.90961" lon="4.73452">
        <ele>175</ele>
        <time>2018-04-11T08:48:48Z</time>
      </trkpt>
      <trkpt lat="45.90955" lon="4.73455">
        <ele>175</ele>
        <time>2018-04-11T08:48:49Z</time>
      </trkpt>
      <trkpt lat="45.90949" lon="4.73458">
        <ele>175</ele>
        <time>2018-04-11T08:48:50Z</time>
      </trkpt>
      <trkpt lat="45.90944" lon="4.73459">
        <ele>175</ele>
        <time>2018-04-11T08:48:51Z</time>
      </trkpt>
      <trkpt lat="45.90938" lon="4.73462">
        <ele>175</ele>
        <time>2018-04-11T08:48:52Z</time>
      </trkpt>
      <trkpt lat="45.90933" lon="4.73464">
        <ele>175</ele>
        <time>2018-04-11T08:48:53Z</time>
      </trkpt>
      <trkpt lat="45.90928" lon="4.73467">
        <ele>175</ele>
        <time>2018-04-11T08:48:54Z</time>
      </trkpt>
      <trkpt lat="45.90922" lon="4.73469">
        <ele>175</ele>
        <time>2018-04-11T08:48:55Z</time>
      </trkpt>
      <trkpt lat="45.90916" lon="4.73471">
        <ele>175</ele>
        <time>2018-04-11T08:48:56Z</time>
      </trkpt>
      <trkpt lat="45.90911" lon="4.73473">
        <ele>175</ele>
        <time>2018-04-11T08:48:57Z</time>
      </trkpt>
      <trkpt lat="45.90905" lon="4.73476">
        <ele>175</ele>
        <time>2018-04-11T08:48:58Z</time>
      </trkpt>
      <trkpt lat="45.90899" lon="4.73479">
        <ele>175</ele>
        <time>2018-04-11T08:48:59Z</time>
      </trkpt>
      <trkpt lat="45.90893" lon="4.73481">
        <ele>175</ele>
        <time>2018-04-11T08:49:00Z</time>
      </trkpt>
      <trkpt lat="45.90887" lon="4.73483">
        <ele>175</ele>
        <time>2018-04-11T08:49:01Z</time>
      </trkpt>
      <trkpt lat="45.90882" lon="4.73486">
        <ele>175</ele>
        <time>2018-04-11T08:49:02Z</time>
      </trkpt>
      <trkpt lat="45.90876" lon="4.73489">
        <ele>175</ele>
        <time>2018-04-11T08:49:03Z</time>
      </trkpt>
      <trkpt lat="45.90871" lon="4.73491">
        <ele>175</ele>
        <time>2018-04-11T08:49:04Z</time>
      </trkpt>
      <trkpt lat="45.90866" lon="4.73494">
        <ele>175</ele>
        <time>2018-04-11T08:49:05Z</time>
      </trkpt>
      <trkpt lat="45.9086" lon="4.73496">
        <ele>175</ele>
        <time>2018-04-11T08:49:06Z</time>
      </trkpt>
      <trkpt lat="45.90854" lon="4.73498">
        <ele>174</ele>
        <time>2018-04-11T08:49:07Z</time>
      </trkpt>
      <trkpt lat="45.90849" lon="4.73501">
        <ele>174</ele>
        <time>2018-04-11T08:49:08Z</time>
      </trkpt>
      <trkpt lat="45.90843" lon="4.73504">
        <ele>174</ele>
        <time>2018-04-11T08:49:09Z</time>
      </trkpt>
      <trkpt lat="45.90837" lon="4.73506">
        <ele>174</ele>
        <time>2018-04-11T08:49:10Z</time>
      </trkpt>
      <trkpt lat="45.90831" lon="4.73509">
        <ele>174</ele>
        <time>2018-04-11T08:49:11Z</time>
      </trkpt>
      <trkpt lat="45.90826" lon="4.73511">
        <ele>175</ele>
        <time>2018-04-11T08:49:12Z</time>
      </trkpt>
      <trkpt lat="45.9082" lon="4.73513">
        <ele>175</ele>
        <time>2018-04-11T08:49:13Z</time>
      </trkpt>
      <trkpt lat="45.90815" lon="4.73515">
        <ele>175</ele>
        <time>2018-04-11T08:49:14Z</time>
      </trkpt>
      <trkpt lat="45.90809" lon="4.73518">
        <ele>175</ele>
        <time>2018-04-11T08:49:15Z</time>
      </trkpt>
      <trkpt lat="45.90803" lon="4.7352">
        <ele>175</ele>
        <time>2018-04-11T08:49:16Z</time>
      </trkpt>
      <trkpt lat="45.90797" lon="4.73522">
        <ele>175</ele>
        <time>2018-04-11T08:49:17Z</time>
      </trkpt>
      <trkpt lat="45.90791" lon="4.73524">
        <ele>176</ele>
        <time>2018-04-11T08:49:18Z</time>
      </trkpt>
      <trkpt lat="45.90786" lon="4.73527">
        <ele>176</ele>
        <time>2018-04-11T08:49:19Z</time>
      </trkpt>
      <trkpt lat="45.9078" lon="4.73529">
        <ele>176</ele>
        <time>2018-04-11T08:49:20Z</time>
      </trkpt>
      <trkpt lat="45.90774" lon="4.73531">
        <ele>176</ele>
        <time>2018-04-11T08:49:21Z</time>
      </trkpt>
      <trkpt lat="45.90769" lon="4.73534">
        <ele>176</ele>
        <time>2018-04-11T08:49:22Z</time>
      </trkpt>
      <trkpt lat="45.90763" lon="4.73536">
        <ele>176</ele>
        <time>2018-04-11T08:49:23Z</time>
      </trkpt>
      <trkpt lat="45.90758" lon="4.73539">
        <ele>176</ele>
        <time>2018-04-11T08:49:24Z</time>
      </trkpt>
      <trkpt lat="45.90754" lon="4.73541">
        <ele>176</ele>
        <time>2018-04-11T08:49:25Z</time>
      </trkpt>
      <trkpt lat="45.90749" lon="4.73544">
        <ele>177</ele>
        <time>2018-04-11T08:49:26Z</time>
      </trkpt>
      <trkpt lat="45.90744" lon="4.73546">
        <ele>177</ele>
        <time>2018-04-11T08:49:27Z</time>
      </trkpt>
      <trkpt lat="45.90739" lon="4.73548">
        <ele>178</ele>
        <time>2018-04-11T08:49:28Z</time>
      </trkpt>
      <trkpt lat="45.90735" lon="4.7355">
        <ele>178</ele>
        <time>2018-04-11T08:49:29Z</time>
      </trkpt>
      <trkpt lat="45.9073" lon="4.73552">
        <ele>178</ele>
        <time>2018-04-11T08:49:30Z</time>
      </trkpt>
      <trkpt lat="45.90725" lon="4.73554">
        <ele>178</ele>
        <time>2018-04-11T08:49:31Z</time>
      </trkpt>
      <trkpt lat="45.9072" lon="4.73556">
        <ele>178</ele>
        <time>2018-04-11T08:49:32Z</time>
      </trkpt>
      <trkpt lat="45.90716" lon="4.73558">
        <ele>178</ele>
        <time>2018-04-11T08:49:33Z</time>
      </trkpt>
      <trkpt lat="45.90711" lon="4.7356">
        <ele>178</ele>
        <time>2018-04-11T08:49:34Z</time>
      </trkpt>
      <trkpt lat="45.90703" lon="4.73563">
        <ele>178</ele>
        <time>2018-04-11T08:49:36Z</time>
      </trkpt>
      <trkpt lat="45.90699" lon="4.73565">
        <ele>178</ele>
        <time>2018-04-11T08:49:37Z</time>
      </trkpt>
      <trkpt lat="45.9069" lon="4.73569">
        <ele>178</ele>
        <time>2018-04-11T08:49:39Z</time>
      </trkpt>
      <trkpt lat="45.90686" lon="4.7357">
        <ele>179</ele>
        <time>2018-04-11T08:49:40Z</time>
      </trkpt>
      <trkpt lat="45.90681" lon="4.73572">
        <ele>179</ele>
        <time>2018-04-11T08:49:41Z</time>
      </trkpt>
      <trkpt lat="45.90677" lon="4.73574">
        <ele>179</ele>
        <time>2018-04-11T08:49:42Z</time>
      </trkpt>
      <trkpt lat="45.90668" lon="4.73578">
        <ele>180</ele>
        <time>2018-04-11T08:49:44Z</time>
      </trkpt>
      <trkpt lat="45.90664" lon="4.7358">
        <ele>180</ele>
        <time>2018-04-11T08:49:45Z</time>
      </trkpt>
      <trkpt lat="45.90656" lon="4.73583">
        <ele>179</ele>
        <time>2018-04-11T08:49:47Z</time>
      </trkpt>
      <trkpt lat="45.90652" lon="4.73585">
        <ele>180</ele>
        <time>2018-04-11T08:49:48Z</time>
      </trkpt>
      <trkpt lat="45.90645" lon="4.73589">
        <ele>181</ele>
        <time>2018-04-11T08:49:50Z</time>
      </trkpt>
      <trkpt lat="45.90641" lon="4.7359">
        <ele>181</ele>
        <time>2018-04-11T08:49:51Z</time>
      </trkpt>
      <trkpt lat="45.90633" lon="4.73593">
        <ele>181</ele>
        <time>2018-04-11T08:49:53Z</time>
      </trkpt>
      <trkpt lat="45.90629" lon="4.73594">
        <ele>181</ele>
        <time>2018-04-11T08:49:54Z</time>
      </trkpt>
      <trkpt lat="45.9062" lon="4.73598">
        <ele>180</ele>
        <time>2018-04-11T08:49:56Z</time>
      </trkpt>
      <trkpt lat="45.90616" lon="4.73601">
        <ele>180</ele>
        <time>2018-04-11T08:49:57Z</time>
      </trkpt>
      <trkpt lat="45.90612" lon="4.73602">
        <ele>180</ele>
        <time>2018-04-11T08:49:58Z</time>
      </trkpt>
      <trkpt lat="45.90607" lon="4.73604">
        <ele>180</ele>
        <time>2018-04-11T08:49:59Z</time>
      </trkpt>
      <trkpt lat="45.90599" lon="4.73609">
        <ele>180</ele>
        <time>2018-04-11T08:50:01Z</time>
      </trkpt>
      <trkpt lat="45.90595" lon="4.73611">
        <ele>180</ele>
        <time>2018-04-11T08:50:02Z</time>
      </trkpt>
      <trkpt lat="45.90587" lon="4.73613">
        <ele>180</ele>
        <time>2018-04-11T08:50:04Z</time>
      </trkpt>
      <trkpt lat="45.90583" lon="4.73615">
        <ele>179</ele>
        <time>2018-04-11T08:50:05Z</time>
      </trkpt>
      <trkpt lat="45.90578" lon="4.73617">
        <ele>179</ele>
        <time>2018-04-11T08:50:06Z</time>
      </trkpt>
      <trkpt lat="45.90574" lon="4.73619">
        <ele>179</ele>
        <time>2018-04-11T08:50:07Z</time>
      </trkpt>
      <trkpt lat="45.90566" lon="4.73622">
        <ele>179</ele>
        <time>2018-04-11T08:50:09Z</time>
      </trkpt>
      <trkpt lat="45.90562" lon="4.73624">
        <ele>179</ele>
        <time>2018-04-11T08:50:10Z</time>
      </trkpt>
      <trkpt lat="45.90553" lon="4.73628">
        <ele>178</ele>
        <time>2018-04-11T08:50:12Z</time>
      </trkpt>
      <trkpt lat="45.90549" lon="4.7363">
        <ele>178</ele>
        <time>2018-04-11T08:50:13Z</time>
      </trkpt>
      <trkpt lat="45.90545" lon="4.73632">
        <ele>178</ele>
        <time>2018-04-11T08:50:14Z</time>
      </trkpt>
      <trkpt lat="45.9054" lon="4.73634">
        <ele>178</ele>
        <time>2018-04-11T08:50:15Z</time>
      </trkpt>
      <trkpt lat="45.90535" lon="4.73636">
        <ele>178</ele>
        <time>2018-04-11T08:50:16Z</time>
      </trkpt>
      <trkpt lat="45.9053" lon="4.73638">
        <ele>178</ele>
        <time>2018-04-11T08:50:17Z</time>
      </trkpt>
      <trkpt lat="45.90526" lon="4.7364">
        <ele>178</ele>
        <time>2018-04-11T08:50:18Z</time>
      </trkpt>
      <trkpt lat="45.90522" lon="4.73642">
        <ele>178</ele>
        <time>2018-04-11T08:50:19Z</time>
      </trkpt>
      <trkpt lat="45.90517" lon="4.73643">
        <ele>178</ele>
        <time>2018-04-11T08:50:20Z</time>
      </trkpt>
      <trkpt lat="45.90513" lon="4.73645">
        <ele>178</ele>
        <time>2018-04-11T08:50:21Z</time>
      </trkpt>
      <trkpt lat="45.90504" lon="4.73648">
        <ele>178</ele>
        <time>2018-04-11T08:50:23Z</time>
      </trkpt>
      <trkpt lat="45.905" lon="4.7365">
        <ele>177</ele>
        <time>2018-04-11T08:50:24Z</time>
      </trkpt>
      <trkpt lat="45.90495" lon="4.73652">
        <ele>177</ele>
        <time>2018-04-11T08:50:25Z</time>
      </trkpt>
      <trkpt lat="45.90491" lon="4.73654">
        <ele>177</ele>
        <time>2018-04-11T08:50:26Z</time>
      </trkpt>
      <trkpt lat="45.90486" lon="4.73656">
        <ele>177</ele>
        <time>2018-04-11T08:50:27Z</time>
      </trkpt>
      <trkpt lat="45.90481" lon="4.73657">
        <ele>177</ele>
        <time>2018-04-11T08:50:28Z</time>
      </trkpt>
      <trkpt lat="45.90476" lon="4.73659">
        <ele>177</ele>
        <time>2018-04-11T08:50:29Z</time>
      </trkpt>
      <trkpt lat="45.90472" lon="4.73662">
        <ele>177</ele>
        <time>2018-04-11T08:50:30Z</time>
      </trkpt>
      <trkpt lat="45.90467" lon="4.73665">
        <ele>177</ele>
        <time>2018-04-11T08:50:31Z</time>
      </trkpt>
      <trkpt lat="45.90463" lon="4.73667">
        <ele>176</ele>
        <time>2018-04-11T08:50:32Z</time>
      </trkpt>
      <trkpt lat="45.90458" lon="4.73669">
        <ele>176</ele>
        <time>2018-04-11T08:50:33Z</time>
      </trkpt>
      <trkpt lat="45.90453" lon="4.73672">
        <ele>176</ele>
        <time>2018-04-11T08:50:34Z</time>
      </trkpt>
      <trkpt lat="45.90448" lon="4.73673">
        <ele>176</ele>
        <time>2018-04-11T08:50:35Z</time>
      </trkpt>
      <trkpt lat="45.90442" lon="4.73675">
        <ele>176</ele>
        <time>2018-04-11T08:50:36Z</time>
      </trkpt>
      <trkpt lat="45.90438" lon="4.73677">
        <ele>176</ele>
        <time>2018-04-11T08:50:37Z</time>
      </trkpt>
      <trkpt lat="45.90433" lon="4.73679">
        <ele>176</ele>
        <time>2018-04-11T08:50:38Z</time>
      </trkpt>
      <trkpt lat="45.90427" lon="4.73681">
        <ele>177</ele>
        <time>2018-04-11T08:50:39Z</time>
      </trkpt>
      <trkpt lat="45.90422" lon="4.73684">
        <ele>177</ele>
        <time>2018-04-11T08:50:40Z</time>
      </trkpt>
      <trkpt lat="45.90417" lon="4.73686">
        <ele>176</ele>
        <time>2018-04-11T08:50:41Z</time>
      </trkpt>
      <trkpt lat="45.9041" lon="4.73689">
        <ele>177</ele>
        <time>2018-04-11T08:50:42Z</time>
      </trkpt>
      <trkpt lat="45.90404" lon="4.73691">
        <ele>177</ele>
        <time>2018-04-11T08:50:43Z</time>
      </trkpt>
      <trkpt lat="45.90398" lon="4.73693">
        <ele>177</ele>
        <time>2018-04-11T08:50:44Z</time>
      </trkpt>
      <trkpt lat="45.90392" lon="4.73696">
        <ele>177</ele>
        <time>2018-04-11T08:50:45Z</time>
      </trkpt>
      <trkpt lat="45.90386" lon="4.73699">
        <ele>177</ele>
        <time>2018-04-11T08:50:46Z</time>
      </trkpt>
      <trkpt lat="45.90379" lon="4.73702">
        <ele>177</ele>
        <time>2018-04-11T08:50:47Z</time>
      </trkpt>
      <trkpt lat="45.90373" lon="4.73704">
        <ele>177</ele>
        <time>2018-04-11T08:50:48Z</time>
      </trkpt>
      <trkpt lat="45.90366" lon="4.73707">
        <ele>177</ele>
        <time>2018-04-11T08:50:49Z</time>
      </trkpt>
      <trkpt lat="45.9036" lon="4.7371">
        <ele>177</ele>
        <time>2018-04-11T08:50:50Z</time>
      </trkpt>
      <trkpt lat="45.90353" lon="4.73713">
        <ele>177</ele>
        <time>2018-04-11T08:50:51Z</time>
      </trkpt>
      <trkpt lat="45.90345" lon="4.73716">
        <ele>177</ele>
        <time>2018-04-11T08:50:52Z</time>
      </trkpt>
      <trkpt lat="45.90338" lon="4.73718">
        <ele>177</ele>
        <time>2018-04-11T08:50:53Z</time>
      </trkpt>
      <trkpt lat="45.90332" lon="4.73722">
        <ele>177</ele>
        <time>2018-04-11T08:50:54Z</time>
      </trkpt>
      <trkpt lat="45.90324" lon="4.73725">
        <ele>177</ele>
        <time>2018-04-11T08:50:55Z</time>
      </trkpt>
      <trkpt lat="45.90317" lon="4.73728">
        <ele>177</ele>
        <time>2018-04-11T08:50:56Z</time>
      </trkpt>
      <trkpt lat="45.90309" lon="4.73732">
        <ele>177</ele>
        <time>2018-04-11T08:50:57Z</time>
      </trkpt>
      <trkpt lat="45.90302" lon="4.73735">
        <ele>177</ele>
        <time>2018-04-11T08:50:58Z</time>
      </trkpt>
      <trkpt lat="45.90295" lon="4.73737">
        <ele>177</ele>
        <time>2018-04-11T08:50:59Z</time>
      </trkpt>
      <trkpt lat="45.90288" lon="4.7374">
        <ele>177</ele>
        <time>2018-04-11T08:51:00Z</time>
      </trkpt>
      <trkpt lat="45.90281" lon="4.73743">
        <ele>177</ele>
        <time>2018-04-11T08:51:01Z</time>
      </trkpt>
      <trkpt lat="45.90274" lon="4.73747">
        <ele>177</ele>
        <time>2018-04-11T08:51:02Z</time>
      </trkpt>
      <trkpt lat="45.90266" lon="4.73749">
        <ele>178</ele>
        <time>2018-04-11T08:51:03Z</time>
      </trkpt>
      <trkpt lat="45.9026" lon="4.73752">
        <ele>178</ele>
        <time>2018-04-11T08:51:04Z</time>
      </trkpt>
      <trkpt lat="45.90254" lon="4.73754">
        <ele>178</ele>
        <time>2018-04-11T08:51:05Z</time>
      </trkpt>
      <trkpt lat="45.90248" lon="4.73757">
        <ele>178</ele>
        <time>2018-04-11T08:51:06Z</time>
      </trkpt>
      <trkpt lat="45.90241" lon="4.73759">
        <ele>178</ele>
        <time>2018-04-11T08:51:07Z</time>
      </trkpt>
      <trkpt lat="45.90235" lon="4.73761">
        <ele>177</ele>
        <time>2018-04-11T08:51:08Z</time>
      </trkpt>
      <trkpt lat="45.90229" lon="4.73764">
        <ele>177</ele>
        <time>2018-04-11T08:51:09Z</time>
      </trkpt>
      <trkpt lat="45.90223" lon="4.73766">
        <ele>177</ele>
        <time>2018-04-11T08:51:10Z</time>
      </trkpt>
      <trkpt lat="45.90216" lon="4.73769">
        <ele>177</ele>
        <time>2018-04-11T08:51:11Z</time>
      </trkpt>
      <trkpt lat="45.9021" lon="4.73772">
        <ele>177</ele>
        <time>2018-04-11T08:51:12Z</time>
      </trkpt>
      <trkpt lat="45.90204" lon="4.73775">
        <ele>177</ele>
        <time>2018-04-11T08:51:13Z</time>
      </trkpt>
      <trkpt lat="45.90197" lon="4.73778">
        <ele>177</ele>
        <time>2018-04-11T08:51:14Z</time>
      </trkpt>
      <trkpt lat="45.90191" lon="4.73781">
        <ele>177</ele>
        <time>2018-04-11T08:51:15Z</time>
      </trkpt>
      <trkpt lat="45.90185" lon="4.73784">
        <ele>177</ele>
        <time>2018-04-11T08:51:16Z</time>
      </trkpt>
      <trkpt lat="45.90179" lon="4.73786">
        <ele>177</ele>
        <time>2018-04-11T08:51:17Z</time>
      </trkpt>
      <trkpt lat="45.90172" lon="4.73789">
        <ele>177</ele>
        <time>2018-04-11T08:51:18Z</time>
      </trkpt>
      <trkpt lat="45.90166" lon="4.73791">
        <ele>176</ele>
        <time>2018-04-11T08:51:19Z</time>
      </trkpt>
      <trkpt lat="45.9016" lon="4.73794">
        <ele>176</ele>
        <time>2018-04-11T08:51:20Z</time>
      </trkpt>
      <trkpt lat="45.90155" lon="4.73796">
        <ele>177</ele>
        <time>2018-04-11T08:51:21Z</time>
      </trkpt>
      <trkpt lat="45.90149" lon="4.73799">
        <ele>177</ele>
        <time>2018-04-11T08:51:22Z</time>
      </trkpt>
      <trkpt lat="45.90143" lon="4.73801">
        <ele>177</ele>
        <time>2018-04-11T08:51:23Z</time>
      </trkpt>
      <trkpt lat="45.90138" lon="4.73804">
        <ele>177</ele>
        <time>2018-04-11T08:51:24Z</time>
      </trkpt>
      <trkpt lat="45.90132" lon="4.73807">
        <ele>177</ele>
        <time>2018-04-11T08:51:25Z</time>
      </trkpt>
      <trkpt lat="45.90126" lon="4.73809">
        <ele>177</ele>
        <time>2018-04-11T08:51:26Z</time>
      </trkpt>
      <trkpt lat="45.9012" lon="4.73812">
        <ele>177</ele>
        <time>2018-04-11T08:51:27Z</time>
      </trkpt>
      <trkpt lat="45.90114" lon="4.73814">
        <ele>177</ele>
        <time>2018-04-11T08:51:28Z</time>
      </trkpt>
      <trkpt lat="45.90109" lon="4.73816">
        <ele>177</ele>
        <time>2018-04-11T08:51:29Z</time>
      </trkpt>
      <trkpt lat="45.90103" lon="4.73818">
        <ele>177</ele>
        <time>2018-04-11T08:51:30Z</time>
      </trkpt>
      <trkpt lat="45.90096" lon="4.7382">
        <ele>177</ele>
        <time>2018-04-11T08:51:31Z</time>
      </trkpt>
      <trkpt lat="45.9009" lon="4.73822">
        <ele>177</ele>
        <time>2018-04-11T08:51:32Z</time>
      </trkpt>
      <trkpt lat="45.90083" lon="4.73825">
        <ele>178</ele>
        <time>2018-04-11T08:51:33Z</time>
      </trkpt>
      <trkpt lat="45.90077" lon="4.73828">
        <ele>178</ele>
        <time>2018-04-11T08:51:34Z</time>
      </trkpt>
      <trkpt lat="45.90071" lon="4.73831">
        <ele>178</ele>
        <time>2018-04-11T08:51:35Z</time>
      </trkpt>
      <trkpt lat="45.90065" lon="4.73833">
        <ele>178</ele>
        <time>2018-04-11T08:51:36Z</time>
      </trkpt>
      <trkpt lat="45.90059" lon="4.73836">
        <ele>178</ele>
        <time>2018-04-11T08:51:37Z</time>
      </trkpt>
      <trkpt lat="45.90053" lon="4.73839">
        <ele>178</ele>
        <time>2018-04-11T08:51:38Z</time>
      </trkpt>
      <trkpt lat="45.90045" lon="4.73841">
        <ele>178</ele>
        <time>2018-04-11T08:51:39Z</time>
      </trkpt>
      <trkpt lat="45.9004" lon="4.73844">
        <ele>178</ele>
        <time>2018-04-11T08:51:40Z</time>
      </trkpt>
      <trkpt lat="45.90034" lon="4.73847">
        <ele>178</ele>
        <time>2018-04-11T08:51:41Z</time>
      </trkpt>
      <trkpt lat="45.90028" lon="4.73849">
        <ele>178</ele>
        <time>2018-04-11T08:51:42Z</time>
      </trkpt>
      <trkpt lat="45.90022" lon="4.73852">
        <ele>178</ele>
        <time>2018-04-11T08:51:43Z</time>
      </trkpt>
      <trkpt lat="45.90017" lon="4.73853">
        <ele>178</ele>
        <time>2018-04-11T08:51:44Z</time>
      </trkpt>
      <trkpt lat="45.90012" lon="4.73855">
        <ele>178</ele>
        <time>2018-04-11T08:51:45Z</time>
      </trkpt>
      <trkpt lat="45.90007" lon="4.73858">
        <ele>178</ele>
        <time>2018-04-11T08:51:46Z</time>
      </trkpt>
      <trkpt lat="45.90001" lon="4.7386">
        <ele>178</ele>
        <time>2018-04-11T08:51:47Z</time>
      </trkpt>
      <trkpt lat="45.89995" lon="4.73862">
        <ele>178</ele>
        <time>2018-04-11T08:51:48Z</time>
      </trkpt>
      <trkpt lat="45.8999" lon="4.73865">
        <ele>178</ele>
        <time>2018-04-11T08:51:49Z</time>
      </trkpt>
      <trkpt lat="45.89986" lon="4.73867">
        <ele>178</ele>
        <time>2018-04-11T08:51:50Z</time>
      </trkpt>
      <trkpt lat="45.89981" lon="4.73869">
        <ele>178</ele>
        <time>2018-04-11T08:51:51Z</time>
      </trkpt>
      <trkpt lat="45.89976" lon="4.73872">
        <ele>178</ele>
        <time>2018-04-11T08:51:52Z</time>
      </trkpt>
      <trkpt lat="45.89971" lon="4.73874">
        <ele>178</ele>
        <time>2018-04-11T08:51:53Z</time>
      </trkpt>
      <trkpt lat="45.89964" lon="4.73876">
        <ele>178</ele>
        <time>2018-04-11T08:51:54Z</time>
      </trkpt>
      <trkpt lat="45.8996" lon="4.73878">
        <ele>178</ele>
        <time>2018-04-11T08:51:55Z</time>
      </trkpt>
      <trkpt lat="45.89955" lon="4.73881">
        <ele>178</ele>
        <time>2018-04-11T08:51:56Z</time>
      </trkpt>
      <trkpt lat="45.8995" lon="4.73883">
        <ele>178</ele>
        <time>2018-04-11T08:51:57Z</time>
      </trkpt>
      <trkpt lat="45.89945" lon="4.73885">
        <ele>178</ele>
        <time>2018-04-11T08:51:58Z</time>
      </trkpt>
      <trkpt lat="45.89939" lon="4.73887">
        <ele>178</ele>
        <time>2018-04-11T08:51:59Z</time>
      </trkpt>
      <trkpt lat="45.89935" lon="4.73889">
        <ele>178</ele>
        <time>2018-04-11T08:52:00Z</time>
      </trkpt>
      <trkpt lat="45.89931" lon="4.73892">
        <ele>178</ele>
        <time>2018-04-11T08:52:01Z</time>
      </trkpt>
      <trkpt lat="45.89926" lon="4.73893">
        <ele>178</ele>
        <time>2018-04-11T08:52:02Z</time>
      </trkpt>
      <trkpt lat="45.89921" lon="4.73896">
        <ele>178</ele>
        <time>2018-04-11T08:52:03Z</time>
      </trkpt>
      <trkpt lat="45.89915" lon="4.73898">
        <ele>178</ele>
        <time>2018-04-11T08:52:04Z</time>
      </trkpt>
      <trkpt lat="45.8991" lon="4.739">
        <ele>178</ele>
        <time>2018-04-11T08:52:05Z</time>
      </trkpt>
      <trkpt lat="45.89904" lon="4.73902">
        <ele>178</ele>
        <time>2018-04-11T08:52:06Z</time>
      </trkpt>
      <trkpt lat="45.89899" lon="4.73904">
        <ele>178</ele>
        <time>2018-04-11T08:52:07Z</time>
      </trkpt>
      <trkpt lat="45.89894" lon="4.73907">
        <ele>179</ele>
        <time>2018-04-11T08:52:08Z</time>
      </trkpt>
      <trkpt lat="45.89889" lon="4.73909">
        <ele>179</ele>
        <time>2018-04-11T08:52:09Z</time>
      </trkpt>
      <trkpt lat="45.89884" lon="4.73912">
        <ele>179</ele>
        <time>2018-04-11T08:52:10Z</time>
      </trkpt>
      <trkpt lat="45.89878" lon="4.73914">
        <ele>179</ele>
        <time>2018-04-11T08:52:11Z</time>
      </trkpt>
      <trkpt lat="45.89872" lon="4.73917">
        <ele>179</ele>
        <time>2018-04-11T08:52:12Z</time>
      </trkpt>
      <trkpt lat="45.89866" lon="4.73919">
        <ele>179</ele>
        <time>2018-04-11T08:52:13Z</time>
      </trkpt>
      <trkpt lat="45.8986" lon="4.73921">
        <ele>179</ele>
        <time>2018-04-11T08:52:14Z</time>
      </trkpt>
      <trkpt lat="45.89855" lon="4.73923">
        <ele>179</ele>
        <time>2018-04-11T08:52:15Z</time>
      </trkpt>
      <trkpt lat="45.8985" lon="4.73926">
        <ele>179</ele>
        <time>2018-04-11T08:52:16Z</time>
      </trkpt>
      <trkpt lat="45.89844" lon="4.73929">
        <ele>179</ele>
        <time>2018-04-11T08:52:17Z</time>
      </trkpt>
      <trkpt lat="45.89838" lon="4.73931">
        <ele>179</ele>
        <time>2018-04-11T08:52:18Z</time>
      </trkpt>
      <trkpt lat="45.89832" lon="4.73934">
        <ele>179</ele>
        <time>2018-04-11T08:52:19Z</time>
      </trkpt>
      <trkpt lat="45.89827" lon="4.73937">
        <ele>179</ele>
        <time>2018-04-11T08:52:20Z</time>
      </trkpt>
      <trkpt lat="45.89822" lon="4.73939">
        <ele>179</ele>
        <time>2018-04-11T08:52:21Z</time>
      </trkpt>
      <trkpt lat="45.89817" lon="4.73942">
        <ele>179</ele>
        <time>2018-04-11T08:52:22Z</time>
      </trkpt>
      <trkpt lat="45.89811" lon="4.73944">
        <ele>179</ele>
        <time>2018-04-11T08:52:23Z</time>
      </trkpt>
      <trkpt lat="45.89806" lon="4.73947">
        <ele>179</ele>
        <time>2018-04-11T08:52:24Z</time>
      </trkpt>
      <trkpt lat="45.89799" lon="4.7395">
        <ele>179</ele>
        <time>2018-04-11T08:52:25Z</time>
      </trkpt>
      <trkpt lat="45.89794" lon="4.73952">
        <ele>179</ele>
        <time>2018-04-11T08:52:26Z</time>
      </trkpt>
      <trkpt lat="45.89788" lon="4.73955">
        <ele>179</ele>
        <time>2018-04-11T08:52:27Z</time>
      </trkpt>
      <trkpt lat="45.89784" lon="4.73957">
        <ele>179</ele>
        <time>2018-04-11T08:52:28Z</time>
      </trkpt>
      <trkpt lat="45.89778" lon="4.73959">
        <ele>179</ele>
        <time>2018-04-11T08:52:29Z</time>
      </trkpt>
      <trkpt lat="45.89772" lon="4.73961">
        <ele>179</ele>
        <time>2018-04-11T08:52:30Z</time>
      </trkpt>
      <trkpt lat="45.89768" lon="4.73964">
        <ele>179</ele>
        <time>2018-04-11T08:52:31Z</time>
      </trkpt>
      <trkpt lat="45.89763" lon="4.73967">
        <ele>179</ele>
        <time>2018-04-11T08:52:32Z</time>
      </trkpt>
      <trkpt lat="45.89757" lon="4.73969">
        <ele>178</ele>
        <time>2018-04-11T08:52:33Z</time>
      </trkpt>
      <trkpt lat="45.89751" lon="4.73971">
        <ele>178</ele>
        <time>2018-04-11T08:52:34Z</time>
      </trkpt>
      <trkpt lat="45.89746" lon="4.73973">
        <ele>178</ele>
        <time>2018-04-11T08:52:35Z</time>
      </trkpt>
      <trkpt lat="45.8974" lon="4.73975">
        <ele>178</ele>
        <time>2018-04-11T08:52:36Z</time>
      </trkpt>
      <trkpt lat="45.89736" lon="4.73977">
        <ele>178</ele>
        <time>2018-04-11T08:52:37Z</time>
      </trkpt>
      <trkpt lat="45.89731" lon="4.73979">
        <ele>178</ele>
        <time>2018-04-11T08:52:38Z</time>
      </trkpt>
      <trkpt lat="45.89726" lon="4.73981">
        <ele>178</ele>
        <time>2018-04-11T08:52:39Z</time>
      </trkpt>
      <trkpt lat="45.89721" lon="4.73983">
        <ele>178</ele>
        <time>2018-04-11T08:52:40Z</time>
      </trkpt>
      <trkpt lat="45.89716" lon="4.73985">
        <ele>178</ele>
        <time>2018-04-11T08:52:41Z</time>
      </trkpt>
      <trkpt lat="45.8971" lon="4.73988">
        <ele>178</ele>
        <time>2018-04-11T08:52:42Z</time>
      </trkpt>
      <trkpt lat="45.89705" lon="4.73989">
        <ele>178</ele>
        <time>2018-04-11T08:52:43Z</time>
      </trkpt>
      <trkpt lat="45.89699" lon="4.73992">
        <ele>178</ele>
        <time>2018-04-11T08:52:44Z</time>
      </trkpt>
      <trkpt lat="45.89693" lon="4.73993">
        <ele>178</ele>
        <time>2018-04-11T08:52:45Z</time>
      </trkpt>
      <trkpt lat="45.89687" lon="4.73996">
        <ele>179</ele>
        <time>2018-04-11T08:52:46Z</time>
      </trkpt>
      <trkpt lat="45.89681" lon="4.73998">
        <ele>179</ele>
        <time>2018-04-11T08:52:47Z</time>
      </trkpt>
      <trkpt lat="45.89676" lon="4.74">
        <ele>179</ele>
        <time>2018-04-11T08:52:48Z</time>
      </trkpt>
      <trkpt lat="45.89671" lon="4.74003">
        <ele>179</ele>
        <time>2018-04-11T08:52:49Z</time>
      </trkpt>
      <trkpt lat="45.89665" lon="4.74004">
        <ele>179</ele>
        <time>2018-04-11T08:52:50Z</time>
      </trkpt>
      <trkpt lat="45.89659" lon="4.74008">
        <ele>179</ele>
        <time>2018-04-11T08:52:51Z</time>
      </trkpt>
      <trkpt lat="45.89654" lon="4.74011">
        <ele>179</ele>
        <time>2018-04-11T08:52:52Z</time>
      </trkpt>
      <trkpt lat="45.89648" lon="4.74013">
        <ele>180</ele>
        <time>2018-04-11T08:52:53Z</time>
      </trkpt>
      <trkpt lat="45.89643" lon="4.74015">
        <ele>180</ele>
        <time>2018-04-11T08:52:54Z</time>
      </trkpt>
      <trkpt lat="45.89638" lon="4.74017">
        <ele>180</ele>
        <time>2018-04-11T08:52:55Z</time>
      </trkpt>
      <trkpt lat="45.89632" lon="4.74019">
        <ele>180</ele>
        <time>2018-04-11T08:52:56Z</time>
      </trkpt>
      <trkpt lat="45.89628" lon="4.74021">
        <ele>180</ele>
        <time>2018-04-11T08:52:57Z</time>
      </trkpt>
      <trkpt lat="45.89623" lon="4.74023">
        <ele>180</ele>
        <time>2018-04-11T08:52:58Z</time>
      </trkpt>
      <trkpt lat="45.89618" lon="4.74025">
        <ele>180</ele>
        <time>2018-04-11T08:52:59Z</time>
      </trkpt>
      <trkpt lat="45.89614" lon="4.74027">
        <ele>180</ele>
        <time>2018-04-11T08:53:00Z</time>
      </trkpt>
      <trkpt lat="45.89609" lon="4.74029">
        <ele>180</ele>
        <time>2018-04-11T08:53:01Z</time>
      </trkpt>
      <trkpt lat="45.89604" lon="4.74031">
        <ele>180</ele>
        <time>2018-04-11T08:53:02Z</time>
      </trkpt>
      <trkpt lat="45.89599" lon="4.74033">
        <ele>180</ele>
        <time>2018-04-11T08:53:03Z</time>
      </trkpt>
      <trkpt lat="45.89595" lon="4.74035">
        <ele>180</ele>
        <time>2018-04-11T08:53:04Z</time>
      </trkpt>
      <trkpt lat="45.8959" lon="4.74037">
        <ele>180</ele>
        <time>2018-04-11T08:53:05Z</time>
      </trkpt>
      <trkpt lat="45.89585" lon="4.74039">
        <ele>180</ele>
        <time>2018-04-11T08:53:06Z</time>
      </trkpt>
      <trkpt lat="45.8958" lon="4.74042">
        <ele>181</ele>
        <time>2018-04-11T08:53:07Z</time>
      </trkpt>
      <trkpt lat="45.89576" lon="4.74043">
        <ele>181</ele>
        <time>2018-04-11T08:53:08Z</time>
      </trkpt>
      <trkpt lat="45.89571" lon="4.74046">
        <ele>181</ele>
        <time>2018-04-11T08:53:09Z</time>
      </trkpt>
      <trkpt lat="45.89566" lon="4.74048">
        <ele>181</ele>
        <time>2018-04-11T08:53:10Z</time>
      </trkpt>
      <trkpt lat="45.89561" lon="4.7405">
        <ele>181</ele>
        <time>2018-04-11T08:53:11Z</time>
      </trkpt>
      <trkpt lat="45.89555" lon="4.74053">
        <ele>181</ele>
        <time>2018-04-11T08:53:12Z</time>
      </trkpt>
      <trkpt lat="45.8955" lon="4.74055">
        <ele>181</ele>
        <time>2018-04-11T08:53:13Z</time>
      </trkpt>
      <trkpt lat="45.89544" lon="4.74056">
        <ele>181</ele>
        <time>2018-04-11T08:53:14Z</time>
      </trkpt>
      <trkpt lat="45.8954" lon="4.74059">
        <ele>181</ele>
        <time>2018-04-11T08:53:15Z</time>
      </trkpt>
      <trkpt lat="45.89535" lon="4.74062">
        <ele>181</ele>
        <time>2018-04-11T08:53:16Z</time>
      </trkpt>
      <trkpt lat="45.8953" lon="4.74064">
        <ele>181</ele>
        <time>2018-04-11T08:53:17Z</time>
      </trkpt>
      <trkpt lat="45.89525" lon="4.74066">
        <ele>181</ele>
        <time>2018-04-11T08:53:18Z</time>
      </trkpt>
      <trkpt lat="45.89521" lon="4.74068">
        <ele>181</ele>
        <time>2018-04-11T08:53:19Z</time>
      </trkpt>
      <trkpt lat="45.89515" lon="4.7407">
        <ele>181</ele>
        <time>2018-04-11T08:53:20Z</time>
      </trkpt>
      <trkpt lat="45.8951" lon="4.74072">
        <ele>181</ele>
        <time>2018-04-11T08:53:21Z</time>
      </trkpt>
      <trkpt lat="45.89505" lon="4.74074">
        <ele>181</ele>
        <time>2018-04-11T08:53:22Z</time>
      </trkpt>
      <trkpt lat="45.895" lon="4.74076">
        <ele>181</ele>
        <time>2018-04-11T08:53:23Z</time>
      </trkpt>
      <trkpt lat="45.89495" lon="4.74078">
        <ele>181</ele>
        <time>2018-04-11T08:53:24Z</time>
      </trkpt>
      <trkpt lat="45.89489" lon="4.74081">
        <ele>181</ele>
        <time>2018-04-11T08:53:25Z</time>
      </trkpt>
      <trkpt lat="45.89484" lon="4.74083">
        <ele>181</ele>
        <time>2018-04-11T08:53:26Z</time>
      </trkpt>
      <trkpt lat="45.89479" lon="4.74085">
        <ele>182</ele>
        <time>2018-04-11T08:53:27Z</time>
      </trkpt>
      <trkpt lat="45.89474" lon="4.74086">
        <ele>182</ele>
        <time>2018-04-11T08:53:28Z</time>
      </trkpt>
      <trkpt lat="45.8947" lon="4.74088">
        <ele>182</ele>
        <time>2018-04-11T08:53:29Z</time>
      </trkpt>
      <trkpt lat="45.89465" lon="4.7409">
        <ele>182</ele>
        <time>2018-04-11T08:53:30Z</time>
      </trkpt>
      <trkpt lat="45.8946" lon="4.74093">
        <ele>182</ele>
        <time>2018-04-11T08:53:31Z</time>
      </trkpt>
      <trkpt lat="45.89455" lon="4.74095">
        <ele>182</ele>
        <time>2018-04-11T08:53:32Z</time>
      </trkpt>
      <trkpt lat="45.8945" lon="4.74097">
        <ele>182</ele>
        <time>2018-04-11T08:53:33Z</time>
      </trkpt>
      <trkpt lat="45.89445" lon="4.741">
        <ele>182</ele>
        <time>2018-04-11T08:53:34Z</time>
      </trkpt>
      <trkpt lat="45.89439" lon="4.74102">
        <ele>182</ele>
        <time>2018-04-11T08:53:35Z</time>
      </trkpt>
      <trkpt lat="45.89434" lon="4.74104">
        <ele>182</ele>
        <time>2018-04-11T08:53:36Z</time>
      </trkpt>
      <trkpt lat="45.89428" lon="4.74106">
        <ele>183</ele>
        <time>2018-04-11T08:53:37Z</time>
      </trkpt>
      <trkpt lat="45.89423" lon="4.74108">
        <ele>183</ele>
        <time>2018-04-11T08:53:38Z</time>
      </trkpt>
      <trkpt lat="45.89421" lon="4.74109">
        <ele>183</ele>
        <time>2018-04-11T08:53:39Z</time>
      </trkpt>
      <trkpt lat="45.89414" lon="4.74112">
        <ele>183</ele>
        <time>2018-04-11T08:53:40Z</time>
      </trkpt>
      <trkpt lat="45.89409" lon="4.74113">
        <ele>183</ele>
        <time>2018-04-11T08:53:41Z</time>
      </trkpt>
      <trkpt lat="45.89404" lon="4.74116">
        <ele>184</ele>
        <time>2018-04-11T08:53:42Z</time>
      </trkpt>
      <trkpt lat="45.89399" lon="4.74118">
        <ele>184</ele>
        <time>2018-04-11T08:53:43Z</time>
      </trkpt>
      <trkpt lat="45.89394" lon="4.74121">
        <ele>184</ele>
        <time>2018-04-11T08:53:44Z</time>
      </trkpt>
      <trkpt lat="45.89389" lon="4.74123">
        <ele>184</ele>
        <time>2018-04-11T08:53:45Z</time>
      </trkpt>
      <trkpt lat="45.89384" lon="4.74126">
        <ele>184</ele>
        <time>2018-04-11T08:53:46Z</time>
      </trkpt>
      <trkpt lat="45.89379" lon="4.74127">
        <ele>184</ele>
        <time>2018-04-11T08:53:47Z</time>
      </trkpt>
      <trkpt lat="45.89375" lon="4.7413">
        <ele>184</ele>
        <time>2018-04-11T08:53:48Z</time>
      </trkpt>
      <trkpt lat="45.8937" lon="4.74132">
        <ele>184</ele>
        <time>2018-04-11T08:53:49Z</time>
      </trkpt>
      <trkpt lat="45.89366" lon="4.74134">
        <ele>184</ele>
        <time>2018-04-11T08:53:50Z</time>
      </trkpt>
      <trkpt lat="45.8936" lon="4.74136">
        <ele>184</ele>
        <time>2018-04-11T08:53:51Z</time>
      </trkpt>
      <trkpt lat="45.89355" lon="4.74139">
        <ele>184</ele>
        <time>2018-04-11T08:53:52Z</time>
      </trkpt>
      <trkpt lat="45.8935" lon="4.7414">
        <ele>185</ele>
        <time>2018-04-11T08:53:53Z</time>
      </trkpt>
      <trkpt lat="45.89346" lon="4.74142">
        <ele>185</ele>
        <time>2018-04-11T08:53:54Z</time>
      </trkpt>
      <trkpt lat="45.89338" lon="4.74145">
        <ele>185</ele>
        <time>2018-04-11T08:53:56Z</time>
      </trkpt>
      <trkpt lat="45.89333" lon="4.74147">
        <ele>185</ele>
        <time>2018-04-11T08:53:57Z</time>
      </trkpt>
      <trkpt lat="45.89329" lon="4.74149">
        <ele>185</ele>
        <time>2018-04-11T08:53:58Z</time>
      </trkpt>
      <trkpt lat="45.89324" lon="4.74151">
        <ele>185</ele>
        <time>2018-04-11T08:53:59Z</time>
      </trkpt>
      <trkpt lat="45.8932" lon="4.74154">
        <ele>185</ele>
        <time>2018-04-11T08:54:00Z</time>
      </trkpt>
      <trkpt lat="45.89315" lon="4.74156">
        <ele>185</ele>
        <time>2018-04-11T08:54:01Z</time>
      </trkpt>
      <trkpt lat="45.89306" lon="4.74159">
        <ele>185</ele>
        <time>2018-04-11T08:54:03Z</time>
      </trkpt>
      <trkpt lat="45.89301" lon="4.74161">
        <ele>185</ele>
        <time>2018-04-11T08:54:04Z</time>
      </trkpt>
      <trkpt lat="45.89296" lon="4.74163">
        <ele>185</ele>
        <time>2018-04-11T08:54:05Z</time>
      </trkpt>
      <trkpt lat="45.89291" lon="4.74165">
        <ele>185</ele>
        <time>2018-04-11T08:54:06Z</time>
      </trkpt>
      <trkpt lat="45.89286" lon="4.74167">
        <ele>186</ele>
        <time>2018-04-11T08:54:07Z</time>
      </trkpt>
      <trkpt lat="45.89281" lon="4.74169">
        <ele>186</ele>
        <time>2018-04-11T08:54:08Z</time>
      </trkpt>
      <trkpt lat="45.89277" lon="4.74171">
        <ele>186</ele>
        <time>2018-04-11T08:54:09Z</time>
      </trkpt>
      <trkpt lat="45.89272" lon="4.74173">
        <ele>186</ele>
        <time>2018-04-11T08:54:10Z</time>
      </trkpt>
      <trkpt lat="45.89266" lon="4.74174">
        <ele>186</ele>
        <time>2018-04-11T08:54:11Z</time>
      </trkpt>
      <trkpt lat="45.89262" lon="4.74177">
        <ele>185</ele>
        <time>2018-04-11T08:54:12Z</time>
      </trkpt>
      <trkpt lat="45.89258" lon="4.74179">
        <ele>185</ele>
        <time>2018-04-11T08:54:13Z</time>
      </trkpt>
      <trkpt lat="45.89252" lon="4.74181">
        <ele>185</ele>
        <time>2018-04-11T08:54:14Z</time>
      </trkpt>
      <trkpt lat="45.89248" lon="4.74182">
        <ele>185</ele>
        <time>2018-04-11T08:54:15Z</time>
      </trkpt>
      <trkpt lat="45.89243" lon="4.74185">
        <ele>186</ele>
        <time>2018-04-11T08:54:16Z</time>
      </trkpt>
      <trkpt lat="45.89238" lon="4.74186">
        <ele>186</ele>
        <time>2018-04-11T08:54:17Z</time>
      </trkpt>
      <trkpt lat="45.89233" lon="4.74188">
        <ele>186</ele>
        <time>2018-04-11T08:54:18Z</time>
      </trkpt>
      <trkpt lat="45.89225" lon="4.74192">
        <ele>186</ele>
        <time>2018-04-11T08:54:20Z</time>
      </trkpt>
      <trkpt lat="45.8922" lon="4.74195">
        <ele>186</ele>
        <time>2018-04-11T08:54:21Z</time>
      </trkpt>
      <trkpt lat="45.89215" lon="4.74197">
        <ele>186</ele>
        <time>2018-04-11T08:54:22Z</time>
      </trkpt>
      <trkpt lat="45.8921" lon="4.74199">
        <ele>186</ele>
        <time>2018-04-11T08:54:23Z</time>
      </trkpt>
      <trkpt lat="45.89205" lon="4.742">
        <ele>186</ele>
        <time>2018-04-11T08:54:24Z</time>
      </trkpt>
      <trkpt lat="45.89201" lon="4.74203">
        <ele>186</ele>
        <time>2018-04-11T08:54:25Z</time>
      </trkpt>
      <trkpt lat="45.89193" lon="4.74206">
        <ele>186</ele>
        <time>2018-04-11T08:54:27Z</time>
      </trkpt>
      <trkpt lat="45.89189" lon="4.74208">
        <ele>186</ele>
        <time>2018-04-11T08:54:28Z</time>
      </trkpt>
      <trkpt lat="45.8918" lon="4.74213">
        <ele>186</ele>
        <time>2018-04-11T08:54:30Z</time>
      </trkpt>
      <trkpt lat="45.89176" lon="4.74215">
        <ele>186</ele>
        <time>2018-04-11T08:54:31Z</time>
      </trkpt>
      <trkpt lat="45.89169" lon="4.74217">
        <ele>186</ele>
        <time>2018-04-11T08:54:32Z</time>
      </trkpt>
      <trkpt lat="45.89166" lon="4.74219">
        <ele>186</ele>
        <time>2018-04-11T08:54:33Z</time>
      </trkpt>
      <trkpt lat="45.8916" lon="4.74219">
        <ele>186</ele>
        <time>2018-04-11T08:54:34Z</time>
      </trkpt>
      <trkpt lat="45.89154" lon="4.7422">
        <ele>186</ele>
        <time>2018-04-11T08:54:35Z</time>
      </trkpt>
      <trkpt lat="45.8915" lon="4.74223">
        <ele>186</ele>
        <time>2018-04-11T08:54:36Z</time>
      </trkpt>
      <trkpt lat="45.89145" lon="4.74226">
        <ele>186</ele>
        <time>2018-04-11T08:54:37Z</time>
      </trkpt>
      <trkpt lat="45.89142" lon="4.74228">
        <ele>186</ele>
        <time>2018-04-11T08:54:38Z</time>
      </trkpt>
      <trkpt lat="45.89137" lon="4.7423">
        <ele>186</ele>
        <time>2018-04-11T08:54:39Z</time>
      </trkpt>
      <trkpt lat="45.89132" lon="4.74232">
        <ele>186</ele>
        <time>2018-04-11T08:54:40Z</time>
      </trkpt>
      <trkpt lat="45.89126" lon="4.74234">
        <ele>186</ele>
        <time>2018-04-11T08:54:41Z</time>
      </trkpt>
      <trkpt lat="45.89121" lon="4.74235">
        <ele>186</ele>
        <time>2018-04-11T08:54:42Z</time>
      </trkpt>
      <trkpt lat="45.89117" lon="4.74238">
        <ele>186</ele>
        <time>2018-04-11T08:54:43Z</time>
      </trkpt>
      <trkpt lat="45.89112" lon="4.7424">
        <ele>186</ele>
        <time>2018-04-11T08:54:44Z</time>
      </trkpt>
      <trkpt lat="45.89107" lon="4.74242">
        <ele>186</ele>
        <time>2018-04-11T08:54:45Z</time>
      </trkpt>
      <trkpt lat="45.89101" lon="4.74244">
        <ele>186</ele>
        <time>2018-04-11T08:54:46Z</time>
      </trkpt>
      <trkpt lat="45.89097" lon="4.74245">
        <ele>186</ele>
        <time>2018-04-11T08:54:47Z</time>
      </trkpt>
      <trkpt lat="45.89092" lon="4.74247">
        <ele>186</ele>
        <time>2018-04-11T08:54:48Z</time>
      </trkpt>
      <trkpt lat="45.89087" lon="4.74249">
        <ele>186</ele>
        <time>2018-04-11T08:54:49Z</time>
      </trkpt>
      <trkpt lat="45.89082" lon="4.74251">
        <ele>186</ele>
        <time>2018-04-11T08:54:50Z</time>
      </trkpt>
      <trkpt lat="45.89077" lon="4.74253">
        <ele>186</ele>
        <time>2018-04-11T08:54:51Z</time>
      </trkpt>
      <trkpt lat="45.89069" lon="4.74255">
        <ele>186</ele>
        <time>2018-04-11T08:54:54Z</time>
      </trkpt>
      <trkpt lat="45.89068" lon="4.74255">
        <ele>186</ele>
        <time>2018-04-11T08:54:55Z</time>
      </trkpt>
      <trkpt lat="45.8906" lon="4.74259">
        <ele>187</ele>
        <time>2018-04-11T08:55:19Z</time>
      </trkpt>
      <trkpt lat="45.89058" lon="4.7426">
        <ele>187</ele>
        <time>2018-04-11T08:55:20Z</time>
      </trkpt>
      <trkpt lat="45.89052" lon="4.74264">
        <ele>187</ele>
        <time>2018-04-11T08:55:23Z</time>
      </trkpt>
      <trkpt lat="45.89049" lon="4.74265">
        <ele>187</ele>
        <time>2018-04-11T08:55:24Z</time>
      </trkpt>
      <trkpt lat="45.89041" lon="4.74268">
        <ele>187</ele>
        <time>2018-04-11T08:55:25Z</time>
      </trkpt>
      <trkpt lat="45.89037" lon="4.7427">
        <ele>187</ele>
        <time>2018-04-11T08:55:26Z</time>
      </trkpt>
      <trkpt lat="45.89029" lon="4.74272">
        <ele>187</ele>
        <time>2018-04-11T08:55:28Z</time>
      </trkpt>
      <trkpt lat="45.89023" lon="4.74273">
        <ele>187</ele>
        <time>2018-04-11T08:55:29Z</time>
      </trkpt>
      <trkpt lat="45.89018" lon="4.74275">
        <ele>187</ele>
        <time>2018-04-11T08:55:30Z</time>
      </trkpt>
      <trkpt lat="45.89013" lon="4.74276">
        <ele>187</ele>
        <time>2018-04-11T08:55:31Z</time>
      </trkpt>
      <trkpt lat="45.89008" lon="4.74278">
        <ele>187</ele>
        <time>2018-04-11T08:55:32Z</time>
      </trkpt>
      <trkpt lat="45.89001" lon="4.7428">
        <ele>187</ele>
        <time>2018-04-11T08:55:33Z</time>
      </trkpt>
      <trkpt lat="45.88996" lon="4.74281">
        <ele>187</ele>
        <time>2018-04-11T08:55:34Z</time>
      </trkpt>
      <trkpt lat="45.8899" lon="4.74282">
        <ele>187</ele>
        <time>2018-04-11T08:55:35Z</time>
      </trkpt>
      <trkpt lat="45.88986" lon="4.74284">
        <ele>187</ele>
        <time>2018-04-11T08:55:36Z</time>
      </trkpt>
      <trkpt lat="45.88981" lon="4.74284">
        <ele>187</ele>
        <time>2018-04-11T08:55:37Z</time>
      </trkpt>
      <trkpt lat="45.88975" lon="4.74285">
        <ele>187</ele>
        <time>2018-04-11T08:55:38Z</time>
      </trkpt>
      <trkpt lat="45.88969" lon="4.74285">
        <ele>187</ele>
        <time>2018-04-11T08:55:39Z</time>
      </trkpt>
      <trkpt lat="45.88964" lon="4.74282">
        <ele>187</ele>
        <time>2018-04-11T08:55:40Z</time>
      </trkpt>
      <trkpt lat="45.88957" lon="4.74279">
        <ele>187</ele>
        <time>2018-04-11T08:55:41Z</time>
      </trkpt>
      <trkpt lat="45.88953" lon="4.74276">
        <ele>187</ele>
        <time>2018-04-11T08:55:42Z</time>
      </trkpt>
      <trkpt lat="45.88948" lon="4.74276">
        <ele>187</ele>
        <time>2018-04-11T08:55:43Z</time>
      </trkpt>
      <trkpt lat="45.88939" lon="4.74274">
        <ele>187</ele>
        <time>2018-04-11T08:55:45Z</time>
      </trkpt>
      <trkpt lat="45.88936" lon="4.74273">
        <ele>187</ele>
        <time>2018-04-11T08:55:46Z</time>
      </trkpt>
      <trkpt lat="45.88932" lon="4.7427">
        <ele>187</ele>
        <time>2018-04-11T08:55:47Z</time>
      </trkpt>
      <trkpt lat="45.88927" lon="4.74268">
        <ele>187</ele>
        <time>2018-04-11T08:55:48Z</time>
      </trkpt>
      <trkpt lat="45.8892" lon="4.74262">
        <ele>187</ele>
        <time>2018-04-11T08:55:50Z</time>
      </trkpt>
      <trkpt lat="45.88916" lon="4.74259">
        <ele>187</ele>
        <time>2018-04-11T08:55:51Z</time>
      </trkpt>
      <trkpt lat="45.88911" lon="4.74258">
        <ele>187</ele>
        <time>2018-04-11T08:55:52Z</time>
      </trkpt>
      <trkpt lat="45.88906" lon="4.74255">
        <ele>187</ele>
        <time>2018-04-11T08:55:53Z</time>
      </trkpt>
      <trkpt lat="45.88899" lon="4.74248">
        <ele>187</ele>
        <time>2018-04-11T08:55:55Z</time>
      </trkpt>
      <trkpt lat="45.88894" lon="4.74245">
        <ele>187</ele>
        <time>2018-04-11T08:55:56Z</time>
      </trkpt>
      <trkpt lat="45.8889" lon="4.74243">
        <ele>187</ele>
        <time>2018-04-11T08:55:57Z</time>
      </trkpt>
      <trkpt lat="45.88885" lon="4.74239">
        <ele>187</ele>
        <time>2018-04-11T08:55:58Z</time>
      </trkpt>
      <trkpt lat="45.88882" lon="4.74236">
        <ele>187</ele>
        <time>2018-04-11T08:55:59Z</time>
      </trkpt>
      <trkpt lat="45.88877" lon="4.74232">
        <ele>187</ele>
        <time>2018-04-11T08:56:00Z</time>
      </trkpt>
      <trkpt lat="45.88872" lon="4.74229">
        <ele>187</ele>
        <time>2018-04-11T08:56:01Z</time>
      </trkpt>
      <trkpt lat="45.88867" lon="4.74226">
        <ele>187</ele>
        <time>2018-04-11T08:56:02Z</time>
      </trkpt>
      <trkpt lat="45.88863" lon="4.74222">
        <ele>187</ele>
        <time>2018-04-11T08:56:03Z</time>
      </trkpt>
      <trkpt lat="45.88858" lon="4.74218">
        <ele>187</ele>
        <time>2018-04-11T08:56:04Z</time>
      </trkpt>
      <trkpt lat="45.88853" lon="4.74216">
        <ele>187</ele>
        <time>2018-04-11T08:56:05Z</time>
      </trkpt>
      <trkpt lat="45.88847" lon="4.74213">
        <ele>187</ele>
        <time>2018-04-11T08:56:06Z</time>
      </trkpt>
      <trkpt lat="45.88839" lon="4.74207">
        <ele>187</ele>
        <time>2018-04-11T08:56:08Z</time>
      </trkpt>
      <trkpt lat="45.88835" lon="4.74204">
        <ele>187</ele>
        <time>2018-04-11T08:56:09Z</time>
      </trkpt>
      <trkpt lat="45.88827" lon="4.74198">
        <ele>187</ele>
        <time>2018-04-11T08:56:11Z</time>
      </trkpt>
      <trkpt lat="45.88822" lon="4.74193">
        <ele>187</ele>
        <time>2018-04-11T08:56:12Z</time>
      </trkpt>
      <trkpt lat="45.88817" lon="4.7419">
        <ele>187</ele>
        <time>2018-04-11T08:56:13Z</time>
      </trkpt>
      <trkpt lat="45.88812" lon="4.74187">
        <ele>187</ele>
        <time>2018-04-11T08:56:14Z</time>
      </trkpt>
      <trkpt lat="45.88806" lon="4.74185">
        <ele>187</ele>
        <time>2018-04-11T08:56:15Z</time>
      </trkpt>
      <trkpt lat="45.88801" lon="4.74184">
        <ele>187</ele>
        <time>2018-04-11T08:56:16Z</time>
      </trkpt>
      <trkpt lat="45.88797" lon="4.74182">
        <ele>187</ele>
        <time>2018-04-11T08:56:17Z</time>
      </trkpt>
      <trkpt lat="45.88792" lon="4.7418">
        <ele>188</ele>
        <time>2018-04-11T08:56:18Z</time>
      </trkpt>
      <trkpt lat="45.88784" lon="4.74175">
        <ele>188</ele>
        <time>2018-04-11T08:56:20Z</time>
      </trkpt>
      <trkpt lat="45.8878" lon="4.74173">
        <ele>188</ele>
        <time>2018-04-11T08:56:21Z</time>
      </trkpt>
      <trkpt lat="45.88772" lon="4.74168">
        <ele>188</ele>
        <time>2018-04-11T08:56:23Z</time>
      </trkpt>
      <trkpt lat="45.8877" lon="4.74166">
        <ele>187</ele>
        <time>2018-04-11T08:56:24Z</time>
      </trkpt>
      <trkpt lat="45.88764" lon="4.74162">
        <ele>187</ele>
        <time>2018-04-11T08:56:25Z</time>
      </trkpt>
      <trkpt lat="45.88759" lon="4.74158">
        <ele>187</ele>
        <time>2018-04-11T08:56:26Z</time>
      </trkpt>
      <trkpt lat="45.88755" lon="4.74155">
        <ele>187</ele>
        <time>2018-04-11T08:56:27Z</time>
      </trkpt>
      <trkpt lat="45.88751" lon="4.74152">
        <ele>187</ele>
        <time>2018-04-11T08:56:28Z</time>
      </trkpt>
      <trkpt lat="45.88746" lon="4.74149">
        <ele>188</ele>
        <time>2018-04-11T08:56:29Z</time>
      </trkpt>
      <trkpt lat="45.88742" lon="4.74146">
        <ele>188</ele>
        <time>2018-04-11T08:56:30Z</time>
      </trkpt>
      <trkpt lat="45.88737" lon="4.74142">
        <ele>188</ele>
        <time>2018-04-11T08:56:31Z</time>
      </trkpt>
      <trkpt lat="45.8873" lon="4.74139">
        <ele>188</ele>
        <time>2018-04-11T08:56:32Z</time>
      </trkpt>
      <trkpt lat="45.88726" lon="4.74136">
        <ele>188</ele>
        <time>2018-04-11T08:56:33Z</time>
      </trkpt>
      <trkpt lat="45.88722" lon="4.74133">
        <ele>188</ele>
        <time>2018-04-11T08:56:34Z</time>
      </trkpt>
      <trkpt lat="45.88715" lon="4.74126">
        <ele>188</ele>
        <time>2018-04-11T08:56:36Z</time>
      </trkpt>
      <trkpt lat="45.88711" lon="4.74122">
        <ele>188</ele>
        <time>2018-04-11T08:56:37Z</time>
      </trkpt>
      <trkpt lat="45.88706" lon="4.74119">
        <ele>188</ele>
        <time>2018-04-11T08:56:38Z</time>
      </trkpt>
      <trkpt lat="45.88702" lon="4.74116">
        <ele>188</ele>
        <time>2018-04-11T08:56:39Z</time>
      </trkpt>
      <trkpt lat="45.88696" lon="4.74113">
        <ele>188</ele>
        <time>2018-04-11T08:56:41Z</time>
      </trkpt>
      <trkpt lat="45.8869" lon="4.74114">
        <ele>188</ele>
        <time>2018-04-11T08:56:42Z</time>
      </trkpt>
      <trkpt lat="45.88685" lon="4.74113">
        <ele>188</ele>
        <time>2018-04-11T08:56:43Z</time>
      </trkpt>
      <trkpt lat="45.88681" lon="4.74112">
        <ele>188</ele>
        <time>2018-04-11T08:56:44Z</time>
      </trkpt>
      <trkpt lat="45.88678" lon="4.74107">
        <ele>188</ele>
        <time>2018-04-11T08:56:45Z</time>
      </trkpt>
      <trkpt lat="45.88675" lon="4.74102">
        <ele>188</ele>
        <time>2018-04-11T08:56:46Z</time>
      </trkpt>
      <trkpt lat="45.88672" lon="4.74095">
        <ele>188</ele>
        <time>2018-04-11T08:56:47Z</time>
      </trkpt>
      <trkpt lat="45.8867" lon="4.74089">
        <ele>188</ele>
        <time>2018-04-11T08:56:48Z</time>
      </trkpt>
      <trkpt lat="45.88668" lon="4.74082">
        <ele>188</ele>
        <time>2018-04-11T08:56:49Z</time>
      </trkpt>
      <trkpt lat="45.88666" lon="4.74075">
        <ele>188</ele>
        <time>2018-04-11T08:56:50Z</time>
      </trkpt>
      <trkpt lat="45.88663" lon="4.74068">
        <ele>188</ele>
        <time>2018-04-11T08:56:51Z</time>
      </trkpt>
      <trkpt lat="45.88661" lon="4.74061">
        <ele>187</ele>
        <time>2018-04-11T08:56:52Z</time>
      </trkpt>
      <trkpt lat="45.88659" lon="4.74054">
        <ele>187</ele>
        <time>2018-04-11T08:56:53Z</time>
      </trkpt>
      <trkpt lat="45.88658" lon="4.74046">
        <ele>187</ele>
        <time>2018-04-11T08:56:54Z</time>
      </trkpt>
      <trkpt lat="45.88656" lon="4.74038">
        <ele>187</ele>
        <time>2018-04-11T08:56:55Z</time>
      </trkpt>
      <trkpt lat="45.88654" lon="4.7403">
        <ele>187</ele>
        <time>2018-04-11T08:56:56Z</time>
      </trkpt>
      <trkpt lat="45.88653" lon="4.74022">
        <ele>187</ele>
        <time>2018-04-11T08:56:57Z</time>
      </trkpt>
      <trkpt lat="45.88652" lon="4.74013">
        <ele>187</ele>
        <time>2018-04-11T08:56:58Z</time>
      </trkpt>
      <trkpt lat="45.88651" lon="4.74004">
        <ele>187</ele>
        <time>2018-04-11T08:56:59Z</time>
      </trkpt>
      <trkpt lat="45.8865" lon="4.73996">
        <ele>186</ele>
        <time>2018-04-11T08:57:00Z</time>
      </trkpt>
      <trkpt lat="45.88648" lon="4.73988">
        <ele>187</ele>
        <time>2018-04-11T08:57:01Z</time>
      </trkpt>
      <trkpt lat="45.88646" lon="4.73979">
        <ele>187</ele>
        <time>2018-04-11T08:57:02Z</time>
      </trkpt>
      <trkpt lat="45.88644" lon="4.73971">
        <ele>187</ele>
        <time>2018-04-11T08:57:03Z</time>
      </trkpt>
      <trkpt lat="45.88643" lon="4.73964">
        <ele>187</ele>
        <time>2018-04-11T08:57:04Z</time>
      </trkpt>
      <trkpt lat="45.88642" lon="4.73956">
        <ele>187</ele>
        <time>2018-04-11T08:57:05Z</time>
      </trkpt>
      <trkpt lat="45.88642" lon="4.73949">
        <ele>187</ele>
        <time>2018-04-11T08:57:06Z</time>
      </trkpt>
      <trkpt lat="45.88641" lon="4.73942">
        <ele>187</ele>
        <time>2018-04-11T08:57:07Z</time>
      </trkpt>
      <trkpt lat="45.88643" lon="4.73933">
        <ele>187</ele>
        <time>2018-04-11T08:57:08Z</time>
      </trkpt>
      <trkpt lat="45.88643" lon="4.73924">
        <ele>187</ele>
        <time>2018-04-11T08:57:09Z</time>
      </trkpt>
      <trkpt lat="45.88642" lon="4.73916">
        <ele>187</ele>
        <time>2018-04-11T08:57:10Z</time>
      </trkpt>
      <trkpt lat="45.88643" lon="4.73908">
        <ele>187</ele>
        <time>2018-04-11T08:57:11Z</time>
      </trkpt>
      <trkpt lat="45.88642" lon="4.739">
        <ele>187</ele>
        <time>2018-04-11T08:57:12Z</time>
      </trkpt>
      <trkpt lat="45.88643" lon="4.73893">
        <ele>187</ele>
        <time>2018-04-11T08:57:13Z</time>
      </trkpt>
      <trkpt lat="45.88643" lon="4.73885">
        <ele>187</ele>
        <time>2018-04-11T08:57:14Z</time>
      </trkpt>
      <trkpt lat="45.88643" lon="4.73877">
        <ele>187</ele>
        <time>2018-04-11T08:57:15Z</time>
      </trkpt>
      <trkpt lat="45.88643" lon="4.73869">
        <ele>187</ele>
        <time>2018-04-11T08:57:16Z</time>
      </trkpt>
      <trkpt lat="45.88643" lon="4.73862">
        <ele>187</ele>
        <time>2018-04-11T08:57:17Z</time>
      </trkpt>
      <trkpt lat="45.88643" lon="4.73854">
        <ele>187</ele>
        <time>2018-04-11T08:57:18Z</time>
      </trkpt>
      <trkpt lat="45.88644" lon="4.73848">
        <ele>187</ele>
        <time>2018-04-11T08:57:19Z</time>
      </trkpt>
      <trkpt lat="45.88644" lon="4.73839">
        <ele>187</ele>
        <time>2018-04-11T08:57:20Z</time>
      </trkpt>
      <trkpt lat="45.88644" lon="4.73831">
        <ele>187</ele>
        <time>2018-04-11T08:57:21Z</time>
      </trkpt>
      <trkpt lat="45.88643" lon="4.73824">
        <ele>187</ele>
        <time>2018-04-11T08:57:22Z</time>
      </trkpt>
      <trkpt lat="45.88643" lon="4.73816">
        <ele>187</ele>
        <time>2018-04-11T08:57:23Z</time>
      </trkpt>
      <trkpt lat="45.88643" lon="4.73809">
        <ele>187</ele>
        <time>2018-04-11T08:57:24Z</time>
      </trkpt>
      <trkpt lat="45.88643" lon="4.73802">
        <ele>187</ele>
        <time>2018-04-11T08:57:25Z</time>
      </trkpt>
      <trkpt lat="45.88644" lon="4.73794">
        <ele>187</ele>
        <time>2018-04-11T08:57:26Z</time>
      </trkpt>
      <trkpt lat="45.88643" lon="4.73787">
        <ele>187</ele>
        <time>2018-04-11T08:57:27Z</time>
      </trkpt>
      <trkpt lat="45.88644" lon="4.73781">
        <ele>187</ele>
        <time>2018-04-11T08:57:28Z</time>
      </trkpt>
      <trkpt lat="45.88644" lon="4.73768">
        <ele>187</ele>
        <time>2018-04-11T08:57:30Z</time>
      </trkpt>
      <trkpt lat="45.88644" lon="4.73761">
        <ele>187</ele>
        <time>2018-04-11T08:57:31Z</time>
      </trkpt>
      <trkpt lat="45.88645" lon="4.73749">
        <ele>187</ele>
        <time>2018-04-11T08:57:33Z</time>
      </trkpt>
      <trkpt lat="45.88644" lon="4.73743">
        <ele>187</ele>
        <time>2018-04-11T08:57:34Z</time>
      </trkpt>
      <trkpt lat="45.88644" lon="4.73731">
        <ele>186</ele>
        <time>2018-04-11T08:57:36Z</time>
      </trkpt>
      <trkpt lat="45.88644" lon="4.73725">
        <ele>186</ele>
        <time>2018-04-11T08:57:37Z</time>
      </trkpt>
      <trkpt lat="45.88644" lon="4.73714">
        <ele>186</ele>
        <time>2018-04-11T08:57:39Z</time>
      </trkpt>
      <trkpt lat="45.88644" lon="4.73708">
        <ele>186</ele>
        <time>2018-04-11T08:57:40Z</time>
      </trkpt>
      <trkpt lat="45.88644" lon="4.73697">
        <ele>186</ele>
        <time>2018-04-11T08:57:43Z</time>
      </trkpt>
      <trkpt lat="45.88644" lon="4.73694">
        <ele>186</ele>
        <time>2018-04-11T08:57:44Z</time>
      </trkpt>
      <trkpt lat="45.88644" lon="4.73685">
        <ele>186</ele>
        <time>2018-04-11T08:57:46Z</time>
      </trkpt>
      <trkpt lat="45.88645" lon="4.73673">
        <ele>186</ele>
        <time>2018-04-11T08:57:47Z</time>
      </trkpt>
      <trkpt lat="45.88645" lon="4.73662">
        <ele>186</ele>
        <time>2018-04-11T08:57:49Z</time>
      </trkpt>
      <trkpt lat="45.88645" lon="4.73656">
        <ele>186</ele>
        <time>2018-04-11T08:57:50Z</time>
      </trkpt>
      <trkpt lat="45.88645" lon="4.7365">
        <ele>186</ele>
        <time>2018-04-11T08:57:51Z</time>
      </trkpt>
      <trkpt lat="45.88645" lon="4.73642">
        <ele>186</ele>
        <time>2018-04-11T08:57:52Z</time>
      </trkpt>
      <trkpt lat="45.88646" lon="4.73635">
        <ele>186</ele>
        <time>2018-04-11T08:57:53Z</time>
      </trkpt>
      <trkpt lat="45.88646" lon="4.73628">
        <ele>186</ele>
        <time>2018-04-11T08:57:54Z</time>
      </trkpt>
      <trkpt lat="45.88646" lon="4.73622">
        <ele>186</ele>
        <time>2018-04-11T08:57:55Z</time>
      </trkpt>
      <trkpt lat="45.88646" lon="4.73614">
        <ele>186</ele>
        <time>2018-04-11T08:57:56Z</time>
      </trkpt>
      <trkpt lat="45.88647" lon="4.73607">
        <ele>186</ele>
        <time>2018-04-11T08:57:57Z</time>
      </trkpt>
      <trkpt lat="45.88647" lon="4.73599">
        <ele>186</ele>
        <time>2018-04-11T08:57:58Z</time>
      </trkpt>
      <trkpt lat="45.88647" lon="4.7359">
        <ele>185</ele>
        <time>2018-04-11T08:57:59Z</time>
      </trkpt>
      <trkpt lat="45.88647" lon="4.73583">
        <ele>185</ele>
        <time>2018-04-11T08:58:00Z</time>
      </trkpt>
      <trkpt lat="45.88646" lon="4.73573">
        <ele>185</ele>
        <time>2018-04-11T08:58:01Z</time>
      </trkpt>
      <trkpt lat="45.88646" lon="4.73564">
        <ele>185</ele>
        <time>2018-04-11T08:58:02Z</time>
      </trkpt>
      <trkpt lat="45.88646" lon="4.73556">
        <ele>185</ele>
        <time>2018-04-11T08:58:03Z</time>
      </trkpt>
      <trkpt lat="45.88647" lon="4.73545">
        <ele>185</ele>
        <time>2018-04-11T08:58:04Z</time>
      </trkpt>
      <trkpt lat="45.88648" lon="4.73534">
        <ele>185</ele>
        <time>2018-04-11T08:58:05Z</time>
      </trkpt>
      <trkpt lat="45.8865" lon="4.73525">
        <ele>185</ele>
        <time>2018-04-11T08:58:06Z</time>
      </trkpt>
      <trkpt lat="45.88651" lon="4.73515">
        <ele>185</ele>
        <time>2018-04-11T08:58:07Z</time>
      </trkpt>
      <trkpt lat="45.88653" lon="4.73507">
        <ele>184</ele>
        <time>2018-04-11T08:58:08Z</time>
      </trkpt>
      <trkpt lat="45.88654" lon="4.735">
        <ele>184</ele>
        <time>2018-04-11T08:58:09Z</time>
      </trkpt>
      <trkpt lat="45.88655" lon="4.73492">
        <ele>184</ele>
        <time>2018-04-11T08:58:10Z</time>
      </trkpt>
      <trkpt lat="45.88654" lon="4.73485">
        <ele>184</ele>
        <time>2018-04-11T08:58:11Z</time>
      </trkpt>
      <trkpt lat="45.88651" lon="4.73478">
        <ele>184</ele>
        <time>2018-04-11T08:58:12Z</time>
      </trkpt>
      <trkpt lat="45.88645" lon="4.73475">
        <ele>184</ele>
        <time>2018-04-11T08:58:13Z</time>
      </trkpt>
      <trkpt lat="45.88641" lon="4.73472">
        <ele>184</ele>
        <time>2018-04-11T08:58:14Z</time>
      </trkpt>
      <trkpt lat="45.88636" lon="4.73467">
        <ele>184</ele>
        <time>2018-04-11T08:58:15Z</time>
      </trkpt>
      <trkpt lat="45.88632" lon="4.73462">
        <ele>184</ele>
        <time>2018-04-11T08:58:16Z</time>
      </trkpt>
      <trkpt lat="45.88631" lon="4.73455">
        <ele>184</ele>
        <time>2018-04-11T08:58:17Z</time>
      </trkpt>
      <trkpt lat="45.88633" lon="4.73448">
        <ele>184</ele>
        <time>2018-04-11T08:58:18Z</time>
      </trkpt>
      <trkpt lat="45.88634" lon="4.7344">
        <ele>184</ele>
        <time>2018-04-11T08:58:19Z</time>
      </trkpt>
      <trkpt lat="45.88636" lon="4.73432">
        <ele>184</ele>
        <time>2018-04-11T08:58:20Z</time>
      </trkpt>
      <trkpt lat="45.88636" lon="4.73424">
        <ele>184</ele>
        <time>2018-04-11T08:58:21Z</time>
      </trkpt>
      <trkpt lat="45.88635" lon="4.73417">
        <ele>183</ele>
        <time>2018-04-11T08:58:22Z</time>
      </trkpt>
      <trkpt lat="45.88633" lon="4.73407">
        <ele>183</ele>
        <time>2018-04-11T08:58:23Z</time>
      </trkpt>
      <trkpt lat="45.88631" lon="4.73399">
        <ele>183</ele>
        <time>2018-04-11T08:58:24Z</time>
      </trkpt>
      <trkpt lat="45.88627" lon="4.73394">
        <ele>183</ele>
        <time>2018-04-11T08:58:25Z</time>
      </trkpt>
      <trkpt lat="45.88622" lon="4.7339">
        <ele>183</ele>
        <time>2018-04-11T08:58:26Z</time>
      </trkpt>
      <trkpt lat="45.88618" lon="4.73387">
        <ele>183</ele>
        <time>2018-04-11T08:58:27Z</time>
      </trkpt>
      <trkpt lat="45.88612" lon="4.73387">
        <ele>183</ele>
        <time>2018-04-11T08:58:28Z</time>
      </trkpt>
      <trkpt lat="45.88607" lon="4.73389">
        <ele>183</ele>
        <time>2018-04-11T08:58:29Z</time>
      </trkpt>
      <trkpt lat="45.88602" lon="4.7339">
        <ele>183</ele>
        <time>2018-04-11T08:58:30Z</time>
      </trkpt>
      <trkpt lat="45.88597" lon="4.73392">
        <ele>183</ele>
        <time>2018-04-11T08:58:31Z</time>
      </trkpt>
      <trkpt lat="45.88592" lon="4.73394">
        <ele>183</ele>
        <time>2018-04-11T08:58:32Z</time>
      </trkpt>
      <trkpt lat="45.88588" lon="4.73394">
        <ele>183</ele>
        <time>2018-04-11T08:58:33Z</time>
      </trkpt>
      <trkpt lat="45.88582" lon="4.73396">
        <ele>183</ele>
        <time>2018-04-11T08:58:34Z</time>
      </trkpt>
      <trkpt lat="45.88577" lon="4.73397">
        <ele>183</ele>
        <time>2018-04-11T08:58:35Z</time>
      </trkpt>
      <trkpt lat="45.88573" lon="4.73399">
        <ele>183</ele>
        <time>2018-04-11T08:58:36Z</time>
      </trkpt>
      <trkpt lat="45.88567" lon="4.734">
        <ele>183</ele>
        <time>2018-04-11T08:58:37Z</time>
      </trkpt>
      <trkpt lat="45.88563" lon="4.73401">
        <ele>183</ele>
        <time>2018-04-11T08:58:38Z</time>
      </trkpt>
      <trkpt lat="45.88558" lon="4.73403">
        <ele>183</ele>
        <time>2018-04-11T08:58:39Z</time>
      </trkpt>
      <trkpt lat="45.88553" lon="4.73405">
        <ele>183</ele>
        <time>2018-04-11T08:58:40Z</time>
      </trkpt>
      <trkpt lat="45.88548" lon="4.73406">
        <ele>183</ele>
        <time>2018-04-11T08:58:41Z</time>
      </trkpt>
      <trkpt lat="45.88543" lon="4.73408">
        <ele>183</ele>
        <time>2018-04-11T08:58:42Z</time>
      </trkpt>
      <trkpt lat="45.88538" lon="4.7341">
        <ele>183</ele>
        <time>2018-04-11T08:58:43Z</time>
      </trkpt>
      <trkpt lat="45.88533" lon="4.73412">
        <ele>183</ele>
        <time>2018-04-11T08:58:44Z</time>
      </trkpt>
      <trkpt lat="45.88528" lon="4.73413">
        <ele>183</ele>
        <time>2018-04-11T08:58:45Z</time>
      </trkpt>
      <trkpt lat="45.88522" lon="4.73415">
        <ele>183</ele>
        <time>2018-04-11T08:58:46Z</time>
      </trkpt>
      <trkpt lat="45.88518" lon="4.73417">
        <ele>184</ele>
        <time>2018-04-11T08:58:47Z</time>
      </trkpt>
      <trkpt lat="45.88512" lon="4.73417">
        <ele>184</ele>
        <time>2018-04-11T08:58:48Z</time>
      </trkpt>
      <trkpt lat="45.88506" lon="4.73419">
        <ele>184</ele>
        <time>2018-04-11T08:58:49Z</time>
      </trkpt>
      <trkpt lat="45.885" lon="4.7342">
        <ele>184</ele>
        <time>2018-04-11T08:58:50Z</time>
      </trkpt>
      <trkpt lat="45.88496" lon="4.73421">
        <ele>184</ele>
        <time>2018-04-11T08:58:51Z</time>
      </trkpt>
      <trkpt lat="45.8849" lon="4.73424">
        <ele>184</ele>
        <time>2018-04-11T08:58:52Z</time>
      </trkpt>
      <trkpt lat="45.88485" lon="4.73426">
        <ele>184</ele>
        <time>2018-04-11T08:58:53Z</time>
      </trkpt>
      <trkpt lat="45.88479" lon="4.73427">
        <ele>184</ele>
        <time>2018-04-11T08:58:54Z</time>
      </trkpt>
      <trkpt lat="45.88474" lon="4.73428">
        <ele>184</ele>
        <time>2018-04-11T08:58:55Z</time>
      </trkpt>
      <trkpt lat="45.88469" lon="4.73429">
        <ele>184</ele>
        <time>2018-04-11T08:58:56Z</time>
      </trkpt>
      <trkpt lat="45.88464" lon="4.73431">
        <ele>184</ele>
        <time>2018-04-11T08:58:57Z</time>
      </trkpt>
      <trkpt lat="45.88459" lon="4.73432">
        <ele>184</ele>
        <time>2018-04-11T08:58:58Z</time>
      </trkpt>
      <trkpt lat="45.88454" lon="4.73433">
        <ele>184</ele>
        <time>2018-04-11T08:58:59Z</time>
      </trkpt>
      <trkpt lat="45.8845" lon="4.73436">
        <ele>184</ele>
        <time>2018-04-11T08:59:00Z</time>
      </trkpt>
      <trkpt lat="45.88445" lon="4.73437">
        <ele>184</ele>
        <time>2018-04-11T08:59:01Z</time>
      </trkpt>
      <trkpt lat="45.88441" lon="4.73438">
        <ele>184</ele>
        <time>2018-04-11T08:59:02Z</time>
      </trkpt>
      <trkpt lat="45.88436" lon="4.7344">
        <ele>184</ele>
        <time>2018-04-11T08:59:03Z</time>
      </trkpt>
      <trkpt lat="45.88431" lon="4.73441">
        <ele>184</ele>
        <time>2018-04-11T08:59:04Z</time>
      </trkpt>
      <trkpt lat="45.88427" lon="4.73442">
        <ele>184</ele>
        <time>2018-04-11T08:59:05Z</time>
      </trkpt>
      <trkpt lat="45.88421" lon="4.73444">
        <ele>184</ele>
        <time>2018-04-11T08:59:06Z</time>
      </trkpt>
      <trkpt lat="45.88417" lon="4.73446">
        <ele>184</ele>
        <time>2018-04-11T08:59:07Z</time>
      </trkpt>
      <trkpt lat="45.88411" lon="4.73447">
        <ele>184</ele>
        <time>2018-04-11T08:59:08Z</time>
      </trkpt>
      <trkpt lat="45.88407" lon="4.73447">
        <ele>184</ele>
        <time>2018-04-11T08:59:09Z</time>
      </trkpt>
      <trkpt lat="45.88402" lon="4.73449">
        <ele>184</ele>
        <time>2018-04-11T08:59:10Z</time>
      </trkpt>
      <trkpt lat="45.88396" lon="4.7345">
        <ele>184</ele>
        <time>2018-04-11T08:59:11Z</time>
      </trkpt>
      <trkpt lat="45.88392" lon="4.73451">
        <ele>184</ele>
        <time>2018-04-11T08:59:12Z</time>
      </trkpt>
      <trkpt lat="45.88387" lon="4.73453">
        <ele>184</ele>
        <time>2018-04-11T08:59:13Z</time>
      </trkpt>
      <trkpt lat="45.88382" lon="4.73455">
        <ele>184</ele>
        <time>2018-04-11T08:59:14Z</time>
      </trkpt>
      <trkpt lat="45.88376" lon="4.73456">
        <ele>184</ele>
        <time>2018-04-11T08:59:15Z</time>
      </trkpt>
      <trkpt lat="45.88371" lon="4.73458">
        <ele>184</ele>
        <time>2018-04-11T08:59:16Z</time>
      </trkpt>
      <trkpt lat="45.88366" lon="4.73459">
        <ele>184</ele>
        <time>2018-04-11T08:59:17Z</time>
      </trkpt>
      <trkpt lat="45.88362" lon="4.7346">
        <ele>184</ele>
        <time>2018-04-11T08:59:18Z</time>
      </trkpt>
      <trkpt lat="45.88357" lon="4.73462">
        <ele>184</ele>
        <time>2018-04-11T08:59:19Z</time>
      </trkpt>
      <trkpt lat="45.88352" lon="4.73464">
        <ele>184</ele>
        <time>2018-04-11T08:59:20Z</time>
      </trkpt>
      <trkpt lat="45.88348" lon="4.73465">
        <ele>184</ele>
        <time>2018-04-11T08:59:21Z</time>
      </trkpt>
      <trkpt lat="45.88343" lon="4.73466">
        <ele>184</ele>
        <time>2018-04-11T08:59:22Z</time>
      </trkpt>
      <trkpt lat="45.88338" lon="4.73466">
        <ele>184</ele>
        <time>2018-04-11T08:59:23Z</time>
      </trkpt>
      <trkpt lat="45.88333" lon="4.73468">
        <ele>184</ele>
        <time>2018-04-11T08:59:24Z</time>
      </trkpt>
      <trkpt lat="45.88324" lon="4.73471">
        <ele>184</ele>
        <time>2018-04-11T08:59:26Z</time>
      </trkpt>
      <trkpt lat="45.8832" lon="4.73472">
        <ele>184</ele>
        <time>2018-04-11T08:59:27Z</time>
      </trkpt>
      <trkpt lat="45.88315" lon="4.73473">
        <ele>184</ele>
        <time>2018-04-11T08:59:28Z</time>
      </trkpt>
      <trkpt lat="45.88311" lon="4.73474">
        <ele>184</ele>
        <time>2018-04-11T08:59:29Z</time>
      </trkpt>
      <trkpt lat="45.88303" lon="4.73476">
        <ele>184</ele>
        <time>2018-04-11T08:59:31Z</time>
      </trkpt>
      <trkpt lat="45.883" lon="4.73478">
        <ele>184</ele>
        <time>2018-04-11T08:59:32Z</time>
      </trkpt>
      <trkpt lat="45.88293" lon="4.73482">
        <ele>184</ele>
        <time>2018-04-11T08:59:34Z</time>
      </trkpt>
      <trkpt lat="45.88289" lon="4.73484">
        <ele>184</ele>
        <time>2018-04-11T08:59:35Z</time>
      </trkpt>
      <trkpt lat="45.88282" lon="4.7349">
        <ele>184</ele>
        <time>2018-04-11T08:59:37Z</time>
      </trkpt>
      <trkpt lat="45.88277" lon="4.73492">
        <ele>184</ele>
        <time>2018-04-11T08:59:38Z</time>
      </trkpt>
      <trkpt lat="45.88273" lon="4.73494">
        <ele>184</ele>
        <time>2018-04-11T08:59:39Z</time>
      </trkpt>
      <trkpt lat="45.88269" lon="4.73497">
        <ele>184</ele>
        <time>2018-04-11T08:59:40Z</time>
      </trkpt>
      <trkpt lat="45.88261" lon="4.73502">
        <ele>185</ele>
        <time>2018-04-11T08:59:42Z</time>
      </trkpt>
      <trkpt lat="45.88257" lon="4.73506">
        <ele>185</ele>
        <time>2018-04-11T08:59:43Z</time>
      </trkpt>
      <trkpt lat="45.88252" lon="4.73509">
        <ele>185</ele>
        <time>2018-04-11T08:59:44Z</time>
      </trkpt>
      <trkpt lat="45.88248" lon="4.73511">
        <ele>185</ele>
        <time>2018-04-11T08:59:45Z</time>
      </trkpt>
      <trkpt lat="45.88244" lon="4.73514">
        <ele>185</ele>
        <time>2018-04-11T08:59:46Z</time>
      </trkpt>
      <trkpt lat="45.8824" lon="4.73516">
        <ele>185</ele>
        <time>2018-04-11T08:59:47Z</time>
      </trkpt>
      <trkpt lat="45.88233" lon="4.73522">
        <ele>185</ele>
        <time>2018-04-11T08:59:49Z</time>
      </trkpt>
      <trkpt lat="45.88229" lon="4.73524">
        <ele>185</ele>
        <time>2018-04-11T08:59:50Z</time>
      </trkpt>
      <trkpt lat="45.88222" lon="4.7353">
        <ele>185</ele>
        <time>2018-04-11T08:59:52Z</time>
      </trkpt>
      <trkpt lat="45.88219" lon="4.73532">
        <ele>185</ele>
        <time>2018-04-11T08:59:53Z</time>
      </trkpt>
      <trkpt lat="45.88211" lon="4.73535">
        <ele>185</ele>
        <time>2018-04-11T08:59:55Z</time>
      </trkpt>
      <trkpt lat="45.88207" lon="4.73537">
        <ele>186</ele>
        <time>2018-04-11T08:59:56Z</time>
      </trkpt>
      <trkpt lat="45.88199" lon="4.73543">
        <ele>186</ele>
        <time>2018-04-11T08:59:58Z</time>
      </trkpt>
      <trkpt lat="45.88195" lon="4.73546">
        <ele>186</ele>
        <time>2018-04-11T08:59:59Z</time>
      </trkpt>
      <trkpt lat="45.88191" lon="4.73549">
        <ele>186</ele>
        <time>2018-04-11T09:00:00Z</time>
      </trkpt>
      <trkpt lat="45.88186" lon="4.73552">
        <ele>186</ele>
        <time>2018-04-11T09:00:01Z</time>
      </trkpt>
      <trkpt lat="45.88179" lon="4.73557">
        <ele>186</ele>
        <time>2018-04-11T09:00:03Z</time>
      </trkpt>
      <trkpt lat="45.88176" lon="4.73559">
        <ele>186</ele>
        <time>2018-04-11T09:00:04Z</time>
      </trkpt>
      <trkpt lat="45.88168" lon="4.73564">
        <ele>186</ele>
        <time>2018-04-11T09:00:06Z</time>
      </trkpt>
      <trkpt lat="45.88164" lon="4.73567">
        <ele>186</ele>
        <time>2018-04-11T09:00:07Z</time>
      </trkpt>
      <trkpt lat="45.88157" lon="4.73573">
        <ele>186</ele>
        <time>2018-04-11T09:00:09Z</time>
      </trkpt>
      <trkpt lat="45.88153" lon="4.73576">
        <ele>186</ele>
        <time>2018-04-11T09:00:10Z</time>
      </trkpt>
      <trkpt lat="45.88144" lon="4.7358">
        <ele>186</ele>
        <time>2018-04-11T09:00:12Z</time>
      </trkpt>
      <trkpt lat="45.8814" lon="4.73582">
        <ele>186</ele>
        <time>2018-04-11T09:00:13Z</time>
      </trkpt>
      <trkpt lat="45.88135" lon="4.73584">
        <ele>187</ele>
        <time>2018-04-11T09:00:14Z</time>
      </trkpt>
      <trkpt lat="45.88131" lon="4.73587">
        <ele>187</ele>
        <time>2018-04-11T09:00:15Z</time>
      </trkpt>
      <trkpt lat="45.88124" lon="4.73592">
        <ele>187</ele>
        <time>2018-04-11T09:00:17Z</time>
      </trkpt>
      <trkpt lat="45.8812" lon="4.73594">
        <ele>187</ele>
        <time>2018-04-11T09:00:18Z</time>
      </trkpt>
      <trkpt lat="45.88115" lon="4.73597">
        <ele>187</ele>
        <time>2018-04-11T09:00:19Z</time>
      </trkpt>
      <trkpt lat="45.88111" lon="4.736">
        <ele>187</ele>
        <time>2018-04-11T09:00:20Z</time>
      </trkpt>
      <trkpt lat="45.88103" lon="4.73605">
        <ele>188</ele>
        <time>2018-04-11T09:00:22Z</time>
      </trkpt>
      <trkpt lat="45.88099" lon="4.73608">
        <ele>188</ele>
        <time>2018-04-11T09:00:23Z</time>
      </trkpt>
      <trkpt lat="45.88092" lon="4.73614">
        <ele>188</ele>
        <time>2018-04-11T09:00:25Z</time>
      </trkpt>
      <trkpt lat="45.88088" lon="4.73618">
        <ele>188</ele>
        <time>2018-04-11T09:00:26Z</time>
      </trkpt>
      <trkpt lat="45.88083" lon="4.7362">
        <ele>188</ele>
        <time>2018-04-11T09:00:27Z</time>
      </trkpt>
      <trkpt lat="45.88079" lon="4.73623">
        <ele>189</ele>
        <time>2018-04-11T09:00:28Z</time>
      </trkpt>
      <trkpt lat="45.88071" lon="4.73627">
        <ele>189</ele>
        <time>2018-04-11T09:00:30Z</time>
      </trkpt>
      <trkpt lat="45.88068" lon="4.7363">
        <ele>189</ele>
        <time>2018-04-11T09:00:31Z</time>
      </trkpt>
      <trkpt lat="45.88064" lon="4.73632">
        <ele>189</ele>
        <time>2018-04-11T09:00:33Z</time>
      </trkpt>
      <trkpt lat="45.88058" lon="4.73636">
        <ele>189</ele>
        <time>2018-04-11T09:00:34Z</time>
      </trkpt>
      <trkpt lat="45.88049" lon="4.7364">
        <ele>189</ele>
        <time>2018-04-11T09:00:36Z</time>
      </trkpt>
      <trkpt lat="45.88045" lon="4.73643">
        <ele>189</ele>
        <time>2018-04-11T09:00:37Z</time>
      </trkpt>
      <trkpt lat="45.88037" lon="4.73648">
        <ele>189</ele>
        <time>2018-04-11T09:00:39Z</time>
      </trkpt>
      <trkpt lat="45.88033" lon="4.7365">
        <ele>189</ele>
        <time>2018-04-11T09:00:40Z</time>
      </trkpt>
      <trkpt lat="45.88025" lon="4.73655">
        <ele>189</ele>
        <time>2018-04-11T09:00:42Z</time>
      </trkpt>
      <trkpt lat="45.88021" lon="4.73656">
        <ele>189</ele>
        <time>2018-04-11T09:00:43Z</time>
      </trkpt>
      <trkpt lat="45.88016" lon="4.73656">
        <ele>189</ele>
        <time>2018-04-11T09:00:44Z</time>
      </trkpt>
      <trkpt lat="45.88011" lon="4.73656">
        <ele>189</ele>
        <time>2018-04-11T09:00:45Z</time>
      </trkpt>
      <trkpt lat="45.88005" lon="4.73656">
        <ele>190</ele>
        <time>2018-04-11T09:00:46Z</time>
      </trkpt>
      <trkpt lat="45.87999" lon="4.73655">
        <ele>190</ele>
        <time>2018-04-11T09:00:47Z</time>
      </trkpt>
      <trkpt lat="45.87994" lon="4.73654">
        <ele>190</ele>
        <time>2018-04-11T09:00:48Z</time>
      </trkpt>
      <trkpt lat="45.8799" lon="4.73652">
        <ele>190</ele>
        <time>2018-04-11T09:00:49Z</time>
      </trkpt>
      <trkpt lat="45.87984" lon="4.7365">
        <ele>190</ele>
        <time>2018-04-11T09:00:50Z</time>
      </trkpt>
      <trkpt lat="45.87979" lon="4.73649">
        <ele>190</ele>
        <time>2018-04-11T09:00:51Z</time>
      </trkpt>
      <trkpt lat="45.87974" lon="4.73648">
        <ele>190</ele>
        <time>2018-04-11T09:00:52Z</time>
      </trkpt>
      <trkpt lat="45.8797" lon="4.73646">
        <ele>190</ele>
        <time>2018-04-11T09:00:53Z</time>
      </trkpt>
      <trkpt lat="45.87965" lon="4.73644">
        <ele>189</ele>
        <time>2018-04-11T09:00:54Z</time>
      </trkpt>
      <trkpt lat="45.87961" lon="4.73643">
        <ele>189</ele>
        <time>2018-04-11T09:00:55Z</time>
      </trkpt>
      <trkpt lat="45.87956" lon="4.73642">
        <ele>190</ele>
        <time>2018-04-11T09:00:56Z</time>
      </trkpt>
      <trkpt lat="45.87951" lon="4.73641">
        <ele>190</ele>
        <time>2018-04-11T09:00:57Z</time>
      </trkpt>
      <trkpt lat="45.87946" lon="4.7364">
        <ele>190</ele>
        <time>2018-04-11T09:00:58Z</time>
      </trkpt>
      <trkpt lat="45.87942" lon="4.73638">
        <ele>190</ele>
        <time>2018-04-11T09:00:59Z</time>
      </trkpt>
      <trkpt lat="45.87936" lon="4.73637">
        <ele>190</ele>
        <time>2018-04-11T09:01:00Z</time>
      </trkpt>
      <trkpt lat="45.87931" lon="4.73635">
        <ele>190</ele>
        <time>2018-04-11T09:01:01Z</time>
      </trkpt>
      <trkpt lat="45.87926" lon="4.73634">
        <ele>190</ele>
        <time>2018-04-11T09:01:02Z</time>
      </trkpt>
      <trkpt lat="45.87921" lon="4.73631">
        <ele>190</ele>
        <time>2018-04-11T09:01:03Z</time>
      </trkpt>
      <trkpt lat="45.87916" lon="4.7363">
        <ele>190</ele>
        <time>2018-04-11T09:01:04Z</time>
      </trkpt>
      <trkpt lat="45.87911" lon="4.73629">
        <ele>190</ele>
        <time>2018-04-11T09:01:05Z</time>
      </trkpt>
      <trkpt lat="45.87907" lon="4.73628">
        <ele>190</ele>
        <time>2018-04-11T09:01:06Z</time>
      </trkpt>
      <trkpt lat="45.87901" lon="4.73627">
        <ele>190</ele>
        <time>2018-04-11T09:01:07Z</time>
      </trkpt>
      <trkpt lat="45.87896" lon="4.73625">
        <ele>190</ele>
        <time>2018-04-11T09:01:08Z</time>
      </trkpt>
      <trkpt lat="45.87891" lon="4.73623">
        <ele>190</ele>
        <time>2018-04-11T09:01:09Z</time>
      </trkpt>
      <trkpt lat="45.87886" lon="4.7362">
        <ele>190</ele>
        <time>2018-04-11T09:01:10Z</time>
      </trkpt>
      <trkpt lat="45.87882" lon="4.73619">
        <ele>190</ele>
        <time>2018-04-11T09:01:11Z</time>
      </trkpt>
      <trkpt lat="45.87877" lon="4.73619">
        <ele>190</ele>
        <time>2018-04-11T09:01:12Z</time>
      </trkpt>
      <trkpt lat="45.87873" lon="4.73619">
        <ele>190</ele>
        <time>2018-04-11T09:01:13Z</time>
      </trkpt>
      <trkpt lat="45.87864" lon="4.73622">
        <ele>190</ele>
        <time>2018-04-11T09:01:15Z</time>
      </trkpt>
      <trkpt lat="45.8786" lon="4.73623">
        <ele>190</ele>
        <time>2018-04-11T09:01:16Z</time>
      </trkpt>
      <trkpt lat="45.87855" lon="4.73625">
        <ele>190</ele>
        <time>2018-04-11T09:01:17Z</time>
      </trkpt>
      <trkpt lat="45.8785" lon="4.7363">
        <ele>191</ele>
        <time>2018-04-11T09:01:18Z</time>
      </trkpt>
      <trkpt lat="45.87845" lon="4.73634">
        <ele>191</ele>
        <time>2018-04-11T09:01:19Z</time>
      </trkpt>
      <trkpt lat="45.87844" lon="4.73639">
        <ele>191</ele>
        <time>2018-04-11T09:01:20Z</time>
      </trkpt>
      <trkpt lat="45.87838" lon="4.73638">
        <ele>191</ele>
        <time>2018-04-11T09:01:21Z</time>
      </trkpt>
      <trkpt lat="45.87833" lon="4.73637">
        <ele>191</ele>
        <time>2018-04-11T09:01:22Z</time>
      </trkpt>
      <trkpt lat="45.87827" lon="4.7363">
        <ele>190</ele>
        <time>2018-04-11T09:01:24Z</time>
      </trkpt>
      <trkpt lat="45.87824" lon="4.73624">
        <ele>190</ele>
        <time>2018-04-11T09:01:25Z</time>
      </trkpt>
      <trkpt lat="45.87821" lon="4.73613">
        <ele>190</ele>
        <time>2018-04-11T09:01:27Z</time>
      </trkpt>
      <trkpt lat="45.87819" lon="4.73607">
        <ele>190</ele>
        <time>2018-04-11T09:01:28Z</time>
      </trkpt>
      <trkpt lat="45.87817" lon="4.73602">
        <ele>190</ele>
        <time>2018-04-11T09:01:29Z</time>
      </trkpt>
      <trkpt lat="45.87815" lon="4.73596">
        <ele>190</ele>
        <time>2018-04-11T09:01:30Z</time>
      </trkpt>
      <trkpt lat="45.87812" lon="4.7359">
        <ele>190</ele>
        <time>2018-04-11T09:01:31Z</time>
      </trkpt>
      <trkpt lat="45.87809" lon="4.73584">
        <ele>190</ele>
        <time>2018-04-11T09:01:32Z</time>
      </trkpt>
      <trkpt lat="45.87806" lon="4.73578">
        <ele>189</ele>
        <time>2018-04-11T09:01:33Z</time>
      </trkpt>
      <trkpt lat="45.87803" lon="4.73572">
        <ele>189</ele>
        <time>2018-04-11T09:01:34Z</time>
      </trkpt>
      <trkpt lat="45.87799" lon="4.73565">
        <ele>189</ele>
        <time>2018-04-11T09:01:35Z</time>
      </trkpt>
      <trkpt lat="45.87796" lon="4.73559">
        <ele>189</ele>
        <time>2018-04-11T09:01:36Z</time>
      </trkpt>
      <trkpt lat="45.87793" lon="4.73551">
        <ele>189</ele>
        <time>2018-04-11T09:01:37Z</time>
      </trkpt>
      <trkpt lat="45.87791" lon="4.73546">
        <ele>189</ele>
        <time>2018-04-11T09:01:38Z</time>
      </trkpt>
      <trkpt lat="45.87788" lon="4.7354">
        <ele>189</ele>
        <time>2018-04-11T09:01:39Z</time>
      </trkpt>
      <trkpt lat="45.87785" lon="4.73534">
        <ele>189</ele>
        <time>2018-04-11T09:01:40Z</time>
      </trkpt>
      <trkpt lat="45.87782" lon="4.73529">
        <ele>189</ele>
        <time>2018-04-11T09:01:41Z</time>
      </trkpt>
      <trkpt lat="45.87779" lon="4.73523">
        <ele>189</ele>
        <time>2018-04-11T09:01:42Z</time>
      </trkpt>
      <trkpt lat="45.87775" lon="4.73516">
        <ele>189</ele>
        <time>2018-04-11T09:01:43Z</time>
      </trkpt>
      <trkpt lat="45.87773" lon="4.7351">
        <ele>189</ele>
        <time>2018-04-11T09:01:44Z</time>
      </trkpt>
      <trkpt lat="45.8777" lon="4.73504">
        <ele>189</ele>
        <time>2018-04-11T09:01:45Z</time>
      </trkpt>
      <trkpt lat="45.87767" lon="4.73498">
        <ele>189</ele>
        <time>2018-04-11T09:01:46Z</time>
      </trkpt>
      <trkpt lat="45.87764" lon="4.73491">
        <ele>189</ele>
        <time>2018-04-11T09:01:47Z</time>
      </trkpt>
      <trkpt lat="45.87761" lon="4.73486">
        <ele>189</ele>
        <time>2018-04-11T09:01:48Z</time>
      </trkpt>
      <trkpt lat="45.87757" lon="4.7348">
        <ele>189</ele>
        <time>2018-04-11T09:01:49Z</time>
      </trkpt>
      <trkpt lat="45.87755" lon="4.73473">
        <ele>188</ele>
        <time>2018-04-11T09:01:50Z</time>
      </trkpt>
      <trkpt lat="45.87752" lon="4.73465">
        <ele>188</ele>
        <time>2018-04-11T09:01:51Z</time>
      </trkpt>
      <trkpt lat="45.87749" lon="4.73459">
        <ele>189</ele>
        <time>2018-04-11T09:01:52Z</time>
      </trkpt>
      <trkpt lat="45.87745" lon="4.73453">
        <ele>189</ele>
        <time>2018-04-11T09:01:53Z</time>
      </trkpt>
      <trkpt lat="45.87743" lon="4.73445">
        <ele>189</ele>
        <time>2018-04-11T09:01:54Z</time>
      </trkpt>
      <trkpt lat="45.8774" lon="4.73439">
        <ele>189</ele>
        <time>2018-04-11T09:01:55Z</time>
      </trkpt>
      <trkpt lat="45.87737" lon="4.73433">
        <ele>188</ele>
        <time>2018-04-11T09:01:56Z</time>
      </trkpt>
      <trkpt lat="45.87734" lon="4.73426">
        <ele>188</ele>
        <time>2018-04-11T09:01:57Z</time>
      </trkpt>
      <trkpt lat="45.8773" lon="4.7342">
        <ele>188</ele>
        <time>2018-04-11T09:01:58Z</time>
      </trkpt>
      <trkpt lat="45.87727" lon="4.73413">
        <ele>188</ele>
        <time>2018-04-11T09:01:59Z</time>
      </trkpt>
      <trkpt lat="45.87724" lon="4.73405">
        <ele>188</ele>
        <time>2018-04-11T09:02:00Z</time>
      </trkpt>
      <trkpt lat="45.8772" lon="4.734">
        <ele>188</ele>
        <time>2018-04-11T09:02:01Z</time>
      </trkpt>
      <trkpt lat="45.87718" lon="4.73394">
        <ele>188</ele>
        <time>2018-04-11T09:02:02Z</time>
      </trkpt>
      <trkpt lat="45.87715" lon="4.73387">
        <ele>188</ele>
        <time>2018-04-11T09:02:03Z</time>
      </trkpt>
      <trkpt lat="45.87712" lon="4.73382">
        <ele>188</ele>
        <time>2018-04-11T09:02:04Z</time>
      </trkpt>
      <trkpt lat="45.87708" lon="4.73376">
        <ele>188</ele>
        <time>2018-04-11T09:02:05Z</time>
      </trkpt>
      <trkpt lat="45.87706" lon="4.73371">
        <ele>187</ele>
        <time>2018-04-11T09:02:06Z</time>
      </trkpt>
      <trkpt lat="45.87703" lon="4.73366">
        <ele>187</ele>
        <time>2018-04-11T09:02:07Z</time>
      </trkpt>
      <trkpt lat="45.877" lon="4.7336">
        <ele>187</ele>
        <time>2018-04-11T09:02:08Z</time>
      </trkpt>
      <trkpt lat="45.87697" lon="4.73355">
        <ele>188</ele>
        <time>2018-04-11T09:02:09Z</time>
      </trkpt>
      <trkpt lat="45.87695" lon="4.73349">
        <ele>188</ele>
        <time>2018-04-11T09:02:10Z</time>
      </trkpt>
      <trkpt lat="45.87692" lon="4.73343">
        <ele>188</ele>
        <time>2018-04-11T09:02:11Z</time>
      </trkpt>
      <trkpt lat="45.8769" lon="4.73337">
        <ele>188</ele>
        <time>2018-04-11T09:02:12Z</time>
      </trkpt>
      <trkpt lat="45.87687" lon="4.73331">
        <ele>188</ele>
        <time>2018-04-11T09:02:13Z</time>
      </trkpt>
      <trkpt lat="45.87686" lon="4.73324">
        <ele>188</ele>
        <time>2018-04-11T09:02:14Z</time>
      </trkpt>
      <trkpt lat="45.87683" lon="4.73319">
        <ele>188</ele>
        <time>2018-04-11T09:02:15Z</time>
      </trkpt>
      <trkpt lat="45.87681" lon="4.73313">
        <ele>188</ele>
        <time>2018-04-11T09:02:16Z</time>
      </trkpt>
      <trkpt lat="45.87676" lon="4.73302">
        <ele>188</ele>
        <time>2018-04-11T09:02:18Z</time>
      </trkpt>
      <trkpt lat="45.87674" lon="4.73297">
        <ele>188</ele>
        <time>2018-04-11T09:02:19Z</time>
      </trkpt>
      <trkpt lat="45.87668" lon="4.73287">
        <ele>188</ele>
        <time>2018-04-11T09:02:21Z</time>
      </trkpt>
      <trkpt lat="45.87665" lon="4.73282">
        <ele>189</ele>
        <time>2018-04-11T09:02:22Z</time>
      </trkpt>
      <trkpt lat="45.87661" lon="4.73276">
        <ele>189</ele>
        <time>2018-04-11T09:02:23Z</time>
      </trkpt>
      <trkpt lat="45.87659" lon="4.7327">
        <ele>189</ele>
        <time>2018-04-11T09:02:24Z</time>
      </trkpt>
      <trkpt lat="45.87655" lon="4.73258">
        <ele>189</ele>
        <time>2018-04-11T09:02:26Z</time>
      </trkpt>
      <trkpt lat="45.87652" lon="4.73253">
        <ele>189</ele>
        <time>2018-04-11T09:02:27Z</time>
      </trkpt>
      <trkpt lat="45.8765" lon="4.73247">
        <ele>188</ele>
        <time>2018-04-11T09:02:28Z</time>
      </trkpt>
      <trkpt lat="45.87648" lon="4.73241">
        <ele>188</ele>
        <time>2018-04-11T09:02:29Z</time>
      </trkpt>
      <trkpt lat="45.87645" lon="4.73236">
        <ele>188</ele>
        <time>2018-04-11T09:02:30Z</time>
      </trkpt>
      <trkpt lat="45.87642" lon="4.7323">
        <ele>188</ele>
        <time>2018-04-11T09:02:31Z</time>
      </trkpt>
      <trkpt lat="45.87638" lon="4.73225">
        <ele>188</ele>
        <time>2018-04-11T09:02:32Z</time>
      </trkpt>
      <trkpt lat="45.87636" lon="4.73219">
        <ele>188</ele>
        <time>2018-04-11T09:02:33Z</time>
      </trkpt>
      <trkpt lat="45.87633" lon="4.73213">
        <ele>188</ele>
        <time>2018-04-11T09:02:34Z</time>
      </trkpt>
      <trkpt lat="45.87629" lon="4.73207">
        <ele>188</ele>
        <time>2018-04-11T09:02:35Z</time>
      </trkpt>
      <trkpt lat="45.87626" lon="4.73201">
        <ele>188</ele>
        <time>2018-04-11T09:02:36Z</time>
      </trkpt>
      <trkpt lat="45.87624" lon="4.73195">
        <ele>188</ele>
        <time>2018-04-11T09:02:37Z</time>
      </trkpt>
      <trkpt lat="45.8762" lon="4.73189">
        <ele>188</ele>
        <time>2018-04-11T09:02:38Z</time>
      </trkpt>
      <trkpt lat="45.87617" lon="4.73182">
        <ele>188</ele>
        <time>2018-04-11T09:02:39Z</time>
      </trkpt>
      <trkpt lat="45.87614" lon="4.73176">
        <ele>187</ele>
        <time>2018-04-11T09:02:40Z</time>
      </trkpt>
      <trkpt lat="45.8761" lon="4.73169">
        <ele>187</ele>
        <time>2018-04-11T09:02:41Z</time>
      </trkpt>
      <trkpt lat="45.87607" lon="4.73163">
        <ele>187</ele>
        <time>2018-04-11T09:02:42Z</time>
      </trkpt>
      <trkpt lat="45.87604" lon="4.73157">
        <ele>187</ele>
        <time>2018-04-11T09:02:43Z</time>
      </trkpt>
      <trkpt lat="45.87601" lon="4.7315">
        <ele>187</ele>
        <time>2018-04-11T09:02:44Z</time>
      </trkpt>
      <trkpt lat="45.87598" lon="4.73145">
        <ele>187</ele>
        <time>2018-04-11T09:02:45Z</time>
      </trkpt>
      <trkpt lat="45.87595" lon="4.73138">
        <ele>187</ele>
        <time>2018-04-11T09:02:46Z</time>
      </trkpt>
      <trkpt lat="45.87591" lon="4.73131">
        <ele>187</ele>
        <time>2018-04-11T09:02:47Z</time>
      </trkpt>
      <trkpt lat="45.87587" lon="4.73123">
        <ele>188</ele>
        <time>2018-04-11T09:02:48Z</time>
      </trkpt>
      <trkpt lat="45.87583" lon="4.73116">
        <ele>188</ele>
        <time>2018-04-11T09:02:49Z</time>
      </trkpt>
      <trkpt lat="45.87579" lon="4.73109">
        <ele>187</ele>
        <time>2018-04-11T09:02:50Z</time>
      </trkpt>
      <trkpt lat="45.87575" lon="4.73102">
        <ele>188</ele>
        <time>2018-04-11T09:02:51Z</time>
      </trkpt>
      <trkpt lat="45.87571" lon="4.73095">
        <ele>188</ele>
        <time>2018-04-11T09:02:52Z</time>
      </trkpt>
      <trkpt lat="45.87568" lon="4.73088">
        <ele>188</ele>
        <time>2018-04-11T09:02:53Z</time>
      </trkpt>
      <trkpt lat="45.87564" lon="4.73081">
        <ele>188</ele>
        <time>2018-04-11T09:02:54Z</time>
      </trkpt>
      <trkpt lat="45.87561" lon="4.73075">
        <ele>188</ele>
        <time>2018-04-11T09:02:55Z</time>
      </trkpt>
      <trkpt lat="45.87557" lon="4.73069">
        <ele>188</ele>
        <time>2018-04-11T09:02:56Z</time>
      </trkpt>
      <trkpt lat="45.87555" lon="4.73062">
        <ele>188</ele>
        <time>2018-04-11T09:02:57Z</time>
      </trkpt>
      <trkpt lat="45.87552" lon="4.73055">
        <ele>188</ele>
        <time>2018-04-11T09:02:58Z</time>
      </trkpt>
      <trkpt lat="45.87548" lon="4.73049">
        <ele>188</ele>
        <time>2018-04-11T09:02:59Z</time>
      </trkpt>
      <trkpt lat="45.87545" lon="4.73042">
        <ele>188</ele>
        <time>2018-04-11T09:03:00Z</time>
      </trkpt>
      <trkpt lat="45.87542" lon="4.73036">
        <ele>188</ele>
        <time>2018-04-11T09:03:01Z</time>
      </trkpt>
      <trkpt lat="45.87538" lon="4.7303">
        <ele>187</ele>
        <time>2018-04-11T09:03:02Z</time>
      </trkpt>
      <trkpt lat="45.87535" lon="4.73023">
        <ele>187</ele>
        <time>2018-04-11T09:03:03Z</time>
      </trkpt>
      <trkpt lat="45.87532" lon="4.73016">
        <ele>187</ele>
        <time>2018-04-11T09:03:04Z</time>
      </trkpt>
      <trkpt lat="45.87529" lon="4.73009">
        <ele>187</ele>
        <time>2018-04-11T09:03:05Z</time>
      </trkpt>
      <trkpt lat="45.87526" lon="4.73003">
        <ele>187</ele>
        <time>2018-04-11T09:03:06Z</time>
      </trkpt>
      <trkpt lat="45.87523" lon="4.72997">
        <ele>187</ele>
        <time>2018-04-11T09:03:07Z</time>
      </trkpt>
      <trkpt lat="45.8752" lon="4.72991">
        <ele>187</ele>
        <time>2018-04-11T09:03:08Z</time>
      </trkpt>
      <trkpt lat="45.87516" lon="4.72983">
        <ele>187</ele>
        <time>2018-04-11T09:03:09Z</time>
      </trkpt>
      <trkpt lat="45.87513" lon="4.72976">
        <ele>187</ele>
        <time>2018-04-11T09:03:10Z</time>
      </trkpt>
      <trkpt lat="45.8751" lon="4.7297">
        <ele>187</ele>
        <time>2018-04-11T09:03:11Z</time>
      </trkpt>
      <trkpt lat="45.87507" lon="4.72964">
        <ele>187</ele>
        <time>2018-04-11T09:03:12Z</time>
      </trkpt>
      <trkpt lat="45.87503" lon="4.72958">
        <ele>187</ele>
        <time>2018-04-11T09:03:13Z</time>
      </trkpt>
      <trkpt lat="45.87499" lon="4.72954">
        <ele>188</ele>
        <time>2018-04-11T09:03:14Z</time>
      </trkpt>
      <trkpt lat="45.87494" lon="4.72951">
        <ele>188</ele>
        <time>2018-04-11T09:03:15Z</time>
      </trkpt>
      <trkpt lat="45.87486" lon="4.72947">
        <ele>188</ele>
        <time>2018-04-11T09:03:17Z</time>
      </trkpt>
      <trkpt lat="45.87482" lon="4.72944">
        <ele>188</ele>
        <time>2018-04-11T09:03:18Z</time>
      </trkpt>
      <trkpt lat="45.87478" lon="4.7294">
        <ele>188</ele>
        <time>2018-04-11T09:03:19Z</time>
      </trkpt>
      <trkpt lat="45.87474" lon="4.72936">
        <ele>188</ele>
        <time>2018-04-11T09:03:20Z</time>
      </trkpt>
      <trkpt lat="45.87468" lon="4.72929">
        <ele>188</ele>
        <time>2018-04-11T09:03:22Z</time>
      </trkpt>
      <trkpt lat="45.87466" lon="4.72925">
        <ele>188</ele>
        <time>2018-04-11T09:03:23Z</time>
      </trkpt>
      <trkpt lat="45.87461" lon="4.72914">
        <ele>188</ele>
        <time>2018-04-11T09:03:26Z</time>
      </trkpt>
      <trkpt lat="45.8746" lon="4.72911">
        <ele>188</ele>
        <time>2018-04-11T09:03:27Z</time>
      </trkpt>
      <trkpt lat="45.87457" lon="4.729">
        <ele>188</ele>
        <time>2018-04-11T09:03:30Z</time>
      </trkpt>
      <trkpt lat="45.87453" lon="4.7289">
        <ele>188</ele>
        <time>2018-04-11T09:03:31Z</time>
      </trkpt>
      <trkpt lat="45.87449" lon="4.7288">
        <ele>188</ele>
        <time>2018-04-11T09:03:33Z</time>
      </trkpt>
      <trkpt lat="45.87448" lon="4.72873">
        <ele>188</ele>
        <time>2018-04-11T09:03:34Z</time>
      </trkpt>
      <trkpt lat="45.87446" lon="4.72867">
        <ele>188</ele>
        <time>2018-04-11T09:03:35Z</time>
      </trkpt>
      <trkpt lat="45.87443" lon="4.72861">
        <ele>188</ele>
        <time>2018-04-11T09:03:36Z</time>
      </trkpt>
      <trkpt lat="45.8744" lon="4.72849">
        <ele>188</ele>
        <time>2018-04-11T09:03:38Z</time>
      </trkpt>
      <trkpt lat="45.87438" lon="4.72842">
        <ele>188</ele>
        <time>2018-04-11T09:03:39Z</time>
      </trkpt>
      <trkpt lat="45.87435" lon="4.72834">
        <ele>188</ele>
        <time>2018-04-11T09:03:40Z</time>
      </trkpt>
      <trkpt lat="45.87432" lon="4.72828">
        <ele>189</ele>
        <time>2018-04-11T09:03:41Z</time>
      </trkpt>
      <trkpt lat="45.8743" lon="4.72822">
        <ele>189</ele>
        <time>2018-04-11T09:03:42Z</time>
      </trkpt>
      <trkpt lat="45.87427" lon="4.72815">
        <ele>189</ele>
        <time>2018-04-11T09:03:43Z</time>
      </trkpt>
      <trkpt lat="45.87424" lon="4.72809">
        <ele>189</ele>
        <time>2018-04-11T09:03:44Z</time>
      </trkpt>
      <trkpt lat="45.87422" lon="4.72802">
        <ele>189</ele>
        <time>2018-04-11T09:03:45Z</time>
      </trkpt>
      <trkpt lat="45.8742" lon="4.72796">
        <ele>189</ele>
        <time>2018-04-11T09:03:46Z</time>
      </trkpt>
      <trkpt lat="45.87418" lon="4.72791">
        <ele>189</ele>
        <time>2018-04-11T09:03:47Z</time>
      </trkpt>
      <trkpt lat="45.87415" lon="4.72784">
        <ele>189</ele>
        <time>2018-04-11T09:03:48Z</time>
      </trkpt>
      <trkpt lat="45.87412" lon="4.72779">
        <ele>189</ele>
        <time>2018-04-11T09:03:49Z</time>
      </trkpt>
      <trkpt lat="45.87409" lon="4.72774">
        <ele>189</ele>
        <time>2018-04-11T09:03:50Z</time>
      </trkpt>
      <trkpt lat="45.87407" lon="4.72768">
        <ele>189</ele>
        <time>2018-04-11T09:03:51Z</time>
      </trkpt>
      <trkpt lat="45.87405" lon="4.7276">
        <ele>189</ele>
        <time>2018-04-11T09:03:52Z</time>
      </trkpt>
      <trkpt lat="45.87403" lon="4.72754">
        <ele>189</ele>
        <time>2018-04-11T09:03:53Z</time>
      </trkpt>
      <trkpt lat="45.87401" lon="4.72748">
        <ele>189</ele>
        <time>2018-04-11T09:03:54Z</time>
      </trkpt>
      <trkpt lat="45.87398" lon="4.72743">
        <ele>189</ele>
        <time>2018-04-11T09:03:55Z</time>
      </trkpt>
      <trkpt lat="45.87394" lon="4.72739">
        <ele>190</ele>
        <time>2018-04-11T09:03:56Z</time>
      </trkpt>
      <trkpt lat="45.8739" lon="4.72735">
        <ele>190</ele>
        <time>2018-04-11T09:03:57Z</time>
      </trkpt>
      <trkpt lat="45.87386" lon="4.72731">
        <ele>190</ele>
        <time>2018-04-11T09:03:58Z</time>
      </trkpt>
      <trkpt lat="45.87383" lon="4.72726">
        <ele>190</ele>
        <time>2018-04-11T09:03:59Z</time>
      </trkpt>
      <trkpt lat="45.8738" lon="4.72721">
        <ele>190</ele>
        <time>2018-04-11T09:04:00Z</time>
      </trkpt>
      <trkpt lat="45.87378" lon="4.72715">
        <ele>190</ele>
        <time>2018-04-11T09:04:01Z</time>
      </trkpt>
      <trkpt lat="45.87374" lon="4.72709">
        <ele>190</ele>
        <time>2018-04-11T09:04:02Z</time>
      </trkpt>
      <trkpt lat="45.87372" lon="4.72703">
        <ele>190</ele>
        <time>2018-04-11T09:04:03Z</time>
      </trkpt>
      <trkpt lat="45.87369" lon="4.72697">
        <ele>190</ele>
        <time>2018-04-11T09:04:04Z</time>
      </trkpt>
      <trkpt lat="45.87364" lon="4.72691">
        <ele>190</ele>
        <time>2018-04-11T09:04:05Z</time>
      </trkpt>
      <trkpt lat="45.87359" lon="4.72686">
        <ele>190</ele>
        <time>2018-04-11T09:04:06Z</time>
      </trkpt>
      <trkpt lat="45.87355" lon="4.7268">
        <ele>190</ele>
        <time>2018-04-11T09:04:07Z</time>
      </trkpt>
      <trkpt lat="45.87351" lon="4.72676">
        <ele>190</ele>
        <time>2018-04-11T09:04:08Z</time>
      </trkpt>
      <trkpt lat="45.87347" lon="4.72671">
        <ele>190</ele>
        <time>2018-04-11T09:04:09Z</time>
      </trkpt>
      <trkpt lat="45.87343" lon="4.72666">
        <ele>190</ele>
        <time>2018-04-11T09:04:10Z</time>
      </trkpt>
      <trkpt lat="45.87338" lon="4.72662">
        <ele>190</ele>
        <time>2018-04-11T09:04:11Z</time>
      </trkpt>
      <trkpt lat="45.87333" lon="4.72658">
        <ele>191</ele>
        <time>2018-04-11T09:04:12Z</time>
      </trkpt>
      <trkpt lat="45.87329" lon="4.72654">
        <ele>192</ele>
        <time>2018-04-11T09:04:13Z</time>
      </trkpt>
      <trkpt lat="45.87325" lon="4.7265">
        <ele>192</ele>
        <time>2018-04-11T09:04:14Z</time>
      </trkpt>
      <trkpt lat="45.87321" lon="4.72645">
        <ele>192</ele>
        <time>2018-04-11T09:04:15Z</time>
      </trkpt>
      <trkpt lat="45.87316" lon="4.72636">
        <ele>193</ele>
        <time>2018-04-11T09:04:17Z</time>
      </trkpt>
      <trkpt lat="45.87312" lon="4.72632">
        <ele>193</ele>
        <time>2018-04-11T09:04:18Z</time>
      </trkpt>
      <trkpt lat="45.87307" lon="4.72627">
        <ele>193</ele>
        <time>2018-04-11T09:04:19Z</time>
      </trkpt>
      <trkpt lat="45.87305" lon="4.72621">
        <ele>193</ele>
        <time>2018-04-11T09:04:20Z</time>
      </trkpt>
      <trkpt lat="45.87301" lon="4.72617">
        <ele>194</ele>
        <time>2018-04-11T09:04:21Z</time>
      </trkpt>
      <trkpt lat="45.87297" lon="4.72613">
        <ele>194</ele>
        <time>2018-04-11T09:04:22Z</time>
      </trkpt>
      <trkpt lat="45.87292" lon="4.72609">
        <ele>194</ele>
        <time>2018-04-11T09:04:23Z</time>
      </trkpt>
      <trkpt lat="45.87287" lon="4.72603">
        <ele>194</ele>
        <time>2018-04-11T09:04:24Z</time>
      </trkpt>
      <trkpt lat="45.87283" lon="4.72598">
        <ele>194</ele>
        <time>2018-04-11T09:04:25Z</time>
      </trkpt>
      <trkpt lat="45.8728" lon="4.72592">
        <ele>195</ele>
        <time>2018-04-11T09:04:26Z</time>
      </trkpt>
      <trkpt lat="45.87276" lon="4.72586">
        <ele>195</ele>
        <time>2018-04-11T09:04:27Z</time>
      </trkpt>
      <trkpt lat="45.87271" lon="4.72583">
        <ele>195</ele>
        <time>2018-04-11T09:04:28Z</time>
      </trkpt>
      <trkpt lat="45.87267" lon="4.72578">
        <ele>195</ele>
        <time>2018-04-11T09:04:29Z</time>
      </trkpt>
      <trkpt lat="45.87263" lon="4.72574">
        <ele>195</ele>
        <time>2018-04-11T09:04:30Z</time>
      </trkpt>
      <trkpt lat="45.87256" lon="4.72565">
        <ele>195</ele>
        <time>2018-04-11T09:04:32Z</time>
      </trkpt>
      <trkpt lat="45.87254" lon="4.72561">
        <ele>195</ele>
        <time>2018-04-11T09:04:33Z</time>
      </trkpt>
      <trkpt lat="45.8725" lon="4.72549">
        <ele>197</ele>
        <time>2018-04-11T09:04:37Z</time>
      </trkpt>
      <trkpt lat="45.87248" lon="4.72546">
        <ele>197</ele>
        <time>2018-04-11T09:04:38Z</time>
      </trkpt>
      <trkpt lat="45.87244" lon="4.72538">
        <ele>197</ele>
        <time>2018-04-11T09:04:41Z</time>
      </trkpt>
      <trkpt lat="45.87243" lon="4.72535">
        <ele>197</ele>
        <time>2018-04-11T09:04:42Z</time>
      </trkpt>
      <trkpt lat="45.87239" lon="4.72525">
        <ele>196</ele>
        <time>2018-04-11T09:04:43Z</time>
      </trkpt>
      <trkpt lat="45.87236" lon="4.72519">
        <ele>196</ele>
        <time>2018-04-11T09:04:44Z</time>
      </trkpt>
      <trkpt lat="45.87232" lon="4.72509">
        <ele>196</ele>
        <time>2018-04-11T09:04:46Z</time>
      </trkpt>
      <trkpt lat="45.87229" lon="4.72502">
        <ele>196</ele>
        <time>2018-04-11T09:04:47Z</time>
      </trkpt>
      <trkpt lat="45.87223" lon="4.72493">
        <ele>194</ele>
        <time>2018-04-11T09:04:49Z</time>
      </trkpt>
      <trkpt lat="45.8722" lon="4.72488">
        <ele>194</ele>
        <time>2018-04-11T09:04:50Z</time>
      </trkpt>
      <trkpt lat="45.87213" lon="4.7248">
        <ele>194</ele>
        <time>2018-04-11T09:04:52Z</time>
      </trkpt>
      <trkpt lat="45.8721" lon="4.72476">
        <ele>195</ele>
        <time>2018-04-11T09:04:53Z</time>
      </trkpt>
      <trkpt lat="45.87206" lon="4.72472">
        <ele>195</ele>
        <time>2018-04-11T09:04:54Z</time>
      </trkpt>
      <trkpt lat="45.87201" lon="4.72468">
        <ele>195</ele>
        <time>2018-04-11T09:04:55Z</time>
      </trkpt>
      <trkpt lat="45.87196" lon="4.7246">
        <ele>195</ele>
        <time>2018-04-11T09:04:57Z</time>
      </trkpt>
      <trkpt lat="45.87193" lon="4.72456">
        <ele>195</ele>
        <time>2018-04-11T09:04:58Z</time>
      </trkpt>
      <trkpt lat="45.87188" lon="4.72448">
        <ele>194</ele>
        <time>2018-04-11T09:05:00Z</time>
      </trkpt>
      <trkpt lat="45.87186" lon="4.72444">
        <ele>194</ele>
        <time>2018-04-11T09:05:01Z</time>
      </trkpt>
      <trkpt lat="45.87181" lon="4.72435">
        <ele>194</ele>
        <time>2018-04-11T09:05:03Z</time>
      </trkpt>
      <trkpt lat="45.8718" lon="4.72433">
        <ele>194</ele>
        <time>2018-04-11T09:05:04Z</time>
      </trkpt>
      <trkpt lat="45.87175" lon="4.72426">
        <ele>194</ele>
        <time>2018-04-11T09:05:07Z</time>
      </trkpt>
      <trkpt lat="45.87173" lon="4.72423">
        <ele>194</ele>
        <time>2018-04-11T09:05:08Z</time>
      </trkpt>
      <trkpt lat="45.87166" lon="4.72415">
        <ele>194</ele>
        <time>2018-04-11T09:05:09Z</time>
      </trkpt>
      <trkpt lat="45.87164" lon="4.72411">
        <ele>195</ele>
        <time>2018-04-11T09:05:10Z</time>
      </trkpt>
      <trkpt lat="45.87159" lon="4.72401">
        <ele>196</ele>
        <time>2018-04-11T09:05:12Z</time>
      </trkpt>
      <trkpt lat="45.87158" lon="4.72396">
        <ele>197</ele>
        <time>2018-04-11T09:05:13Z</time>
      </trkpt>
      <trkpt lat="45.87156" lon="4.7239">
        <ele>197</ele>
        <time>2018-04-11T09:05:14Z</time>
      </trkpt>
      <trkpt lat="45.87153" lon="4.72384">
        <ele>197</ele>
        <time>2018-04-11T09:05:15Z</time>
      </trkpt>
      <trkpt lat="45.87151" lon="4.72378">
        <ele>197</ele>
        <time>2018-04-11T09:05:16Z</time>
      </trkpt>
      <trkpt lat="45.87149" lon="4.72371">
        <ele>197</ele>
        <time>2018-04-11T09:05:17Z</time>
      </trkpt>
      <trkpt lat="45.87146" lon="4.72365">
        <ele>197</ele>
        <time>2018-04-11T09:05:18Z</time>
      </trkpt>
      <trkpt lat="45.87144" lon="4.72359">
        <ele>197</ele>
        <time>2018-04-11T09:05:19Z</time>
      </trkpt>
      <trkpt lat="45.87141" lon="4.72354">
        <ele>197</ele>
        <time>2018-04-11T09:05:20Z</time>
      </trkpt>
      <trkpt lat="45.87139" lon="4.72349">
        <ele>197</ele>
        <time>2018-04-11T09:05:21Z</time>
      </trkpt>
      <trkpt lat="45.87136" lon="4.72343">
        <ele>197</ele>
        <time>2018-04-11T09:05:22Z</time>
      </trkpt>
      <trkpt lat="45.87135" lon="4.72337">
        <ele>197</ele>
        <time>2018-04-11T09:05:23Z</time>
      </trkpt>
      <trkpt lat="45.87132" lon="4.72331">
        <ele>196</ele>
        <time>2018-04-11T09:05:24Z</time>
      </trkpt>
      <trkpt lat="45.8713" lon="4.72325">
        <ele>196</ele>
        <time>2018-04-11T09:05:25Z</time>
      </trkpt>
      <trkpt lat="45.87127" lon="4.72319">
        <ele>196</ele>
        <time>2018-04-11T09:05:26Z</time>
      </trkpt>
      <trkpt lat="45.87124" lon="4.72313">
        <ele>197</ele>
        <time>2018-04-11T09:05:27Z</time>
      </trkpt>
      <trkpt lat="45.87122" lon="4.72307">
        <ele>197</ele>
        <time>2018-04-11T09:05:28Z</time>
      </trkpt>
      <trkpt lat="45.87119" lon="4.723">
        <ele>197</ele>
        <time>2018-04-11T09:05:29Z</time>
      </trkpt>
      <trkpt lat="45.87115" lon="4.72294">
        <ele>197</ele>
        <time>2018-04-11T09:05:30Z</time>
      </trkpt>
      <trkpt lat="45.87112" lon="4.72288">
        <ele>197</ele>
        <time>2018-04-11T09:05:31Z</time>
      </trkpt>
      <trkpt lat="45.87108" lon="4.72282">
        <ele>197</ele>
        <time>2018-04-11T09:05:32Z</time>
      </trkpt>
      <trkpt lat="45.87104" lon="4.72276">
        <ele>197</ele>
        <time>2018-04-11T09:05:33Z</time>
      </trkpt>
      <trkpt lat="45.871" lon="4.72271">
        <ele>197</ele>
        <time>2018-04-11T09:05:34Z</time>
      </trkpt>
      <trkpt lat="45.87096" lon="4.72267">
        <ele>198</ele>
        <time>2018-04-11T09:05:35Z</time>
      </trkpt>
      <trkpt lat="45.87092" lon="4.72262">
        <ele>198</ele>
        <time>2018-04-11T09:05:36Z</time>
      </trkpt>
      <trkpt lat="45.87087" lon="4.72257">
        <ele>198</ele>
        <time>2018-04-11T09:05:37Z</time>
      </trkpt>
      <trkpt lat="45.87083" lon="4.72253">
        <ele>199</ele>
        <time>2018-04-11T09:05:38Z</time>
      </trkpt>
      <trkpt lat="45.87079" lon="4.72248">
        <ele>199</ele>
        <time>2018-04-11T09:05:39Z</time>
      </trkpt>
      <trkpt lat="45.87075" lon="4.72243">
        <ele>200</ele>
        <time>2018-04-11T09:05:40Z</time>
      </trkpt>
      <trkpt lat="45.8707" lon="4.72238">
        <ele>200</ele>
        <time>2018-04-11T09:05:41Z</time>
      </trkpt>
      <trkpt lat="45.87066" lon="4.72234">
        <ele>200</ele>
        <time>2018-04-11T09:05:42Z</time>
      </trkpt>
      <trkpt lat="45.87062" lon="4.7223">
        <ele>200</ele>
        <time>2018-04-11T09:05:43Z</time>
      </trkpt>
      <trkpt lat="45.87058" lon="4.72226">
        <ele>200</ele>
        <time>2018-04-11T09:05:44Z</time>
      </trkpt>
      <trkpt lat="45.87054" lon="4.72223">
        <ele>201</ele>
        <time>2018-04-11T09:05:45Z</time>
      </trkpt>
      <trkpt lat="45.8705" lon="4.72218">
        <ele>201</ele>
        <time>2018-04-11T09:05:46Z</time>
      </trkpt>
      <trkpt lat="45.87045" lon="4.72215">
        <ele>201</ele>
        <time>2018-04-11T09:05:47Z</time>
      </trkpt>
      <trkpt lat="45.87041" lon="4.72211">
        <ele>201</ele>
        <time>2018-04-11T09:05:48Z</time>
      </trkpt>
      <trkpt lat="45.87036" lon="4.72207">
        <ele>201</ele>
        <time>2018-04-11T09:05:49Z</time>
      </trkpt>
      <trkpt lat="45.8703" lon="4.72204">
        <ele>201</ele>
        <time>2018-04-11T09:05:50Z</time>
      </trkpt>
      <trkpt lat="45.87025" lon="4.72201">
        <ele>201</ele>
        <time>2018-04-11T09:05:51Z</time>
      </trkpt>
      <trkpt lat="45.8702" lon="4.72197">
        <ele>201</ele>
        <time>2018-04-11T09:05:52Z</time>
      </trkpt>
      <trkpt lat="45.87016" lon="4.72194">
        <ele>201</ele>
        <time>2018-04-11T09:05:53Z</time>
      </trkpt>
      <trkpt lat="45.87011" lon="4.72191">
        <ele>201</ele>
        <time>2018-04-11T09:05:54Z</time>
      </trkpt>
      <trkpt lat="45.87006" lon="4.72187">
        <ele>201</ele>
        <time>2018-04-11T09:05:55Z</time>
      </trkpt>
      <trkpt lat="45.86998" lon="4.72182">
        <ele>206</ele>
        <time>2018-04-11T09:05:57Z</time>
      </trkpt>
      <trkpt lat="45.86994" lon="4.72179">
        <ele>206</ele>
        <time>2018-04-11T09:05:58Z</time>
      </trkpt>
      <trkpt lat="45.8699" lon="4.72176">
        <ele>206</ele>
        <time>2018-04-11T09:05:59Z</time>
      </trkpt>
      <trkpt lat="45.86985" lon="4.72172">
        <ele>206</ele>
        <time>2018-04-11T09:06:00Z</time>
      </trkpt>
      <trkpt lat="45.8698" lon="4.72169">
        <ele>207</ele>
        <time>2018-04-11T09:06:01Z</time>
      </trkpt>
      <trkpt lat="45.86976" lon="4.72165">
        <ele>201</ele>
        <time>2018-04-11T09:06:02Z</time>
      </trkpt>
      <trkpt lat="45.86969" lon="4.72162">
        <ele>201</ele>
        <time>2018-04-11T09:06:03Z</time>
      </trkpt>
      <trkpt lat="45.86965" lon="4.72158">
        <ele>201</ele>
        <time>2018-04-11T09:06:04Z</time>
      </trkpt>
      <trkpt lat="45.8696" lon="4.72154">
        <ele>201</ele>
        <time>2018-04-11T09:06:05Z</time>
      </trkpt>
      <trkpt lat="45.86954" lon="4.7215">
        <ele>201</ele>
        <time>2018-04-11T09:06:06Z</time>
      </trkpt>
      <trkpt lat="45.8695" lon="4.72146">
        <ele>201</ele>
        <time>2018-04-11T09:06:07Z</time>
      </trkpt>
      <trkpt lat="45.86945" lon="4.72143">
        <ele>201</ele>
        <time>2018-04-11T09:06:08Z</time>
      </trkpt>
      <trkpt lat="45.86941" lon="4.7214">
        <ele>202</ele>
        <time>2018-04-11T09:06:09Z</time>
      </trkpt>
      <trkpt lat="45.86936" lon="4.72138">
        <ele>201</ele>
        <time>2018-04-11T09:06:10Z</time>
      </trkpt>
      <trkpt lat="45.86931" lon="4.72135">
        <ele>201</ele>
        <time>2018-04-11T09:06:11Z</time>
      </trkpt>
      <trkpt lat="45.86926" lon="4.72132">
        <ele>201</ele>
        <time>2018-04-11T09:06:12Z</time>
      </trkpt>
      <trkpt lat="45.86921" lon="4.7213">
        <ele>201</ele>
        <time>2018-04-11T09:06:13Z</time>
      </trkpt>
      <trkpt lat="45.86916" lon="4.72128">
        <ele>203</ele>
        <time>2018-04-11T09:06:14Z</time>
      </trkpt>
      <trkpt lat="45.86911" lon="4.72125">
        <ele>202</ele>
        <time>2018-04-11T09:06:15Z</time>
      </trkpt>
      <trkpt lat="45.86906" lon="4.72123">
        <ele>202</ele>
        <time>2018-04-11T09:06:16Z</time>
      </trkpt>
      <trkpt lat="45.869" lon="4.72121">
        <ele>202</ele>
        <time>2018-04-11T09:06:17Z</time>
      </trkpt>
      <trkpt lat="45.86895" lon="4.7212">
        <ele>202</ele>
        <time>2018-04-11T09:06:18Z</time>
      </trkpt>
      <trkpt lat="45.86889" lon="4.72118">
        <ele>201</ele>
        <time>2018-04-11T09:06:19Z</time>
      </trkpt>
      <trkpt lat="45.86884" lon="4.72114">
        <ele>201</ele>
        <time>2018-04-11T09:06:20Z</time>
      </trkpt>
      <trkpt lat="45.86878" lon="4.72113">
        <ele>201</ele>
        <time>2018-04-11T09:06:21Z</time>
      </trkpt>
      <trkpt lat="45.86873" lon="4.72111">
        <ele>201</ele>
        <time>2018-04-11T09:06:22Z</time>
      </trkpt>
      <trkpt lat="45.86868" lon="4.72109">
        <ele>201</ele>
        <time>2018-04-11T09:06:23Z</time>
      </trkpt>
      <trkpt lat="45.86863" lon="4.72107">
        <ele>200</ele>
        <time>2018-04-11T09:06:24Z</time>
      </trkpt>
      <trkpt lat="45.86858" lon="4.72104">
        <ele>200</ele>
        <time>2018-04-11T09:06:25Z</time>
      </trkpt>
      <trkpt lat="45.86853" lon="4.72102">
        <ele>199</ele>
        <time>2018-04-11T09:06:26Z</time>
      </trkpt>
      <trkpt lat="45.86849" lon="4.721">
        <ele>199</ele>
        <time>2018-04-11T09:06:27Z</time>
      </trkpt>
      <trkpt lat="45.86845" lon="4.72098">
        <ele>198</ele>
        <time>2018-04-11T09:06:28Z</time>
      </trkpt>
      <trkpt lat="45.86837" lon="4.72093">
        <ele>196</ele>
        <time>2018-04-11T09:06:30Z</time>
      </trkpt>
      <trkpt lat="45.86832" lon="4.72091">
        <ele>196</ele>
        <time>2018-04-11T09:06:31Z</time>
      </trkpt>
      <trkpt lat="45.86826" lon="4.72088">
        <ele>197</ele>
        <time>2018-04-11T09:06:32Z</time>
      </trkpt>
      <trkpt lat="45.86821" lon="4.72087">
        <ele>198</ele>
        <time>2018-04-11T09:06:33Z</time>
      </trkpt>
      <trkpt lat="45.86817" lon="4.72084">
        <ele>198</ele>
        <time>2018-04-11T09:06:34Z</time>
      </trkpt>
      <trkpt lat="45.86812" lon="4.72082">
        <ele>194</ele>
        <time>2018-04-11T09:06:35Z</time>
      </trkpt>
      <trkpt lat="45.86807" lon="4.72081">
        <ele>194</ele>
        <time>2018-04-11T09:06:36Z</time>
      </trkpt>
      <trkpt lat="45.86802" lon="4.72078">
        <ele>194</ele>
        <time>2018-04-11T09:06:37Z</time>
      </trkpt>
      <trkpt lat="45.86797" lon="4.72076">
        <ele>194</ele>
        <time>2018-04-11T09:06:38Z</time>
      </trkpt>
      <trkpt lat="45.86792" lon="4.72073">
        <ele>194</ele>
        <time>2018-04-11T09:06:39Z</time>
      </trkpt>
      <trkpt lat="45.86787" lon="4.72071">
        <ele>194</ele>
        <time>2018-04-11T09:06:40Z</time>
      </trkpt>
      <trkpt lat="45.86781" lon="4.72071">
        <ele>194</ele>
        <time>2018-04-11T09:06:41Z</time>
      </trkpt>
      <trkpt lat="45.86775" lon="4.72069">
        <ele>195</ele>
        <time>2018-04-11T09:06:42Z</time>
      </trkpt>
      <trkpt lat="45.86771" lon="4.72067">
        <ele>195</ele>
        <time>2018-04-11T09:06:43Z</time>
      </trkpt>
      <trkpt lat="45.86765" lon="4.72066">
        <ele>195</ele>
        <time>2018-04-11T09:06:44Z</time>
      </trkpt>
      <trkpt lat="45.86759" lon="4.72063">
        <ele>195</ele>
        <time>2018-04-11T09:06:45Z</time>
      </trkpt>
      <trkpt lat="45.86754" lon="4.72061">
        <ele>195</ele>
        <time>2018-04-11T09:06:46Z</time>
      </trkpt>
      <trkpt lat="45.86749" lon="4.72058">
        <ele>197</ele>
        <time>2018-04-11T09:06:47Z</time>
      </trkpt>
      <trkpt lat="45.86744" lon="4.72055">
        <ele>197</ele>
        <time>2018-04-11T09:06:48Z</time>
      </trkpt>
      <trkpt lat="45.8674" lon="4.72052">
        <ele>197</ele>
        <time>2018-04-11T09:06:49Z</time>
      </trkpt>
      <trkpt lat="45.86735" lon="4.7205">
        <ele>197</ele>
        <time>2018-04-11T09:06:50Z</time>
      </trkpt>
      <trkpt lat="45.8673" lon="4.72047">
        <ele>197</ele>
        <time>2018-04-11T09:06:51Z</time>
      </trkpt>
      <trkpt lat="45.86726" lon="4.72044">
        <ele>197</ele>
        <time>2018-04-11T09:06:52Z</time>
      </trkpt>
      <trkpt lat="45.8672" lon="4.72041">
        <ele>197</ele>
        <time>2018-04-11T09:06:53Z</time>
      </trkpt>
      <trkpt lat="45.86716" lon="4.72039">
        <ele>197</ele>
        <time>2018-04-11T09:06:54Z</time>
      </trkpt>
      <trkpt lat="45.8671" lon="4.72036">
        <ele>197</ele>
        <time>2018-04-11T09:06:55Z</time>
      </trkpt>
      <trkpt lat="45.86703" lon="4.72033">
        <ele>197</ele>
        <time>2018-04-11T09:06:56Z</time>
      </trkpt>
      <trkpt lat="45.86696" lon="4.72029">
        <ele>197</ele>
        <time>2018-04-11T09:06:57Z</time>
      </trkpt>
      <trkpt lat="45.86692" lon="4.72025">
        <ele>197</ele>
        <time>2018-04-11T09:06:58Z</time>
      </trkpt>
      <trkpt lat="45.86687" lon="4.72021">
        <ele>197</ele>
        <time>2018-04-11T09:06:59Z</time>
      </trkpt>
      <trkpt lat="45.86683" lon="4.72018">
        <ele>196</ele>
        <time>2018-04-11T09:07:00Z</time>
      </trkpt>
      <trkpt lat="45.86678" lon="4.72014">
        <ele>196</ele>
        <time>2018-04-11T09:07:01Z</time>
      </trkpt>
      <trkpt lat="45.86674" lon="4.7201">
        <ele>196</ele>
        <time>2018-04-11T09:07:02Z</time>
      </trkpt>
      <trkpt lat="45.8667" lon="4.72007">
        <ele>196</ele>
        <time>2018-04-11T09:07:03Z</time>
      </trkpt>
      <trkpt lat="45.86662" lon="4.72001">
        <ele>196</ele>
        <time>2018-04-11T09:07:05Z</time>
      </trkpt>
      <trkpt lat="45.86658" lon="4.71998">
        <ele>195</ele>
        <time>2018-04-11T09:07:06Z</time>
      </trkpt>
      <trkpt lat="45.86654" lon="4.71995">
        <ele>195</ele>
        <time>2018-04-11T09:07:07Z</time>
      </trkpt>
      <trkpt lat="45.86649" lon="4.71992">
        <ele>195</ele>
        <time>2018-04-11T09:07:08Z</time>
      </trkpt>
      <trkpt lat="45.86645" lon="4.71988">
        <ele>195</ele>
        <time>2018-04-11T09:07:09Z</time>
      </trkpt>
      <trkpt lat="45.86638" lon="4.71985">
        <ele>195</ele>
        <time>2018-04-11T09:07:10Z</time>
      </trkpt>
      <trkpt lat="45.86633" lon="4.71982">
        <ele>195</ele>
        <time>2018-04-11T09:07:11Z</time>
      </trkpt>
      <trkpt lat="45.86629" lon="4.71977">
        <ele>195</ele>
        <time>2018-04-11T09:07:12Z</time>
      </trkpt>
      <trkpt lat="45.86625" lon="4.71974">
        <ele>195</ele>
        <time>2018-04-11T09:07:13Z</time>
      </trkpt>
      <trkpt lat="45.86619" lon="4.7197">
        <ele>195</ele>
        <time>2018-04-11T09:07:14Z</time>
      </trkpt>
      <trkpt lat="45.86615" lon="4.71967">
        <ele>195</ele>
        <time>2018-04-11T09:07:15Z</time>
      </trkpt>
      <trkpt lat="45.86611" lon="4.71964">
        <ele>195</ele>
        <time>2018-04-11T09:07:16Z</time>
      </trkpt>
      <trkpt lat="45.86607" lon="4.71961">
        <ele>195</ele>
        <time>2018-04-11T09:07:17Z</time>
      </trkpt>
      <trkpt lat="45.86603" lon="4.71957">
        <ele>194</ele>
        <time>2018-04-11T09:07:18Z</time>
      </trkpt>
      <trkpt lat="45.86596" lon="4.71951">
        <ele>194</ele>
        <time>2018-04-11T09:07:20Z</time>
      </trkpt>
      <trkpt lat="45.86592" lon="4.71948">
        <ele>194</ele>
        <time>2018-04-11T09:07:21Z</time>
      </trkpt>
      <trkpt lat="45.86584" lon="4.71941">
        <ele>194</ele>
        <time>2018-04-11T09:07:23Z</time>
      </trkpt>
      <trkpt lat="45.8658" lon="4.71938">
        <ele>195</ele>
        <time>2018-04-11T09:07:24Z</time>
      </trkpt>
      <trkpt lat="45.86577" lon="4.71934">
        <ele>195</ele>
        <time>2018-04-11T09:07:25Z</time>
      </trkpt>
      <trkpt lat="45.8657" lon="4.71929">
        <ele>195</ele>
        <time>2018-04-11T09:07:26Z</time>
      </trkpt>
      <trkpt lat="45.86565" lon="4.71925">
        <ele>195</ele>
        <time>2018-04-11T09:07:27Z</time>
      </trkpt>
      <trkpt lat="45.86561" lon="4.71921">
        <ele>196</ele>
        <time>2018-04-11T09:07:28Z</time>
      </trkpt>
      <trkpt lat="45.86556" lon="4.71917">
        <ele>196</ele>
        <time>2018-04-11T09:07:29Z</time>
      </trkpt>
      <trkpt lat="45.86551" lon="4.71913">
        <ele>195</ele>
        <time>2018-04-11T09:07:30Z</time>
      </trkpt>
      <trkpt lat="45.86546" lon="4.71909">
        <ele>195</ele>
        <time>2018-04-11T09:07:31Z</time>
      </trkpt>
      <trkpt lat="45.86542" lon="4.71906">
        <ele>195</ele>
        <time>2018-04-11T09:07:32Z</time>
      </trkpt>
      <trkpt lat="45.86538" lon="4.71904">
        <ele>195</ele>
        <time>2018-04-11T09:07:33Z</time>
      </trkpt>
      <trkpt lat="45.86533" lon="4.719">
        <ele>195</ele>
        <time>2018-04-11T09:07:34Z</time>
      </trkpt>
      <trkpt lat="45.86529" lon="4.71897">
        <ele>195</ele>
        <time>2018-04-11T09:07:35Z</time>
      </trkpt>
      <trkpt lat="45.86525" lon="4.71893">
        <ele>195</ele>
        <time>2018-04-11T09:07:36Z</time>
      </trkpt>
      <trkpt lat="45.86521" lon="4.71889">
        <ele>195</ele>
        <time>2018-04-11T09:07:37Z</time>
      </trkpt>
      <trkpt lat="45.86516" lon="4.71884">
        <ele>195</ele>
        <time>2018-04-11T09:07:38Z</time>
      </trkpt>
      <trkpt lat="45.86512" lon="4.71881">
        <ele>195</ele>
        <time>2018-04-11T09:07:39Z</time>
      </trkpt>
      <trkpt lat="45.86508" lon="4.71877">
        <ele>195</ele>
        <time>2018-04-11T09:07:40Z</time>
      </trkpt>
      <trkpt lat="45.86504" lon="4.71873">
        <ele>195</ele>
        <time>2018-04-11T09:07:41Z</time>
      </trkpt>
      <trkpt lat="45.865" lon="4.71869">
        <ele>198</ele>
        <time>2018-04-11T09:07:42Z</time>
      </trkpt>
      <trkpt lat="45.86495" lon="4.71865">
        <ele>198</ele>
        <time>2018-04-11T09:07:43Z</time>
      </trkpt>
      <trkpt lat="45.86491" lon="4.71862">
        <ele>198</ele>
        <time>2018-04-11T09:07:44Z</time>
      </trkpt>
      <trkpt lat="45.86486" lon="4.71859">
        <ele>198</ele>
        <time>2018-04-11T09:07:45Z</time>
      </trkpt>
      <trkpt lat="45.86482" lon="4.71856">
        <ele>198</ele>
        <time>2018-04-11T09:07:46Z</time>
      </trkpt>
      <trkpt lat="45.86478" lon="4.71852">
        <ele>198</ele>
        <time>2018-04-11T09:07:47Z</time>
      </trkpt>
      <trkpt lat="45.86473" lon="4.71849">
        <ele>199</ele>
        <time>2018-04-11T09:07:48Z</time>
      </trkpt>
      <trkpt lat="45.86469" lon="4.71845">
        <ele>199</ele>
        <time>2018-04-11T09:07:49Z</time>
      </trkpt>
      <trkpt lat="45.86464" lon="4.71843">
        <ele>199</ele>
        <time>2018-04-11T09:07:50Z</time>
      </trkpt>
      <trkpt lat="45.8646" lon="4.71838">
        <ele>199</ele>
        <time>2018-04-11T09:07:51Z</time>
      </trkpt>
      <trkpt lat="45.86456" lon="4.71835">
        <ele>200</ele>
        <time>2018-04-11T09:07:52Z</time>
      </trkpt>
      <trkpt lat="45.86452" lon="4.71827">
        <ele>197</ele>
        <time>2018-04-11T09:07:54Z</time>
      </trkpt>
      <trkpt lat="45.86445" lon="4.71824">
        <ele>197</ele>
        <time>2018-04-11T09:07:55Z</time>
      </trkpt>
      <trkpt lat="45.86439" lon="4.7182">
        <ele>198</ele>
        <time>2018-04-11T09:07:56Z</time>
      </trkpt>
      <trkpt lat="45.86434" lon="4.71816">
        <ele>198</ele>
        <time>2018-04-11T09:07:57Z</time>
      </trkpt>
      <trkpt lat="45.8643" lon="4.71813">
        <ele>198</ele>
        <time>2018-04-11T09:07:58Z</time>
      </trkpt>
      <trkpt lat="45.86425" lon="4.7181">
        <ele>198</ele>
        <time>2018-04-11T09:07:59Z</time>
      </trkpt>
      <trkpt lat="45.86422" lon="4.71807">
        <ele>197</ele>
        <time>2018-04-11T09:08:00Z</time>
      </trkpt>
      <trkpt lat="45.86415" lon="4.71804">
        <ele>199</ele>
        <time>2018-04-11T09:08:01Z</time>
      </trkpt>
      <trkpt lat="45.86411" lon="4.718">
        <ele>199</ele>
        <time>2018-04-11T09:08:02Z</time>
      </trkpt>
      <trkpt lat="45.86406" lon="4.71797">
        <ele>199</ele>
        <time>2018-04-11T09:08:03Z</time>
      </trkpt>
      <trkpt lat="45.86403" lon="4.71794">
        <ele>199</ele>
        <time>2018-04-11T09:08:04Z</time>
      </trkpt>
      <trkpt lat="45.86399" lon="4.71789">
        <ele>198</ele>
        <time>2018-04-11T09:08:05Z</time>
      </trkpt>
      <trkpt lat="45.86395" lon="4.71785">
        <ele>198</ele>
        <time>2018-04-11T09:08:06Z</time>
      </trkpt>
      <trkpt lat="45.8639" lon="4.71782">
        <ele>198</ele>
        <time>2018-04-11T09:08:07Z</time>
      </trkpt>
      <trkpt lat="45.86386" lon="4.71779">
        <ele>198</ele>
        <time>2018-04-11T09:08:08Z</time>
      </trkpt>
      <trkpt lat="45.86382" lon="4.71775">
        <ele>198</ele>
        <time>2018-04-11T09:08:09Z</time>
      </trkpt>
      <trkpt lat="45.86378" lon="4.71772">
        <ele>198</ele>
        <time>2018-04-11T09:08:10Z</time>
      </trkpt>
      <trkpt lat="45.86374" lon="4.71769">
        <ele>198</ele>
        <time>2018-04-11T09:08:11Z</time>
      </trkpt>
      <trkpt lat="45.86368" lon="4.71765">
        <ele>198</ele>
        <time>2018-04-11T09:08:13Z</time>
      </trkpt>
      <trkpt lat="45.86364" lon="4.71762">
        <ele>198</ele>
        <time>2018-04-11T09:08:14Z</time>
      </trkpt>
      <trkpt lat="45.86357" lon="4.71756">
        <ele>198</ele>
        <time>2018-04-11T09:08:16Z</time>
      </trkpt>
      <trkpt lat="45.86353" lon="4.71752">
        <ele>197</ele>
        <time>2018-04-11T09:08:17Z</time>
      </trkpt>
      <trkpt lat="45.86348" lon="4.71749">
        <ele>195</ele>
        <time>2018-04-11T09:08:18Z</time>
      </trkpt>
      <trkpt lat="45.86344" lon="4.71745">
        <ele>195</ele>
        <time>2018-04-11T09:08:19Z</time>
      </trkpt>
      <trkpt lat="45.86341" lon="4.71741">
        <ele>195</ele>
        <time>2018-04-11T09:08:20Z</time>
      </trkpt>
      <trkpt lat="45.86336" lon="4.71738">
        <ele>195</ele>
        <time>2018-04-11T09:08:21Z</time>
      </trkpt>
      <trkpt lat="45.86332" lon="4.71734">
        <ele>196</ele>
        <time>2018-04-11T09:08:22Z</time>
      </trkpt>
      <trkpt lat="45.86327" lon="4.7173">
        <ele>196</ele>
        <time>2018-04-11T09:08:23Z</time>
      </trkpt>
      <trkpt lat="45.86323" lon="4.71726">
        <ele>196</ele>
        <time>2018-04-11T09:08:24Z</time>
      </trkpt>
      <trkpt lat="45.86318" lon="4.71723">
        <ele>196</ele>
        <time>2018-04-11T09:08:25Z</time>
      </trkpt>
      <trkpt lat="45.86313" lon="4.71719">
        <ele>196</ele>
        <time>2018-04-11T09:08:26Z</time>
      </trkpt>
      <trkpt lat="45.8631" lon="4.71715">
        <ele>195</ele>
        <time>2018-04-11T09:08:27Z</time>
      </trkpt>
      <trkpt lat="45.86301" lon="4.71712">
        <ele>195</ele>
        <time>2018-04-11T09:08:28Z</time>
      </trkpt>
      <trkpt lat="45.86298" lon="4.71707">
        <ele>195</ele>
        <time>2018-04-11T09:08:29Z</time>
      </trkpt>
      <trkpt lat="45.86293" lon="4.71703">
        <ele>195</ele>
        <time>2018-04-11T09:08:30Z</time>
      </trkpt>
      <trkpt lat="45.86288" lon="4.71699">
        <ele>195</ele>
        <time>2018-04-11T09:08:31Z</time>
      </trkpt>
      <trkpt lat="45.86283" lon="4.71695">
        <ele>195</ele>
        <time>2018-04-11T09:08:32Z</time>
      </trkpt>
      <trkpt lat="45.86276" lon="4.71691">
        <ele>195</ele>
        <time>2018-04-11T09:08:33Z</time>
      </trkpt>
      <trkpt lat="45.86272" lon="4.71687">
        <ele>195</ele>
        <time>2018-04-11T09:08:34Z</time>
      </trkpt>
      <trkpt lat="45.86267" lon="4.71684">
        <ele>195</ele>
        <time>2018-04-11T09:08:35Z</time>
      </trkpt>
      <trkpt lat="45.86262" lon="4.71681">
        <ele>195</ele>
        <time>2018-04-11T09:08:36Z</time>
      </trkpt>
      <trkpt lat="45.86257" lon="4.71677">
        <ele>195</ele>
        <time>2018-04-11T09:08:37Z</time>
      </trkpt>
      <trkpt lat="45.86252" lon="4.71673">
        <ele>195</ele>
        <time>2018-04-11T09:08:38Z</time>
      </trkpt>
      <trkpt lat="45.86247" lon="4.71669">
        <ele>195</ele>
        <time>2018-04-11T09:08:39Z</time>
      </trkpt>
      <trkpt lat="45.86243" lon="4.71665">
        <ele>195</ele>
        <time>2018-04-11T09:08:40Z</time>
      </trkpt>
      <trkpt lat="45.86238" lon="4.71661">
        <ele>195</ele>
        <time>2018-04-11T09:08:41Z</time>
      </trkpt>
      <trkpt lat="45.86234" lon="4.71659">
        <ele>195</ele>
        <time>2018-04-11T09:08:42Z</time>
      </trkpt>
      <trkpt lat="45.8623" lon="4.71655">
        <ele>195</ele>
        <time>2018-04-11T09:08:43Z</time>
      </trkpt>
      <trkpt lat="45.86223" lon="4.71648">
        <ele>195</ele>
        <time>2018-04-11T09:08:45Z</time>
      </trkpt>
      <trkpt lat="45.8622" lon="4.71645">
        <ele>195</ele>
        <time>2018-04-11T09:08:46Z</time>
      </trkpt>
      <trkpt lat="45.86214" lon="4.71636">
        <ele>195</ele>
        <time>2018-04-11T09:08:48Z</time>
      </trkpt>
      <trkpt lat="45.86209" lon="4.7163">
        <ele>195</ele>
        <time>2018-04-11T09:08:49Z</time>
      </trkpt>
      <trkpt lat="45.86208" lon="4.71625">
        <ele>195</ele>
        <time>2018-04-11T09:08:50Z</time>
      </trkpt>
      <trkpt lat="45.86206" lon="4.71618">
        <ele>195</ele>
        <time>2018-04-11T09:08:51Z</time>
      </trkpt>
      <trkpt lat="45.86204" lon="4.71612">
        <ele>195</ele>
        <time>2018-04-11T09:08:52Z</time>
      </trkpt>
      <trkpt lat="45.86201" lon="4.71607">
        <ele>195</ele>
        <time>2018-04-11T09:08:53Z</time>
      </trkpt>
      <trkpt lat="45.86198" lon="4.71602">
        <ele>195</ele>
        <time>2018-04-11T09:08:54Z</time>
      </trkpt>
      <trkpt lat="45.86194" lon="4.71598">
        <ele>195</ele>
        <time>2018-04-11T09:08:55Z</time>
      </trkpt>
      <trkpt lat="45.8619" lon="4.71595">
        <ele>195</ele>
        <time>2018-04-11T09:08:56Z</time>
      </trkpt>
      <trkpt lat="45.86186" lon="4.7159">
        <ele>196</ele>
        <time>2018-04-11T09:08:57Z</time>
      </trkpt>
      <trkpt lat="45.86182" lon="4.71585">
        <ele>196</ele>
        <time>2018-04-11T09:08:58Z</time>
      </trkpt>
      <trkpt lat="45.86179" lon="4.71579">
        <ele>196</ele>
        <time>2018-04-11T09:08:59Z</time>
      </trkpt>
      <trkpt lat="45.86175" lon="4.71569">
        <ele>195</ele>
        <time>2018-04-11T09:09:01Z</time>
      </trkpt>
      <trkpt lat="45.86174" lon="4.71564">
        <ele>195</ele>
        <time>2018-04-11T09:09:02Z</time>
      </trkpt>
      <trkpt lat="45.86168" lon="4.71556">
        <ele>195</ele>
        <time>2018-04-11T09:09:04Z</time>
      </trkpt>
      <trkpt lat="45.86164" lon="4.71552">
        <ele>196</ele>
        <time>2018-04-11T09:09:05Z</time>
      </trkpt>
      <trkpt lat="45.86161" lon="4.71546">
        <ele>196</ele>
        <time>2018-04-11T09:09:06Z</time>
      </trkpt>
      <trkpt lat="45.86158" lon="4.71541">
        <ele>195</ele>
        <time>2018-04-11T09:09:07Z</time>
      </trkpt>
      <trkpt lat="45.86152" lon="4.71531">
        <ele>195</ele>
        <time>2018-04-11T09:09:09Z</time>
      </trkpt>
      <trkpt lat="45.86149" lon="4.71526">
        <ele>195</ele>
        <time>2018-04-11T09:09:10Z</time>
      </trkpt>
      <trkpt lat="45.86145" lon="4.71515">
        <ele>195</ele>
        <time>2018-04-11T09:09:12Z</time>
      </trkpt>
      <trkpt lat="45.86144" lon="4.7151">
        <ele>195</ele>
        <time>2018-04-11T09:09:13Z</time>
      </trkpt>
      <trkpt lat="45.8614" lon="4.71502">
        <ele>195</ele>
        <time>2018-04-11T09:09:15Z</time>
      </trkpt>
      <trkpt lat="45.86138" lon="4.71497">
        <ele>195</ele>
        <time>2018-04-11T09:09:16Z</time>
      </trkpt>
      <trkpt lat="45.86135" lon="4.71492">
        <ele>195</ele>
        <time>2018-04-11T09:09:17Z</time>
      </trkpt>
      <trkpt lat="45.86131" lon="4.71485">
        <ele>195</ele>
        <time>2018-04-11T09:09:18Z</time>
      </trkpt>
      <trkpt lat="45.86129" lon="4.71479">
        <ele>195</ele>
        <time>2018-04-11T09:09:19Z</time>
      </trkpt>
      <trkpt lat="45.86126" lon="4.71474">
        <ele>195</ele>
        <time>2018-04-11T09:09:20Z</time>
      </trkpt>
      <trkpt lat="45.86124" lon="4.71468">
        <ele>195</ele>
        <time>2018-04-11T09:09:21Z</time>
      </trkpt>
      <trkpt lat="45.86123" lon="4.71461">
        <ele>195</ele>
        <time>2018-04-11T09:09:22Z</time>
      </trkpt>
      <trkpt lat="45.86121" lon="4.71455">
        <ele>195</ele>
        <time>2018-04-11T09:09:23Z</time>
      </trkpt>
      <trkpt lat="45.86119" lon="4.71449">
        <ele>195</ele>
        <time>2018-04-11T09:09:24Z</time>
      </trkpt>
      <trkpt lat="45.86119" lon="4.71442">
        <ele>195</ele>
        <time>2018-04-11T09:09:25Z</time>
      </trkpt>
      <trkpt lat="45.86118" lon="4.71436">
        <ele>195</ele>
        <time>2018-04-11T09:09:26Z</time>
      </trkpt>
      <trkpt lat="45.86116" lon="4.71429">
        <ele>195</ele>
        <time>2018-04-11T09:09:27Z</time>
      </trkpt>
      <trkpt lat="45.86115" lon="4.71423">
        <ele>195</ele>
        <time>2018-04-11T09:09:28Z</time>
      </trkpt>
      <trkpt lat="45.86113" lon="4.71416">
        <ele>196</ele>
        <time>2018-04-11T09:09:29Z</time>
      </trkpt>
      <trkpt lat="45.86113" lon="4.71409">
        <ele>196</ele>
        <time>2018-04-11T09:09:30Z</time>
      </trkpt>
      <trkpt lat="45.86112" lon="4.71397">
        <ele>196</ele>
        <time>2018-04-11T09:09:32Z</time>
      </trkpt>
      <trkpt lat="45.86111" lon="4.71391">
        <ele>196</ele>
        <time>2018-04-11T09:09:33Z</time>
      </trkpt>
      <trkpt lat="45.86111" lon="4.71384">
        <ele>196</ele>
        <time>2018-04-11T09:09:34Z</time>
      </trkpt>
      <trkpt lat="45.8611" lon="4.71377">
        <ele>196</ele>
        <time>2018-04-11T09:09:35Z</time>
      </trkpt>
      <trkpt lat="45.8611" lon="4.71371">
        <ele>196</ele>
        <time>2018-04-11T09:09:36Z</time>
      </trkpt>
      <trkpt lat="45.86108" lon="4.71365">
        <ele>196</ele>
        <time>2018-04-11T09:09:37Z</time>
      </trkpt>
      <trkpt lat="45.86108" lon="4.71357">
        <ele>196</ele>
        <time>2018-04-11T09:09:38Z</time>
      </trkpt>
      <trkpt lat="45.86106" lon="4.71351">
        <ele>196</ele>
        <time>2018-04-11T09:09:39Z</time>
      </trkpt>
      <trkpt lat="45.86105" lon="4.71345">
        <ele>196</ele>
        <time>2018-04-11T09:09:40Z</time>
      </trkpt>
      <trkpt lat="45.86104" lon="4.71338">
        <ele>196</ele>
        <time>2018-04-11T09:09:41Z</time>
      </trkpt>
      <trkpt lat="45.86103" lon="4.7133">
        <ele>197</ele>
        <time>2018-04-11T09:09:42Z</time>
      </trkpt>
      <trkpt lat="45.86102" lon="4.71322">
        <ele>197</ele>
        <time>2018-04-11T09:09:43Z</time>
      </trkpt>
      <trkpt lat="45.86101" lon="4.71315">
        <ele>197</ele>
        <time>2018-04-11T09:09:44Z</time>
      </trkpt>
      <trkpt lat="45.86101" lon="4.71307">
        <ele>197</ele>
        <time>2018-04-11T09:09:45Z</time>
      </trkpt>
      <trkpt lat="45.86099" lon="4.71301">
        <ele>197</ele>
        <time>2018-04-11T09:09:46Z</time>
      </trkpt>
      <trkpt lat="45.86098" lon="4.71295">
        <ele>197</ele>
        <time>2018-04-11T09:09:47Z</time>
      </trkpt>
      <trkpt lat="45.86095" lon="4.71284">
        <ele>197</ele>
        <time>2018-04-11T09:09:49Z</time>
      </trkpt>
      <trkpt lat="45.86089" lon="4.71279">
        <ele>197</ele>
        <time>2018-04-11T09:09:50Z</time>
      </trkpt>
      <trkpt lat="45.86086" lon="4.71273">
        <ele>197</ele>
        <time>2018-04-11T09:09:51Z</time>
      </trkpt>
      <trkpt lat="45.86084" lon="4.71268">
        <ele>197</ele>
        <time>2018-04-11T09:09:52Z</time>
      </trkpt>
      <trkpt lat="45.86081" lon="4.71259">
        <ele>198</ele>
        <time>2018-04-11T09:09:54Z</time>
      </trkpt>
      <trkpt lat="45.86078" lon="4.71254">
        <ele>198</ele>
        <time>2018-04-11T09:09:55Z</time>
      </trkpt>
      <trkpt lat="45.86077" lon="4.71248">
        <ele>198</ele>
        <time>2018-04-11T09:09:56Z</time>
      </trkpt>
      <trkpt lat="45.86076" lon="4.71241">
        <ele>198</ele>
        <time>2018-04-11T09:09:57Z</time>
      </trkpt>
      <trkpt lat="45.86076" lon="4.71234">
        <ele>198</ele>
        <time>2018-04-11T09:09:58Z</time>
      </trkpt>
      <trkpt lat="45.86077" lon="4.71227">
        <ele>198</ele>
        <time>2018-04-11T09:09:59Z</time>
      </trkpt>
      <trkpt lat="45.86078" lon="4.71216">
        <ele>198</ele>
        <time>2018-04-11T09:10:01Z</time>
      </trkpt>
      <trkpt lat="45.86081" lon="4.7121">
        <ele>198</ele>
        <time>2018-04-11T09:10:02Z</time>
      </trkpt>
      <trkpt lat="45.86083" lon="4.71204">
        <ele>198</ele>
        <time>2018-04-11T09:10:03Z</time>
      </trkpt>
      <trkpt lat="45.86085" lon="4.71198">
        <ele>197</ele>
        <time>2018-04-11T09:10:04Z</time>
      </trkpt>
      <trkpt lat="45.86087" lon="4.71189">
        <ele>197</ele>
        <time>2018-04-11T09:10:06Z</time>
      </trkpt>
      <trkpt lat="45.86087" lon="4.71184">
        <ele>197</ele>
        <time>2018-04-11T09:10:07Z</time>
      </trkpt>
      <trkpt lat="45.86088" lon="4.71177">
        <ele>197</ele>
        <time>2018-04-11T09:10:08Z</time>
      </trkpt>
      <trkpt lat="45.86088" lon="4.71169">
        <ele>198</ele>
        <time>2018-04-11T09:10:09Z</time>
      </trkpt>
      <trkpt lat="45.86087" lon="4.71158">
        <ele>197</ele>
        <time>2018-04-11T09:10:10Z</time>
      </trkpt>
      <trkpt lat="45.86084" lon="4.7115">
        <ele>197</ele>
        <time>2018-04-11T09:10:11Z</time>
      </trkpt>
      <trkpt lat="45.86078" lon="4.7114">
        <ele>197</ele>
        <time>2018-04-11T09:10:13Z</time>
      </trkpt>
      <trkpt lat="45.86074" lon="4.71136">
        <ele>197</ele>
        <time>2018-04-11T09:10:14Z</time>
      </trkpt>
      <trkpt lat="45.86067" lon="4.7113">
        <ele>197</ele>
        <time>2018-04-11T09:10:17Z</time>
      </trkpt>
      <trkpt lat="45.86063" lon="4.71125">
        <ele>197</ele>
        <time>2018-04-11T09:10:18Z</time>
      </trkpt>
      <trkpt lat="45.86058" lon="4.71119">
        <ele>197</ele>
        <time>2018-04-11T09:10:19Z</time>
      </trkpt>
      <trkpt lat="45.86055" lon="4.71115">
        <ele>197</ele>
        <time>2018-04-11T09:10:20Z</time>
      </trkpt>
      <trkpt lat="45.86049" lon="4.71106">
        <ele>197</ele>
        <time>2018-04-11T09:10:22Z</time>
      </trkpt>
      <trkpt lat="45.86046" lon="4.71102">
        <ele>197</ele>
        <time>2018-04-11T09:10:23Z</time>
      </trkpt>
      <trkpt lat="45.86043" lon="4.71097">
        <ele>197</ele>
        <time>2018-04-11T09:10:24Z</time>
      </trkpt>
      <trkpt lat="45.8604" lon="4.71091">
        <ele>197</ele>
        <time>2018-04-11T09:10:25Z</time>
      </trkpt>
      <trkpt lat="45.86038" lon="4.71085">
        <ele>197</ele>
        <time>2018-04-11T09:10:26Z</time>
      </trkpt>
      <trkpt lat="45.86036" lon="4.71078">
        <ele>197</ele>
        <time>2018-04-11T09:10:27Z</time>
      </trkpt>
      <trkpt lat="45.86034" lon="4.71072">
        <ele>197</ele>
        <time>2018-04-11T09:10:28Z</time>
      </trkpt>
      <trkpt lat="45.86033" lon="4.71066">
        <ele>197</ele>
        <time>2018-04-11T09:10:29Z</time>
      </trkpt>
      <trkpt lat="45.86032" lon="4.71059">
        <ele>197</ele>
        <time>2018-04-11T09:10:30Z</time>
      </trkpt>
      <trkpt lat="45.8603" lon="4.7105">
        <ele>197</ele>
        <time>2018-04-11T09:10:31Z</time>
      </trkpt>
      <trkpt lat="45.86026" lon="4.71039">
        <ele>197</ele>
        <time>2018-04-11T09:10:33Z</time>
      </trkpt>
      <trkpt lat="45.86024" lon="4.71033">
        <ele>197</ele>
        <time>2018-04-11T09:10:34Z</time>
      </trkpt>
      <trkpt lat="45.86019" lon="4.71023">
        <ele>197</ele>
        <time>2018-04-11T09:10:36Z</time>
      </trkpt>
      <trkpt lat="45.86017" lon="4.71017">
        <ele>197</ele>
        <time>2018-04-11T09:10:37Z</time>
      </trkpt>
      <trkpt lat="45.86011" lon="4.71009">
        <ele>197</ele>
        <time>2018-04-11T09:10:39Z</time>
      </trkpt>
      <trkpt lat="45.86007" lon="4.71005">
        <ele>197</ele>
        <time>2018-04-11T09:10:40Z</time>
      </trkpt>
      <trkpt lat="45.86003" lon="4.71">
        <ele>197</ele>
        <time>2018-04-11T09:10:41Z</time>
      </trkpt>
      <trkpt lat="45.86" lon="4.70996">
        <ele>197</ele>
        <time>2018-04-11T09:10:42Z</time>
      </trkpt>
      <trkpt lat="45.85995" lon="4.70993">
        <ele>197</ele>
        <time>2018-04-11T09:10:43Z</time>
      </trkpt>
      <trkpt lat="45.85992" lon="4.70989">
        <ele>197</ele>
        <time>2018-04-11T09:10:44Z</time>
      </trkpt>
      <trkpt lat="45.85984" lon="4.70982">
        <ele>197</ele>
        <time>2018-04-11T09:10:46Z</time>
      </trkpt>
      <trkpt lat="45.8598" lon="4.70979">
        <ele>197</ele>
        <time>2018-04-11T09:10:47Z</time>
      </trkpt>
      <trkpt lat="45.85975" lon="4.70977">
        <ele>197</ele>
        <time>2018-04-11T09:10:48Z</time>
      </trkpt>
      <trkpt lat="45.8597" lon="4.70976">
        <ele>197</ele>
        <time>2018-04-11T09:10:49Z</time>
      </trkpt>
      <trkpt lat="45.85965" lon="4.70974">
        <ele>197</ele>
        <time>2018-04-11T09:10:50Z</time>
      </trkpt>
      <trkpt lat="45.85961" lon="4.70972">
        <ele>197</ele>
        <time>2018-04-11T09:10:51Z</time>
      </trkpt>
      <trkpt lat="45.85954" lon="4.70973">
        <ele>197</ele>
        <time>2018-04-11T09:10:53Z</time>
      </trkpt>
      <trkpt lat="45.85949" lon="4.70973">
        <ele>197</ele>
        <time>2018-04-11T09:10:54Z</time>
      </trkpt>
      <trkpt lat="45.85942" lon="4.70971">
        <ele>197</ele>
        <time>2018-04-11T09:10:56Z</time>
      </trkpt>
      <trkpt lat="45.85938" lon="4.70968">
        <ele>197</ele>
        <time>2018-04-11T09:10:57Z</time>
      </trkpt>
      <trkpt lat="45.85934" lon="4.70959">
        <ele>197</ele>
        <time>2018-04-11T09:10:59Z</time>
      </trkpt>
      <trkpt lat="45.85934" lon="4.70953">
        <ele>197</ele>
        <time>2018-04-11T09:11:00Z</time>
      </trkpt>
      <trkpt lat="45.85936" lon="4.70941">
        <ele>197</ele>
        <time>2018-04-11T09:11:02Z</time>
      </trkpt>
      <trkpt lat="45.85938" lon="4.70933">
        <ele>197</ele>
        <time>2018-04-11T09:11:03Z</time>
      </trkpt>
      <trkpt lat="45.8594" lon="4.70927">
        <ele>197</ele>
        <time>2018-04-11T09:11:04Z</time>
      </trkpt>
      <trkpt lat="45.85942" lon="4.70921">
        <ele>197</ele>
        <time>2018-04-11T09:11:05Z</time>
      </trkpt>
      <trkpt lat="45.85944" lon="4.70913">
        <ele>197</ele>
        <time>2018-04-11T09:11:06Z</time>
      </trkpt>
      <trkpt lat="45.85946" lon="4.70906">
        <ele>197</ele>
        <time>2018-04-11T09:11:07Z</time>
      </trkpt>
      <trkpt lat="45.85947" lon="4.709">
        <ele>197</ele>
        <time>2018-04-11T09:11:08Z</time>
      </trkpt>
      <trkpt lat="45.85949" lon="4.70893">
        <ele>197</ele>
        <time>2018-04-11T09:11:09Z</time>
      </trkpt>
      <trkpt lat="45.85951" lon="4.70888">
        <ele>197</ele>
        <time>2018-04-11T09:11:10Z</time>
      </trkpt>
      <trkpt lat="45.85953" lon="4.70882">
        <ele>197</ele>
        <time>2018-04-11T09:11:11Z</time>
      </trkpt>
      <trkpt lat="45.85955" lon="4.70876">
        <ele>197</ele>
        <time>2018-04-11T09:11:12Z</time>
      </trkpt>
      <trkpt lat="45.85957" lon="4.70869">
        <ele>196</ele>
        <time>2018-04-11T09:11:13Z</time>
      </trkpt>
      <trkpt lat="45.85958" lon="4.70864">
        <ele>196</ele>
        <time>2018-04-11T09:11:14Z</time>
      </trkpt>
      <trkpt lat="45.85959" lon="4.70856">
        <ele>196</ele>
        <time>2018-04-11T09:11:15Z</time>
      </trkpt>
      <trkpt lat="45.8596" lon="4.70847">
        <ele>196</ele>
        <time>2018-04-11T09:11:16Z</time>
      </trkpt>
      <trkpt lat="45.8596" lon="4.70841">
        <ele>196</ele>
        <time>2018-04-11T09:11:17Z</time>
      </trkpt>
      <trkpt lat="45.85959" lon="4.70834">
        <ele>196</ele>
        <time>2018-04-11T09:11:18Z</time>
      </trkpt>
      <trkpt lat="45.85958" lon="4.70827">
        <ele>196</ele>
        <time>2018-04-11T09:11:19Z</time>
      </trkpt>
      <trkpt lat="45.85955" lon="4.70822">
        <ele>195</ele>
        <time>2018-04-11T09:11:20Z</time>
      </trkpt>
      <trkpt lat="45.85953" lon="4.70815">
        <ele>195</ele>
        <time>2018-04-11T09:11:21Z</time>
      </trkpt>
      <trkpt lat="45.85952" lon="4.70808">
        <ele>195</ele>
        <time>2018-04-11T09:11:22Z</time>
      </trkpt>
      <trkpt lat="45.85952" lon="4.70801">
        <ele>195</ele>
        <time>2018-04-11T09:11:23Z</time>
      </trkpt>
      <trkpt lat="45.85953" lon="4.70794">
        <ele>195</ele>
        <time>2018-04-11T09:11:24Z</time>
      </trkpt>
      <trkpt lat="45.85954" lon="4.70788">
        <ele>195</ele>
        <time>2018-04-11T09:11:25Z</time>
      </trkpt>
      <trkpt lat="45.85954" lon="4.70781">
        <ele>195</ele>
        <time>2018-04-11T09:11:26Z</time>
      </trkpt>
      <trkpt lat="45.85955" lon="4.70774">
        <ele>195</ele>
        <time>2018-04-11T09:11:27Z</time>
      </trkpt>
      <trkpt lat="45.85956" lon="4.70761">
        <ele>195</ele>
        <time>2018-04-11T09:11:29Z</time>
      </trkpt>
      <trkpt lat="45.85956" lon="4.70755">
        <ele>195</ele>
        <time>2018-04-11T09:11:30Z</time>
      </trkpt>
      <trkpt lat="45.85956" lon="4.70747">
        <ele>194</ele>
        <time>2018-04-11T09:11:31Z</time>
      </trkpt>
      <trkpt lat="45.85957" lon="4.70737">
        <ele>194</ele>
        <time>2018-04-11T09:11:32Z</time>
      </trkpt>
      <trkpt lat="45.85957" lon="4.70729">
        <ele>194</ele>
        <time>2018-04-11T09:11:33Z</time>
      </trkpt>
      <trkpt lat="45.85957" lon="4.70723">
        <ele>194</ele>
        <time>2018-04-11T09:11:34Z</time>
      </trkpt>
      <trkpt lat="45.85958" lon="4.70715">
        <ele>194</ele>
        <time>2018-04-11T09:11:35Z</time>
      </trkpt>
      <trkpt lat="45.85959" lon="4.70708">
        <ele>194</ele>
        <time>2018-04-11T09:11:36Z</time>
      </trkpt>
      <trkpt lat="45.85959" lon="4.70696">
        <ele>194</ele>
        <time>2018-04-11T09:11:38Z</time>
      </trkpt>
      <trkpt lat="45.85958" lon="4.70688">
        <ele>194</ele>
        <time>2018-04-11T09:11:39Z</time>
      </trkpt>
      <trkpt lat="45.85958" lon="4.70681">
        <ele>194</ele>
        <time>2018-04-11T09:11:40Z</time>
      </trkpt>
      <trkpt lat="45.85955" lon="4.70675">
        <ele>194</ele>
        <time>2018-04-11T09:11:41Z</time>
      </trkpt>
      <trkpt lat="45.85952" lon="4.70669">
        <ele>194</ele>
        <time>2018-04-11T09:11:42Z</time>
      </trkpt>
      <trkpt lat="45.85949" lon="4.70663">
        <ele>194</ele>
        <time>2018-04-11T09:11:43Z</time>
      </trkpt>
      <trkpt lat="45.85946" lon="4.70658">
        <ele>194</ele>
        <time>2018-04-11T09:11:44Z</time>
      </trkpt>
      <trkpt lat="45.85942" lon="4.70652">
        <ele>194</ele>
        <time>2018-04-11T09:11:45Z</time>
      </trkpt>
      <trkpt lat="45.85938" lon="4.70647">
        <ele>194</ele>
        <time>2018-04-11T09:11:46Z</time>
      </trkpt>
      <trkpt lat="45.85935" lon="4.70642">
        <ele>194</ele>
        <time>2018-04-11T09:11:47Z</time>
      </trkpt>
      <trkpt lat="45.85932" lon="4.70636">
        <ele>194</ele>
        <time>2018-04-11T09:11:48Z</time>
      </trkpt>
      <trkpt lat="45.85929" lon="4.7063">
        <ele>194</ele>
        <time>2018-04-11T09:11:49Z</time>
      </trkpt>
      <trkpt lat="45.85923" lon="4.7062">
        <ele>194</ele>
        <time>2018-04-11T09:11:51Z</time>
      </trkpt>
      <trkpt lat="45.85921" lon="4.70614">
        <ele>194</ele>
        <time>2018-04-11T09:11:52Z</time>
      </trkpt>
      <trkpt lat="45.85918" lon="4.70609">
        <ele>194</ele>
        <time>2018-04-11T09:11:53Z</time>
      </trkpt>
      <trkpt lat="45.85915" lon="4.70604">
        <ele>195</ele>
        <time>2018-04-11T09:11:54Z</time>
      </trkpt>
      <trkpt lat="45.85911" lon="4.70598">
        <ele>195</ele>
        <time>2018-04-11T09:11:55Z</time>
      </trkpt>
      <trkpt lat="45.85907" lon="4.70594">
        <ele>195</ele>
        <time>2018-04-11T09:11:56Z</time>
      </trkpt>
      <trkpt lat="45.85903" lon="4.70589">
        <ele>195</ele>
        <time>2018-04-11T09:11:57Z</time>
      </trkpt>
      <trkpt lat="45.85899" lon="4.70585">
        <ele>195</ele>
        <time>2018-04-11T09:11:58Z</time>
      </trkpt>
      <trkpt lat="45.85895" lon="4.70581">
        <ele>195</ele>
        <time>2018-04-11T09:11:59Z</time>
      </trkpt>
      <trkpt lat="45.85886" lon="4.70579">
        <ele>195</ele>
        <time>2018-04-11T09:12:00Z</time>
      </trkpt>
      <trkpt lat="45.8588" lon="4.70578">
        <ele>195</ele>
        <time>2018-04-11T09:12:01Z</time>
      </trkpt>
      <trkpt lat="45.85875" lon="4.70576">
        <ele>195</ele>
        <time>2018-04-11T09:12:02Z</time>
      </trkpt>
      <trkpt lat="45.8587" lon="4.70573">
        <ele>195</ele>
        <time>2018-04-11T09:12:03Z</time>
      </trkpt>
      <trkpt lat="45.85866" lon="4.70572">
        <ele>195</ele>
        <time>2018-04-11T09:12:04Z</time>
      </trkpt>
      <trkpt lat="45.85861" lon="4.70571">
        <ele>195</ele>
        <time>2018-04-11T09:12:05Z</time>
      </trkpt>
      <trkpt lat="45.85857" lon="4.70571">
        <ele>195</ele>
        <time>2018-04-11T09:12:06Z</time>
      </trkpt>
      <trkpt lat="45.85853" lon="4.70569">
        <ele>195</ele>
        <time>2018-04-11T09:12:07Z</time>
      </trkpt>
      <trkpt lat="45.85847" lon="4.70567">
        <ele>195</ele>
        <time>2018-04-11T09:12:08Z</time>
      </trkpt>
      <trkpt lat="45.85842" lon="4.70566">
        <ele>195</ele>
        <time>2018-04-11T09:12:09Z</time>
      </trkpt>
      <trkpt lat="45.85838" lon="4.70564">
        <ele>195</ele>
        <time>2018-04-11T09:12:10Z</time>
      </trkpt>
      <trkpt lat="45.85833" lon="4.70562">
        <ele>195</ele>
        <time>2018-04-11T09:12:11Z</time>
      </trkpt>
      <trkpt lat="45.85829" lon="4.7056">
        <ele>195</ele>
        <time>2018-04-11T09:12:12Z</time>
      </trkpt>
      <trkpt lat="45.85824" lon="4.70557">
        <ele>195</ele>
        <time>2018-04-11T09:12:13Z</time>
      </trkpt>
      <trkpt lat="45.85818" lon="4.70555">
        <ele>195</ele>
        <time>2018-04-11T09:12:14Z</time>
      </trkpt>
      <trkpt lat="45.85814" lon="4.70552">
        <ele>195</ele>
        <time>2018-04-11T09:12:15Z</time>
      </trkpt>
      <trkpt lat="45.8581" lon="4.7055">
        <ele>195</ele>
        <time>2018-04-11T09:12:16Z</time>
      </trkpt>
      <trkpt lat="45.85801" lon="4.70546">
        <ele>195</ele>
        <time>2018-04-11T09:12:18Z</time>
      </trkpt>
      <trkpt lat="45.85796" lon="4.70544">
        <ele>195</ele>
        <time>2018-04-11T09:12:19Z</time>
      </trkpt>
      <trkpt lat="45.85792" lon="4.70541">
        <ele>195</ele>
        <time>2018-04-11T09:12:20Z</time>
      </trkpt>
      <trkpt lat="45.85788" lon="4.70539">
        <ele>196</ele>
        <time>2018-04-11T09:12:21Z</time>
      </trkpt>
      <trkpt lat="45.8578" lon="4.70534">
        <ele>196</ele>
        <time>2018-04-11T09:12:23Z</time>
      </trkpt>
      <trkpt lat="45.85776" lon="4.70531">
        <ele>196</ele>
        <time>2018-04-11T09:12:24Z</time>
      </trkpt>
      <trkpt lat="45.85773" lon="4.70528">
        <ele>196</ele>
        <time>2018-04-11T09:12:25Z</time>
      </trkpt>
      <trkpt lat="45.85768" lon="4.70525">
        <ele>196</ele>
        <time>2018-04-11T09:12:26Z</time>
      </trkpt>
      <trkpt lat="45.85764" lon="4.70521">
        <ele>196</ele>
        <time>2018-04-11T09:12:27Z</time>
      </trkpt>
      <trkpt lat="45.8576" lon="4.70517">
        <ele>196</ele>
        <time>2018-04-11T09:12:28Z</time>
      </trkpt>
      <trkpt lat="45.85752" lon="4.70512">
        <ele>196</ele>
        <time>2018-04-11T09:12:30Z</time>
      </trkpt>
      <trkpt lat="45.85747" lon="4.70509">
        <ele>196</ele>
        <time>2018-04-11T09:12:31Z</time>
      </trkpt>
      <trkpt lat="45.85742" lon="4.70507">
        <ele>196</ele>
        <time>2018-04-11T09:12:32Z</time>
      </trkpt>
      <trkpt lat="45.85738" lon="4.70504">
        <ele>196</ele>
        <time>2018-04-11T09:12:33Z</time>
      </trkpt>
      <trkpt lat="45.85732" lon="4.70497">
        <ele>196</ele>
        <time>2018-04-11T09:12:35Z</time>
      </trkpt>
      <trkpt lat="45.8573" lon="4.70493">
        <ele>196</ele>
        <time>2018-04-11T09:12:36Z</time>
      </trkpt>
      <trkpt lat="45.85726" lon="4.70483">
        <ele>196</ele>
        <time>2018-04-11T09:12:38Z</time>
      </trkpt>
      <trkpt lat="45.85724" lon="4.70476">
        <ele>196</ele>
        <time>2018-04-11T09:12:39Z</time>
      </trkpt>
      <trkpt lat="45.85724" lon="4.70469">
        <ele>196</ele>
        <time>2018-04-11T09:12:40Z</time>
      </trkpt>
      <trkpt lat="45.85723" lon="4.70462">
        <ele>196</ele>
        <time>2018-04-11T09:12:41Z</time>
      </trkpt>
      <trkpt lat="45.85722" lon="4.70455">
        <ele>196</ele>
        <time>2018-04-11T09:12:42Z</time>
      </trkpt>
      <trkpt lat="45.85721" lon="4.70446">
        <ele>196</ele>
        <time>2018-04-11T09:12:43Z</time>
      </trkpt>
      <trkpt lat="45.85718" lon="4.70434">
        <ele>196</ele>
        <time>2018-04-11T09:12:45Z</time>
      </trkpt>
      <trkpt lat="45.85717" lon="4.70425">
        <ele>196</ele>
        <time>2018-04-11T09:12:46Z</time>
      </trkpt>
      <trkpt lat="45.85716" lon="4.70418">
        <ele>196</ele>
        <time>2018-04-11T09:12:47Z</time>
      </trkpt>
      <trkpt lat="45.85716" lon="4.7041">
        <ele>196</ele>
        <time>2018-04-11T09:12:48Z</time>
      </trkpt>
      <trkpt lat="45.85715" lon="4.70401">
        <ele>196</ele>
        <time>2018-04-11T09:12:49Z</time>
      </trkpt>
      <trkpt lat="45.85715" lon="4.70393">
        <ele>196</ele>
        <time>2018-04-11T09:12:50Z</time>
      </trkpt>
      <trkpt lat="45.85713" lon="4.70385">
        <ele>196</ele>
        <time>2018-04-11T09:12:51Z</time>
      </trkpt>
      <trkpt lat="45.85712" lon="4.70379">
        <ele>196</ele>
        <time>2018-04-11T09:12:52Z</time>
      </trkpt>
      <trkpt lat="45.85711" lon="4.70372">
        <ele>196</ele>
        <time>2018-04-11T09:12:53Z</time>
      </trkpt>
      <trkpt lat="45.8571" lon="4.70365">
        <ele>196</ele>
        <time>2018-04-11T09:12:54Z</time>
      </trkpt>
      <trkpt lat="45.85709" lon="4.70358">
        <ele>196</ele>
        <time>2018-04-11T09:12:55Z</time>
      </trkpt>
      <trkpt lat="45.85708" lon="4.70352">
        <ele>196</ele>
        <time>2018-04-11T09:12:56Z</time>
      </trkpt>
      <trkpt lat="45.85707" lon="4.70344">
        <ele>196</ele>
        <time>2018-04-11T09:12:57Z</time>
      </trkpt>
      <trkpt lat="45.85706" lon="4.70337">
        <ele>196</ele>
        <time>2018-04-11T09:12:58Z</time>
      </trkpt>
      <trkpt lat="45.85706" lon="4.7033">
        <ele>197</ele>
        <time>2018-04-11T09:12:59Z</time>
      </trkpt>
      <trkpt lat="45.85705" lon="4.70323">
        <ele>197</ele>
        <time>2018-04-11T09:13:00Z</time>
      </trkpt>
      <trkpt lat="45.85704" lon="4.70316">
        <ele>197</ele>
        <time>2018-04-11T09:13:01Z</time>
      </trkpt>
      <trkpt lat="45.85704" lon="4.70309">
        <ele>197</ele>
        <time>2018-04-11T09:13:02Z</time>
      </trkpt>
      <trkpt lat="45.85703" lon="4.70302">
        <ele>197</ele>
        <time>2018-04-11T09:13:03Z</time>
      </trkpt>
      <trkpt lat="45.85702" lon="4.70295">
        <ele>197</ele>
        <time>2018-04-11T09:13:04Z</time>
      </trkpt>
      <trkpt lat="45.85701" lon="4.70288">
        <ele>197</ele>
        <time>2018-04-11T09:13:05Z</time>
      </trkpt>
      <trkpt lat="45.857" lon="4.70281">
        <ele>197</ele>
        <time>2018-04-11T09:13:06Z</time>
      </trkpt>
      <trkpt lat="45.85699" lon="4.70272">
        <ele>197</ele>
        <time>2018-04-11T09:13:07Z</time>
      </trkpt>
      <trkpt lat="45.85698" lon="4.70266">
        <ele>197</ele>
        <time>2018-04-11T09:13:08Z</time>
      </trkpt>
      <trkpt lat="45.85697" lon="4.70259">
        <ele>197</ele>
        <time>2018-04-11T09:13:09Z</time>
      </trkpt>
      <trkpt lat="45.85697" lon="4.70252">
        <ele>197</ele>
        <time>2018-04-11T09:13:10Z</time>
      </trkpt>
      <trkpt lat="45.85696" lon="4.7024">
        <ele>197</ele>
        <time>2018-04-11T09:13:12Z</time>
      </trkpt>
      <trkpt lat="45.85695" lon="4.70234">
        <ele>197</ele>
        <time>2018-04-11T09:13:13Z</time>
      </trkpt>
      <trkpt lat="45.85694" lon="4.70227">
        <ele>197</ele>
        <time>2018-04-11T09:13:14Z</time>
      </trkpt>
      <trkpt lat="45.85692" lon="4.7022">
        <ele>197</ele>
        <time>2018-04-11T09:13:15Z</time>
      </trkpt>
      <trkpt lat="45.85692" lon="4.70213">
        <ele>197</ele>
        <time>2018-04-11T09:13:16Z</time>
      </trkpt>
      <trkpt lat="45.85691" lon="4.70207">
        <ele>197</ele>
        <time>2018-04-11T09:13:17Z</time>
      </trkpt>
      <trkpt lat="45.85689" lon="4.70195">
        <ele>197</ele>
        <time>2018-04-11T09:13:19Z</time>
      </trkpt>
      <trkpt lat="45.85687" lon="4.70188">
        <ele>197</ele>
        <time>2018-04-11T09:13:20Z</time>
      </trkpt>
      <trkpt lat="45.85687" lon="4.7018">
        <ele>197</ele>
        <time>2018-04-11T09:13:21Z</time>
      </trkpt>
      <trkpt lat="45.85685" lon="4.70173">
        <ele>197</ele>
        <time>2018-04-11T09:13:22Z</time>
      </trkpt>
      <trkpt lat="45.85684" lon="4.70166">
        <ele>197</ele>
        <time>2018-04-11T09:13:23Z</time>
      </trkpt>
      <trkpt lat="45.85682" lon="4.7016">
        <ele>197</ele>
        <time>2018-04-11T09:13:24Z</time>
      </trkpt>
      <trkpt lat="45.8568" lon="4.70153">
        <ele>197</ele>
        <time>2018-04-11T09:13:25Z</time>
      </trkpt>
      <trkpt lat="45.85678" lon="4.70147">
        <ele>197</ele>
        <time>2018-04-11T09:13:26Z</time>
      </trkpt>
      <trkpt lat="45.85676" lon="4.70135">
        <ele>197</ele>
        <time>2018-04-11T09:13:28Z</time>
      </trkpt>
      <trkpt lat="45.85675" lon="4.70128">
        <ele>197</ele>
        <time>2018-04-11T09:13:29Z</time>
      </trkpt>
      <trkpt lat="45.85675" lon="4.70119">
        <ele>197</ele>
        <time>2018-04-11T09:13:30Z</time>
      </trkpt>
      <trkpt lat="45.85674" lon="4.70111">
        <ele>197</ele>
        <time>2018-04-11T09:13:31Z</time>
      </trkpt>
      <trkpt lat="45.85674" lon="4.70104">
        <ele>196</ele>
        <time>2018-04-11T09:13:32Z</time>
      </trkpt>
      <trkpt lat="45.85675" lon="4.70097">
        <ele>196</ele>
        <time>2018-04-11T09:13:33Z</time>
      </trkpt>
      <trkpt lat="45.85675" lon="4.70089">
        <ele>196</ele>
        <time>2018-04-11T09:13:34Z</time>
      </trkpt>
      <trkpt lat="45.85676" lon="4.70083">
        <ele>196</ele>
        <time>2018-04-11T09:13:35Z</time>
      </trkpt>
      <trkpt lat="45.85677" lon="4.70075">
        <ele>196</ele>
        <time>2018-04-11T09:13:37Z</time>
      </trkpt>
      <trkpt lat="45.85678" lon="4.70068">
        <ele>196</ele>
        <time>2018-04-11T09:13:38Z</time>
      </trkpt>
      <trkpt lat="45.85681" lon="4.70057">
        <ele>195</ele>
        <time>2018-04-11T09:13:40Z</time>
      </trkpt>
      <trkpt lat="45.85682" lon="4.70052">
        <ele>195</ele>
        <time>2018-04-11T09:13:41Z</time>
      </trkpt>
      <trkpt lat="45.85684" lon="4.70045">
        <ele>195</ele>
        <time>2018-04-11T09:13:42Z</time>
      </trkpt>
      <trkpt lat="45.85685" lon="4.70039">
        <ele>195</ele>
        <time>2018-04-11T09:13:43Z</time>
      </trkpt>
      <trkpt lat="45.85686" lon="4.70033">
        <ele>195</ele>
        <time>2018-04-11T09:13:44Z</time>
      </trkpt>
      <trkpt lat="45.85687" lon="4.70026">
        <ele>195</ele>
        <time>2018-04-11T09:13:45Z</time>
      </trkpt>
      <trkpt lat="45.85688" lon="4.70019">
        <ele>195</ele>
        <time>2018-04-11T09:13:46Z</time>
      </trkpt>
      <trkpt lat="45.85688" lon="4.70011">
        <ele>195</ele>
        <time>2018-04-11T09:13:47Z</time>
      </trkpt>
      <trkpt lat="45.85687" lon="4.70003">
        <ele>195</ele>
        <time>2018-04-11T09:13:48Z</time>
      </trkpt>
      <trkpt lat="45.85686" lon="4.69993">
        <ele>195</ele>
        <time>2018-04-11T09:13:49Z</time>
      </trkpt>
      <trkpt lat="45.85686" lon="4.69985">
        <ele>195</ele>
        <time>2018-04-11T09:13:50Z</time>
      </trkpt>
      <trkpt lat="45.85685" lon="4.69976">
        <ele>195</ele>
        <time>2018-04-11T09:13:51Z</time>
      </trkpt>
      <trkpt lat="45.85684" lon="4.69966">
        <ele>195</ele>
        <time>2018-04-11T09:13:52Z</time>
      </trkpt>
      <trkpt lat="45.85683" lon="4.69957">
        <ele>195</ele>
        <time>2018-04-11T09:13:53Z</time>
      </trkpt>
      <trkpt lat="45.8568" lon="4.69951">
        <ele>195</ele>
        <time>2018-04-11T09:13:54Z</time>
      </trkpt>
      <trkpt lat="45.85678" lon="4.69943">
        <ele>195</ele>
        <time>2018-04-11T09:13:55Z</time>
      </trkpt>
      <trkpt lat="45.85676" lon="4.69936">
        <ele>195</ele>
        <time>2018-04-11T09:13:56Z</time>
      </trkpt>
      <trkpt lat="45.85674" lon="4.69929">
        <ele>195</ele>
        <time>2018-04-11T09:13:57Z</time>
      </trkpt>
      <trkpt lat="45.85672" lon="4.69922">
        <ele>195</ele>
        <time>2018-04-11T09:13:58Z</time>
      </trkpt>
      <trkpt lat="45.8567" lon="4.69915">
        <ele>195</ele>
        <time>2018-04-11T09:13:59Z</time>
      </trkpt>
      <trkpt lat="45.85668" lon="4.69908">
        <ele>195</ele>
        <time>2018-04-11T09:14:00Z</time>
      </trkpt>
      <trkpt lat="45.85667" lon="4.69901">
        <ele>195</ele>
        <time>2018-04-11T09:14:01Z</time>
      </trkpt>
      <trkpt lat="45.85665" lon="4.69893">
        <ele>195</ele>
        <time>2018-04-11T09:14:02Z</time>
      </trkpt>
      <trkpt lat="45.85665" lon="4.69884">
        <ele>195</ele>
        <time>2018-04-11T09:14:03Z</time>
      </trkpt>
      <trkpt lat="45.85664" lon="4.69876">
        <ele>195</ele>
        <time>2018-04-11T09:14:04Z</time>
      </trkpt>
      <trkpt lat="45.85663" lon="4.69869">
        <ele>195</ele>
        <time>2018-04-11T09:14:05Z</time>
      </trkpt>
      <trkpt lat="45.85662" lon="4.69861">
        <ele>195</ele>
        <time>2018-04-11T09:14:06Z</time>
      </trkpt>
      <trkpt lat="45.85661" lon="4.69853">
        <ele>195</ele>
        <time>2018-04-11T09:14:07Z</time>
      </trkpt>
      <trkpt lat="45.85661" lon="4.69846">
        <ele>195</ele>
        <time>2018-04-11T09:14:08Z</time>
      </trkpt>
      <trkpt lat="45.8566" lon="4.69839">
        <ele>195</ele>
        <time>2018-04-11T09:14:09Z</time>
      </trkpt>
      <trkpt lat="45.85659" lon="4.69832">
        <ele>195</ele>
        <time>2018-04-11T09:14:10Z</time>
      </trkpt>
      <trkpt lat="45.85659" lon="4.69823">
        <ele>195</ele>
        <time>2018-04-11T09:14:11Z</time>
      </trkpt>
      <trkpt lat="45.85657" lon="4.69815">
        <ele>195</ele>
        <time>2018-04-11T09:14:12Z</time>
      </trkpt>
      <trkpt lat="45.85656" lon="4.69808">
        <ele>195</ele>
        <time>2018-04-11T09:14:13Z</time>
      </trkpt>
      <trkpt lat="45.85655" lon="4.698">
        <ele>195</ele>
        <time>2018-04-11T09:14:14Z</time>
      </trkpt>
      <trkpt lat="45.85654" lon="4.69792">
        <ele>195</ele>
        <time>2018-04-11T09:14:15Z</time>
      </trkpt>
      <trkpt lat="45.85654" lon="4.69784">
        <ele>195</ele>
        <time>2018-04-11T09:14:16Z</time>
      </trkpt>
      <trkpt lat="45.85653" lon="4.69776">
        <ele>195</ele>
        <time>2018-04-11T09:14:17Z</time>
      </trkpt>
      <trkpt lat="45.85653" lon="4.69769">
        <ele>195</ele>
        <time>2018-04-11T09:14:18Z</time>
      </trkpt>
      <trkpt lat="45.85653" lon="4.69762">
        <ele>195</ele>
        <time>2018-04-11T09:14:19Z</time>
      </trkpt>
      <trkpt lat="45.85651" lon="4.69749">
        <ele>195</ele>
        <time>2018-04-11T09:14:21Z</time>
      </trkpt>
      <trkpt lat="45.8565" lon="4.69743">
        <ele>195</ele>
        <time>2018-04-11T09:14:22Z</time>
      </trkpt>
      <trkpt lat="45.8565" lon="4.69735">
        <ele>195</ele>
        <time>2018-04-11T09:14:23Z</time>
      </trkpt>
      <trkpt lat="45.8565" lon="4.69728">
        <ele>195</ele>
        <time>2018-04-11T09:14:24Z</time>
      </trkpt>
      <trkpt lat="45.85649" lon="4.69721">
        <ele>196</ele>
        <time>2018-04-11T09:14:25Z</time>
      </trkpt>
      <trkpt lat="45.85648" lon="4.69715">
        <ele>196</ele>
        <time>2018-04-11T09:14:26Z</time>
      </trkpt>
      <trkpt lat="45.85646" lon="4.69703">
        <ele>196</ele>
        <time>2018-04-11T09:14:28Z</time>
      </trkpt>
      <trkpt lat="45.85645" lon="4.69695">
        <ele>196</ele>
        <time>2018-04-11T09:14:29Z</time>
      </trkpt>
      <trkpt lat="45.85644" lon="4.69688">
        <ele>196</ele>
        <time>2018-04-11T09:14:30Z</time>
      </trkpt>
      <trkpt lat="45.85644" lon="4.69681">
        <ele>196</ele>
        <time>2018-04-11T09:14:31Z</time>
      </trkpt>
      <trkpt lat="45.85643" lon="4.69673">
        <ele>196</ele>
        <time>2018-04-11T09:14:32Z</time>
      </trkpt>
      <trkpt lat="45.85643" lon="4.69667">
        <ele>197</ele>
        <time>2018-04-11T09:14:33Z</time>
      </trkpt>
      <trkpt lat="45.85642" lon="4.69661">
        <ele>197</ele>
        <time>2018-04-11T09:14:34Z</time>
      </trkpt>
      <trkpt lat="45.85641" lon="4.69653">
        <ele>197</ele>
        <time>2018-04-11T09:14:35Z</time>
      </trkpt>
      <trkpt lat="45.8564" lon="4.6964">
        <ele>197</ele>
        <time>2018-04-11T09:14:37Z</time>
      </trkpt>
      <trkpt lat="45.8564" lon="4.69634">
        <ele>197</ele>
        <time>2018-04-11T09:14:38Z</time>
      </trkpt>
      <trkpt lat="45.8564" lon="4.69625">
        <ele>197</ele>
        <time>2018-04-11T09:14:39Z</time>
      </trkpt>
      <trkpt lat="45.85639" lon="4.69618">
        <ele>197</ele>
        <time>2018-04-11T09:14:40Z</time>
      </trkpt>
      <trkpt lat="45.85638" lon="4.69606">
        <ele>197</ele>
        <time>2018-04-11T09:14:42Z</time>
      </trkpt>
      <trkpt lat="45.85637" lon="4.696">
        <ele>197</ele>
        <time>2018-04-11T09:14:43Z</time>
      </trkpt>
      <trkpt lat="45.85635" lon="4.69588">
        <ele>197</ele>
        <time>2018-04-11T09:14:45Z</time>
      </trkpt>
      <trkpt lat="45.85635" lon="4.69581">
        <ele>198</ele>
        <time>2018-04-11T09:14:46Z</time>
      </trkpt>
      <trkpt lat="45.85634" lon="4.69574">
        <ele>198</ele>
        <time>2018-04-11T09:14:47Z</time>
      </trkpt>
      <trkpt lat="45.85633" lon="4.69567">
        <ele>198</ele>
        <time>2018-04-11T09:14:48Z</time>
      </trkpt>
      <trkpt lat="45.85633" lon="4.69561">
        <ele>198</ele>
        <time>2018-04-11T09:14:49Z</time>
      </trkpt>
      <trkpt lat="45.85632" lon="4.69554">
        <ele>198</ele>
        <time>2018-04-11T09:14:50Z</time>
      </trkpt>
      <trkpt lat="45.85632" lon="4.69548">
        <ele>198</ele>
        <time>2018-04-11T09:14:51Z</time>
      </trkpt>
      <trkpt lat="45.85631" lon="4.69541">
        <ele>198</ele>
        <time>2018-04-11T09:14:52Z</time>
      </trkpt>
      <trkpt lat="45.85631" lon="4.69535">
        <ele>198</ele>
        <time>2018-04-11T09:14:53Z</time>
      </trkpt>
      <trkpt lat="45.8563" lon="4.69527">
        <ele>198</ele>
        <time>2018-04-11T09:14:54Z</time>
      </trkpt>
      <trkpt lat="45.85629" lon="4.69521">
        <ele>198</ele>
        <time>2018-04-11T09:14:55Z</time>
      </trkpt>
      <trkpt lat="45.85628" lon="4.69514">
        <ele>198</ele>
        <time>2018-04-11T09:14:56Z</time>
      </trkpt>
      <trkpt lat="45.85627" lon="4.69506">
        <ele>198</ele>
        <time>2018-04-11T09:14:57Z</time>
      </trkpt>
      <trkpt lat="45.85627" lon="4.69499">
        <ele>198</ele>
        <time>2018-04-11T09:14:58Z</time>
      </trkpt>
      <trkpt lat="45.85625" lon="4.69487">
        <ele>198</ele>
        <time>2018-04-11T09:15:00Z</time>
      </trkpt>
      <trkpt lat="45.85624" lon="4.69481">
        <ele>198</ele>
        <time>2018-04-11T09:15:01Z</time>
      </trkpt>
      <trkpt lat="45.85624" lon="4.69469">
        <ele>198</ele>
        <time>2018-04-11T09:15:03Z</time>
      </trkpt>
      <trkpt lat="45.85625" lon="4.69462">
        <ele>198</ele>
        <time>2018-04-11T09:15:04Z</time>
      </trkpt>
      <trkpt lat="45.85623" lon="4.6945">
        <ele>198</ele>
        <time>2018-04-11T09:15:06Z</time>
      </trkpt>
      <trkpt lat="45.85622" lon="4.69443">
        <ele>198</ele>
        <time>2018-04-11T09:15:07Z</time>
      </trkpt>
      <trkpt lat="45.8562" lon="4.69436">
        <ele>198</ele>
        <time>2018-04-11T09:15:08Z</time>
      </trkpt>
      <trkpt lat="45.8562" lon="4.69429">
        <ele>198</ele>
        <time>2018-04-11T09:15:09Z</time>
      </trkpt>
      <trkpt lat="45.85621" lon="4.69423">
        <ele>198</ele>
        <time>2018-04-11T09:15:10Z</time>
      </trkpt>
      <trkpt lat="45.8562" lon="4.69416">
        <ele>198</ele>
        <time>2018-04-11T09:15:11Z</time>
      </trkpt>
      <trkpt lat="45.85619" lon="4.69409">
        <ele>198</ele>
        <time>2018-04-11T09:15:12Z</time>
      </trkpt>
      <trkpt lat="45.85618" lon="4.69402">
        <ele>198</ele>
        <time>2018-04-11T09:15:13Z</time>
      </trkpt>
      <trkpt lat="45.85617" lon="4.69389">
        <ele>198</ele>
        <time>2018-04-11T09:15:15Z</time>
      </trkpt>
      <trkpt lat="45.85616" lon="4.69382">
        <ele>198</ele>
        <time>2018-04-11T09:15:16Z</time>
      </trkpt>
      <trkpt lat="45.85615" lon="4.69376">
        <ele>198</ele>
        <time>2018-04-11T09:15:17Z</time>
      </trkpt>
      <trkpt lat="45.85614" lon="4.69369">
        <ele>198</ele>
        <time>2018-04-11T09:15:18Z</time>
      </trkpt>
      <trkpt lat="45.85613" lon="4.69361">
        <ele>198</ele>
        <time>2018-04-11T09:15:19Z</time>
      </trkpt>
      <trkpt lat="45.85612" lon="4.69352">
        <ele>198</ele>
        <time>2018-04-11T09:15:20Z</time>
      </trkpt>
      <trkpt lat="45.85612" lon="4.69345">
        <ele>198</ele>
        <time>2018-04-11T09:15:21Z</time>
      </trkpt>
      <trkpt lat="45.8561" lon="4.69337">
        <ele>198</ele>
        <time>2018-04-11T09:15:22Z</time>
      </trkpt>
      <trkpt lat="45.85609" lon="4.69331">
        <ele>198</ele>
        <time>2018-04-11T09:15:23Z</time>
      </trkpt>
      <trkpt lat="45.85609" lon="4.69323">
        <ele>198</ele>
        <time>2018-04-11T09:15:24Z</time>
      </trkpt>
      <trkpt lat="45.85608" lon="4.69316">
        <ele>198</ele>
        <time>2018-04-11T09:15:25Z</time>
      </trkpt>
      <trkpt lat="45.85607" lon="4.6931">
        <ele>198</ele>
        <time>2018-04-11T09:15:26Z</time>
      </trkpt>
      <trkpt lat="45.85605" lon="4.69298">
        <ele>198</ele>
        <time>2018-04-11T09:15:28Z</time>
      </trkpt>
      <trkpt lat="45.85606" lon="4.69292">
        <ele>198</ele>
        <time>2018-04-11T09:15:29Z</time>
      </trkpt>
      <trkpt lat="45.85607" lon="4.69279">
        <ele>198</ele>
        <time>2018-04-11T09:15:31Z</time>
      </trkpt>
      <trkpt lat="45.8561" lon="4.69269">
        <ele>198</ele>
        <time>2018-04-11T09:15:32Z</time>
      </trkpt>
      <trkpt lat="45.85609" lon="4.69257">
        <ele>198</ele>
        <time>2018-04-11T09:15:34Z</time>
      </trkpt>
      <trkpt lat="45.85607" lon="4.69251">
        <ele>198</ele>
        <time>2018-04-11T09:15:35Z</time>
      </trkpt>
      <trkpt lat="45.85605" lon="4.69244">
        <ele>199</ele>
        <time>2018-04-11T09:15:36Z</time>
      </trkpt>
      <trkpt lat="45.85602" lon="4.69238">
        <ele>199</ele>
        <time>2018-04-11T09:15:37Z</time>
      </trkpt>
      <trkpt lat="45.85601" lon="4.69231">
        <ele>199</ele>
        <time>2018-04-11T09:15:38Z</time>
      </trkpt>
      <trkpt lat="45.85601" lon="4.69223">
        <ele>199</ele>
        <time>2018-04-11T09:15:39Z</time>
      </trkpt>
      <trkpt lat="45.856" lon="4.69216">
        <ele>199</ele>
        <time>2018-04-11T09:15:40Z</time>
      </trkpt>
      <trkpt lat="45.856" lon="4.69207">
        <ele>199</ele>
        <time>2018-04-11T09:15:41Z</time>
      </trkpt>
      <trkpt lat="45.85599" lon="4.69199">
        <ele>199</ele>
        <time>2018-04-11T09:15:42Z</time>
      </trkpt>
      <trkpt lat="45.85599" lon="4.6919">
        <ele>199</ele>
        <time>2018-04-11T09:15:43Z</time>
      </trkpt>
      <trkpt lat="45.85598" lon="4.69184">
        <ele>199</ele>
        <time>2018-04-11T09:15:44Z</time>
      </trkpt>
      <trkpt lat="45.85598" lon="4.69177">
        <ele>199</ele>
        <time>2018-04-11T09:15:45Z</time>
      </trkpt>
      <trkpt lat="45.85598" lon="4.69171">
        <ele>199</ele>
        <time>2018-04-11T09:15:46Z</time>
      </trkpt>
      <trkpt lat="45.85597" lon="4.69163">
        <ele>199</ele>
        <time>2018-04-11T09:15:47Z</time>
      </trkpt>
      <trkpt lat="45.85596" lon="4.69156">
        <ele>199</ele>
        <time>2018-04-11T09:15:48Z</time>
      </trkpt>
      <trkpt lat="45.85595" lon="4.6915">
        <ele>199</ele>
        <time>2018-04-11T09:15:49Z</time>
      </trkpt>
      <trkpt lat="45.85594" lon="4.69142">
        <ele>199</ele>
        <time>2018-04-11T09:15:50Z</time>
      </trkpt>
      <trkpt lat="45.85594" lon="4.69137">
        <ele>199</ele>
        <time>2018-04-11T09:15:51Z</time>
      </trkpt>
      <trkpt lat="45.85592" lon="4.69124">
        <ele>198</ele>
        <time>2018-04-11T09:15:53Z</time>
      </trkpt>
      <trkpt lat="45.85592" lon="4.69117">
        <ele>199</ele>
        <time>2018-04-11T09:15:54Z</time>
      </trkpt>
      <trkpt lat="45.85592" lon="4.69109">
        <ele>199</ele>
        <time>2018-04-11T09:15:55Z</time>
      </trkpt>
      <trkpt lat="45.85592" lon="4.69103">
        <ele>199</ele>
        <time>2018-04-11T09:15:56Z</time>
      </trkpt>
      <trkpt lat="45.85591" lon="4.69097">
        <ele>199</ele>
        <time>2018-04-11T09:15:57Z</time>
      </trkpt>
      <trkpt lat="45.8559" lon="4.6909">
        <ele>199</ele>
        <time>2018-04-11T09:15:58Z</time>
      </trkpt>
      <trkpt lat="45.8559" lon="4.69082">
        <ele>199</ele>
        <time>2018-04-11T09:15:59Z</time>
      </trkpt>
      <trkpt lat="45.85588" lon="4.69076">
        <ele>199</ele>
        <time>2018-04-11T09:16:00Z</time>
      </trkpt>
      <trkpt lat="45.85587" lon="4.69069">
        <ele>199</ele>
        <time>2018-04-11T09:16:01Z</time>
      </trkpt>
      <trkpt lat="45.85586" lon="4.6906">
        <ele>199</ele>
        <time>2018-04-11T09:16:02Z</time>
      </trkpt>
      <trkpt lat="45.85585" lon="4.69052">
        <ele>199</ele>
        <time>2018-04-11T09:16:03Z</time>
      </trkpt>
      <trkpt lat="45.85585" lon="4.69045">
        <ele>199</ele>
        <time>2018-04-11T09:16:04Z</time>
      </trkpt>
      <trkpt lat="45.85583" lon="4.69036">
        <ele>199</ele>
        <time>2018-04-11T09:16:05Z</time>
      </trkpt>
      <trkpt lat="45.85583" lon="4.69028">
        <ele>200</ele>
        <time>2018-04-11T09:16:06Z</time>
      </trkpt>
      <trkpt lat="45.85582" lon="4.6902">
        <ele>200</ele>
        <time>2018-04-11T09:16:07Z</time>
      </trkpt>
      <trkpt lat="45.85581" lon="4.69013">
        <ele>200</ele>
        <time>2018-04-11T09:16:08Z</time>
      </trkpt>
      <trkpt lat="45.85581" lon="4.69005">
        <ele>200</ele>
        <time>2018-04-11T09:16:09Z</time>
      </trkpt>
      <trkpt lat="45.8558" lon="4.68998">
        <ele>200</ele>
        <time>2018-04-11T09:16:10Z</time>
      </trkpt>
      <trkpt lat="45.85579" lon="4.68991">
        <ele>200</ele>
        <time>2018-04-11T09:16:11Z</time>
      </trkpt>
      <trkpt lat="45.85579" lon="4.68983">
        <ele>200</ele>
        <time>2018-04-11T09:16:12Z</time>
      </trkpt>
      <trkpt lat="45.85578" lon="4.68975">
        <ele>200</ele>
        <time>2018-04-11T09:16:13Z</time>
      </trkpt>
      <trkpt lat="45.85577" lon="4.68967">
        <ele>200</ele>
        <time>2018-04-11T09:16:14Z</time>
      </trkpt>
      <trkpt lat="45.85577" lon="4.68959">
        <ele>200</ele>
        <time>2018-04-11T09:16:15Z</time>
      </trkpt>
      <trkpt lat="45.85577" lon="4.68951">
        <ele>200</ele>
        <time>2018-04-11T09:16:16Z</time>
      </trkpt>
      <trkpt lat="45.85576" lon="4.68944">
        <ele>200</ele>
        <time>2018-04-11T09:16:17Z</time>
      </trkpt>
      <trkpt lat="45.85575" lon="4.68936">
        <ele>200</ele>
        <time>2018-04-11T09:16:18Z</time>
      </trkpt>
      <trkpt lat="45.85574" lon="4.68927">
        <ele>200</ele>
        <time>2018-04-11T09:16:19Z</time>
      </trkpt>
      <trkpt lat="45.85573" lon="4.68918">
        <ele>200</ele>
        <time>2018-04-11T09:16:20Z</time>
      </trkpt>
      <trkpt lat="45.85573" lon="4.6891">
        <ele>200</ele>
        <time>2018-04-11T09:16:21Z</time>
      </trkpt>
      <trkpt lat="45.85572" lon="4.68902">
        <ele>200</ele>
        <time>2018-04-11T09:16:22Z</time>
      </trkpt>
      <trkpt lat="45.85572" lon="4.68894">
        <ele>200</ele>
        <time>2018-04-11T09:16:23Z</time>
      </trkpt>
      <trkpt lat="45.85571" lon="4.68887">
        <ele>200</ele>
        <time>2018-04-11T09:16:24Z</time>
      </trkpt>
      <trkpt lat="45.8557" lon="4.68879">
        <ele>200</ele>
        <time>2018-04-11T09:16:25Z</time>
      </trkpt>
      <trkpt lat="45.85569" lon="4.68872">
        <ele>200</ele>
        <time>2018-04-11T09:16:26Z</time>
      </trkpt>
      <trkpt lat="45.85568" lon="4.68864">
        <ele>200</ele>
        <time>2018-04-11T09:16:27Z</time>
      </trkpt>
      <trkpt lat="45.85567" lon="4.68857">
        <ele>200</ele>
        <time>2018-04-11T09:16:28Z</time>
      </trkpt>
      <trkpt lat="45.85566" lon="4.68851">
        <ele>200</ele>
        <time>2018-04-11T09:16:29Z</time>
      </trkpt>
      <trkpt lat="45.85566" lon="4.68844">
        <ele>200</ele>
        <time>2018-04-11T09:16:30Z</time>
      </trkpt>
      <trkpt lat="45.85565" lon="4.68837">
        <ele>200</ele>
        <time>2018-04-11T09:16:31Z</time>
      </trkpt>
      <trkpt lat="45.85565" lon="4.68829">
        <ele>200</ele>
        <time>2018-04-11T09:16:32Z</time>
      </trkpt>
      <trkpt lat="45.85565" lon="4.68821">
        <ele>200</ele>
        <time>2018-04-11T09:16:33Z</time>
      </trkpt>
      <trkpt lat="45.85564" lon="4.68815">
        <ele>200</ele>
        <time>2018-04-11T09:16:34Z</time>
      </trkpt>
      <trkpt lat="45.85564" lon="4.68803">
        <ele>200</ele>
        <time>2018-04-11T09:16:38Z</time>
      </trkpt>
      <trkpt lat="45.85564" lon="4.68801">
        <ele>200</ele>
        <time>2018-04-11T09:16:39Z</time>
      </trkpt>
      <trkpt lat="45.85563" lon="4.68788">
        <ele>200</ele>
        <time>2018-04-11T09:16:51Z</time>
      </trkpt>
      <trkpt lat="45.85562" lon="4.68786">
        <ele>200</ele>
        <time>2018-04-11T09:16:52Z</time>
      </trkpt>
      <trkpt lat="45.85562" lon="4.68779">
        <ele>200</ele>
        <time>2018-04-11T09:16:54Z</time>
      </trkpt>
      <trkpt lat="45.85561" lon="4.68767">
        <ele>200</ele>
        <time>2018-04-11T09:16:55Z</time>
      </trkpt>
      <trkpt lat="45.8556" lon="4.68756">
        <ele>200</ele>
        <time>2018-04-11T09:16:57Z</time>
      </trkpt>
      <trkpt lat="45.8556" lon="4.6875">
        <ele>200</ele>
        <time>2018-04-11T09:16:58Z</time>
      </trkpt>
      <trkpt lat="45.85558" lon="4.68738">
        <ele>200</ele>
        <time>2018-04-11T09:17:00Z</time>
      </trkpt>
      <trkpt lat="45.85557" lon="4.68731">
        <ele>200</ele>
        <time>2018-04-11T09:17:01Z</time>
      </trkpt>
      <trkpt lat="45.85557" lon="4.68723">
        <ele>200</ele>
        <time>2018-04-11T09:17:02Z</time>
      </trkpt>
      <trkpt lat="45.85555" lon="4.68717">
        <ele>200</ele>
        <time>2018-04-11T09:17:03Z</time>
      </trkpt>
      <trkpt lat="45.85554" lon="4.68711">
        <ele>200</ele>
        <time>2018-04-11T09:17:04Z</time>
      </trkpt>
      <trkpt lat="45.85554" lon="4.68702">
        <ele>200</ele>
        <time>2018-04-11T09:17:05Z</time>
      </trkpt>
      <trkpt lat="45.85553" lon="4.68695">
        <ele>200</ele>
        <time>2018-04-11T09:17:06Z</time>
      </trkpt>
      <trkpt lat="45.85552" lon="4.68688">
        <ele>200</ele>
        <time>2018-04-11T09:17:07Z</time>
      </trkpt>
      <trkpt lat="45.85551" lon="4.68679">
        <ele>200</ele>
        <time>2018-04-11T09:17:08Z</time>
      </trkpt>
      <trkpt lat="45.8555" lon="4.68671">
        <ele>200</ele>
        <time>2018-04-11T09:17:09Z</time>
      </trkpt>
      <trkpt lat="45.85549" lon="4.68663">
        <ele>200</ele>
        <time>2018-04-11T09:17:10Z</time>
      </trkpt>
      <trkpt lat="45.85548" lon="4.68656">
        <ele>201</ele>
        <time>2018-04-11T09:17:11Z</time>
      </trkpt>
      <trkpt lat="45.85546" lon="4.68649">
        <ele>201</ele>
        <time>2018-04-11T09:17:12Z</time>
      </trkpt>
      <trkpt lat="45.85545" lon="4.68642">
        <ele>201</ele>
        <time>2018-04-11T09:17:13Z</time>
      </trkpt>
      <trkpt lat="45.85544" lon="4.68635">
        <ele>201</ele>
        <time>2018-04-11T09:17:14Z</time>
      </trkpt>
      <trkpt lat="45.85545" lon="4.68627">
        <ele>201</ele>
        <time>2018-04-11T09:17:15Z</time>
      </trkpt>
      <trkpt lat="45.85545" lon="4.68615">
        <ele>201</ele>
        <time>2018-04-11T09:17:17Z</time>
      </trkpt>
      <trkpt lat="45.85544" lon="4.68609">
        <ele>201</ele>
        <time>2018-04-11T09:17:18Z</time>
      </trkpt>
      <trkpt lat="45.85543" lon="4.68602">
        <ele>201</ele>
        <time>2018-04-11T09:17:19Z</time>
      </trkpt>
      <trkpt lat="45.85542" lon="4.68594">
        <ele>201</ele>
        <time>2018-04-11T09:17:20Z</time>
      </trkpt>
      <trkpt lat="45.85541" lon="4.68586">
        <ele>201</ele>
        <time>2018-04-11T09:17:21Z</time>
      </trkpt>
      <trkpt lat="45.8554" lon="4.68578">
        <ele>201</ele>
        <time>2018-04-11T09:17:22Z</time>
      </trkpt>
      <trkpt lat="45.8554" lon="4.6857">
        <ele>201</ele>
        <time>2018-04-11T09:17:23Z</time>
      </trkpt>
      <trkpt lat="45.8554" lon="4.68561">
        <ele>201</ele>
        <time>2018-04-11T09:17:24Z</time>
      </trkpt>
      <trkpt lat="45.8554" lon="4.68552">
        <ele>201</ele>
        <time>2018-04-11T09:17:25Z</time>
      </trkpt>
      <trkpt lat="45.8554" lon="4.68544">
        <ele>201</ele>
        <time>2018-04-11T09:17:26Z</time>
      </trkpt>
      <trkpt lat="45.8554" lon="4.68536">
        <ele>201</ele>
        <time>2018-04-11T09:17:27Z</time>
      </trkpt>
      <trkpt lat="45.85539" lon="4.68529">
        <ele>201</ele>
        <time>2018-04-11T09:17:28Z</time>
      </trkpt>
      <trkpt lat="45.85539" lon="4.68522">
        <ele>201</ele>
        <time>2018-04-11T09:17:29Z</time>
      </trkpt>
      <trkpt lat="45.85538" lon="4.68515">
        <ele>201</ele>
        <time>2018-04-11T09:17:30Z</time>
      </trkpt>
      <trkpt lat="45.85536" lon="4.68507">
        <ele>201</ele>
        <time>2018-04-11T09:17:31Z</time>
      </trkpt>
      <trkpt lat="45.85536" lon="4.68499">
        <ele>200</ele>
        <time>2018-04-11T09:17:32Z</time>
      </trkpt>
      <trkpt lat="45.85535" lon="4.68492">
        <ele>200</ele>
        <time>2018-04-11T09:17:33Z</time>
      </trkpt>
      <trkpt lat="45.85534" lon="4.68485">
        <ele>200</ele>
        <time>2018-04-11T09:17:34Z</time>
      </trkpt>
      <trkpt lat="45.85532" lon="4.68473">
        <ele>200</ele>
        <time>2018-04-11T09:17:36Z</time>
      </trkpt>
      <trkpt lat="45.85533" lon="4.68465">
        <ele>200</ele>
        <time>2018-04-11T09:17:37Z</time>
      </trkpt>
      <trkpt lat="45.85531" lon="4.68453">
        <ele>200</ele>
        <time>2018-04-11T09:17:39Z</time>
      </trkpt>
      <trkpt lat="45.8553" lon="4.68445">
        <ele>200</ele>
        <time>2018-04-11T09:17:40Z</time>
      </trkpt>
      <trkpt lat="45.8553" lon="4.68437">
        <ele>200</ele>
        <time>2018-04-11T09:17:41Z</time>
      </trkpt>
      <trkpt lat="45.85529" lon="4.6843">
        <ele>200</ele>
        <time>2018-04-11T09:17:42Z</time>
      </trkpt>
      <trkpt lat="45.85529" lon="4.68421">
        <ele>200</ele>
        <time>2018-04-11T09:17:43Z</time>
      </trkpt>
      <trkpt lat="45.85528" lon="4.68413">
        <ele>200</ele>
        <time>2018-04-11T09:17:44Z</time>
      </trkpt>
      <trkpt lat="45.85527" lon="4.68406">
        <ele>200</ele>
        <time>2018-04-11T09:17:45Z</time>
      </trkpt>
      <trkpt lat="45.85525" lon="4.68398">
        <ele>200</ele>
        <time>2018-04-11T09:17:46Z</time>
      </trkpt>
      <trkpt lat="45.85524" lon="4.6839">
        <ele>200</ele>
        <time>2018-04-11T09:17:47Z</time>
      </trkpt>
      <trkpt lat="45.85524" lon="4.68383">
        <ele>200</ele>
        <time>2018-04-11T09:17:48Z</time>
      </trkpt>
      <trkpt lat="45.85523" lon="4.68375">
        <ele>201</ele>
        <time>2018-04-11T09:17:49Z</time>
      </trkpt>
      <trkpt lat="45.85523" lon="4.68368">
        <ele>201</ele>
        <time>2018-04-11T09:17:50Z</time>
      </trkpt>
      <trkpt lat="45.85522" lon="4.68361">
        <ele>201</ele>
        <time>2018-04-11T09:17:51Z</time>
      </trkpt>
      <trkpt lat="45.85521" lon="4.68354">
        <ele>201</ele>
        <time>2018-04-11T09:17:52Z</time>
      </trkpt>
      <trkpt lat="45.85521" lon="4.68348">
        <ele>201</ele>
        <time>2018-04-11T09:17:53Z</time>
      </trkpt>
      <trkpt lat="45.8552" lon="4.6834">
        <ele>201</ele>
        <time>2018-04-11T09:17:54Z</time>
      </trkpt>
      <trkpt lat="45.85519" lon="4.68334">
        <ele>201</ele>
        <time>2018-04-11T09:17:55Z</time>
      </trkpt>
      <trkpt lat="45.85519" lon="4.68326">
        <ele>202</ele>
        <time>2018-04-11T09:17:56Z</time>
      </trkpt>
      <trkpt lat="45.85518" lon="4.68319">
        <ele>202</ele>
        <time>2018-04-11T09:17:57Z</time>
      </trkpt>
      <trkpt lat="45.85517" lon="4.68312">
        <ele>202</ele>
        <time>2018-04-11T09:17:58Z</time>
      </trkpt>
      <trkpt lat="45.85516" lon="4.68306">
        <ele>202</ele>
        <time>2018-04-11T09:17:59Z</time>
      </trkpt>
      <trkpt lat="45.85516" lon="4.68298">
        <ele>202</ele>
        <time>2018-04-11T09:18:00Z</time>
      </trkpt>
      <trkpt lat="45.85515" lon="4.68291">
        <ele>202</ele>
        <time>2018-04-11T09:18:01Z</time>
      </trkpt>
      <trkpt lat="45.85514" lon="4.68283">
        <ele>202</ele>
        <time>2018-04-11T09:18:02Z</time>
      </trkpt>
      <trkpt lat="45.85513" lon="4.68276">
        <ele>202</ele>
        <time>2018-04-11T09:18:03Z</time>
      </trkpt>
      <trkpt lat="45.85512" lon="4.68269">
        <ele>202</ele>
        <time>2018-04-11T09:18:04Z</time>
      </trkpt>
      <trkpt lat="45.85512" lon="4.68262">
        <ele>203</ele>
        <time>2018-04-11T09:18:05Z</time>
      </trkpt>
      <trkpt lat="45.85511" lon="4.68256">
        <ele>203</ele>
        <time>2018-04-11T09:18:06Z</time>
      </trkpt>
      <trkpt lat="45.8551" lon="4.68249">
        <ele>203</ele>
        <time>2018-04-11T09:18:07Z</time>
      </trkpt>
      <trkpt lat="45.85512" lon="4.68241">
        <ele>203</ele>
        <time>2018-04-11T09:18:08Z</time>
      </trkpt>
      <trkpt lat="45.85512" lon="4.68233">
        <ele>203</ele>
        <time>2018-04-11T09:18:09Z</time>
      </trkpt>
      <trkpt lat="45.85511" lon="4.68224">
        <ele>203</ele>
        <time>2018-04-11T09:18:10Z</time>
      </trkpt>
      <trkpt lat="45.85511" lon="4.68217">
        <ele>203</ele>
        <time>2018-04-11T09:18:11Z</time>
      </trkpt>
      <trkpt lat="45.8551" lon="4.6821">
        <ele>203</ele>
        <time>2018-04-11T09:18:12Z</time>
      </trkpt>
      <trkpt lat="45.85509" lon="4.68202">
        <ele>203</ele>
        <time>2018-04-11T09:18:13Z</time>
      </trkpt>
      <trkpt lat="45.85508" lon="4.68195">
        <ele>203</ele>
        <time>2018-04-11T09:18:14Z</time>
      </trkpt>
      <trkpt lat="45.85508" lon="4.68188">
        <ele>203</ele>
        <time>2018-04-11T09:18:15Z</time>
      </trkpt>
      <trkpt lat="45.85507" lon="4.68181">
        <ele>204</ele>
        <time>2018-04-11T09:18:16Z</time>
      </trkpt>
      <trkpt lat="45.85505" lon="4.68174">
        <ele>204</ele>
        <time>2018-04-11T09:18:17Z</time>
      </trkpt>
      <trkpt lat="45.85504" lon="4.68167">
        <ele>204</ele>
        <time>2018-04-11T09:18:18Z</time>
      </trkpt>
      <trkpt lat="45.85505" lon="4.6816">
        <ele>204</ele>
        <time>2018-04-11T09:18:19Z</time>
      </trkpt>
      <trkpt lat="45.85505" lon="4.68152">
        <ele>203</ele>
        <time>2018-04-11T09:18:20Z</time>
      </trkpt>
      <trkpt lat="45.85504" lon="4.68146">
        <ele>203</ele>
        <time>2018-04-11T09:18:21Z</time>
      </trkpt>
      <trkpt lat="45.85503" lon="4.68139">
        <ele>203</ele>
        <time>2018-04-11T09:18:22Z</time>
      </trkpt>
      <trkpt lat="45.85501" lon="4.68132">
        <ele>203</ele>
        <time>2018-04-11T09:18:23Z</time>
      </trkpt>
      <trkpt lat="45.85501" lon="4.68126">
        <ele>203</ele>
        <time>2018-04-11T09:18:24Z</time>
      </trkpt>
      <trkpt lat="45.85498" lon="4.68119">
        <ele>204</ele>
        <time>2018-04-11T09:18:25Z</time>
      </trkpt>
      <trkpt lat="45.85498" lon="4.68113">
        <ele>204</ele>
        <time>2018-04-11T09:18:26Z</time>
      </trkpt>
      <trkpt lat="45.85496" lon="4.68106">
        <ele>204</ele>
        <time>2018-04-11T09:18:27Z</time>
      </trkpt>
      <trkpt lat="45.85496" lon="4.68099">
        <ele>204</ele>
        <time>2018-04-11T09:18:28Z</time>
      </trkpt>
      <trkpt lat="45.85495" lon="4.68091">
        <ele>204</ele>
        <time>2018-04-11T09:18:29Z</time>
      </trkpt>
      <trkpt lat="45.85495" lon="4.68085">
        <ele>204</ele>
        <time>2018-04-11T09:18:30Z</time>
      </trkpt>
      <trkpt lat="45.85494" lon="4.68073">
        <ele>205</ele>
        <time>2018-04-11T09:18:34Z</time>
      </trkpt>
      <trkpt lat="45.85493" lon="4.6807">
        <ele>205</ele>
        <time>2018-04-11T09:18:35Z</time>
      </trkpt>
      <trkpt lat="45.85492" lon="4.6806">
        <ele>206</ele>
        <time>2018-04-11T09:18:39Z</time>
      </trkpt>
      <trkpt lat="45.85491" lon="4.68058">
        <ele>206</ele>
        <time>2018-04-11T09:18:40Z</time>
      </trkpt>
      <trkpt lat="45.8549" lon="4.68046">
        <ele>206</ele>
        <time>2018-04-11T09:18:43Z</time>
      </trkpt>
      <trkpt lat="45.85489" lon="4.68042">
        <ele>207</ele>
        <time>2018-04-11T09:18:44Z</time>
      </trkpt>
      <trkpt lat="45.85489" lon="4.68037">
        <ele>207</ele>
        <time>2018-04-11T09:18:45Z</time>
      </trkpt>
      <trkpt lat="45.85488" lon="4.68022">
        <ele>207</ele>
        <time>2018-04-11T09:18:46Z</time>
      </trkpt>
      <trkpt lat="45.8549" lon="4.68011">
        <ele>207</ele>
        <time>2018-04-11T09:18:48Z</time>
      </trkpt>
      <trkpt lat="45.85492" lon="4.68006">
        <ele>206</ele>
        <time>2018-04-11T09:18:49Z</time>
      </trkpt>
      <trkpt lat="45.85497" lon="4.68001">
        <ele>206</ele>
        <time>2018-04-11T09:18:50Z</time>
      </trkpt>
      <trkpt lat="45.85498" lon="4.67996">
        <ele>207</ele>
        <time>2018-04-11T09:18:51Z</time>
      </trkpt>
      <trkpt lat="45.85502" lon="4.6799">
        <ele>206</ele>
        <time>2018-04-11T09:18:52Z</time>
      </trkpt>
      <trkpt lat="45.85506" lon="4.67986">
        <ele>206</ele>
        <time>2018-04-11T09:18:53Z</time>
      </trkpt>
      <trkpt lat="45.8551" lon="4.67981">
        <ele>206</ele>
        <time>2018-04-11T09:18:54Z</time>
      </trkpt>
      <trkpt lat="45.85515" lon="4.67977">
        <ele>206</ele>
        <time>2018-04-11T09:18:55Z</time>
      </trkpt>
      <trkpt lat="45.8552" lon="4.67973">
        <ele>206</ele>
        <time>2018-04-11T09:18:56Z</time>
      </trkpt>
      <trkpt lat="45.85525" lon="4.67968">
        <ele>206</ele>
        <time>2018-04-11T09:18:57Z</time>
      </trkpt>
      <trkpt lat="45.8553" lon="4.67964">
        <ele>206</ele>
        <time>2018-04-11T09:18:58Z</time>
      </trkpt>
      <trkpt lat="45.85535" lon="4.67959">
        <ele>205</ele>
        <time>2018-04-11T09:18:59Z</time>
      </trkpt>
      <trkpt lat="45.85539" lon="4.67954">
        <ele>205</ele>
        <time>2018-04-11T09:19:00Z</time>
      </trkpt>
      <trkpt lat="45.85544" lon="4.67951">
        <ele>205</ele>
        <time>2018-04-11T09:19:01Z</time>
      </trkpt>
      <trkpt lat="45.85548" lon="4.67947">
        <ele>205</ele>
        <time>2018-04-11T09:19:02Z</time>
      </trkpt>
      <trkpt lat="45.85553" lon="4.67944">
        <ele>205</ele>
        <time>2018-04-11T09:19:03Z</time>
      </trkpt>
      <trkpt lat="45.85558" lon="4.67941">
        <ele>205</ele>
        <time>2018-04-11T09:19:04Z</time>
      </trkpt>
      <trkpt lat="45.85562" lon="4.67938">
        <ele>205</ele>
        <time>2018-04-11T09:19:05Z</time>
      </trkpt>
      <trkpt lat="45.85566" lon="4.67933">
        <ele>205</ele>
        <time>2018-04-11T09:19:06Z</time>
      </trkpt>
      <trkpt lat="45.85569" lon="4.67925">
        <ele>205</ele>
        <time>2018-04-11T09:19:07Z</time>
      </trkpt>
      <trkpt lat="45.85569" lon="4.67917">
        <ele>205</ele>
        <time>2018-04-11T09:19:08Z</time>
      </trkpt>
      <trkpt lat="45.85568" lon="4.67911">
        <ele>206</ele>
        <time>2018-04-11T09:19:09Z</time>
      </trkpt>
      <trkpt lat="45.85567" lon="4.67904">
        <ele>206</ele>
        <time>2018-04-11T09:19:10Z</time>
      </trkpt>
      <trkpt lat="45.85567" lon="4.67896">
        <ele>206</ele>
        <time>2018-04-11T09:19:11Z</time>
      </trkpt>
      <trkpt lat="45.85567" lon="4.67889">
        <ele>206</ele>
        <time>2018-04-11T09:19:12Z</time>
      </trkpt>
      <trkpt lat="45.85567" lon="4.67881">
        <ele>207</ele>
        <time>2018-04-11T09:19:13Z</time>
      </trkpt>
      <trkpt lat="45.85565" lon="4.6787">
        <ele>207</ele>
        <time>2018-04-11T09:19:16Z</time>
      </trkpt>
      <trkpt lat="45.85564" lon="4.67867">
        <ele>207</ele>
        <time>2018-04-11T09:19:17Z</time>
      </trkpt>
      <trkpt lat="45.85565" lon="4.67863">
        <ele>207</ele>
        <time>2018-04-11T09:19:18Z</time>
      </trkpt>
      <trkpt lat="45.8557" lon="4.67845">
        <ele>206</ele>
        <time>2018-04-11T09:19:19Z</time>
      </trkpt>
      <trkpt lat="45.85571" lon="4.67839">
        <ele>206</ele>
        <time>2018-04-11T09:19:20Z</time>
      </trkpt>
      <trkpt lat="45.85572" lon="4.67831">
        <ele>206</ele>
        <time>2018-04-11T09:19:21Z</time>
      </trkpt>
      <trkpt lat="45.85574" lon="4.67822">
        <ele>206</ele>
        <time>2018-04-11T09:19:22Z</time>
      </trkpt>
      <trkpt lat="45.85576" lon="4.67815">
        <ele>206</ele>
        <time>2018-04-11T09:19:23Z</time>
      </trkpt>
      <trkpt lat="45.85576" lon="4.67807">
        <ele>206</ele>
        <time>2018-04-11T09:19:24Z</time>
      </trkpt>
      <trkpt lat="45.85578" lon="4.678">
        <ele>206</ele>
        <time>2018-04-11T09:19:25Z</time>
      </trkpt>
      <trkpt lat="45.85578" lon="4.67797">
        <ele>206</ele>
        <time>2018-04-11T09:19:26Z</time>
      </trkpt>
      <trkpt lat="45.85582" lon="4.67787">
        <ele>206</ele>
        <time>2018-04-11T09:19:27Z</time>
      </trkpt>
      <trkpt lat="45.85584" lon="4.6778">
        <ele>209</ele>
        <time>2018-04-11T09:19:28Z</time>
      </trkpt>
      <trkpt lat="45.85588" lon="4.67772">
        <ele>208</ele>
        <time>2018-04-11T09:19:29Z</time>
      </trkpt>
      <trkpt lat="45.85591" lon="4.67766">
        <ele>208</ele>
        <time>2018-04-11T09:19:30Z</time>
      </trkpt>
      <trkpt lat="45.85595" lon="4.67759">
        <ele>207</ele>
        <time>2018-04-11T09:19:31Z</time>
      </trkpt>
      <trkpt lat="45.85598" lon="4.67754">
        <ele>208</ele>
        <time>2018-04-11T09:19:32Z</time>
      </trkpt>
      <trkpt lat="45.85602" lon="4.67748">
        <ele>207</ele>
        <time>2018-04-11T09:19:33Z</time>
      </trkpt>
      <trkpt lat="45.85606" lon="4.67743">
        <ele>207</ele>
        <time>2018-04-11T09:19:34Z</time>
      </trkpt>
      <trkpt lat="45.8561" lon="4.67738">
        <ele>208</ele>
        <time>2018-04-11T09:19:35Z</time>
      </trkpt>
      <trkpt lat="45.85613" lon="4.67732">
        <ele>208</ele>
        <time>2018-04-11T09:19:36Z</time>
      </trkpt>
      <trkpt lat="45.85617" lon="4.67727">
        <ele>209</ele>
        <time>2018-04-11T09:19:37Z</time>
      </trkpt>
      <trkpt lat="45.85623" lon="4.6772">
        <ele>209</ele>
        <time>2018-04-11T09:19:38Z</time>
      </trkpt>
      <trkpt lat="45.85627" lon="4.67715">
        <ele>209</ele>
        <time>2018-04-11T09:19:39Z</time>
      </trkpt>
      <trkpt lat="45.85632" lon="4.6771">
        <ele>210</ele>
        <time>2018-04-11T09:19:40Z</time>
      </trkpt>
      <trkpt lat="45.85638" lon="4.67705">
        <ele>210</ele>
        <time>2018-04-11T09:19:41Z</time>
      </trkpt>
      <trkpt lat="45.85642" lon="4.67701">
        <ele>210</ele>
        <time>2018-04-11T09:19:42Z</time>
      </trkpt>
      <trkpt lat="45.85647" lon="4.67696">
        <ele>210</ele>
        <time>2018-04-11T09:19:43Z</time>
      </trkpt>
      <trkpt lat="45.85652" lon="4.67693">
        <ele>210</ele>
        <time>2018-04-11T09:19:44Z</time>
      </trkpt>
      <trkpt lat="45.85657" lon="4.67689">
        <ele>210</ele>
        <time>2018-04-11T09:19:45Z</time>
      </trkpt>
      <trkpt lat="45.85663" lon="4.67683">
        <ele>209</ele>
        <time>2018-04-11T09:19:46Z</time>
      </trkpt>
      <trkpt lat="45.85669" lon="4.67679">
        <ele>214</ele>
        <time>2018-04-11T09:19:47Z</time>
      </trkpt>
      <trkpt lat="45.85673" lon="4.67676">
        <ele>214</ele>
        <time>2018-04-11T09:19:48Z</time>
      </trkpt>
      <trkpt lat="45.85679" lon="4.67672">
        <ele>215</ele>
        <time>2018-04-11T09:19:49Z</time>
      </trkpt>
      <trkpt lat="45.85683" lon="4.67668">
        <ele>216</ele>
        <time>2018-04-11T09:19:50Z</time>
      </trkpt>
      <trkpt lat="45.85688" lon="4.67664">
        <ele>210</ele>
        <time>2018-04-11T09:19:51Z</time>
      </trkpt>
      <trkpt lat="45.85693" lon="4.67661">
        <ele>211</ele>
        <time>2018-04-11T09:19:52Z</time>
      </trkpt>
      <trkpt lat="45.85699" lon="4.67659">
        <ele>211</ele>
        <time>2018-04-11T09:19:53Z</time>
      </trkpt>
      <trkpt lat="45.85703" lon="4.67655">
        <ele>212</ele>
        <time>2018-04-11T09:19:54Z</time>
      </trkpt>
      <trkpt lat="45.85707" lon="4.67653">
        <ele>212</ele>
        <time>2018-04-11T09:19:55Z</time>
      </trkpt>
      <trkpt lat="45.85713" lon="4.67649">
        <ele>212</ele>
        <time>2018-04-11T09:19:56Z</time>
      </trkpt>
      <trkpt lat="45.85717" lon="4.67646">
        <ele>212</ele>
        <time>2018-04-11T09:19:57Z</time>
      </trkpt>
      <trkpt lat="45.85721" lon="4.67643">
        <ele>213</ele>
        <time>2018-04-11T09:19:58Z</time>
      </trkpt>
      <trkpt lat="45.85727" lon="4.67637">
        <ele>212</ele>
        <time>2018-04-11T09:19:59Z</time>
      </trkpt>
      <trkpt lat="45.85731" lon="4.67633">
        <ele>212</ele>
        <time>2018-04-11T09:20:00Z</time>
      </trkpt>
      <trkpt lat="45.85736" lon="4.67629">
        <ele>212</ele>
        <time>2018-04-11T09:20:01Z</time>
      </trkpt>
      <trkpt lat="45.85742" lon="4.67624">
        <ele>212</ele>
        <time>2018-04-11T09:20:02Z</time>
      </trkpt>
      <trkpt lat="45.85746" lon="4.67621">
        <ele>211</ele>
        <time>2018-04-11T09:20:03Z</time>
      </trkpt>
      <trkpt lat="45.85752" lon="4.67618">
        <ele>218</ele>
        <time>2018-04-11T09:20:04Z</time>
      </trkpt>
      <trkpt lat="45.85756" lon="4.67616">
        <ele>218</ele>
        <time>2018-04-11T09:20:05Z</time>
      </trkpt>
      <trkpt lat="45.85761" lon="4.67613">
        <ele>218</ele>
        <time>2018-04-11T09:20:06Z</time>
      </trkpt>
      <trkpt lat="45.85767" lon="4.67609">
        <ele>218</ele>
        <time>2018-04-11T09:20:07Z</time>
      </trkpt>
      <trkpt lat="45.85771" lon="4.67603">
        <ele>217</ele>
        <time>2018-04-11T09:20:08Z</time>
      </trkpt>
      <trkpt lat="45.85776" lon="4.67598">
        <ele>218</ele>
        <time>2018-04-11T09:20:09Z</time>
      </trkpt>
      <trkpt lat="45.85781" lon="4.67594">
        <ele>218</ele>
        <time>2018-04-11T09:20:10Z</time>
      </trkpt>
      <trkpt lat="45.85786" lon="4.67589">
        <ele>219</ele>
        <time>2018-04-11T09:20:11Z</time>
      </trkpt>
      <trkpt lat="45.85791" lon="4.67583">
        <ele>211</ele>
        <time>2018-04-11T09:20:12Z</time>
      </trkpt>
      <trkpt lat="45.85795" lon="4.67579">
        <ele>211</ele>
        <time>2018-04-11T09:20:13Z</time>
      </trkpt>
      <trkpt lat="45.85799" lon="4.67574">
        <ele>212</ele>
        <time>2018-04-11T09:20:15Z</time>
      </trkpt>
      <trkpt lat="45.85804" lon="4.67571">
        <ele>212</ele>
        <time>2018-04-11T09:20:16Z</time>
      </trkpt>
      <trkpt lat="45.85811" lon="4.67565">
        <ele>213</ele>
        <time>2018-04-11T09:20:18Z</time>
      </trkpt>
      <trkpt lat="45.85816" lon="4.67554">
        <ele>212</ele>
        <time>2018-04-11T09:20:19Z</time>
      </trkpt>
      <trkpt lat="45.8582" lon="4.67549">
        <ele>212</ele>
        <time>2018-04-11T09:20:20Z</time>
      </trkpt>
      <trkpt lat="45.85823" lon="4.67541">
        <ele>211</ele>
        <time>2018-04-11T09:20:21Z</time>
      </trkpt>
      <trkpt lat="45.85824" lon="4.67539">
        <ele>211</ele>
        <time>2018-04-11T09:20:22Z</time>
      </trkpt>
      <trkpt lat="45.85827" lon="4.67527">
        <ele>209</ele>
        <time>2018-04-11T09:20:23Z</time>
      </trkpt>
      <trkpt lat="45.85829" lon="4.67521">
        <ele>209</ele>
        <time>2018-04-11T09:20:24Z</time>
      </trkpt>
      <trkpt lat="45.85834" lon="4.67514">
        <ele>215</ele>
        <time>2018-04-11T09:20:25Z</time>
      </trkpt>
      <trkpt lat="45.85836" lon="4.67509">
        <ele>212</ele>
        <time>2018-04-11T09:20:26Z</time>
      </trkpt>
      <trkpt lat="45.8584" lon="4.67502">
        <ele>211</ele>
        <time>2018-04-11T09:20:27Z</time>
      </trkpt>
      <trkpt lat="45.85843" lon="4.67495">
        <ele>209</ele>
        <time>2018-04-11T09:20:28Z</time>
      </trkpt>
      <trkpt lat="45.85846" lon="4.67485">
        <ele>211</ele>
        <time>2018-04-11T09:20:29Z</time>
      </trkpt>
      <trkpt lat="45.85849" lon="4.67475">
        <ele>212</ele>
        <time>2018-04-11T09:20:30Z</time>
      </trkpt>
      <trkpt lat="45.85851" lon="4.67468">
        <ele>212</ele>
        <time>2018-04-11T09:20:31Z</time>
      </trkpt>
      <trkpt lat="45.85853" lon="4.67461">
        <ele>213</ele>
        <time>2018-04-11T09:20:32Z</time>
      </trkpt>
      <trkpt lat="45.85855" lon="4.67454">
        <ele>212</ele>
        <time>2018-04-11T09:20:33Z</time>
      </trkpt>
      <trkpt lat="45.85856" lon="4.67445">
        <ele>212</ele>
        <time>2018-04-11T09:20:34Z</time>
      </trkpt>
      <trkpt lat="45.85858" lon="4.67437">
        <ele>212</ele>
        <time>2018-04-11T09:20:35Z</time>
      </trkpt>
      <trkpt lat="45.85858" lon="4.67429">
        <ele>211</ele>
        <time>2018-04-11T09:20:36Z</time>
      </trkpt>
      <trkpt lat="45.85859" lon="4.67421">
        <ele>211</ele>
        <time>2018-04-11T09:20:37Z</time>
      </trkpt>
      <trkpt lat="45.8586" lon="4.67413">
        <ele>208</ele>
        <time>2018-04-11T09:20:38Z</time>
      </trkpt>
      <trkpt lat="45.85861" lon="4.67404">
        <ele>208</ele>
        <time>2018-04-11T09:20:39Z</time>
      </trkpt>
      <trkpt lat="45.85862" lon="4.67396">
        <ele>208</ele>
        <time>2018-04-11T09:20:40Z</time>
      </trkpt>
      <trkpt lat="45.85862" lon="4.67388">
        <ele>208</ele>
        <time>2018-04-11T09:20:41Z</time>
      </trkpt>
      <trkpt lat="45.85864" lon="4.67379">
        <ele>208</ele>
        <time>2018-04-11T09:20:42Z</time>
      </trkpt>
      <trkpt lat="45.85865" lon="4.6737">
        <ele>208</ele>
        <time>2018-04-11T09:20:43Z</time>
      </trkpt>
      <trkpt lat="45.85866" lon="4.67362">
        <ele>208</ele>
        <time>2018-04-11T09:20:44Z</time>
      </trkpt>
      <trkpt lat="45.85867" lon="4.67355">
        <ele>208</ele>
        <time>2018-04-11T09:20:45Z</time>
      </trkpt>
      <trkpt lat="45.85868" lon="4.67348">
        <ele>208</ele>
        <time>2018-04-11T09:20:46Z</time>
      </trkpt>
      <trkpt lat="45.85867" lon="4.67341">
        <ele>208</ele>
        <time>2018-04-11T09:20:47Z</time>
      </trkpt>
      <trkpt lat="45.85869" lon="4.67332">
        <ele>205</ele>
        <time>2018-04-11T09:20:48Z</time>
      </trkpt>
      <trkpt lat="45.85871" lon="4.67325">
        <ele>205</ele>
        <time>2018-04-11T09:20:49Z</time>
      </trkpt>
      <trkpt lat="45.85872" lon="4.67317">
        <ele>205</ele>
        <time>2018-04-11T09:20:50Z</time>
      </trkpt>
      <trkpt lat="45.85873" lon="4.67309">
        <ele>205</ele>
        <time>2018-04-11T09:20:51Z</time>
      </trkpt>
      <trkpt lat="45.85873" lon="4.67301">
        <ele>205</ele>
        <time>2018-04-11T09:20:52Z</time>
      </trkpt>
      <trkpt lat="45.85874" lon="4.67293">
        <ele>205</ele>
        <time>2018-04-11T09:20:53Z</time>
      </trkpt>
      <trkpt lat="45.85874" lon="4.67284">
        <ele>205</ele>
        <time>2018-04-11T09:20:54Z</time>
      </trkpt>
      <trkpt lat="45.85875" lon="4.67277">
        <ele>205</ele>
        <time>2018-04-11T09:20:55Z</time>
      </trkpt>
      <trkpt lat="45.85876" lon="4.67269">
        <ele>205</ele>
        <time>2018-04-11T09:20:56Z</time>
      </trkpt>
      <trkpt lat="45.85877" lon="4.6726">
        <ele>205</ele>
        <time>2018-04-11T09:20:57Z</time>
      </trkpt>
      <trkpt lat="45.85877" lon="4.67251">
        <ele>205</ele>
        <time>2018-04-11T09:20:58Z</time>
      </trkpt>
      <trkpt lat="45.85878" lon="4.67243">
        <ele>204</ele>
        <time>2018-04-11T09:20:59Z</time>
      </trkpt>
      <trkpt lat="45.85879" lon="4.67233">
        <ele>204</ele>
        <time>2018-04-11T09:21:00Z</time>
      </trkpt>
      <trkpt lat="45.8588" lon="4.67226">
        <ele>204</ele>
        <time>2018-04-11T09:21:01Z</time>
      </trkpt>
      <trkpt lat="45.85881" lon="4.67218">
        <ele>204</ele>
        <time>2018-04-11T09:21:02Z</time>
      </trkpt>
      <trkpt lat="45.85881" lon="4.67211">
        <ele>204</ele>
        <time>2018-04-11T09:21:03Z</time>
      </trkpt>
      <trkpt lat="45.85883" lon="4.67204">
        <ele>204</ele>
        <time>2018-04-11T09:21:04Z</time>
      </trkpt>
      <trkpt lat="45.85884" lon="4.67197">
        <ele>204</ele>
        <time>2018-04-11T09:21:05Z</time>
      </trkpt>
      <trkpt lat="45.85885" lon="4.6719">
        <ele>204</ele>
        <time>2018-04-11T09:21:06Z</time>
      </trkpt>
      <trkpt lat="45.85885" lon="4.67182">
        <ele>204</ele>
        <time>2018-04-11T09:21:07Z</time>
      </trkpt>
      <trkpt lat="45.85887" lon="4.67175">
        <ele>204</ele>
        <time>2018-04-11T09:21:08Z</time>
      </trkpt>
      <trkpt lat="45.85887" lon="4.67167">
        <ele>204</ele>
        <time>2018-04-11T09:21:09Z</time>
      </trkpt>
      <trkpt lat="45.85887" lon="4.67159">
        <ele>204</ele>
        <time>2018-04-11T09:21:10Z</time>
      </trkpt>
      <trkpt lat="45.85888" lon="4.67151">
        <ele>204</ele>
        <time>2018-04-11T09:21:11Z</time>
      </trkpt>
      <trkpt lat="45.85889" lon="4.67142">
        <ele>204</ele>
        <time>2018-04-11T09:21:12Z</time>
      </trkpt>
      <trkpt lat="45.8589" lon="4.67135">
        <ele>204</ele>
        <time>2018-04-11T09:21:13Z</time>
      </trkpt>
      <trkpt lat="45.85891" lon="4.67128">
        <ele>204</ele>
        <time>2018-04-11T09:21:14Z</time>
      </trkpt>
      <trkpt lat="45.85892" lon="4.6712">
        <ele>204</ele>
        <time>2018-04-11T09:21:15Z</time>
      </trkpt>
      <trkpt lat="45.85893" lon="4.67113">
        <ele>204</ele>
        <time>2018-04-11T09:21:16Z</time>
      </trkpt>
      <trkpt lat="45.85894" lon="4.67105">
        <ele>204</ele>
        <time>2018-04-11T09:21:17Z</time>
      </trkpt>
      <trkpt lat="45.85895" lon="4.67098">
        <ele>204</ele>
        <time>2018-04-11T09:21:18Z</time>
      </trkpt>
      <trkpt lat="45.85896" lon="4.67091">
        <ele>204</ele>
        <time>2018-04-11T09:21:19Z</time>
      </trkpt>
      <trkpt lat="45.85897" lon="4.67083">
        <ele>204</ele>
        <time>2018-04-11T09:21:20Z</time>
      </trkpt>
      <trkpt lat="45.85898" lon="4.67075">
        <ele>205</ele>
        <time>2018-04-11T09:21:21Z</time>
      </trkpt>
      <trkpt lat="45.85899" lon="4.67067">
        <ele>205</ele>
        <time>2018-04-11T09:21:22Z</time>
      </trkpt>
      <trkpt lat="45.85901" lon="4.6706">
        <ele>205</ele>
        <time>2018-04-11T09:21:23Z</time>
      </trkpt>
      <trkpt lat="45.85902" lon="4.67053">
        <ele>205</ele>
        <time>2018-04-11T09:21:24Z</time>
      </trkpt>
      <trkpt lat="45.85903" lon="4.67047">
        <ele>205</ele>
        <time>2018-04-11T09:21:25Z</time>
      </trkpt>
      <trkpt lat="45.85904" lon="4.6704">
        <ele>205</ele>
        <time>2018-04-11T09:21:26Z</time>
      </trkpt>
      <trkpt lat="45.85905" lon="4.67033">
        <ele>205</ele>
        <time>2018-04-11T09:21:27Z</time>
      </trkpt>
      <trkpt lat="45.85907" lon="4.67025">
        <ele>205</ele>
        <time>2018-04-11T09:21:28Z</time>
      </trkpt>
      <trkpt lat="45.85909" lon="4.67018">
        <ele>205</ele>
        <time>2018-04-11T09:21:29Z</time>
      </trkpt>
      <trkpt lat="45.8591" lon="4.67011">
        <ele>206</ele>
        <time>2018-04-11T09:21:30Z</time>
      </trkpt>
      <trkpt lat="45.85913" lon="4.67005">
        <ele>206</ele>
        <time>2018-04-11T09:21:31Z</time>
      </trkpt>
      <trkpt lat="45.85916" lon="4.67">
        <ele>206</ele>
        <time>2018-04-11T09:21:32Z</time>
      </trkpt>
      <trkpt lat="45.85919" lon="4.66995">
        <ele>207</ele>
        <time>2018-04-11T09:21:33Z</time>
      </trkpt>
      <trkpt lat="45.85923" lon="4.66984">
        <ele>208</ele>
        <time>2018-04-11T09:21:35Z</time>
      </trkpt>
      <trkpt lat="45.85925" lon="4.66977">
        <ele>208</ele>
        <time>2018-04-11T09:21:36Z</time>
      </trkpt>
      <trkpt lat="45.85924" lon="4.6697">
        <ele>208</ele>
        <time>2018-04-11T09:21:37Z</time>
      </trkpt>
      <trkpt lat="45.85923" lon="4.66961">
        <ele>209</ele>
        <time>2018-04-11T09:21:38Z</time>
      </trkpt>
      <trkpt lat="45.85921" lon="4.66953">
        <ele>209</ele>
        <time>2018-04-11T09:21:39Z</time>
      </trkpt>
      <trkpt lat="45.8592" lon="4.66946">
        <ele>209</ele>
        <time>2018-04-11T09:21:40Z</time>
      </trkpt>
      <trkpt lat="45.8592" lon="4.66938">
        <ele>208</ele>
        <time>2018-04-11T09:21:41Z</time>
      </trkpt>
      <trkpt lat="45.85922" lon="4.66931">
        <ele>208</ele>
        <time>2018-04-11T09:21:42Z</time>
      </trkpt>
      <trkpt lat="45.85923" lon="4.66923">
        <ele>208</ele>
        <time>2018-04-11T09:21:43Z</time>
      </trkpt>
      <trkpt lat="45.85925" lon="4.66916">
        <ele>208</ele>
        <time>2018-04-11T09:21:44Z</time>
      </trkpt>
      <trkpt lat="45.85927" lon="4.66909">
        <ele>209</ele>
        <time>2018-04-11T09:21:45Z</time>
      </trkpt>
      <trkpt lat="45.85929" lon="4.66902">
        <ele>209</ele>
        <time>2018-04-11T09:21:46Z</time>
      </trkpt>
      <trkpt lat="45.85931" lon="4.66894">
        <ele>209</ele>
        <time>2018-04-11T09:21:47Z</time>
      </trkpt>
      <trkpt lat="45.85932" lon="4.66887">
        <ele>210</ele>
        <time>2018-04-11T09:21:48Z</time>
      </trkpt>
      <trkpt lat="45.85935" lon="4.66881">
        <ele>210</ele>
        <time>2018-04-11T09:21:49Z</time>
      </trkpt>
      <trkpt lat="45.85937" lon="4.66873">
        <ele>210</ele>
        <time>2018-04-11T09:21:50Z</time>
      </trkpt>
      <trkpt lat="45.85939" lon="4.66866">
        <ele>210</ele>
        <time>2018-04-11T09:21:51Z</time>
      </trkpt>
      <trkpt lat="45.85939" lon="4.66859">
        <ele>210</ele>
        <time>2018-04-11T09:21:52Z</time>
      </trkpt>
      <trkpt lat="45.85941" lon="4.66851">
        <ele>210</ele>
        <time>2018-04-11T09:21:53Z</time>
      </trkpt>
      <trkpt lat="45.85944" lon="4.66845">
        <ele>210</ele>
        <time>2018-04-11T09:21:54Z</time>
      </trkpt>
      <trkpt lat="45.85945" lon="4.66837">
        <ele>210</ele>
        <time>2018-04-11T09:21:55Z</time>
      </trkpt>
      <trkpt lat="45.85947" lon="4.66831">
        <ele>212</ele>
        <time>2018-04-11T09:21:56Z</time>
      </trkpt>
      <trkpt lat="45.85949" lon="4.66826">
        <ele>212</ele>
        <time>2018-04-11T09:21:57Z</time>
      </trkpt>
      <trkpt lat="45.85951" lon="4.66818">
        <ele>212</ele>
        <time>2018-04-11T09:21:58Z</time>
      </trkpt>
      <trkpt lat="45.85954" lon="4.66807">
        <ele>213</ele>
        <time>2018-04-11T09:22:00Z</time>
      </trkpt>
      <trkpt lat="45.85956" lon="4.66801">
        <ele>213</ele>
        <time>2018-04-11T09:22:01Z</time>
      </trkpt>
      <trkpt lat="45.85958" lon="4.66793">
        <ele>213</ele>
        <time>2018-04-11T09:22:02Z</time>
      </trkpt>
      <trkpt lat="45.8596" lon="4.66786">
        <ele>213</ele>
        <time>2018-04-11T09:22:03Z</time>
      </trkpt>
      <trkpt lat="45.85965" lon="4.66776">
        <ele>214</ele>
        <time>2018-04-11T09:22:05Z</time>
      </trkpt>
      <trkpt lat="45.85968" lon="4.66769">
        <ele>214</ele>
        <time>2018-04-11T09:22:06Z</time>
      </trkpt>
      <trkpt lat="45.85969" lon="4.66762">
        <ele>214</ele>
        <time>2018-04-11T09:22:07Z</time>
      </trkpt>
      <trkpt lat="45.85972" lon="4.66756">
        <ele>214</ele>
        <time>2018-04-11T09:22:08Z</time>
      </trkpt>
      <trkpt lat="45.85976" lon="4.66748">
        <ele>216</ele>
        <time>2018-04-11T09:22:10Z</time>
      </trkpt>
      <trkpt lat="45.85977" lon="4.66745">
        <ele>216</ele>
        <time>2018-04-11T09:22:11Z</time>
      </trkpt>
      <trkpt lat="45.85978" lon="4.66742">
        <ele>216</ele>
        <time>2018-04-11T09:22:12Z</time>
      </trkpt>
      <trkpt lat="45.85982" lon="4.66731">
        <ele>216</ele>
        <time>2018-04-11T09:22:13Z</time>
      </trkpt>
      <trkpt lat="45.85988" lon="4.66722">
        <ele>215</ele>
        <time>2018-04-11T09:22:15Z</time>
      </trkpt>
      <trkpt lat="45.85991" lon="4.66717">
        <ele>215</ele>
        <time>2018-04-11T09:22:16Z</time>
      </trkpt>
      <trkpt lat="45.85994" lon="4.66713">
        <ele>215</ele>
        <time>2018-04-11T09:22:17Z</time>
      </trkpt>
      <trkpt lat="45.85998" lon="4.66707">
        <ele>215</ele>
        <time>2018-04-11T09:22:18Z</time>
      </trkpt>
      <trkpt lat="45.86001" lon="4.66702">
        <ele>219</ele>
        <time>2018-04-11T09:22:19Z</time>
      </trkpt>
      <trkpt lat="45.86005" lon="4.66697">
        <ele>218</ele>
        <time>2018-04-11T09:22:20Z</time>
      </trkpt>
      <trkpt lat="45.8601" lon="4.66691">
        <ele>218</ele>
        <time>2018-04-11T09:22:21Z</time>
      </trkpt>
      <trkpt lat="45.86014" lon="4.66687">
        <ele>218</ele>
        <time>2018-04-11T09:22:22Z</time>
      </trkpt>
      <trkpt lat="45.86019" lon="4.66681">
        <ele>218</ele>
        <time>2018-04-11T09:22:23Z</time>
      </trkpt>
      <trkpt lat="45.86023" lon="4.66675">
        <ele>218</ele>
        <time>2018-04-11T09:22:24Z</time>
      </trkpt>
      <trkpt lat="45.86029" lon="4.6667">
        <ele>219</ele>
        <time>2018-04-11T09:22:25Z</time>
      </trkpt>
      <trkpt lat="45.86034" lon="4.66666">
        <ele>214</ele>
        <time>2018-04-11T09:22:26Z</time>
      </trkpt>
      <trkpt lat="45.86038" lon="4.6666">
        <ele>214</ele>
        <time>2018-04-11T09:22:27Z</time>
      </trkpt>
      <trkpt lat="45.86043" lon="4.66655">
        <ele>215</ele>
        <time>2018-04-11T09:22:28Z</time>
      </trkpt>
      <trkpt lat="45.86048" lon="4.66651">
        <ele>215</ele>
        <time>2018-04-11T09:22:29Z</time>
      </trkpt>
      <trkpt lat="45.86054" lon="4.66646">
        <ele>215</ele>
        <time>2018-04-11T09:22:30Z</time>
      </trkpt>
      <trkpt lat="45.8606" lon="4.6664">
        <ele>215</ele>
        <time>2018-04-11T09:22:31Z</time>
      </trkpt>
      <trkpt lat="45.86066" lon="4.66636">
        <ele>215</ele>
        <time>2018-04-11T09:22:32Z</time>
      </trkpt>
      <trkpt lat="45.86072" lon="4.6663">
        <ele>215</ele>
        <time>2018-04-11T09:22:33Z</time>
      </trkpt>
      <trkpt lat="45.86077" lon="4.66626">
        <ele>215</ele>
        <time>2018-04-11T09:22:34Z</time>
      </trkpt>
      <trkpt lat="45.86082" lon="4.66622">
        <ele>214</ele>
        <time>2018-04-11T09:22:35Z</time>
      </trkpt>
      <trkpt lat="45.86087" lon="4.66617">
        <ele>220</ele>
        <time>2018-04-11T09:22:36Z</time>
      </trkpt>
      <trkpt lat="45.86092" lon="4.66614">
        <ele>220</ele>
        <time>2018-04-11T09:22:37Z</time>
      </trkpt>
      <trkpt lat="45.86098" lon="4.66609">
        <ele>220</ele>
        <time>2018-04-11T09:22:38Z</time>
      </trkpt>
      <trkpt lat="45.86104" lon="4.66607">
        <ele>220</ele>
        <time>2018-04-11T09:22:39Z</time>
      </trkpt>
      <trkpt lat="45.8611" lon="4.66604">
        <ele>221</ele>
        <time>2018-04-11T09:22:40Z</time>
      </trkpt>
      <trkpt lat="45.86114" lon="4.66599">
        <ele>221</ele>
        <time>2018-04-11T09:22:41Z</time>
      </trkpt>
      <trkpt lat="45.86118" lon="4.66597">
        <ele>221</ele>
        <time>2018-04-11T09:22:42Z</time>
      </trkpt>
      <trkpt lat="45.86123" lon="4.66595">
        <ele>221</ele>
        <time>2018-04-11T09:22:43Z</time>
      </trkpt>
      <trkpt lat="45.86128" lon="4.66589">
        <ele>222</ele>
        <time>2018-04-11T09:22:44Z</time>
      </trkpt>
      <trkpt lat="45.86134" lon="4.66581">
        <ele>215</ele>
        <time>2018-04-11T09:22:45Z</time>
      </trkpt>
      <trkpt lat="45.86138" lon="4.66578">
        <ele>215</ele>
        <time>2018-04-11T09:22:46Z</time>
      </trkpt>
      <trkpt lat="45.86141" lon="4.66574">
        <ele>216</ele>
        <time>2018-04-11T09:22:47Z</time>
      </trkpt>
      <trkpt lat="45.86146" lon="4.66567">
        <ele>216</ele>
        <time>2018-04-11T09:22:48Z</time>
      </trkpt>
      <trkpt lat="45.8615" lon="4.66562">
        <ele>216</ele>
        <time>2018-04-11T09:22:49Z</time>
      </trkpt>
      <trkpt lat="45.86155" lon="4.66555">
        <ele>215</ele>
        <time>2018-04-11T09:22:50Z</time>
      </trkpt>
      <trkpt lat="45.86159" lon="4.6655">
        <ele>215</ele>
        <time>2018-04-11T09:22:51Z</time>
      </trkpt>
      <trkpt lat="45.86162" lon="4.66547">
        <ele>214</ele>
        <time>2018-04-11T09:22:52Z</time>
      </trkpt>
      <trkpt lat="45.86167" lon="4.6654">
        <ele>219</ele>
        <time>2018-04-11T09:22:53Z</time>
      </trkpt>
      <trkpt lat="45.86171" lon="4.66532">
        <ele>219</ele>
        <time>2018-04-11T09:22:54Z</time>
      </trkpt>
      <trkpt lat="45.86175" lon="4.66528">
        <ele>218</ele>
        <time>2018-04-11T09:22:55Z</time>
      </trkpt>
      <trkpt lat="45.86178" lon="4.66523">
        <ele>217</ele>
        <time>2018-04-11T09:22:56Z</time>
      </trkpt>
      <trkpt lat="45.86182" lon="4.66516">
        <ele>217</ele>
        <time>2018-04-11T09:22:57Z</time>
      </trkpt>
      <trkpt lat="45.86186" lon="4.66509">
        <ele>216</ele>
        <time>2018-04-11T09:22:58Z</time>
      </trkpt>
      <trkpt lat="45.8619" lon="4.66502">
        <ele>217</ele>
        <time>2018-04-11T09:22:59Z</time>
      </trkpt>
      <trkpt lat="45.86193" lon="4.66495">
        <ele>213</ele>
        <time>2018-04-11T09:23:00Z</time>
      </trkpt>
      <trkpt lat="45.86196" lon="4.66489">
        <ele>213</ele>
        <time>2018-04-11T09:23:01Z</time>
      </trkpt>
      <trkpt lat="45.86199" lon="4.66483">
        <ele>213</ele>
        <time>2018-04-11T09:23:02Z</time>
      </trkpt>
      <trkpt lat="45.86202" lon="4.66477">
        <ele>213</ele>
        <time>2018-04-11T09:23:03Z</time>
      </trkpt>
      <trkpt lat="45.86206" lon="4.6647">
        <ele>213</ele>
        <time>2018-04-11T09:23:04Z</time>
      </trkpt>
      <trkpt lat="45.8621" lon="4.66464">
        <ele>213</ele>
        <time>2018-04-11T09:23:05Z</time>
      </trkpt>
      <trkpt lat="45.86213" lon="4.66457">
        <ele>213</ele>
        <time>2018-04-11T09:23:06Z</time>
      </trkpt>
      <trkpt lat="45.86217" lon="4.6645">
        <ele>213</ele>
        <time>2018-04-11T09:23:07Z</time>
      </trkpt>
      <trkpt lat="45.86221" lon="4.66443">
        <ele>213</ele>
        <time>2018-04-11T09:23:08Z</time>
      </trkpt>
      <trkpt lat="45.86225" lon="4.66436">
        <ele>213</ele>
        <time>2018-04-11T09:23:09Z</time>
      </trkpt>
      <trkpt lat="45.86229" lon="4.66429">
        <ele>214</ele>
        <time>2018-04-11T09:23:10Z</time>
      </trkpt>
      <trkpt lat="45.86233" lon="4.6642">
        <ele>214</ele>
        <time>2018-04-11T09:23:11Z</time>
      </trkpt>
      <trkpt lat="45.86236" lon="4.66413">
        <ele>213</ele>
        <time>2018-04-11T09:23:12Z</time>
      </trkpt>
      <trkpt lat="45.8624" lon="4.66406">
        <ele>213</ele>
        <time>2018-04-11T09:23:13Z</time>
      </trkpt>
      <trkpt lat="45.86243" lon="4.66398">
        <ele>213</ele>
        <time>2018-04-11T09:23:14Z</time>
      </trkpt>
      <trkpt lat="45.86246" lon="4.66391">
        <ele>212</ele>
        <time>2018-04-11T09:23:15Z</time>
      </trkpt>
      <trkpt lat="45.8625" lon="4.66385">
        <ele>212</ele>
        <time>2018-04-11T09:23:16Z</time>
      </trkpt>
      <trkpt lat="45.86254" lon="4.66378">
        <ele>216</ele>
        <time>2018-04-11T09:23:17Z</time>
      </trkpt>
      <trkpt lat="45.86258" lon="4.66371">
        <ele>216</ele>
        <time>2018-04-11T09:23:18Z</time>
      </trkpt>
      <trkpt lat="45.86262" lon="4.66366">
        <ele>216</ele>
        <time>2018-04-11T09:23:19Z</time>
      </trkpt>
      <trkpt lat="45.86266" lon="4.6636">
        <ele>216</ele>
        <time>2018-04-11T09:23:20Z</time>
      </trkpt>
      <trkpt lat="45.86271" lon="4.66355">
        <ele>216</ele>
        <time>2018-04-11T09:23:21Z</time>
      </trkpt>
      <trkpt lat="45.86275" lon="4.66349">
        <ele>216</ele>
        <time>2018-04-11T09:23:22Z</time>
      </trkpt>
      <trkpt lat="45.86278" lon="4.66343">
        <ele>216</ele>
        <time>2018-04-11T09:23:23Z</time>
      </trkpt>
      <trkpt lat="45.86283" lon="4.66337">
        <ele>217</ele>
        <time>2018-04-11T09:23:24Z</time>
      </trkpt>
      <trkpt lat="45.86286" lon="4.66331">
        <ele>214</ele>
        <time>2018-04-11T09:23:25Z</time>
      </trkpt>
      <trkpt lat="45.8629" lon="4.66326">
        <ele>214</ele>
        <time>2018-04-11T09:23:26Z</time>
      </trkpt>
      <trkpt lat="45.86294" lon="4.66321">
        <ele>215</ele>
        <time>2018-04-11T09:23:27Z</time>
      </trkpt>
      <trkpt lat="45.86299" lon="4.66317">
        <ele>215</ele>
        <time>2018-04-11T09:23:28Z</time>
      </trkpt>
      <trkpt lat="45.86302" lon="4.66312">
        <ele>215</ele>
        <time>2018-04-11T09:23:29Z</time>
      </trkpt>
      <trkpt lat="45.86305" lon="4.66307">
        <ele>215</ele>
        <time>2018-04-11T09:23:30Z</time>
      </trkpt>
      <trkpt lat="45.86309" lon="4.66302">
        <ele>215</ele>
        <time>2018-04-11T09:23:31Z</time>
      </trkpt>
      <trkpt lat="45.86312" lon="4.66298">
        <ele>215</ele>
        <time>2018-04-11T09:23:32Z</time>
      </trkpt>
      <trkpt lat="45.86315" lon="4.66294">
        <ele>215</ele>
        <time>2018-04-11T09:23:33Z</time>
      </trkpt>
      <trkpt lat="45.86319" lon="4.66288">
        <ele>214</ele>
        <time>2018-04-11T09:23:34Z</time>
      </trkpt>
      <trkpt lat="45.86322" lon="4.66284">
        <ele>214</ele>
        <time>2018-04-11T09:23:35Z</time>
      </trkpt>
      <trkpt lat="45.86326" lon="4.66279">
        <ele>214</ele>
        <time>2018-04-11T09:23:36Z</time>
      </trkpt>
      <trkpt lat="45.8633" lon="4.66276">
        <ele>214</ele>
        <time>2018-04-11T09:23:37Z</time>
      </trkpt>
      <trkpt lat="45.86335" lon="4.66273">
        <ele>218</ele>
        <time>2018-04-11T09:23:38Z</time>
      </trkpt>
      <trkpt lat="45.86339" lon="4.6627">
        <ele>217</ele>
        <time>2018-04-11T09:23:39Z</time>
      </trkpt>
      <trkpt lat="45.86344" lon="4.66267">
        <ele>217</ele>
        <time>2018-04-11T09:23:40Z</time>
      </trkpt>
      <trkpt lat="45.8635" lon="4.66262">
        <ele>217</ele>
        <time>2018-04-11T09:23:41Z</time>
      </trkpt>
      <trkpt lat="45.86355" lon="4.66258">
        <ele>218</ele>
        <time>2018-04-11T09:23:42Z</time>
      </trkpt>
      <trkpt lat="45.8636" lon="4.66253">
        <ele>218</ele>
        <time>2018-04-11T09:23:43Z</time>
      </trkpt>
      <trkpt lat="45.86365" lon="4.6625">
        <ele>213</ele>
        <time>2018-04-11T09:23:44Z</time>
      </trkpt>
      <trkpt lat="45.86369" lon="4.66247">
        <ele>214</ele>
        <time>2018-04-11T09:23:45Z</time>
      </trkpt>
      <trkpt lat="45.86375" lon="4.66244">
        <ele>214</ele>
        <time>2018-04-11T09:23:46Z</time>
      </trkpt>
      <trkpt lat="45.8638" lon="4.66241">
        <ele>214</ele>
        <time>2018-04-11T09:23:47Z</time>
      </trkpt>
      <trkpt lat="45.86385" lon="4.66239">
        <ele>214</ele>
        <time>2018-04-11T09:23:48Z</time>
      </trkpt>
      <trkpt lat="45.8639" lon="4.66236">
        <ele>215</ele>
        <time>2018-04-11T09:23:49Z</time>
      </trkpt>
      <trkpt lat="45.86395" lon="4.66234">
        <ele>215</ele>
        <time>2018-04-11T09:23:50Z</time>
      </trkpt>
      <trkpt lat="45.864" lon="4.66232">
        <ele>215</ele>
        <time>2018-04-11T09:23:51Z</time>
      </trkpt>
      <trkpt lat="45.86405" lon="4.6623">
        <ele>215</ele>
        <time>2018-04-11T09:23:52Z</time>
      </trkpt>
      <trkpt lat="45.86413" lon="4.66225">
        <ele>215</ele>
        <time>2018-04-11T09:23:54Z</time>
      </trkpt>
      <trkpt lat="45.86417" lon="4.66223">
        <ele>218</ele>
        <time>2018-04-11T09:23:55Z</time>
      </trkpt>
      <trkpt lat="45.86423" lon="4.66222">
        <ele>218</ele>
        <time>2018-04-11T09:23:56Z</time>
      </trkpt>
      <trkpt lat="45.86427" lon="4.6622">
        <ele>218</ele>
        <time>2018-04-11T09:23:57Z</time>
      </trkpt>
      <trkpt lat="45.86432" lon="4.66218">
        <ele>218</ele>
        <time>2018-04-11T09:23:58Z</time>
      </trkpt>
      <trkpt lat="45.86436" lon="4.66216">
        <ele>217</ele>
        <time>2018-04-11T09:23:59Z</time>
      </trkpt>
      <trkpt lat="45.86441" lon="4.66215">
        <ele>217</ele>
        <time>2018-04-11T09:24:00Z</time>
      </trkpt>
      <trkpt lat="45.86445" lon="4.66214">
        <ele>217</ele>
        <time>2018-04-11T09:24:01Z</time>
      </trkpt>
      <trkpt lat="45.8645" lon="4.66212">
        <ele>217</ele>
        <time>2018-04-11T09:24:02Z</time>
      </trkpt>
      <trkpt lat="45.86455" lon="4.6621">
        <ele>218</ele>
        <time>2018-04-11T09:24:03Z</time>
      </trkpt>
      <trkpt lat="45.86459" lon="4.66209">
        <ele>218</ele>
        <time>2018-04-11T09:24:04Z</time>
      </trkpt>
      <trkpt lat="45.86465" lon="4.6621">
        <ele>218</ele>
        <time>2018-04-11T09:24:05Z</time>
      </trkpt>
      <trkpt lat="45.86473" lon="4.66207">
        <ele>218</ele>
        <time>2018-04-11T09:24:07Z</time>
      </trkpt>
      <trkpt lat="45.86479" lon="4.66207">
        <ele>218</ele>
        <time>2018-04-11T09:24:08Z</time>
      </trkpt>
      <trkpt lat="45.86484" lon="4.66202">
        <ele>218</ele>
        <time>2018-04-11T09:24:09Z</time>
      </trkpt>
      <trkpt lat="45.86489" lon="4.66201">
        <ele>218</ele>
        <time>2018-04-11T09:24:10Z</time>
      </trkpt>
      <trkpt lat="45.86494" lon="4.662">
        <ele>218</ele>
        <time>2018-04-11T09:24:11Z</time>
      </trkpt>
      <trkpt lat="45.86499" lon="4.66198">
        <ele>218</ele>
        <time>2018-04-11T09:24:12Z</time>
      </trkpt>
      <trkpt lat="45.86503" lon="4.66193">
        <ele>223</ele>
        <time>2018-04-11T09:24:13Z</time>
      </trkpt>
      <trkpt lat="45.86507" lon="4.66192">
        <ele>223</ele>
        <time>2018-04-11T09:24:14Z</time>
      </trkpt>
      <trkpt lat="45.86515" lon="4.66187">
        <ele>223</ele>
        <time>2018-04-11T09:24:16Z</time>
      </trkpt>
      <trkpt lat="45.8652" lon="4.66183">
        <ele>223</ele>
        <time>2018-04-11T09:24:17Z</time>
      </trkpt>
      <trkpt lat="45.86524" lon="4.6618">
        <ele>223</ele>
        <time>2018-04-11T09:24:18Z</time>
      </trkpt>
      <trkpt lat="45.86529" lon="4.66177">
        <ele>224</ele>
        <time>2018-04-11T09:24:19Z</time>
      </trkpt>
      <trkpt lat="45.86534" lon="4.66173">
        <ele>224</ele>
        <time>2018-04-11T09:24:20Z</time>
      </trkpt>
      <trkpt lat="45.86539" lon="4.66167">
        <ele>225</ele>
        <time>2018-04-11T09:24:21Z</time>
      </trkpt>
      <trkpt lat="45.86546" lon="4.66161">
        <ele>218</ele>
        <time>2018-04-11T09:24:23Z</time>
      </trkpt>
      <trkpt lat="45.86552" lon="4.66158">
        <ele>218</ele>
        <time>2018-04-11T09:24:24Z</time>
      </trkpt>
      <trkpt lat="45.86557" lon="4.66154">
        <ele>219</ele>
        <time>2018-04-11T09:24:25Z</time>
      </trkpt>
      <trkpt lat="45.86561" lon="4.66151">
        <ele>219</ele>
        <time>2018-04-11T09:24:26Z</time>
      </trkpt>
      <trkpt lat="45.86566" lon="4.66148">
        <ele>219</ele>
        <time>2018-04-11T09:24:27Z</time>
      </trkpt>
      <trkpt lat="45.86571" lon="4.66143">
        <ele>219</ele>
        <time>2018-04-11T09:24:28Z</time>
      </trkpt>
      <trkpt lat="45.86575" lon="4.6614">
        <ele>219</ele>
        <time>2018-04-11T09:24:29Z</time>
      </trkpt>
      <trkpt lat="45.8658" lon="4.66137">
        <ele>218</ele>
        <time>2018-04-11T09:24:30Z</time>
      </trkpt>
      <trkpt lat="45.86585" lon="4.66133">
        <ele>225</ele>
        <time>2018-04-11T09:24:31Z</time>
      </trkpt>
      <trkpt lat="45.86589" lon="4.6613">
        <ele>224</ele>
        <time>2018-04-11T09:24:32Z</time>
      </trkpt>
      <trkpt lat="45.86594" lon="4.66127">
        <ele>224</ele>
        <time>2018-04-11T09:24:33Z</time>
      </trkpt>
      <trkpt lat="45.86598" lon="4.66123">
        <ele>224</ele>
        <time>2018-04-11T09:24:34Z</time>
      </trkpt>
      <trkpt lat="45.86603" lon="4.6612">
        <ele>223</ele>
        <time>2018-04-11T09:24:35Z</time>
      </trkpt>
      <trkpt lat="45.86608" lon="4.66117">
        <ele>223</ele>
        <time>2018-04-11T09:24:36Z</time>
      </trkpt>
      <trkpt lat="45.86614" lon="4.66112">
        <ele>223</ele>
        <time>2018-04-11T09:24:37Z</time>
      </trkpt>
      <trkpt lat="45.86619" lon="4.66109">
        <ele>223</ele>
        <time>2018-04-11T09:24:38Z</time>
      </trkpt>
      <trkpt lat="45.86624" lon="4.66106">
        <ele>223</ele>
        <time>2018-04-11T09:24:39Z</time>
      </trkpt>
      <trkpt lat="45.86629" lon="4.66105">
        <ele>224</ele>
        <time>2018-04-11T09:24:40Z</time>
      </trkpt>
      <trkpt lat="45.86634" lon="4.66102">
        <ele>224</ele>
        <time>2018-04-11T09:24:41Z</time>
      </trkpt>
      <trkpt lat="45.86639" lon="4.661">
        <ele>224</ele>
        <time>2018-04-11T09:24:42Z</time>
      </trkpt>
      <trkpt lat="45.86644" lon="4.66098">
        <ele>223</ele>
        <time>2018-04-11T09:24:43Z</time>
      </trkpt>
      <trkpt lat="45.86648" lon="4.66096">
        <ele>223</ele>
        <time>2018-04-11T09:24:44Z</time>
      </trkpt>
      <trkpt lat="45.86652" lon="4.66094">
        <ele>223</ele>
        <time>2018-04-11T09:24:45Z</time>
      </trkpt>
      <trkpt lat="45.86657" lon="4.66093">
        <ele>222</ele>
        <time>2018-04-11T09:24:46Z</time>
      </trkpt>
      <trkpt lat="45.86662" lon="4.66091">
        <ele>221</ele>
        <time>2018-04-11T09:24:47Z</time>
      </trkpt>
      <trkpt lat="45.86667" lon="4.66089">
        <ele>224</ele>
        <time>2018-04-11T09:24:48Z</time>
      </trkpt>
      <trkpt lat="45.86673" lon="4.66087">
        <ele>225</ele>
        <time>2018-04-11T09:24:49Z</time>
      </trkpt>
      <trkpt lat="45.86678" lon="4.66085">
        <ele>227</ele>
        <time>2018-04-11T09:24:50Z</time>
      </trkpt>
      <trkpt lat="45.86683" lon="4.66083">
        <ele>221</ele>
        <time>2018-04-11T09:24:51Z</time>
      </trkpt>
      <trkpt lat="45.86686" lon="4.66078">
        <ele>221</ele>
        <time>2018-04-11T09:24:52Z</time>
      </trkpt>
      <trkpt lat="45.8669" lon="4.66073">
        <ele>222</ele>
        <time>2018-04-11T09:24:53Z</time>
      </trkpt>
      <trkpt lat="45.86695" lon="4.66075">
        <ele>222</ele>
        <time>2018-04-11T09:24:54Z</time>
      </trkpt>
      <trkpt lat="45.86701" lon="4.66073">
        <ele>223</ele>
        <time>2018-04-11T09:24:55Z</time>
      </trkpt>
      <trkpt lat="45.86705" lon="4.6607">
        <ele>223</ele>
        <time>2018-04-11T09:24:56Z</time>
      </trkpt>
      <trkpt lat="45.86713" lon="4.66065">
        <ele>224</ele>
        <time>2018-04-11T09:24:58Z</time>
      </trkpt>
      <trkpt lat="45.86718" lon="4.66061">
        <ele>224</ele>
        <time>2018-04-11T09:24:59Z</time>
      </trkpt>
      <trkpt lat="45.86723" lon="4.66058">
        <ele>225</ele>
        <time>2018-04-11T09:25:00Z</time>
      </trkpt>
      <trkpt lat="45.86729" lon="4.66052">
        <ele>224</ele>
        <time>2018-04-11T09:25:01Z</time>
      </trkpt>
      <trkpt lat="45.86734" lon="4.66048">
        <ele>224</ele>
        <time>2018-04-11T09:25:02Z</time>
      </trkpt>
      <trkpt lat="45.86738" lon="4.66043">
        <ele>224</ele>
        <time>2018-04-11T09:25:03Z</time>
      </trkpt>
      <trkpt lat="45.86744" lon="4.66038">
        <ele>223</ele>
        <time>2018-04-11T09:25:04Z</time>
      </trkpt>
      <trkpt lat="45.86748" lon="4.66033">
        <ele>222</ele>
        <time>2018-04-11T09:25:05Z</time>
      </trkpt>
      <trkpt lat="45.86753" lon="4.66027">
        <ele>230</ele>
        <time>2018-04-11T09:25:06Z</time>
      </trkpt>
      <trkpt lat="45.86757" lon="4.66023">
        <ele>229</ele>
        <time>2018-04-11T09:25:07Z</time>
      </trkpt>
      <trkpt lat="45.86766" lon="4.66022">
        <ele>230</ele>
        <time>2018-04-11T09:25:11Z</time>
      </trkpt>
      <trkpt lat="45.86767" lon="4.66023">
        <ele>231</ele>
        <time>2018-04-11T09:25:12Z</time>
      </trkpt>
      <trkpt lat="45.86772" lon="4.6602">
        <ele>231</ele>
        <time>2018-04-11T09:25:15Z</time>
      </trkpt>
      <trkpt lat="45.86781" lon="4.66006">
        <ele>231</ele>
        <time>2018-04-11T09:25:16Z</time>
      </trkpt>
      <trkpt lat="45.86785" lon="4.66">
        <ele>232</ele>
        <time>2018-04-11T09:25:17Z</time>
      </trkpt>
      <trkpt lat="45.86789" lon="4.65993">
        <ele>222</ele>
        <time>2018-04-11T09:25:18Z</time>
      </trkpt>
      <trkpt lat="45.86792" lon="4.65988">
        <ele>223</ele>
        <time>2018-04-11T09:25:19Z</time>
      </trkpt>
      <trkpt lat="45.86795" lon="4.65981">
        <ele>223</ele>
        <time>2018-04-11T09:25:20Z</time>
      </trkpt>
      <trkpt lat="45.86799" lon="4.65975">
        <ele>223</ele>
        <time>2018-04-11T09:25:21Z</time>
      </trkpt>
      <trkpt lat="45.86805" lon="4.65964">
        <ele>223</ele>
        <time>2018-04-11T09:25:22Z</time>
      </trkpt>
      <trkpt lat="45.8681" lon="4.65956">
        <ele>222</ele>
        <time>2018-04-11T09:25:23Z</time>
      </trkpt>
      <trkpt lat="45.86813" lon="4.6595">
        <ele>222</ele>
        <time>2018-04-11T09:25:24Z</time>
      </trkpt>
      <trkpt lat="45.86817" lon="4.65943">
        <ele>222</ele>
        <time>2018-04-11T09:25:25Z</time>
      </trkpt>
      <trkpt lat="45.8682" lon="4.65933">
        <ele>222</ele>
        <time>2018-04-11T09:25:26Z</time>
      </trkpt>
      <trkpt lat="45.86824" lon="4.65926">
        <ele>221</ele>
        <time>2018-04-11T09:25:27Z</time>
      </trkpt>
      <trkpt lat="45.86827" lon="4.6592">
        <ele>221</ele>
        <time>2018-04-11T09:25:28Z</time>
      </trkpt>
      <trkpt lat="45.86831" lon="4.65911">
        <ele>219</ele>
        <time>2018-04-11T09:25:29Z</time>
      </trkpt>
      <trkpt lat="45.86834" lon="4.65905">
        <ele>224</ele>
        <time>2018-04-11T09:25:30Z</time>
      </trkpt>
      <trkpt lat="45.86837" lon="4.659">
        <ele>225</ele>
        <time>2018-04-11T09:25:31Z</time>
      </trkpt>
      <trkpt lat="45.8684" lon="4.65894">
        <ele>225</ele>
        <time>2018-04-11T09:25:32Z</time>
      </trkpt>
      <trkpt lat="45.86842" lon="4.65887">
        <ele>226</ele>
        <time>2018-04-11T09:25:33Z</time>
      </trkpt>
      <trkpt lat="45.86845" lon="4.65881">
        <ele>226</ele>
        <time>2018-04-11T09:25:34Z</time>
      </trkpt>
      <trkpt lat="45.86848" lon="4.65875">
        <ele>226</ele>
        <time>2018-04-11T09:25:35Z</time>
      </trkpt>
      <trkpt lat="45.86851" lon="4.65867">
        <ele>225</ele>
        <time>2018-04-11T09:25:36Z</time>
      </trkpt>
      <trkpt lat="45.86853" lon="4.65861">
        <ele>225</ele>
        <time>2018-04-11T09:25:37Z</time>
      </trkpt>
      <trkpt lat="45.86856" lon="4.65854">
        <ele>224</ele>
        <time>2018-04-11T09:25:38Z</time>
      </trkpt>
      <trkpt lat="45.86859" lon="4.65847">
        <ele>224</ele>
        <time>2018-04-11T09:25:39Z</time>
      </trkpt>
      <trkpt lat="45.86861" lon="4.65841">
        <ele>224</ele>
        <time>2018-04-11T09:25:40Z</time>
      </trkpt>
      <trkpt lat="45.86862" lon="4.65836">
        <ele>224</ele>
        <time>2018-04-11T09:25:41Z</time>
      </trkpt>
      <trkpt lat="45.86864" lon="4.65829">
        <ele>220</ele>
        <time>2018-04-11T09:25:42Z</time>
      </trkpt>
      <trkpt lat="45.86866" lon="4.65823">
        <ele>221</ele>
        <time>2018-04-11T09:25:43Z</time>
      </trkpt>
      <trkpt lat="45.86869" lon="4.65817">
        <ele>221</ele>
        <time>2018-04-11T09:25:44Z</time>
      </trkpt>
      <trkpt lat="45.8687" lon="4.65811">
        <ele>222</ele>
        <time>2018-04-11T09:25:45Z</time>
      </trkpt>
      <trkpt lat="45.86871" lon="4.65804">
        <ele>222</ele>
        <time>2018-04-11T09:25:46Z</time>
      </trkpt>
      <trkpt lat="45.86873" lon="4.65797">
        <ele>222</ele>
        <time>2018-04-11T09:25:47Z</time>
      </trkpt>
      <trkpt lat="45.86874" lon="4.65789">
        <ele>222</ele>
        <time>2018-04-11T09:25:48Z</time>
      </trkpt>
      <trkpt lat="45.86876" lon="4.65777">
        <ele>222</ele>
        <time>2018-04-11T09:25:50Z</time>
      </trkpt>
      <trkpt lat="45.86878" lon="4.65769">
        <ele>222</ele>
        <time>2018-04-11T09:25:51Z</time>
      </trkpt>
      <trkpt lat="45.86879" lon="4.65761">
        <ele>222</ele>
        <time>2018-04-11T09:25:52Z</time>
      </trkpt>
      <trkpt lat="45.8688" lon="4.65754">
        <ele>222</ele>
        <time>2018-04-11T09:25:53Z</time>
      </trkpt>
      <trkpt lat="45.86881" lon="4.65746">
        <ele>222</ele>
        <time>2018-04-11T09:25:54Z</time>
      </trkpt>
      <trkpt lat="45.86882" lon="4.6574">
        <ele>222</ele>
        <time>2018-04-11T09:25:55Z</time>
      </trkpt>
      <trkpt lat="45.86883" lon="4.65732">
        <ele>222</ele>
        <time>2018-04-11T09:25:56Z</time>
      </trkpt>
      <trkpt lat="45.86883" lon="4.65725">
        <ele>222</ele>
        <time>2018-04-11T09:25:57Z</time>
      </trkpt>
      <trkpt lat="45.86884" lon="4.65717">
        <ele>222</ele>
        <time>2018-04-11T09:25:58Z</time>
      </trkpt>
      <trkpt lat="45.86884" lon="4.65709">
        <ele>222</ele>
        <time>2018-04-11T09:25:59Z</time>
      </trkpt>
      <trkpt lat="45.86885" lon="4.65701">
        <ele>222</ele>
        <time>2018-04-11T09:26:00Z</time>
      </trkpt>
      <trkpt lat="45.86886" lon="4.65693">
        <ele>222</ele>
        <time>2018-04-11T09:26:01Z</time>
      </trkpt>
      <trkpt lat="45.86886" lon="4.65684">
        <ele>223</ele>
        <time>2018-04-11T09:26:02Z</time>
      </trkpt>
      <trkpt lat="45.86886" lon="4.65676">
        <ele>223</ele>
        <time>2018-04-11T09:26:03Z</time>
      </trkpt>
      <trkpt lat="45.86887" lon="4.65667">
        <ele>223</ele>
        <time>2018-04-11T09:26:04Z</time>
      </trkpt>
      <trkpt lat="45.86888" lon="4.65659">
        <ele>223</ele>
        <time>2018-04-11T09:26:05Z</time>
      </trkpt>
      <trkpt lat="45.8689" lon="4.65651">
        <ele>223</ele>
        <time>2018-04-11T09:26:06Z</time>
      </trkpt>
      <trkpt lat="45.8689" lon="4.65641">
        <ele>223</ele>
        <time>2018-04-11T09:26:07Z</time>
      </trkpt>
      <trkpt lat="45.86892" lon="4.65632">
        <ele>222</ele>
        <time>2018-04-11T09:26:08Z</time>
      </trkpt>
      <trkpt lat="45.86894" lon="4.65623">
        <ele>222</ele>
        <time>2018-04-11T09:26:09Z</time>
      </trkpt>
      <trkpt lat="45.86895" lon="4.65615">
        <ele>222</ele>
        <time>2018-04-11T09:26:10Z</time>
      </trkpt>
      <trkpt lat="45.86898" lon="4.65606">
        <ele>223</ele>
        <time>2018-04-11T09:26:11Z</time>
      </trkpt>
      <trkpt lat="45.869" lon="4.65596">
        <ele>223</ele>
        <time>2018-04-11T09:26:12Z</time>
      </trkpt>
      <trkpt lat="45.86903" lon="4.65587">
        <ele>224</ele>
        <time>2018-04-11T09:26:13Z</time>
      </trkpt>
      <trkpt lat="45.86905" lon="4.65577">
        <ele>222</ele>
        <time>2018-04-11T09:26:14Z</time>
      </trkpt>
      <trkpt lat="45.86908" lon="4.65569">
        <ele>221</ele>
        <time>2018-04-11T09:26:15Z</time>
      </trkpt>
      <trkpt lat="45.8691" lon="4.6556">
        <ele>220</ele>
        <time>2018-04-11T09:26:16Z</time>
      </trkpt>
      <trkpt lat="45.86913" lon="4.6555">
        <ele>219</ele>
        <time>2018-04-11T09:26:17Z</time>
      </trkpt>
      <trkpt lat="45.86916" lon="4.65542">
        <ele>219</ele>
        <time>2018-04-11T09:26:18Z</time>
      </trkpt>
      <trkpt lat="45.8692" lon="4.65534">
        <ele>229</ele>
        <time>2018-04-11T09:26:19Z</time>
      </trkpt>
      <trkpt lat="45.86923" lon="4.65527">
        <ele>228</ele>
        <time>2018-04-11T09:26:20Z</time>
      </trkpt>
      <trkpt lat="45.86926" lon="4.6552">
        <ele>227</ele>
        <time>2018-04-11T09:26:21Z</time>
      </trkpt>
      <trkpt lat="45.8693" lon="4.65513">
        <ele>226</ele>
        <time>2018-04-11T09:26:22Z</time>
      </trkpt>
      <trkpt lat="45.86934" lon="4.65506">
        <ele>226</ele>
        <time>2018-04-11T09:26:23Z</time>
      </trkpt>
      <trkpt lat="45.86938" lon="4.65499">
        <ele>221</ele>
        <time>2018-04-11T09:26:24Z</time>
      </trkpt>
      <trkpt lat="45.86942" lon="4.65492">
        <ele>222</ele>
        <time>2018-04-11T09:26:25Z</time>
      </trkpt>
      <trkpt lat="45.86946" lon="4.65486">
        <ele>222</ele>
        <time>2018-04-11T09:26:26Z</time>
      </trkpt>
      <trkpt lat="45.8695" lon="4.65479">
        <ele>222</ele>
        <time>2018-04-11T09:26:27Z</time>
      </trkpt>
      <trkpt lat="45.86955" lon="4.65472">
        <ele>222</ele>
        <time>2018-04-11T09:26:28Z</time>
      </trkpt>
      <trkpt lat="45.8696" lon="4.65466">
        <ele>223</ele>
        <time>2018-04-11T09:26:29Z</time>
      </trkpt>
      <trkpt lat="45.86964" lon="4.6546">
        <ele>223</ele>
        <time>2018-04-11T09:26:30Z</time>
      </trkpt>
      <trkpt lat="45.86969" lon="4.65454">
        <ele>222</ele>
        <time>2018-04-11T09:26:31Z</time>
      </trkpt>
      <trkpt lat="45.86973" lon="4.65449">
        <ele>222</ele>
        <time>2018-04-11T09:26:32Z</time>
      </trkpt>
      <trkpt lat="45.86978" lon="4.65444">
        <ele>222</ele>
        <time>2018-04-11T09:26:33Z</time>
      </trkpt>
      <trkpt lat="45.86983" lon="4.65438">
        <ele>222</ele>
        <time>2018-04-11T09:26:34Z</time>
      </trkpt>
      <trkpt lat="45.86988" lon="4.65432">
        <ele>222</ele>
        <time>2018-04-11T09:26:35Z</time>
      </trkpt>
      <trkpt lat="45.86994" lon="4.65428">
        <ele>222</ele>
        <time>2018-04-11T09:26:36Z</time>
      </trkpt>
      <trkpt lat="45.86999" lon="4.65423">
        <ele>221</ele>
        <time>2018-04-11T09:26:37Z</time>
      </trkpt>
      <trkpt lat="45.87004" lon="4.65417">
        <ele>222</ele>
        <time>2018-04-11T09:26:38Z</time>
      </trkpt>
      <trkpt lat="45.87009" lon="4.6541">
        <ele>222</ele>
        <time>2018-04-11T09:26:39Z</time>
      </trkpt>
      <trkpt lat="45.87011" lon="4.65404">
        <ele>223</ele>
        <time>2018-04-11T09:26:40Z</time>
      </trkpt>
      <trkpt lat="45.87016" lon="4.65398">
        <ele>223</ele>
        <time>2018-04-11T09:26:41Z</time>
      </trkpt>
      <trkpt lat="45.8702" lon="4.65392">
        <ele>224</ele>
        <time>2018-04-11T09:26:42Z</time>
      </trkpt>
      <trkpt lat="45.87025" lon="4.65386">
        <ele>224</ele>
        <time>2018-04-11T09:26:43Z</time>
      </trkpt>
      <trkpt lat="45.8703" lon="4.6538">
        <ele>224</ele>
        <time>2018-04-11T09:26:44Z</time>
      </trkpt>
      <trkpt lat="45.87032" lon="4.65373">
        <ele>223</ele>
        <time>2018-04-11T09:26:45Z</time>
      </trkpt>
      <trkpt lat="45.87036" lon="4.65367">
        <ele>223</ele>
        <time>2018-04-11T09:26:46Z</time>
      </trkpt>
      <trkpt lat="45.8704" lon="4.65361">
        <ele>223</ele>
        <time>2018-04-11T09:26:47Z</time>
      </trkpt>
      <trkpt lat="45.87043" lon="4.65356">
        <ele>223</ele>
        <time>2018-04-11T09:26:48Z</time>
      </trkpt>
      <trkpt lat="45.87046" lon="4.6535">
        <ele>223</ele>
        <time>2018-04-11T09:26:49Z</time>
      </trkpt>
      <trkpt lat="45.8705" lon="4.65343">
        <ele>223</ele>
        <time>2018-04-11T09:26:50Z</time>
      </trkpt>
      <trkpt lat="45.87052" lon="4.65337">
        <ele>223</ele>
        <time>2018-04-11T09:26:51Z</time>
      </trkpt>
      <trkpt lat="45.87055" lon="4.65332">
        <ele>218</ele>
        <time>2018-04-11T09:26:52Z</time>
      </trkpt>
      <trkpt lat="45.87058" lon="4.65325">
        <ele>218</ele>
        <time>2018-04-11T09:26:53Z</time>
      </trkpt>
      <trkpt lat="45.87061" lon="4.65318">
        <ele>218</ele>
        <time>2018-04-11T09:26:54Z</time>
      </trkpt>
      <trkpt lat="45.87064" lon="4.65312">
        <ele>218</ele>
        <time>2018-04-11T09:26:55Z</time>
      </trkpt>
      <trkpt lat="45.87067" lon="4.65304">
        <ele>217</ele>
        <time>2018-04-11T09:26:56Z</time>
      </trkpt>
      <trkpt lat="45.8707" lon="4.65296">
        <ele>217</ele>
        <time>2018-04-11T09:26:57Z</time>
      </trkpt>
      <trkpt lat="45.87075" lon="4.65286">
        <ele>216</ele>
        <time>2018-04-11T09:26:59Z</time>
      </trkpt>
      <trkpt lat="45.87077" lon="4.6528">
        <ele>215</ele>
        <time>2018-04-11T09:27:00Z</time>
      </trkpt>
      <trkpt lat="45.87081" lon="4.65274">
        <ele>215</ele>
        <time>2018-04-11T09:27:01Z</time>
      </trkpt>
      <trkpt lat="45.87084" lon="4.65269">
        <ele>223</ele>
        <time>2018-04-11T09:27:02Z</time>
      </trkpt>
      <trkpt lat="45.87087" lon="4.65264">
        <ele>221</ele>
        <time>2018-04-11T09:27:03Z</time>
      </trkpt>
      <trkpt lat="45.87091" lon="4.65258">
        <ele>220</ele>
        <time>2018-04-11T09:27:04Z</time>
      </trkpt>
      <trkpt lat="45.87094" lon="4.65252">
        <ele>220</ele>
        <time>2018-04-11T09:27:05Z</time>
      </trkpt>
      <trkpt lat="45.87097" lon="4.65247">
        <ele>217</ele>
        <time>2018-04-11T09:27:06Z</time>
      </trkpt>
      <trkpt lat="45.87101" lon="4.65241">
        <ele>218</ele>
        <time>2018-04-11T09:27:07Z</time>
      </trkpt>
      <trkpt lat="45.87104" lon="4.65236">
        <ele>218</ele>
        <time>2018-04-11T09:27:08Z</time>
      </trkpt>
      <trkpt lat="45.87108" lon="4.6523">
        <ele>219</ele>
        <time>2018-04-11T09:27:09Z</time>
      </trkpt>
      <trkpt lat="45.87111" lon="4.65225">
        <ele>219</ele>
        <time>2018-04-11T09:27:10Z</time>
      </trkpt>
      <trkpt lat="45.87115" lon="4.6522">
        <ele>220</ele>
        <time>2018-04-11T09:27:11Z</time>
      </trkpt>
      <trkpt lat="45.87119" lon="4.65214">
        <ele>220</ele>
        <time>2018-04-11T09:27:12Z</time>
      </trkpt>
      <trkpt lat="45.87123" lon="4.6521">
        <ele>220</ele>
        <time>2018-04-11T09:27:13Z</time>
      </trkpt>
      <trkpt lat="45.87127" lon="4.65205">
        <ele>220</ele>
        <time>2018-04-11T09:27:14Z</time>
      </trkpt>
      <trkpt lat="45.87131" lon="4.652">
        <ele>220</ele>
        <time>2018-04-11T09:27:15Z</time>
      </trkpt>
      <trkpt lat="45.87136" lon="4.65197">
        <ele>220</ele>
        <time>2018-04-11T09:27:16Z</time>
      </trkpt>
      <trkpt lat="45.87143" lon="4.65189">
        <ele>221</ele>
        <time>2018-04-11T09:27:18Z</time>
      </trkpt>
      <trkpt lat="45.87147" lon="4.65184">
        <ele>220</ele>
        <time>2018-04-11T09:27:19Z</time>
      </trkpt>
      <trkpt lat="45.87153" lon="4.65177">
        <ele>220</ele>
        <time>2018-04-11T09:27:21Z</time>
      </trkpt>
      <trkpt lat="45.87157" lon="4.65173">
        <ele>220</ele>
        <time>2018-04-11T09:27:22Z</time>
      </trkpt>
      <trkpt lat="45.87164" lon="4.65167">
        <ele>220</ele>
        <time>2018-04-11T09:27:24Z</time>
      </trkpt>
      <trkpt lat="45.87169" lon="4.65165">
        <ele>220</ele>
        <time>2018-04-11T09:27:25Z</time>
      </trkpt>
      <trkpt lat="45.87175" lon="4.65161">
        <ele>221</ele>
        <time>2018-04-11T09:27:27Z</time>
      </trkpt>
      <trkpt lat="45.87181" lon="4.65155">
        <ele>221</ele>
        <time>2018-04-11T09:27:28Z</time>
      </trkpt>
      <trkpt lat="45.87185" lon="4.65155">
        <ele>222</ele>
        <time>2018-04-11T09:27:30Z</time>
      </trkpt>
      <trkpt lat="45.87193" lon="4.65151">
        <ele>222</ele>
        <time>2018-04-11T09:27:31Z</time>
      </trkpt>
      <trkpt lat="45.87196" lon="4.6515">
        <ele>223</ele>
        <time>2018-04-11T09:27:32Z</time>
      </trkpt>
      <trkpt lat="45.87208" lon="4.65131">
        <ele>223</ele>
        <time>2018-04-11T09:27:33Z</time>
      </trkpt>
      <trkpt lat="45.87213" lon="4.65126">
        <ele>222</ele>
        <time>2018-04-11T09:27:34Z</time>
      </trkpt>
      <trkpt lat="45.87218" lon="4.65121">
        <ele>222</ele>
        <time>2018-04-11T09:27:35Z</time>
      </trkpt>
      <trkpt lat="45.87223" lon="4.65118">
        <ele>222</ele>
        <time>2018-04-11T09:27:36Z</time>
      </trkpt>
      <trkpt lat="45.87227" lon="4.65113">
        <ele>222</ele>
        <time>2018-04-11T09:27:37Z</time>
      </trkpt>
      <trkpt lat="45.87231" lon="4.65109">
        <ele>222</ele>
        <time>2018-04-11T09:27:38Z</time>
      </trkpt>
      <trkpt lat="45.87235" lon="4.65106">
        <ele>221</ele>
        <time>2018-04-11T09:27:39Z</time>
      </trkpt>
      <trkpt lat="45.8724" lon="4.65102">
        <ele>221</ele>
        <time>2018-04-11T09:27:40Z</time>
      </trkpt>
      <trkpt lat="45.87245" lon="4.65099">
        <ele>220</ele>
        <time>2018-04-11T09:27:41Z</time>
      </trkpt>
      <trkpt lat="45.87249" lon="4.65094">
        <ele>220</ele>
        <time>2018-04-11T09:27:42Z</time>
      </trkpt>
      <trkpt lat="45.87253" lon="4.6509">
        <ele>222</ele>
        <time>2018-04-11T09:27:43Z</time>
      </trkpt>
      <trkpt lat="45.87258" lon="4.6508">
        <ele>219</ele>
        <time>2018-04-11T09:27:44Z</time>
      </trkpt>
      <trkpt lat="45.87261" lon="4.65075">
        <ele>219</ele>
        <time>2018-04-11T09:27:45Z</time>
      </trkpt>
      <trkpt lat="45.87265" lon="4.65071">
        <ele>219</ele>
        <time>2018-04-11T09:27:46Z</time>
      </trkpt>
      <trkpt lat="45.87269" lon="4.65066">
        <ele>219</ele>
        <time>2018-04-11T09:27:47Z</time>
      </trkpt>
      <trkpt lat="45.87276" lon="4.65058">
        <ele>220</ele>
        <time>2018-04-11T09:27:49Z</time>
      </trkpt>
      <trkpt lat="45.87279" lon="4.65054">
        <ele>220</ele>
        <time>2018-04-11T09:27:50Z</time>
      </trkpt>
      <trkpt lat="45.87285" lon="4.65042">
        <ele>219</ele>
        <time>2018-04-11T09:27:51Z</time>
      </trkpt>
      <trkpt lat="45.87289" lon="4.65035">
        <ele>219</ele>
        <time>2018-04-11T09:27:52Z</time>
      </trkpt>
      <trkpt lat="45.87295" lon="4.65031">
        <ele>219</ele>
        <time>2018-04-11T09:27:53Z</time>
      </trkpt>
      <trkpt lat="45.87299" lon="4.65025">
        <ele>219</ele>
        <time>2018-04-11T09:27:54Z</time>
      </trkpt>
      <trkpt lat="45.87302" lon="4.65019">
        <ele>219</ele>
        <time>2018-04-11T09:27:55Z</time>
      </trkpt>
      <trkpt lat="45.87306" lon="4.65011">
        <ele>219</ele>
        <time>2018-04-11T09:27:57Z</time>
      </trkpt>
      <trkpt lat="45.87309" lon="4.65007">
        <ele>219</ele>
        <time>2018-04-11T09:27:58Z</time>
      </trkpt>
      <trkpt lat="45.87314" lon="4.64999">
        <ele>215</ele>
        <time>2018-04-11T09:28:00Z</time>
      </trkpt>
      <trkpt lat="45.87316" lon="4.64995">
        <ele>215</ele>
        <time>2018-04-11T09:28:01Z</time>
      </trkpt>
      <trkpt lat="45.87318" lon="4.64988">
        <ele>215</ele>
        <time>2018-04-11T09:28:02Z</time>
      </trkpt>
      <trkpt lat="45.87321" lon="4.64983">
        <ele>215</ele>
        <time>2018-04-11T09:28:03Z</time>
      </trkpt>
      <trkpt lat="45.87324" lon="4.64977">
        <ele>215</ele>
        <time>2018-04-11T09:28:04Z</time>
      </trkpt>
      <trkpt lat="45.87327" lon="4.64971">
        <ele>214</ele>
        <time>2018-04-11T09:28:05Z</time>
      </trkpt>
      <trkpt lat="45.87331" lon="4.64966">
        <ele>214</ele>
        <time>2018-04-11T09:28:06Z</time>
      </trkpt>
      <trkpt lat="45.87333" lon="4.64961">
        <ele>214</ele>
        <time>2018-04-11T09:28:07Z</time>
      </trkpt>
      <trkpt lat="45.87337" lon="4.64952">
        <ele>218</ele>
        <time>2018-04-11T09:28:09Z</time>
      </trkpt>
      <trkpt lat="45.8734" lon="4.64948">
        <ele>218</ele>
        <time>2018-04-11T09:28:10Z</time>
      </trkpt>
      <trkpt lat="45.87345" lon="4.64937">
        <ele>217</ele>
        <time>2018-04-11T09:28:12Z</time>
      </trkpt>
      <trkpt lat="45.87348" lon="4.64932">
        <ele>216</ele>
        <time>2018-04-11T09:28:13Z</time>
      </trkpt>
      <trkpt lat="45.87351" lon="4.64928">
        <ele>216</ele>
        <time>2018-04-11T09:28:14Z</time>
      </trkpt>
      <trkpt lat="45.87356" lon="4.64922">
        <ele>217</ele>
        <time>2018-04-11T09:28:15Z</time>
      </trkpt>
      <trkpt lat="45.87362" lon="4.64914">
        <ele>214</ele>
        <time>2018-04-11T09:28:17Z</time>
      </trkpt>
      <trkpt lat="45.87365" lon="4.64909">
        <ele>214</ele>
        <time>2018-04-11T09:28:18Z</time>
      </trkpt>
      <trkpt lat="45.8737" lon="4.649">
        <ele>215</ele>
        <time>2018-04-11T09:28:20Z</time>
      </trkpt>
      <trkpt lat="45.87374" lon="4.64895">
        <ele>215</ele>
        <time>2018-04-11T09:28:21Z</time>
      </trkpt>
      <trkpt lat="45.87378" lon="4.6489">
        <ele>215</ele>
        <time>2018-04-11T09:28:22Z</time>
      </trkpt>
      <trkpt lat="45.87382" lon="4.64886">
        <ele>215</ele>
        <time>2018-04-11T09:28:23Z</time>
      </trkpt>
      <trkpt lat="45.87386" lon="4.64882">
        <ele>215</ele>
        <time>2018-04-11T09:28:24Z</time>
      </trkpt>
      <trkpt lat="45.87389" lon="4.64879">
        <ele>215</ele>
        <time>2018-04-11T09:28:25Z</time>
      </trkpt>
      <trkpt lat="45.87393" lon="4.64874">
        <ele>215</ele>
        <time>2018-04-11T09:28:26Z</time>
      </trkpt>
      <trkpt lat="45.87397" lon="4.6487">
        <ele>215</ele>
        <time>2018-04-11T09:28:27Z</time>
      </trkpt>
      <trkpt lat="45.87401" lon="4.64866">
        <ele>215</ele>
        <time>2018-04-11T09:28:28Z</time>
      </trkpt>
      <trkpt lat="45.87405" lon="4.64862">
        <ele>215</ele>
        <time>2018-04-11T09:28:29Z</time>
      </trkpt>
      <trkpt lat="45.87409" lon="4.64859">
        <ele>215</ele>
        <time>2018-04-11T09:28:30Z</time>
      </trkpt>
      <trkpt lat="45.87412" lon="4.64854">
        <ele>215</ele>
        <time>2018-04-11T09:28:31Z</time>
      </trkpt>
      <trkpt lat="45.87416" lon="4.64847">
        <ele>215</ele>
        <time>2018-04-11T09:28:32Z</time>
      </trkpt>
      <trkpt lat="45.87419" lon="4.64844">
        <ele>217</ele>
        <time>2018-04-11T09:28:33Z</time>
      </trkpt>
      <trkpt lat="45.87426" lon="4.64836">
        <ele>217</ele>
        <time>2018-04-11T09:28:35Z</time>
      </trkpt>
      <trkpt lat="45.8743" lon="4.64832">
        <ele>215</ele>
        <time>2018-04-11T09:28:36Z</time>
      </trkpt>
      <trkpt lat="45.87433" lon="4.64828">
        <ele>215</ele>
        <time>2018-04-11T09:28:37Z</time>
      </trkpt>
      <trkpt lat="45.87437" lon="4.64823">
        <ele>215</ele>
        <time>2018-04-11T09:28:38Z</time>
      </trkpt>
      <trkpt lat="45.87443" lon="4.64815">
        <ele>215</ele>
        <time>2018-04-11T09:28:40Z</time>
      </trkpt>
      <trkpt lat="45.87447" lon="4.6481">
        <ele>215</ele>
        <time>2018-04-11T09:28:41Z</time>
      </trkpt>
      <trkpt lat="45.87453" lon="4.64801">
        <ele>214</ele>
        <time>2018-04-11T09:28:43Z</time>
      </trkpt>
      <trkpt lat="45.87456" lon="4.64796">
        <ele>214</ele>
        <time>2018-04-11T09:28:44Z</time>
      </trkpt>
      <trkpt lat="45.87462" lon="4.64789">
        <ele>214</ele>
        <time>2018-04-11T09:28:46Z</time>
      </trkpt>
      <trkpt lat="45.87465" lon="4.64785">
        <ele>214</ele>
        <time>2018-04-11T09:28:47Z</time>
      </trkpt>
      <trkpt lat="45.87471" lon="4.64777">
        <ele>214</ele>
        <time>2018-04-11T09:28:49Z</time>
      </trkpt>
      <trkpt lat="45.87474" lon="4.64774">
        <ele>214</ele>
        <time>2018-04-11T09:28:50Z</time>
      </trkpt>
      <trkpt lat="45.87477" lon="4.64767">
        <ele>214</ele>
        <time>2018-04-11T09:28:52Z</time>
      </trkpt>
      <trkpt lat="45.87482" lon="4.64762">
        <ele>214</ele>
        <time>2018-04-11T09:28:53Z</time>
      </trkpt>
      <trkpt lat="45.87488" lon="4.64755">
        <ele>213</ele>
        <time>2018-04-11T09:28:55Z</time>
      </trkpt>
      <trkpt lat="45.87492" lon="4.64751">
        <ele>213</ele>
        <time>2018-04-11T09:28:56Z</time>
      </trkpt>
      <trkpt lat="45.87495" lon="4.64746">
        <ele>213</ele>
        <time>2018-04-11T09:28:57Z</time>
      </trkpt>
      <trkpt lat="45.87498" lon="4.64741">
        <ele>213</ele>
        <time>2018-04-11T09:28:58Z</time>
      </trkpt>
      <trkpt lat="45.87501" lon="4.64734">
        <ele>213</ele>
        <time>2018-04-11T09:28:59Z</time>
      </trkpt>
      <trkpt lat="45.87505" lon="4.6473">
        <ele>213</ele>
        <time>2018-04-11T09:29:00Z</time>
      </trkpt>
      <trkpt lat="45.87509" lon="4.64725">
        <ele>213</ele>
        <time>2018-04-11T09:29:01Z</time>
      </trkpt>
      <trkpt lat="45.87513" lon="4.6472">
        <ele>213</ele>
        <time>2018-04-11T09:29:02Z</time>
      </trkpt>
      <trkpt lat="45.87517" lon="4.64715">
        <ele>212</ele>
        <time>2018-04-11T09:29:03Z</time>
      </trkpt>
      <trkpt lat="45.8752" lon="4.6471">
        <ele>212</ele>
        <time>2018-04-11T09:29:04Z</time>
      </trkpt>
      <trkpt lat="45.87523" lon="4.64705">
        <ele>212</ele>
        <time>2018-04-11T09:29:05Z</time>
      </trkpt>
      <trkpt lat="45.87526" lon="4.64701">
        <ele>212</ele>
        <time>2018-04-11T09:29:06Z</time>
      </trkpt>
      <trkpt lat="45.87532" lon="4.64692">
        <ele>212</ele>
        <time>2018-04-11T09:29:08Z</time>
      </trkpt>
      <trkpt lat="45.87535" lon="4.64688">
        <ele>212</ele>
        <time>2018-04-11T09:29:09Z</time>
      </trkpt>
      <trkpt lat="45.87541" lon="4.6468">
        <ele>212</ele>
        <time>2018-04-11T09:29:11Z</time>
      </trkpt>
      <trkpt lat="45.87545" lon="4.64675">
        <ele>212</ele>
        <time>2018-04-11T09:29:12Z</time>
      </trkpt>
      <trkpt lat="45.87547" lon="4.64671">
        <ele>212</ele>
        <time>2018-04-11T09:29:13Z</time>
      </trkpt>
      <trkpt lat="45.87551" lon="4.64666">
        <ele>212</ele>
        <time>2018-04-11T09:29:14Z</time>
      </trkpt>
      <trkpt lat="45.87558" lon="4.64658">
        <ele>212</ele>
        <time>2018-04-11T09:29:16Z</time>
      </trkpt>
      <trkpt lat="45.87561" lon="4.64654">
        <ele>212</ele>
        <time>2018-04-11T09:29:17Z</time>
      </trkpt>
      <trkpt lat="45.87566" lon="4.64646">
        <ele>212</ele>
        <time>2018-04-11T09:29:19Z</time>
      </trkpt>
      <trkpt lat="45.8757" lon="4.64642">
        <ele>212</ele>
        <time>2018-04-11T09:29:20Z</time>
      </trkpt>
      <trkpt lat="45.87573" lon="4.64638">
        <ele>212</ele>
        <time>2018-04-11T09:29:21Z</time>
      </trkpt>
      <trkpt lat="45.87577" lon="4.64634">
        <ele>212</ele>
        <time>2018-04-11T09:29:22Z</time>
      </trkpt>
      <trkpt lat="45.87583" lon="4.64626">
        <ele>212</ele>
        <time>2018-04-11T09:29:24Z</time>
      </trkpt>
      <trkpt lat="45.87586" lon="4.64622">
        <ele>212</ele>
        <time>2018-04-11T09:29:25Z</time>
      </trkpt>
      <trkpt lat="45.87592" lon="4.64614">
        <ele>212</ele>
        <time>2018-04-11T09:29:27Z</time>
      </trkpt>
      <trkpt lat="45.87595" lon="4.6461">
        <ele>212</ele>
        <time>2018-04-11T09:29:28Z</time>
      </trkpt>
      <trkpt lat="45.87599" lon="4.64605">
        <ele>212</ele>
        <time>2018-04-11T09:29:29Z</time>
      </trkpt>
      <trkpt lat="45.87602" lon="4.64601">
        <ele>212</ele>
        <time>2018-04-11T09:29:30Z</time>
      </trkpt>
      <trkpt lat="45.87609" lon="4.64594">
        <ele>212</ele>
        <time>2018-04-11T09:29:32Z</time>
      </trkpt>
      <trkpt lat="45.87612" lon="4.6459">
        <ele>212</ele>
        <time>2018-04-11T09:29:33Z</time>
      </trkpt>
      <trkpt lat="45.87618" lon="4.64581">
        <ele>212</ele>
        <time>2018-04-11T09:29:35Z</time>
      </trkpt>
      <trkpt lat="45.87621" lon="4.64577">
        <ele>212</ele>
        <time>2018-04-11T09:29:36Z</time>
      </trkpt>
      <trkpt lat="45.87628" lon="4.64569">
        <ele>212</ele>
        <time>2018-04-11T09:29:38Z</time>
      </trkpt>
      <trkpt lat="45.87631" lon="4.64565">
        <ele>212</ele>
        <time>2018-04-11T09:29:39Z</time>
      </trkpt>
      <trkpt lat="45.87636" lon="4.64557">
        <ele>212</ele>
        <time>2018-04-11T09:29:41Z</time>
      </trkpt>
      <trkpt lat="45.87639" lon="4.64552">
        <ele>212</ele>
        <time>2018-04-11T09:29:42Z</time>
      </trkpt>
      <trkpt lat="45.87643" lon="4.64547">
        <ele>212</ele>
        <time>2018-04-11T09:29:43Z</time>
      </trkpt>
      <trkpt lat="45.87646" lon="4.64543">
        <ele>213</ele>
        <time>2018-04-11T09:29:44Z</time>
      </trkpt>
      <trkpt lat="45.87651" lon="4.64536">
        <ele>213</ele>
        <time>2018-04-11T09:29:45Z</time>
      </trkpt>
      <trkpt lat="45.87654" lon="4.64532">
        <ele>213</ele>
        <time>2018-04-11T09:29:46Z</time>
      </trkpt>
      <trkpt lat="45.87659" lon="4.64523">
        <ele>213</ele>
        <time>2018-04-11T09:29:48Z</time>
      </trkpt>
      <trkpt lat="45.87662" lon="4.64519">
        <ele>213</ele>
        <time>2018-04-11T09:29:49Z</time>
      </trkpt>
      <trkpt lat="45.87667" lon="4.64511">
        <ele>215</ele>
        <time>2018-04-11T09:29:52Z</time>
      </trkpt>
      <trkpt lat="45.87668" lon="4.64509">
        <ele>214</ele>
        <time>2018-04-11T09:29:53Z</time>
      </trkpt>
      <trkpt lat="45.87674" lon="4.64504">
        <ele>214</ele>
        <time>2018-04-11T09:29:54Z</time>
      </trkpt>
      <trkpt lat="45.87678" lon="4.64502">
        <ele>215</ele>
        <time>2018-04-11T09:29:55Z</time>
      </trkpt>
      <trkpt lat="45.87684" lon="4.64503">
        <ele>215</ele>
        <time>2018-04-11T09:29:57Z</time>
      </trkpt>
      <trkpt lat="45.87687" lon="4.64509">
        <ele>215</ele>
        <time>2018-04-11T09:29:58Z</time>
      </trkpt>
      <trkpt lat="45.8769" lon="4.64513">
        <ele>215</ele>
        <time>2018-04-11T09:29:59Z</time>
      </trkpt>
      <trkpt lat="45.87694" lon="4.64523">
        <ele>215</ele>
        <time>2018-04-11T09:30:00Z</time>
      </trkpt>
      <trkpt lat="45.87699" lon="4.64532">
        <ele>215</ele>
        <time>2018-04-11T09:30:02Z</time>
      </trkpt>
      <trkpt lat="45.87702" lon="4.64536">
        <ele>216</ele>
        <time>2018-04-11T09:30:03Z</time>
      </trkpt>
      <trkpt lat="45.87709" lon="4.64543">
        <ele>216</ele>
        <time>2018-04-11T09:30:06Z</time>
      </trkpt>
      <trkpt lat="45.87713" lon="4.64548">
        <ele>216</ele>
        <time>2018-04-11T09:30:07Z</time>
      </trkpt>
      <trkpt lat="45.87717" lon="4.64557">
        <ele>216</ele>
        <time>2018-04-11T09:30:09Z</time>
      </trkpt>
      <trkpt lat="45.87718" lon="4.64562">
        <ele>216</ele>
        <time>2018-04-11T09:30:10Z</time>
      </trkpt>
      <trkpt lat="45.87718" lon="4.64574">
        <ele>217</ele>
        <time>2018-04-11T09:30:12Z</time>
      </trkpt>
      <trkpt lat="45.87717" lon="4.6458">
        <ele>217</ele>
        <time>2018-04-11T09:30:13Z</time>
      </trkpt>
      <trkpt lat="45.87717" lon="4.64591">
        <ele>217</ele>
        <time>2018-04-11T09:30:15Z</time>
      </trkpt>
      <trkpt lat="45.87717" lon="4.64594">
        <ele>217</ele>
        <time>2018-04-11T09:30:16Z</time>
      </trkpt>
      <trkpt lat="45.87716" lon="4.64606">
        <ele>217</ele>
        <time>2018-04-11T09:30:18Z</time>
      </trkpt>
      <trkpt lat="45.87717" lon="4.64611">
        <ele>217</ele>
        <time>2018-04-11T09:30:19Z</time>
      </trkpt>
      <trkpt lat="45.87718" lon="4.64622">
        <ele>217</ele>
        <time>2018-04-11T09:30:21Z</time>
      </trkpt>
      <trkpt lat="45.87719" lon="4.64628">
        <ele>217</ele>
        <time>2018-04-11T09:30:22Z</time>
      </trkpt>
      <trkpt lat="45.87721" lon="4.64634">
        <ele>217</ele>
        <time>2018-04-11T09:30:23Z</time>
      </trkpt>
      <trkpt lat="45.87723" lon="4.6464">
        <ele>217</ele>
        <time>2018-04-11T09:30:24Z</time>
      </trkpt>
      <trkpt lat="45.87726" lon="4.64651">
        <ele>217</ele>
        <time>2018-04-11T09:30:26Z</time>
      </trkpt>
      <trkpt lat="45.87726" lon="4.64654">
        <ele>217</ele>
        <time>2018-04-11T09:30:27Z</time>
      </trkpt>
      <trkpt lat="45.87723" lon="4.64666">
        <ele>217</ele>
        <time>2018-04-11T09:30:29Z</time>
      </trkpt>
      <trkpt lat="45.87721" lon="4.64672">
        <ele>216</ele>
        <time>2018-04-11T09:30:30Z</time>
      </trkpt>
      <trkpt lat="45.8772" lon="4.64684">
        <ele>216</ele>
        <time>2018-04-11T09:30:32Z</time>
      </trkpt>
      <trkpt lat="45.8772" lon="4.6469">
        <ele>216</ele>
        <time>2018-04-11T09:30:33Z</time>
      </trkpt>
      <trkpt lat="45.87718" lon="4.64702">
        <ele>215</ele>
        <time>2018-04-11T09:30:35Z</time>
      </trkpt>
      <trkpt lat="45.87717" lon="4.64708">
        <ele>215</ele>
        <time>2018-04-11T09:30:36Z</time>
      </trkpt>
      <trkpt lat="45.87719" lon="4.6472">
        <ele>215</ele>
        <time>2018-04-11T09:30:38Z</time>
      </trkpt>
      <trkpt lat="45.87721" lon="4.64726">
        <ele>215</ele>
        <time>2018-04-11T09:30:39Z</time>
      </trkpt>
      <trkpt lat="45.87722" lon="4.64733">
        <ele>214</ele>
        <time>2018-04-11T09:30:40Z</time>
      </trkpt>
      <trkpt lat="45.87724" lon="4.64738">
        <ele>214</ele>
        <time>2018-04-11T09:30:41Z</time>
      </trkpt>
      <trkpt lat="45.87726" lon="4.64746">
        <ele>214</ele>
        <time>2018-04-11T09:30:42Z</time>
      </trkpt>
      <trkpt lat="45.87727" lon="4.64751">
        <ele>213</ele>
        <time>2018-04-11T09:30:43Z</time>
      </trkpt>
      <trkpt lat="45.87728" lon="4.64757">
        <ele>213</ele>
        <time>2018-04-11T09:30:44Z</time>
      </trkpt>
      <trkpt lat="45.8773" lon="4.64764">
        <ele>213</ele>
        <time>2018-04-11T09:30:45Z</time>
      </trkpt>
      <trkpt lat="45.87732" lon="4.64776">
        <ele>213</ele>
        <time>2018-04-11T09:30:47Z</time>
      </trkpt>
      <trkpt lat="45.87734" lon="4.64782">
        <ele>213</ele>
        <time>2018-04-11T09:30:48Z</time>
      </trkpt>
      <trkpt lat="45.87737" lon="4.64789">
        <ele>213</ele>
        <time>2018-04-11T09:30:49Z</time>
      </trkpt>
      <trkpt lat="45.87739" lon="4.64794">
        <ele>214</ele>
        <time>2018-04-11T09:30:50Z</time>
      </trkpt>
      <trkpt lat="45.87743" lon="4.64803">
        <ele>214</ele>
        <time>2018-04-11T09:30:52Z</time>
      </trkpt>
      <trkpt lat="45.87746" lon="4.64808">
        <ele>214</ele>
        <time>2018-04-11T09:30:53Z</time>
      </trkpt>
      <trkpt lat="45.87751" lon="4.64817">
        <ele>214</ele>
        <time>2018-04-11T09:30:55Z</time>
      </trkpt>
      <trkpt lat="45.87754" lon="4.64822">
        <ele>214</ele>
        <time>2018-04-11T09:30:56Z</time>
      </trkpt>
      <trkpt lat="45.87759" lon="4.64832">
        <ele>214</ele>
        <time>2018-04-11T09:31:00Z</time>
      </trkpt>
      <trkpt lat="45.87761" lon="4.64834">
        <ele>216</ele>
        <time>2018-04-11T09:31:01Z</time>
      </trkpt>
      <trkpt lat="45.87765" lon="4.64842">
        <ele>216</ele>
        <time>2018-04-11T09:31:04Z</time>
      </trkpt>
      <trkpt lat="45.87766" lon="4.64845">
        <ele>216</ele>
        <time>2018-04-11T09:31:05Z</time>
      </trkpt>
      <trkpt lat="45.87771" lon="4.64853">
        <ele>217</ele>
        <time>2018-04-11T09:31:08Z</time>
      </trkpt>
      <trkpt lat="45.87772" lon="4.64855">
        <ele>217</ele>
        <time>2018-04-11T09:31:09Z</time>
      </trkpt>
      <trkpt lat="45.87777" lon="4.64866">
        <ele>218</ele>
        <time>2018-04-11T09:31:13Z</time>
      </trkpt>
      <trkpt lat="45.87778" lon="4.64869">
        <ele>218</ele>
        <time>2018-04-11T09:31:14Z</time>
      </trkpt>
      <trkpt lat="45.87783" lon="4.64877">
        <ele>219</ele>
        <time>2018-04-11T09:31:17Z</time>
      </trkpt>
      <trkpt lat="45.87784" lon="4.6488">
        <ele>219</ele>
        <time>2018-04-11T09:31:18Z</time>
      </trkpt>
      <trkpt lat="45.87789" lon="4.64888">
        <ele>219</ele>
        <time>2018-04-11T09:31:21Z</time>
      </trkpt>
      <trkpt lat="45.8779" lon="4.6489">
        <ele>219</ele>
        <time>2018-04-11T09:31:22Z</time>
      </trkpt>
      <trkpt lat="45.87794" lon="4.64899">
        <ele>219</ele>
        <time>2018-04-11T09:31:25Z</time>
      </trkpt>
      <trkpt lat="45.87795" lon="4.64902">
        <ele>220</ele>
        <time>2018-04-11T09:31:26Z</time>
      </trkpt>
      <trkpt lat="45.87799" lon="4.6491">
        <ele>220</ele>
        <time>2018-04-11T09:31:29Z</time>
      </trkpt>
      <trkpt lat="45.878" lon="4.64913">
        <ele>220</ele>
        <time>2018-04-11T09:31:30Z</time>
      </trkpt>
      <trkpt lat="45.87805" lon="4.64923">
        <ele>224</ele>
        <time>2018-04-11T09:31:34Z</time>
      </trkpt>
      <trkpt lat="45.87806" lon="4.64926">
        <ele>224</ele>
        <time>2018-04-11T09:31:35Z</time>
      </trkpt>
      <trkpt lat="45.87811" lon="4.64933">
        <ele>225</ele>
        <time>2018-04-11T09:31:38Z</time>
      </trkpt>
      <trkpt lat="45.87812" lon="4.64935">
        <ele>225</ele>
        <time>2018-04-11T09:31:39Z</time>
      </trkpt>
      <trkpt lat="45.87819" lon="4.64944">
        <ele>225</ele>
        <time>2018-04-11T09:31:43Z</time>
      </trkpt>
      <trkpt lat="45.8782" lon="4.64946">
        <ele>225</ele>
        <time>2018-04-11T09:31:44Z</time>
      </trkpt>
      <trkpt lat="45.87826" lon="4.64954">
        <ele>226</ele>
        <time>2018-04-11T09:31:48Z</time>
      </trkpt>
      <trkpt lat="45.87827" lon="4.64955">
        <ele>226</ele>
        <time>2018-04-11T09:31:49Z</time>
      </trkpt>
      <trkpt lat="45.87834" lon="4.64963">
        <ele>228</ele>
        <time>2018-04-11T09:31:55Z</time>
      </trkpt>
      <trkpt lat="45.87835" lon="4.64964">
        <ele>228</ele>
        <time>2018-04-11T09:31:56Z</time>
      </trkpt>
      <trkpt lat="45.87842" lon="4.6497">
        <ele>229</ele>
        <time>2018-04-11T09:32:00Z</time>
      </trkpt>
      <trkpt lat="45.87844" lon="4.64971">
        <ele>229</ele>
        <time>2018-04-11T09:32:01Z</time>
      </trkpt>
      <trkpt lat="45.87851" lon="4.64976">
        <ele>229</ele>
        <time>2018-04-11T09:32:05Z</time>
      </trkpt>
      <trkpt lat="45.87853" lon="4.64977">
        <ele>229</ele>
        <time>2018-04-11T09:32:06Z</time>
      </trkpt>
      <trkpt lat="45.87859" lon="4.64981">
        <ele>230</ele>
        <time>2018-04-11T09:32:10Z</time>
      </trkpt>
      <trkpt lat="45.87861" lon="4.64982">
        <ele>230</ele>
        <time>2018-04-11T09:32:11Z</time>
      </trkpt>
      <trkpt lat="45.87868" lon="4.64984">
        <ele>230</ele>
        <time>2018-04-11T09:32:15Z</time>
      </trkpt>
      <trkpt lat="45.8787" lon="4.64984">
        <ele>230</ele>
        <time>2018-04-11T09:32:16Z</time>
      </trkpt>
      <trkpt lat="45.87878" lon="4.64986">
        <ele>231</ele>
        <time>2018-04-11T09:32:20Z</time>
      </trkpt>
      <trkpt lat="45.8788" lon="4.64987">
        <ele>231</ele>
        <time>2018-04-11T09:32:21Z</time>
      </trkpt>
      <trkpt lat="45.87888" lon="4.64989">
        <ele>231</ele>
        <time>2018-04-11T09:32:25Z</time>
      </trkpt>
      <trkpt lat="45.8789" lon="4.64989">
        <ele>232</ele>
        <time>2018-04-11T09:32:26Z</time>
      </trkpt>
      <trkpt lat="45.87897" lon="4.64991">
        <ele>232</ele>
        <time>2018-04-11T09:32:30Z</time>
      </trkpt>
      <trkpt lat="45.87899" lon="4.64991">
        <ele>233</ele>
        <time>2018-04-11T09:32:31Z</time>
      </trkpt>
      <trkpt lat="45.87907" lon="4.64989">
        <ele>233</ele>
        <time>2018-04-11T09:32:35Z</time>
      </trkpt>
      <trkpt lat="45.87909" lon="4.64989">
        <ele>234</ele>
        <time>2018-04-11T09:32:36Z</time>
      </trkpt>
      <trkpt lat="45.87917" lon="4.64989">
        <ele>234</ele>
        <time>2018-04-11T09:32:40Z</time>
      </trkpt>
      <trkpt lat="45.87919" lon="4.64989">
        <ele>237</ele>
        <time>2018-04-11T09:32:41Z</time>
      </trkpt>
      <trkpt lat="45.87926" lon="4.64987">
        <ele>237</ele>
        <time>2018-04-11T09:32:45Z</time>
      </trkpt>
      <trkpt lat="45.87928" lon="4.64986">
        <ele>237</ele>
        <time>2018-04-11T09:32:46Z</time>
      </trkpt>
      <trkpt lat="45.87936" lon="4.64983">
        <ele>237</ele>
        <time>2018-04-11T09:32:50Z</time>
      </trkpt>
      <trkpt lat="45.87938" lon="4.64982">
        <ele>237</ele>
        <time>2018-04-11T09:32:51Z</time>
      </trkpt>
      <trkpt lat="45.87945" lon="4.64977">
        <ele>237</ele>
        <time>2018-04-11T09:32:55Z</time>
      </trkpt>
      <trkpt lat="45.87947" lon="4.64976">
        <ele>237</ele>
        <time>2018-04-11T09:32:56Z</time>
      </trkpt>
      <trkpt lat="45.87954" lon="4.64971">
        <ele>238</ele>
        <time>2018-04-11T09:33:00Z</time>
      </trkpt>
      <trkpt lat="45.87956" lon="4.64969">
        <ele>238</ele>
        <time>2018-04-11T09:33:01Z</time>
      </trkpt>
      <trkpt lat="45.87964" lon="4.64964">
        <ele>238</ele>
        <time>2018-04-11T09:33:05Z</time>
      </trkpt>
      <trkpt lat="45.87965" lon="4.64963">
        <ele>238</ele>
        <time>2018-04-11T09:33:06Z</time>
      </trkpt>
      <trkpt lat="45.87973" lon="4.64959">
        <ele>238</ele>
        <time>2018-04-11T09:33:10Z</time>
      </trkpt>
      <trkpt lat="45.87975" lon="4.64958">
        <ele>238</ele>
        <time>2018-04-11T09:33:11Z</time>
      </trkpt>
      <trkpt lat="45.87982" lon="4.64952">
        <ele>238</ele>
        <time>2018-04-11T09:33:15Z</time>
      </trkpt>
      <trkpt lat="45.87983" lon="4.6495">
        <ele>238</ele>
        <time>2018-04-11T09:33:16Z</time>
      </trkpt>
      <trkpt lat="45.8799" lon="4.64944">
        <ele>237</ele>
        <time>2018-04-11T09:33:20Z</time>
      </trkpt>
      <trkpt lat="45.87992" lon="4.64943">
        <ele>237</ele>
        <time>2018-04-11T09:33:21Z</time>
      </trkpt>
      <trkpt lat="45.87999" lon="4.64936">
        <ele>237</ele>
        <time>2018-04-11T09:33:25Z</time>
      </trkpt>
      <trkpt lat="45.88001" lon="4.64935">
        <ele>243</ele>
        <time>2018-04-11T09:33:26Z</time>
      </trkpt>
      <trkpt lat="45.88007" lon="4.64931">
        <ele>243</ele>
        <time>2018-04-11T09:33:29Z</time>
      </trkpt>
      <trkpt lat="45.88009" lon="4.64929">
        <ele>243</ele>
        <time>2018-04-11T09:33:30Z</time>
      </trkpt>
      <trkpt lat="45.88016" lon="4.64924">
        <ele>243</ele>
        <time>2018-04-11T09:33:34Z</time>
      </trkpt>
      <trkpt lat="45.88017" lon="4.64923">
        <ele>244</ele>
        <time>2018-04-11T09:33:35Z</time>
      </trkpt>
      <trkpt lat="45.88024" lon="4.64915">
        <ele>238</ele>
        <time>2018-04-11T09:33:39Z</time>
      </trkpt>
      <trkpt lat="45.88025" lon="4.64914">
        <ele>238</ele>
        <time>2018-04-11T09:33:40Z</time>
      </trkpt>
      <trkpt lat="45.88031" lon="4.64908">
        <ele>238</ele>
        <time>2018-04-11T09:33:44Z</time>
      </trkpt>
      <trkpt lat="45.88033" lon="4.64906">
        <ele>239</ele>
        <time>2018-04-11T09:33:45Z</time>
      </trkpt>
      <trkpt lat="45.8804" lon="4.649">
        <ele>239</ele>
        <time>2018-04-11T09:33:50Z</time>
      </trkpt>
      <trkpt lat="45.88042" lon="4.64898">
        <ele>239</ele>
        <time>2018-04-11T09:33:51Z</time>
      </trkpt>
      <trkpt lat="45.88049" lon="4.64891">
        <ele>240</ele>
        <time>2018-04-11T09:33:55Z</time>
      </trkpt>
      <trkpt lat="45.88051" lon="4.64889">
        <ele>240</ele>
        <time>2018-04-11T09:33:56Z</time>
      </trkpt>
      <trkpt lat="45.88059" lon="4.64883">
        <ele>240</ele>
        <time>2018-04-11T09:34:00Z</time>
      </trkpt>
      <trkpt lat="45.8806" lon="4.64882">
        <ele>240</ele>
        <time>2018-04-11T09:34:01Z</time>
      </trkpt>
      <trkpt lat="45.88067" lon="4.64876">
        <ele>240</ele>
        <time>2018-04-11T09:34:05Z</time>
      </trkpt>
      <trkpt lat="45.88069" lon="4.64875">
        <ele>240</ele>
        <time>2018-04-11T09:34:06Z</time>
      </trkpt>
      <trkpt lat="45.88077" lon="4.64869">
        <ele>239</ele>
        <time>2018-04-11T09:34:10Z</time>
      </trkpt>
      <trkpt lat="45.88079" lon="4.64868">
        <ele>239</ele>
        <time>2018-04-11T09:34:11Z</time>
      </trkpt>
      <trkpt lat="45.88088" lon="4.64864">
        <ele>246</ele>
        <time>2018-04-11T09:34:15Z</time>
      </trkpt>
      <trkpt lat="45.8809" lon="4.64864">
        <ele>246</ele>
        <time>2018-04-11T09:34:16Z</time>
      </trkpt>
      <trkpt lat="45.88098" lon="4.64862">
        <ele>246</ele>
        <time>2018-04-11T09:34:20Z</time>
      </trkpt>
      <trkpt lat="45.881" lon="4.64861">
        <ele>246</ele>
        <time>2018-04-11T09:34:21Z</time>
      </trkpt>
      <trkpt lat="45.88107" lon="4.64859">
        <ele>246</ele>
        <time>2018-04-11T09:34:25Z</time>
      </trkpt>
      <trkpt lat="45.88109" lon="4.64858">
        <ele>247</ele>
        <time>2018-04-11T09:34:26Z</time>
      </trkpt>
      <trkpt lat="45.88117" lon="4.64855">
        <ele>247</ele>
        <time>2018-04-11T09:34:30Z</time>
      </trkpt>
      <trkpt lat="45.88119" lon="4.64855">
        <ele>247</ele>
        <time>2018-04-11T09:34:31Z</time>
      </trkpt>
      <trkpt lat="45.88126" lon="4.64853">
        <ele>247</ele>
        <time>2018-04-11T09:34:34Z</time>
      </trkpt>
      <trkpt lat="45.88129" lon="4.64853">
        <ele>247</ele>
        <time>2018-04-11T09:34:35Z</time>
      </trkpt>
      <trkpt lat="45.88137" lon="4.6485">
        <ele>248</ele>
        <time>2018-04-11T09:34:39Z</time>
      </trkpt>
      <trkpt lat="45.88139" lon="4.64849">
        <ele>248</ele>
        <time>2018-04-11T09:34:40Z</time>
      </trkpt>
      <trkpt lat="45.88147" lon="4.64847">
        <ele>248</ele>
        <time>2018-04-11T09:34:44Z</time>
      </trkpt>
      <trkpt lat="45.88149" lon="4.64847">
        <ele>247</ele>
        <time>2018-04-11T09:34:45Z</time>
      </trkpt>
      <trkpt lat="45.88157" lon="4.64846">
        <ele>247</ele>
        <time>2018-04-11T09:34:49Z</time>
      </trkpt>
      <trkpt lat="45.88159" lon="4.64846">
        <ele>247</ele>
        <time>2018-04-11T09:34:50Z</time>
      </trkpt>
      <trkpt lat="45.88166" lon="4.64844">
        <ele>247</ele>
        <time>2018-04-11T09:34:54Z</time>
      </trkpt>
      <trkpt lat="45.88168" lon="4.64844">
        <ele>250</ele>
        <time>2018-04-11T09:34:55Z</time>
      </trkpt>
      <trkpt lat="45.88176" lon="4.64842">
        <ele>250</ele>
        <time>2018-04-11T09:35:00Z</time>
      </trkpt>
      <trkpt lat="45.88177" lon="4.64841">
        <ele>250</ele>
        <time>2018-04-11T09:35:01Z</time>
      </trkpt>
      <trkpt lat="45.88186" lon="4.64839">
        <ele>252</ele>
        <time>2018-04-11T09:35:06Z</time>
      </trkpt>
      <trkpt lat="45.88188" lon="4.64838">
        <ele>253</ele>
        <time>2018-04-11T09:35:07Z</time>
      </trkpt>
      <trkpt lat="45.88195" lon="4.64836">
        <ele>254</ele>
        <time>2018-04-11T09:35:11Z</time>
      </trkpt>
      <trkpt lat="45.88197" lon="4.64836">
        <ele>254</ele>
        <time>2018-04-11T09:35:12Z</time>
      </trkpt>
      <trkpt lat="45.88204" lon="4.64834">
        <ele>255</ele>
        <time>2018-04-11T09:35:16Z</time>
      </trkpt>
      <trkpt lat="45.88206" lon="4.64834">
        <ele>255</ele>
        <time>2018-04-11T09:35:17Z</time>
      </trkpt>
      <trkpt lat="45.88213" lon="4.64832">
        <ele>247</ele>
        <time>2018-04-11T09:35:21Z</time>
      </trkpt>
      <trkpt lat="45.88215" lon="4.64832">
        <ele>247</ele>
        <time>2018-04-11T09:35:22Z</time>
      </trkpt>
      <trkpt lat="45.88223" lon="4.6483">
        <ele>248</ele>
        <time>2018-04-11T09:35:27Z</time>
      </trkpt>
      <trkpt lat="45.88225" lon="4.6483">
        <ele>248</ele>
        <time>2018-04-11T09:35:28Z</time>
      </trkpt>
      <trkpt lat="45.88232" lon="4.64827">
        <ele>250</ele>
        <time>2018-04-11T09:35:33Z</time>
      </trkpt>
      <trkpt lat="45.88233" lon="4.64827">
        <ele>250</ele>
        <time>2018-04-11T09:35:34Z</time>
      </trkpt>
      <trkpt lat="45.88242" lon="4.64827">
        <ele>252</ele>
        <time>2018-04-11T09:35:40Z</time>
      </trkpt>
      <trkpt lat="45.88243" lon="4.64827">
        <ele>253</ele>
        <time>2018-04-11T09:35:41Z</time>
      </trkpt>
      <trkpt lat="45.88251" lon="4.64826">
        <ele>257</ele>
        <time>2018-04-11T09:35:48Z</time>
      </trkpt>
      <trkpt lat="45.88252" lon="4.64825">
        <ele>257</ele>
        <time>2018-04-11T09:35:49Z</time>
      </trkpt>
      <trkpt lat="45.8826" lon="4.64822">
        <ele>257</ele>
        <time>2018-04-11T09:35:56Z</time>
      </trkpt>
      <trkpt lat="45.88262" lon="4.64821">
        <ele>257</ele>
        <time>2018-04-11T09:35:57Z</time>
      </trkpt>
      <trkpt lat="45.8827" lon="4.64817">
        <ele>257</ele>
        <time>2018-04-11T09:36:03Z</time>
      </trkpt>
      <trkpt lat="45.88271" lon="4.64816">
        <ele>257</ele>
        <time>2018-04-11T09:36:04Z</time>
      </trkpt>
      <trkpt lat="45.88279" lon="4.64815">
        <ele>258</ele>
        <time>2018-04-11T09:36:10Z</time>
      </trkpt>
      <trkpt lat="45.8828" lon="4.64815">
        <ele>258</ele>
        <time>2018-04-11T09:36:11Z</time>
      </trkpt>
      <trkpt lat="45.88288" lon="4.64813">
        <ele>259</ele>
        <time>2018-04-11T09:36:17Z</time>
      </trkpt>
      <trkpt lat="45.88289" lon="4.64812">
        <ele>259</ele>
        <time>2018-04-11T09:36:18Z</time>
      </trkpt>
      <trkpt lat="45.88297" lon="4.64809">
        <ele>259</ele>
        <time>2018-04-11T09:36:23Z</time>
      </trkpt>
      <trkpt lat="45.88299" lon="4.64808">
        <ele>259</ele>
        <time>2018-04-11T09:36:24Z</time>
      </trkpt>
      <trkpt lat="45.88307" lon="4.64806">
        <ele>260</ele>
        <time>2018-04-11T09:36:29Z</time>
      </trkpt>
      <trkpt lat="45.88309" lon="4.64805">
        <ele>260</ele>
        <time>2018-04-11T09:36:30Z</time>
      </trkpt>
      <trkpt lat="45.88317" lon="4.64802">
        <ele>261</ele>
        <time>2018-04-11T09:36:35Z</time>
      </trkpt>
      <trkpt lat="45.88319" lon="4.64802">
        <ele>261</ele>
        <time>2018-04-11T09:36:36Z</time>
      </trkpt>
      <trkpt lat="45.88327" lon="4.64798">
        <ele>261</ele>
        <time>2018-04-11T09:36:42Z</time>
      </trkpt>
      <trkpt lat="45.88329" lon="4.64798">
        <ele>261</ele>
        <time>2018-04-11T09:36:43Z</time>
      </trkpt>
      <trkpt lat="45.88338" lon="4.64797">
        <ele>267</ele>
        <time>2018-04-11T09:36:49Z</time>
      </trkpt>
      <trkpt lat="45.88339" lon="4.64796">
        <ele>267</ele>
        <time>2018-04-11T09:36:50Z</time>
      </trkpt>
      <trkpt lat="45.88347" lon="4.64794">
        <ele>267</ele>
        <time>2018-04-11T09:36:55Z</time>
      </trkpt>
      <trkpt lat="45.88348" lon="4.64793">
        <ele>267</ele>
        <time>2018-04-11T09:36:56Z</time>
      </trkpt>
      <trkpt lat="45.88356" lon="4.6479">
        <ele>267</ele>
        <time>2018-04-11T09:37:01Z</time>
      </trkpt>
      <trkpt lat="45.88358" lon="4.64789">
        <ele>267</ele>
        <time>2018-04-11T09:37:02Z</time>
      </trkpt>
      <trkpt lat="45.88365" lon="4.64788">
        <ele>267</ele>
        <time>2018-04-11T09:37:06Z</time>
      </trkpt>
      <trkpt lat="45.88367" lon="4.64788">
        <ele>267</ele>
        <time>2018-04-11T09:37:07Z</time>
      </trkpt>
      <trkpt lat="45.88375" lon="4.64787">
        <ele>267</ele>
        <time>2018-04-11T09:37:12Z</time>
      </trkpt>
      <trkpt lat="45.88376" lon="4.64787">
        <ele>267</ele>
        <time>2018-04-11T09:37:13Z</time>
      </trkpt>
      <trkpt lat="45.88384" lon="4.64787">
        <ele>267</ele>
        <time>2018-04-11T09:37:18Z</time>
      </trkpt>
      <trkpt lat="45.88386" lon="4.64787">
        <ele>267</ele>
        <time>2018-04-11T09:37:19Z</time>
      </trkpt>
      <trkpt lat="45.88393" lon="4.64787">
        <ele>268</ele>
        <time>2018-04-11T09:37:23Z</time>
      </trkpt>
      <trkpt lat="45.88395" lon="4.64787">
        <ele>268</ele>
        <time>2018-04-11T09:37:24Z</time>
      </trkpt>
      <trkpt lat="45.88403" lon="4.64785">
        <ele>268</ele>
        <time>2018-04-11T09:37:29Z</time>
      </trkpt>
      <trkpt lat="45.88405" lon="4.64784">
        <ele>268</ele>
        <time>2018-04-11T09:37:30Z</time>
      </trkpt>
      <trkpt lat="45.88412" lon="4.64783">
        <ele>267</ele>
        <time>2018-04-11T09:37:35Z</time>
      </trkpt>
      <trkpt lat="45.88414" lon="4.64783">
        <ele>267</ele>
        <time>2018-04-11T09:37:36Z</time>
      </trkpt>
      <trkpt lat="45.88422" lon="4.64782">
        <ele>270</ele>
        <time>2018-04-11T09:37:42Z</time>
      </trkpt>
      <trkpt lat="45.88424" lon="4.64781">
        <ele>270</ele>
        <time>2018-04-11T09:37:43Z</time>
      </trkpt>
      <trkpt lat="45.88432" lon="4.64778">
        <ele>270</ele>
        <time>2018-04-11T09:37:49Z</time>
      </trkpt>
      <trkpt lat="45.88434" lon="4.64778">
        <ele>270</ele>
        <time>2018-04-11T09:37:50Z</time>
      </trkpt>
      <trkpt lat="45.88442" lon="4.64779">
        <ele>271</ele>
        <time>2018-04-11T09:37:55Z</time>
      </trkpt>
      <trkpt lat="45.88444" lon="4.64779">
        <ele>271</ele>
        <time>2018-04-11T09:37:56Z</time>
      </trkpt>
      <trkpt lat="45.88453" lon="4.64779">
        <ele>271</ele>
        <time>2018-04-11T09:38:01Z</time>
      </trkpt>
      <trkpt lat="45.88454" lon="4.64778">
        <ele>271</ele>
        <time>2018-04-11T09:38:02Z</time>
      </trkpt>
      <trkpt lat="45.88463" lon="4.64776">
        <ele>271</ele>
        <time>2018-04-11T09:38:07Z</time>
      </trkpt>
      <trkpt lat="45.88464" lon="4.64776">
        <ele>271</ele>
        <time>2018-04-11T09:38:08Z</time>
      </trkpt>
      <trkpt lat="45.88472" lon="4.64774">
        <ele>271</ele>
        <time>2018-04-11T09:38:12Z</time>
      </trkpt>
      <trkpt lat="45.88473" lon="4.64774">
        <ele>271</ele>
        <time>2018-04-11T09:38:13Z</time>
      </trkpt>
      <trkpt lat="45.88481" lon="4.64774">
        <ele>271</ele>
        <time>2018-04-11T09:38:17Z</time>
      </trkpt>
      <trkpt lat="45.88483" lon="4.64773">
        <ele>271</ele>
        <time>2018-04-11T09:38:18Z</time>
      </trkpt>
      <trkpt lat="45.8849" lon="4.64773">
        <ele>271</ele>
        <time>2018-04-11T09:38:22Z</time>
      </trkpt>
      <trkpt lat="45.88492" lon="4.64774">
        <ele>271</ele>
        <time>2018-04-11T09:38:23Z</time>
      </trkpt>
      <trkpt lat="45.88499" lon="4.64774">
        <ele>271</ele>
        <time>2018-04-11T09:38:27Z</time>
      </trkpt>
      <trkpt lat="45.88501" lon="4.64774">
        <ele>271</ele>
        <time>2018-04-11T09:38:28Z</time>
      </trkpt>
      <trkpt lat="45.88508" lon="4.64775">
        <ele>271</ele>
        <time>2018-04-11T09:38:32Z</time>
      </trkpt>
      <trkpt lat="45.8851" lon="4.64776">
        <ele>271</ele>
        <time>2018-04-11T09:38:33Z</time>
      </trkpt>
      <trkpt lat="45.88518" lon="4.64778">
        <ele>271</ele>
        <time>2018-04-11T09:38:38Z</time>
      </trkpt>
      <trkpt lat="45.8852" lon="4.64779">
        <ele>271</ele>
        <time>2018-04-11T09:38:39Z</time>
      </trkpt>
      <trkpt lat="45.88527" lon="4.64783">
        <ele>272</ele>
        <time>2018-04-11T09:38:44Z</time>
      </trkpt>
      <trkpt lat="45.88529" lon="4.64785">
        <ele>272</ele>
        <time>2018-04-11T09:38:45Z</time>
      </trkpt>
      <trkpt lat="45.88535" lon="4.64793">
        <ele>272</ele>
        <time>2018-04-11T09:38:50Z</time>
      </trkpt>
      <trkpt lat="45.88537" lon="4.64795">
        <ele>272</ele>
        <time>2018-04-11T09:38:51Z</time>
      </trkpt>
      <trkpt lat="45.88542" lon="4.64803">
        <ele>272</ele>
        <time>2018-04-11T09:38:56Z</time>
      </trkpt>
      <trkpt lat="45.88543" lon="4.64805">
        <ele>272</ele>
        <time>2018-04-11T09:38:57Z</time>
      </trkpt>
      <trkpt lat="45.88545" lon="4.64817">
        <ele>273</ele>
        <time>2018-04-11T09:39:02Z</time>
      </trkpt>
      <trkpt lat="45.88545" lon="4.64819">
        <ele>273</ele>
        <time>2018-04-11T09:39:03Z</time>
      </trkpt>
      <trkpt lat="45.88546" lon="4.6483">
        <ele>273</ele>
        <time>2018-04-11T09:39:08Z</time>
      </trkpt>
      <trkpt lat="45.88546" lon="4.64833">
        <ele>273</ele>
        <time>2018-04-11T09:39:09Z</time>
      </trkpt>
      <trkpt lat="45.88546" lon="4.64845">
        <ele>277</ele>
        <time>2018-04-11T09:39:14Z</time>
      </trkpt>
      <trkpt lat="45.88546" lon="4.64847">
        <ele>277</ele>
        <time>2018-04-11T09:39:15Z</time>
      </trkpt>
      <trkpt lat="45.88545" lon="4.64858">
        <ele>277</ele>
        <time>2018-04-11T09:39:20Z</time>
      </trkpt>
      <trkpt lat="45.88545" lon="4.64861">
        <ele>277</ele>
        <time>2018-04-11T09:39:21Z</time>
      </trkpt>
      <trkpt lat="45.88543" lon="4.64872">
        <ele>277</ele>
        <time>2018-04-11T09:39:26Z</time>
      </trkpt>
      <trkpt lat="45.88542" lon="4.64874">
        <ele>277</ele>
        <time>2018-04-11T09:39:27Z</time>
      </trkpt>
      <trkpt lat="45.8854" lon="4.64887">
        <ele>277</ele>
        <time>2018-04-11T09:39:33Z</time>
      </trkpt>
      <trkpt lat="45.8854" lon="4.64889">
        <ele>278</ele>
        <time>2018-04-11T09:39:34Z</time>
      </trkpt>
      <trkpt lat="45.88541" lon="4.649">
        <ele>278</ele>
        <time>2018-04-11T09:39:39Z</time>
      </trkpt>
      <trkpt lat="45.8854" lon="4.64902">
        <ele>278</ele>
        <time>2018-04-11T09:39:40Z</time>
      </trkpt>
      <trkpt lat="45.88536" lon="4.64914">
        <ele>278</ele>
        <time>2018-04-11T09:39:46Z</time>
      </trkpt>
      <trkpt lat="45.88535" lon="4.64916">
        <ele>278</ele>
        <time>2018-04-11T09:39:47Z</time>
      </trkpt>
      <trkpt lat="45.88534" lon="4.64928">
        <ele>280</ele>
        <time>2018-04-11T09:39:52Z</time>
      </trkpt>
      <trkpt lat="45.88534" lon="4.64931">
        <ele>281</ele>
        <time>2018-04-11T09:39:53Z</time>
      </trkpt>
      <trkpt lat="45.88531" lon="4.64942">
        <ele>281</ele>
        <time>2018-04-11T09:39:58Z</time>
      </trkpt>
      <trkpt lat="45.88531" lon="4.64944">
        <ele>281</ele>
        <time>2018-04-11T09:39:59Z</time>
      </trkpt>
      <trkpt lat="45.88528" lon="4.64955">
        <ele>281</ele>
        <time>2018-04-11T09:40:04Z</time>
      </trkpt>
      <trkpt lat="45.88527" lon="4.64957">
        <ele>281</ele>
        <time>2018-04-11T09:40:05Z</time>
      </trkpt>
      <trkpt lat="45.88524" lon="4.64968">
        <ele>282</ele>
        <time>2018-04-11T09:40:11Z</time>
      </trkpt>
      <trkpt lat="45.88524" lon="4.6497">
        <ele>282</ele>
        <time>2018-04-11T09:40:12Z</time>
      </trkpt>
      <trkpt lat="45.88522" lon="4.64981">
        <ele>283</ele>
        <time>2018-04-11T09:40:17Z</time>
      </trkpt>
      <trkpt lat="45.88521" lon="4.64983">
        <ele>283</ele>
        <time>2018-04-11T09:40:18Z</time>
      </trkpt>
      <trkpt lat="45.88519" lon="4.64995">
        <ele>284</ele>
        <time>2018-04-11T09:40:24Z</time>
      </trkpt>
      <trkpt lat="45.88519" lon="4.64997">
        <ele>284</ele>
        <time>2018-04-11T09:40:25Z</time>
      </trkpt>
      <trkpt lat="45.88519" lon="4.65008">
        <ele>286</ele>
        <time>2018-04-11T09:40:30Z</time>
      </trkpt>
      <trkpt lat="45.88519" lon="4.65011">
        <ele>286</ele>
        <time>2018-04-11T09:40:31Z</time>
      </trkpt>
      <trkpt lat="45.88516" lon="4.65021">
        <ele>286</ele>
        <time>2018-04-11T09:40:36Z</time>
      </trkpt>
      <trkpt lat="45.88515" lon="4.65023">
        <ele>286</ele>
        <time>2018-04-11T09:40:37Z</time>
      </trkpt>
      <trkpt lat="45.88513" lon="4.65033">
        <ele>286</ele>
        <time>2018-04-11T09:40:42Z</time>
      </trkpt>
      <trkpt lat="45.88512" lon="4.65035">
        <ele>286</ele>
        <time>2018-04-11T09:40:43Z</time>
      </trkpt>
      <trkpt lat="45.88509" lon="4.65045">
        <ele>286</ele>
        <time>2018-04-11T09:40:48Z</time>
      </trkpt>
      <trkpt lat="45.88508" lon="4.65047">
        <ele>286</ele>
        <time>2018-04-11T09:40:49Z</time>
      </trkpt>
      <trkpt lat="45.88504" lon="4.65056">
        <ele>286</ele>
        <time>2018-04-11T09:40:53Z</time>
      </trkpt>
      <trkpt lat="45.88504" lon="4.65059">
        <ele>286</ele>
        <time>2018-04-11T09:40:54Z</time>
      </trkpt>
      <trkpt lat="45.88501" lon="4.65068">
        <ele>287</ele>
        <time>2018-04-11T09:40:58Z</time>
      </trkpt>
      <trkpt lat="45.885" lon="4.6507">
        <ele>290</ele>
        <time>2018-04-11T09:40:59Z</time>
      </trkpt>
      <trkpt lat="45.88496" lon="4.65079">
        <ele>290</ele>
        <time>2018-04-11T09:41:03Z</time>
      </trkpt>
      <trkpt lat="45.88495" lon="4.65082">
        <ele>290</ele>
        <time>2018-04-11T09:41:04Z</time>
      </trkpt>
      <trkpt lat="45.8849" lon="4.65092">
        <ele>292</ele>
        <time>2018-04-11T09:41:08Z</time>
      </trkpt>
      <trkpt lat="45.88489" lon="4.65095">
        <ele>292</ele>
        <time>2018-04-11T09:41:09Z</time>
      </trkpt>
      <trkpt lat="45.88485" lon="4.65104">
        <ele>293</ele>
        <time>2018-04-11T09:41:13Z</time>
      </trkpt>
      <trkpt lat="45.88484" lon="4.65107">
        <ele>293</ele>
        <time>2018-04-11T09:41:14Z</time>
      </trkpt>
      <trkpt lat="45.8848" lon="4.65115">
        <ele>293</ele>
        <time>2018-04-11T09:41:18Z</time>
      </trkpt>
      <trkpt lat="45.88478" lon="4.65117">
        <ele>293</ele>
        <time>2018-04-11T09:41:19Z</time>
      </trkpt>
      <trkpt lat="45.88472" lon="4.65125">
        <ele>294</ele>
        <time>2018-04-11T09:41:24Z</time>
      </trkpt>
      <trkpt lat="45.88471" lon="4.65127">
        <ele>294</ele>
        <time>2018-04-11T09:41:25Z</time>
      </trkpt>
      <trkpt lat="45.88464" lon="4.65135">
        <ele>294</ele>
        <time>2018-04-11T09:41:30Z</time>
      </trkpt>
      <trkpt lat="45.88463" lon="4.65137">
        <ele>294</ele>
        <time>2018-04-11T09:41:31Z</time>
      </trkpt>
      <trkpt lat="45.88457" lon="4.65146">
        <ele>295</ele>
        <time>2018-04-11T09:41:36Z</time>
      </trkpt>
      <trkpt lat="45.88456" lon="4.65148">
        <ele>295</ele>
        <time>2018-04-11T09:41:37Z</time>
      </trkpt>
      <trkpt lat="45.88448" lon="4.65155">
        <ele>295</ele>
        <time>2018-04-11T09:41:42Z</time>
      </trkpt>
      <trkpt lat="45.88447" lon="4.65156">
        <ele>295</ele>
        <time>2018-04-11T09:41:43Z</time>
      </trkpt>
      <trkpt lat="45.88441" lon="4.65163">
        <ele>296</ele>
        <time>2018-04-11T09:41:48Z</time>
      </trkpt>
      <trkpt lat="45.8844" lon="4.65165">
        <ele>296</ele>
        <time>2018-04-11T09:41:49Z</time>
      </trkpt>
      <trkpt lat="45.88433" lon="4.65172">
        <ele>298</ele>
        <time>2018-04-11T09:41:54Z</time>
      </trkpt>
      <trkpt lat="45.88432" lon="4.65174">
        <ele>298</ele>
        <time>2018-04-11T09:41:55Z</time>
      </trkpt>
      <trkpt lat="45.88425" lon="4.65179">
        <ele>298</ele>
        <time>2018-04-11T09:42:00Z</time>
      </trkpt>
      <trkpt lat="45.88424" lon="4.6518">
        <ele>298</ele>
        <time>2018-04-11T09:42:01Z</time>
      </trkpt>
      <trkpt lat="45.88417" lon="4.65188">
        <ele>298</ele>
        <time>2018-04-11T09:42:08Z</time>
      </trkpt>
      <trkpt lat="45.88416" lon="4.6519">
        <ele>299</ele>
        <time>2018-04-11T09:42:09Z</time>
      </trkpt>
      <trkpt lat="45.88409" lon="4.65196">
        <ele>299</ele>
        <time>2018-04-11T09:42:14Z</time>
      </trkpt>
      <trkpt lat="45.88408" lon="4.65198">
        <ele>299</ele>
        <time>2018-04-11T09:42:15Z</time>
      </trkpt>
      <trkpt lat="45.88403" lon="4.65204">
        <ele>300</ele>
        <time>2018-04-11T09:42:19Z</time>
      </trkpt>
      <trkpt lat="45.88401" lon="4.65205">
        <ele>300</ele>
        <time>2018-04-11T09:42:20Z</time>
      </trkpt>
      <trkpt lat="45.88393" lon="4.65211">
        <ele>300</ele>
        <time>2018-04-11T09:42:25Z</time>
      </trkpt>
      <trkpt lat="45.88392" lon="4.65213">
        <ele>300</ele>
        <time>2018-04-11T09:42:26Z</time>
      </trkpt>
      <trkpt lat="45.88384" lon="4.65218">
        <ele>300</ele>
        <time>2018-04-11T09:42:31Z</time>
      </trkpt>
      <trkpt lat="45.88383" lon="4.6522">
        <ele>300</ele>
        <time>2018-04-11T09:42:32Z</time>
      </trkpt>
      <trkpt lat="45.88377" lon="4.65227">
        <ele>300</ele>
        <time>2018-04-11T09:42:37Z</time>
      </trkpt>
      <trkpt lat="45.88376" lon="4.65229">
        <ele>300</ele>
        <time>2018-04-11T09:42:38Z</time>
      </trkpt>
      <trkpt lat="45.8837" lon="4.65238">
        <ele>300</ele>
        <time>2018-04-11T09:42:43Z</time>
      </trkpt>
      <trkpt lat="45.88368" lon="4.6524">
        <ele>300</ele>
        <time>2018-04-11T09:42:44Z</time>
      </trkpt>
      <trkpt lat="45.88362" lon="4.65249">
        <ele>300</ele>
        <time>2018-04-11T09:42:49Z</time>
      </trkpt>
      <trkpt lat="45.8836" lon="4.6525">
        <ele>301</ele>
        <time>2018-04-11T09:42:50Z</time>
      </trkpt>
      <trkpt lat="45.88353" lon="4.65257">
        <ele>301</ele>
        <time>2018-04-11T09:42:55Z</time>
      </trkpt>
      <trkpt lat="45.88352" lon="4.65258">
        <ele>301</ele>
        <time>2018-04-11T09:42:56Z</time>
      </trkpt>
      <trkpt lat="45.88345" lon="4.65266">
        <ele>301</ele>
        <time>2018-04-11T09:43:01Z</time>
      </trkpt>
      <trkpt lat="45.88344" lon="4.65267">
        <ele>301</ele>
        <time>2018-04-11T09:43:02Z</time>
      </trkpt>
      <trkpt lat="45.88337" lon="4.65275">
        <ele>302</ele>
        <time>2018-04-11T09:43:07Z</time>
      </trkpt>
      <trkpt lat="45.88336" lon="4.65277">
        <ele>302</ele>
        <time>2018-04-11T09:43:08Z</time>
      </trkpt>
      <trkpt lat="45.88331" lon="4.65284">
        <ele>304</ele>
        <time>2018-04-11T09:43:12Z</time>
      </trkpt>
      <trkpt lat="45.8833" lon="4.65286">
        <ele>304</ele>
        <time>2018-04-11T09:43:13Z</time>
      </trkpt>
      <trkpt lat="45.88323" lon="4.65294">
        <ele>304</ele>
        <time>2018-04-11T09:43:17Z</time>
      </trkpt>
      <trkpt lat="45.88321" lon="4.65296">
        <ele>304</ele>
        <time>2018-04-11T09:43:18Z</time>
      </trkpt>
      <trkpt lat="45.88316" lon="4.65303">
        <ele>305</ele>
        <time>2018-04-11T09:43:22Z</time>
      </trkpt>
      <trkpt lat="45.88315" lon="4.65305">
        <ele>305</ele>
        <time>2018-04-11T09:43:23Z</time>
      </trkpt>
      <trkpt lat="45.88308" lon="4.65314">
        <ele>305</ele>
        <time>2018-04-11T09:43:28Z</time>
      </trkpt>
      <trkpt lat="45.88307" lon="4.65316">
        <ele>305</ele>
        <time>2018-04-11T09:43:29Z</time>
      </trkpt>
      <trkpt lat="45.88302" lon="4.65325">
        <ele>305</ele>
        <time>2018-04-11T09:43:33Z</time>
      </trkpt>
      <trkpt lat="45.88301" lon="4.65327">
        <ele>305</ele>
        <time>2018-04-11T09:43:34Z</time>
      </trkpt>
      <trkpt lat="45.88297" lon="4.65338">
        <ele>307</ele>
        <time>2018-04-11T09:43:39Z</time>
      </trkpt>
      <trkpt lat="45.88297" lon="4.6534">
        <ele>307</ele>
        <time>2018-04-11T09:43:40Z</time>
      </trkpt>
      <trkpt lat="45.88293" lon="4.6535">
        <ele>307</ele>
        <time>2018-04-11T09:43:45Z</time>
      </trkpt>
      <trkpt lat="45.88292" lon="4.65352">
        <ele>307</ele>
        <time>2018-04-11T09:43:46Z</time>
      </trkpt>
      <trkpt lat="45.88289" lon="4.65364">
        <ele>308</ele>
        <time>2018-04-11T09:43:51Z</time>
      </trkpt>
      <trkpt lat="45.88288" lon="4.65366">
        <ele>308</ele>
        <time>2018-04-11T09:43:52Z</time>
      </trkpt>
      <trkpt lat="45.88283" lon="4.65376">
        <ele>308</ele>
        <time>2018-04-11T09:43:57Z</time>
      </trkpt>
      <trkpt lat="45.88282" lon="4.65378">
        <ele>308</ele>
        <time>2018-04-11T09:43:58Z</time>
      </trkpt>
      <trkpt lat="45.88277" lon="4.65389">
        <ele>308</ele>
        <time>2018-04-11T09:44:03Z</time>
      </trkpt>
      <trkpt lat="45.88277" lon="4.65392">
        <ele>308</ele>
        <time>2018-04-11T09:44:04Z</time>
      </trkpt>
      <trkpt lat="45.88274" lon="4.65403">
        <ele>309</ele>
        <time>2018-04-11T09:44:09Z</time>
      </trkpt>
      <trkpt lat="45.88274" lon="4.65405">
        <ele>309</ele>
        <time>2018-04-11T09:44:10Z</time>
      </trkpt>
      <trkpt lat="45.88272" lon="4.65416">
        <ele>309</ele>
        <time>2018-04-11T09:44:15Z</time>
      </trkpt>
      <trkpt lat="45.88271" lon="4.65418">
        <ele>310</ele>
        <time>2018-04-11T09:44:16Z</time>
      </trkpt>
      <trkpt lat="45.88267" lon="4.65427">
        <ele>311</ele>
        <time>2018-04-11T09:44:20Z</time>
      </trkpt>
      <trkpt lat="45.88266" lon="4.65429">
        <ele>311</ele>
        <time>2018-04-11T09:44:21Z</time>
      </trkpt>
      <trkpt lat="45.88262" lon="4.6544">
        <ele>311</ele>
        <time>2018-04-11T09:44:26Z</time>
      </trkpt>
      <trkpt lat="45.88262" lon="4.65442">
        <ele>311</ele>
        <time>2018-04-11T09:44:27Z</time>
      </trkpt>
      <trkpt lat="45.88258" lon="4.65453">
        <ele>311</ele>
        <time>2018-04-11T09:44:32Z</time>
      </trkpt>
      <trkpt lat="45.88257" lon="4.65455">
        <ele>311</ele>
        <time>2018-04-11T09:44:33Z</time>
      </trkpt>
      <trkpt lat="45.88254" lon="4.65464">
        <ele>311</ele>
        <time>2018-04-11T09:44:38Z</time>
      </trkpt>
      <trkpt lat="45.88253" lon="4.65466">
        <ele>312</ele>
        <time>2018-04-11T09:44:39Z</time>
      </trkpt>
      <trkpt lat="45.88251" lon="4.65477">
        <ele>312</ele>
        <time>2018-04-11T09:44:44Z</time>
      </trkpt>
      <trkpt lat="45.88251" lon="4.65479">
        <ele>312</ele>
        <time>2018-04-11T09:44:45Z</time>
      </trkpt>
      <trkpt lat="45.88245" lon="4.6549">
        <ele>316</ele>
        <time>2018-04-11T09:44:50Z</time>
      </trkpt>
      <trkpt lat="45.88244" lon="4.65492">
        <ele>316</ele>
        <time>2018-04-11T09:44:51Z</time>
      </trkpt>
      <trkpt lat="45.88239" lon="4.65501">
        <ele>317</ele>
        <time>2018-04-11T09:44:56Z</time>
      </trkpt>
      <trkpt lat="45.88239" lon="4.65503">
        <ele>317</ele>
        <time>2018-04-11T09:44:57Z</time>
      </trkpt>
      <trkpt lat="45.88237" lon="4.65514">
        <ele>318</ele>
        <time>2018-04-11T09:45:02Z</time>
      </trkpt>
      <trkpt lat="45.88236" lon="4.65516">
        <ele>318</ele>
        <time>2018-04-11T09:45:03Z</time>
      </trkpt>
      <trkpt lat="45.88231" lon="4.65526">
        <ele>319</ele>
        <time>2018-04-11T09:45:08Z</time>
      </trkpt>
      <trkpt lat="45.8823" lon="4.65528">
        <ele>319</ele>
        <time>2018-04-11T09:45:09Z</time>
      </trkpt>
      <trkpt lat="45.88226" lon="4.65539">
        <ele>320</ele>
        <time>2018-04-11T09:45:14Z</time>
      </trkpt>
      <trkpt lat="45.88226" lon="4.65541">
        <ele>320</ele>
        <time>2018-04-11T09:45:15Z</time>
      </trkpt>
      <trkpt lat="45.88222" lon="4.65551">
        <ele>320</ele>
        <time>2018-04-11T09:45:20Z</time>
      </trkpt>
      <trkpt lat="45.88222" lon="4.65553">
        <ele>320</ele>
        <time>2018-04-11T09:45:21Z</time>
      </trkpt>
      <trkpt lat="45.88218" lon="4.65564">
        <ele>321</ele>
        <time>2018-04-11T09:45:26Z</time>
      </trkpt>
      <trkpt lat="45.88217" lon="4.65566">
        <ele>321</ele>
        <time>2018-04-11T09:45:27Z</time>
      </trkpt>
      <trkpt lat="45.88213" lon="4.65577">
        <ele>321</ele>
        <time>2018-04-11T09:45:32Z</time>
      </trkpt>
      <trkpt lat="45.88212" lon="4.65579">
        <ele>321</ele>
        <time>2018-04-11T09:45:33Z</time>
      </trkpt>
      <trkpt lat="45.88208" lon="4.6559">
        <ele>321</ele>
        <time>2018-04-11T09:45:38Z</time>
      </trkpt>
      <trkpt lat="45.88207" lon="4.65592">
        <ele>321</ele>
        <time>2018-04-11T09:45:39Z</time>
      </trkpt>
      <trkpt lat="45.88203" lon="4.65603">
        <ele>322</ele>
        <time>2018-04-11T09:45:44Z</time>
      </trkpt>
      <trkpt lat="45.88203" lon="4.65605">
        <ele>322</ele>
        <time>2018-04-11T09:45:45Z</time>
      </trkpt>
      <trkpt lat="45.882" lon="4.65615">
        <ele>322</ele>
        <time>2018-04-11T09:45:50Z</time>
      </trkpt>
      <trkpt lat="45.88199" lon="4.65617">
        <ele>322</ele>
        <time>2018-04-11T09:45:51Z</time>
      </trkpt>
      <trkpt lat="45.88196" lon="4.65627">
        <ele>322</ele>
        <time>2018-04-11T09:45:56Z</time>
      </trkpt>
      <trkpt lat="45.88196" lon="4.65629">
        <ele>322</ele>
        <time>2018-04-11T09:45:57Z</time>
      </trkpt>
      <trkpt lat="45.88192" lon="4.65638">
        <ele>322</ele>
        <time>2018-04-11T09:46:02Z</time>
      </trkpt>
      <trkpt lat="45.88191" lon="4.6564">
        <ele>322</ele>
        <time>2018-04-11T09:46:03Z</time>
      </trkpt>
      <trkpt lat="45.88187" lon="4.6565">
        <ele>322</ele>
        <time>2018-04-11T09:46:08Z</time>
      </trkpt>
      <trkpt lat="45.88187" lon="4.65652">
        <ele>322</ele>
        <time>2018-04-11T09:46:09Z</time>
      </trkpt>
      <trkpt lat="45.88182" lon="4.65661">
        <ele>323</ele>
        <time>2018-04-11T09:46:14Z</time>
      </trkpt>
      <trkpt lat="45.88181" lon="4.65663">
        <ele>323</ele>
        <time>2018-04-11T09:46:15Z</time>
      </trkpt>
      <trkpt lat="45.88176" lon="4.65672">
        <ele>323</ele>
        <time>2018-04-11T09:46:20Z</time>
      </trkpt>
      <trkpt lat="45.88175" lon="4.65674">
        <ele>323</ele>
        <time>2018-04-11T09:46:21Z</time>
      </trkpt>
      <trkpt lat="45.8817" lon="4.65684">
        <ele>323</ele>
        <time>2018-04-11T09:46:27Z</time>
      </trkpt>
      <trkpt lat="45.88169" lon="4.65686">
        <ele>323</ele>
        <time>2018-04-11T09:46:28Z</time>
      </trkpt>
      <trkpt lat="45.88165" lon="4.65695">
        <ele>330</ele>
        <time>2018-04-11T09:46:33Z</time>
      </trkpt>
      <trkpt lat="45.88164" lon="4.65697">
        <ele>330</ele>
        <time>2018-04-11T09:46:34Z</time>
      </trkpt>
      <trkpt lat="45.88159" lon="4.65708">
        <ele>331</ele>
        <time>2018-04-11T09:46:40Z</time>
      </trkpt>
      <trkpt lat="45.88159" lon="4.65709">
        <ele>331</ele>
        <time>2018-04-11T09:46:41Z</time>
      </trkpt>
      <trkpt lat="45.88153" lon="4.65718">
        <ele>331</ele>
        <time>2018-04-11T09:46:47Z</time>
      </trkpt>
      <trkpt lat="45.88152" lon="4.65719">
        <ele>331</ele>
        <time>2018-04-11T09:46:48Z</time>
      </trkpt>
      <trkpt lat="45.88147" lon="4.6573">
        <ele>331</ele>
        <time>2018-04-11T09:46:55Z</time>
      </trkpt>
      <trkpt lat="45.88146" lon="4.65731">
        <ele>331</ele>
        <time>2018-04-11T09:46:56Z</time>
      </trkpt>
      <trkpt lat="45.8814" lon="4.65739">
        <ele>332</ele>
        <time>2018-04-11T09:47:01Z</time>
      </trkpt>
      <trkpt lat="45.88139" lon="4.65741">
        <ele>332</ele>
        <time>2018-04-11T09:47:02Z</time>
      </trkpt>
      <trkpt lat="45.88132" lon="4.65748">
        <ele>333</ele>
        <time>2018-04-11T09:47:08Z</time>
      </trkpt>
      <trkpt lat="45.88131" lon="4.65749">
        <ele>333</ele>
        <time>2018-04-11T09:47:09Z</time>
      </trkpt>
      <trkpt lat="45.88125" lon="4.65759">
        <ele>333</ele>
        <time>2018-04-11T09:47:15Z</time>
      </trkpt>
      <trkpt lat="45.88124" lon="4.65761">
        <ele>333</ele>
        <time>2018-04-11T09:47:16Z</time>
      </trkpt>
      <trkpt lat="45.88119" lon="4.65768">
        <ele>333</ele>
        <time>2018-04-11T09:47:21Z</time>
      </trkpt>
      <trkpt lat="45.88118" lon="4.6577">
        <ele>334</ele>
        <time>2018-04-11T09:47:22Z</time>
      </trkpt>
      <trkpt lat="45.88112" lon="4.65776">
        <ele>334</ele>
        <time>2018-04-11T09:47:26Z</time>
      </trkpt>
      <trkpt lat="45.8811" lon="4.65778">
        <ele>334</ele>
        <time>2018-04-11T09:47:27Z</time>
      </trkpt>
      <trkpt lat="45.88104" lon="4.65783">
        <ele>334</ele>
        <time>2018-04-11T09:47:31Z</time>
      </trkpt>
      <trkpt lat="45.88102" lon="4.65784">
        <ele>334</ele>
        <time>2018-04-11T09:47:32Z</time>
      </trkpt>
      <trkpt lat="45.88095" lon="4.6579">
        <ele>334</ele>
        <time>2018-04-11T09:47:36Z</time>
      </trkpt>
      <trkpt lat="45.88094" lon="4.65791">
        <ele>334</ele>
        <time>2018-04-11T09:47:37Z</time>
      </trkpt>
      <trkpt lat="45.88088" lon="4.65799">
        <ele>334</ele>
        <time>2018-04-11T09:47:43Z</time>
      </trkpt>
      <trkpt lat="45.88087" lon="4.658">
        <ele>334</ele>
        <time>2018-04-11T09:47:44Z</time>
      </trkpt>
      <trkpt lat="45.88079" lon="4.65808">
        <ele>341</ele>
        <time>2018-04-11T09:47:49Z</time>
      </trkpt>
      <trkpt lat="45.88078" lon="4.65809">
        <ele>340</ele>
        <time>2018-04-11T09:47:50Z</time>
      </trkpt>
      <trkpt lat="45.88072" lon="4.65815">
        <ele>340</ele>
        <time>2018-04-11T09:47:55Z</time>
      </trkpt>
      <trkpt lat="45.8807" lon="4.65816">
        <ele>340</ele>
        <time>2018-04-11T09:47:56Z</time>
      </trkpt>
      <trkpt lat="45.88062" lon="4.65821">
        <ele>341</ele>
        <time>2018-04-11T09:48:00Z</time>
      </trkpt>
      <trkpt lat="45.8806" lon="4.65822">
        <ele>341</ele>
        <time>2018-04-11T09:48:01Z</time>
      </trkpt>
      <trkpt lat="45.88054" lon="4.65827">
        <ele>341</ele>
        <time>2018-04-11T09:48:05Z</time>
      </trkpt>
      <trkpt lat="45.88052" lon="4.65828">
        <ele>341</ele>
        <time>2018-04-11T09:48:06Z</time>
      </trkpt>
      <trkpt lat="45.88044" lon="4.65833">
        <ele>342</ele>
        <time>2018-04-11T09:48:10Z</time>
      </trkpt>
      <trkpt lat="45.88042" lon="4.65834">
        <ele>337</ele>
        <time>2018-04-11T09:48:11Z</time>
      </trkpt>
      <trkpt lat="45.88035" lon="4.65838">
        <ele>338</ele>
        <time>2018-04-11T09:48:14Z</time>
      </trkpt>
      <trkpt lat="45.88033" lon="4.6584">
        <ele>338</ele>
        <time>2018-04-11T09:48:15Z</time>
      </trkpt>
      <trkpt lat="45.88026" lon="4.65845">
        <ele>339</ele>
        <time>2018-04-11T09:48:18Z</time>
      </trkpt>
      <trkpt lat="45.88024" lon="4.65846">
        <ele>339</ele>
        <time>2018-04-11T09:48:19Z</time>
      </trkpt>
      <trkpt lat="45.88016" lon="4.65852">
        <ele>339</ele>
        <time>2018-04-11T09:48:23Z</time>
      </trkpt>
      <trkpt lat="45.88014" lon="4.65853">
        <ele>339</ele>
        <time>2018-04-11T09:48:24Z</time>
      </trkpt>
      <trkpt lat="45.88007" lon="4.65857">
        <ele>339</ele>
        <time>2018-04-11T09:48:27Z</time>
      </trkpt>
      <trkpt lat="45.88005" lon="4.65858">
        <ele>339</ele>
        <time>2018-04-11T09:48:28Z</time>
      </trkpt>
      <trkpt lat="45.87998" lon="4.65863">
        <ele>344</ele>
        <time>2018-04-11T09:48:31Z</time>
      </trkpt>
      <trkpt lat="45.87995" lon="4.65865">
        <ele>343</ele>
        <time>2018-04-11T09:48:32Z</time>
      </trkpt>
      <trkpt lat="45.87988" lon="4.65871">
        <ele>343</ele>
        <time>2018-04-11T09:48:35Z</time>
      </trkpt>
      <trkpt lat="45.87986" lon="4.65873">
        <ele>343</ele>
        <time>2018-04-11T09:48:36Z</time>
      </trkpt>
      <trkpt lat="45.87981" lon="4.6588">
        <ele>343</ele>
        <time>2018-04-11T09:48:39Z</time>
      </trkpt>
      <trkpt lat="45.87979" lon="4.65882">
        <ele>343</ele>
        <time>2018-04-11T09:48:40Z</time>
      </trkpt>
      <trkpt lat="45.87973" lon="4.65889">
        <ele>343</ele>
        <time>2018-04-11T09:48:43Z</time>
      </trkpt>
      <trkpt lat="45.87971" lon="4.65892">
        <ele>343</ele>
        <time>2018-04-11T09:48:44Z</time>
      </trkpt>
      <trkpt lat="45.87964" lon="4.659">
        <ele>343</ele>
        <time>2018-04-11T09:48:47Z</time>
      </trkpt>
      <trkpt lat="45.87962" lon="4.65902">
        <ele>343</ele>
        <time>2018-04-11T09:48:48Z</time>
      </trkpt>
      <trkpt lat="45.87957" lon="4.65909">
        <ele>343</ele>
        <time>2018-04-11T09:48:51Z</time>
      </trkpt>
      <trkpt lat="45.87955" lon="4.65912">
        <ele>343</ele>
        <time>2018-04-11T09:48:52Z</time>
      </trkpt>
      <trkpt lat="45.87949" lon="4.65919">
        <ele>341</ele>
        <time>2018-04-11T09:48:55Z</time>
      </trkpt>
      <trkpt lat="45.87948" lon="4.65921">
        <ele>341</ele>
        <time>2018-04-11T09:48:56Z</time>
      </trkpt>
      <trkpt lat="45.87942" lon="4.65928">
        <ele>341</ele>
        <time>2018-04-11T09:48:59Z</time>
      </trkpt>
      <trkpt lat="45.87941" lon="4.65931">
        <ele>341</ele>
        <time>2018-04-11T09:49:00Z</time>
      </trkpt>
      <trkpt lat="45.87937" lon="4.65939">
        <ele>341</ele>
        <time>2018-04-11T09:49:03Z</time>
      </trkpt>
      <trkpt lat="45.87936" lon="4.65942">
        <ele>341</ele>
        <time>2018-04-11T09:49:04Z</time>
      </trkpt>
      <trkpt lat="45.87932" lon="4.6595">
        <ele>341</ele>
        <time>2018-04-11T09:49:07Z</time>
      </trkpt>
      <trkpt lat="45.8793" lon="4.65953">
        <ele>341</ele>
        <time>2018-04-11T09:49:08Z</time>
      </trkpt>
      <trkpt lat="45.87925" lon="4.65962">
        <ele>341</ele>
        <time>2018-04-11T09:49:12Z</time>
      </trkpt>
      <trkpt lat="45.87925" lon="4.65965">
        <ele>341</ele>
        <time>2018-04-11T09:49:13Z</time>
      </trkpt>
      <trkpt lat="45.87923" lon="4.65974">
        <ele>341</ele>
        <time>2018-04-11T09:49:17Z</time>
      </trkpt>
      <trkpt lat="45.87923" lon="4.65977">
        <ele>341</ele>
        <time>2018-04-11T09:49:18Z</time>
      </trkpt>
      <trkpt lat="45.87921" lon="4.65989">
        <ele>342</ele>
        <time>2018-04-11T09:49:22Z</time>
      </trkpt>
      <trkpt lat="45.87921" lon="4.65992">
        <ele>342</ele>
        <time>2018-04-11T09:49:23Z</time>
      </trkpt>
      <trkpt lat="45.87919" lon="4.66004">
        <ele>343</ele>
        <time>2018-04-11T09:49:27Z</time>
      </trkpt>
      <trkpt lat="45.87919" lon="4.66006">
        <ele>343</ele>
        <time>2018-04-11T09:49:28Z</time>
      </trkpt>
      <trkpt lat="45.87919" lon="4.66017">
        <ele>342</ele>
        <time>2018-04-11T09:49:32Z</time>
      </trkpt>
      <trkpt lat="45.87919" lon="4.6602">
        <ele>342</ele>
        <time>2018-04-11T09:49:33Z</time>
      </trkpt>
      <trkpt lat="45.87919" lon="4.6603">
        <ele>342</ele>
        <time>2018-04-11T09:49:37Z</time>
      </trkpt>
      <trkpt lat="45.87919" lon="4.66033">
        <ele>342</ele>
        <time>2018-04-11T09:49:38Z</time>
      </trkpt>
      <trkpt lat="45.87919" lon="4.66044">
        <ele>342</ele>
        <time>2018-04-11T09:49:42Z</time>
      </trkpt>
      <trkpt lat="45.87919" lon="4.66047">
        <ele>342</ele>
        <time>2018-04-11T09:49:43Z</time>
      </trkpt>
      <trkpt lat="45.8792" lon="4.66057">
        <ele>342</ele>
        <time>2018-04-11T09:49:47Z</time>
      </trkpt>
      <trkpt lat="45.8792" lon="4.6606">
        <ele>343</ele>
        <time>2018-04-11T09:49:48Z</time>
      </trkpt>
      <trkpt lat="45.87921" lon="4.6607">
        <ele>343</ele>
        <time>2018-04-11T09:49:52Z</time>
      </trkpt>
      <trkpt lat="45.87921" lon="4.66073">
        <ele>343</ele>
        <time>2018-04-11T09:49:53Z</time>
      </trkpt>
      <trkpt lat="45.87922" lon="4.66085">
        <ele>345</ele>
        <time>2018-04-11T09:49:57Z</time>
      </trkpt>
      <trkpt lat="45.87921" lon="4.66087">
        <ele>345</ele>
        <time>2018-04-11T09:49:58Z</time>
      </trkpt>
      <trkpt lat="45.87921" lon="4.66098">
        <ele>346</ele>
        <time>2018-04-11T09:50:02Z</time>
      </trkpt>
      <trkpt lat="45.87921" lon="4.661">
        <ele>346</ele>
        <time>2018-04-11T09:50:03Z</time>
      </trkpt>
      <trkpt lat="45.87922" lon="4.66113">
        <ele>347</ele>
        <time>2018-04-11T09:50:08Z</time>
      </trkpt>
      <trkpt lat="45.87922" lon="4.66116">
        <ele>347</ele>
        <time>2018-04-11T09:50:09Z</time>
      </trkpt>
      <trkpt lat="45.87921" lon="4.66127">
        <ele>348</ele>
        <time>2018-04-11T09:50:14Z</time>
      </trkpt>
      <trkpt lat="45.87922" lon="4.66129">
        <ele>348</ele>
        <time>2018-04-11T09:50:15Z</time>
      </trkpt>
      <trkpt lat="45.87928" lon="4.66134">
        <ele>349</ele>
        <time>2018-04-11T09:50:19Z</time>
      </trkpt>
      <trkpt lat="45.8793" lon="4.66136">
        <ele>349</ele>
        <time>2018-04-11T09:50:20Z</time>
      </trkpt>
      <trkpt lat="45.87937" lon="4.6614">
        <ele>349</ele>
        <time>2018-04-11T09:50:23Z</time>
      </trkpt>
      <trkpt lat="45.87939" lon="4.66141">
        <ele>349</ele>
        <time>2018-04-11T09:50:24Z</time>
      </trkpt>
      <trkpt lat="45.87946" lon="4.66142">
        <ele>349</ele>
        <time>2018-04-11T09:50:27Z</time>
      </trkpt>
      <trkpt lat="45.87948" lon="4.66142">
        <ele>349</ele>
        <time>2018-04-11T09:50:28Z</time>
      </trkpt>
      <trkpt lat="45.87957" lon="4.66142">
        <ele>348</ele>
        <time>2018-04-11T09:50:31Z</time>
      </trkpt>
      <trkpt lat="45.8796" lon="4.66143">
        <ele>348</ele>
        <time>2018-04-11T09:50:32Z</time>
      </trkpt>
      <trkpt lat="45.87968" lon="4.66143">
        <ele>348</ele>
        <time>2018-04-11T09:50:35Z</time>
      </trkpt>
      <trkpt lat="45.87971" lon="4.66143">
        <ele>348</ele>
        <time>2018-04-11T09:50:36Z</time>
      </trkpt>
      <trkpt lat="45.87977" lon="4.66144">
        <ele>348</ele>
        <time>2018-04-11T09:50:38Z</time>
      </trkpt>
      <trkpt lat="45.87981" lon="4.66144">
        <ele>348</ele>
        <time>2018-04-11T09:50:39Z</time>
      </trkpt>
      <trkpt lat="45.87988" lon="4.66144">
        <ele>349</ele>
        <time>2018-04-11T09:50:41Z</time>
      </trkpt>
      <trkpt lat="45.87991" lon="4.66144">
        <ele>349</ele>
        <time>2018-04-11T09:50:42Z</time>
      </trkpt>
      <trkpt lat="45.87998" lon="4.66143">
        <ele>349</ele>
        <time>2018-04-11T09:50:44Z</time>
      </trkpt>
      <trkpt lat="45.88002" lon="4.66143">
        <ele>348</ele>
        <time>2018-04-11T09:50:45Z</time>
      </trkpt>
      <trkpt lat="45.8801" lon="4.66143">
        <ele>348</ele>
        <time>2018-04-11T09:50:48Z</time>
      </trkpt>
      <trkpt lat="45.88013" lon="4.66143">
        <ele>348</ele>
        <time>2018-04-11T09:50:49Z</time>
      </trkpt>
      <trkpt lat="45.88019" lon="4.66143">
        <ele>348</ele>
        <time>2018-04-11T09:50:51Z</time>
      </trkpt>
      <trkpt lat="45.88022" lon="4.66143">
        <ele>348</ele>
        <time>2018-04-11T09:50:52Z</time>
      </trkpt>
      <trkpt lat="45.88025" lon="4.66143">
        <ele>348</ele>
        <time>2018-04-11T09:50:53Z</time>
      </trkpt>
      <trkpt lat="45.88035" lon="4.66143">
        <ele>348</ele>
        <time>2018-04-11T09:50:54Z</time>
      </trkpt>
      <trkpt lat="45.88041" lon="4.66142">
        <ele>348</ele>
        <time>2018-04-11T09:50:57Z</time>
      </trkpt>
      <trkpt lat="45.88044" lon="4.66142">
        <ele>348</ele>
        <time>2018-04-11T09:50:58Z</time>
      </trkpt>
      <trkpt lat="45.88052" lon="4.66142">
        <ele>348</ele>
        <time>2018-04-11T09:51:01Z</time>
      </trkpt>
      <trkpt lat="45.88055" lon="4.66141">
        <ele>348</ele>
        <time>2018-04-11T09:51:02Z</time>
      </trkpt>
      <trkpt lat="45.88062" lon="4.66141">
        <ele>348</ele>
        <time>2018-04-11T09:51:04Z</time>
      </trkpt>
      <trkpt lat="45.88072" lon="4.6614">
        <ele>348</ele>
        <time>2018-04-11T09:51:05Z</time>
      </trkpt>
      <trkpt lat="45.88081" lon="4.66139">
        <ele>348</ele>
        <time>2018-04-11T09:51:09Z</time>
      </trkpt>
      <trkpt lat="45.88083" lon="4.66139">
        <ele>348</ele>
        <time>2018-04-11T09:51:10Z</time>
      </trkpt>
      <trkpt lat="45.88091" lon="4.66138">
        <ele>349</ele>
        <time>2018-04-11T09:51:13Z</time>
      </trkpt>
      <trkpt lat="45.88093" lon="4.66138">
        <ele>349</ele>
        <time>2018-04-11T09:51:14Z</time>
      </trkpt>
      <trkpt lat="45.88097" lon="4.66137">
        <ele>349</ele>
        <time>2018-04-11T09:51:15Z</time>
      </trkpt>
      <trkpt lat="45.88106" lon="4.66135">
        <ele>349</ele>
        <time>2018-04-11T09:51:16Z</time>
      </trkpt>
      <trkpt lat="45.88114" lon="4.66134">
        <ele>349</ele>
        <time>2018-04-11T09:51:19Z</time>
      </trkpt>
      <trkpt lat="45.88116" lon="4.66134">
        <ele>349</ele>
        <time>2018-04-11T09:51:20Z</time>
      </trkpt>
      <trkpt lat="45.88124" lon="4.66132">
        <ele>349</ele>
        <time>2018-04-11T09:51:23Z</time>
      </trkpt>
      <trkpt lat="45.88127" lon="4.66132">
        <ele>349</ele>
        <time>2018-04-11T09:51:24Z</time>
      </trkpt>
      <trkpt lat="45.88131" lon="4.66132">
        <ele>349</ele>
        <time>2018-04-11T09:51:25Z</time>
      </trkpt>
      <trkpt lat="45.88141" lon="4.66131">
        <ele>349</ele>
        <time>2018-04-11T09:51:26Z</time>
      </trkpt>
      <trkpt lat="45.88148" lon="4.6613">
        <ele>349</ele>
        <time>2018-04-11T09:51:28Z</time>
      </trkpt>
      <trkpt lat="45.8815" lon="4.6613">
        <ele>349</ele>
        <time>2018-04-11T09:51:29Z</time>
      </trkpt>
      <trkpt lat="45.88157" lon="4.66129">
        <ele>349</ele>
        <time>2018-04-11T09:51:32Z</time>
      </trkpt>
      <trkpt lat="45.8816" lon="4.66129">
        <ele>349</ele>
        <time>2018-04-11T09:51:33Z</time>
      </trkpt>
      <trkpt lat="45.88168" lon="4.66126">
        <ele>349</ele>
        <time>2018-04-11T09:51:36Z</time>
      </trkpt>
      <trkpt lat="45.8817" lon="4.66126">
        <ele>349</ele>
        <time>2018-04-11T09:51:37Z</time>
      </trkpt>
      <trkpt lat="45.88179" lon="4.66126">
        <ele>349</ele>
        <time>2018-04-11T09:51:40Z</time>
      </trkpt>
      <trkpt lat="45.88181" lon="4.66127">
        <ele>349</ele>
        <time>2018-04-11T09:51:41Z</time>
      </trkpt>
      <trkpt lat="45.8819" lon="4.66128">
        <ele>350</ele>
        <time>2018-04-11T09:51:44Z</time>
      </trkpt>
      <trkpt lat="45.88193" lon="4.66128">
        <ele>350</ele>
        <time>2018-04-11T09:51:45Z</time>
      </trkpt>
      <trkpt lat="45.88201" lon="4.66128">
        <ele>350</ele>
        <time>2018-04-11T09:51:48Z</time>
      </trkpt>
      <trkpt lat="45.88204" lon="4.66129">
        <ele>350</ele>
        <time>2018-04-11T09:51:49Z</time>
      </trkpt>
      <trkpt lat="45.88212" lon="4.6613">
        <ele>350</ele>
        <time>2018-04-11T09:51:52Z</time>
      </trkpt>
      <trkpt lat="45.88214" lon="4.66131">
        <ele>350</ele>
        <time>2018-04-11T09:51:53Z</time>
      </trkpt>
      <trkpt lat="45.88222" lon="4.66132">
        <ele>350</ele>
        <time>2018-04-11T09:51:56Z</time>
      </trkpt>
      <trkpt lat="45.88225" lon="4.66132">
        <ele>350</ele>
        <time>2018-04-11T09:51:57Z</time>
      </trkpt>
      <trkpt lat="45.88232" lon="4.66133">
        <ele>350</ele>
        <time>2018-04-11T09:52:00Z</time>
      </trkpt>
      <trkpt lat="45.88235" lon="4.66134">
        <ele>350</ele>
        <time>2018-04-11T09:52:01Z</time>
      </trkpt>
      <trkpt lat="45.88243" lon="4.66135">
        <ele>350</ele>
        <time>2018-04-11T09:52:04Z</time>
      </trkpt>
      <trkpt lat="45.88246" lon="4.66136">
        <ele>350</ele>
        <time>2018-04-11T09:52:05Z</time>
      </trkpt>
      <trkpt lat="45.88252" lon="4.66137">
        <ele>352</ele>
        <time>2018-04-11T09:52:07Z</time>
      </trkpt>
      <trkpt lat="45.88255" lon="4.66138">
        <ele>352</ele>
        <time>2018-04-11T09:52:08Z</time>
      </trkpt>
      <trkpt lat="45.88263" lon="4.6614">
        <ele>352</ele>
        <time>2018-04-11T09:52:11Z</time>
      </trkpt>
      <trkpt lat="45.88266" lon="4.66141">
        <ele>352</ele>
        <time>2018-04-11T09:52:12Z</time>
      </trkpt>
      <trkpt lat="45.88275" lon="4.66141">
        <ele>352</ele>
        <time>2018-04-11T09:52:15Z</time>
      </trkpt>
      <trkpt lat="45.88278" lon="4.66142">
        <ele>352</ele>
        <time>2018-04-11T09:52:16Z</time>
      </trkpt>
      <trkpt lat="45.88285" lon="4.66141">
        <ele>352</ele>
        <time>2018-04-11T09:52:19Z</time>
      </trkpt>
      <trkpt lat="45.88288" lon="4.66141">
        <ele>352</ele>
        <time>2018-04-11T09:52:20Z</time>
      </trkpt>
      <trkpt lat="45.88296" lon="4.66141">
        <ele>353</ele>
        <time>2018-04-11T09:52:23Z</time>
      </trkpt>
      <trkpt lat="45.88298" lon="4.66141">
        <ele>353</ele>
        <time>2018-04-11T09:52:24Z</time>
      </trkpt>
      <trkpt lat="45.88305" lon="4.66142">
        <ele>353</ele>
        <time>2018-04-11T09:52:27Z</time>
      </trkpt>
      <trkpt lat="45.88308" lon="4.66141">
        <ele>353</ele>
        <time>2018-04-11T09:52:28Z</time>
      </trkpt>
      <trkpt lat="45.88315" lon="4.66141">
        <ele>354</ele>
        <time>2018-04-11T09:52:31Z</time>
      </trkpt>
      <trkpt lat="45.88317" lon="4.66141">
        <ele>354</ele>
        <time>2018-04-11T09:52:32Z</time>
      </trkpt>
      <trkpt lat="45.88324" lon="4.66141">
        <ele>354</ele>
        <time>2018-04-11T09:52:35Z</time>
      </trkpt>
      <trkpt lat="45.88327" lon="4.66141">
        <ele>354</ele>
        <time>2018-04-11T09:52:36Z</time>
      </trkpt>
      <trkpt lat="45.88334" lon="4.66141">
        <ele>357</ele>
        <time>2018-04-11T09:52:39Z</time>
      </trkpt>
      <trkpt lat="45.88337" lon="4.66141">
        <ele>357</ele>
        <time>2018-04-11T09:52:40Z</time>
      </trkpt>
      <trkpt lat="45.88344" lon="4.66141">
        <ele>357</ele>
        <time>2018-04-11T09:52:43Z</time>
      </trkpt>
      <trkpt lat="45.88346" lon="4.66141">
        <ele>357</ele>
        <time>2018-04-11T09:52:44Z</time>
      </trkpt>
      <trkpt lat="45.88355" lon="4.66141">
        <ele>357</ele>
        <time>2018-04-11T09:52:48Z</time>
      </trkpt>
      <trkpt lat="45.88357" lon="4.66141">
        <ele>357</ele>
        <time>2018-04-11T09:52:49Z</time>
      </trkpt>
      <trkpt lat="45.88365" lon="4.66143">
        <ele>357</ele>
        <time>2018-04-11T09:52:53Z</time>
      </trkpt>
      <trkpt lat="45.88367" lon="4.66143">
        <ele>357</ele>
        <time>2018-04-11T09:52:54Z</time>
      </trkpt>
      <trkpt lat="45.88374" lon="4.66144">
        <ele>357</ele>
        <time>2018-04-11T09:52:58Z</time>
      </trkpt>
      <trkpt lat="45.88376" lon="4.66144">
        <ele>357</ele>
        <time>2018-04-11T09:52:59Z</time>
      </trkpt>
      <trkpt lat="45.88384" lon="4.66143">
        <ele>357</ele>
        <time>2018-04-11T09:53:03Z</time>
      </trkpt>
      <trkpt lat="45.88386" lon="4.66143">
        <ele>357</ele>
        <time>2018-04-11T09:53:04Z</time>
      </trkpt>
      <trkpt lat="45.88395" lon="4.66143">
        <ele>358</ele>
        <time>2018-04-11T09:53:09Z</time>
      </trkpt>
      <trkpt lat="45.88396" lon="4.66143">
        <ele>358</ele>
        <time>2018-04-11T09:53:10Z</time>
      </trkpt>
      <trkpt lat="45.88405" lon="4.66144">
        <ele>359</ele>
        <time>2018-04-11T09:53:15Z</time>
      </trkpt>
      <trkpt lat="45.88406" lon="4.66144">
        <ele>359</ele>
        <time>2018-04-11T09:53:16Z</time>
      </trkpt>
      <trkpt lat="45.88415" lon="4.66146">
        <ele>359</ele>
        <time>2018-04-11T09:53:21Z</time>
      </trkpt>
      <trkpt lat="45.88417" lon="4.66145">
        <ele>361</ele>
        <time>2018-04-11T09:53:22Z</time>
      </trkpt>
      <trkpt lat="45.88424" lon="4.66146">
        <ele>361</ele>
        <time>2018-04-11T09:53:27Z</time>
      </trkpt>
      <trkpt lat="45.88426" lon="4.66146">
        <ele>361</ele>
        <time>2018-04-11T09:53:28Z</time>
      </trkpt>
      <trkpt lat="45.88434" lon="4.66146">
        <ele>361</ele>
        <time>2018-04-11T09:53:34Z</time>
      </trkpt>
      <trkpt lat="45.88436" lon="4.66146">
        <ele>361</ele>
        <time>2018-04-11T09:53:35Z</time>
      </trkpt>
      <trkpt lat="45.88445" lon="4.66147">
        <ele>361</ele>
        <time>2018-04-11T09:53:41Z</time>
      </trkpt>
      <trkpt lat="45.88446" lon="4.66147">
        <ele>361</ele>
        <time>2018-04-11T09:53:42Z</time>
      </trkpt>
      <trkpt lat="45.88454" lon="4.66147">
        <ele>361</ele>
        <time>2018-04-11T09:53:47Z</time>
      </trkpt>
      <trkpt lat="45.88456" lon="4.66147">
        <ele>361</ele>
        <time>2018-04-11T09:53:48Z</time>
      </trkpt>
      <trkpt lat="45.88463" lon="4.66149">
        <ele>361</ele>
        <time>2018-04-11T09:53:52Z</time>
      </trkpt>
      <trkpt lat="45.88465" lon="4.6615">
        <ele>362</ele>
        <time>2018-04-11T09:53:53Z</time>
      </trkpt>
      <trkpt lat="45.88473" lon="4.66153">
        <ele>362</ele>
        <time>2018-04-11T09:54:00Z</time>
      </trkpt>
      <trkpt lat="45.88475" lon="4.66154">
        <ele>362</ele>
        <time>2018-04-11T09:54:01Z</time>
      </trkpt>
      <trkpt lat="45.88483" lon="4.66159">
        <ele>363</ele>
        <time>2018-04-11T09:54:06Z</time>
      </trkpt>
      <trkpt lat="45.88484" lon="4.6616">
        <ele>364</ele>
        <time>2018-04-11T09:54:07Z</time>
      </trkpt>
      <trkpt lat="45.8849" lon="4.66165">
        <ele>365</ele>
        <time>2018-04-11T09:54:11Z</time>
      </trkpt>
      <trkpt lat="45.88492" lon="4.66166">
        <ele>365</ele>
        <time>2018-04-11T09:54:12Z</time>
      </trkpt>
      <trkpt lat="45.885" lon="4.66172">
        <ele>368</ele>
        <time>2018-04-11T09:54:17Z</time>
      </trkpt>
      <trkpt lat="45.88501" lon="4.66173">
        <ele>368</ele>
        <time>2018-04-11T09:54:18Z</time>
      </trkpt>
      <trkpt lat="45.88508" lon="4.66179">
        <ele>368</ele>
        <time>2018-04-11T09:54:22Z</time>
      </trkpt>
      <trkpt lat="45.88509" lon="4.66181">
        <ele>369</ele>
        <time>2018-04-11T09:54:23Z</time>
      </trkpt>
      <trkpt lat="45.88517" lon="4.66188">
        <ele>369</ele>
        <time>2018-04-11T09:54:28Z</time>
      </trkpt>
      <trkpt lat="45.88518" lon="4.6619">
        <ele>369</ele>
        <time>2018-04-11T09:54:29Z</time>
      </trkpt>
      <trkpt lat="45.88524" lon="4.66196">
        <ele>370</ele>
        <time>2018-04-11T09:54:33Z</time>
      </trkpt>
      <trkpt lat="45.88526" lon="4.66197">
        <ele>370</ele>
        <time>2018-04-11T09:54:34Z</time>
      </trkpt>
      <trkpt lat="45.88533" lon="4.66204">
        <ele>370</ele>
        <time>2018-04-11T09:54:39Z</time>
      </trkpt>
      <trkpt lat="45.88535" lon="4.66205">
        <ele>370</ele>
        <time>2018-04-11T09:54:40Z</time>
      </trkpt>
      <trkpt lat="45.88541" lon="4.66213">
        <ele>370</ele>
        <time>2018-04-11T09:54:45Z</time>
      </trkpt>
      <trkpt lat="45.88543" lon="4.66214">
        <ele>370</ele>
        <time>2018-04-11T09:54:46Z</time>
      </trkpt>
      <trkpt lat="45.8855" lon="4.66221">
        <ele>370</ele>
        <time>2018-04-11T09:54:51Z</time>
      </trkpt>
      <trkpt lat="45.88552" lon="4.66223">
        <ele>370</ele>
        <time>2018-04-11T09:54:52Z</time>
      </trkpt>
      <trkpt lat="45.88558" lon="4.66229">
        <ele>371</ele>
        <time>2018-04-11T09:54:56Z</time>
      </trkpt>
      <trkpt lat="45.8856" lon="4.66231">
        <ele>371</ele>
        <time>2018-04-11T09:54:57Z</time>
      </trkpt>
      <trkpt lat="45.88566" lon="4.66238">
        <ele>371</ele>
        <time>2018-04-11T09:55:01Z</time>
      </trkpt>
      <trkpt lat="45.88567" lon="4.6624">
        <ele>371</ele>
        <time>2018-04-11T09:55:02Z</time>
      </trkpt>
      <trkpt lat="45.88573" lon="4.66246">
        <ele>371</ele>
        <time>2018-04-11T09:55:06Z</time>
      </trkpt>
      <trkpt lat="45.88574" lon="4.66248">
        <ele>371</ele>
        <time>2018-04-11T09:55:07Z</time>
      </trkpt>
      <trkpt lat="45.8858" lon="4.66256">
        <ele>373</ele>
        <time>2018-04-11T09:55:11Z</time>
      </trkpt>
      <trkpt lat="45.88582" lon="4.66258">
        <ele>374</ele>
        <time>2018-04-11T09:55:12Z</time>
      </trkpt>
      <trkpt lat="45.88587" lon="4.66267">
        <ele>372</ele>
        <time>2018-04-11T09:55:16Z</time>
      </trkpt>
      <trkpt lat="45.88588" lon="4.6627">
        <ele>372</ele>
        <time>2018-04-11T09:55:17Z</time>
      </trkpt>
      <trkpt lat="45.88594" lon="4.66279">
        <ele>372</ele>
        <time>2018-04-11T09:55:21Z</time>
      </trkpt>
      <trkpt lat="45.88595" lon="4.66281">
        <ele>373</ele>
        <time>2018-04-11T09:55:22Z</time>
      </trkpt>
      <trkpt lat="45.886" lon="4.6629">
        <ele>373</ele>
        <time>2018-04-11T09:55:26Z</time>
      </trkpt>
      <trkpt lat="45.88602" lon="4.66293">
        <ele>373</ele>
        <time>2018-04-11T09:55:27Z</time>
      </trkpt>
      <trkpt lat="45.88606" lon="4.663">
        <ele>374</ele>
        <time>2018-04-11T09:55:30Z</time>
      </trkpt>
      <trkpt lat="45.88607" lon="4.66303">
        <ele>374</ele>
        <time>2018-04-11T09:55:31Z</time>
      </trkpt>
      <trkpt lat="45.88612" lon="4.6631">
        <ele>374</ele>
        <time>2018-04-11T09:55:34Z</time>
      </trkpt>
      <trkpt lat="45.88614" lon="4.66313">
        <ele>374</ele>
        <time>2018-04-11T09:55:35Z</time>
      </trkpt>
      <trkpt lat="45.88618" lon="4.66321">
        <ele>374</ele>
        <time>2018-04-11T09:55:38Z</time>
      </trkpt>
      <trkpt lat="45.88619" lon="4.66324">
        <ele>374</ele>
        <time>2018-04-11T09:55:39Z</time>
      </trkpt>
      <trkpt lat="45.88624" lon="4.66334">
        <ele>380</ele>
        <time>2018-04-11T09:55:43Z</time>
      </trkpt>
      <trkpt lat="45.88625" lon="4.66336">
        <ele>380</ele>
        <time>2018-04-11T09:55:44Z</time>
      </trkpt>
      <trkpt lat="45.88631" lon="4.66346">
        <ele>380</ele>
        <time>2018-04-11T09:55:48Z</time>
      </trkpt>
      <trkpt lat="45.88632" lon="4.66348">
        <ele>380</ele>
        <time>2018-04-11T09:55:49Z</time>
      </trkpt>
      <trkpt lat="45.88638" lon="4.66357">
        <ele>380</ele>
        <time>2018-04-11T09:55:53Z</time>
      </trkpt>
      <trkpt lat="45.88639" lon="4.66359">
        <ele>380</ele>
        <time>2018-04-11T09:55:54Z</time>
      </trkpt>
      <trkpt lat="45.88645" lon="4.66369">
        <ele>381</ele>
        <time>2018-04-11T09:55:58Z</time>
      </trkpt>
      <trkpt lat="45.88647" lon="4.66371">
        <ele>381</ele>
        <time>2018-04-11T09:55:59Z</time>
      </trkpt>
      <trkpt lat="45.88653" lon="4.66379">
        <ele>381</ele>
        <time>2018-04-11T09:56:03Z</time>
      </trkpt>
      <trkpt lat="45.88655" lon="4.66381">
        <ele>381</ele>
        <time>2018-04-11T09:56:04Z</time>
      </trkpt>
      <trkpt lat="45.88662" lon="4.66388">
        <ele>382</ele>
        <time>2018-04-11T09:56:08Z</time>
      </trkpt>
      <trkpt lat="45.88663" lon="4.6639">
        <ele>382</ele>
        <time>2018-04-11T09:56:09Z</time>
      </trkpt>
      <trkpt lat="45.88671" lon="4.66397">
        <ele>379</ele>
        <time>2018-04-11T09:56:13Z</time>
      </trkpt>
      <trkpt lat="45.88673" lon="4.66399">
        <ele>379</ele>
        <time>2018-04-11T09:56:14Z</time>
      </trkpt>
      <trkpt lat="45.8868" lon="4.66405">
        <ele>379</ele>
        <time>2018-04-11T09:56:18Z</time>
      </trkpt>
      <trkpt lat="45.88682" lon="4.66407">
        <ele>379</ele>
        <time>2018-04-11T09:56:19Z</time>
      </trkpt>
      <trkpt lat="45.88688" lon="4.66412">
        <ele>379</ele>
        <time>2018-04-11T09:56:22Z</time>
      </trkpt>
      <trkpt lat="45.8869" lon="4.66413">
        <ele>379</ele>
        <time>2018-04-11T09:56:23Z</time>
      </trkpt>
      <trkpt lat="45.88697" lon="4.66421">
        <ele>384</ele>
        <time>2018-04-11T09:56:27Z</time>
      </trkpt>
      <trkpt lat="45.88699" lon="4.66423">
        <ele>384</ele>
        <time>2018-04-11T09:56:28Z</time>
      </trkpt>
      <trkpt lat="45.88705" lon="4.66428">
        <ele>384</ele>
        <time>2018-04-11T09:56:31Z</time>
      </trkpt>
      <trkpt lat="45.88707" lon="4.6643">
        <ele>384</ele>
        <time>2018-04-11T09:56:32Z</time>
      </trkpt>
      <trkpt lat="45.88714" lon="4.66436">
        <ele>383</ele>
        <time>2018-04-11T09:56:36Z</time>
      </trkpt>
      <trkpt lat="45.88716" lon="4.66438">
        <ele>383</ele>
        <time>2018-04-11T09:56:37Z</time>
      </trkpt>
      <trkpt lat="45.88722" lon="4.66445">
        <ele>384</ele>
        <time>2018-04-11T09:56:40Z</time>
      </trkpt>
      <trkpt lat="45.88723" lon="4.66447">
        <ele>384</ele>
        <time>2018-04-11T09:56:41Z</time>
      </trkpt>
      <trkpt lat="45.88728" lon="4.66454">
        <ele>384</ele>
        <time>2018-04-11T09:56:44Z</time>
      </trkpt>
      <trkpt lat="45.8873" lon="4.66456">
        <ele>384</ele>
        <time>2018-04-11T09:56:45Z</time>
      </trkpt>
      <trkpt lat="45.88737" lon="4.66464">
        <ele>384</ele>
        <time>2018-04-11T09:56:49Z</time>
      </trkpt>
      <trkpt lat="45.88738" lon="4.66466">
        <ele>385</ele>
        <time>2018-04-11T09:56:50Z</time>
      </trkpt>
      <trkpt lat="45.88744" lon="4.66474">
        <ele>385</ele>
        <time>2018-04-11T09:56:54Z</time>
      </trkpt>
      <trkpt lat="45.88745" lon="4.66476">
        <ele>385</ele>
        <time>2018-04-11T09:56:55Z</time>
      </trkpt>
      <trkpt lat="45.8875" lon="4.66485">
        <ele>386</ele>
        <time>2018-04-11T09:57:00Z</time>
      </trkpt>
      <trkpt lat="45.88751" lon="4.66487">
        <ele>384</ele>
        <time>2018-04-11T09:57:01Z</time>
      </trkpt>
      <trkpt lat="45.88757" lon="4.66496">
        <ele>385</ele>
        <time>2018-04-11T09:57:07Z</time>
      </trkpt>
      <trkpt lat="45.88758" lon="4.66497">
        <ele>385</ele>
        <time>2018-04-11T09:57:08Z</time>
      </trkpt>
      <trkpt lat="45.88764" lon="4.66505">
        <ele>389</ele>
        <time>2018-04-11T09:57:13Z</time>
      </trkpt>
      <trkpt lat="45.88766" lon="4.66506">
        <ele>389</ele>
        <time>2018-04-11T09:57:14Z</time>
      </trkpt>
      <trkpt lat="45.88772" lon="4.66514">
        <ele>390</ele>
        <time>2018-04-11T09:57:19Z</time>
      </trkpt>
      <trkpt lat="45.88773" lon="4.66516">
        <ele>390</ele>
        <time>2018-04-11T09:57:20Z</time>
      </trkpt>
      <trkpt lat="45.8878" lon="4.66523">
        <ele>391</ele>
        <time>2018-04-11T09:57:25Z</time>
      </trkpt>
      <trkpt lat="45.88781" lon="4.66525">
        <ele>391</ele>
        <time>2018-04-11T09:57:26Z</time>
      </trkpt>
      <trkpt lat="45.88788" lon="4.66532">
        <ele>391</ele>
        <time>2018-04-11T09:57:31Z</time>
      </trkpt>
      <trkpt lat="45.88789" lon="4.66533">
        <ele>391</ele>
        <time>2018-04-11T09:57:32Z</time>
      </trkpt>
      <trkpt lat="45.88797" lon="4.66539">
        <ele>391</ele>
        <time>2018-04-11T09:57:38Z</time>
      </trkpt>
      <trkpt lat="45.88798" lon="4.6654">
        <ele>391</ele>
        <time>2018-04-11T09:57:39Z</time>
      </trkpt>
      <trkpt lat="45.88805" lon="4.66546">
        <ele>392</ele>
        <time>2018-04-11T09:57:57Z</time>
      </trkpt>
      <trkpt lat="45.88806" lon="4.66546">
        <ele>392</ele>
        <time>2018-04-11T09:57:58Z</time>
      </trkpt>
      <trkpt lat="45.88813" lon="4.66547">
        <ele>392</ele>
        <time>2018-04-11T09:58:02Z</time>
      </trkpt>
      <trkpt lat="45.88815" lon="4.66548">
        <ele>392</ele>
        <time>2018-04-11T09:58:03Z</time>
      </trkpt>
      <trkpt lat="45.88822" lon="4.66551">
        <ele>392</ele>
        <time>2018-04-11T09:58:07Z</time>
      </trkpt>
      <trkpt lat="45.88824" lon="4.66552">
        <ele>392</ele>
        <time>2018-04-11T09:58:08Z</time>
      </trkpt>
      <trkpt lat="45.88831" lon="4.66558">
        <ele>393</ele>
        <time>2018-04-11T09:58:13Z</time>
      </trkpt>
      <trkpt lat="45.88833" lon="4.66559">
        <ele>393</ele>
        <time>2018-04-11T09:58:14Z</time>
      </trkpt>
      <trkpt lat="45.88841" lon="4.66562">
        <ele>392</ele>
        <time>2018-04-11T09:58:20Z</time>
      </trkpt>
      <trkpt lat="45.88843" lon="4.66563">
        <ele>392</ele>
        <time>2018-04-11T09:58:21Z</time>
      </trkpt>
      <trkpt lat="45.88849" lon="4.66569">
        <ele>392</ele>
        <time>2018-04-11T09:58:25Z</time>
      </trkpt>
      <trkpt lat="45.8885" lon="4.6657">
        <ele>392</ele>
        <time>2018-04-11T09:58:26Z</time>
      </trkpt>
      <trkpt lat="45.88856" lon="4.66576">
        <ele>392</ele>
        <time>2018-04-11T09:58:30Z</time>
      </trkpt>
      <trkpt lat="45.88858" lon="4.66578">
        <ele>392</ele>
        <time>2018-04-11T09:58:31Z</time>
      </trkpt>
      <trkpt lat="45.88864" lon="4.66585">
        <ele>399</ele>
        <time>2018-04-11T09:58:36Z</time>
      </trkpt>
      <trkpt lat="45.88865" lon="4.66586">
        <ele>399</ele>
        <time>2018-04-11T09:58:37Z</time>
      </trkpt>
      <trkpt lat="45.8887" lon="4.66595">
        <ele>399</ele>
        <time>2018-04-11T09:58:42Z</time>
      </trkpt>
      <trkpt lat="45.88872" lon="4.66596">
        <ele>400</ele>
        <time>2018-04-11T09:58:43Z</time>
      </trkpt>
      <trkpt lat="45.88876" lon="4.66605">
        <ele>400</ele>
        <time>2018-04-11T09:58:48Z</time>
      </trkpt>
      <trkpt lat="45.88877" lon="4.66607">
        <ele>400</ele>
        <time>2018-04-11T09:58:49Z</time>
      </trkpt>
      <trkpt lat="45.88882" lon="4.66616">
        <ele>400</ele>
        <time>2018-04-11T09:58:54Z</time>
      </trkpt>
      <trkpt lat="45.88883" lon="4.66617">
        <ele>400</ele>
        <time>2018-04-11T09:58:55Z</time>
      </trkpt>
      <trkpt lat="45.88889" lon="4.66626">
        <ele>401</ele>
        <time>2018-04-11T09:59:02Z</time>
      </trkpt>
      <trkpt lat="45.8889" lon="4.66627">
        <ele>401</ele>
        <time>2018-04-11T09:59:03Z</time>
      </trkpt>
      <trkpt lat="45.88896" lon="4.66636">
        <ele>402</ele>
        <time>2018-04-11T09:59:08Z</time>
      </trkpt>
      <trkpt lat="45.88897" lon="4.66638">
        <ele>402</ele>
        <time>2018-04-11T09:59:09Z</time>
      </trkpt>
      <trkpt lat="45.88902" lon="4.66645">
        <ele>403</ele>
        <time>2018-04-11T09:59:13Z</time>
      </trkpt>
      <trkpt lat="45.88904" lon="4.66647">
        <ele>403</ele>
        <time>2018-04-11T09:59:14Z</time>
      </trkpt>
      <trkpt lat="45.8891" lon="4.66653">
        <ele>404</ele>
        <time>2018-04-11T09:59:17Z</time>
      </trkpt>
      <trkpt lat="45.88911" lon="4.66655">
        <ele>404</ele>
        <time>2018-04-11T09:59:18Z</time>
      </trkpt>
      <trkpt lat="45.88918" lon="4.66662">
        <ele>405</ele>
        <time>2018-04-11T09:59:22Z</time>
      </trkpt>
      <trkpt lat="45.8892" lon="4.66663">
        <ele>405</ele>
        <time>2018-04-11T09:59:23Z</time>
      </trkpt>
      <trkpt lat="45.88927" lon="4.6667">
        <ele>407</ele>
        <time>2018-04-11T09:59:27Z</time>
      </trkpt>
      <trkpt lat="45.88929" lon="4.66671">
        <ele>407</ele>
        <time>2018-04-11T09:59:28Z</time>
      </trkpt>
      <trkpt lat="45.88936" lon="4.66677">
        <ele>408</ele>
        <time>2018-04-11T09:59:32Z</time>
      </trkpt>
      <trkpt lat="45.88938" lon="4.66679">
        <ele>408</ele>
        <time>2018-04-11T09:59:33Z</time>
      </trkpt>
      <trkpt lat="45.88945" lon="4.66685">
        <ele>409</ele>
        <time>2018-04-11T09:59:37Z</time>
      </trkpt>
      <trkpt lat="45.88947" lon="4.66686">
        <ele>409</ele>
        <time>2018-04-11T09:59:38Z</time>
      </trkpt>
      <trkpt lat="45.88953" lon="4.66691">
        <ele>409</ele>
        <time>2018-04-11T09:59:42Z</time>
      </trkpt>
      <trkpt lat="45.88955" lon="4.66693">
        <ele>409</ele>
        <time>2018-04-11T09:59:43Z</time>
      </trkpt>
      <trkpt lat="45.88963" lon="4.66698">
        <ele>409</ele>
        <time>2018-04-11T09:59:47Z</time>
      </trkpt>
      <trkpt lat="45.88965" lon="4.66699">
        <ele>409</ele>
        <time>2018-04-11T09:59:48Z</time>
      </trkpt>
      <trkpt lat="45.88974" lon="4.66702">
        <ele>409</ele>
        <time>2018-04-11T09:59:52Z</time>
      </trkpt>
      <trkpt lat="45.88976" lon="4.66703">
        <ele>409</ele>
        <time>2018-04-11T09:59:53Z</time>
      </trkpt>
      <trkpt lat="45.88983" lon="4.66706">
        <ele>409</ele>
        <time>2018-04-11T09:59:56Z</time>
      </trkpt>
      <trkpt lat="45.88986" lon="4.66707">
        <ele>409</ele>
        <time>2018-04-11T09:59:57Z</time>
      </trkpt>
      <trkpt lat="45.88994" lon="4.66711">
        <ele>410</ele>
        <time>2018-04-11T10:00:00Z</time>
      </trkpt>
      <trkpt lat="45.88997" lon="4.66713">
        <ele>410</ele>
        <time>2018-04-11T10:00:01Z</time>
      </trkpt>
      <trkpt lat="45.89004" lon="4.66716">
        <ele>407</ele>
        <time>2018-04-11T10:00:04Z</time>
      </trkpt>
      <trkpt lat="45.89006" lon="4.66716">
        <ele>407</ele>
        <time>2018-04-11T10:00:05Z</time>
      </trkpt>
      <trkpt lat="45.89014" lon="4.6672">
        <ele>407</ele>
        <time>2018-04-11T10:00:09Z</time>
      </trkpt>
      <trkpt lat="45.89016" lon="4.66721">
        <ele>408</ele>
        <time>2018-04-11T10:00:10Z</time>
      </trkpt>
      <trkpt lat="45.89024" lon="4.66726">
        <ele>408</ele>
        <time>2018-04-11T10:00:14Z</time>
      </trkpt>
      <trkpt lat="45.89027" lon="4.66729">
        <ele>408</ele>
        <time>2018-04-11T10:00:15Z</time>
      </trkpt>
      <trkpt lat="45.89035" lon="4.66735">
        <ele>408</ele>
        <time>2018-04-11T10:00:16Z</time>
      </trkpt>
      <trkpt lat="45.89041" lon="4.66739">
        <ele>407</ele>
        <time>2018-04-11T10:00:19Z</time>
      </trkpt>
      <trkpt lat="45.89043" lon="4.66741">
        <ele>407</ele>
        <time>2018-04-11T10:00:20Z</time>
      </trkpt>
      <trkpt lat="45.89049" lon="4.66747">
        <ele>407</ele>
        <time>2018-04-11T10:00:23Z</time>
      </trkpt>
      <trkpt lat="45.89051" lon="4.66749">
        <ele>407</ele>
        <time>2018-04-11T10:00:24Z</time>
      </trkpt>
      <trkpt lat="45.89057" lon="4.66756">
        <ele>412</ele>
        <time>2018-04-11T10:00:27Z</time>
      </trkpt>
      <trkpt lat="45.89059" lon="4.66758">
        <ele>412</ele>
        <time>2018-04-11T10:00:28Z</time>
      </trkpt>
      <trkpt lat="45.89066" lon="4.66764">
        <ele>412</ele>
        <time>2018-04-11T10:00:32Z</time>
      </trkpt>
      <trkpt lat="45.89068" lon="4.66765">
        <ele>412</ele>
        <time>2018-04-11T10:00:33Z</time>
      </trkpt>
      <trkpt lat="45.89074" lon="4.66769">
        <ele>412</ele>
        <time>2018-04-11T10:00:36Z</time>
      </trkpt>
      <trkpt lat="45.89076" lon="4.6677">
        <ele>412</ele>
        <time>2018-04-11T10:00:37Z</time>
      </trkpt>
      <trkpt lat="45.89083" lon="4.66775">
        <ele>412</ele>
        <time>2018-04-11T10:00:40Z</time>
      </trkpt>
      <trkpt lat="45.89086" lon="4.66777">
        <ele>410</ele>
        <time>2018-04-11T10:00:41Z</time>
      </trkpt>
      <trkpt lat="45.89093" lon="4.66783">
        <ele>410</ele>
        <time>2018-04-11T10:00:44Z</time>
      </trkpt>
      <trkpt lat="45.89095" lon="4.66785">
        <ele>410</ele>
        <time>2018-04-11T10:00:45Z</time>
      </trkpt>
      <trkpt lat="45.89103" lon="4.66791">
        <ele>410</ele>
        <time>2018-04-11T10:00:48Z</time>
      </trkpt>
      <trkpt lat="45.89106" lon="4.66793">
        <ele>410</ele>
        <time>2018-04-11T10:00:49Z</time>
      </trkpt>
      <trkpt lat="45.89111" lon="4.66795">
        <ele>410</ele>
        <time>2018-04-11T10:00:51Z</time>
      </trkpt>
      <trkpt lat="45.89114" lon="4.66797">
        <ele>410</ele>
        <time>2018-04-11T10:00:52Z</time>
      </trkpt>
      <trkpt lat="45.89121" lon="4.66804">
        <ele>411</ele>
        <time>2018-04-11T10:00:55Z</time>
      </trkpt>
      <trkpt lat="45.89122" lon="4.66807">
        <ele>411</ele>
        <time>2018-04-11T10:00:56Z</time>
      </trkpt>
      <trkpt lat="45.89123" lon="4.66818">
        <ele>411</ele>
        <time>2018-04-11T10:01:01Z</time>
      </trkpt>
      <trkpt lat="45.89123" lon="4.6682">
        <ele>411</ele>
        <time>2018-04-11T10:01:02Z</time>
      </trkpt>
      <trkpt lat="45.89123" lon="4.66822">
        <ele>411</ele>
        <time>2018-04-11T10:01:05Z</time>
      </trkpt>
      <trkpt lat="45.89123" lon="4.66823">
        <ele>411</ele>
        <time>2018-04-11T10:01:06Z</time>
      </trkpt>
      <trkpt lat="45.89124" lon="4.66829">
        <ele>411</ele>
        <time>2018-04-11T10:01:17Z</time>
      </trkpt>
      <trkpt lat="45.89125" lon="4.66829">
        <ele>411</ele>
        <time>2018-04-11T10:01:18Z</time>
      </trkpt>
      <trkpt lat="45.89125" lon="4.66825">
        <ele>411</ele>
        <time>2018-04-11T10:13:56Z</time>
      </trkpt>
      <trkpt lat="45.89134" lon="4.66826">
        <ele>411</ele>
        <time>2018-04-11T10:13:57Z</time>
      </trkpt>
      <trkpt lat="45.89141" lon="4.66832">
        <ele>412</ele>
        <time>2018-04-11T10:14:00Z</time>
      </trkpt>
      <trkpt lat="45.89143" lon="4.66834">
        <ele>414</ele>
        <time>2018-04-11T10:14:01Z</time>
      </trkpt>
      <trkpt lat="45.89146" lon="4.66846">
        <ele>414</ele>
        <time>2018-04-11T10:14:05Z</time>
      </trkpt>
      <trkpt lat="45.89146" lon="4.6685">
        <ele>414</ele>
        <time>2018-04-11T10:14:06Z</time>
      </trkpt>
      <trkpt lat="45.89146" lon="4.66861">
        <ele>414</ele>
        <time>2018-04-11T10:14:09Z</time>
      </trkpt>
      <trkpt lat="45.89145" lon="4.66865">
        <ele>414</ele>
        <time>2018-04-11T10:14:10Z</time>
      </trkpt>
      <trkpt lat="45.89145" lon="4.66869">
        <ele>414</ele>
        <time>2018-04-11T10:14:11Z</time>
      </trkpt>
      <trkpt lat="45.89145" lon="4.66881">
        <ele>414</ele>
        <time>2018-04-11T10:14:12Z</time>
      </trkpt>
      <trkpt lat="45.89147" lon="4.66891">
        <ele>414</ele>
        <time>2018-04-11T10:14:14Z</time>
      </trkpt>
      <trkpt lat="45.8915" lon="4.66896">
        <ele>414</ele>
        <time>2018-04-11T10:14:15Z</time>
      </trkpt>
      <trkpt lat="45.89153" lon="4.66906">
        <ele>415</ele>
        <time>2018-04-11T10:14:17Z</time>
      </trkpt>
      <trkpt lat="45.89154" lon="4.66911">
        <ele>415</ele>
        <time>2018-04-11T10:14:18Z</time>
      </trkpt>
      <trkpt lat="45.89158" lon="4.66921">
        <ele>414</ele>
        <time>2018-04-11T10:14:21Z</time>
      </trkpt>
      <trkpt lat="45.89159" lon="4.66923">
        <ele>414</ele>
        <time>2018-04-11T10:14:22Z</time>
      </trkpt>
      <trkpt lat="45.89163" lon="4.66934">
        <ele>413</ele>
        <time>2018-04-11T10:14:25Z</time>
      </trkpt>
      <trkpt lat="45.89166" lon="4.66947">
        <ele>412</ele>
        <time>2018-04-11T10:14:26Z</time>
      </trkpt>
      <trkpt lat="45.89169" lon="4.66955">
        <ele>415</ele>
        <time>2018-04-11T10:14:30Z</time>
      </trkpt>
      <trkpt lat="45.8917" lon="4.66959">
        <ele>415</ele>
        <time>2018-04-11T10:14:31Z</time>
      </trkpt>
      <trkpt lat="45.89173" lon="4.6697">
        <ele>415</ele>
        <time>2018-04-11T10:14:32Z</time>
      </trkpt>
      <trkpt lat="45.89174" lon="4.66976">
        <ele>414</ele>
        <time>2018-04-11T10:14:33Z</time>
      </trkpt>
      <trkpt lat="45.89176" lon="4.66987">
        <ele>414</ele>
        <time>2018-04-11T10:14:35Z</time>
      </trkpt>
      <trkpt lat="45.89177" lon="4.66993">
        <ele>413</ele>
        <time>2018-04-11T10:14:36Z</time>
      </trkpt>
      <trkpt lat="45.8918" lon="4.67004">
        <ele>412</ele>
        <time>2018-04-11T10:14:38Z</time>
      </trkpt>
      <trkpt lat="45.89182" lon="4.6701">
        <ele>412</ele>
        <time>2018-04-11T10:14:39Z</time>
      </trkpt>
      <trkpt lat="45.89185" lon="4.6702">
        <ele>412</ele>
        <time>2018-04-11T10:14:41Z</time>
      </trkpt>
      <trkpt lat="45.89188" lon="4.67024">
        <ele>413</ele>
        <time>2018-04-11T10:14:42Z</time>
      </trkpt>
      <trkpt lat="45.8919" lon="4.67036">
        <ele>412</ele>
        <time>2018-04-11T10:14:44Z</time>
      </trkpt>
      <trkpt lat="45.89191" lon="4.67041">
        <ele>412</ele>
        <time>2018-04-11T10:14:45Z</time>
      </trkpt>
      <trkpt lat="45.89196" lon="4.67052">
        <ele>412</ele>
        <time>2018-04-11T10:14:47Z</time>
      </trkpt>
      <trkpt lat="45.89198" lon="4.67057">
        <ele>412</ele>
        <time>2018-04-11T10:14:48Z</time>
      </trkpt>
      <trkpt lat="45.89204" lon="4.67066">
        <ele>412</ele>
        <time>2018-04-11T10:14:50Z</time>
      </trkpt>
      <trkpt lat="45.89205" lon="4.67071">
        <ele>412</ele>
        <time>2018-04-11T10:14:51Z</time>
      </trkpt>
      <trkpt lat="45.89209" lon="4.67081">
        <ele>412</ele>
        <time>2018-04-11T10:14:53Z</time>
      </trkpt>
      <trkpt lat="45.89211" lon="4.67086">
        <ele>410</ele>
        <time>2018-04-11T10:14:54Z</time>
      </trkpt>
      <trkpt lat="45.89214" lon="4.67092">
        <ele>410</ele>
        <time>2018-04-11T10:14:55Z</time>
      </trkpt>
      <trkpt lat="45.89216" lon="4.67097">
        <ele>411</ele>
        <time>2018-04-11T10:14:56Z</time>
      </trkpt>
      <trkpt lat="45.89219" lon="4.67104">
        <ele>411</ele>
        <time>2018-04-11T10:14:57Z</time>
      </trkpt>
      <trkpt lat="45.89221" lon="4.67109">
        <ele>411</ele>
        <time>2018-04-11T10:14:58Z</time>
      </trkpt>
      <trkpt lat="45.89224" lon="4.67115">
        <ele>411</ele>
        <time>2018-04-11T10:14:59Z</time>
      </trkpt>
      <trkpt lat="45.89227" lon="4.67121">
        <ele>411</ele>
        <time>2018-04-11T10:15:00Z</time>
      </trkpt>
      <trkpt lat="45.8923" lon="4.67126">
        <ele>411</ele>
        <time>2018-04-11T10:15:01Z</time>
      </trkpt>
      <trkpt lat="45.89232" lon="4.67133">
        <ele>411</ele>
        <time>2018-04-11T10:15:02Z</time>
      </trkpt>
      <trkpt lat="45.89235" lon="4.67138">
        <ele>411</ele>
        <time>2018-04-11T10:15:03Z</time>
      </trkpt>
      <trkpt lat="45.89237" lon="4.67144">
        <ele>411</ele>
        <time>2018-04-11T10:15:04Z</time>
      </trkpt>
      <trkpt lat="45.8924" lon="4.67149">
        <ele>411</ele>
        <time>2018-04-11T10:15:05Z</time>
      </trkpt>
      <trkpt lat="45.89243" lon="4.67154">
        <ele>412</ele>
        <time>2018-04-11T10:15:06Z</time>
      </trkpt>
      <trkpt lat="45.89247" lon="4.67159">
        <ele>412</ele>
        <time>2018-04-11T10:15:07Z</time>
      </trkpt>
      <trkpt lat="45.89251" lon="4.67164">
        <ele>413</ele>
        <time>2018-04-11T10:15:08Z</time>
      </trkpt>
      <trkpt lat="45.89254" lon="4.67169">
        <ele>413</ele>
        <time>2018-04-11T10:15:09Z</time>
      </trkpt>
      <trkpt lat="45.89258" lon="4.67174">
        <ele>412</ele>
        <time>2018-04-11T10:15:10Z</time>
      </trkpt>
      <trkpt lat="45.89262" lon="4.67178">
        <ele>412</ele>
        <time>2018-04-11T10:15:11Z</time>
      </trkpt>
      <trkpt lat="45.89267" lon="4.67182">
        <ele>412</ele>
        <time>2018-04-11T10:15:12Z</time>
      </trkpt>
      <trkpt lat="45.89272" lon="4.67185">
        <ele>412</ele>
        <time>2018-04-11T10:15:13Z</time>
      </trkpt>
      <trkpt lat="45.89277" lon="4.67189">
        <ele>412</ele>
        <time>2018-04-11T10:15:14Z</time>
      </trkpt>
      <trkpt lat="45.89282" lon="4.67193">
        <ele>412</ele>
        <time>2018-04-11T10:15:15Z</time>
      </trkpt>
      <trkpt lat="45.89286" lon="4.67196">
        <ele>411</ele>
        <time>2018-04-11T10:15:16Z</time>
      </trkpt>
      <trkpt lat="45.89292" lon="4.67199">
        <ele>411</ele>
        <time>2018-04-11T10:15:17Z</time>
      </trkpt>
      <trkpt lat="45.89298" lon="4.67202">
        <ele>411</ele>
        <time>2018-04-11T10:15:18Z</time>
      </trkpt>
      <trkpt lat="45.89304" lon="4.67205">
        <ele>411</ele>
        <time>2018-04-11T10:15:19Z</time>
      </trkpt>
      <trkpt lat="45.89309" lon="4.67207">
        <ele>411</ele>
        <time>2018-04-11T10:15:20Z</time>
      </trkpt>
      <trkpt lat="45.89314" lon="4.67209">
        <ele>411</ele>
        <time>2018-04-11T10:15:21Z</time>
      </trkpt>
      <trkpt lat="45.89318" lon="4.67212">
        <ele>411</ele>
        <time>2018-04-11T10:15:22Z</time>
      </trkpt>
      <trkpt lat="45.89323" lon="4.67214">
        <ele>411</ele>
        <time>2018-04-11T10:15:23Z</time>
      </trkpt>
      <trkpt lat="45.89327" lon="4.67216">
        <ele>411</ele>
        <time>2018-04-11T10:15:24Z</time>
      </trkpt>
      <trkpt lat="45.89332" lon="4.67218">
        <ele>411</ele>
        <time>2018-04-11T10:15:25Z</time>
      </trkpt>
      <trkpt lat="45.89336" lon="4.67221">
        <ele>415</ele>
        <time>2018-04-11T10:15:26Z</time>
      </trkpt>
      <trkpt lat="45.89341" lon="4.67224">
        <ele>415</ele>
        <time>2018-04-11T10:15:27Z</time>
      </trkpt>
      <trkpt lat="45.89346" lon="4.67228">
        <ele>414</ele>
        <time>2018-04-11T10:15:28Z</time>
      </trkpt>
      <trkpt lat="45.89351" lon="4.67232">
        <ele>414</ele>
        <time>2018-04-11T10:15:29Z</time>
      </trkpt>
      <trkpt lat="45.89356" lon="4.67237">
        <ele>414</ele>
        <time>2018-04-11T10:15:30Z</time>
      </trkpt>
      <trkpt lat="45.8936" lon="4.67242">
        <ele>415</ele>
        <time>2018-04-11T10:15:31Z</time>
      </trkpt>
      <trkpt lat="45.89364" lon="4.67248">
        <ele>415</ele>
        <time>2018-04-11T10:15:32Z</time>
      </trkpt>
      <trkpt lat="45.89368" lon="4.67255">
        <ele>409</ele>
        <time>2018-04-11T10:15:33Z</time>
      </trkpt>
      <trkpt lat="45.89372" lon="4.67262">
        <ele>409</ele>
        <time>2018-04-11T10:15:34Z</time>
      </trkpt>
      <trkpt lat="45.89375" lon="4.67268">
        <ele>409</ele>
        <time>2018-04-11T10:15:35Z</time>
      </trkpt>
      <trkpt lat="45.89377" lon="4.67276">
        <ele>409</ele>
        <time>2018-04-11T10:15:36Z</time>
      </trkpt>
      <trkpt lat="45.89381" lon="4.67282">
        <ele>408</ele>
        <time>2018-04-11T10:15:37Z</time>
      </trkpt>
      <trkpt lat="45.89385" lon="4.67289">
        <ele>408</ele>
        <time>2018-04-11T10:15:38Z</time>
      </trkpt>
      <trkpt lat="45.89389" lon="4.67295">
        <ele>408</ele>
        <time>2018-04-11T10:15:39Z</time>
      </trkpt>
      <trkpt lat="45.89393" lon="4.673">
        <ele>408</ele>
        <time>2018-04-11T10:15:40Z</time>
      </trkpt>
      <trkpt lat="45.89397" lon="4.67306">
        <ele>408</ele>
        <time>2018-04-11T10:15:41Z</time>
      </trkpt>
      <trkpt lat="45.894" lon="4.67312">
        <ele>407</ele>
        <time>2018-04-11T10:15:42Z</time>
      </trkpt>
      <trkpt lat="45.89404" lon="4.67317">
        <ele>407</ele>
        <time>2018-04-11T10:15:43Z</time>
      </trkpt>
      <trkpt lat="45.89408" lon="4.67322">
        <ele>407</ele>
        <time>2018-04-11T10:15:44Z</time>
      </trkpt>
      <trkpt lat="45.89413" lon="4.67327">
        <ele>407</ele>
        <time>2018-04-11T10:15:45Z</time>
      </trkpt>
      <trkpt lat="45.89417" lon="4.67333">
        <ele>407</ele>
        <time>2018-04-11T10:15:46Z</time>
      </trkpt>
      <trkpt lat="45.89422" lon="4.67338">
        <ele>407</ele>
        <time>2018-04-11T10:15:47Z</time>
      </trkpt>
      <trkpt lat="45.89427" lon="4.67343">
        <ele>407</ele>
        <time>2018-04-11T10:15:48Z</time>
      </trkpt>
      <trkpt lat="45.89433" lon="4.67349">
        <ele>407</ele>
        <time>2018-04-11T10:15:49Z</time>
      </trkpt>
      <trkpt lat="45.89438" lon="4.67354">
        <ele>407</ele>
        <time>2018-04-11T10:15:50Z</time>
      </trkpt>
      <trkpt lat="45.89443" lon="4.67359">
        <ele>407</ele>
        <time>2018-04-11T10:15:51Z</time>
      </trkpt>
      <trkpt lat="45.89448" lon="4.67365">
        <ele>407</ele>
        <time>2018-04-11T10:15:52Z</time>
      </trkpt>
      <trkpt lat="45.89453" lon="4.6737">
        <ele>407</ele>
        <time>2018-04-11T10:15:53Z</time>
      </trkpt>
      <trkpt lat="45.89459" lon="4.67375">
        <ele>407</ele>
        <time>2018-04-11T10:15:54Z</time>
      </trkpt>
      <trkpt lat="45.89465" lon="4.67379">
        <ele>407</ele>
        <time>2018-04-11T10:15:55Z</time>
      </trkpt>
      <trkpt lat="45.89471" lon="4.67384">
        <ele>407</ele>
        <time>2018-04-11T10:15:56Z</time>
      </trkpt>
      <trkpt lat="45.89475" lon="4.67388">
        <ele>407</ele>
        <time>2018-04-11T10:15:57Z</time>
      </trkpt>
      <trkpt lat="45.89481" lon="4.67392">
        <ele>407</ele>
        <time>2018-04-11T10:15:58Z</time>
      </trkpt>
      <trkpt lat="45.89486" lon="4.67396">
        <ele>406</ele>
        <time>2018-04-11T10:15:59Z</time>
      </trkpt>
      <trkpt lat="45.89492" lon="4.67401">
        <ele>406</ele>
        <time>2018-04-11T10:16:00Z</time>
      </trkpt>
      <trkpt lat="45.89497" lon="4.67405">
        <ele>405</ele>
        <time>2018-04-11T10:16:01Z</time>
      </trkpt>
      <trkpt lat="45.89503" lon="4.67409">
        <ele>407</ele>
        <time>2018-04-11T10:16:02Z</time>
      </trkpt>
      <trkpt lat="45.89508" lon="4.67413">
        <ele>407</ele>
        <time>2018-04-11T10:16:03Z</time>
      </trkpt>
      <trkpt lat="45.89515" lon="4.67417">
        <ele>408</ele>
        <time>2018-04-11T10:16:04Z</time>
      </trkpt>
      <trkpt lat="45.8952" lon="4.6742">
        <ele>402</ele>
        <time>2018-04-11T10:16:05Z</time>
      </trkpt>
      <trkpt lat="45.89526" lon="4.67423">
        <ele>402</ele>
        <time>2018-04-11T10:16:06Z</time>
      </trkpt>
      <trkpt lat="45.89532" lon="4.67426">
        <ele>402</ele>
        <time>2018-04-11T10:16:07Z</time>
      </trkpt>
      <trkpt lat="45.89538" lon="4.67428">
        <ele>402</ele>
        <time>2018-04-11T10:16:08Z</time>
      </trkpt>
      <trkpt lat="45.89544" lon="4.67431">
        <ele>402</ele>
        <time>2018-04-11T10:16:09Z</time>
      </trkpt>
      <trkpt lat="45.8955" lon="4.67433">
        <ele>402</ele>
        <time>2018-04-11T10:16:10Z</time>
      </trkpt>
      <trkpt lat="45.89556" lon="4.67435">
        <ele>402</ele>
        <time>2018-04-11T10:16:11Z</time>
      </trkpt>
      <trkpt lat="45.89562" lon="4.67437">
        <ele>403</ele>
        <time>2018-04-11T10:16:12Z</time>
      </trkpt>
      <trkpt lat="45.89569" lon="4.67439">
        <ele>403</ele>
        <time>2018-04-11T10:16:13Z</time>
      </trkpt>
      <trkpt lat="45.89576" lon="4.67442">
        <ele>403</ele>
        <time>2018-04-11T10:16:14Z</time>
      </trkpt>
      <trkpt lat="45.89583" lon="4.67445">
        <ele>403</ele>
        <time>2018-04-11T10:16:15Z</time>
      </trkpt>
      <trkpt lat="45.89589" lon="4.67447">
        <ele>404</ele>
        <time>2018-04-11T10:16:16Z</time>
      </trkpt>
      <trkpt lat="45.89596" lon="4.67449">
        <ele>404</ele>
        <time>2018-04-11T10:16:17Z</time>
      </trkpt>
      <trkpt lat="45.896" lon="4.67452">
        <ele>404</ele>
        <time>2018-04-11T10:16:18Z</time>
      </trkpt>
      <trkpt lat="45.89606" lon="4.67453">
        <ele>403</ele>
        <time>2018-04-11T10:16:19Z</time>
      </trkpt>
      <trkpt lat="45.89613" lon="4.67455">
        <ele>403</ele>
        <time>2018-04-11T10:16:20Z</time>
      </trkpt>
      <trkpt lat="45.89619" lon="4.67457">
        <ele>403</ele>
        <time>2018-04-11T10:16:21Z</time>
      </trkpt>
      <trkpt lat="45.89626" lon="4.6746">
        <ele>403</ele>
        <time>2018-04-11T10:16:22Z</time>
      </trkpt>
      <trkpt lat="45.89632" lon="4.67462">
        <ele>403</ele>
        <time>2018-04-11T10:16:23Z</time>
      </trkpt>
      <trkpt lat="45.89638" lon="4.67464">
        <ele>403</ele>
        <time>2018-04-11T10:16:24Z</time>
      </trkpt>
      <trkpt lat="45.89643" lon="4.67467">
        <ele>403</ele>
        <time>2018-04-11T10:16:25Z</time>
      </trkpt>
      <trkpt lat="45.89648" lon="4.67469">
        <ele>403</ele>
        <time>2018-04-11T10:16:26Z</time>
      </trkpt>
      <trkpt lat="45.89654" lon="4.67472">
        <ele>402</ele>
        <time>2018-04-11T10:16:27Z</time>
      </trkpt>
      <trkpt lat="45.89661" lon="4.67475">
        <ele>402</ele>
        <time>2018-04-11T10:16:28Z</time>
      </trkpt>
      <trkpt lat="45.89667" lon="4.67478">
        <ele>402</ele>
        <time>2018-04-11T10:16:29Z</time>
      </trkpt>
      <trkpt lat="45.89673" lon="4.67479">
        <ele>402</ele>
        <time>2018-04-11T10:16:30Z</time>
      </trkpt>
      <trkpt lat="45.89679" lon="4.67481">
        <ele>402</ele>
        <time>2018-04-11T10:16:31Z</time>
      </trkpt>
      <trkpt lat="45.89685" lon="4.67484">
        <ele>402</ele>
        <time>2018-04-11T10:16:32Z</time>
      </trkpt>
      <trkpt lat="45.89691" lon="4.67487">
        <ele>402</ele>
        <time>2018-04-11T10:16:33Z</time>
      </trkpt>
      <trkpt lat="45.89697" lon="4.67488">
        <ele>402</ele>
        <time>2018-04-11T10:16:34Z</time>
      </trkpt>
      <trkpt lat="45.89704" lon="4.67489">
        <ele>402</ele>
        <time>2018-04-11T10:16:35Z</time>
      </trkpt>
      <trkpt lat="45.89711" lon="4.67491">
        <ele>402</ele>
        <time>2018-04-11T10:16:36Z</time>
      </trkpt>
      <trkpt lat="45.89718" lon="4.67494">
        <ele>402</ele>
        <time>2018-04-11T10:16:37Z</time>
      </trkpt>
      <trkpt lat="45.89725" lon="4.67495">
        <ele>402</ele>
        <time>2018-04-11T10:16:38Z</time>
      </trkpt>
      <trkpt lat="45.89732" lon="4.67496">
        <ele>401</ele>
        <time>2018-04-11T10:16:39Z</time>
      </trkpt>
      <trkpt lat="45.89739" lon="4.67496">
        <ele>401</ele>
        <time>2018-04-11T10:16:40Z</time>
      </trkpt>
      <trkpt lat="45.89746" lon="4.67496">
        <ele>400</ele>
        <time>2018-04-11T10:16:41Z</time>
      </trkpt>
      <trkpt lat="45.89754" lon="4.67493">
        <ele>399</ele>
        <time>2018-04-11T10:16:42Z</time>
      </trkpt>
      <trkpt lat="45.8976" lon="4.67493">
        <ele>399</ele>
        <time>2018-04-11T10:16:43Z</time>
      </trkpt>
      <trkpt lat="45.89768" lon="4.67494">
        <ele>399</ele>
        <time>2018-04-11T10:16:44Z</time>
      </trkpt>
      <trkpt lat="45.89775" lon="4.67493">
        <ele>399</ele>
        <time>2018-04-11T10:16:45Z</time>
      </trkpt>
      <trkpt lat="45.89782" lon="4.67491">
        <ele>399</ele>
        <time>2018-04-11T10:16:46Z</time>
      </trkpt>
      <trkpt lat="45.89789" lon="4.67489">
        <ele>399</ele>
        <time>2018-04-11T10:16:47Z</time>
      </trkpt>
      <trkpt lat="45.89796" lon="4.67484">
        <ele>399</ele>
        <time>2018-04-11T10:16:48Z</time>
      </trkpt>
      <trkpt lat="45.89801" lon="4.67477">
        <ele>399</ele>
        <time>2018-04-11T10:16:49Z</time>
      </trkpt>
      <trkpt lat="45.89807" lon="4.6747">
        <ele>399</ele>
        <time>2018-04-11T10:16:50Z</time>
      </trkpt>
      <trkpt lat="45.89811" lon="4.67461">
        <ele>399</ele>
        <time>2018-04-11T10:16:51Z</time>
      </trkpt>
      <trkpt lat="45.89814" lon="4.67451">
        <ele>399</ele>
        <time>2018-04-11T10:16:52Z</time>
      </trkpt>
      <trkpt lat="45.89816" lon="4.67441">
        <ele>399</ele>
        <time>2018-04-11T10:16:53Z</time>
      </trkpt>
      <trkpt lat="45.89818" lon="4.6743">
        <ele>399</ele>
        <time>2018-04-11T10:16:54Z</time>
      </trkpt>
      <trkpt lat="45.8982" lon="4.6742">
        <ele>398</ele>
        <time>2018-04-11T10:16:55Z</time>
      </trkpt>
      <trkpt lat="45.89822" lon="4.6741">
        <ele>401</ele>
        <time>2018-04-11T10:16:56Z</time>
      </trkpt>
      <trkpt lat="45.89826" lon="4.67401">
        <ele>402</ele>
        <time>2018-04-11T10:16:57Z</time>
      </trkpt>
      <trkpt lat="45.8983" lon="4.67392">
        <ele>403</ele>
        <time>2018-04-11T10:16:58Z</time>
      </trkpt>
      <trkpt lat="45.89834" lon="4.67384">
        <ele>398</ele>
        <time>2018-04-11T10:16:59Z</time>
      </trkpt>
      <trkpt lat="45.89839" lon="4.67377">
        <ele>398</ele>
        <time>2018-04-11T10:17:00Z</time>
      </trkpt>
      <trkpt lat="45.89843" lon="4.67368">
        <ele>399</ele>
        <time>2018-04-11T10:17:01Z</time>
      </trkpt>
      <trkpt lat="45.89848" lon="4.67361">
        <ele>399</ele>
        <time>2018-04-11T10:17:02Z</time>
      </trkpt>
      <trkpt lat="45.89855" lon="4.67356">
        <ele>399</ele>
        <time>2018-04-11T10:17:03Z</time>
      </trkpt>
      <trkpt lat="45.89861" lon="4.67351">
        <ele>399</ele>
        <time>2018-04-11T10:17:04Z</time>
      </trkpt>
      <trkpt lat="45.89868" lon="4.67347">
        <ele>399</ele>
        <time>2018-04-11T10:17:05Z</time>
      </trkpt>
      <trkpt lat="45.89875" lon="4.67346">
        <ele>399</ele>
        <time>2018-04-11T10:17:06Z</time>
      </trkpt>
      <trkpt lat="45.89882" lon="4.67346">
        <ele>398</ele>
        <time>2018-04-11T10:17:07Z</time>
      </trkpt>
      <trkpt lat="45.8989" lon="4.67347">
        <ele>398</ele>
        <time>2018-04-11T10:17:08Z</time>
      </trkpt>
      <trkpt lat="45.89899" lon="4.67348">
        <ele>398</ele>
        <time>2018-04-11T10:17:09Z</time>
      </trkpt>
      <trkpt lat="45.89907" lon="4.67351">
        <ele>398</ele>
        <time>2018-04-11T10:17:10Z</time>
      </trkpt>
      <trkpt lat="45.89915" lon="4.67353">
        <ele>398</ele>
        <time>2018-04-11T10:17:11Z</time>
      </trkpt>
      <trkpt lat="45.89923" lon="4.67355">
        <ele>396</ele>
        <time>2018-04-11T10:17:12Z</time>
      </trkpt>
      <trkpt lat="45.89931" lon="4.67357">
        <ele>396</ele>
        <time>2018-04-11T10:17:13Z</time>
      </trkpt>
      <trkpt lat="45.89938" lon="4.67359">
        <ele>395</ele>
        <time>2018-04-11T10:17:14Z</time>
      </trkpt>
      <trkpt lat="45.89945" lon="4.6736">
        <ele>395</ele>
        <time>2018-04-11T10:17:15Z</time>
      </trkpt>
      <trkpt lat="45.89952" lon="4.67363">
        <ele>395</ele>
        <time>2018-04-11T10:17:16Z</time>
      </trkpt>
      <trkpt lat="45.89959" lon="4.67364">
        <ele>395</ele>
        <time>2018-04-11T10:17:17Z</time>
      </trkpt>
      <trkpt lat="45.89967" lon="4.67367">
        <ele>394</ele>
        <time>2018-04-11T10:17:18Z</time>
      </trkpt>
      <trkpt lat="45.89976" lon="4.67369">
        <ele>394</ele>
        <time>2018-04-11T10:17:19Z</time>
      </trkpt>
      <trkpt lat="45.89984" lon="4.67373">
        <ele>394</ele>
        <time>2018-04-11T10:17:20Z</time>
      </trkpt>
      <trkpt lat="45.89993" lon="4.67376">
        <ele>394</ele>
        <time>2018-04-11T10:17:21Z</time>
      </trkpt>
      <trkpt lat="45.90002" lon="4.67382">
        <ele>396</ele>
        <time>2018-04-11T10:17:22Z</time>
      </trkpt>
      <trkpt lat="45.90009" lon="4.67387">
        <ele>395</ele>
        <time>2018-04-11T10:17:23Z</time>
      </trkpt>
      <trkpt lat="45.90016" lon="4.67394">
        <ele>394</ele>
        <time>2018-04-11T10:17:24Z</time>
      </trkpt>
      <trkpt lat="45.90024" lon="4.67401">
        <ele>394</ele>
        <time>2018-04-11T10:17:25Z</time>
      </trkpt>
      <trkpt lat="45.90031" lon="4.67409">
        <ele>394</ele>
        <time>2018-04-11T10:17:26Z</time>
      </trkpt>
      <trkpt lat="45.90037" lon="4.67416">
        <ele>395</ele>
        <time>2018-04-11T10:17:27Z</time>
      </trkpt>
      <trkpt lat="45.90045" lon="4.67424">
        <ele>385</ele>
        <time>2018-04-11T10:17:28Z</time>
      </trkpt>
      <trkpt lat="45.90052" lon="4.67432">
        <ele>385</ele>
        <time>2018-04-11T10:17:29Z</time>
      </trkpt>
      <trkpt lat="45.90059" lon="4.6744">
        <ele>385</ele>
        <time>2018-04-11T10:17:30Z</time>
      </trkpt>
      <trkpt lat="45.90066" lon="4.67448">
        <ele>384</ele>
        <time>2018-04-11T10:17:31Z</time>
      </trkpt>
      <trkpt lat="45.90073" lon="4.67456">
        <ele>383</ele>
        <time>2018-04-11T10:17:32Z</time>
      </trkpt>
      <trkpt lat="45.90079" lon="4.67464">
        <ele>382</ele>
        <time>2018-04-11T10:17:33Z</time>
      </trkpt>
      <trkpt lat="45.90086" lon="4.67471">
        <ele>386</ele>
        <time>2018-04-11T10:17:34Z</time>
      </trkpt>
      <trkpt lat="45.90093" lon="4.67479">
        <ele>385</ele>
        <time>2018-04-11T10:17:35Z</time>
      </trkpt>
      <trkpt lat="45.90099" lon="4.67487">
        <ele>384</ele>
        <time>2018-04-11T10:17:36Z</time>
      </trkpt>
      <trkpt lat="45.90105" lon="4.67496">
        <ele>384</ele>
        <time>2018-04-11T10:17:37Z</time>
      </trkpt>
      <trkpt lat="45.9011" lon="4.67506">
        <ele>377</ele>
        <time>2018-04-11T10:17:38Z</time>
      </trkpt>
      <trkpt lat="45.90116" lon="4.67515">
        <ele>377</ele>
        <time>2018-04-11T10:17:39Z</time>
      </trkpt>
      <trkpt lat="45.9012" lon="4.67525">
        <ele>377</ele>
        <time>2018-04-11T10:17:40Z</time>
      </trkpt>
      <trkpt lat="45.90125" lon="4.67535">
        <ele>377</ele>
        <time>2018-04-11T10:17:41Z</time>
      </trkpt>
      <trkpt lat="45.90131" lon="4.67543">
        <ele>377</ele>
        <time>2018-04-11T10:17:42Z</time>
      </trkpt>
      <trkpt lat="45.90135" lon="4.67553">
        <ele>376</ele>
        <time>2018-04-11T10:17:43Z</time>
      </trkpt>
      <trkpt lat="45.9014" lon="4.67563">
        <ele>376</ele>
        <time>2018-04-11T10:17:44Z</time>
      </trkpt>
      <trkpt lat="45.90145" lon="4.67571">
        <ele>376</ele>
        <time>2018-04-11T10:17:45Z</time>
      </trkpt>
      <trkpt lat="45.90151" lon="4.6758">
        <ele>376</ele>
        <time>2018-04-11T10:17:46Z</time>
      </trkpt>
      <trkpt lat="45.90156" lon="4.67587">
        <ele>373</ele>
        <time>2018-04-11T10:17:47Z</time>
      </trkpt>
      <trkpt lat="45.90162" lon="4.67595">
        <ele>373</ele>
        <time>2018-04-11T10:17:48Z</time>
      </trkpt>
      <trkpt lat="45.90169" lon="4.67601">
        <ele>376</ele>
        <time>2018-04-11T10:17:49Z</time>
      </trkpt>
      <trkpt lat="45.90175" lon="4.67609">
        <ele>376</ele>
        <time>2018-04-11T10:17:50Z</time>
      </trkpt>
      <trkpt lat="45.90181" lon="4.67616">
        <ele>375</ele>
        <time>2018-04-11T10:17:51Z</time>
      </trkpt>
      <trkpt lat="45.90187" lon="4.67623">
        <ele>375</ele>
        <time>2018-04-11T10:17:52Z</time>
      </trkpt>
      <trkpt lat="45.90194" lon="4.6763">
        <ele>375</ele>
        <time>2018-04-11T10:17:53Z</time>
      </trkpt>
      <trkpt lat="45.902" lon="4.67637">
        <ele>375</ele>
        <time>2018-04-11T10:17:54Z</time>
      </trkpt>
      <trkpt lat="45.90207" lon="4.67645">
        <ele>375</ele>
        <time>2018-04-11T10:17:55Z</time>
      </trkpt>
      <trkpt lat="45.90213" lon="4.67651">
        <ele>375</ele>
        <time>2018-04-11T10:17:56Z</time>
      </trkpt>
      <trkpt lat="45.90219" lon="4.67658">
        <ele>375</ele>
        <time>2018-04-11T10:17:57Z</time>
      </trkpt>
      <trkpt lat="45.90226" lon="4.67664">
        <ele>375</ele>
        <time>2018-04-11T10:17:58Z</time>
      </trkpt>
      <trkpt lat="45.90232" lon="4.67669">
        <ele>373</ele>
        <time>2018-04-11T10:17:59Z</time>
      </trkpt>
      <trkpt lat="45.90239" lon="4.67674">
        <ele>373</ele>
        <time>2018-04-11T10:18:00Z</time>
      </trkpt>
      <trkpt lat="45.90245" lon="4.67678">
        <ele>373</ele>
        <time>2018-04-11T10:18:01Z</time>
      </trkpt>
      <trkpt lat="45.90252" lon="4.67682">
        <ele>374</ele>
        <time>2018-04-11T10:18:02Z</time>
      </trkpt>
      <trkpt lat="45.90259" lon="4.67686">
        <ele>374</ele>
        <time>2018-04-11T10:18:03Z</time>
      </trkpt>
      <trkpt lat="45.90265" lon="4.67689">
        <ele>374</ele>
        <time>2018-04-11T10:18:04Z</time>
      </trkpt>
      <trkpt lat="45.90271" lon="4.67691">
        <ele>374</ele>
        <time>2018-04-11T10:18:05Z</time>
      </trkpt>
      <trkpt lat="45.90277" lon="4.67694">
        <ele>374</ele>
        <time>2018-04-11T10:18:06Z</time>
      </trkpt>
      <trkpt lat="45.90284" lon="4.67695">
        <ele>374</ele>
        <time>2018-04-11T10:18:07Z</time>
      </trkpt>
      <trkpt lat="45.9029" lon="4.67697">
        <ele>374</ele>
        <time>2018-04-11T10:18:08Z</time>
      </trkpt>
      <trkpt lat="45.90297" lon="4.677">
        <ele>374</ele>
        <time>2018-04-11T10:18:09Z</time>
      </trkpt>
      <trkpt lat="45.90304" lon="4.67703">
        <ele>374</ele>
        <time>2018-04-11T10:18:10Z</time>
      </trkpt>
      <trkpt lat="45.90312" lon="4.67706">
        <ele>374</ele>
        <time>2018-04-11T10:18:11Z</time>
      </trkpt>
      <trkpt lat="45.90317" lon="4.67708">
        <ele>374</ele>
        <time>2018-04-11T10:18:12Z</time>
      </trkpt>
      <trkpt lat="45.90324" lon="4.6771">
        <ele>373</ele>
        <time>2018-04-11T10:18:13Z</time>
      </trkpt>
      <trkpt lat="45.90331" lon="4.67713">
        <ele>373</ele>
        <time>2018-04-11T10:18:14Z</time>
      </trkpt>
      <trkpt lat="45.90337" lon="4.67716">
        <ele>372</ele>
        <time>2018-04-11T10:18:15Z</time>
      </trkpt>
      <trkpt lat="45.90345" lon="4.67719">
        <ele>371</ele>
        <time>2018-04-11T10:18:16Z</time>
      </trkpt>
      <trkpt lat="45.90353" lon="4.67721">
        <ele>371</ele>
        <time>2018-04-11T10:18:17Z</time>
      </trkpt>
      <trkpt lat="45.90359" lon="4.67723">
        <ele>371</ele>
        <time>2018-04-11T10:18:18Z</time>
      </trkpt>
      <trkpt lat="45.90366" lon="4.67726">
        <ele>371</ele>
        <time>2018-04-11T10:18:19Z</time>
      </trkpt>
      <trkpt lat="45.90372" lon="4.67728">
        <ele>370</ele>
        <time>2018-04-11T10:18:20Z</time>
      </trkpt>
      <trkpt lat="45.9038" lon="4.6773">
        <ele>370</ele>
        <time>2018-04-11T10:18:21Z</time>
      </trkpt>
      <trkpt lat="45.90387" lon="4.67733">
        <ele>370</ele>
        <time>2018-04-11T10:18:22Z</time>
      </trkpt>
      <trkpt lat="45.90394" lon="4.67735">
        <ele>369</ele>
        <time>2018-04-11T10:18:23Z</time>
      </trkpt>
      <trkpt lat="45.90401" lon="4.67738">
        <ele>368</ele>
        <time>2018-04-11T10:18:24Z</time>
      </trkpt>
      <trkpt lat="45.90407" lon="4.6774">
        <ele>368</ele>
        <time>2018-04-11T10:18:25Z</time>
      </trkpt>
      <trkpt lat="45.90414" lon="4.67743">
        <ele>367</ele>
        <time>2018-04-11T10:18:26Z</time>
      </trkpt>
      <trkpt lat="45.90421" lon="4.67745">
        <ele>366</ele>
        <time>2018-04-11T10:18:27Z</time>
      </trkpt>
      <trkpt lat="45.90428" lon="4.67748">
        <ele>366</ele>
        <time>2018-04-11T10:18:28Z</time>
      </trkpt>
      <trkpt lat="45.90435" lon="4.67751">
        <ele>364</ele>
        <time>2018-04-11T10:18:29Z</time>
      </trkpt>
      <trkpt lat="45.90442" lon="4.67753">
        <ele>364</ele>
        <time>2018-04-11T10:18:30Z</time>
      </trkpt>
      <trkpt lat="45.90448" lon="4.67756">
        <ele>364</ele>
        <time>2018-04-11T10:18:31Z</time>
      </trkpt>
      <trkpt lat="45.90455" lon="4.67758">
        <ele>364</ele>
        <time>2018-04-11T10:18:32Z</time>
      </trkpt>
      <trkpt lat="45.90461" lon="4.67761">
        <ele>364</ele>
        <time>2018-04-11T10:18:33Z</time>
      </trkpt>
      <trkpt lat="45.90468" lon="4.67763">
        <ele>364</ele>
        <time>2018-04-11T10:18:34Z</time>
      </trkpt>
      <trkpt lat="45.90474" lon="4.67765">
        <ele>364</ele>
        <time>2018-04-11T10:18:35Z</time>
      </trkpt>
      <trkpt lat="45.9048" lon="4.67768">
        <ele>364</ele>
        <time>2018-04-11T10:18:36Z</time>
      </trkpt>
      <trkpt lat="45.90486" lon="4.67771">
        <ele>364</ele>
        <time>2018-04-11T10:18:37Z</time>
      </trkpt>
      <trkpt lat="45.90493" lon="4.67773">
        <ele>364</ele>
        <time>2018-04-11T10:18:38Z</time>
      </trkpt>
      <trkpt lat="45.905" lon="4.67775">
        <ele>364</ele>
        <time>2018-04-11T10:18:39Z</time>
      </trkpt>
      <trkpt lat="45.90507" lon="4.67777">
        <ele>365</ele>
        <time>2018-04-11T10:18:40Z</time>
      </trkpt>
      <trkpt lat="45.90513" lon="4.6778">
        <ele>365</ele>
        <time>2018-04-11T10:18:41Z</time>
      </trkpt>
      <trkpt lat="45.9052" lon="4.67782">
        <ele>365</ele>
        <time>2018-04-11T10:18:42Z</time>
      </trkpt>
      <trkpt lat="45.90526" lon="4.67784">
        <ele>365</ele>
        <time>2018-04-11T10:18:43Z</time>
      </trkpt>
      <trkpt lat="45.90532" lon="4.67787">
        <ele>365</ele>
        <time>2018-04-11T10:18:44Z</time>
      </trkpt>
      <trkpt lat="45.90538" lon="4.67789">
        <ele>365</ele>
        <time>2018-04-11T10:18:45Z</time>
      </trkpt>
      <trkpt lat="45.90545" lon="4.67791">
        <ele>365</ele>
        <time>2018-04-11T10:18:46Z</time>
      </trkpt>
      <trkpt lat="45.90551" lon="4.67792">
        <ele>365</ele>
        <time>2018-04-11T10:18:47Z</time>
      </trkpt>
      <trkpt lat="45.90558" lon="4.67794">
        <ele>365</ele>
        <time>2018-04-11T10:18:48Z</time>
      </trkpt>
      <trkpt lat="45.90563" lon="4.67795">
        <ele>365</ele>
        <time>2018-04-11T10:18:49Z</time>
      </trkpt>
      <trkpt lat="45.90568" lon="4.67797">
        <ele>365</ele>
        <time>2018-04-11T10:18:50Z</time>
      </trkpt>
      <trkpt lat="45.90574" lon="4.67798">
        <ele>366</ele>
        <time>2018-04-11T10:18:51Z</time>
      </trkpt>
      <trkpt lat="45.90579" lon="4.67799">
        <ele>366</ele>
        <time>2018-04-11T10:18:52Z</time>
      </trkpt>
      <trkpt lat="45.90584" lon="4.678">
        <ele>367</ele>
        <time>2018-04-11T10:18:53Z</time>
      </trkpt>
      <trkpt lat="45.90589" lon="4.678">
        <ele>367</ele>
        <time>2018-04-11T10:18:54Z</time>
      </trkpt>
      <trkpt lat="45.90593" lon="4.678">
        <ele>367</ele>
        <time>2018-04-11T10:18:55Z</time>
      </trkpt>
      <trkpt lat="45.90598" lon="4.678">
        <ele>367</ele>
        <time>2018-04-11T10:18:56Z</time>
      </trkpt>
      <trkpt lat="45.90603" lon="4.67801">
        <ele>367</ele>
        <time>2018-04-11T10:18:57Z</time>
      </trkpt>
      <trkpt lat="45.90608" lon="4.67801">
        <ele>367</ele>
        <time>2018-04-11T10:18:58Z</time>
      </trkpt>
      <trkpt lat="45.90612" lon="4.678">
        <ele>367</ele>
        <time>2018-04-11T10:18:59Z</time>
      </trkpt>
      <trkpt lat="45.90617" lon="4.67799">
        <ele>367</ele>
        <time>2018-04-11T10:19:00Z</time>
      </trkpt>
      <trkpt lat="45.90622" lon="4.678">
        <ele>367</ele>
        <time>2018-04-11T10:19:01Z</time>
      </trkpt>
      <trkpt lat="45.90627" lon="4.678">
        <ele>367</ele>
        <time>2018-04-11T10:19:02Z</time>
      </trkpt>
      <trkpt lat="45.90631" lon="4.678">
        <ele>367</ele>
        <time>2018-04-11T10:19:03Z</time>
      </trkpt>
      <trkpt lat="45.90635" lon="4.678">
        <ele>367</ele>
        <time>2018-04-11T10:19:04Z</time>
      </trkpt>
      <trkpt lat="45.90641" lon="4.678">
        <ele>367</ele>
        <time>2018-04-11T10:19:05Z</time>
      </trkpt>
      <trkpt lat="45.90647" lon="4.67801">
        <ele>368</ele>
        <time>2018-04-11T10:19:06Z</time>
      </trkpt>
      <trkpt lat="45.90651" lon="4.67801">
        <ele>368</ele>
        <time>2018-04-11T10:19:07Z</time>
      </trkpt>
      <trkpt lat="45.9066" lon="4.678">
        <ele>368</ele>
        <time>2018-04-11T10:19:09Z</time>
      </trkpt>
      <trkpt lat="45.90665" lon="4.678">
        <ele>368</ele>
        <time>2018-04-11T10:19:10Z</time>
      </trkpt>
      <trkpt lat="45.90673" lon="4.67802">
        <ele>368</ele>
        <time>2018-04-11T10:19:12Z</time>
      </trkpt>
      <trkpt lat="45.90678" lon="4.67803">
        <ele>368</ele>
        <time>2018-04-11T10:19:13Z</time>
      </trkpt>
      <trkpt lat="45.90683" lon="4.67803">
        <ele>368</ele>
        <time>2018-04-11T10:19:14Z</time>
      </trkpt>
      <trkpt lat="45.90687" lon="4.67804">
        <ele>368</ele>
        <time>2018-04-11T10:19:15Z</time>
      </trkpt>
      <trkpt lat="45.90695" lon="4.67807">
        <ele>368</ele>
        <time>2018-04-11T10:19:17Z</time>
      </trkpt>
      <trkpt lat="45.907" lon="4.67808">
        <ele>368</ele>
        <time>2018-04-11T10:19:18Z</time>
      </trkpt>
      <trkpt lat="45.90707" lon="4.6781">
        <ele>368</ele>
        <time>2018-04-11T10:19:20Z</time>
      </trkpt>
      <trkpt lat="45.90709" lon="4.67811">
        <ele>368</ele>
        <time>2018-04-11T10:19:21Z</time>
      </trkpt>
      <trkpt lat="45.90716" lon="4.67815">
        <ele>369</ele>
        <time>2018-04-11T10:19:24Z</time>
      </trkpt>
      <trkpt lat="45.90719" lon="4.67816">
        <ele>369</ele>
        <time>2018-04-11T10:19:25Z</time>
      </trkpt>
      <trkpt lat="45.90724" lon="4.67818">
        <ele>369</ele>
        <time>2018-04-11T10:19:27Z</time>
      </trkpt>
      <trkpt lat="45.90727" lon="4.6782">
        <ele>369</ele>
        <time>2018-04-11T10:19:28Z</time>
      </trkpt>
      <trkpt lat="45.90734" lon="4.67822">
        <ele>369</ele>
        <time>2018-04-11T10:19:30Z</time>
      </trkpt>
      <trkpt lat="45.90737" lon="4.67823">
        <ele>369</ele>
        <time>2018-04-11T10:19:31Z</time>
      </trkpt>
      <trkpt lat="45.90743" lon="4.67826">
        <ele>370</ele>
        <time>2018-04-11T10:19:33Z</time>
      </trkpt>
      <trkpt lat="45.90747" lon="4.67827">
        <ele>370</ele>
        <time>2018-04-11T10:19:34Z</time>
      </trkpt>
      <trkpt lat="45.90753" lon="4.67829">
        <ele>370</ele>
        <time>2018-04-11T10:19:36Z</time>
      </trkpt>
      <trkpt lat="45.90756" lon="4.67831">
        <ele>370</ele>
        <time>2018-04-11T10:19:37Z</time>
      </trkpt>
      <trkpt lat="45.90765" lon="4.67835">
        <ele>371</ele>
        <time>2018-04-11T10:19:38Z</time>
      </trkpt>
      <trkpt lat="45.90772" lon="4.67838">
        <ele>371</ele>
        <time>2018-04-11T10:19:40Z</time>
      </trkpt>
      <trkpt lat="45.90776" lon="4.6784">
        <ele>371</ele>
        <time>2018-04-11T10:19:41Z</time>
      </trkpt>
      <trkpt lat="45.90784" lon="4.67843">
        <ele>371</ele>
        <time>2018-04-11T10:19:44Z</time>
      </trkpt>
      <trkpt lat="45.9079" lon="4.67845">
        <ele>371</ele>
        <time>2018-04-11T10:19:45Z</time>
      </trkpt>
      <trkpt lat="45.90798" lon="4.67847">
        <ele>371</ele>
        <time>2018-04-11T10:19:47Z</time>
      </trkpt>
      <trkpt lat="45.90801" lon="4.67849">
        <ele>371</ele>
        <time>2018-04-11T10:19:48Z</time>
      </trkpt>
      <trkpt lat="45.90808" lon="4.67852">
        <ele>371</ele>
        <time>2018-04-11T10:19:51Z</time>
      </trkpt>
      <trkpt lat="45.90815" lon="4.67855">
        <ele>371</ele>
        <time>2018-04-11T10:19:52Z</time>
      </trkpt>
      <trkpt lat="45.90822" lon="4.67857">
        <ele>371</ele>
        <time>2018-04-11T10:19:54Z</time>
      </trkpt>
      <trkpt lat="45.90826" lon="4.67858">
        <ele>371</ele>
        <time>2018-04-11T10:19:55Z</time>
      </trkpt>
      <trkpt lat="45.90834" lon="4.6786">
        <ele>370</ele>
        <time>2018-04-11T10:19:57Z</time>
      </trkpt>
      <trkpt lat="45.90838" lon="4.67861">
        <ele>370</ele>
        <time>2018-04-11T10:19:58Z</time>
      </trkpt>
      <trkpt lat="45.90847" lon="4.67864">
        <ele>370</ele>
        <time>2018-04-11T10:20:00Z</time>
      </trkpt>
      <trkpt lat="45.90851" lon="4.67865">
        <ele>370</ele>
        <time>2018-04-11T10:20:01Z</time>
      </trkpt>
      <trkpt lat="45.90855" lon="4.67867">
        <ele>370</ele>
        <time>2018-04-11T10:20:02Z</time>
      </trkpt>
      <trkpt lat="45.9086" lon="4.67869">
        <ele>370</ele>
        <time>2018-04-11T10:20:03Z</time>
      </trkpt>
      <trkpt lat="45.90868" lon="4.67871">
        <ele>370</ele>
        <time>2018-04-11T10:20:05Z</time>
      </trkpt>
      <trkpt lat="45.9087" lon="4.67872">
        <ele>370</ele>
        <time>2018-04-11T10:20:06Z</time>
      </trkpt>
      <trkpt lat="45.90877" lon="4.67875">
        <ele>370</ele>
        <time>2018-04-11T10:20:09Z</time>
      </trkpt>
      <trkpt lat="45.90884" lon="4.67879">
        <ele>370</ele>
        <time>2018-04-11T10:20:10Z</time>
      </trkpt>
      <trkpt lat="45.90891" lon="4.67881">
        <ele>370</ele>
        <time>2018-04-11T10:20:12Z</time>
      </trkpt>
      <trkpt lat="45.90894" lon="4.67883">
        <ele>370</ele>
        <time>2018-04-11T10:20:13Z</time>
      </trkpt>
      <trkpt lat="45.90901" lon="4.67885">
        <ele>370</ele>
        <time>2018-04-11T10:20:16Z</time>
      </trkpt>
      <trkpt lat="45.90907" lon="4.67888">
        <ele>370</ele>
        <time>2018-04-11T10:20:17Z</time>
      </trkpt>
      <trkpt lat="45.90914" lon="4.67891">
        <ele>370</ele>
        <time>2018-04-11T10:20:19Z</time>
      </trkpt>
      <trkpt lat="45.90918" lon="4.67892">
        <ele>370</ele>
        <time>2018-04-11T10:20:20Z</time>
      </trkpt>
      <trkpt lat="45.90926" lon="4.67894">
        <ele>370</ele>
        <time>2018-04-11T10:20:22Z</time>
      </trkpt>
      <trkpt lat="45.9093" lon="4.67896">
        <ele>370</ele>
        <time>2018-04-11T10:20:23Z</time>
      </trkpt>
      <trkpt lat="45.90938" lon="4.67899">
        <ele>370</ele>
        <time>2018-04-11T10:20:25Z</time>
      </trkpt>
      <trkpt lat="45.90942" lon="4.679">
        <ele>370</ele>
        <time>2018-04-11T10:20:26Z</time>
      </trkpt>
      <trkpt lat="45.90949" lon="4.67904">
        <ele>370</ele>
        <time>2018-04-11T10:20:28Z</time>
      </trkpt>
      <trkpt lat="45.90953" lon="4.67906">
        <ele>370</ele>
        <time>2018-04-11T10:20:29Z</time>
      </trkpt>
      <trkpt lat="45.90961" lon="4.67909">
        <ele>370</ele>
        <time>2018-04-11T10:20:31Z</time>
      </trkpt>
      <trkpt lat="45.90964" lon="4.67911">
        <ele>370</ele>
        <time>2018-04-11T10:20:32Z</time>
      </trkpt>
      <trkpt lat="45.90972" lon="4.67915">
        <ele>370</ele>
        <time>2018-04-11T10:20:34Z</time>
      </trkpt>
      <trkpt lat="45.90976" lon="4.67916">
        <ele>370</ele>
        <time>2018-04-11T10:20:35Z</time>
      </trkpt>
      <trkpt lat="45.90982" lon="4.6792">
        <ele>372</ele>
        <time>2018-04-11T10:20:37Z</time>
      </trkpt>
      <trkpt lat="45.90986" lon="4.67922">
        <ele>372</ele>
        <time>2018-04-11T10:20:38Z</time>
      </trkpt>
      <trkpt lat="45.90992" lon="4.67926">
        <ele>372</ele>
        <time>2018-04-11T10:20:40Z</time>
      </trkpt>
      <trkpt lat="45.90996" lon="4.67927">
        <ele>372</ele>
        <time>2018-04-11T10:20:41Z</time>
      </trkpt>
      <trkpt lat="45.91003" lon="4.6793">
        <ele>373</ele>
        <time>2018-04-11T10:20:43Z</time>
      </trkpt>
      <trkpt lat="45.91006" lon="4.67932">
        <ele>373</ele>
        <time>2018-04-11T10:20:44Z</time>
      </trkpt>
      <trkpt lat="45.91013" lon="4.67936">
        <ele>374</ele>
        <time>2018-04-11T10:20:46Z</time>
      </trkpt>
      <trkpt lat="45.91017" lon="4.67937">
        <ele>374</ele>
        <time>2018-04-11T10:20:47Z</time>
      </trkpt>
      <trkpt lat="45.91023" lon="4.67941">
        <ele>374</ele>
        <time>2018-04-11T10:20:50Z</time>
      </trkpt>
      <trkpt lat="45.91025" lon="4.67942">
        <ele>374</ele>
        <time>2018-04-11T10:20:51Z</time>
      </trkpt>
      <trkpt lat="45.91028" lon="4.67943">
        <ele>374</ele>
        <time>2018-04-11T10:20:52Z</time>
      </trkpt>
      <trkpt lat="45.91037" lon="4.67947">
        <ele>374</ele>
        <time>2018-04-11T10:20:53Z</time>
      </trkpt>
      <trkpt lat="45.91043" lon="4.67949">
        <ele>374</ele>
        <time>2018-04-11T10:20:56Z</time>
      </trkpt>
      <trkpt lat="45.91045" lon="4.6795">
        <ele>374</ele>
        <time>2018-04-11T10:20:57Z</time>
      </trkpt>
      <trkpt lat="45.91054" lon="4.67953">
        <ele>375</ele>
        <time>2018-04-11T10:21:00Z</time>
      </trkpt>
      <trkpt lat="45.91057" lon="4.67953">
        <ele>375</ele>
        <time>2018-04-11T10:21:01Z</time>
      </trkpt>
      <trkpt lat="45.91063" lon="4.67955">
        <ele>375</ele>
        <time>2018-04-11T10:21:03Z</time>
      </trkpt>
      <trkpt lat="45.91066" lon="4.67956">
        <ele>375</ele>
        <time>2018-04-11T10:21:04Z</time>
      </trkpt>
      <trkpt lat="45.91072" lon="4.67957">
        <ele>375</ele>
        <time>2018-04-11T10:21:06Z</time>
      </trkpt>
      <trkpt lat="45.91075" lon="4.67958">
        <ele>375</ele>
        <time>2018-04-11T10:21:07Z</time>
      </trkpt>
      <trkpt lat="45.91081" lon="4.6796">
        <ele>375</ele>
        <time>2018-04-11T10:21:09Z</time>
      </trkpt>
      <trkpt lat="45.91084" lon="4.67961">
        <ele>377</ele>
        <time>2018-04-11T10:21:10Z</time>
      </trkpt>
      <trkpt lat="45.91091" lon="4.67962">
        <ele>377</ele>
        <time>2018-04-11T10:21:12Z</time>
      </trkpt>
      <trkpt lat="45.91094" lon="4.67963">
        <ele>377</ele>
        <time>2018-04-11T10:21:13Z</time>
      </trkpt>
      <trkpt lat="45.91101" lon="4.67964">
        <ele>377</ele>
        <time>2018-04-11T10:21:15Z</time>
      </trkpt>
      <trkpt lat="45.91105" lon="4.67965">
        <ele>377</ele>
        <time>2018-04-11T10:21:16Z</time>
      </trkpt>
      <trkpt lat="45.91111" lon="4.67967">
        <ele>377</ele>
        <time>2018-04-11T10:21:18Z</time>
      </trkpt>
      <trkpt lat="45.91115" lon="4.67968">
        <ele>377</ele>
        <time>2018-04-11T10:21:19Z</time>
      </trkpt>
      <trkpt lat="45.91121" lon="4.6797">
        <ele>377</ele>
        <time>2018-04-11T10:21:21Z</time>
      </trkpt>
      <trkpt lat="45.91124" lon="4.67971">
        <ele>377</ele>
        <time>2018-04-11T10:21:22Z</time>
      </trkpt>
      <trkpt lat="45.9113" lon="4.67973">
        <ele>377</ele>
        <time>2018-04-11T10:21:24Z</time>
      </trkpt>
      <trkpt lat="45.91133" lon="4.67974">
        <ele>377</ele>
        <time>2018-04-11T10:21:25Z</time>
      </trkpt>
      <trkpt lat="45.91141" lon="4.67978">
        <ele>378</ele>
        <time>2018-04-11T10:21:28Z</time>
      </trkpt>
      <trkpt lat="45.91144" lon="4.67979">
        <ele>378</ele>
        <time>2018-04-11T10:21:29Z</time>
      </trkpt>
      <trkpt lat="45.91152" lon="4.67983">
        <ele>378</ele>
        <time>2018-04-11T10:21:32Z</time>
      </trkpt>
      <trkpt lat="45.91155" lon="4.67985">
        <ele>379</ele>
        <time>2018-04-11T10:21:33Z</time>
      </trkpt>
      <trkpt lat="45.91163" lon="4.6799">
        <ele>379</ele>
        <time>2018-04-11T10:21:36Z</time>
      </trkpt>
      <trkpt lat="45.91166" lon="4.67991">
        <ele>380</ele>
        <time>2018-04-11T10:21:37Z</time>
      </trkpt>
      <trkpt lat="45.91174" lon="4.67996">
        <ele>380</ele>
        <time>2018-04-11T10:21:40Z</time>
      </trkpt>
      <trkpt lat="45.91177" lon="4.67998">
        <ele>380</ele>
        <time>2018-04-11T10:21:41Z</time>
      </trkpt>
      <trkpt lat="45.91182" lon="4.68001">
        <ele>382</ele>
        <time>2018-04-11T10:21:43Z</time>
      </trkpt>
      <trkpt lat="45.91185" lon="4.68003">
        <ele>382</ele>
        <time>2018-04-11T10:21:44Z</time>
      </trkpt>
      <trkpt lat="45.91191" lon="4.68006">
        <ele>382</ele>
        <time>2018-04-11T10:21:46Z</time>
      </trkpt>
      <trkpt lat="45.91194" lon="4.68008">
        <ele>383</ele>
        <time>2018-04-11T10:21:47Z</time>
      </trkpt>
      <trkpt lat="45.912" lon="4.68011">
        <ele>383</ele>
        <time>2018-04-11T10:21:49Z</time>
      </trkpt>
      <trkpt lat="45.91203" lon="4.68013">
        <ele>383</ele>
        <time>2018-04-11T10:21:50Z</time>
      </trkpt>
      <trkpt lat="45.91208" lon="4.68016">
        <ele>383</ele>
        <time>2018-04-11T10:21:52Z</time>
      </trkpt>
      <trkpt lat="45.91211" lon="4.68017">
        <ele>383</ele>
        <time>2018-04-11T10:21:53Z</time>
      </trkpt>
      <trkpt lat="45.91219" lon="4.68022">
        <ele>383</ele>
        <time>2018-04-11T10:21:56Z</time>
      </trkpt>
      <trkpt lat="45.9122" lon="4.68022">
        <ele>384</ele>
        <time>2018-04-11T10:21:57Z</time>
      </trkpt>
      <trkpt lat="45.91228" lon="4.68025">
        <ele>384</ele>
        <time>2018-04-11T10:22:02Z</time>
      </trkpt>
      <trkpt lat="45.91229" lon="4.68026">
        <ele>384</ele>
        <time>2018-04-11T10:22:03Z</time>
      </trkpt>
      <trkpt lat="45.91236" lon="4.68029">
        <ele>384</ele>
        <time>2018-04-11T10:22:06Z</time>
      </trkpt>
      <trkpt lat="45.91238" lon="4.68031">
        <ele>384</ele>
        <time>2018-04-11T10:22:07Z</time>
      </trkpt>
      <trkpt lat="45.91246" lon="4.68036">
        <ele>384</ele>
        <time>2018-04-11T10:22:10Z</time>
      </trkpt>
      <trkpt lat="45.91248" lon="4.68037">
        <ele>384</ele>
        <time>2018-04-11T10:22:11Z</time>
      </trkpt>
      <trkpt lat="45.91254" lon="4.6804">
        <ele>385</ele>
        <time>2018-04-11T10:22:13Z</time>
      </trkpt>
      <trkpt lat="45.91257" lon="4.68041">
        <ele>385</ele>
        <time>2018-04-11T10:22:14Z</time>
      </trkpt>
      <trkpt lat="45.91263" lon="4.68043">
        <ele>385</ele>
        <time>2018-04-11T10:22:16Z</time>
      </trkpt>
      <trkpt lat="45.91266" lon="4.68045">
        <ele>385</ele>
        <time>2018-04-11T10:22:17Z</time>
      </trkpt>
      <trkpt lat="45.91272" lon="4.68047">
        <ele>385</ele>
        <time>2018-04-11T10:22:19Z</time>
      </trkpt>
      <trkpt lat="45.91275" lon="4.68049">
        <ele>385</ele>
        <time>2018-04-11T10:22:20Z</time>
      </trkpt>
      <trkpt lat="45.91281" lon="4.68052">
        <ele>385</ele>
        <time>2018-04-11T10:22:22Z</time>
      </trkpt>
      <trkpt lat="45.91284" lon="4.68053">
        <ele>385</ele>
        <time>2018-04-11T10:22:23Z</time>
      </trkpt>
      <trkpt lat="45.9129" lon="4.68056">
        <ele>385</ele>
        <time>2018-04-11T10:22:25Z</time>
      </trkpt>
      <trkpt lat="45.91299" lon="4.68061">
        <ele>385</ele>
        <time>2018-04-11T10:22:26Z</time>
      </trkpt>
      <trkpt lat="45.91306" lon="4.68063">
        <ele>385</ele>
        <time>2018-04-11T10:22:29Z</time>
      </trkpt>
      <trkpt lat="45.91308" lon="4.68063">
        <ele>385</ele>
        <time>2018-04-11T10:22:30Z</time>
      </trkpt>
      <trkpt lat="45.91311" lon="4.68064">
        <ele>385</ele>
        <time>2018-04-11T10:22:31Z</time>
      </trkpt>
      <trkpt lat="45.9132" lon="4.68067">
        <ele>385</ele>
        <time>2018-04-11T10:22:32Z</time>
      </trkpt>
      <trkpt lat="45.91328" lon="4.68071">
        <ele>385</ele>
        <time>2018-04-11T10:22:36Z</time>
      </trkpt>
      <trkpt lat="45.91335" lon="4.68074">
        <ele>385</ele>
        <time>2018-04-11T10:22:37Z</time>
      </trkpt>
      <trkpt lat="45.91343" lon="4.68077">
        <ele>385</ele>
        <time>2018-04-11T10:22:39Z</time>
      </trkpt>
      <trkpt lat="45.91347" lon="4.68079">
        <ele>385</ele>
        <time>2018-04-11T10:22:40Z</time>
      </trkpt>
      <trkpt lat="45.91355" lon="4.68082">
        <ele>385</ele>
        <time>2018-04-11T10:22:42Z</time>
      </trkpt>
      <trkpt lat="45.91359" lon="4.68083">
        <ele>386</ele>
        <time>2018-04-11T10:22:43Z</time>
      </trkpt>
      <trkpt lat="45.91364" lon="4.68086">
        <ele>386</ele>
        <time>2018-04-11T10:22:45Z</time>
      </trkpt>
      <trkpt lat="45.91369" lon="4.68089">
        <ele>386</ele>
        <time>2018-04-11T10:22:46Z</time>
      </trkpt>
      <trkpt lat="45.91377" lon="4.68092">
        <ele>386</ele>
        <time>2018-04-11T10:22:48Z</time>
      </trkpt>
      <trkpt lat="45.91382" lon="4.68092">
        <ele>386</ele>
        <time>2018-04-11T10:22:49Z</time>
      </trkpt>
      <trkpt lat="45.9139" lon="4.68092">
        <ele>386</ele>
        <time>2018-04-11T10:22:51Z</time>
      </trkpt>
      <trkpt lat="45.91394" lon="4.68092">
        <ele>386</ele>
        <time>2018-04-11T10:22:52Z</time>
      </trkpt>
      <trkpt lat="45.91401" lon="4.6809">
        <ele>386</ele>
        <time>2018-04-11T10:22:54Z</time>
      </trkpt>
      <trkpt lat="45.91405" lon="4.68089">
        <ele>386</ele>
        <time>2018-04-11T10:22:55Z</time>
      </trkpt>
      <trkpt lat="45.91413" lon="4.68088">
        <ele>386</ele>
        <time>2018-04-11T10:22:57Z</time>
      </trkpt>
      <trkpt lat="45.91418" lon="4.68088">
        <ele>386</ele>
        <time>2018-04-11T10:22:58Z</time>
      </trkpt>
      <trkpt lat="45.91426" lon="4.68086">
        <ele>385</ele>
        <time>2018-04-11T10:23:00Z</time>
      </trkpt>
      <trkpt lat="45.91431" lon="4.68086">
        <ele>385</ele>
        <time>2018-04-11T10:23:01Z</time>
      </trkpt>
      <trkpt lat="45.91438" lon="4.68089">
        <ele>385</ele>
        <time>2018-04-11T10:23:03Z</time>
      </trkpt>
      <trkpt lat="45.91443" lon="4.6809">
        <ele>385</ele>
        <time>2018-04-11T10:23:04Z</time>
      </trkpt>
      <trkpt lat="45.91451" lon="4.68093">
        <ele>384</ele>
        <time>2018-04-11T10:23:06Z</time>
      </trkpt>
      <trkpt lat="45.91455" lon="4.68095">
        <ele>384</ele>
        <time>2018-04-11T10:23:07Z</time>
      </trkpt>
      <trkpt lat="45.9146" lon="4.68097">
        <ele>384</ele>
        <time>2018-04-11T10:23:08Z</time>
      </trkpt>
      <trkpt lat="45.91465" lon="4.681">
        <ele>384</ele>
        <time>2018-04-11T10:23:09Z</time>
      </trkpt>
      <trkpt lat="45.9147" lon="4.68103">
        <ele>384</ele>
        <time>2018-04-11T10:23:10Z</time>
      </trkpt>
      <trkpt lat="45.91475" lon="4.68106">
        <ele>384</ele>
        <time>2018-04-11T10:23:11Z</time>
      </trkpt>
      <trkpt lat="45.9148" lon="4.68109">
        <ele>383</ele>
        <time>2018-04-11T10:23:12Z</time>
      </trkpt>
      <trkpt lat="45.91486" lon="4.68112">
        <ele>383</ele>
        <time>2018-04-11T10:23:13Z</time>
      </trkpt>
      <trkpt lat="45.91491" lon="4.68115">
        <ele>383</ele>
        <time>2018-04-11T10:23:14Z</time>
      </trkpt>
      <trkpt lat="45.91497" lon="4.68118">
        <ele>383</ele>
        <time>2018-04-11T10:23:15Z</time>
      </trkpt>
      <trkpt lat="45.91502" lon="4.68121">
        <ele>380</ele>
        <time>2018-04-11T10:23:16Z</time>
      </trkpt>
      <trkpt lat="45.91507" lon="4.68124">
        <ele>380</ele>
        <time>2018-04-11T10:23:17Z</time>
      </trkpt>
      <trkpt lat="45.91513" lon="4.68128">
        <ele>380</ele>
        <time>2018-04-11T10:23:18Z</time>
      </trkpt>
      <trkpt lat="45.91519" lon="4.68132">
        <ele>380</ele>
        <time>2018-04-11T10:23:19Z</time>
      </trkpt>
      <trkpt lat="45.91525" lon="4.68134">
        <ele>379</ele>
        <time>2018-04-11T10:23:20Z</time>
      </trkpt>
      <trkpt lat="45.91532" lon="4.68137">
        <ele>379</ele>
        <time>2018-04-11T10:23:21Z</time>
      </trkpt>
      <trkpt lat="45.91538" lon="4.68141">
        <ele>379</ele>
        <time>2018-04-11T10:23:22Z</time>
      </trkpt>
      <trkpt lat="45.91546" lon="4.68145">
        <ele>379</ele>
        <time>2018-04-11T10:23:23Z</time>
      </trkpt>
      <trkpt lat="45.91553" lon="4.68148">
        <ele>379</ele>
        <time>2018-04-11T10:23:24Z</time>
      </trkpt>
      <trkpt lat="45.9156" lon="4.68152">
        <ele>379</ele>
        <time>2018-04-11T10:23:25Z</time>
      </trkpt>
      <trkpt lat="45.91567" lon="4.68154">
        <ele>378</ele>
        <time>2018-04-11T10:23:26Z</time>
      </trkpt>
      <trkpt lat="45.91574" lon="4.68157">
        <ele>378</ele>
        <time>2018-04-11T10:23:27Z</time>
      </trkpt>
      <trkpt lat="45.91581" lon="4.68161">
        <ele>378</ele>
        <time>2018-04-11T10:23:28Z</time>
      </trkpt>
      <trkpt lat="45.91588" lon="4.68166">
        <ele>377</ele>
        <time>2018-04-11T10:23:29Z</time>
      </trkpt>
      <trkpt lat="45.91595" lon="4.68171">
        <ele>377</ele>
        <time>2018-04-11T10:23:30Z</time>
      </trkpt>
      <trkpt lat="45.91602" lon="4.68177">
        <ele>376</ele>
        <time>2018-04-11T10:23:31Z</time>
      </trkpt>
      <trkpt lat="45.91608" lon="4.68183">
        <ele>376</ele>
        <time>2018-04-11T10:23:32Z</time>
      </trkpt>
      <trkpt lat="45.91615" lon="4.68189">
        <ele>375</ele>
        <time>2018-04-11T10:23:33Z</time>
      </trkpt>
      <trkpt lat="45.91622" lon="4.68194">
        <ele>375</ele>
        <time>2018-04-11T10:23:34Z</time>
      </trkpt>
      <trkpt lat="45.91629" lon="4.682">
        <ele>375</ele>
        <time>2018-04-11T10:23:35Z</time>
      </trkpt>
      <trkpt lat="45.91637" lon="4.68204">
        <ele>374</ele>
        <time>2018-04-11T10:23:36Z</time>
      </trkpt>
      <trkpt lat="45.91645" lon="4.68209">
        <ele>374</ele>
        <time>2018-04-11T10:23:37Z</time>
      </trkpt>
      <trkpt lat="45.91652" lon="4.68213">
        <ele>374</ele>
        <time>2018-04-11T10:23:38Z</time>
      </trkpt>
      <trkpt lat="45.91659" lon="4.68219">
        <ele>374</ele>
        <time>2018-04-11T10:23:39Z</time>
      </trkpt>
      <trkpt lat="45.91666" lon="4.68224">
        <ele>374</ele>
        <time>2018-04-11T10:23:40Z</time>
      </trkpt>
      <trkpt lat="45.91674" lon="4.68229">
        <ele>371</ele>
        <time>2018-04-11T10:23:41Z</time>
      </trkpt>
      <trkpt lat="45.91681" lon="4.68234">
        <ele>371</ele>
        <time>2018-04-11T10:23:42Z</time>
      </trkpt>
      <trkpt lat="45.91688" lon="4.68238">
        <ele>371</ele>
        <time>2018-04-11T10:23:43Z</time>
      </trkpt>
      <trkpt lat="45.91694" lon="4.68243">
        <ele>371</ele>
        <time>2018-04-11T10:23:44Z</time>
      </trkpt>
      <trkpt lat="45.917" lon="4.68247">
        <ele>370</ele>
        <time>2018-04-11T10:23:45Z</time>
      </trkpt>
      <trkpt lat="45.91707" lon="4.68251">
        <ele>373</ele>
        <time>2018-04-11T10:23:46Z</time>
      </trkpt>
      <trkpt lat="45.91713" lon="4.68255">
        <ele>373</ele>
        <time>2018-04-11T10:23:47Z</time>
      </trkpt>
      <trkpt lat="45.91719" lon="4.68257">
        <ele>372</ele>
        <time>2018-04-11T10:23:48Z</time>
      </trkpt>
      <trkpt lat="45.91726" lon="4.68259">
        <ele>372</ele>
        <time>2018-04-11T10:23:49Z</time>
      </trkpt>
      <trkpt lat="45.91732" lon="4.68261">
        <ele>372</ele>
        <time>2018-04-11T10:23:50Z</time>
      </trkpt>
      <trkpt lat="45.91739" lon="4.68261">
        <ele>372</ele>
        <time>2018-04-11T10:23:51Z</time>
      </trkpt>
      <trkpt lat="45.91746" lon="4.68262">
        <ele>371</ele>
        <time>2018-04-11T10:23:52Z</time>
      </trkpt>
      <trkpt lat="45.91751" lon="4.68265">
        <ele>371</ele>
        <time>2018-04-11T10:23:53Z</time>
      </trkpt>
      <trkpt lat="45.91756" lon="4.68266">
        <ele>371</ele>
        <time>2018-04-11T10:23:54Z</time>
      </trkpt>
      <trkpt lat="45.91761" lon="4.68267">
        <ele>372</ele>
        <time>2018-04-11T10:23:55Z</time>
      </trkpt>
      <trkpt lat="45.91767" lon="4.68269">
        <ele>372</ele>
        <time>2018-04-11T10:23:56Z</time>
      </trkpt>
      <trkpt lat="45.91772" lon="4.6827">
        <ele>372</ele>
        <time>2018-04-11T10:23:57Z</time>
      </trkpt>
      <trkpt lat="45.91777" lon="4.68272">
        <ele>372</ele>
        <time>2018-04-11T10:23:58Z</time>
      </trkpt>
      <trkpt lat="45.91782" lon="4.68273">
        <ele>372</ele>
        <time>2018-04-11T10:23:59Z</time>
      </trkpt>
      <trkpt lat="45.91787" lon="4.68274">
        <ele>372</ele>
        <time>2018-04-11T10:24:00Z</time>
      </trkpt>
      <trkpt lat="45.91791" lon="4.68275">
        <ele>372</ele>
        <time>2018-04-11T10:24:01Z</time>
      </trkpt>
      <trkpt lat="45.91795" lon="4.68276">
        <ele>372</ele>
        <time>2018-04-11T10:24:02Z</time>
      </trkpt>
      <trkpt lat="45.918" lon="4.68277">
        <ele>372</ele>
        <time>2018-04-11T10:24:03Z</time>
      </trkpt>
      <trkpt lat="45.91809" lon="4.68278">
        <ele>372</ele>
        <time>2018-04-11T10:24:05Z</time>
      </trkpt>
      <trkpt lat="45.91813" lon="4.68279">
        <ele>373</ele>
        <time>2018-04-11T10:24:06Z</time>
      </trkpt>
      <trkpt lat="45.91819" lon="4.68281">
        <ele>373</ele>
        <time>2018-04-11T10:24:07Z</time>
      </trkpt>
      <trkpt lat="45.91822" lon="4.68282">
        <ele>373</ele>
        <time>2018-04-11T10:24:08Z</time>
      </trkpt>
      <trkpt lat="45.91826" lon="4.68282">
        <ele>373</ele>
        <time>2018-04-11T10:24:09Z</time>
      </trkpt>
      <trkpt lat="45.91831" lon="4.68283">
        <ele>373</ele>
        <time>2018-04-11T10:24:10Z</time>
      </trkpt>
      <trkpt lat="45.91839" lon="4.68283">
        <ele>374</ele>
        <time>2018-04-11T10:24:12Z</time>
      </trkpt>
      <trkpt lat="45.91844" lon="4.68285">
        <ele>375</ele>
        <time>2018-04-11T10:24:13Z</time>
      </trkpt>
      <trkpt lat="45.91848" lon="4.68286">
        <ele>375</ele>
        <time>2018-04-11T10:24:14Z</time>
      </trkpt>
      <trkpt lat="45.91853" lon="4.68288">
        <ele>375</ele>
        <time>2018-04-11T10:24:15Z</time>
      </trkpt>
      <trkpt lat="45.91857" lon="4.68289">
        <ele>375</ele>
        <time>2018-04-11T10:24:16Z</time>
      </trkpt>
      <trkpt lat="45.91862" lon="4.68289">
        <ele>375</ele>
        <time>2018-04-11T10:24:17Z</time>
      </trkpt>
      <trkpt lat="45.91868" lon="4.68289">
        <ele>375</ele>
        <time>2018-04-11T10:24:18Z</time>
      </trkpt>
      <trkpt lat="45.91871" lon="4.68289">
        <ele>376</ele>
        <time>2018-04-11T10:24:19Z</time>
      </trkpt>
      <trkpt lat="45.91879" lon="4.6829">
        <ele>376</ele>
        <time>2018-04-11T10:24:21Z</time>
      </trkpt>
      <trkpt lat="45.91883" lon="4.68291">
        <ele>376</ele>
        <time>2018-04-11T10:24:22Z</time>
      </trkpt>
      <trkpt lat="45.91891" lon="4.68291">
        <ele>376</ele>
        <time>2018-04-11T10:24:25Z</time>
      </trkpt>
      <trkpt lat="45.91893" lon="4.68292">
        <ele>376</ele>
        <time>2018-04-11T10:24:26Z</time>
      </trkpt>
      <trkpt lat="45.91901" lon="4.68293">
        <ele>376</ele>
        <time>2018-04-11T10:24:29Z</time>
      </trkpt>
      <trkpt lat="45.91904" lon="4.68294">
        <ele>377</ele>
        <time>2018-04-11T10:24:30Z</time>
      </trkpt>
      <trkpt lat="45.91913" lon="4.68295">
        <ele>377</ele>
        <time>2018-04-11T10:24:33Z</time>
      </trkpt>
      <trkpt lat="45.91916" lon="4.68295">
        <ele>377</ele>
        <time>2018-04-11T10:24:34Z</time>
      </trkpt>
      <trkpt lat="45.91922" lon="4.68296">
        <ele>379</ele>
        <time>2018-04-11T10:24:36Z</time>
      </trkpt>
      <trkpt lat="45.91925" lon="4.68297">
        <ele>379</ele>
        <time>2018-04-11T10:24:37Z</time>
      </trkpt>
      <trkpt lat="45.91934" lon="4.68299">
        <ele>379</ele>
        <time>2018-04-11T10:24:38Z</time>
      </trkpt>
      <trkpt lat="45.91942" lon="4.68302">
        <ele>379</ele>
        <time>2018-04-11T10:24:42Z</time>
      </trkpt>
      <trkpt lat="45.91944" lon="4.68302">
        <ele>379</ele>
        <time>2018-04-11T10:24:43Z</time>
      </trkpt>
      <trkpt lat="45.91951" lon="4.68304">
        <ele>379</ele>
        <time>2018-04-11T10:24:46Z</time>
      </trkpt>
      <trkpt lat="45.91954" lon="4.68304">
        <ele>379</ele>
        <time>2018-04-11T10:24:47Z</time>
      </trkpt>
      <trkpt lat="45.91963" lon="4.68305">
        <ele>380</ele>
        <time>2018-04-11T10:24:50Z</time>
      </trkpt>
      <trkpt lat="45.91966" lon="4.68306">
        <ele>380</ele>
        <time>2018-04-11T10:24:51Z</time>
      </trkpt>
      <trkpt lat="45.91972" lon="4.68307">
        <ele>380</ele>
        <time>2018-04-11T10:24:53Z</time>
      </trkpt>
      <trkpt lat="45.91975" lon="4.68308">
        <ele>380</ele>
        <time>2018-04-11T10:24:54Z</time>
      </trkpt>
      <trkpt lat="45.91981" lon="4.6831">
        <ele>380</ele>
        <time>2018-04-11T10:24:56Z</time>
      </trkpt>
      <trkpt lat="45.91984" lon="4.68311">
        <ele>380</ele>
        <time>2018-04-11T10:24:57Z</time>
      </trkpt>
      <trkpt lat="45.91991" lon="4.68313">
        <ele>381</ele>
        <time>2018-04-11T10:24:59Z</time>
      </trkpt>
      <trkpt lat="45.91994" lon="4.68314">
        <ele>381</ele>
        <time>2018-04-11T10:25:00Z</time>
      </trkpt>
      <trkpt lat="45.92" lon="4.68316">
        <ele>381</ele>
        <time>2018-04-11T10:25:02Z</time>
      </trkpt>
      <trkpt lat="45.92003" lon="4.68316">
        <ele>381</ele>
        <time>2018-04-11T10:25:03Z</time>
      </trkpt>
      <trkpt lat="45.92009" lon="4.68317">
        <ele>381</ele>
        <time>2018-04-11T10:25:05Z</time>
      </trkpt>
      <trkpt lat="45.92013" lon="4.68318">
        <ele>380</ele>
        <time>2018-04-11T10:25:06Z</time>
      </trkpt>
      <trkpt lat="45.92023" lon="4.68318">
        <ele>380</ele>
        <time>2018-04-11T10:25:07Z</time>
      </trkpt>
      <trkpt lat="45.92029" lon="4.68319">
        <ele>380</ele>
        <time>2018-04-11T10:25:09Z</time>
      </trkpt>
      <trkpt lat="45.92035" lon="4.68319">
        <ele>380</ele>
        <time>2018-04-11T10:25:10Z</time>
      </trkpt>
      <trkpt lat="45.92043" lon="4.6832">
        <ele>380</ele>
        <time>2018-04-11T10:25:12Z</time>
      </trkpt>
      <trkpt lat="45.92046" lon="4.68321">
        <ele>380</ele>
        <time>2018-04-11T10:25:13Z</time>
      </trkpt>
      <trkpt lat="45.92051" lon="4.68322">
        <ele>380</ele>
        <time>2018-04-11T10:25:14Z</time>
      </trkpt>
      <trkpt lat="45.92055" lon="4.68323">
        <ele>380</ele>
        <time>2018-04-11T10:25:15Z</time>
      </trkpt>
      <trkpt lat="45.92062" lon="4.68326">
        <ele>380</ele>
        <time>2018-04-11T10:25:17Z</time>
      </trkpt>
      <trkpt lat="45.92066" lon="4.68327">
        <ele>380</ele>
        <time>2018-04-11T10:25:18Z</time>
      </trkpt>
      <trkpt lat="45.92074" lon="4.68329">
        <ele>381</ele>
        <time>2018-04-11T10:25:20Z</time>
      </trkpt>
      <trkpt lat="45.92078" lon="4.68331">
        <ele>381</ele>
        <time>2018-04-11T10:25:21Z</time>
      </trkpt>
      <trkpt lat="45.92083" lon="4.68333">
        <ele>382</ele>
        <time>2018-04-11T10:25:22Z</time>
      </trkpt>
      <trkpt lat="45.92088" lon="4.68334">
        <ele>382</ele>
        <time>2018-04-11T10:25:23Z</time>
      </trkpt>
      <trkpt lat="45.92096" lon="4.68337">
        <ele>383</ele>
        <time>2018-04-11T10:25:25Z</time>
      </trkpt>
      <trkpt lat="45.921" lon="4.68339">
        <ele>383</ele>
        <time>2018-04-11T10:25:26Z</time>
      </trkpt>
      <trkpt lat="45.92108" lon="4.68343">
        <ele>383</ele>
        <time>2018-04-11T10:25:28Z</time>
      </trkpt>
      <trkpt lat="45.92112" lon="4.68344">
        <ele>383</ele>
        <time>2018-04-11T10:25:29Z</time>
      </trkpt>
      <trkpt lat="45.92117" lon="4.68347">
        <ele>383</ele>
        <time>2018-04-11T10:25:31Z</time>
      </trkpt>
      <trkpt lat="45.92121" lon="4.6835">
        <ele>383</ele>
        <time>2018-04-11T10:25:32Z</time>
      </trkpt>
      <trkpt lat="45.92129" lon="4.68355">
        <ele>383</ele>
        <time>2018-04-11T10:25:34Z</time>
      </trkpt>
      <trkpt lat="45.92133" lon="4.68358">
        <ele>383</ele>
        <time>2018-04-11T10:25:35Z</time>
      </trkpt>
      <trkpt lat="45.9214" lon="4.68363">
        <ele>383</ele>
        <time>2018-04-11T10:25:37Z</time>
      </trkpt>
      <trkpt lat="45.92142" lon="4.68366">
        <ele>383</ele>
        <time>2018-04-11T10:25:38Z</time>
      </trkpt>
      <trkpt lat="45.92149" lon="4.68372">
        <ele>383</ele>
        <time>2018-04-11T10:25:40Z</time>
      </trkpt>
      <trkpt lat="45.92152" lon="4.68376">
        <ele>384</ele>
        <time>2018-04-11T10:25:41Z</time>
      </trkpt>
      <trkpt lat="45.92158" lon="4.68383">
        <ele>384</ele>
        <time>2018-04-11T10:25:43Z</time>
      </trkpt>
      <trkpt lat="45.92161" lon="4.68386">
        <ele>384</ele>
        <time>2018-04-11T10:25:44Z</time>
      </trkpt>
      <trkpt lat="45.92167" lon="4.68392">
        <ele>383</ele>
        <time>2018-04-11T10:25:46Z</time>
      </trkpt>
      <trkpt lat="45.9217" lon="4.68396">
        <ele>383</ele>
        <time>2018-04-11T10:25:47Z</time>
      </trkpt>
      <trkpt lat="45.92176" lon="4.68404">
        <ele>384</ele>
        <time>2018-04-11T10:25:49Z</time>
      </trkpt>
      <trkpt lat="45.92178" lon="4.68408">
        <ele>384</ele>
        <time>2018-04-11T10:25:50Z</time>
      </trkpt>
      <trkpt lat="45.92183" lon="4.68416">
        <ele>384</ele>
        <time>2018-04-11T10:25:52Z</time>
      </trkpt>
      <trkpt lat="45.92186" lon="4.6842">
        <ele>386</ele>
        <time>2018-04-11T10:25:53Z</time>
      </trkpt>
      <trkpt lat="45.92193" lon="4.68426">
        <ele>386</ele>
        <time>2018-04-11T10:25:55Z</time>
      </trkpt>
      <trkpt lat="45.92197" lon="4.68428">
        <ele>386</ele>
        <time>2018-04-11T10:25:56Z</time>
      </trkpt>
      <trkpt lat="45.92205" lon="4.68432">
        <ele>386</ele>
        <time>2018-04-11T10:25:58Z</time>
      </trkpt>
      <trkpt lat="45.92209" lon="4.68434">
        <ele>386</ele>
        <time>2018-04-11T10:25:59Z</time>
      </trkpt>
      <trkpt lat="45.92217" lon="4.68438">
        <ele>386</ele>
        <time>2018-04-11T10:26:01Z</time>
      </trkpt>
      <trkpt lat="45.9222" lon="4.68441">
        <ele>386</ele>
        <time>2018-04-11T10:26:02Z</time>
      </trkpt>
      <trkpt lat="45.92227" lon="4.68447">
        <ele>386</ele>
        <time>2018-04-11T10:26:04Z</time>
      </trkpt>
      <trkpt lat="45.92229" lon="4.68451">
        <ele>386</ele>
        <time>2018-04-11T10:26:05Z</time>
      </trkpt>
      <trkpt lat="45.92236" lon="4.68459">
        <ele>386</ele>
        <time>2018-04-11T10:26:07Z</time>
      </trkpt>
      <trkpt lat="45.92239" lon="4.68462">
        <ele>386</ele>
        <time>2018-04-11T10:26:08Z</time>
      </trkpt>
      <trkpt lat="45.92245" lon="4.68468">
        <ele>386</ele>
        <time>2018-04-11T10:26:10Z</time>
      </trkpt>
      <trkpt lat="45.92248" lon="4.68471">
        <ele>386</ele>
        <time>2018-04-11T10:26:11Z</time>
      </trkpt>
      <trkpt lat="45.92253" lon="4.68477">
        <ele>384</ele>
        <time>2018-04-11T10:26:13Z</time>
      </trkpt>
      <trkpt lat="45.92257" lon="4.68481">
        <ele>384</ele>
        <time>2018-04-11T10:26:14Z</time>
      </trkpt>
      <trkpt lat="45.92263" lon="4.68487">
        <ele>385</ele>
        <time>2018-04-11T10:26:16Z</time>
      </trkpt>
      <trkpt lat="45.92266" lon="4.68491">
        <ele>385</ele>
        <time>2018-04-11T10:26:17Z</time>
      </trkpt>
      <trkpt lat="45.92272" lon="4.68498">
        <ele>384</ele>
        <time>2018-04-11T10:26:19Z</time>
      </trkpt>
      <trkpt lat="45.92275" lon="4.68501">
        <ele>387</ele>
        <time>2018-04-11T10:26:20Z</time>
      </trkpt>
      <trkpt lat="45.92283" lon="4.68508">
        <ele>387</ele>
        <time>2018-04-11T10:26:22Z</time>
      </trkpt>
      <trkpt lat="45.92286" lon="4.68511">
        <ele>387</ele>
        <time>2018-04-11T10:26:23Z</time>
      </trkpt>
      <trkpt lat="45.92293" lon="4.68518">
        <ele>387</ele>
        <time>2018-04-11T10:26:25Z</time>
      </trkpt>
      <trkpt lat="45.92297" lon="4.68522">
        <ele>387</ele>
        <time>2018-04-11T10:26:26Z</time>
      </trkpt>
      <trkpt lat="45.92301" lon="4.68525">
        <ele>387</ele>
        <time>2018-04-11T10:26:27Z</time>
      </trkpt>
      <trkpt lat="45.92304" lon="4.68528">
        <ele>387</ele>
        <time>2018-04-11T10:26:28Z</time>
      </trkpt>
      <trkpt lat="45.92311" lon="4.68535">
        <ele>388</ele>
        <time>2018-04-11T10:26:30Z</time>
      </trkpt>
      <trkpt lat="45.92314" lon="4.68539">
        <ele>388</ele>
        <time>2018-04-11T10:26:31Z</time>
      </trkpt>
      <trkpt lat="45.92322" lon="4.68544">
        <ele>388</ele>
        <time>2018-04-11T10:26:33Z</time>
      </trkpt>
      <trkpt lat="45.92326" lon="4.68547">
        <ele>388</ele>
        <time>2018-04-11T10:26:34Z</time>
      </trkpt>
      <trkpt lat="45.92333" lon="4.68554">
        <ele>385</ele>
        <time>2018-04-11T10:26:36Z</time>
      </trkpt>
      <trkpt lat="45.92338" lon="4.68557">
        <ele>386</ele>
        <time>2018-04-11T10:26:37Z</time>
      </trkpt>
      <trkpt lat="45.92342" lon="4.6856">
        <ele>386</ele>
        <time>2018-04-11T10:26:38Z</time>
      </trkpt>
      <trkpt lat="45.92346" lon="4.68563">
        <ele>386</ele>
        <time>2018-04-11T10:26:39Z</time>
      </trkpt>
      <trkpt lat="45.92353" lon="4.68569">
        <ele>386</ele>
        <time>2018-04-11T10:26:41Z</time>
      </trkpt>
      <trkpt lat="45.92357" lon="4.68573">
        <ele>386</ele>
        <time>2018-04-11T10:26:42Z</time>
      </trkpt>
      <trkpt lat="45.92363" lon="4.68576">
        <ele>385</ele>
        <time>2018-04-11T10:26:43Z</time>
      </trkpt>
      <trkpt lat="45.92367" lon="4.68579">
        <ele>385</ele>
        <time>2018-04-11T10:26:44Z</time>
      </trkpt>
      <trkpt lat="45.92371" lon="4.68581">
        <ele>384</ele>
        <time>2018-04-11T10:26:45Z</time>
      </trkpt>
      <trkpt lat="45.92376" lon="4.68584">
        <ele>388</ele>
        <time>2018-04-11T10:26:46Z</time>
      </trkpt>
      <trkpt lat="45.92381" lon="4.68586">
        <ele>387</ele>
        <time>2018-04-11T10:26:47Z</time>
      </trkpt>
      <trkpt lat="45.92385" lon="4.68589">
        <ele>387</ele>
        <time>2018-04-11T10:26:48Z</time>
      </trkpt>
      <trkpt lat="45.9239" lon="4.68593">
        <ele>386</ele>
        <time>2018-04-11T10:26:49Z</time>
      </trkpt>
      <trkpt lat="45.92395" lon="4.68595">
        <ele>386</ele>
        <time>2018-04-11T10:26:50Z</time>
      </trkpt>
      <trkpt lat="45.92401" lon="4.68598">
        <ele>386</ele>
        <time>2018-04-11T10:26:51Z</time>
      </trkpt>
      <trkpt lat="45.92405" lon="4.686">
        <ele>385</ele>
        <time>2018-04-11T10:26:52Z</time>
      </trkpt>
      <trkpt lat="45.92411" lon="4.68603">
        <ele>385</ele>
        <time>2018-04-11T10:26:53Z</time>
      </trkpt>
      <trkpt lat="45.92415" lon="4.68606">
        <ele>386</ele>
        <time>2018-04-11T10:26:54Z</time>
      </trkpt>
      <trkpt lat="45.92421" lon="4.68609">
        <ele>381</ele>
        <time>2018-04-11T10:26:55Z</time>
      </trkpt>
      <trkpt lat="45.92426" lon="4.68612">
        <ele>381</ele>
        <time>2018-04-11T10:26:56Z</time>
      </trkpt>
      <trkpt lat="45.92432" lon="4.68614">
        <ele>381</ele>
        <time>2018-04-11T10:26:57Z</time>
      </trkpt>
      <trkpt lat="45.92438" lon="4.68617">
        <ele>381</ele>
        <time>2018-04-11T10:26:58Z</time>
      </trkpt>
      <trkpt lat="45.92443" lon="4.68621">
        <ele>381</ele>
        <time>2018-04-11T10:26:59Z</time>
      </trkpt>
      <trkpt lat="45.92448" lon="4.68624">
        <ele>380</ele>
        <time>2018-04-11T10:27:00Z</time>
      </trkpt>
      <trkpt lat="45.92455" lon="4.68626">
        <ele>380</ele>
        <time>2018-04-11T10:27:01Z</time>
      </trkpt>
      <trkpt lat="45.92462" lon="4.68629">
        <ele>380</ele>
        <time>2018-04-11T10:27:02Z</time>
      </trkpt>
      <trkpt lat="45.92468" lon="4.68632">
        <ele>380</ele>
        <time>2018-04-11T10:27:03Z</time>
      </trkpt>
      <trkpt lat="45.92474" lon="4.68634">
        <ele>379</ele>
        <time>2018-04-11T10:27:04Z</time>
      </trkpt>
      <trkpt lat="45.92481" lon="4.68636">
        <ele>379</ele>
        <time>2018-04-11T10:27:05Z</time>
      </trkpt>
      <trkpt lat="45.92487" lon="4.68639">
        <ele>379</ele>
        <time>2018-04-11T10:27:06Z</time>
      </trkpt>
      <trkpt lat="45.92494" lon="4.68642">
        <ele>379</ele>
        <time>2018-04-11T10:27:07Z</time>
      </trkpt>
      <trkpt lat="45.92501" lon="4.68644">
        <ele>376</ele>
        <time>2018-04-11T10:27:08Z</time>
      </trkpt>
      <trkpt lat="45.92508" lon="4.68646">
        <ele>376</ele>
        <time>2018-04-11T10:27:09Z</time>
      </trkpt>
      <trkpt lat="45.92516" lon="4.68648">
        <ele>375</ele>
        <time>2018-04-11T10:27:10Z</time>
      </trkpt>
      <trkpt lat="45.92523" lon="4.68649">
        <ele>375</ele>
        <time>2018-04-11T10:27:11Z</time>
      </trkpt>
      <trkpt lat="45.92531" lon="4.6865">
        <ele>375</ele>
        <time>2018-04-11T10:27:12Z</time>
      </trkpt>
      <trkpt lat="45.92538" lon="4.68651">
        <ele>375</ele>
        <time>2018-04-11T10:27:13Z</time>
      </trkpt>
      <trkpt lat="45.92545" lon="4.68652">
        <ele>374</ele>
        <time>2018-04-11T10:27:14Z</time>
      </trkpt>
      <trkpt lat="45.92552" lon="4.68653">
        <ele>374</ele>
        <time>2018-04-11T10:27:15Z</time>
      </trkpt>
      <trkpt lat="45.92559" lon="4.68655">
        <ele>374</ele>
        <time>2018-04-11T10:27:16Z</time>
      </trkpt>
      <trkpt lat="45.92564" lon="4.68653">
        <ele>374</ele>
        <time>2018-04-11T10:27:17Z</time>
      </trkpt>
      <trkpt lat="45.9257" lon="4.6865">
        <ele>374</ele>
        <time>2018-04-11T10:27:18Z</time>
      </trkpt>
      <trkpt lat="45.92575" lon="4.68646">
        <ele>374</ele>
        <time>2018-04-11T10:27:19Z</time>
      </trkpt>
      <trkpt lat="45.92581" lon="4.68643">
        <ele>373</ele>
        <time>2018-04-11T10:27:20Z</time>
      </trkpt>
      <trkpt lat="45.92585" lon="4.68639">
        <ele>370</ele>
        <time>2018-04-11T10:27:21Z</time>
      </trkpt>
      <trkpt lat="45.92589" lon="4.68638">
        <ele>370</ele>
        <time>2018-04-11T10:27:22Z</time>
      </trkpt>
      <trkpt lat="45.92596" lon="4.68634">
        <ele>370</ele>
        <time>2018-04-11T10:27:26Z</time>
      </trkpt>
      <trkpt lat="45.92598" lon="4.68633">
        <ele>370</ele>
        <time>2018-04-11T10:27:27Z</time>
      </trkpt>
      <trkpt lat="45.92604" lon="4.68631">
        <ele>369</ele>
        <time>2018-04-11T10:27:30Z</time>
      </trkpt>
      <trkpt lat="45.92615" lon="4.68629">
        <ele>369</ele>
        <time>2018-04-11T10:27:31Z</time>
      </trkpt>
      <trkpt lat="45.92623" lon="4.68626">
        <ele>368</ele>
        <time>2018-04-11T10:27:33Z</time>
      </trkpt>
      <trkpt lat="45.92628" lon="4.68624">
        <ele>368</ele>
        <time>2018-04-11T10:27:34Z</time>
      </trkpt>
      <trkpt lat="45.92633" lon="4.68622">
        <ele>368</ele>
        <time>2018-04-11T10:27:35Z</time>
      </trkpt>
      <trkpt lat="45.92638" lon="4.6862">
        <ele>368</ele>
        <time>2018-04-11T10:27:36Z</time>
      </trkpt>
      <trkpt lat="45.92642" lon="4.68618">
        <ele>367</ele>
        <time>2018-04-11T10:27:37Z</time>
      </trkpt>
      <trkpt lat="45.92647" lon="4.68616">
        <ele>367</ele>
        <time>2018-04-11T10:27:38Z</time>
      </trkpt>
      <trkpt lat="45.92652" lon="4.68614">
        <ele>367</ele>
        <time>2018-04-11T10:27:39Z</time>
      </trkpt>
      <trkpt lat="45.92657" lon="4.68612">
        <ele>367</ele>
        <time>2018-04-11T10:27:40Z</time>
      </trkpt>
      <trkpt lat="45.92663" lon="4.68609">
        <ele>367</ele>
        <time>2018-04-11T10:27:41Z</time>
      </trkpt>
      <trkpt lat="45.92668" lon="4.68607">
        <ele>364</ele>
        <time>2018-04-11T10:27:42Z</time>
      </trkpt>
      <trkpt lat="45.92672" lon="4.68606">
        <ele>364</ele>
        <time>2018-04-11T10:27:43Z</time>
      </trkpt>
      <trkpt lat="45.92677" lon="4.68604">
        <ele>364</ele>
        <time>2018-04-11T10:27:44Z</time>
      </trkpt>
      <trkpt lat="45.92682" lon="4.68602">
        <ele>364</ele>
        <time>2018-04-11T10:27:45Z</time>
      </trkpt>
      <trkpt lat="45.92686" lon="4.686">
        <ele>364</ele>
        <time>2018-04-11T10:27:46Z</time>
      </trkpt>
      <trkpt lat="45.92694" lon="4.68596">
        <ele>364</ele>
        <time>2018-04-11T10:27:48Z</time>
      </trkpt>
      <trkpt lat="45.92699" lon="4.68594">
        <ele>364</ele>
        <time>2018-04-11T10:27:49Z</time>
      </trkpt>
      <trkpt lat="45.92704" lon="4.68592">
        <ele>364</ele>
        <time>2018-04-11T10:27:50Z</time>
      </trkpt>
      <trkpt lat="45.92708" lon="4.68591">
        <ele>364</ele>
        <time>2018-04-11T10:27:51Z</time>
      </trkpt>
      <trkpt lat="45.92712" lon="4.68589">
        <ele>364</ele>
        <time>2018-04-11T10:27:52Z</time>
      </trkpt>
      <trkpt lat="45.92717" lon="4.68587">
        <ele>364</ele>
        <time>2018-04-11T10:27:53Z</time>
      </trkpt>
      <trkpt lat="45.92722" lon="4.68585">
        <ele>364</ele>
        <time>2018-04-11T10:27:54Z</time>
      </trkpt>
      <trkpt lat="45.92726" lon="4.68582">
        <ele>366</ele>
        <time>2018-04-11T10:27:55Z</time>
      </trkpt>
      <trkpt lat="45.92732" lon="4.6858">
        <ele>366</ele>
        <time>2018-04-11T10:27:56Z</time>
      </trkpt>
      <trkpt lat="45.92737" lon="4.68579">
        <ele>366</ele>
        <time>2018-04-11T10:27:57Z</time>
      </trkpt>
      <trkpt lat="45.92743" lon="4.68577">
        <ele>366</ele>
        <time>2018-04-11T10:27:58Z</time>
      </trkpt>
      <trkpt lat="45.92748" lon="4.68575">
        <ele>366</ele>
        <time>2018-04-11T10:27:59Z</time>
      </trkpt>
      <trkpt lat="45.92755" lon="4.68575">
        <ele>366</ele>
        <time>2018-04-11T10:28:00Z</time>
      </trkpt>
      <trkpt lat="45.92761" lon="4.68575">
        <ele>365</ele>
        <time>2018-04-11T10:28:01Z</time>
      </trkpt>
      <trkpt lat="45.92766" lon="4.68574">
        <ele>365</ele>
        <time>2018-04-11T10:28:02Z</time>
      </trkpt>
      <trkpt lat="45.92771" lon="4.68574">
        <ele>365</ele>
        <time>2018-04-11T10:28:03Z</time>
      </trkpt>
      <trkpt lat="45.92777" lon="4.68575">
        <ele>365</ele>
        <time>2018-04-11T10:28:04Z</time>
      </trkpt>
      <trkpt lat="45.92785" lon="4.68576">
        <ele>365</ele>
        <time>2018-04-11T10:28:05Z</time>
      </trkpt>
      <trkpt lat="45.92791" lon="4.68577">
        <ele>364</ele>
        <time>2018-04-11T10:28:06Z</time>
      </trkpt>
      <trkpt lat="45.92796" lon="4.68578">
        <ele>364</ele>
        <time>2018-04-11T10:28:07Z</time>
      </trkpt>
      <trkpt lat="45.92803" lon="4.68579">
        <ele>364</ele>
        <time>2018-04-11T10:28:08Z</time>
      </trkpt>
      <trkpt lat="45.92809" lon="4.68579">
        <ele>363</ele>
        <time>2018-04-11T10:28:09Z</time>
      </trkpt>
      <trkpt lat="45.92816" lon="4.6858">
        <ele>363</ele>
        <time>2018-04-11T10:28:10Z</time>
      </trkpt>
      <trkpt lat="45.92823" lon="4.68581">
        <ele>362</ele>
        <time>2018-04-11T10:28:11Z</time>
      </trkpt>
      <trkpt lat="45.92829" lon="4.68583">
        <ele>362</ele>
        <time>2018-04-11T10:28:12Z</time>
      </trkpt>
      <trkpt lat="45.92835" lon="4.68584">
        <ele>361</ele>
        <time>2018-04-11T10:28:13Z</time>
      </trkpt>
      <trkpt lat="45.92841" lon="4.68585">
        <ele>360</ele>
        <time>2018-04-11T10:28:14Z</time>
      </trkpt>
      <trkpt lat="45.92848" lon="4.68586">
        <ele>360</ele>
        <time>2018-04-11T10:28:15Z</time>
      </trkpt>
      <trkpt lat="45.92855" lon="4.68588">
        <ele>359</ele>
        <time>2018-04-11T10:28:16Z</time>
      </trkpt>
      <trkpt lat="45.92862" lon="4.68589">
        <ele>359</ele>
        <time>2018-04-11T10:28:17Z</time>
      </trkpt>
      <trkpt lat="45.9287" lon="4.6859">
        <ele>359</ele>
        <time>2018-04-11T10:28:18Z</time>
      </trkpt>
      <trkpt lat="45.92876" lon="4.68592">
        <ele>358</ele>
        <time>2018-04-11T10:28:19Z</time>
      </trkpt>
      <trkpt lat="45.92884" lon="4.68594">
        <ele>358</ele>
        <time>2018-04-11T10:28:20Z</time>
      </trkpt>
      <trkpt lat="45.92892" lon="4.68596">
        <ele>358</ele>
        <time>2018-04-11T10:28:21Z</time>
      </trkpt>
      <trkpt lat="45.929" lon="4.68597">
        <ele>358</ele>
        <time>2018-04-11T10:28:22Z</time>
      </trkpt>
      <trkpt lat="45.92908" lon="4.68598">
        <ele>358</ele>
        <time>2018-04-11T10:28:23Z</time>
      </trkpt>
      <trkpt lat="45.92915" lon="4.68599">
        <ele>358</ele>
        <time>2018-04-11T10:28:24Z</time>
      </trkpt>
      <trkpt lat="45.92922" lon="4.686">
        <ele>359</ele>
        <time>2018-04-11T10:28:25Z</time>
      </trkpt>
      <trkpt lat="45.9293" lon="4.68602">
        <ele>358</ele>
        <time>2018-04-11T10:28:26Z</time>
      </trkpt>
      <trkpt lat="45.92937" lon="4.68603">
        <ele>358</ele>
        <time>2018-04-11T10:28:27Z</time>
      </trkpt>
      <trkpt lat="45.92944" lon="4.68605">
        <ele>358</ele>
        <time>2018-04-11T10:28:28Z</time>
      </trkpt>
      <trkpt lat="45.92952" lon="4.68606">
        <ele>358</ele>
        <time>2018-04-11T10:28:29Z</time>
      </trkpt>
      <trkpt lat="45.92959" lon="4.68607">
        <ele>358</ele>
        <time>2018-04-11T10:28:30Z</time>
      </trkpt>
      <trkpt lat="45.92967" lon="4.68608">
        <ele>358</ele>
        <time>2018-04-11T10:28:31Z</time>
      </trkpt>
      <trkpt lat="45.92974" lon="4.68609">
        <ele>358</ele>
        <time>2018-04-11T10:28:32Z</time>
      </trkpt>
      <trkpt lat="45.92981" lon="4.68611">
        <ele>358</ele>
        <time>2018-04-11T10:28:33Z</time>
      </trkpt>
      <trkpt lat="45.92989" lon="4.68612">
        <ele>358</ele>
        <time>2018-04-11T10:28:34Z</time>
      </trkpt>
      <trkpt lat="45.92997" lon="4.68615">
        <ele>358</ele>
        <time>2018-04-11T10:28:35Z</time>
      </trkpt>
      <trkpt lat="45.93002" lon="4.68616">
        <ele>356</ele>
        <time>2018-04-11T10:28:36Z</time>
      </trkpt>
      <trkpt lat="45.93009" lon="4.68618">
        <ele>356</ele>
        <time>2018-04-11T10:28:37Z</time>
      </trkpt>
      <trkpt lat="45.93016" lon="4.68619">
        <ele>356</ele>
        <time>2018-04-11T10:28:38Z</time>
      </trkpt>
      <trkpt lat="45.93024" lon="4.6862">
        <ele>356</ele>
        <time>2018-04-11T10:28:39Z</time>
      </trkpt>
      <trkpt lat="45.9303" lon="4.68622">
        <ele>355</ele>
        <time>2018-04-11T10:28:40Z</time>
      </trkpt>
      <trkpt lat="45.93037" lon="4.68623">
        <ele>355</ele>
        <time>2018-04-11T10:28:41Z</time>
      </trkpt>
      <trkpt lat="45.93044" lon="4.68624">
        <ele>355</ele>
        <time>2018-04-11T10:28:42Z</time>
      </trkpt>
      <trkpt lat="45.9305" lon="4.68625">
        <ele>355</ele>
        <time>2018-04-11T10:28:43Z</time>
      </trkpt>
      <trkpt lat="45.93058" lon="4.68627">
        <ele>354</ele>
        <time>2018-04-11T10:28:44Z</time>
      </trkpt>
      <trkpt lat="45.93068" lon="4.6863">
        <ele>354</ele>
        <time>2018-04-11T10:28:45Z</time>
      </trkpt>
      <trkpt lat="45.93075" lon="4.68632">
        <ele>354</ele>
        <time>2018-04-11T10:28:46Z</time>
      </trkpt>
      <trkpt lat="45.93083" lon="4.68633">
        <ele>354</ele>
        <time>2018-04-11T10:28:47Z</time>
      </trkpt>
      <trkpt lat="45.93091" lon="4.68634">
        <ele>349</ele>
        <time>2018-04-11T10:28:48Z</time>
      </trkpt>
      <trkpt lat="45.931" lon="4.68634">
        <ele>349</ele>
        <time>2018-04-11T10:28:49Z</time>
      </trkpt>
      <trkpt lat="45.93107" lon="4.68636">
        <ele>349</ele>
        <time>2018-04-11T10:28:50Z</time>
      </trkpt>
      <trkpt lat="45.93115" lon="4.68638">
        <ele>348</ele>
        <time>2018-04-11T10:28:51Z</time>
      </trkpt>
      <trkpt lat="45.93123" lon="4.6864">
        <ele>348</ele>
        <time>2018-04-11T10:28:52Z</time>
      </trkpt>
      <trkpt lat="45.9313" lon="4.68643">
        <ele>348</ele>
        <time>2018-04-11T10:28:53Z</time>
      </trkpt>
      <trkpt lat="45.93138" lon="4.68645">
        <ele>347</ele>
        <time>2018-04-11T10:28:54Z</time>
      </trkpt>
      <trkpt lat="45.93146" lon="4.68647">
        <ele>347</ele>
        <time>2018-04-11T10:28:55Z</time>
      </trkpt>
      <trkpt lat="45.93154" lon="4.68649">
        <ele>347</ele>
        <time>2018-04-11T10:28:56Z</time>
      </trkpt>
      <trkpt lat="45.93162" lon="4.68651">
        <ele>347</ele>
        <time>2018-04-11T10:28:57Z</time>
      </trkpt>
      <trkpt lat="45.9317" lon="4.68653">
        <ele>345</ele>
        <time>2018-04-11T10:28:58Z</time>
      </trkpt>
      <trkpt lat="45.93179" lon="4.68654">
        <ele>345</ele>
        <time>2018-04-11T10:28:59Z</time>
      </trkpt>
      <trkpt lat="45.93186" lon="4.68656">
        <ele>345</ele>
        <time>2018-04-11T10:29:00Z</time>
      </trkpt>
      <trkpt lat="45.93194" lon="4.68658">
        <ele>345</ele>
        <time>2018-04-11T10:29:01Z</time>
      </trkpt>
      <trkpt lat="45.93202" lon="4.6866">
        <ele>344</ele>
        <time>2018-04-11T10:29:02Z</time>
      </trkpt>
      <trkpt lat="45.93209" lon="4.68662">
        <ele>344</ele>
        <time>2018-04-11T10:29:03Z</time>
      </trkpt>
      <trkpt lat="45.93216" lon="4.68664">
        <ele>344</ele>
        <time>2018-04-11T10:29:04Z</time>
      </trkpt>
      <trkpt lat="45.93224" lon="4.68667">
        <ele>344</ele>
        <time>2018-04-11T10:29:05Z</time>
      </trkpt>
      <trkpt lat="45.93232" lon="4.68668">
        <ele>345</ele>
        <time>2018-04-11T10:29:06Z</time>
      </trkpt>
      <trkpt lat="45.9324" lon="4.6867">
        <ele>344</ele>
        <time>2018-04-11T10:29:07Z</time>
      </trkpt>
      <trkpt lat="45.93247" lon="4.68672">
        <ele>344</ele>
        <time>2018-04-11T10:29:08Z</time>
      </trkpt>
      <trkpt lat="45.93254" lon="4.68673">
        <ele>344</ele>
        <time>2018-04-11T10:29:09Z</time>
      </trkpt>
      <trkpt lat="45.93262" lon="4.68675">
        <ele>344</ele>
        <time>2018-04-11T10:29:10Z</time>
      </trkpt>
      <trkpt lat="45.93269" lon="4.68677">
        <ele>344</ele>
        <time>2018-04-11T10:29:11Z</time>
      </trkpt>
      <trkpt lat="45.93275" lon="4.68679">
        <ele>344</ele>
        <time>2018-04-11T10:29:12Z</time>
      </trkpt>
      <trkpt lat="45.93282" lon="4.6868">
        <ele>344</ele>
        <time>2018-04-11T10:29:13Z</time>
      </trkpt>
      <trkpt lat="45.93289" lon="4.68682">
        <ele>344</ele>
        <time>2018-04-11T10:29:14Z</time>
      </trkpt>
      <trkpt lat="45.93295" lon="4.68683">
        <ele>344</ele>
        <time>2018-04-11T10:29:15Z</time>
      </trkpt>
      <trkpt lat="45.93301" lon="4.68685">
        <ele>344</ele>
        <time>2018-04-11T10:29:16Z</time>
      </trkpt>
      <trkpt lat="45.93307" lon="4.68687">
        <ele>344</ele>
        <time>2018-04-11T10:29:17Z</time>
      </trkpt>
      <trkpt lat="45.93314" lon="4.68688">
        <ele>344</ele>
        <time>2018-04-11T10:29:18Z</time>
      </trkpt>
      <trkpt lat="45.9332" lon="4.6869">
        <ele>344</ele>
        <time>2018-04-11T10:29:19Z</time>
      </trkpt>
      <trkpt lat="45.93326" lon="4.68691">
        <ele>344</ele>
        <time>2018-04-11T10:29:20Z</time>
      </trkpt>
      <trkpt lat="45.93332" lon="4.68693">
        <ele>344</ele>
        <time>2018-04-11T10:29:21Z</time>
      </trkpt>
      <trkpt lat="45.93338" lon="4.68694">
        <ele>344</ele>
        <time>2018-04-11T10:29:22Z</time>
      </trkpt>
      <trkpt lat="45.93345" lon="4.68696">
        <ele>344</ele>
        <time>2018-04-11T10:29:23Z</time>
      </trkpt>
      <trkpt lat="45.93351" lon="4.68697">
        <ele>344</ele>
        <time>2018-04-11T10:29:24Z</time>
      </trkpt>
      <trkpt lat="45.93358" lon="4.68699">
        <ele>344</ele>
        <time>2018-04-11T10:29:25Z</time>
      </trkpt>
      <trkpt lat="45.93365" lon="4.687">
        <ele>344</ele>
        <time>2018-04-11T10:29:26Z</time>
      </trkpt>
      <trkpt lat="45.93371" lon="4.68701">
        <ele>344</ele>
        <time>2018-04-11T10:29:27Z</time>
      </trkpt>
      <trkpt lat="45.93378" lon="4.68703">
        <ele>344</ele>
        <time>2018-04-11T10:29:28Z</time>
      </trkpt>
      <trkpt lat="45.93384" lon="4.68704">
        <ele>344</ele>
        <time>2018-04-11T10:29:29Z</time>
      </trkpt>
      <trkpt lat="45.9339" lon="4.68705">
        <ele>344</ele>
        <time>2018-04-11T10:29:30Z</time>
      </trkpt>
      <trkpt lat="45.93396" lon="4.68707">
        <ele>344</ele>
        <time>2018-04-11T10:29:31Z</time>
      </trkpt>
      <trkpt lat="45.93402" lon="4.68709">
        <ele>343</ele>
        <time>2018-04-11T10:29:32Z</time>
      </trkpt>
      <trkpt lat="45.93407" lon="4.6871">
        <ele>343</ele>
        <time>2018-04-11T10:29:33Z</time>
      </trkpt>
      <trkpt lat="45.93413" lon="4.68711">
        <ele>343</ele>
        <time>2018-04-11T10:29:34Z</time>
      </trkpt>
      <trkpt lat="45.93419" lon="4.68712">
        <ele>343</ele>
        <time>2018-04-11T10:29:35Z</time>
      </trkpt>
      <trkpt lat="45.93425" lon="4.68714">
        <ele>343</ele>
        <time>2018-04-11T10:29:36Z</time>
      </trkpt>
      <trkpt lat="45.93431" lon="4.68714">
        <ele>343</ele>
        <time>2018-04-11T10:29:37Z</time>
      </trkpt>
      <trkpt lat="45.93437" lon="4.68715">
        <ele>343</ele>
        <time>2018-04-11T10:29:38Z</time>
      </trkpt>
      <trkpt lat="45.93443" lon="4.68717">
        <ele>343</ele>
        <time>2018-04-11T10:29:39Z</time>
      </trkpt>
      <trkpt lat="45.93448" lon="4.68718">
        <ele>343</ele>
        <time>2018-04-11T10:29:40Z</time>
      </trkpt>
      <trkpt lat="45.93454" lon="4.6872">
        <ele>342</ele>
        <time>2018-04-11T10:29:41Z</time>
      </trkpt>
      <trkpt lat="45.9346" lon="4.68722">
        <ele>342</ele>
        <time>2018-04-11T10:29:42Z</time>
      </trkpt>
      <trkpt lat="45.93465" lon="4.68724">
        <ele>342</ele>
        <time>2018-04-11T10:29:43Z</time>
      </trkpt>
      <trkpt lat="45.93471" lon="4.68725">
        <ele>342</ele>
        <time>2018-04-11T10:29:44Z</time>
      </trkpt>
      <trkpt lat="45.93477" lon="4.68726">
        <ele>342</ele>
        <time>2018-04-11T10:29:45Z</time>
      </trkpt>
      <trkpt lat="45.93482" lon="4.68727">
        <ele>342</ele>
        <time>2018-04-11T10:29:46Z</time>
      </trkpt>
      <trkpt lat="45.93487" lon="4.68729">
        <ele>342</ele>
        <time>2018-04-11T10:29:47Z</time>
      </trkpt>
      <trkpt lat="45.93492" lon="4.68729">
        <ele>342</ele>
        <time>2018-04-11T10:29:48Z</time>
      </trkpt>
      <trkpt lat="45.93498" lon="4.6873">
        <ele>342</ele>
        <time>2018-04-11T10:29:49Z</time>
      </trkpt>
      <trkpt lat="45.93503" lon="4.68731">
        <ele>342</ele>
        <time>2018-04-11T10:29:50Z</time>
      </trkpt>
      <trkpt lat="45.93509" lon="4.68733">
        <ele>342</ele>
        <time>2018-04-11T10:29:51Z</time>
      </trkpt>
      <trkpt lat="45.93514" lon="4.68734">
        <ele>342</ele>
        <time>2018-04-11T10:29:52Z</time>
      </trkpt>
      <trkpt lat="45.93519" lon="4.68735">
        <ele>342</ele>
        <time>2018-04-11T10:29:53Z</time>
      </trkpt>
      <trkpt lat="45.93524" lon="4.68737">
        <ele>342</ele>
        <time>2018-04-11T10:29:54Z</time>
      </trkpt>
      <trkpt lat="45.9353" lon="4.68738">
        <ele>342</ele>
        <time>2018-04-11T10:29:55Z</time>
      </trkpt>
      <trkpt lat="45.93535" lon="4.6874">
        <ele>342</ele>
        <time>2018-04-11T10:29:56Z</time>
      </trkpt>
      <trkpt lat="45.9354" lon="4.68742">
        <ele>342</ele>
        <time>2018-04-11T10:29:57Z</time>
      </trkpt>
      <trkpt lat="45.93546" lon="4.68743">
        <ele>342</ele>
        <time>2018-04-11T10:29:58Z</time>
      </trkpt>
      <trkpt lat="45.93551" lon="4.68744">
        <ele>342</ele>
        <time>2018-04-11T10:29:59Z</time>
      </trkpt>
      <trkpt lat="45.93556" lon="4.68745">
        <ele>342</ele>
        <time>2018-04-11T10:30:00Z</time>
      </trkpt>
      <trkpt lat="45.9356" lon="4.68746">
        <ele>342</ele>
        <time>2018-04-11T10:30:01Z</time>
      </trkpt>
      <trkpt lat="45.93565" lon="4.68748">
        <ele>343</ele>
        <time>2018-04-11T10:30:02Z</time>
      </trkpt>
      <trkpt lat="45.9357" lon="4.6875">
        <ele>343</ele>
        <time>2018-04-11T10:30:03Z</time>
      </trkpt>
      <trkpt lat="45.93575" lon="4.68751">
        <ele>344</ele>
        <time>2018-04-11T10:30:04Z</time>
      </trkpt>
      <trkpt lat="45.9358" lon="4.68752">
        <ele>344</ele>
        <time>2018-04-11T10:30:05Z</time>
      </trkpt>
      <trkpt lat="45.93586" lon="4.68754">
        <ele>344</ele>
        <time>2018-04-11T10:30:06Z</time>
      </trkpt>
      <trkpt lat="45.93591" lon="4.68755">
        <ele>344</ele>
        <time>2018-04-11T10:30:07Z</time>
      </trkpt>
      <trkpt lat="45.93596" lon="4.68756">
        <ele>344</ele>
        <time>2018-04-11T10:30:08Z</time>
      </trkpt>
      <trkpt lat="45.93601" lon="4.68757">
        <ele>344</ele>
        <time>2018-04-11T10:30:09Z</time>
      </trkpt>
      <trkpt lat="45.93606" lon="4.68758">
        <ele>344</ele>
        <time>2018-04-11T10:30:10Z</time>
      </trkpt>
      <trkpt lat="45.93611" lon="4.68759">
        <ele>344</ele>
        <time>2018-04-11T10:30:11Z</time>
      </trkpt>
      <trkpt lat="45.93616" lon="4.6876">
        <ele>343</ele>
        <time>2018-04-11T10:30:12Z</time>
      </trkpt>
      <trkpt lat="45.9362" lon="4.68761">
        <ele>343</ele>
        <time>2018-04-11T10:30:13Z</time>
      </trkpt>
      <trkpt lat="45.93625" lon="4.68762">
        <ele>343</ele>
        <time>2018-04-11T10:30:14Z</time>
      </trkpt>
      <trkpt lat="45.9363" lon="4.68764">
        <ele>343</ele>
        <time>2018-04-11T10:30:15Z</time>
      </trkpt>
      <trkpt lat="45.93635" lon="4.68767">
        <ele>343</ele>
        <time>2018-04-11T10:30:16Z</time>
      </trkpt>
      <trkpt lat="45.9364" lon="4.6877">
        <ele>343</ele>
        <time>2018-04-11T10:30:17Z</time>
      </trkpt>
      <trkpt lat="45.93643" lon="4.68772">
        <ele>343</ele>
        <time>2018-04-11T10:30:18Z</time>
      </trkpt>
      <trkpt lat="45.93648" lon="4.68775">
        <ele>343</ele>
        <time>2018-04-11T10:30:19Z</time>
      </trkpt>
      <trkpt lat="45.93653" lon="4.68776">
        <ele>343</ele>
        <time>2018-04-11T10:30:20Z</time>
      </trkpt>
      <trkpt lat="45.93659" lon="4.68776">
        <ele>343</ele>
        <time>2018-04-11T10:30:21Z</time>
      </trkpt>
      <trkpt lat="45.93664" lon="4.68776">
        <ele>343</ele>
        <time>2018-04-11T10:30:22Z</time>
      </trkpt>
      <trkpt lat="45.9367" lon="4.68777">
        <ele>342</ele>
        <time>2018-04-11T10:30:23Z</time>
      </trkpt>
      <trkpt lat="45.93678" lon="4.68779">
        <ele>342</ele>
        <time>2018-04-11T10:30:25Z</time>
      </trkpt>
      <trkpt lat="45.93682" lon="4.6878">
        <ele>342</ele>
        <time>2018-04-11T10:30:26Z</time>
      </trkpt>
      <trkpt lat="45.93691" lon="4.68782">
        <ele>342</ele>
        <time>2018-04-11T10:30:28Z</time>
      </trkpt>
      <trkpt lat="45.93696" lon="4.68784">
        <ele>342</ele>
        <time>2018-04-11T10:30:29Z</time>
      </trkpt>
      <trkpt lat="45.937" lon="4.68786">
        <ele>342</ele>
        <time>2018-04-11T10:30:30Z</time>
      </trkpt>
      <trkpt lat="45.93706" lon="4.68785">
        <ele>342</ele>
        <time>2018-04-11T10:30:31Z</time>
      </trkpt>
      <trkpt lat="45.93711" lon="4.68786">
        <ele>342</ele>
        <time>2018-04-11T10:30:32Z</time>
      </trkpt>
      <trkpt lat="45.93716" lon="4.68787">
        <ele>342</ele>
        <time>2018-04-11T10:30:33Z</time>
      </trkpt>
      <trkpt lat="45.93721" lon="4.68789">
        <ele>342</ele>
        <time>2018-04-11T10:30:34Z</time>
      </trkpt>
      <trkpt lat="45.93726" lon="4.68791">
        <ele>342</ele>
        <time>2018-04-11T10:30:35Z</time>
      </trkpt>
      <trkpt lat="45.93731" lon="4.68791">
        <ele>342</ele>
        <time>2018-04-11T10:30:36Z</time>
      </trkpt>
      <trkpt lat="45.93738" lon="4.68793">
        <ele>342</ele>
        <time>2018-04-11T10:30:37Z</time>
      </trkpt>
      <trkpt lat="45.93743" lon="4.68794">
        <ele>342</ele>
        <time>2018-04-11T10:30:38Z</time>
      </trkpt>
      <trkpt lat="45.9375" lon="4.68796">
        <ele>342</ele>
        <time>2018-04-11T10:30:39Z</time>
      </trkpt>
      <trkpt lat="45.93756" lon="4.68797">
        <ele>341</ele>
        <time>2018-04-11T10:30:40Z</time>
      </trkpt>
      <trkpt lat="45.93762" lon="4.68798">
        <ele>341</ele>
        <time>2018-04-11T10:30:41Z</time>
      </trkpt>
      <trkpt lat="45.93766" lon="4.68801">
        <ele>341</ele>
        <time>2018-04-11T10:30:42Z</time>
      </trkpt>
      <trkpt lat="45.93772" lon="4.68802">
        <ele>341</ele>
        <time>2018-04-11T10:30:43Z</time>
      </trkpt>
      <trkpt lat="45.93777" lon="4.68804">
        <ele>341</ele>
        <time>2018-04-11T10:30:44Z</time>
      </trkpt>
      <trkpt lat="45.93782" lon="4.68806">
        <ele>341</ele>
        <time>2018-04-11T10:30:45Z</time>
      </trkpt>
      <trkpt lat="45.93788" lon="4.68809">
        <ele>341</ele>
        <time>2018-04-11T10:30:46Z</time>
      </trkpt>
      <trkpt lat="45.93793" lon="4.68812">
        <ele>341</ele>
        <time>2018-04-11T10:30:47Z</time>
      </trkpt>
      <trkpt lat="45.93797" lon="4.68816">
        <ele>341</ele>
        <time>2018-04-11T10:30:48Z</time>
      </trkpt>
      <trkpt lat="45.93804" lon="4.68819">
        <ele>341</ele>
        <time>2018-04-11T10:30:49Z</time>
      </trkpt>
      <trkpt lat="45.93809" lon="4.68823">
        <ele>341</ele>
        <time>2018-04-11T10:30:50Z</time>
      </trkpt>
      <trkpt lat="45.93814" lon="4.68826">
        <ele>341</ele>
        <time>2018-04-11T10:30:51Z</time>
      </trkpt>
      <trkpt lat="45.93819" lon="4.6883">
        <ele>341</ele>
        <time>2018-04-11T10:30:52Z</time>
      </trkpt>
      <trkpt lat="45.93825" lon="4.68834">
        <ele>342</ele>
        <time>2018-04-11T10:30:53Z</time>
      </trkpt>
      <trkpt lat="45.9383" lon="4.68837">
        <ele>342</ele>
        <time>2018-04-11T10:30:54Z</time>
      </trkpt>
      <trkpt lat="45.93836" lon="4.6884">
        <ele>342</ele>
        <time>2018-04-11T10:30:55Z</time>
      </trkpt>
      <trkpt lat="45.93841" lon="4.68844">
        <ele>342</ele>
        <time>2018-04-11T10:30:56Z</time>
      </trkpt>
      <trkpt lat="45.93846" lon="4.68848">
        <ele>342</ele>
        <time>2018-04-11T10:30:57Z</time>
      </trkpt>
      <trkpt lat="45.93851" lon="4.68851">
        <ele>342</ele>
        <time>2018-04-11T10:30:58Z</time>
      </trkpt>
      <trkpt lat="45.93856" lon="4.68854">
        <ele>342</ele>
        <time>2018-04-11T10:30:59Z</time>
      </trkpt>
      <trkpt lat="45.93861" lon="4.68857">
        <ele>342</ele>
        <time>2018-04-11T10:31:00Z</time>
      </trkpt>
      <trkpt lat="45.93866" lon="4.68861">
        <ele>342</ele>
        <time>2018-04-11T10:31:01Z</time>
      </trkpt>
      <trkpt lat="45.9387" lon="4.68864">
        <ele>342</ele>
        <time>2018-04-11T10:31:02Z</time>
      </trkpt>
      <trkpt lat="45.93874" lon="4.68868">
        <ele>342</ele>
        <time>2018-04-11T10:31:03Z</time>
      </trkpt>
      <trkpt lat="45.93879" lon="4.68871">
        <ele>343</ele>
        <time>2018-04-11T10:31:04Z</time>
      </trkpt>
      <trkpt lat="45.93884" lon="4.68874">
        <ele>343</ele>
        <time>2018-04-11T10:31:05Z</time>
      </trkpt>
      <trkpt lat="45.93889" lon="4.68878">
        <ele>342</ele>
        <time>2018-04-11T10:31:06Z</time>
      </trkpt>
      <trkpt lat="45.93894" lon="4.6888">
        <ele>342</ele>
        <time>2018-04-11T10:31:07Z</time>
      </trkpt>
      <trkpt lat="45.93899" lon="4.68882">
        <ele>342</ele>
        <time>2018-04-11T10:31:08Z</time>
      </trkpt>
      <trkpt lat="45.93904" lon="4.68884">
        <ele>342</ele>
        <time>2018-04-11T10:31:09Z</time>
      </trkpt>
      <trkpt lat="45.93909" lon="4.68886">
        <ele>342</ele>
        <time>2018-04-11T10:31:10Z</time>
      </trkpt>
      <trkpt lat="45.93914" lon="4.68888">
        <ele>342</ele>
        <time>2018-04-11T10:31:11Z</time>
      </trkpt>
      <trkpt lat="45.93919" lon="4.68889">
        <ele>342</ele>
        <time>2018-04-11T10:31:12Z</time>
      </trkpt>
      <trkpt lat="45.93924" lon="4.6889">
        <ele>342</ele>
        <time>2018-04-11T10:31:13Z</time>
      </trkpt>
      <trkpt lat="45.93929" lon="4.68892">
        <ele>342</ele>
        <time>2018-04-11T10:31:14Z</time>
      </trkpt>
      <trkpt lat="45.93934" lon="4.68893">
        <ele>342</ele>
        <time>2018-04-11T10:31:15Z</time>
      </trkpt>
      <trkpt lat="45.93938" lon="4.68895">
        <ele>342</ele>
        <time>2018-04-11T10:31:16Z</time>
      </trkpt>
      <trkpt lat="45.93943" lon="4.68896">
        <ele>342</ele>
        <time>2018-04-11T10:31:17Z</time>
      </trkpt>
      <trkpt lat="45.93951" lon="4.68899">
        <ele>342</ele>
        <time>2018-04-11T10:31:19Z</time>
      </trkpt>
      <trkpt lat="45.93955" lon="4.689">
        <ele>342</ele>
        <time>2018-04-11T10:31:20Z</time>
      </trkpt>
      <trkpt lat="45.93959" lon="4.68902">
        <ele>342</ele>
        <time>2018-04-11T10:31:21Z</time>
      </trkpt>
      <trkpt lat="45.93965" lon="4.68904">
        <ele>342</ele>
        <time>2018-04-11T10:31:22Z</time>
      </trkpt>
      <trkpt lat="45.9397" lon="4.68905">
        <ele>342</ele>
        <time>2018-04-11T10:31:23Z</time>
      </trkpt>
      <trkpt lat="45.93975" lon="4.68907">
        <ele>342</ele>
        <time>2018-04-11T10:31:24Z</time>
      </trkpt>
      <trkpt lat="45.93979" lon="4.68909">
        <ele>342</ele>
        <time>2018-04-11T10:31:25Z</time>
      </trkpt>
      <trkpt lat="45.93984" lon="4.68911">
        <ele>342</ele>
        <time>2018-04-11T10:31:26Z</time>
      </trkpt>
      <trkpt lat="45.93988" lon="4.68913">
        <ele>342</ele>
        <time>2018-04-11T10:31:27Z</time>
      </trkpt>
      <trkpt lat="45.93993" lon="4.68914">
        <ele>342</ele>
        <time>2018-04-11T10:31:28Z</time>
      </trkpt>
      <trkpt lat="45.93997" lon="4.68916">
        <ele>342</ele>
        <time>2018-04-11T10:31:29Z</time>
      </trkpt>
      <trkpt lat="45.94001" lon="4.68918">
        <ele>342</ele>
        <time>2018-04-11T10:31:30Z</time>
      </trkpt>
      <trkpt lat="45.94006" lon="4.6892">
        <ele>342</ele>
        <time>2018-04-11T10:31:31Z</time>
      </trkpt>
      <trkpt lat="45.94011" lon="4.68921">
        <ele>342</ele>
        <time>2018-04-11T10:31:32Z</time>
      </trkpt>
      <trkpt lat="45.94015" lon="4.68923">
        <ele>341</ele>
        <time>2018-04-11T10:31:33Z</time>
      </trkpt>
      <trkpt lat="45.9402" lon="4.68925">
        <ele>341</ele>
        <time>2018-04-11T10:31:34Z</time>
      </trkpt>
      <trkpt lat="45.94026" lon="4.68927">
        <ele>341</ele>
        <time>2018-04-11T10:31:35Z</time>
      </trkpt>
      <trkpt lat="45.9403" lon="4.68929">
        <ele>341</ele>
        <time>2018-04-11T10:31:36Z</time>
      </trkpt>
      <trkpt lat="45.94035" lon="4.68932">
        <ele>341</ele>
        <time>2018-04-11T10:31:37Z</time>
      </trkpt>
      <trkpt lat="45.94039" lon="4.68934">
        <ele>341</ele>
        <time>2018-04-11T10:31:38Z</time>
      </trkpt>
      <trkpt lat="45.94044" lon="4.68936">
        <ele>341</ele>
        <time>2018-04-11T10:31:39Z</time>
      </trkpt>
      <trkpt lat="45.94049" lon="4.68939">
        <ele>341</ele>
        <time>2018-04-11T10:31:40Z</time>
      </trkpt>
      <trkpt lat="45.94054" lon="4.68941">
        <ele>341</ele>
        <time>2018-04-11T10:31:41Z</time>
      </trkpt>
      <trkpt lat="45.94058" lon="4.68945">
        <ele>341</ele>
        <time>2018-04-11T10:31:42Z</time>
      </trkpt>
      <trkpt lat="45.94063" lon="4.68948">
        <ele>341</ele>
        <time>2018-04-11T10:31:43Z</time>
      </trkpt>
      <trkpt lat="45.94068" lon="4.6895">
        <ele>341</ele>
        <time>2018-04-11T10:31:44Z</time>
      </trkpt>
      <trkpt lat="45.94074" lon="4.6895">
        <ele>341</ele>
        <time>2018-04-11T10:31:45Z</time>
      </trkpt>
      <trkpt lat="45.94079" lon="4.6895">
        <ele>341</ele>
        <time>2018-04-11T10:31:46Z</time>
      </trkpt>
      <trkpt lat="45.94085" lon="4.6895">
        <ele>340</ele>
        <time>2018-04-11T10:31:47Z</time>
      </trkpt>
      <trkpt lat="45.9409" lon="4.68951">
        <ele>340</ele>
        <time>2018-04-11T10:31:48Z</time>
      </trkpt>
      <trkpt lat="45.94096" lon="4.68952">
        <ele>340</ele>
        <time>2018-04-11T10:31:49Z</time>
      </trkpt>
      <trkpt lat="45.941" lon="4.68954">
        <ele>340</ele>
        <time>2018-04-11T10:31:50Z</time>
      </trkpt>
      <trkpt lat="45.94105" lon="4.68956">
        <ele>340</ele>
        <time>2018-04-11T10:31:51Z</time>
      </trkpt>
      <trkpt lat="45.9411" lon="4.68958">
        <ele>340</ele>
        <time>2018-04-11T10:31:52Z</time>
      </trkpt>
      <trkpt lat="45.94115" lon="4.6896">
        <ele>340</ele>
        <time>2018-04-11T10:31:53Z</time>
      </trkpt>
      <trkpt lat="45.9412" lon="4.68961">
        <ele>340</ele>
        <time>2018-04-11T10:31:54Z</time>
      </trkpt>
      <trkpt lat="45.94125" lon="4.68964">
        <ele>340</ele>
        <time>2018-04-11T10:31:55Z</time>
      </trkpt>
      <trkpt lat="45.9413" lon="4.68966">
        <ele>340</ele>
        <time>2018-04-11T10:31:56Z</time>
      </trkpt>
      <trkpt lat="45.94135" lon="4.68968">
        <ele>340</ele>
        <time>2018-04-11T10:31:57Z</time>
      </trkpt>
      <trkpt lat="45.94141" lon="4.6897">
        <ele>340</ele>
        <time>2018-04-11T10:31:58Z</time>
      </trkpt>
      <trkpt lat="45.94146" lon="4.68972">
        <ele>340</ele>
        <time>2018-04-11T10:31:59Z</time>
      </trkpt>
      <trkpt lat="45.94152" lon="4.68973">
        <ele>340</ele>
        <time>2018-04-11T10:32:00Z</time>
      </trkpt>
      <trkpt lat="45.94158" lon="4.68974">
        <ele>340</ele>
        <time>2018-04-11T10:32:01Z</time>
      </trkpt>
      <trkpt lat="45.94163" lon="4.68976">
        <ele>340</ele>
        <time>2018-04-11T10:32:02Z</time>
      </trkpt>
      <trkpt lat="45.94168" lon="4.68978">
        <ele>339</ele>
        <time>2018-04-11T10:32:03Z</time>
      </trkpt>
      <trkpt lat="45.94174" lon="4.68979">
        <ele>339</ele>
        <time>2018-04-11T10:32:04Z</time>
      </trkpt>
      <trkpt lat="45.94178" lon="4.68982">
        <ele>339</ele>
        <time>2018-04-11T10:32:05Z</time>
      </trkpt>
      <trkpt lat="45.94184" lon="4.68983">
        <ele>339</ele>
        <time>2018-04-11T10:32:06Z</time>
      </trkpt>
      <trkpt lat="45.9419" lon="4.68985">
        <ele>338</ele>
        <time>2018-04-11T10:32:07Z</time>
      </trkpt>
      <trkpt lat="45.94196" lon="4.68987">
        <ele>338</ele>
        <time>2018-04-11T10:32:08Z</time>
      </trkpt>
      <trkpt lat="45.94201" lon="4.68988">
        <ele>338</ele>
        <time>2018-04-11T10:32:09Z</time>
      </trkpt>
      <trkpt lat="45.94206" lon="4.6899">
        <ele>338</ele>
        <time>2018-04-11T10:32:10Z</time>
      </trkpt>
      <trkpt lat="45.94212" lon="4.68991">
        <ele>338</ele>
        <time>2018-04-11T10:32:11Z</time>
      </trkpt>
      <trkpt lat="45.94217" lon="4.68992">
        <ele>338</ele>
        <time>2018-04-11T10:32:12Z</time>
      </trkpt>
      <trkpt lat="45.94223" lon="4.68993">
        <ele>338</ele>
        <time>2018-04-11T10:32:13Z</time>
      </trkpt>
      <trkpt lat="45.94229" lon="4.68994">
        <ele>338</ele>
        <time>2018-04-11T10:32:14Z</time>
      </trkpt>
      <trkpt lat="45.94233" lon="4.68996">
        <ele>338</ele>
        <time>2018-04-11T10:32:15Z</time>
      </trkpt>
      <trkpt lat="45.94239" lon="4.68998">
        <ele>338</ele>
        <time>2018-04-11T10:32:16Z</time>
      </trkpt>
      <trkpt lat="45.94245" lon="4.68997">
        <ele>338</ele>
        <time>2018-04-11T10:32:17Z</time>
      </trkpt>
      <trkpt lat="45.94251" lon="4.68999">
        <ele>338</ele>
        <time>2018-04-11T10:32:18Z</time>
      </trkpt>
      <trkpt lat="45.94255" lon="4.68999">
        <ele>338</ele>
        <time>2018-04-11T10:32:19Z</time>
      </trkpt>
      <trkpt lat="45.94261" lon="4.69">
        <ele>338</ele>
        <time>2018-04-11T10:32:20Z</time>
      </trkpt>
      <trkpt lat="45.94267" lon="4.69001">
        <ele>337</ele>
        <time>2018-04-11T10:32:21Z</time>
      </trkpt>
      <trkpt lat="45.94273" lon="4.69002">
        <ele>337</ele>
        <time>2018-04-11T10:32:22Z</time>
      </trkpt>
      <trkpt lat="45.94278" lon="4.69003">
        <ele>337</ele>
        <time>2018-04-11T10:32:23Z</time>
      </trkpt>
      <trkpt lat="45.94284" lon="4.69004">
        <ele>337</ele>
        <time>2018-04-11T10:32:24Z</time>
      </trkpt>
      <trkpt lat="45.9429" lon="4.69005">
        <ele>337</ele>
        <time>2018-04-11T10:32:25Z</time>
      </trkpt>
      <trkpt lat="45.94294" lon="4.69005">
        <ele>337</ele>
        <time>2018-04-11T10:32:26Z</time>
      </trkpt>
      <trkpt lat="45.943" lon="4.69005">
        <ele>337</ele>
        <time>2018-04-11T10:32:27Z</time>
      </trkpt>
      <trkpt lat="45.94305" lon="4.69006">
        <ele>337</ele>
        <time>2018-04-11T10:32:28Z</time>
      </trkpt>
      <trkpt lat="45.9431" lon="4.69007">
        <ele>337</ele>
        <time>2018-04-11T10:32:29Z</time>
      </trkpt>
      <trkpt lat="45.94315" lon="4.69007">
        <ele>337</ele>
        <time>2018-04-11T10:32:30Z</time>
      </trkpt>
      <trkpt lat="45.9432" lon="4.69007">
        <ele>337</ele>
        <time>2018-04-11T10:32:31Z</time>
      </trkpt>
      <trkpt lat="45.94325" lon="4.69008">
        <ele>337</ele>
        <time>2018-04-11T10:32:32Z</time>
      </trkpt>
      <trkpt lat="45.9433" lon="4.69009">
        <ele>337</ele>
        <time>2018-04-11T10:32:33Z</time>
      </trkpt>
      <trkpt lat="45.94336" lon="4.69008">
        <ele>337</ele>
        <time>2018-04-11T10:32:34Z</time>
      </trkpt>
      <trkpt lat="45.94341" lon="4.69008">
        <ele>337</ele>
        <time>2018-04-11T10:32:35Z</time>
      </trkpt>
      <trkpt lat="45.94346" lon="4.69008">
        <ele>338</ele>
        <time>2018-04-11T10:32:36Z</time>
      </trkpt>
      <trkpt lat="45.94354" lon="4.69009">
        <ele>338</ele>
        <time>2018-04-11T10:32:38Z</time>
      </trkpt>
      <trkpt lat="45.94359" lon="4.69008">
        <ele>338</ele>
        <time>2018-04-11T10:32:39Z</time>
      </trkpt>
      <trkpt lat="45.94363" lon="4.69008">
        <ele>338</ele>
        <time>2018-04-11T10:32:40Z</time>
      </trkpt>
      <trkpt lat="45.94368" lon="4.69009">
        <ele>338</ele>
        <time>2018-04-11T10:32:41Z</time>
      </trkpt>
      <trkpt lat="45.94373" lon="4.69009">
        <ele>338</ele>
        <time>2018-04-11T10:32:42Z</time>
      </trkpt>
      <trkpt lat="45.94378" lon="4.69009">
        <ele>338</ele>
        <time>2018-04-11T10:32:43Z</time>
      </trkpt>
      <trkpt lat="45.94386" lon="4.69008">
        <ele>338</ele>
        <time>2018-04-11T10:32:45Z</time>
      </trkpt>
      <trkpt lat="45.94391" lon="4.69009">
        <ele>338</ele>
        <time>2018-04-11T10:32:46Z</time>
      </trkpt>
      <trkpt lat="45.94398" lon="4.69009">
        <ele>339</ele>
        <time>2018-04-11T10:32:48Z</time>
      </trkpt>
      <trkpt lat="45.94403" lon="4.69009">
        <ele>339</ele>
        <time>2018-04-11T10:32:49Z</time>
      </trkpt>
      <trkpt lat="45.94412" lon="4.69011">
        <ele>339</ele>
        <time>2018-04-11T10:32:51Z</time>
      </trkpt>
      <trkpt lat="45.94416" lon="4.69011">
        <ele>339</ele>
        <time>2018-04-11T10:32:52Z</time>
      </trkpt>
      <trkpt lat="45.94423" lon="4.69011">
        <ele>340</ele>
        <time>2018-04-11T10:32:54Z</time>
      </trkpt>
      <trkpt lat="45.94427" lon="4.69011">
        <ele>340</ele>
        <time>2018-04-11T10:32:55Z</time>
      </trkpt>
      <trkpt lat="45.94435" lon="4.69011">
        <ele>340</ele>
        <time>2018-04-11T10:32:57Z</time>
      </trkpt>
      <trkpt lat="45.94438" lon="4.69011">
        <ele>340</ele>
        <time>2018-04-11T10:32:58Z</time>
      </trkpt>
      <trkpt lat="45.94446" lon="4.6901">
        <ele>340</ele>
        <time>2018-04-11T10:33:00Z</time>
      </trkpt>
      <trkpt lat="45.9445" lon="4.6901">
        <ele>340</ele>
        <time>2018-04-11T10:33:01Z</time>
      </trkpt>
      <trkpt lat="45.94458" lon="4.69011">
        <ele>341</ele>
        <time>2018-04-11T10:33:03Z</time>
      </trkpt>
      <trkpt lat="45.94462" lon="4.69012">
        <ele>341</ele>
        <time>2018-04-11T10:33:04Z</time>
      </trkpt>
      <trkpt lat="45.9447" lon="4.69013">
        <ele>341</ele>
        <time>2018-04-11T10:33:06Z</time>
      </trkpt>
      <trkpt lat="45.94474" lon="4.69014">
        <ele>341</ele>
        <time>2018-04-11T10:33:07Z</time>
      </trkpt>
      <trkpt lat="45.94482" lon="4.69015">
        <ele>341</ele>
        <time>2018-04-11T10:33:09Z</time>
      </trkpt>
      <trkpt lat="45.94486" lon="4.69016">
        <ele>341</ele>
        <time>2018-04-11T10:33:10Z</time>
      </trkpt>
      <trkpt lat="45.94494" lon="4.69018">
        <ele>341</ele>
        <time>2018-04-11T10:33:12Z</time>
      </trkpt>
      <trkpt lat="45.94498" lon="4.69019">
        <ele>341</ele>
        <time>2018-04-11T10:33:13Z</time>
      </trkpt>
      <trkpt lat="45.94505" lon="4.69021">
        <ele>342</ele>
        <time>2018-04-11T10:33:15Z</time>
      </trkpt>
      <trkpt lat="45.94508" lon="4.69022">
        <ele>342</ele>
        <time>2018-04-11T10:33:16Z</time>
      </trkpt>
      <trkpt lat="45.94516" lon="4.69023">
        <ele>342</ele>
        <time>2018-04-11T10:33:18Z</time>
      </trkpt>
      <trkpt lat="45.9452" lon="4.69024">
        <ele>342</ele>
        <time>2018-04-11T10:33:19Z</time>
      </trkpt>
      <trkpt lat="45.94527" lon="4.69027">
        <ele>342</ele>
        <time>2018-04-11T10:33:21Z</time>
      </trkpt>
      <trkpt lat="45.94531" lon="4.69028">
        <ele>342</ele>
        <time>2018-04-11T10:33:22Z</time>
      </trkpt>
      <trkpt lat="45.94538" lon="4.6903">
        <ele>342</ele>
        <time>2018-04-11T10:33:24Z</time>
      </trkpt>
      <trkpt lat="45.94542" lon="4.69031">
        <ele>342</ele>
        <time>2018-04-11T10:33:25Z</time>
      </trkpt>
      <trkpt lat="45.9455" lon="4.69033">
        <ele>342</ele>
        <time>2018-04-11T10:33:27Z</time>
      </trkpt>
      <trkpt lat="45.94552" lon="4.69034">
        <ele>342</ele>
        <time>2018-04-11T10:33:28Z</time>
      </trkpt>
      <trkpt lat="45.94558" lon="4.69035">
        <ele>342</ele>
        <time>2018-04-11T10:33:29Z</time>
      </trkpt>
      <trkpt lat="45.94561" lon="4.69036">
        <ele>342</ele>
        <time>2018-04-11T10:33:30Z</time>
      </trkpt>
      <trkpt lat="45.94569" lon="4.69038">
        <ele>342</ele>
        <time>2018-04-11T10:33:32Z</time>
      </trkpt>
      <trkpt lat="45.94571" lon="4.69039">
        <ele>342</ele>
        <time>2018-04-11T10:33:33Z</time>
      </trkpt>
      <trkpt lat="45.94577" lon="4.6904">
        <ele>342</ele>
        <time>2018-04-11T10:33:34Z</time>
      </trkpt>
      <trkpt lat="45.9458" lon="4.69041">
        <ele>342</ele>
        <time>2018-04-11T10:33:35Z</time>
      </trkpt>
      <trkpt lat="45.94588" lon="4.69044">
        <ele>342</ele>
        <time>2018-04-11T10:33:37Z</time>
      </trkpt>
      <trkpt lat="45.94592" lon="4.69045">
        <ele>342</ele>
        <time>2018-04-11T10:33:38Z</time>
      </trkpt>
      <trkpt lat="45.946" lon="4.69047">
        <ele>342</ele>
        <time>2018-04-11T10:33:40Z</time>
      </trkpt>
      <trkpt lat="45.94604" lon="4.69048">
        <ele>342</ele>
        <time>2018-04-11T10:33:41Z</time>
      </trkpt>
      <trkpt lat="45.94611" lon="4.6905">
        <ele>342</ele>
        <time>2018-04-11T10:33:43Z</time>
      </trkpt>
      <trkpt lat="45.94613" lon="4.69051">
        <ele>342</ele>
        <time>2018-04-11T10:33:44Z</time>
      </trkpt>
      <trkpt lat="45.9462" lon="4.69053">
        <ele>342</ele>
        <time>2018-04-11T10:33:46Z</time>
      </trkpt>
      <trkpt lat="45.94624" lon="4.69055">
        <ele>342</ele>
        <time>2018-04-11T10:33:47Z</time>
      </trkpt>
      <trkpt lat="45.94632" lon="4.69058">
        <ele>342</ele>
        <time>2018-04-11T10:33:49Z</time>
      </trkpt>
      <trkpt lat="45.94636" lon="4.6906">
        <ele>342</ele>
        <time>2018-04-11T10:33:50Z</time>
      </trkpt>
      <trkpt lat="45.94643" lon="4.69062">
        <ele>342</ele>
        <time>2018-04-11T10:33:52Z</time>
      </trkpt>
      <trkpt lat="45.94647" lon="4.69064">
        <ele>342</ele>
        <time>2018-04-11T10:33:53Z</time>
      </trkpt>
      <trkpt lat="45.94654" lon="4.69066">
        <ele>342</ele>
        <time>2018-04-11T10:33:55Z</time>
      </trkpt>
      <trkpt lat="45.94656" lon="4.69067">
        <ele>342</ele>
        <time>2018-04-11T10:33:56Z</time>
      </trkpt>
      <trkpt lat="45.94662" lon="4.69068">
        <ele>342</ele>
        <time>2018-04-11T10:33:57Z</time>
      </trkpt>
      <trkpt lat="45.94666" lon="4.6907">
        <ele>342</ele>
        <time>2018-04-11T10:33:58Z</time>
      </trkpt>
      <trkpt lat="45.94673" lon="4.69073">
        <ele>342</ele>
        <time>2018-04-11T10:34:00Z</time>
      </trkpt>
      <trkpt lat="45.94677" lon="4.69074">
        <ele>342</ele>
        <time>2018-04-11T10:34:01Z</time>
      </trkpt>
      <trkpt lat="45.94685" lon="4.69076">
        <ele>342</ele>
        <time>2018-04-11T10:34:03Z</time>
      </trkpt>
      <trkpt lat="45.94689" lon="4.69077">
        <ele>342</ele>
        <time>2018-04-11T10:34:04Z</time>
      </trkpt>
      <trkpt lat="45.94697" lon="4.69079">
        <ele>342</ele>
        <time>2018-04-11T10:34:06Z</time>
      </trkpt>
      <trkpt lat="45.94701" lon="4.69081">
        <ele>342</ele>
        <time>2018-04-11T10:34:07Z</time>
      </trkpt>
      <trkpt lat="45.9471" lon="4.69083">
        <ele>343</ele>
        <time>2018-04-11T10:34:09Z</time>
      </trkpt>
      <trkpt lat="45.94714" lon="4.69085">
        <ele>344</ele>
        <time>2018-04-11T10:34:10Z</time>
      </trkpt>
      <trkpt lat="45.94722" lon="4.69088">
        <ele>344</ele>
        <time>2018-04-11T10:34:12Z</time>
      </trkpt>
      <trkpt lat="45.94726" lon="4.69089">
        <ele>344</ele>
        <time>2018-04-11T10:34:13Z</time>
      </trkpt>
      <trkpt lat="45.94735" lon="4.69092">
        <ele>344</ele>
        <time>2018-04-11T10:34:15Z</time>
      </trkpt>
      <trkpt lat="45.94739" lon="4.69093">
        <ele>344</ele>
        <time>2018-04-11T10:34:16Z</time>
      </trkpt>
      <trkpt lat="45.94743" lon="4.69094">
        <ele>344</ele>
        <time>2018-04-11T10:34:17Z</time>
      </trkpt>
      <trkpt lat="45.94748" lon="4.69096">
        <ele>345</ele>
        <time>2018-04-11T10:34:18Z</time>
      </trkpt>
      <trkpt lat="45.94752" lon="4.69097">
        <ele>345</ele>
        <time>2018-04-11T10:34:19Z</time>
      </trkpt>
      <trkpt lat="45.94757" lon="4.69098">
        <ele>345</ele>
        <time>2018-04-11T10:34:20Z</time>
      </trkpt>
      <trkpt lat="45.94766" lon="4.69101">
        <ele>344</ele>
        <time>2018-04-11T10:34:22Z</time>
      </trkpt>
      <trkpt lat="45.9477" lon="4.69102">
        <ele>344</ele>
        <time>2018-04-11T10:34:23Z</time>
      </trkpt>
      <trkpt lat="45.94778" lon="4.69106">
        <ele>344</ele>
        <time>2018-04-11T10:34:25Z</time>
      </trkpt>
      <trkpt lat="45.94783" lon="4.69107">
        <ele>344</ele>
        <time>2018-04-11T10:34:26Z</time>
      </trkpt>
      <trkpt lat="45.94788" lon="4.69109">
        <ele>344</ele>
        <time>2018-04-11T10:34:27Z</time>
      </trkpt>
      <trkpt lat="45.94793" lon="4.69111">
        <ele>344</ele>
        <time>2018-04-11T10:34:28Z</time>
      </trkpt>
      <trkpt lat="45.94801" lon="4.69112">
        <ele>344</ele>
        <time>2018-04-11T10:34:30Z</time>
      </trkpt>
      <trkpt lat="45.94806" lon="4.69114">
        <ele>344</ele>
        <time>2018-04-11T10:34:31Z</time>
      </trkpt>
      <trkpt lat="45.94811" lon="4.69116">
        <ele>344</ele>
        <time>2018-04-11T10:34:32Z</time>
      </trkpt>
      <trkpt lat="45.94816" lon="4.69118">
        <ele>344</ele>
        <time>2018-04-11T10:34:33Z</time>
      </trkpt>
      <trkpt lat="45.94821" lon="4.6912">
        <ele>344</ele>
        <time>2018-04-11T10:34:34Z</time>
      </trkpt>
      <trkpt lat="45.94826" lon="4.69122">
        <ele>344</ele>
        <time>2018-04-11T10:34:35Z</time>
      </trkpt>
      <trkpt lat="45.94831" lon="4.69124">
        <ele>344</ele>
        <time>2018-04-11T10:34:36Z</time>
      </trkpt>
      <trkpt lat="45.94836" lon="4.69126">
        <ele>342</ele>
        <time>2018-04-11T10:34:37Z</time>
      </trkpt>
      <trkpt lat="45.94841" lon="4.69127">
        <ele>342</ele>
        <time>2018-04-11T10:34:38Z</time>
      </trkpt>
      <trkpt lat="45.94845" lon="4.69129">
        <ele>342</ele>
        <time>2018-04-11T10:34:39Z</time>
      </trkpt>
      <trkpt lat="45.94851" lon="4.69131">
        <ele>342</ele>
        <time>2018-04-11T10:34:40Z</time>
      </trkpt>
      <trkpt lat="45.94855" lon="4.69132">
        <ele>342</ele>
        <time>2018-04-11T10:34:41Z</time>
      </trkpt>
      <trkpt lat="45.9486" lon="4.69134">
        <ele>342</ele>
        <time>2018-04-11T10:34:42Z</time>
      </trkpt>
      <trkpt lat="45.94866" lon="4.69138">
        <ele>342</ele>
        <time>2018-04-11T10:34:43Z</time>
      </trkpt>
      <trkpt lat="45.94871" lon="4.6914">
        <ele>342</ele>
        <time>2018-04-11T10:34:44Z</time>
      </trkpt>
      <trkpt lat="45.94876" lon="4.69142">
        <ele>342</ele>
        <time>2018-04-11T10:34:45Z</time>
      </trkpt>
      <trkpt lat="45.94882" lon="4.69145">
        <ele>342</ele>
        <time>2018-04-11T10:34:46Z</time>
      </trkpt>
      <trkpt lat="45.94888" lon="4.69147">
        <ele>342</ele>
        <time>2018-04-11T10:34:47Z</time>
      </trkpt>
      <trkpt lat="45.94895" lon="4.6915">
        <ele>342</ele>
        <time>2018-04-11T10:34:48Z</time>
      </trkpt>
      <trkpt lat="45.94901" lon="4.69154">
        <ele>342</ele>
        <time>2018-04-11T10:34:49Z</time>
      </trkpt>
      <trkpt lat="45.94907" lon="4.69157">
        <ele>342</ele>
        <time>2018-04-11T10:34:50Z</time>
      </trkpt>
      <trkpt lat="45.94914" lon="4.69161">
        <ele>342</ele>
        <time>2018-04-11T10:34:51Z</time>
      </trkpt>
      <trkpt lat="45.9492" lon="4.69165">
        <ele>341</ele>
        <time>2018-04-11T10:34:52Z</time>
      </trkpt>
      <trkpt lat="45.94926" lon="4.69168">
        <ele>341</ele>
        <time>2018-04-11T10:34:53Z</time>
      </trkpt>
      <trkpt lat="45.94933" lon="4.69171">
        <ele>341</ele>
        <time>2018-04-11T10:34:54Z</time>
      </trkpt>
      <trkpt lat="45.94939" lon="4.69175">
        <ele>341</ele>
        <time>2018-04-11T10:34:55Z</time>
      </trkpt>
      <trkpt lat="45.94945" lon="4.69179">
        <ele>340</ele>
        <time>2018-04-11T10:34:56Z</time>
      </trkpt>
      <trkpt lat="45.94952" lon="4.69184">
        <ele>340</ele>
        <time>2018-04-11T10:34:57Z</time>
      </trkpt>
      <trkpt lat="45.94958" lon="4.69189">
        <ele>340</ele>
        <time>2018-04-11T10:34:58Z</time>
      </trkpt>
      <trkpt lat="45.94964" lon="4.69194">
        <ele>340</ele>
        <time>2018-04-11T10:34:59Z</time>
      </trkpt>
      <trkpt lat="45.94971" lon="4.69199">
        <ele>340</ele>
        <time>2018-04-11T10:35:00Z</time>
      </trkpt>
      <trkpt lat="45.94978" lon="4.69205">
        <ele>340</ele>
        <time>2018-04-11T10:35:01Z</time>
      </trkpt>
      <trkpt lat="45.94985" lon="4.69211">
        <ele>340</ele>
        <time>2018-04-11T10:35:02Z</time>
      </trkpt>
      <trkpt lat="45.94992" lon="4.69215">
        <ele>340</ele>
        <time>2018-04-11T10:35:03Z</time>
      </trkpt>
      <trkpt lat="45.95" lon="4.69217">
        <ele>340</ele>
        <time>2018-04-11T10:35:04Z</time>
      </trkpt>
      <trkpt lat="45.95007" lon="4.6922">
        <ele>337</ele>
        <time>2018-04-11T10:35:05Z</time>
      </trkpt>
      <trkpt lat="45.95014" lon="4.69223">
        <ele>337</ele>
        <time>2018-04-11T10:35:06Z</time>
      </trkpt>
      <trkpt lat="45.95021" lon="4.69229">
        <ele>337</ele>
        <time>2018-04-11T10:35:07Z</time>
      </trkpt>
      <trkpt lat="45.95028" lon="4.69235">
        <ele>337</ele>
        <time>2018-04-11T10:35:08Z</time>
      </trkpt>
      <trkpt lat="45.95035" lon="4.69241">
        <ele>336</ele>
        <time>2018-04-11T10:35:09Z</time>
      </trkpt>
      <trkpt lat="45.95041" lon="4.69247">
        <ele>336</ele>
        <time>2018-04-11T10:35:10Z</time>
      </trkpt>
      <trkpt lat="45.95048" lon="4.69254">
        <ele>337</ele>
        <time>2018-04-11T10:35:11Z</time>
      </trkpt>
      <trkpt lat="45.95055" lon="4.69261">
        <ele>336</ele>
        <time>2018-04-11T10:35:12Z</time>
      </trkpt>
      <trkpt lat="45.95062" lon="4.69267">
        <ele>336</ele>
        <time>2018-04-11T10:35:13Z</time>
      </trkpt>
      <trkpt lat="45.9507" lon="4.69275">
        <ele>336</ele>
        <time>2018-04-11T10:35:14Z</time>
      </trkpt>
      <trkpt lat="45.95075" lon="4.69281">
        <ele>336</ele>
        <time>2018-04-11T10:35:15Z</time>
      </trkpt>
      <trkpt lat="45.9508" lon="4.69288">
        <ele>336</ele>
        <time>2018-04-11T10:35:16Z</time>
      </trkpt>
      <trkpt lat="45.95086" lon="4.69294">
        <ele>334</ele>
        <time>2018-04-11T10:35:17Z</time>
      </trkpt>
      <trkpt lat="45.95092" lon="4.69301">
        <ele>334</ele>
        <time>2018-04-11T10:35:18Z</time>
      </trkpt>
      <trkpt lat="45.95097" lon="4.69306">
        <ele>334</ele>
        <time>2018-04-11T10:35:19Z</time>
      </trkpt>
      <trkpt lat="45.95104" lon="4.69312">
        <ele>334</ele>
        <time>2018-04-11T10:35:20Z</time>
      </trkpt>
      <trkpt lat="45.9511" lon="4.69319">
        <ele>334</ele>
        <time>2018-04-11T10:35:21Z</time>
      </trkpt>
      <trkpt lat="45.95116" lon="4.69325">
        <ele>334</ele>
        <time>2018-04-11T10:35:22Z</time>
      </trkpt>
      <trkpt lat="45.95122" lon="4.69332">
        <ele>334</ele>
        <time>2018-04-11T10:35:23Z</time>
      </trkpt>
      <trkpt lat="45.95125" lon="4.69338">
        <ele>336</ele>
        <time>2018-04-11T10:35:24Z</time>
      </trkpt>
      <trkpt lat="45.95131" lon="4.69343">
        <ele>337</ele>
        <time>2018-04-11T10:35:25Z</time>
      </trkpt>
      <trkpt lat="45.95136" lon="4.69348">
        <ele>337</ele>
        <time>2018-04-11T10:35:26Z</time>
      </trkpt>
      <trkpt lat="45.95141" lon="4.69354">
        <ele>337</ele>
        <time>2018-04-11T10:35:27Z</time>
      </trkpt>
      <trkpt lat="45.95145" lon="4.69359">
        <ele>337</ele>
        <time>2018-04-11T10:35:28Z</time>
      </trkpt>
      <trkpt lat="45.9515" lon="4.69363">
        <ele>337</ele>
        <time>2018-04-11T10:35:29Z</time>
      </trkpt>
      <trkpt lat="45.95154" lon="4.69367">
        <ele>337</ele>
        <time>2018-04-11T10:35:30Z</time>
      </trkpt>
      <trkpt lat="45.95158" lon="4.69371">
        <ele>337</ele>
        <time>2018-04-11T10:35:31Z</time>
      </trkpt>
      <trkpt lat="45.95163" lon="4.69377">
        <ele>337</ele>
        <time>2018-04-11T10:35:32Z</time>
      </trkpt>
      <trkpt lat="45.95168" lon="4.69381">
        <ele>337</ele>
        <time>2018-04-11T10:35:33Z</time>
      </trkpt>
      <trkpt lat="45.95173" lon="4.69385">
        <ele>337</ele>
        <time>2018-04-11T10:35:34Z</time>
      </trkpt>
      <trkpt lat="45.95178" lon="4.69389">
        <ele>337</ele>
        <time>2018-04-11T10:35:35Z</time>
      </trkpt>
      <trkpt lat="45.95184" lon="4.69392">
        <ele>337</ele>
        <time>2018-04-11T10:35:36Z</time>
      </trkpt>
      <trkpt lat="45.95188" lon="4.69396">
        <ele>337</ele>
        <time>2018-04-11T10:35:37Z</time>
      </trkpt>
      <trkpt lat="45.95193" lon="4.694">
        <ele>337</ele>
        <time>2018-04-11T10:35:38Z</time>
      </trkpt>
      <trkpt lat="45.95198" lon="4.69404">
        <ele>337</ele>
        <time>2018-04-11T10:35:39Z</time>
      </trkpt>
      <trkpt lat="45.95202" lon="4.69408">
        <ele>337</ele>
        <time>2018-04-11T10:35:40Z</time>
      </trkpt>
      <trkpt lat="45.95208" lon="4.6941">
        <ele>337</ele>
        <time>2018-04-11T10:35:41Z</time>
      </trkpt>
      <trkpt lat="45.95213" lon="4.69412">
        <ele>337</ele>
        <time>2018-04-11T10:35:42Z</time>
      </trkpt>
      <trkpt lat="45.95217" lon="4.69416">
        <ele>337</ele>
        <time>2018-04-11T10:35:43Z</time>
      </trkpt>
      <trkpt lat="45.95222" lon="4.69418">
        <ele>340</ele>
        <time>2018-04-11T10:35:44Z</time>
      </trkpt>
      <trkpt lat="45.95226" lon="4.6942">
        <ele>340</ele>
        <time>2018-04-11T10:35:45Z</time>
      </trkpt>
      <trkpt lat="45.95231" lon="4.69423">
        <ele>340</ele>
        <time>2018-04-11T10:35:46Z</time>
      </trkpt>
      <trkpt lat="45.95235" lon="4.69425">
        <ele>339</ele>
        <time>2018-04-11T10:35:47Z</time>
      </trkpt>
      <trkpt lat="45.9524" lon="4.69427">
        <ele>339</ele>
        <time>2018-04-11T10:35:48Z</time>
      </trkpt>
      <trkpt lat="45.95245" lon="4.69429">
        <ele>339</ele>
        <time>2018-04-11T10:35:49Z</time>
      </trkpt>
      <trkpt lat="45.95249" lon="4.69431">
        <ele>339</ele>
        <time>2018-04-11T10:35:50Z</time>
      </trkpt>
      <trkpt lat="45.95253" lon="4.69433">
        <ele>338</ele>
        <time>2018-04-11T10:35:51Z</time>
      </trkpt>
      <trkpt lat="45.95258" lon="4.69435">
        <ele>338</ele>
        <time>2018-04-11T10:35:52Z</time>
      </trkpt>
      <trkpt lat="45.95266" lon="4.69439">
        <ele>339</ele>
        <time>2018-04-11T10:35:54Z</time>
      </trkpt>
      <trkpt lat="45.95271" lon="4.69441">
        <ele>339</ele>
        <time>2018-04-11T10:35:55Z</time>
      </trkpt>
      <trkpt lat="45.95275" lon="4.69443">
        <ele>339</ele>
        <time>2018-04-11T10:35:56Z</time>
      </trkpt>
      <trkpt lat="45.9528" lon="4.69446">
        <ele>339</ele>
        <time>2018-04-11T10:35:57Z</time>
      </trkpt>
      <trkpt lat="45.95284" lon="4.69447">
        <ele>338</ele>
        <time>2018-04-11T10:35:58Z</time>
      </trkpt>
      <trkpt lat="45.95288" lon="4.69448">
        <ele>338</ele>
        <time>2018-04-11T10:35:59Z</time>
      </trkpt>
      <trkpt lat="45.95293" lon="4.6945">
        <ele>338</ele>
        <time>2018-04-11T10:36:00Z</time>
      </trkpt>
      <trkpt lat="45.95298" lon="4.69453">
        <ele>338</ele>
        <time>2018-04-11T10:36:01Z</time>
      </trkpt>
      <trkpt lat="45.95302" lon="4.69454">
        <ele>338</ele>
        <time>2018-04-11T10:36:02Z</time>
      </trkpt>
      <trkpt lat="45.95306" lon="4.69457">
        <ele>338</ele>
        <time>2018-04-11T10:36:03Z</time>
      </trkpt>
      <trkpt lat="45.95311" lon="4.69459">
        <ele>338</ele>
        <time>2018-04-11T10:36:04Z</time>
      </trkpt>
      <trkpt lat="45.95315" lon="4.69461">
        <ele>338</ele>
        <time>2018-04-11T10:36:05Z</time>
      </trkpt>
      <trkpt lat="45.9532" lon="4.69463">
        <ele>339</ele>
        <time>2018-04-11T10:36:06Z</time>
      </trkpt>
      <trkpt lat="45.95325" lon="4.69465">
        <ele>339</ele>
        <time>2018-04-11T10:36:07Z</time>
      </trkpt>
      <trkpt lat="45.95329" lon="4.69468">
        <ele>339</ele>
        <time>2018-04-11T10:36:08Z</time>
      </trkpt>
      <trkpt lat="45.95333" lon="4.69471">
        <ele>339</ele>
        <time>2018-04-11T10:36:09Z</time>
      </trkpt>
      <trkpt lat="45.95337" lon="4.69474">
        <ele>337</ele>
        <time>2018-04-11T10:36:10Z</time>
      </trkpt>
      <trkpt lat="45.95342" lon="4.69476">
        <ele>337</ele>
        <time>2018-04-11T10:36:11Z</time>
      </trkpt>
      <trkpt lat="45.95346" lon="4.69479">
        <ele>337</ele>
        <time>2018-04-11T10:36:12Z</time>
      </trkpt>
      <trkpt lat="45.95351" lon="4.69482">
        <ele>337</ele>
        <time>2018-04-11T10:36:13Z</time>
      </trkpt>
      <trkpt lat="45.95355" lon="4.69485">
        <ele>337</ele>
        <time>2018-04-11T10:36:14Z</time>
      </trkpt>
      <trkpt lat="45.95359" lon="4.69488">
        <ele>337</ele>
        <time>2018-04-11T10:36:15Z</time>
      </trkpt>
      <trkpt lat="45.95364" lon="4.69492">
        <ele>337</ele>
        <time>2018-04-11T10:36:16Z</time>
      </trkpt>
      <trkpt lat="45.95369" lon="4.69495">
        <ele>337</ele>
        <time>2018-04-11T10:36:17Z</time>
      </trkpt>
      <trkpt lat="45.95374" lon="4.69499">
        <ele>337</ele>
        <time>2018-04-11T10:36:18Z</time>
      </trkpt>
      <trkpt lat="45.95378" lon="4.69502">
        <ele>340</ele>
        <time>2018-04-11T10:36:19Z</time>
      </trkpt>
      <trkpt lat="45.95383" lon="4.69505">
        <ele>340</ele>
        <time>2018-04-11T10:36:20Z</time>
      </trkpt>
      <trkpt lat="45.95388" lon="4.69509">
        <ele>340</ele>
        <time>2018-04-11T10:36:21Z</time>
      </trkpt>
      <trkpt lat="45.95393" lon="4.69511">
        <ele>339</ele>
        <time>2018-04-11T10:36:22Z</time>
      </trkpt>
      <trkpt lat="45.95399" lon="4.69515">
        <ele>339</ele>
        <time>2018-04-11T10:36:23Z</time>
      </trkpt>
      <trkpt lat="45.95403" lon="4.69518">
        <ele>339</ele>
        <time>2018-04-11T10:36:24Z</time>
      </trkpt>
      <trkpt lat="45.95408" lon="4.69521">
        <ele>339</ele>
        <time>2018-04-11T10:36:25Z</time>
      </trkpt>
      <trkpt lat="45.95413" lon="4.69524">
        <ele>339</ele>
        <time>2018-04-11T10:36:26Z</time>
      </trkpt>
      <trkpt lat="45.95418" lon="4.69528">
        <ele>337</ele>
        <time>2018-04-11T10:36:27Z</time>
      </trkpt>
      <trkpt lat="45.95424" lon="4.69531">
        <ele>337</ele>
        <time>2018-04-11T10:36:28Z</time>
      </trkpt>
      <trkpt lat="45.95428" lon="4.69534">
        <ele>337</ele>
        <time>2018-04-11T10:36:29Z</time>
      </trkpt>
      <trkpt lat="45.95433" lon="4.69536">
        <ele>337</ele>
        <time>2018-04-11T10:36:30Z</time>
      </trkpt>
      <trkpt lat="45.95439" lon="4.69539">
        <ele>337</ele>
        <time>2018-04-11T10:36:31Z</time>
      </trkpt>
      <trkpt lat="45.95445" lon="4.69541">
        <ele>337</ele>
        <time>2018-04-11T10:36:32Z</time>
      </trkpt>
      <trkpt lat="45.9545" lon="4.69544">
        <ele>337</ele>
        <time>2018-04-11T10:36:33Z</time>
      </trkpt>
      <trkpt lat="45.95455" lon="4.69547">
        <ele>337</ele>
        <time>2018-04-11T10:36:34Z</time>
      </trkpt>
      <trkpt lat="45.95461" lon="4.69549">
        <ele>337</ele>
        <time>2018-04-11T10:36:35Z</time>
      </trkpt>
      <trkpt lat="45.95466" lon="4.69551">
        <ele>336</ele>
        <time>2018-04-11T10:36:36Z</time>
      </trkpt>
      <trkpt lat="45.95472" lon="4.69553">
        <ele>336</ele>
        <time>2018-04-11T10:36:37Z</time>
      </trkpt>
      <trkpt lat="45.95478" lon="4.69556">
        <ele>336</ele>
        <time>2018-04-11T10:36:38Z</time>
      </trkpt>
      <trkpt lat="45.95483" lon="4.69559">
        <ele>336</ele>
        <time>2018-04-11T10:36:39Z</time>
      </trkpt>
      <trkpt lat="45.95489" lon="4.69562">
        <ele>336</ele>
        <time>2018-04-11T10:36:40Z</time>
      </trkpt>
      <trkpt lat="45.95494" lon="4.69563">
        <ele>336</ele>
        <time>2018-04-11T10:36:41Z</time>
      </trkpt>
      <trkpt lat="45.955" lon="4.69566">
        <ele>337</ele>
        <time>2018-04-11T10:36:42Z</time>
      </trkpt>
      <trkpt lat="45.95505" lon="4.69567">
        <ele>334</ele>
        <time>2018-04-11T10:36:43Z</time>
      </trkpt>
      <trkpt lat="45.9551" lon="4.69569">
        <ele>334</ele>
        <time>2018-04-11T10:36:44Z</time>
      </trkpt>
      <trkpt lat="45.95515" lon="4.69571">
        <ele>334</ele>
        <time>2018-04-11T10:36:45Z</time>
      </trkpt>
      <trkpt lat="45.95521" lon="4.69574">
        <ele>333</ele>
        <time>2018-04-11T10:36:46Z</time>
      </trkpt>
      <trkpt lat="45.95526" lon="4.69577">
        <ele>333</ele>
        <time>2018-04-11T10:36:47Z</time>
      </trkpt>
      <trkpt lat="45.95532" lon="4.6958">
        <ele>332</ele>
        <time>2018-04-11T10:36:48Z</time>
      </trkpt>
      <trkpt lat="45.95538" lon="4.69583">
        <ele>332</ele>
        <time>2018-04-11T10:36:49Z</time>
      </trkpt>
      <trkpt lat="45.95545" lon="4.69586">
        <ele>331</ele>
        <time>2018-04-11T10:36:50Z</time>
      </trkpt>
      <trkpt lat="45.95551" lon="4.69588">
        <ele>331</ele>
        <time>2018-04-11T10:36:51Z</time>
      </trkpt>
      <trkpt lat="45.95558" lon="4.69591">
        <ele>330</ele>
        <time>2018-04-11T10:36:52Z</time>
      </trkpt>
      <trkpt lat="45.95565" lon="4.69594">
        <ele>330</ele>
        <time>2018-04-11T10:36:53Z</time>
      </trkpt>
      <trkpt lat="45.95572" lon="4.69598">
        <ele>330</ele>
        <time>2018-04-11T10:36:54Z</time>
      </trkpt>
      <trkpt lat="45.95579" lon="4.69601">
        <ele>330</ele>
        <time>2018-04-11T10:36:55Z</time>
      </trkpt>
      <trkpt lat="45.95585" lon="4.69604">
        <ele>328</ele>
        <time>2018-04-11T10:36:56Z</time>
      </trkpt>
      <trkpt lat="45.95592" lon="4.69607">
        <ele>328</ele>
        <time>2018-04-11T10:36:57Z</time>
      </trkpt>
      <trkpt lat="45.95599" lon="4.6961">
        <ele>328</ele>
        <time>2018-04-11T10:36:58Z</time>
      </trkpt>
      <trkpt lat="45.95606" lon="4.69614">
        <ele>328</ele>
        <time>2018-04-11T10:36:59Z</time>
      </trkpt>
      <trkpt lat="45.95613" lon="4.69617">
        <ele>328</ele>
        <time>2018-04-11T10:37:00Z</time>
      </trkpt>
      <trkpt lat="45.95619" lon="4.6962">
        <ele>328</ele>
        <time>2018-04-11T10:37:01Z</time>
      </trkpt>
      <trkpt lat="45.95626" lon="4.69623">
        <ele>328</ele>
        <time>2018-04-11T10:37:02Z</time>
      </trkpt>
      <trkpt lat="45.95633" lon="4.69625">
        <ele>328</ele>
        <time>2018-04-11T10:37:03Z</time>
      </trkpt>
      <trkpt lat="45.9564" lon="4.69629">
        <ele>328</ele>
        <time>2018-04-11T10:37:04Z</time>
      </trkpt>
      <trkpt lat="45.95646" lon="4.69632">
        <ele>328</ele>
        <time>2018-04-11T10:37:05Z</time>
      </trkpt>
      <trkpt lat="45.95653" lon="4.69634">
        <ele>328</ele>
        <time>2018-04-11T10:37:06Z</time>
      </trkpt>
      <trkpt lat="45.95659" lon="4.69636">
        <ele>327</ele>
        <time>2018-04-11T10:37:07Z</time>
      </trkpt>
      <trkpt lat="45.95666" lon="4.69639">
        <ele>327</ele>
        <time>2018-04-11T10:37:08Z</time>
      </trkpt>
      <trkpt lat="45.95673" lon="4.69642">
        <ele>326</ele>
        <time>2018-04-11T10:37:09Z</time>
      </trkpt>
      <trkpt lat="45.95679" lon="4.69644">
        <ele>326</ele>
        <time>2018-04-11T10:37:10Z</time>
      </trkpt>
      <trkpt lat="45.95686" lon="4.69647">
        <ele>326</ele>
        <time>2018-04-11T10:37:11Z</time>
      </trkpt>
      <trkpt lat="45.95694" lon="4.69649">
        <ele>326</ele>
        <time>2018-04-11T10:37:12Z</time>
      </trkpt>
      <trkpt lat="45.957" lon="4.69652">
        <ele>326</ele>
        <time>2018-04-11T10:37:13Z</time>
      </trkpt>
      <trkpt lat="45.95706" lon="4.69654">
        <ele>326</ele>
        <time>2018-04-11T10:37:14Z</time>
      </trkpt>
      <trkpt lat="45.95712" lon="4.69657">
        <ele>326</ele>
        <time>2018-04-11T10:37:15Z</time>
      </trkpt>
      <trkpt lat="45.95718" lon="4.69659">
        <ele>326</ele>
        <time>2018-04-11T10:37:16Z</time>
      </trkpt>
      <trkpt lat="45.95724" lon="4.69662">
        <ele>326</ele>
        <time>2018-04-11T10:37:17Z</time>
      </trkpt>
      <trkpt lat="45.9573" lon="4.69664">
        <ele>326</ele>
        <time>2018-04-11T10:37:18Z</time>
      </trkpt>
      <trkpt lat="45.95736" lon="4.69667">
        <ele>326</ele>
        <time>2018-04-11T10:37:19Z</time>
      </trkpt>
      <trkpt lat="45.95741" lon="4.6967">
        <ele>326</ele>
        <time>2018-04-11T10:37:20Z</time>
      </trkpt>
      <trkpt lat="45.95746" lon="4.69674">
        <ele>326</ele>
        <time>2018-04-11T10:37:21Z</time>
      </trkpt>
      <trkpt lat="45.95751" lon="4.69677">
        <ele>326</ele>
        <time>2018-04-11T10:37:22Z</time>
      </trkpt>
      <trkpt lat="45.95756" lon="4.6968">
        <ele>326</ele>
        <time>2018-04-11T10:37:23Z</time>
      </trkpt>
      <trkpt lat="45.95761" lon="4.69683">
        <ele>326</ele>
        <time>2018-04-11T10:37:24Z</time>
      </trkpt>
      <trkpt lat="45.95766" lon="4.69684">
        <ele>326</ele>
        <time>2018-04-11T10:37:25Z</time>
      </trkpt>
      <trkpt lat="45.95771" lon="4.69686">
        <ele>326</ele>
        <time>2018-04-11T10:37:26Z</time>
      </trkpt>
      <trkpt lat="45.95776" lon="4.69689">
        <ele>326</ele>
        <time>2018-04-11T10:37:27Z</time>
      </trkpt>
      <trkpt lat="45.95779" lon="4.69693">
        <ele>326</ele>
        <time>2018-04-11T10:37:28Z</time>
      </trkpt>
      <trkpt lat="45.95783" lon="4.69697">
        <ele>326</ele>
        <time>2018-04-11T10:37:29Z</time>
      </trkpt>
      <trkpt lat="45.95788" lon="4.69703">
        <ele>326</ele>
        <time>2018-04-11T10:37:30Z</time>
      </trkpt>
      <trkpt lat="45.95792" lon="4.69709">
        <ele>326</ele>
        <time>2018-04-11T10:37:31Z</time>
      </trkpt>
      <trkpt lat="45.95795" lon="4.69713">
        <ele>326</ele>
        <time>2018-04-11T10:37:32Z</time>
      </trkpt>
      <trkpt lat="45.958" lon="4.69719">
        <ele>326</ele>
        <time>2018-04-11T10:37:33Z</time>
      </trkpt>
      <trkpt lat="45.95804" lon="4.69724">
        <ele>326</ele>
        <time>2018-04-11T10:37:34Z</time>
      </trkpt>
      <trkpt lat="45.95808" lon="4.6973">
        <ele>326</ele>
        <time>2018-04-11T10:37:35Z</time>
      </trkpt>
      <trkpt lat="45.95811" lon="4.69736">
        <ele>327</ele>
        <time>2018-04-11T10:37:36Z</time>
      </trkpt>
      <trkpt lat="45.95815" lon="4.69742">
        <ele>327</ele>
        <time>2018-04-11T10:37:37Z</time>
      </trkpt>
      <trkpt lat="45.95819" lon="4.69748">
        <ele>327</ele>
        <time>2018-04-11T10:37:38Z</time>
      </trkpt>
      <trkpt lat="45.95823" lon="4.69754">
        <ele>328</ele>
        <time>2018-04-11T10:37:39Z</time>
      </trkpt>
      <trkpt lat="45.95826" lon="4.6976">
        <ele>328</ele>
        <time>2018-04-11T10:37:40Z</time>
      </trkpt>
      <trkpt lat="45.9583" lon="4.69765">
        <ele>328</ele>
        <time>2018-04-11T10:37:41Z</time>
      </trkpt>
      <trkpt lat="45.95833" lon="4.69772">
        <ele>328</ele>
        <time>2018-04-11T10:37:42Z</time>
      </trkpt>
      <trkpt lat="45.95837" lon="4.69778">
        <ele>327</ele>
        <time>2018-04-11T10:37:43Z</time>
      </trkpt>
      <trkpt lat="45.9584" lon="4.69783">
        <ele>327</ele>
        <time>2018-04-11T10:37:44Z</time>
      </trkpt>
      <trkpt lat="45.95842" lon="4.69789">
        <ele>327</ele>
        <time>2018-04-11T10:37:45Z</time>
      </trkpt>
      <trkpt lat="45.95845" lon="4.69794">
        <ele>327</ele>
        <time>2018-04-11T10:37:46Z</time>
      </trkpt>
      <trkpt lat="45.95849" lon="4.698">
        <ele>327</ele>
        <time>2018-04-11T10:37:47Z</time>
      </trkpt>
      <trkpt lat="45.95853" lon="4.69811">
        <ele>328</ele>
        <time>2018-04-11T10:37:49Z</time>
      </trkpt>
      <trkpt lat="45.95855" lon="4.69816">
        <ele>328</ele>
        <time>2018-04-11T10:37:50Z</time>
      </trkpt>
      <trkpt lat="45.9586" lon="4.69826">
        <ele>328</ele>
        <time>2018-04-11T10:37:52Z</time>
      </trkpt>
      <trkpt lat="45.95862" lon="4.69831">
        <ele>328</ele>
        <time>2018-04-11T10:37:53Z</time>
      </trkpt>
      <trkpt lat="45.95867" lon="4.69842">
        <ele>329</ele>
        <time>2018-04-11T10:37:55Z</time>
      </trkpt>
      <trkpt lat="45.95868" lon="4.69847">
        <ele>329</ele>
        <time>2018-04-11T10:37:56Z</time>
      </trkpt>
      <trkpt lat="45.95871" lon="4.69857">
        <ele>329</ele>
        <time>2018-04-11T10:37:58Z</time>
      </trkpt>
      <trkpt lat="45.95873" lon="4.69863">
        <ele>329</ele>
        <time>2018-04-11T10:37:59Z</time>
      </trkpt>
      <trkpt lat="45.95876" lon="4.69874">
        <ele>329</ele>
        <time>2018-04-11T10:38:01Z</time>
      </trkpt>
      <trkpt lat="45.95876" lon="4.69881">
        <ele>329</ele>
        <time>2018-04-11T10:38:02Z</time>
      </trkpt>
      <trkpt lat="45.95878" lon="4.69887">
        <ele>329</ele>
        <time>2018-04-11T10:38:03Z</time>
      </trkpt>
      <trkpt lat="45.95879" lon="4.69894">
        <ele>329</ele>
        <time>2018-04-11T10:38:04Z</time>
      </trkpt>
      <trkpt lat="45.95881" lon="4.699">
        <ele>329</ele>
        <time>2018-04-11T10:38:05Z</time>
      </trkpt>
      <trkpt lat="45.95883" lon="4.69907">
        <ele>329</ele>
        <time>2018-04-11T10:38:06Z</time>
      </trkpt>
      <trkpt lat="45.95884" lon="4.69913">
        <ele>329</ele>
        <time>2018-04-11T10:38:07Z</time>
      </trkpt>
      <trkpt lat="45.95885" lon="4.6992">
        <ele>328</ele>
        <time>2018-04-11T10:38:08Z</time>
      </trkpt>
      <trkpt lat="45.95888" lon="4.69932">
        <ele>328</ele>
        <time>2018-04-11T10:38:10Z</time>
      </trkpt>
      <trkpt lat="45.95889" lon="4.69937">
        <ele>328</ele>
        <time>2018-04-11T10:38:11Z</time>
      </trkpt>
      <trkpt lat="45.95891" lon="4.69944">
        <ele>328</ele>
        <time>2018-04-11T10:38:12Z</time>
      </trkpt>
      <trkpt lat="45.95892" lon="4.6995">
        <ele>328</ele>
        <time>2018-04-11T10:38:13Z</time>
      </trkpt>
      <trkpt lat="45.95893" lon="4.69961">
        <ele>328</ele>
        <time>2018-04-11T10:38:15Z</time>
      </trkpt>
      <trkpt lat="45.95895" lon="4.69966">
        <ele>328</ele>
        <time>2018-04-11T10:38:16Z</time>
      </trkpt>
      <trkpt lat="45.95898" lon="4.69977">
        <ele>328</ele>
        <time>2018-04-11T10:38:18Z</time>
      </trkpt>
      <trkpt lat="45.95901" lon="4.69985">
        <ele>328</ele>
        <time>2018-04-11T10:38:19Z</time>
      </trkpt>
      <trkpt lat="45.95903" lon="4.6999">
        <ele>328</ele>
        <time>2018-04-11T10:38:20Z</time>
      </trkpt>
      <trkpt lat="45.95905" lon="4.69997">
        <ele>328</ele>
        <time>2018-04-11T10:38:21Z</time>
      </trkpt>
      <trkpt lat="45.95908" lon="4.70003">
        <ele>328</ele>
        <time>2018-04-11T10:38:22Z</time>
      </trkpt>
      <trkpt lat="45.9591" lon="4.70008">
        <ele>328</ele>
        <time>2018-04-11T10:38:23Z</time>
      </trkpt>
      <trkpt lat="45.95913" lon="4.70014">
        <ele>328</ele>
        <time>2018-04-11T10:38:24Z</time>
      </trkpt>
      <trkpt lat="45.95916" lon="4.70019">
        <ele>328</ele>
        <time>2018-04-11T10:38:25Z</time>
      </trkpt>
      <trkpt lat="45.95918" lon="4.70024">
        <ele>328</ele>
        <time>2018-04-11T10:38:26Z</time>
      </trkpt>
      <trkpt lat="45.95921" lon="4.7003">
        <ele>328</ele>
        <time>2018-04-11T10:38:27Z</time>
      </trkpt>
      <trkpt lat="45.95924" lon="4.70036">
        <ele>328</ele>
        <time>2018-04-11T10:38:28Z</time>
      </trkpt>
      <trkpt lat="45.95927" lon="4.70042">
        <ele>328</ele>
        <time>2018-04-11T10:38:29Z</time>
      </trkpt>
      <trkpt lat="45.95931" lon="4.70047">
        <ele>328</ele>
        <time>2018-04-11T10:38:30Z</time>
      </trkpt>
      <trkpt lat="45.95933" lon="4.70052">
        <ele>328</ele>
        <time>2018-04-11T10:38:31Z</time>
      </trkpt>
      <trkpt lat="45.95939" lon="4.70061">
        <ele>328</ele>
        <time>2018-04-11T10:38:33Z</time>
      </trkpt>
      <trkpt lat="45.95943" lon="4.70066">
        <ele>328</ele>
        <time>2018-04-11T10:38:34Z</time>
      </trkpt>
      <trkpt lat="45.95947" lon="4.7007">
        <ele>328</ele>
        <time>2018-04-11T10:38:35Z</time>
      </trkpt>
      <trkpt lat="45.9595" lon="4.70075">
        <ele>328</ele>
        <time>2018-04-11T10:38:36Z</time>
      </trkpt>
      <trkpt lat="45.95954" lon="4.70078">
        <ele>328</ele>
        <time>2018-04-11T10:38:37Z</time>
      </trkpt>
      <trkpt lat="45.95958" lon="4.70082">
        <ele>328</ele>
        <time>2018-04-11T10:38:38Z</time>
      </trkpt>
      <trkpt lat="45.95962" lon="4.70086">
        <ele>328</ele>
        <time>2018-04-11T10:38:39Z</time>
      </trkpt>
      <trkpt lat="45.95966" lon="4.70089">
        <ele>328</ele>
        <time>2018-04-11T10:38:40Z</time>
      </trkpt>
      <trkpt lat="45.9597" lon="4.70093">
        <ele>328</ele>
        <time>2018-04-11T10:38:41Z</time>
      </trkpt>
      <trkpt lat="45.95974" lon="4.70099">
        <ele>328</ele>
        <time>2018-04-11T10:38:42Z</time>
      </trkpt>
      <trkpt lat="45.95977" lon="4.70103">
        <ele>328</ele>
        <time>2018-04-11T10:38:43Z</time>
      </trkpt>
      <trkpt lat="45.95981" lon="4.70107">
        <ele>328</ele>
        <time>2018-04-11T10:38:44Z</time>
      </trkpt>
      <trkpt lat="45.95985" lon="4.70112">
        <ele>328</ele>
        <time>2018-04-11T10:38:45Z</time>
      </trkpt>
      <trkpt lat="45.95989" lon="4.70116">
        <ele>328</ele>
        <time>2018-04-11T10:38:46Z</time>
      </trkpt>
      <trkpt lat="45.95993" lon="4.7012">
        <ele>328</ele>
        <time>2018-04-11T10:38:47Z</time>
      </trkpt>
      <trkpt lat="45.95997" lon="4.70124">
        <ele>328</ele>
        <time>2018-04-11T10:38:48Z</time>
      </trkpt>
      <trkpt lat="45.96001" lon="4.70129">
        <ele>328</ele>
        <time>2018-04-11T10:38:49Z</time>
      </trkpt>
      <trkpt lat="45.96005" lon="4.70133">
        <ele>328</ele>
        <time>2018-04-11T10:38:50Z</time>
      </trkpt>
      <trkpt lat="45.96009" lon="4.70138">
        <ele>328</ele>
        <time>2018-04-11T10:38:51Z</time>
      </trkpt>
      <trkpt lat="45.96012" lon="4.70142">
        <ele>329</ele>
        <time>2018-04-11T10:38:52Z</time>
      </trkpt>
      <trkpt lat="45.96017" lon="4.70146">
        <ele>329</ele>
        <time>2018-04-11T10:38:53Z</time>
      </trkpt>
      <trkpt lat="45.96021" lon="4.7015">
        <ele>329</ele>
        <time>2018-04-11T10:38:54Z</time>
      </trkpt>
      <trkpt lat="45.96025" lon="4.70154">
        <ele>329</ele>
        <time>2018-04-11T10:38:55Z</time>
      </trkpt>
      <trkpt lat="45.96029" lon="4.70158">
        <ele>329</ele>
        <time>2018-04-11T10:38:56Z</time>
      </trkpt>
      <trkpt lat="45.96034" lon="4.70161">
        <ele>329</ele>
        <time>2018-04-11T10:38:57Z</time>
      </trkpt>
      <trkpt lat="45.96038" lon="4.70166">
        <ele>329</ele>
        <time>2018-04-11T10:38:58Z</time>
      </trkpt>
      <trkpt lat="45.96042" lon="4.7017">
        <ele>327</ele>
        <time>2018-04-11T10:38:59Z</time>
      </trkpt>
      <trkpt lat="45.96046" lon="4.70174">
        <ele>327</ele>
        <time>2018-04-11T10:39:00Z</time>
      </trkpt>
      <trkpt lat="45.96051" lon="4.70177">
        <ele>327</ele>
        <time>2018-04-11T10:39:01Z</time>
      </trkpt>
      <trkpt lat="45.96056" lon="4.70181">
        <ele>327</ele>
        <time>2018-04-11T10:39:02Z</time>
      </trkpt>
      <trkpt lat="45.9606" lon="4.70185">
        <ele>327</ele>
        <time>2018-04-11T10:39:03Z</time>
      </trkpt>
      <trkpt lat="45.96065" lon="4.70189">
        <ele>327</ele>
        <time>2018-04-11T10:39:04Z</time>
      </trkpt>
      <trkpt lat="45.9607" lon="4.70193">
        <ele>327</ele>
        <time>2018-04-11T10:39:05Z</time>
      </trkpt>
      <trkpt lat="45.96075" lon="4.70196">
        <ele>327</ele>
        <time>2018-04-11T10:39:06Z</time>
      </trkpt>
      <trkpt lat="45.9608" lon="4.702">
        <ele>327</ele>
        <time>2018-04-11T10:39:07Z</time>
      </trkpt>
      <trkpt lat="45.96086" lon="4.70203">
        <ele>327</ele>
        <time>2018-04-11T10:39:08Z</time>
      </trkpt>
      <trkpt lat="45.96091" lon="4.70207">
        <ele>327</ele>
        <time>2018-04-11T10:39:09Z</time>
      </trkpt>
      <trkpt lat="45.96096" lon="4.70212">
        <ele>327</ele>
        <time>2018-04-11T10:39:10Z</time>
      </trkpt>
      <trkpt lat="45.961" lon="4.70217">
        <ele>327</ele>
        <time>2018-04-11T10:39:11Z</time>
      </trkpt>
      <trkpt lat="45.96105" lon="4.70222">
        <ele>327</ele>
        <time>2018-04-11T10:39:12Z</time>
      </trkpt>
      <trkpt lat="45.96109" lon="4.70227">
        <ele>327</ele>
        <time>2018-04-11T10:39:13Z</time>
      </trkpt>
      <trkpt lat="45.96114" lon="4.70231">
        <ele>327</ele>
        <time>2018-04-11T10:39:14Z</time>
      </trkpt>
      <trkpt lat="45.96118" lon="4.70235">
        <ele>327</ele>
        <time>2018-04-11T10:39:15Z</time>
      </trkpt>
      <trkpt lat="45.96124" lon="4.70239">
        <ele>327</ele>
        <time>2018-04-11T10:39:16Z</time>
      </trkpt>
      <trkpt lat="45.96128" lon="4.70243">
        <ele>327</ele>
        <time>2018-04-11T10:39:17Z</time>
      </trkpt>
      <trkpt lat="45.96134" lon="4.70249">
        <ele>327</ele>
        <time>2018-04-11T10:39:18Z</time>
      </trkpt>
      <trkpt lat="45.96139" lon="4.70254">
        <ele>324</ele>
        <time>2018-04-11T10:39:19Z</time>
      </trkpt>
      <trkpt lat="45.96144" lon="4.70259">
        <ele>324</ele>
        <time>2018-04-11T10:39:20Z</time>
      </trkpt>
      <trkpt lat="45.96148" lon="4.70264">
        <ele>324</ele>
        <time>2018-04-11T10:39:21Z</time>
      </trkpt>
      <trkpt lat="45.96153" lon="4.70269">
        <ele>324</ele>
        <time>2018-04-11T10:39:22Z</time>
      </trkpt>
      <trkpt lat="45.96157" lon="4.70274">
        <ele>324</ele>
        <time>2018-04-11T10:39:23Z</time>
      </trkpt>
      <trkpt lat="45.96161" lon="4.70279">
        <ele>323</ele>
        <time>2018-04-11T10:39:24Z</time>
      </trkpt>
      <trkpt lat="45.96166" lon="4.70284">
        <ele>323</ele>
        <time>2018-04-11T10:39:25Z</time>
      </trkpt>
      <trkpt lat="45.9617" lon="4.70289">
        <ele>326</ele>
        <time>2018-04-11T10:39:26Z</time>
      </trkpt>
      <trkpt lat="45.96174" lon="4.70295">
        <ele>326</ele>
        <time>2018-04-11T10:39:27Z</time>
      </trkpt>
      <trkpt lat="45.96178" lon="4.70301">
        <ele>325</ele>
        <time>2018-04-11T10:39:28Z</time>
      </trkpt>
      <trkpt lat="45.96183" lon="4.70307">
        <ele>325</ele>
        <time>2018-04-11T10:39:29Z</time>
      </trkpt>
      <trkpt lat="45.96187" lon="4.70314">
        <ele>325</ele>
        <time>2018-04-11T10:39:30Z</time>
      </trkpt>
      <trkpt lat="45.96192" lon="4.7032">
        <ele>325</ele>
        <time>2018-04-11T10:39:31Z</time>
      </trkpt>
      <trkpt lat="45.96197" lon="4.70328">
        <ele>325</ele>
        <time>2018-04-11T10:39:32Z</time>
      </trkpt>
      <trkpt lat="45.96202" lon="4.70334">
        <ele>320</ele>
        <time>2018-04-11T10:39:33Z</time>
      </trkpt>
      <trkpt lat="45.96207" lon="4.70341">
        <ele>321</ele>
        <time>2018-04-11T10:39:34Z</time>
      </trkpt>
      <trkpt lat="45.96211" lon="4.70348">
        <ele>321</ele>
        <time>2018-04-11T10:39:35Z</time>
      </trkpt>
      <trkpt lat="45.96215" lon="4.70354">
        <ele>321</ele>
        <time>2018-04-11T10:39:36Z</time>
      </trkpt>
      <trkpt lat="45.9622" lon="4.70361">
        <ele>321</ele>
        <time>2018-04-11T10:39:37Z</time>
      </trkpt>
      <trkpt lat="45.96224" lon="4.70368">
        <ele>321</ele>
        <time>2018-04-11T10:39:38Z</time>
      </trkpt>
      <trkpt lat="45.96228" lon="4.70375">
        <ele>320</ele>
        <time>2018-04-11T10:39:39Z</time>
      </trkpt>
      <trkpt lat="45.96234" lon="4.7038">
        <ele>320</ele>
        <time>2018-04-11T10:39:40Z</time>
      </trkpt>
      <trkpt lat="45.96238" lon="4.70388">
        <ele>320</ele>
        <time>2018-04-11T10:39:41Z</time>
      </trkpt>
      <trkpt lat="45.96242" lon="4.70394">
        <ele>320</ele>
        <time>2018-04-11T10:39:42Z</time>
      </trkpt>
      <trkpt lat="45.96246" lon="4.70401">
        <ele>320</ele>
        <time>2018-04-11T10:39:43Z</time>
      </trkpt>
      <trkpt lat="45.9625" lon="4.70407">
        <ele>323</ele>
        <time>2018-04-11T10:39:44Z</time>
      </trkpt>
      <trkpt lat="45.96255" lon="4.70413">
        <ele>322</ele>
        <time>2018-04-11T10:39:45Z</time>
      </trkpt>
      <trkpt lat="45.96259" lon="4.70421">
        <ele>320</ele>
        <time>2018-04-11T10:39:46Z</time>
      </trkpt>
      <trkpt lat="45.96263" lon="4.70427">
        <ele>320</ele>
        <time>2018-04-11T10:39:47Z</time>
      </trkpt>
      <trkpt lat="45.96267" lon="4.70435">
        <ele>321</ele>
        <time>2018-04-11T10:39:48Z</time>
      </trkpt>
      <trkpt lat="45.96272" lon="4.70441">
        <ele>321</ele>
        <time>2018-04-11T10:39:49Z</time>
      </trkpt>
      <trkpt lat="45.96277" lon="4.70449">
        <ele>321</ele>
        <time>2018-04-11T10:39:50Z</time>
      </trkpt>
      <trkpt lat="45.96282" lon="4.70455">
        <ele>320</ele>
        <time>2018-04-11T10:39:51Z</time>
      </trkpt>
      <trkpt lat="45.96286" lon="4.70462">
        <ele>320</ele>
        <time>2018-04-11T10:39:52Z</time>
      </trkpt>
      <trkpt lat="45.9629" lon="4.70469">
        <ele>320</ele>
        <time>2018-04-11T10:39:53Z</time>
      </trkpt>
      <trkpt lat="45.96295" lon="4.70476">
        <ele>320</ele>
        <time>2018-04-11T10:39:54Z</time>
      </trkpt>
      <trkpt lat="45.96299" lon="4.70482">
        <ele>320</ele>
        <time>2018-04-11T10:39:55Z</time>
      </trkpt>
      <trkpt lat="45.96304" lon="4.70489">
        <ele>320</ele>
        <time>2018-04-11T10:39:56Z</time>
      </trkpt>
      <trkpt lat="45.96309" lon="4.70495">
        <ele>320</ele>
        <time>2018-04-11T10:39:57Z</time>
      </trkpt>
      <trkpt lat="45.96314" lon="4.705">
        <ele>316</ele>
        <time>2018-04-11T10:39:58Z</time>
      </trkpt>
      <trkpt lat="45.96318" lon="4.70507">
        <ele>316</ele>
        <time>2018-04-11T10:39:59Z</time>
      </trkpt>
      <trkpt lat="45.96323" lon="4.70513">
        <ele>316</ele>
        <time>2018-04-11T10:40:00Z</time>
      </trkpt>
      <trkpt lat="45.96328" lon="4.70521">
        <ele>316</ele>
        <time>2018-04-11T10:40:01Z</time>
      </trkpt>
      <trkpt lat="45.96334" lon="4.70529">
        <ele>319</ele>
        <time>2018-04-11T10:40:02Z</time>
      </trkpt>
      <trkpt lat="45.9634" lon="4.70535">
        <ele>319</ele>
        <time>2018-04-11T10:40:03Z</time>
      </trkpt>
      <trkpt lat="45.96347" lon="4.70542">
        <ele>318</ele>
        <time>2018-04-11T10:40:04Z</time>
      </trkpt>
      <trkpt lat="45.96353" lon="4.70548">
        <ele>318</ele>
        <time>2018-04-11T10:40:05Z</time>
      </trkpt>
      <trkpt lat="45.96359" lon="4.70555">
        <ele>318</ele>
        <time>2018-04-11T10:40:06Z</time>
      </trkpt>
      <trkpt lat="45.96364" lon="4.70563">
        <ele>318</ele>
        <time>2018-04-11T10:40:07Z</time>
      </trkpt>
      <trkpt lat="45.96369" lon="4.7057">
        <ele>318</ele>
        <time>2018-04-11T10:40:08Z</time>
      </trkpt>
      <trkpt lat="45.96375" lon="4.70577">
        <ele>318</ele>
        <time>2018-04-11T10:40:09Z</time>
      </trkpt>
      <trkpt lat="45.96381" lon="4.70584">
        <ele>312</ele>
        <time>2018-04-11T10:40:10Z</time>
      </trkpt>
      <trkpt lat="45.96388" lon="4.70591">
        <ele>312</ele>
        <time>2018-04-11T10:40:11Z</time>
      </trkpt>
      <trkpt lat="45.96394" lon="4.70599">
        <ele>312</ele>
        <time>2018-04-11T10:40:12Z</time>
      </trkpt>
      <trkpt lat="45.96401" lon="4.70606">
        <ele>312</ele>
        <time>2018-04-11T10:40:13Z</time>
      </trkpt>
      <trkpt lat="45.96408" lon="4.70614">
        <ele>312</ele>
        <time>2018-04-11T10:40:14Z</time>
      </trkpt>
      <trkpt lat="45.96416" lon="4.70621">
        <ele>311</ele>
        <time>2018-04-11T10:40:15Z</time>
      </trkpt>
      <trkpt lat="45.96422" lon="4.70628">
        <ele>314</ele>
        <time>2018-04-11T10:40:16Z</time>
      </trkpt>
      <trkpt lat="45.96428" lon="4.70636">
        <ele>313</ele>
        <time>2018-04-11T10:40:17Z</time>
      </trkpt>
      <trkpt lat="45.96435" lon="4.70643">
        <ele>312</ele>
        <time>2018-04-11T10:40:18Z</time>
      </trkpt>
      <trkpt lat="45.96441" lon="4.7065">
        <ele>312</ele>
        <time>2018-04-11T10:40:19Z</time>
      </trkpt>
      <trkpt lat="45.96448" lon="4.70657">
        <ele>312</ele>
        <time>2018-04-11T10:40:20Z</time>
      </trkpt>
      <trkpt lat="45.96455" lon="4.70664">
        <ele>312</ele>
        <time>2018-04-11T10:40:21Z</time>
      </trkpt>
      <trkpt lat="45.96462" lon="4.70671">
        <ele>305</ele>
        <time>2018-04-11T10:40:22Z</time>
      </trkpt>
      <trkpt lat="45.96469" lon="4.70678">
        <ele>305</ele>
        <time>2018-04-11T10:40:23Z</time>
      </trkpt>
      <trkpt lat="45.96476" lon="4.70686">
        <ele>305</ele>
        <time>2018-04-11T10:40:24Z</time>
      </trkpt>
      <trkpt lat="45.96484" lon="4.70693">
        <ele>305</ele>
        <time>2018-04-11T10:40:25Z</time>
      </trkpt>
      <trkpt lat="45.96491" lon="4.70699">
        <ele>305</ele>
        <time>2018-04-11T10:40:26Z</time>
      </trkpt>
      <trkpt lat="45.96499" lon="4.70706">
        <ele>304</ele>
        <time>2018-04-11T10:40:27Z</time>
      </trkpt>
      <trkpt lat="45.96507" lon="4.70713">
        <ele>306</ele>
        <time>2018-04-11T10:40:28Z</time>
      </trkpt>
      <trkpt lat="45.96515" lon="4.7072">
        <ele>305</ele>
        <time>2018-04-11T10:40:29Z</time>
      </trkpt>
      <trkpt lat="45.96524" lon="4.70726">
        <ele>305</ele>
        <time>2018-04-11T10:40:30Z</time>
      </trkpt>
      <trkpt lat="45.96532" lon="4.70733">
        <ele>305</ele>
        <time>2018-04-11T10:40:31Z</time>
      </trkpt>
      <trkpt lat="45.96541" lon="4.7074">
        <ele>305</ele>
        <time>2018-04-11T10:40:32Z</time>
      </trkpt>
      <trkpt lat="45.9655" lon="4.70746">
        <ele>305</ele>
        <time>2018-04-11T10:40:33Z</time>
      </trkpt>
      <trkpt lat="45.96559" lon="4.70753">
        <ele>299</ele>
        <time>2018-04-11T10:40:34Z</time>
      </trkpt>
      <trkpt lat="45.96568" lon="4.7076">
        <ele>299</ele>
        <time>2018-04-11T10:40:35Z</time>
      </trkpt>
      <trkpt lat="45.96577" lon="4.70767">
        <ele>299</ele>
        <time>2018-04-11T10:40:36Z</time>
      </trkpt>
      <trkpt lat="45.96586" lon="4.70773">
        <ele>300</ele>
        <time>2018-04-11T10:40:37Z</time>
      </trkpt>
      <trkpt lat="45.96594" lon="4.7078">
        <ele>299</ele>
        <time>2018-04-11T10:40:38Z</time>
      </trkpt>
      <trkpt lat="45.96604" lon="4.70786">
        <ele>299</ele>
        <time>2018-04-11T10:40:39Z</time>
      </trkpt>
      <trkpt lat="45.96613" lon="4.70793">
        <ele>298</ele>
        <time>2018-04-11T10:40:40Z</time>
      </trkpt>
      <trkpt lat="45.96622" lon="4.70798">
        <ele>298</ele>
        <time>2018-04-11T10:40:41Z</time>
      </trkpt>
      <trkpt lat="45.96631" lon="4.70804">
        <ele>298</ele>
        <time>2018-04-11T10:40:42Z</time>
      </trkpt>
      <trkpt lat="45.9664" lon="4.7081">
        <ele>298</ele>
        <time>2018-04-11T10:40:43Z</time>
      </trkpt>
      <trkpt lat="45.9665" lon="4.70816">
        <ele>297</ele>
        <time>2018-04-11T10:40:44Z</time>
      </trkpt>
      <trkpt lat="45.96658" lon="4.70823">
        <ele>296</ele>
        <time>2018-04-11T10:40:45Z</time>
      </trkpt>
      <trkpt lat="45.96666" lon="4.70829">
        <ele>296</ele>
        <time>2018-04-11T10:40:46Z</time>
      </trkpt>
      <trkpt lat="45.96676" lon="4.70835">
        <ele>293</ele>
        <time>2018-04-11T10:40:47Z</time>
      </trkpt>
      <trkpt lat="45.96685" lon="4.70841">
        <ele>291</ele>
        <time>2018-04-11T10:40:48Z</time>
      </trkpt>
      <trkpt lat="45.96693" lon="4.70847">
        <ele>291</ele>
        <time>2018-04-11T10:40:49Z</time>
      </trkpt>
      <trkpt lat="45.96702" lon="4.70853">
        <ele>290</ele>
        <time>2018-04-11T10:40:50Z</time>
      </trkpt>
      <trkpt lat="45.9671" lon="4.70859">
        <ele>289</ele>
        <time>2018-04-11T10:40:51Z</time>
      </trkpt>
      <trkpt lat="45.96719" lon="4.70865">
        <ele>289</ele>
        <time>2018-04-11T10:40:52Z</time>
      </trkpt>
      <trkpt lat="45.96728" lon="4.70871">
        <ele>289</ele>
        <time>2018-04-11T10:40:53Z</time>
      </trkpt>
      <trkpt lat="45.96736" lon="4.70876">
        <ele>288</ele>
        <time>2018-04-11T10:40:54Z</time>
      </trkpt>
      <trkpt lat="45.96744" lon="4.70881">
        <ele>288</ele>
        <time>2018-04-11T10:40:55Z</time>
      </trkpt>
      <trkpt lat="45.96753" lon="4.70887">
        <ele>288</ele>
        <time>2018-04-11T10:40:56Z</time>
      </trkpt>
      <trkpt lat="45.96761" lon="4.70893">
        <ele>288</ele>
        <time>2018-04-11T10:40:57Z</time>
      </trkpt>
      <trkpt lat="45.96771" lon="4.70899">
        <ele>288</ele>
        <time>2018-04-11T10:40:58Z</time>
      </trkpt>
      <trkpt lat="45.96779" lon="4.70904">
        <ele>288</ele>
        <time>2018-04-11T10:40:59Z</time>
      </trkpt>
      <trkpt lat="45.96788" lon="4.7091">
        <ele>288</ele>
        <time>2018-04-11T10:41:00Z</time>
      </trkpt>
      <trkpt lat="45.96797" lon="4.70917">
        <ele>288</ele>
        <time>2018-04-11T10:41:01Z</time>
      </trkpt>
      <trkpt lat="45.96807" lon="4.70921">
        <ele>281</ele>
        <time>2018-04-11T10:41:02Z</time>
      </trkpt>
      <trkpt lat="45.96816" lon="4.70927">
        <ele>281</ele>
        <time>2018-04-11T10:41:03Z</time>
      </trkpt>
      <trkpt lat="45.96825" lon="4.70932">
        <ele>282</ele>
        <time>2018-04-11T10:41:04Z</time>
      </trkpt>
      <trkpt lat="45.96833" lon="4.70937">
        <ele>281</ele>
        <time>2018-04-11T10:41:05Z</time>
      </trkpt>
      <trkpt lat="45.96842" lon="4.70943">
        <ele>281</ele>
        <time>2018-04-11T10:41:06Z</time>
      </trkpt>
      <trkpt lat="45.9685" lon="4.70948">
        <ele>280</ele>
        <time>2018-04-11T10:41:07Z</time>
      </trkpt>
      <trkpt lat="45.96859" lon="4.70955">
        <ele>279</ele>
        <time>2018-04-11T10:41:08Z</time>
      </trkpt>
      <trkpt lat="45.96867" lon="4.7096">
        <ele>279</ele>
        <time>2018-04-11T10:41:09Z</time>
      </trkpt>
      <trkpt lat="45.96876" lon="4.70965">
        <ele>279</ele>
        <time>2018-04-11T10:41:10Z</time>
      </trkpt>
      <trkpt lat="45.96886" lon="4.70969">
        <ele>278</ele>
        <time>2018-04-11T10:41:11Z</time>
      </trkpt>
      <trkpt lat="45.96895" lon="4.70972">
        <ele>278</ele>
        <time>2018-04-11T10:41:12Z</time>
      </trkpt>
      <trkpt lat="45.96905" lon="4.70975">
        <ele>277</ele>
        <time>2018-04-11T10:41:13Z</time>
      </trkpt>
      <trkpt lat="45.96915" lon="4.70977">
        <ele>277</ele>
        <time>2018-04-11T10:41:14Z</time>
      </trkpt>
      <trkpt lat="45.96924" lon="4.70979">
        <ele>275</ele>
        <time>2018-04-11T10:41:15Z</time>
      </trkpt>
      <trkpt lat="45.96934" lon="4.70982">
        <ele>275</ele>
        <time>2018-04-11T10:41:16Z</time>
      </trkpt>
      <trkpt lat="45.96943" lon="4.70984">
        <ele>275</ele>
        <time>2018-04-11T10:41:17Z</time>
      </trkpt>
      <trkpt lat="45.96953" lon="4.70986">
        <ele>275</ele>
        <time>2018-04-11T10:41:18Z</time>
      </trkpt>
      <trkpt lat="45.96962" lon="4.70988">
        <ele>274</ele>
        <time>2018-04-11T10:41:19Z</time>
      </trkpt>
      <trkpt lat="45.96971" lon="4.7099">
        <ele>274</ele>
        <time>2018-04-11T10:41:20Z</time>
      </trkpt>
      <trkpt lat="45.96981" lon="4.70991">
        <ele>273</ele>
        <time>2018-04-11T10:41:21Z</time>
      </trkpt>
      <trkpt lat="45.9699" lon="4.70991">
        <ele>271</ele>
        <time>2018-04-11T10:41:22Z</time>
      </trkpt>
      <trkpt lat="45.96999" lon="4.70993">
        <ele>270</ele>
        <time>2018-04-11T10:41:23Z</time>
      </trkpt>
      <trkpt lat="45.97009" lon="4.70992">
        <ele>269</ele>
        <time>2018-04-11T10:41:24Z</time>
      </trkpt>
      <trkpt lat="45.97018" lon="4.7099">
        <ele>269</ele>
        <time>2018-04-11T10:41:25Z</time>
      </trkpt>
      <trkpt lat="45.97028" lon="4.70988">
        <ele>269</ele>
        <time>2018-04-11T10:41:26Z</time>
      </trkpt>
      <trkpt lat="45.97037" lon="4.70988">
        <ele>269</ele>
        <time>2018-04-11T10:41:27Z</time>
      </trkpt>
      <trkpt lat="45.97046" lon="4.70987">
        <ele>269</ele>
        <time>2018-04-11T10:41:28Z</time>
      </trkpt>
      <trkpt lat="45.97055" lon="4.70986">
        <ele>269</ele>
        <time>2018-04-11T10:41:29Z</time>
      </trkpt>
      <trkpt lat="45.97064" lon="4.70984">
        <ele>268</ele>
        <time>2018-04-11T10:41:30Z</time>
      </trkpt>
      <trkpt lat="45.97074" lon="4.70981">
        <ele>268</ele>
        <time>2018-04-11T10:41:31Z</time>
      </trkpt>
      <trkpt lat="45.97083" lon="4.7098">
        <ele>264</ele>
        <time>2018-04-11T10:41:32Z</time>
      </trkpt>
      <trkpt lat="45.97093" lon="4.70977">
        <ele>264</ele>
        <time>2018-04-11T10:41:33Z</time>
      </trkpt>
      <trkpt lat="45.97102" lon="4.70975">
        <ele>264</ele>
        <time>2018-04-11T10:41:34Z</time>
      </trkpt>
      <trkpt lat="45.9711" lon="4.70972">
        <ele>264</ele>
        <time>2018-04-11T10:41:35Z</time>
      </trkpt>
      <trkpt lat="45.97119" lon="4.70968">
        <ele>264</ele>
        <time>2018-04-11T10:41:36Z</time>
      </trkpt>
      <trkpt lat="45.97128" lon="4.70964">
        <ele>264</ele>
        <time>2018-04-11T10:41:37Z</time>
      </trkpt>
      <trkpt lat="45.97136" lon="4.7096">
        <ele>263</ele>
        <time>2018-04-11T10:41:38Z</time>
      </trkpt>
      <trkpt lat="45.97144" lon="4.70955">
        <ele>263</ele>
        <time>2018-04-11T10:41:39Z</time>
      </trkpt>
      <trkpt lat="45.97152" lon="4.70952">
        <ele>263</ele>
        <time>2018-04-11T10:41:40Z</time>
      </trkpt>
      <trkpt lat="45.9716" lon="4.70948">
        <ele>263</ele>
        <time>2018-04-11T10:41:41Z</time>
      </trkpt>
      <trkpt lat="45.97169" lon="4.70944">
        <ele>258</ele>
        <time>2018-04-11T10:41:42Z</time>
      </trkpt>
      <trkpt lat="45.97177" lon="4.70938">
        <ele>258</ele>
        <time>2018-04-11T10:41:43Z</time>
      </trkpt>
      <trkpt lat="45.97186" lon="4.70932">
        <ele>258</ele>
        <time>2018-04-11T10:41:44Z</time>
      </trkpt>
      <trkpt lat="45.97195" lon="4.70926">
        <ele>257</ele>
        <time>2018-04-11T10:41:45Z</time>
      </trkpt>
      <trkpt lat="45.97204" lon="4.70919">
        <ele>257</ele>
        <time>2018-04-11T10:41:46Z</time>
      </trkpt>
      <trkpt lat="45.97211" lon="4.70911">
        <ele>260</ele>
        <time>2018-04-11T10:41:47Z</time>
      </trkpt>
      <trkpt lat="45.97219" lon="4.70903">
        <ele>259</ele>
        <time>2018-04-11T10:41:48Z</time>
      </trkpt>
      <trkpt lat="45.97226" lon="4.70895">
        <ele>259</ele>
        <time>2018-04-11T10:41:49Z</time>
      </trkpt>
      <trkpt lat="45.97234" lon="4.70887">
        <ele>259</ele>
        <time>2018-04-11T10:41:50Z</time>
      </trkpt>
      <trkpt lat="45.97241" lon="4.70879">
        <ele>259</ele>
        <time>2018-04-11T10:41:51Z</time>
      </trkpt>
      <trkpt lat="45.97247" lon="4.7087">
        <ele>259</ele>
        <time>2018-04-11T10:41:52Z</time>
      </trkpt>
      <trkpt lat="45.97253" lon="4.7086">
        <ele>253</ele>
        <time>2018-04-11T10:41:53Z</time>
      </trkpt>
      <trkpt lat="45.97259" lon="4.70851">
        <ele>254</ele>
        <time>2018-04-11T10:41:54Z</time>
      </trkpt>
      <trkpt lat="45.97265" lon="4.70842">
        <ele>254</ele>
        <time>2018-04-11T10:41:55Z</time>
      </trkpt>
      <trkpt lat="45.97273" lon="4.7083">
        <ele>255</ele>
        <time>2018-04-11T10:41:56Z</time>
      </trkpt>
      <trkpt lat="45.97279" lon="4.7082">
        <ele>254</ele>
        <time>2018-04-11T10:41:57Z</time>
      </trkpt>
      <trkpt lat="45.97286" lon="4.70811">
        <ele>254</ele>
        <time>2018-04-11T10:41:58Z</time>
      </trkpt>
      <trkpt lat="45.97293" lon="4.70801">
        <ele>254</ele>
        <time>2018-04-11T10:41:59Z</time>
      </trkpt>
      <trkpt lat="45.973" lon="4.70793">
        <ele>253</ele>
        <time>2018-04-11T10:42:00Z</time>
      </trkpt>
      <trkpt lat="45.97307" lon="4.70787">
        <ele>253</ele>
        <time>2018-04-11T10:42:01Z</time>
      </trkpt>
      <trkpt lat="45.97315" lon="4.7078">
        <ele>252</ele>
        <time>2018-04-11T10:42:02Z</time>
      </trkpt>
      <trkpt lat="45.97323" lon="4.70774">
        <ele>252</ele>
        <time>2018-04-11T10:42:03Z</time>
      </trkpt>
      <trkpt lat="45.97332" lon="4.70768">
        <ele>251</ele>
        <time>2018-04-11T10:42:04Z</time>
      </trkpt>
      <trkpt lat="45.9734" lon="4.70764">
        <ele>247</ele>
        <time>2018-04-11T10:42:05Z</time>
      </trkpt>
      <trkpt lat="45.97349" lon="4.70759">
        <ele>246</ele>
        <time>2018-04-11T10:42:06Z</time>
      </trkpt>
      <trkpt lat="45.97358" lon="4.70755">
        <ele>245</ele>
        <time>2018-04-11T10:42:07Z</time>
      </trkpt>
      <trkpt lat="45.97367" lon="4.70749">
        <ele>245</ele>
        <time>2018-04-11T10:42:08Z</time>
      </trkpt>
      <trkpt lat="45.97376" lon="4.70745">
        <ele>244</ele>
        <time>2018-04-11T10:42:09Z</time>
      </trkpt>
      <trkpt lat="45.97385" lon="4.70742">
        <ele>243</ele>
        <time>2018-04-11T10:42:10Z</time>
      </trkpt>
      <trkpt lat="45.97393" lon="4.70743">
        <ele>243</ele>
        <time>2018-04-11T10:42:11Z</time>
      </trkpt>
      <trkpt lat="45.97402" lon="4.70744">
        <ele>242</ele>
        <time>2018-04-11T10:42:12Z</time>
      </trkpt>
      <trkpt lat="45.97409" lon="4.70745">
        <ele>241</ele>
        <time>2018-04-11T10:42:13Z</time>
      </trkpt>
      <trkpt lat="45.97418" lon="4.70747">
        <ele>240</ele>
        <time>2018-04-11T10:42:14Z</time>
      </trkpt>
      <trkpt lat="45.97427" lon="4.70748">
        <ele>239</ele>
        <time>2018-04-11T10:42:15Z</time>
      </trkpt>
      <trkpt lat="45.97436" lon="4.70749">
        <ele>239</ele>
        <time>2018-04-11T10:42:16Z</time>
      </trkpt>
      <trkpt lat="45.97444" lon="4.70749">
        <ele>239</ele>
        <time>2018-04-11T10:42:17Z</time>
      </trkpt>
      <trkpt lat="45.97451" lon="4.70748">
        <ele>238</ele>
        <time>2018-04-11T10:42:18Z</time>
      </trkpt>
      <trkpt lat="45.97458" lon="4.70748">
        <ele>238</ele>
        <time>2018-04-11T10:42:19Z</time>
      </trkpt>
      <trkpt lat="45.97465" lon="4.70747">
        <ele>238</ele>
        <time>2018-04-11T10:42:20Z</time>
      </trkpt>
      <trkpt lat="45.9747" lon="4.70747">
        <ele>238</ele>
        <time>2018-04-11T10:42:21Z</time>
      </trkpt>
      <trkpt lat="45.97477" lon="4.70746">
        <ele>237</ele>
        <time>2018-04-11T10:42:22Z</time>
      </trkpt>
      <trkpt lat="45.97482" lon="4.70744">
        <ele>237</ele>
        <time>2018-04-11T10:42:23Z</time>
      </trkpt>
      <trkpt lat="45.97488" lon="4.70744">
        <ele>237</ele>
        <time>2018-04-11T10:42:24Z</time>
      </trkpt>
      <trkpt lat="45.97495" lon="4.70742">
        <ele>237</ele>
        <time>2018-04-11T10:42:25Z</time>
      </trkpt>
      <trkpt lat="45.975" lon="4.70741">
        <ele>235</ele>
        <time>2018-04-11T10:42:26Z</time>
      </trkpt>
      <trkpt lat="45.97505" lon="4.70739">
        <ele>235</ele>
        <time>2018-04-11T10:42:27Z</time>
      </trkpt>
      <trkpt lat="45.97511" lon="4.70737">
        <ele>235</ele>
        <time>2018-04-11T10:42:28Z</time>
      </trkpt>
      <trkpt lat="45.97517" lon="4.70735">
        <ele>235</ele>
        <time>2018-04-11T10:42:29Z</time>
      </trkpt>
      <trkpt lat="45.97524" lon="4.70735">
        <ele>234</ele>
        <time>2018-04-11T10:42:30Z</time>
      </trkpt>
      <trkpt lat="45.97531" lon="4.70734">
        <ele>234</ele>
        <time>2018-04-11T10:42:31Z</time>
      </trkpt>
      <trkpt lat="45.97539" lon="4.70733">
        <ele>234</ele>
        <time>2018-04-11T10:42:32Z</time>
      </trkpt>
      <trkpt lat="45.97546" lon="4.70731">
        <ele>233</ele>
        <time>2018-04-11T10:42:33Z</time>
      </trkpt>
      <trkpt lat="45.97554" lon="4.7073">
        <ele>233</ele>
        <time>2018-04-11T10:42:34Z</time>
      </trkpt>
      <trkpt lat="45.97562" lon="4.70729">
        <ele>233</ele>
        <time>2018-04-11T10:42:35Z</time>
      </trkpt>
      <trkpt lat="45.97569" lon="4.70727">
        <ele>233</ele>
        <time>2018-04-11T10:42:36Z</time>
      </trkpt>
      <trkpt lat="45.97578" lon="4.70726">
        <ele>232</ele>
        <time>2018-04-11T10:42:37Z</time>
      </trkpt>
      <trkpt lat="45.97584" lon="4.70727">
        <ele>229</ele>
        <time>2018-04-11T10:42:38Z</time>
      </trkpt>
      <trkpt lat="45.97592" lon="4.70728">
        <ele>229</ele>
        <time>2018-04-11T10:42:39Z</time>
      </trkpt>
      <trkpt lat="45.97601" lon="4.70729">
        <ele>229</ele>
        <time>2018-04-11T10:42:40Z</time>
      </trkpt>
      <trkpt lat="45.9761" lon="4.7073">
        <ele>229</ele>
        <time>2018-04-11T10:42:41Z</time>
      </trkpt>
      <trkpt lat="45.9762" lon="4.70734">
        <ele>228</ele>
        <time>2018-04-11T10:42:42Z</time>
      </trkpt>
      <trkpt lat="45.97628" lon="4.70737">
        <ele>228</ele>
        <time>2018-04-11T10:42:43Z</time>
      </trkpt>
      <trkpt lat="45.97637" lon="4.70741">
        <ele>227</ele>
        <time>2018-04-11T10:42:44Z</time>
      </trkpt>
      <trkpt lat="45.97645" lon="4.70744">
        <ele>226</ele>
        <time>2018-04-11T10:42:45Z</time>
      </trkpt>
      <trkpt lat="45.97654" lon="4.70748">
        <ele>226</ele>
        <time>2018-04-11T10:42:46Z</time>
      </trkpt>
      <trkpt lat="45.97663" lon="4.70751">
        <ele>225</ele>
        <time>2018-04-11T10:42:47Z</time>
      </trkpt>
      <trkpt lat="45.97672" lon="4.70754">
        <ele>224</ele>
        <time>2018-04-11T10:42:48Z</time>
      </trkpt>
      <trkpt lat="45.9768" lon="4.70757">
        <ele>223</ele>
        <time>2018-04-11T10:42:49Z</time>
      </trkpt>
      <trkpt lat="45.97688" lon="4.7076">
        <ele>223</ele>
        <time>2018-04-11T10:42:50Z</time>
      </trkpt>
      <trkpt lat="45.97697" lon="4.70763">
        <ele>223</ele>
        <time>2018-04-11T10:42:51Z</time>
      </trkpt>
      <trkpt lat="45.97705" lon="4.70767">
        <ele>223</ele>
        <time>2018-04-11T10:42:52Z</time>
      </trkpt>
      <trkpt lat="45.97713" lon="4.7077">
        <ele>223</ele>
        <time>2018-04-11T10:42:53Z</time>
      </trkpt>
      <trkpt lat="45.97721" lon="4.70773">
        <ele>222</ele>
        <time>2018-04-11T10:42:54Z</time>
      </trkpt>
      <trkpt lat="45.97729" lon="4.70776">
        <ele>222</ele>
        <time>2018-04-11T10:42:55Z</time>
      </trkpt>
      <trkpt lat="45.97738" lon="4.70778">
        <ele>222</ele>
        <time>2018-04-11T10:42:56Z</time>
      </trkpt>
      <trkpt lat="45.97747" lon="4.7078">
        <ele>222</ele>
        <time>2018-04-11T10:42:57Z</time>
      </trkpt>
      <trkpt lat="45.97754" lon="4.70781">
        <ele>221</ele>
        <time>2018-04-11T10:42:58Z</time>
      </trkpt>
      <trkpt lat="45.97761" lon="4.70782">
        <ele>221</ele>
        <time>2018-04-11T10:42:59Z</time>
      </trkpt>
      <trkpt lat="45.97768" lon="4.70783">
        <ele>221</ele>
        <time>2018-04-11T10:43:00Z</time>
      </trkpt>
      <trkpt lat="45.97775" lon="4.70785">
        <ele>221</ele>
        <time>2018-04-11T10:43:01Z</time>
      </trkpt>
      <trkpt lat="45.97783" lon="4.7079">
        <ele>221</ele>
        <time>2018-04-11T10:43:02Z</time>
      </trkpt>
      <trkpt lat="45.97788" lon="4.70795">
        <ele>221</ele>
        <time>2018-04-11T10:43:03Z</time>
      </trkpt>
      <trkpt lat="45.97794" lon="4.70802">
        <ele>221</ele>
        <time>2018-04-11T10:43:04Z</time>
      </trkpt>
      <trkpt lat="45.97799" lon="4.70808">
        <ele>221</ele>
        <time>2018-04-11T10:43:05Z</time>
      </trkpt>
      <trkpt lat="45.97804" lon="4.70816">
        <ele>221</ele>
        <time>2018-04-11T10:43:06Z</time>
      </trkpt>
      <trkpt lat="45.97807" lon="4.70824">
        <ele>221</ele>
        <time>2018-04-11T10:43:07Z</time>
      </trkpt>
      <trkpt lat="45.9781" lon="4.70831">
        <ele>221</ele>
        <time>2018-04-11T10:43:08Z</time>
      </trkpt>
      <trkpt lat="45.97813" lon="4.70839">
        <ele>220</ele>
        <time>2018-04-11T10:43:09Z</time>
      </trkpt>
      <trkpt lat="45.97815" lon="4.70848">
        <ele>220</ele>
        <time>2018-04-11T10:43:10Z</time>
      </trkpt>
      <trkpt lat="45.97816" lon="4.70858">
        <ele>220</ele>
        <time>2018-04-11T10:43:11Z</time>
      </trkpt>
      <trkpt lat="45.97817" lon="4.70868">
        <ele>220</ele>
        <time>2018-04-11T10:43:12Z</time>
      </trkpt>
      <trkpt lat="45.97817" lon="4.70876">
        <ele>220</ele>
        <time>2018-04-11T10:43:13Z</time>
      </trkpt>
      <trkpt lat="45.97817" lon="4.70886">
        <ele>220</ele>
        <time>2018-04-11T10:43:14Z</time>
      </trkpt>
      <trkpt lat="45.97818" lon="4.70896">
        <ele>220</ele>
        <time>2018-04-11T10:43:15Z</time>
      </trkpt>
      <trkpt lat="45.97818" lon="4.70907">
        <ele>220</ele>
        <time>2018-04-11T10:43:16Z</time>
      </trkpt>
      <trkpt lat="45.97816" lon="4.70917">
        <ele>219</ele>
        <time>2018-04-11T10:43:17Z</time>
      </trkpt>
      <trkpt lat="45.97817" lon="4.70927">
        <ele>219</ele>
        <time>2018-04-11T10:43:18Z</time>
      </trkpt>
      <trkpt lat="45.9782" lon="4.70938">
        <ele>218</ele>
        <time>2018-04-11T10:43:19Z</time>
      </trkpt>
      <trkpt lat="45.97824" lon="4.70948">
        <ele>218</ele>
        <time>2018-04-11T10:43:20Z</time>
      </trkpt>
      <trkpt lat="45.97828" lon="4.70958">
        <ele>218</ele>
        <time>2018-04-11T10:43:21Z</time>
      </trkpt>
      <trkpt lat="45.9783" lon="4.70968">
        <ele>218</ele>
        <time>2018-04-11T10:43:22Z</time>
      </trkpt>
      <trkpt lat="45.97832" lon="4.70979">
        <ele>217</ele>
        <time>2018-04-11T10:43:23Z</time>
      </trkpt>
      <trkpt lat="45.97834" lon="4.7099">
        <ele>217</ele>
        <time>2018-04-11T10:43:24Z</time>
      </trkpt>
      <trkpt lat="45.97835" lon="4.71001">
        <ele>216</ele>
        <time>2018-04-11T10:43:25Z</time>
      </trkpt>
      <trkpt lat="45.97837" lon="4.71013">
        <ele>216</ele>
        <time>2018-04-11T10:43:26Z</time>
      </trkpt>
      <trkpt lat="45.97838" lon="4.71025">
        <ele>216</ele>
        <time>2018-04-11T10:43:27Z</time>
      </trkpt>
      <trkpt lat="45.97838" lon="4.71037">
        <ele>216</ele>
        <time>2018-04-11T10:43:28Z</time>
      </trkpt>
      <trkpt lat="45.97839" lon="4.71049">
        <ele>215</ele>
        <time>2018-04-11T10:43:29Z</time>
      </trkpt>
      <trkpt lat="45.9784" lon="4.71061">
        <ele>215</ele>
        <time>2018-04-11T10:43:30Z</time>
      </trkpt>
      <trkpt lat="45.97841" lon="4.71073">
        <ele>215</ele>
        <time>2018-04-11T10:43:31Z</time>
      </trkpt>
      <trkpt lat="45.97843" lon="4.71084">
        <ele>214</ele>
        <time>2018-04-11T10:43:32Z</time>
      </trkpt>
      <trkpt lat="45.97844" lon="4.71096">
        <ele>213</ele>
        <time>2018-04-11T10:43:33Z</time>
      </trkpt>
      <trkpt lat="45.97846" lon="4.71105">
        <ele>213</ele>
        <time>2018-04-11T10:43:34Z</time>
      </trkpt>
      <trkpt lat="45.97845" lon="4.71113">
        <ele>213</ele>
        <time>2018-04-11T10:43:35Z</time>
      </trkpt>
      <trkpt lat="45.97846" lon="4.71124">
        <ele>213</ele>
        <time>2018-04-11T10:43:36Z</time>
      </trkpt>
      <trkpt lat="45.97846" lon="4.71134">
        <ele>212</ele>
        <time>2018-04-11T10:43:37Z</time>
      </trkpt>
      <trkpt lat="45.97847" lon="4.71144">
        <ele>212</ele>
        <time>2018-04-11T10:43:38Z</time>
      </trkpt>
      <trkpt lat="45.97847" lon="4.71153">
        <ele>212</ele>
        <time>2018-04-11T10:43:39Z</time>
      </trkpt>
      <trkpt lat="45.97847" lon="4.71163">
        <ele>212</ele>
        <time>2018-04-11T10:43:40Z</time>
      </trkpt>
      <trkpt lat="45.97847" lon="4.71172">
        <ele>210</ele>
        <time>2018-04-11T10:43:41Z</time>
      </trkpt>
      <trkpt lat="45.97848" lon="4.71181">
        <ele>209</ele>
        <time>2018-04-11T10:43:42Z</time>
      </trkpt>
      <trkpt lat="45.97848" lon="4.7119">
        <ele>209</ele>
        <time>2018-04-11T10:43:43Z</time>
      </trkpt>
      <trkpt lat="45.9785" lon="4.71201">
        <ele>209</ele>
        <time>2018-04-11T10:43:44Z</time>
      </trkpt>
      <trkpt lat="45.97849" lon="4.71211">
        <ele>209</ele>
        <time>2018-04-11T10:43:45Z</time>
      </trkpt>
      <trkpt lat="45.9785" lon="4.71221">
        <ele>208</ele>
        <time>2018-04-11T10:43:46Z</time>
      </trkpt>
      <trkpt lat="45.9785" lon="4.71232">
        <ele>208</ele>
        <time>2018-04-11T10:43:47Z</time>
      </trkpt>
      <trkpt lat="45.97849" lon="4.71242">
        <ele>208</ele>
        <time>2018-04-11T10:43:48Z</time>
      </trkpt>
      <trkpt lat="45.97849" lon="4.71253">
        <ele>207</ele>
        <time>2018-04-11T10:43:49Z</time>
      </trkpt>
      <trkpt lat="45.9785" lon="4.71268">
        <ele>206</ele>
        <time>2018-04-11T10:43:50Z</time>
      </trkpt>
      <trkpt lat="45.97849" lon="4.71278">
        <ele>206</ele>
        <time>2018-04-11T10:43:51Z</time>
      </trkpt>
      <trkpt lat="45.97848" lon="4.7129">
        <ele>206</ele>
        <time>2018-04-11T10:43:52Z</time>
      </trkpt>
      <trkpt lat="45.97848" lon="4.71301">
        <ele>206</ele>
        <time>2018-04-11T10:43:53Z</time>
      </trkpt>
      <trkpt lat="45.97847" lon="4.71312">
        <ele>205</ele>
        <time>2018-04-11T10:43:54Z</time>
      </trkpt>
      <trkpt lat="45.97847" lon="4.71324">
        <ele>205</ele>
        <time>2018-04-11T10:43:55Z</time>
      </trkpt>
      <trkpt lat="45.97846" lon="4.71335">
        <ele>204</ele>
        <time>2018-04-11T10:43:56Z</time>
      </trkpt>
      <trkpt lat="45.97847" lon="4.71346">
        <ele>204</ele>
        <time>2018-04-11T10:43:57Z</time>
      </trkpt>
      <trkpt lat="45.97847" lon="4.71357">
        <ele>204</ele>
        <time>2018-04-11T10:43:58Z</time>
      </trkpt>
      <trkpt lat="45.97847" lon="4.71367">
        <ele>204</ele>
        <time>2018-04-11T10:43:59Z</time>
      </trkpt>
      <trkpt lat="45.97847" lon="4.71377">
        <ele>203</ele>
        <time>2018-04-11T10:44:00Z</time>
      </trkpt>
      <trkpt lat="45.97848" lon="4.71388">
        <ele>203</ele>
        <time>2018-04-11T10:44:01Z</time>
      </trkpt>
      <trkpt lat="45.97849" lon="4.71399">
        <ele>203</ele>
        <time>2018-04-11T10:44:02Z</time>
      </trkpt>
      <trkpt lat="45.97851" lon="4.7141">
        <ele>203</ele>
        <time>2018-04-11T10:44:03Z</time>
      </trkpt>
      <trkpt lat="45.97853" lon="4.71422">
        <ele>202</ele>
        <time>2018-04-11T10:44:04Z</time>
      </trkpt>
      <trkpt lat="45.97855" lon="4.71434">
        <ele>201</ele>
        <time>2018-04-11T10:44:05Z</time>
      </trkpt>
      <trkpt lat="45.97857" lon="4.71447">
        <ele>201</ele>
        <time>2018-04-11T10:44:06Z</time>
      </trkpt>
      <trkpt lat="45.97859" lon="4.71458">
        <ele>201</ele>
        <time>2018-04-11T10:44:07Z</time>
      </trkpt>
      <trkpt lat="45.9786" lon="4.71469">
        <ele>201</ele>
        <time>2018-04-11T10:44:08Z</time>
      </trkpt>
      <trkpt lat="45.97862" lon="4.7148">
        <ele>201</ele>
        <time>2018-04-11T10:44:09Z</time>
      </trkpt>
      <trkpt lat="45.97865" lon="4.71491">
        <ele>201</ele>
        <time>2018-04-11T10:44:10Z</time>
      </trkpt>
      <trkpt lat="45.97867" lon="4.71504">
        <ele>200</ele>
        <time>2018-04-11T10:44:11Z</time>
      </trkpt>
      <trkpt lat="45.97869" lon="4.71515">
        <ele>199</ele>
        <time>2018-04-11T10:44:12Z</time>
      </trkpt>
      <trkpt lat="45.97872" lon="4.71526">
        <ele>199</ele>
        <time>2018-04-11T10:44:13Z</time>
      </trkpt>
      <trkpt lat="45.97874" lon="4.71537">
        <ele>199</ele>
        <time>2018-04-11T10:44:14Z</time>
      </trkpt>
      <trkpt lat="45.97876" lon="4.71549">
        <ele>199</ele>
        <time>2018-04-11T10:44:15Z</time>
      </trkpt>
      <trkpt lat="45.97877" lon="4.71561">
        <ele>198</ele>
        <time>2018-04-11T10:44:16Z</time>
      </trkpt>
      <trkpt lat="45.97878" lon="4.71571">
        <ele>198</ele>
        <time>2018-04-11T10:44:17Z</time>
      </trkpt>
      <trkpt lat="45.97879" lon="4.71581">
        <ele>198</ele>
        <time>2018-04-11T10:44:18Z</time>
      </trkpt>
      <trkpt lat="45.9788" lon="4.71592">
        <ele>197</ele>
        <time>2018-04-11T10:44:19Z</time>
      </trkpt>
      <trkpt lat="45.9788" lon="4.71603">
        <ele>197</ele>
        <time>2018-04-11T10:44:20Z</time>
      </trkpt>
      <trkpt lat="45.9788" lon="4.71613">
        <ele>197</ele>
        <time>2018-04-11T10:44:21Z</time>
      </trkpt>
      <trkpt lat="45.9788" lon="4.71623">
        <ele>197</ele>
        <time>2018-04-11T10:44:22Z</time>
      </trkpt>
      <trkpt lat="45.97879" lon="4.71634">
        <ele>197</ele>
        <time>2018-04-11T10:44:23Z</time>
      </trkpt>
      <trkpt lat="45.97877" lon="4.71644">
        <ele>197</ele>
        <time>2018-04-11T10:44:24Z</time>
      </trkpt>
      <trkpt lat="45.97876" lon="4.71653">
        <ele>197</ele>
        <time>2018-04-11T10:44:25Z</time>
      </trkpt>
      <trkpt lat="45.97874" lon="4.71663">
        <ele>197</ele>
        <time>2018-04-11T10:44:26Z</time>
      </trkpt>
      <trkpt lat="45.97872" lon="4.71673">
        <ele>196</ele>
        <time>2018-04-11T10:44:27Z</time>
      </trkpt>
      <trkpt lat="45.97869" lon="4.71683">
        <ele>196</ele>
        <time>2018-04-11T10:44:28Z</time>
      </trkpt>
      <trkpt lat="45.97868" lon="4.71691">
        <ele>196</ele>
        <time>2018-04-11T10:44:29Z</time>
      </trkpt>
      <trkpt lat="45.97867" lon="4.71699">
        <ele>196</ele>
        <time>2018-04-11T10:44:30Z</time>
      </trkpt>
      <trkpt lat="45.97865" lon="4.71706">
        <ele>196</ele>
        <time>2018-04-11T10:44:31Z</time>
      </trkpt>
      <trkpt lat="45.97862" lon="4.71711">
        <ele>196</ele>
        <time>2018-04-11T10:44:32Z</time>
      </trkpt>
      <trkpt lat="45.97859" lon="4.71717">
        <ele>196</ele>
        <time>2018-04-11T10:44:33Z</time>
      </trkpt>
      <trkpt lat="45.97856" lon="4.71723">
        <ele>196</ele>
        <time>2018-04-11T10:44:34Z</time>
      </trkpt>
      <trkpt lat="45.97851" lon="4.71728">
        <ele>196</ele>
        <time>2018-04-11T10:44:35Z</time>
      </trkpt>
      <trkpt lat="45.97847" lon="4.71733">
        <ele>196</ele>
        <time>2018-04-11T10:44:36Z</time>
      </trkpt>
      <trkpt lat="45.97843" lon="4.71738">
        <ele>195</ele>
        <time>2018-04-11T10:44:37Z</time>
      </trkpt>
      <trkpt lat="45.97838" lon="4.71741">
        <ele>195</ele>
        <time>2018-04-11T10:44:38Z</time>
      </trkpt>
      <trkpt lat="45.97832" lon="4.71742">
        <ele>195</ele>
        <time>2018-04-11T10:44:39Z</time>
      </trkpt>
      <trkpt lat="45.97827" lon="4.71743">
        <ele>195</ele>
        <time>2018-04-11T10:44:40Z</time>
      </trkpt>
      <trkpt lat="45.9782" lon="4.71744">
        <ele>196</ele>
        <time>2018-04-11T10:44:41Z</time>
      </trkpt>
      <trkpt lat="45.97814" lon="4.71743">
        <ele>196</ele>
        <time>2018-04-11T10:44:42Z</time>
      </trkpt>
      <trkpt lat="45.97808" lon="4.71742">
        <ele>196</ele>
        <time>2018-04-11T10:44:43Z</time>
      </trkpt>
      <trkpt lat="45.97802" lon="4.71742">
        <ele>196</ele>
        <time>2018-04-11T10:44:44Z</time>
      </trkpt>
      <trkpt lat="45.97796" lon="4.71741">
        <ele>196</ele>
        <time>2018-04-11T10:44:45Z</time>
      </trkpt>
      <trkpt lat="45.97789" lon="4.71741">
        <ele>196</ele>
        <time>2018-04-11T10:44:46Z</time>
      </trkpt>
      <trkpt lat="45.97784" lon="4.71741">
        <ele>196</ele>
        <time>2018-04-11T10:44:47Z</time>
      </trkpt>
      <trkpt lat="45.97779" lon="4.7174">
        <ele>196</ele>
        <time>2018-04-11T10:44:48Z</time>
      </trkpt>
      <trkpt lat="45.97773" lon="4.71739">
        <ele>196</ele>
        <time>2018-04-11T10:44:49Z</time>
      </trkpt>
      <trkpt lat="45.97767" lon="4.71739">
        <ele>196</ele>
        <time>2018-04-11T10:44:50Z</time>
      </trkpt>
      <trkpt lat="45.97761" lon="4.71739">
        <ele>196</ele>
        <time>2018-04-11T10:44:51Z</time>
      </trkpt>
      <trkpt lat="45.97755" lon="4.71737">
        <ele>196</ele>
        <time>2018-04-11T10:44:52Z</time>
      </trkpt>
      <trkpt lat="45.9775" lon="4.71737">
        <ele>196</ele>
        <time>2018-04-11T10:44:53Z</time>
      </trkpt>
      <trkpt lat="45.97744" lon="4.71737">
        <ele>196</ele>
        <time>2018-04-11T10:44:54Z</time>
      </trkpt>
      <trkpt lat="45.97738" lon="4.71738">
        <ele>196</ele>
        <time>2018-04-11T10:44:55Z</time>
      </trkpt>
      <trkpt lat="45.97732" lon="4.71738">
        <ele>196</ele>
        <time>2018-04-11T10:44:56Z</time>
      </trkpt>
      <trkpt lat="45.97726" lon="4.71737">
        <ele>196</ele>
        <time>2018-04-11T10:44:57Z</time>
      </trkpt>
      <trkpt lat="45.97721" lon="4.71736">
        <ele>196</ele>
        <time>2018-04-11T10:44:58Z</time>
      </trkpt>
      <trkpt lat="45.97715" lon="4.71735">
        <ele>196</ele>
        <time>2018-04-11T10:44:59Z</time>
      </trkpt>
      <trkpt lat="45.97709" lon="4.71735">
        <ele>196</ele>
        <time>2018-04-11T10:45:00Z</time>
      </trkpt>
      <trkpt lat="45.97704" lon="4.71734">
        <ele>196</ele>
        <time>2018-04-11T10:45:01Z</time>
      </trkpt>
      <trkpt lat="45.97699" lon="4.71732">
        <ele>196</ele>
        <time>2018-04-11T10:45:02Z</time>
      </trkpt>
      <trkpt lat="45.97693" lon="4.71732">
        <ele>196</ele>
        <time>2018-04-11T10:45:03Z</time>
      </trkpt>
      <trkpt lat="45.97687" lon="4.71732">
        <ele>196</ele>
        <time>2018-04-11T10:45:04Z</time>
      </trkpt>
      <trkpt lat="45.97682" lon="4.71731">
        <ele>196</ele>
        <time>2018-04-11T10:45:05Z</time>
      </trkpt>
      <trkpt lat="45.97676" lon="4.71731">
        <ele>196</ele>
        <time>2018-04-11T10:45:06Z</time>
      </trkpt>
      <trkpt lat="45.9767" lon="4.71731">
        <ele>196</ele>
        <time>2018-04-11T10:45:07Z</time>
      </trkpt>
      <trkpt lat="45.97665" lon="4.7173">
        <ele>196</ele>
        <time>2018-04-11T10:45:08Z</time>
      </trkpt>
      <trkpt lat="45.9766" lon="4.7173">
        <ele>196</ele>
        <time>2018-04-11T10:45:09Z</time>
      </trkpt>
      <trkpt lat="45.97655" lon="4.71729">
        <ele>196</ele>
        <time>2018-04-11T10:45:10Z</time>
      </trkpt>
      <trkpt lat="45.9765" lon="4.71728">
        <ele>196</ele>
        <time>2018-04-11T10:45:11Z</time>
      </trkpt>
      <trkpt lat="45.97645" lon="4.71728">
        <ele>196</ele>
        <time>2018-04-11T10:45:12Z</time>
      </trkpt>
      <trkpt lat="45.9764" lon="4.71726">
        <ele>196</ele>
        <time>2018-04-11T10:45:13Z</time>
      </trkpt>
      <trkpt lat="45.97636" lon="4.71724">
        <ele>196</ele>
        <time>2018-04-11T10:45:14Z</time>
      </trkpt>
      <trkpt lat="45.97631" lon="4.7172">
        <ele>197</ele>
        <time>2018-04-11T10:45:15Z</time>
      </trkpt>
      <trkpt lat="45.97627" lon="4.71716">
        <ele>197</ele>
        <time>2018-04-11T10:45:16Z</time>
      </trkpt>
      <trkpt lat="45.97622" lon="4.71713">
        <ele>197</ele>
        <time>2018-04-11T10:45:17Z</time>
      </trkpt>
      <trkpt lat="45.97618" lon="4.71711">
        <ele>197</ele>
        <time>2018-04-11T10:45:18Z</time>
      </trkpt>
      <trkpt lat="45.97613" lon="4.71711">
        <ele>197</ele>
        <time>2018-04-11T10:45:19Z</time>
      </trkpt>
      <trkpt lat="45.97608" lon="4.71713">
        <ele>197</ele>
        <time>2018-04-11T10:45:20Z</time>
      </trkpt>
      <trkpt lat="45.97604" lon="4.71715">
        <ele>197</ele>
        <time>2018-04-11T10:45:21Z</time>
      </trkpt>
      <trkpt lat="45.97599" lon="4.71718">
        <ele>197</ele>
        <time>2018-04-11T10:45:22Z</time>
      </trkpt>
      <trkpt lat="45.97595" lon="4.7172">
        <ele>197</ele>
        <time>2018-04-11T10:45:23Z</time>
      </trkpt>
      <trkpt lat="45.97589" lon="4.71722">
        <ele>197</ele>
        <time>2018-04-11T10:45:24Z</time>
      </trkpt>
      <trkpt lat="45.97584" lon="4.71722">
        <ele>197</ele>
        <time>2018-04-11T10:45:25Z</time>
      </trkpt>
      <trkpt lat="45.97578" lon="4.71721">
        <ele>198</ele>
        <time>2018-04-11T10:45:26Z</time>
      </trkpt>
      <trkpt lat="45.97572" lon="4.71719">
        <ele>198</ele>
        <time>2018-04-11T10:45:27Z</time>
      </trkpt>
      <trkpt lat="45.97566" lon="4.71719">
        <ele>198</ele>
        <time>2018-04-11T10:45:28Z</time>
      </trkpt>
      <trkpt lat="45.97561" lon="4.71718">
        <ele>198</ele>
        <time>2018-04-11T10:45:29Z</time>
      </trkpt>
      <trkpt lat="45.97556" lon="4.71717">
        <ele>198</ele>
        <time>2018-04-11T10:45:30Z</time>
      </trkpt>
      <trkpt lat="45.97551" lon="4.71716">
        <ele>198</ele>
        <time>2018-04-11T10:45:31Z</time>
      </trkpt>
      <trkpt lat="45.97545" lon="4.71717">
        <ele>198</ele>
        <time>2018-04-11T10:45:32Z</time>
      </trkpt>
      <trkpt lat="45.9754" lon="4.71716">
        <ele>198</ele>
        <time>2018-04-11T10:45:33Z</time>
      </trkpt>
      <trkpt lat="45.97535" lon="4.71715">
        <ele>198</ele>
        <time>2018-04-11T10:45:34Z</time>
      </trkpt>
      <trkpt lat="45.9753" lon="4.71715">
        <ele>198</ele>
        <time>2018-04-11T10:45:35Z</time>
      </trkpt>
      <trkpt lat="45.97525" lon="4.71714">
        <ele>198</ele>
        <time>2018-04-11T10:45:36Z</time>
      </trkpt>
      <trkpt lat="45.9752" lon="4.71714">
        <ele>198</ele>
        <time>2018-04-11T10:45:37Z</time>
      </trkpt>
      <trkpt lat="45.97514" lon="4.71714">
        <ele>199</ele>
        <time>2018-04-11T10:45:38Z</time>
      </trkpt>
      <trkpt lat="45.97509" lon="4.71714">
        <ele>199</ele>
        <time>2018-04-11T10:45:39Z</time>
      </trkpt>
      <trkpt lat="45.97504" lon="4.71714">
        <ele>199</ele>
        <time>2018-04-11T10:45:40Z</time>
      </trkpt>
      <trkpt lat="45.97499" lon="4.71713">
        <ele>198</ele>
        <time>2018-04-11T10:45:41Z</time>
      </trkpt>
      <trkpt lat="45.97494" lon="4.71712">
        <ele>198</ele>
        <time>2018-04-11T10:45:42Z</time>
      </trkpt>
      <trkpt lat="45.97488" lon="4.71712">
        <ele>198</ele>
        <time>2018-04-11T10:45:43Z</time>
      </trkpt>
      <trkpt lat="45.97483" lon="4.71711">
        <ele>198</ele>
        <time>2018-04-11T10:45:44Z</time>
      </trkpt>
      <trkpt lat="45.97477" lon="4.7171">
        <ele>198</ele>
        <time>2018-04-11T10:45:45Z</time>
      </trkpt>
      <trkpt lat="45.97471" lon="4.7171">
        <ele>198</ele>
        <time>2018-04-11T10:45:46Z</time>
      </trkpt>
      <trkpt lat="45.97465" lon="4.7171">
        <ele>197</ele>
        <time>2018-04-11T10:45:47Z</time>
      </trkpt>
      <trkpt lat="45.97459" lon="4.7171">
        <ele>197</ele>
        <time>2018-04-11T10:45:48Z</time>
      </trkpt>
      <trkpt lat="45.97452" lon="4.71709">
        <ele>197</ele>
        <time>2018-04-11T10:45:49Z</time>
      </trkpt>
      <trkpt lat="45.97447" lon="4.71709">
        <ele>197</ele>
        <time>2018-04-11T10:45:50Z</time>
      </trkpt>
      <trkpt lat="45.97441" lon="4.71709">
        <ele>197</ele>
        <time>2018-04-11T10:45:51Z</time>
      </trkpt>
      <trkpt lat="45.97435" lon="4.71708">
        <ele>197</ele>
        <time>2018-04-11T10:45:52Z</time>
      </trkpt>
      <trkpt lat="45.97429" lon="4.71709">
        <ele>197</ele>
        <time>2018-04-11T10:45:53Z</time>
      </trkpt>
      <trkpt lat="45.97423" lon="4.71708">
        <ele>196</ele>
        <time>2018-04-11T10:45:54Z</time>
      </trkpt>
      <trkpt lat="45.97417" lon="4.71707">
        <ele>196</ele>
        <time>2018-04-11T10:45:55Z</time>
      </trkpt>
      <trkpt lat="45.97411" lon="4.71708">
        <ele>195</ele>
        <time>2018-04-11T10:45:56Z</time>
      </trkpt>
      <trkpt lat="45.97405" lon="4.71707">
        <ele>195</ele>
        <time>2018-04-11T10:45:57Z</time>
      </trkpt>
      <trkpt lat="45.974" lon="4.71707">
        <ele>195</ele>
        <time>2018-04-11T10:45:58Z</time>
      </trkpt>
      <trkpt lat="45.97395" lon="4.71707">
        <ele>195</ele>
        <time>2018-04-11T10:45:59Z</time>
      </trkpt>
      <trkpt lat="45.97389" lon="4.71706">
        <ele>195</ele>
        <time>2018-04-11T10:46:00Z</time>
      </trkpt>
      <trkpt lat="45.97384" lon="4.71705">
        <ele>195</ele>
        <time>2018-04-11T10:46:01Z</time>
      </trkpt>
      <trkpt lat="45.97378" lon="4.71706">
        <ele>195</ele>
        <time>2018-04-11T10:46:02Z</time>
      </trkpt>
      <trkpt lat="45.97373" lon="4.71706">
        <ele>195</ele>
        <time>2018-04-11T10:46:03Z</time>
      </trkpt>
      <trkpt lat="45.97367" lon="4.71705">
        <ele>195</ele>
        <time>2018-04-11T10:46:04Z</time>
      </trkpt>
      <trkpt lat="45.9736" lon="4.71705">
        <ele>195</ele>
        <time>2018-04-11T10:46:05Z</time>
      </trkpt>
      <trkpt lat="45.97354" lon="4.71705">
        <ele>195</ele>
        <time>2018-04-11T10:46:06Z</time>
      </trkpt>
      <trkpt lat="45.97349" lon="4.71704">
        <ele>195</ele>
        <time>2018-04-11T10:46:07Z</time>
      </trkpt>
      <trkpt lat="45.97343" lon="4.71704">
        <ele>195</ele>
        <time>2018-04-11T10:46:08Z</time>
      </trkpt>
      <trkpt lat="45.97337" lon="4.71703">
        <ele>195</ele>
        <time>2018-04-11T10:46:09Z</time>
      </trkpt>
      <trkpt lat="45.97331" lon="4.71702">
        <ele>196</ele>
        <time>2018-04-11T10:46:10Z</time>
      </trkpt>
      <trkpt lat="45.97326" lon="4.71701">
        <ele>196</ele>
        <time>2018-04-11T10:46:11Z</time>
      </trkpt>
      <trkpt lat="45.9732" lon="4.71697">
        <ele>196</ele>
        <time>2018-04-11T10:46:12Z</time>
      </trkpt>
      <trkpt lat="45.97315" lon="4.71693">
        <ele>196</ele>
        <time>2018-04-11T10:46:13Z</time>
      </trkpt>
      <trkpt lat="45.97309" lon="4.7169">
        <ele>196</ele>
        <time>2018-04-11T10:46:14Z</time>
      </trkpt>
      <trkpt lat="45.97303" lon="4.7169">
        <ele>197</ele>
        <time>2018-04-11T10:46:15Z</time>
      </trkpt>
      <trkpt lat="45.97296" lon="4.71692">
        <ele>197</ele>
        <time>2018-04-11T10:46:16Z</time>
      </trkpt>
      <trkpt lat="45.97291" lon="4.71695">
        <ele>197</ele>
        <time>2018-04-11T10:46:17Z</time>
      </trkpt>
      <trkpt lat="45.97284" lon="4.71699">
        <ele>197</ele>
        <time>2018-04-11T10:46:18Z</time>
      </trkpt>
      <trkpt lat="45.97278" lon="4.71701">
        <ele>197</ele>
        <time>2018-04-11T10:46:19Z</time>
      </trkpt>
      <trkpt lat="45.97272" lon="4.717">
        <ele>197</ele>
        <time>2018-04-11T10:46:20Z</time>
      </trkpt>
      <trkpt lat="45.97266" lon="4.71698">
        <ele>197</ele>
        <time>2018-04-11T10:46:21Z</time>
      </trkpt>
      <trkpt lat="45.9726" lon="4.71697">
        <ele>197</ele>
        <time>2018-04-11T10:46:22Z</time>
      </trkpt>
      <trkpt lat="45.97254" lon="4.71696">
        <ele>197</ele>
        <time>2018-04-11T10:46:23Z</time>
      </trkpt>
      <trkpt lat="45.97247" lon="4.71694">
        <ele>197</ele>
        <time>2018-04-11T10:46:24Z</time>
      </trkpt>
      <trkpt lat="45.9724" lon="4.71693">
        <ele>197</ele>
        <time>2018-04-11T10:46:25Z</time>
      </trkpt>
      <trkpt lat="45.97233" lon="4.71692">
        <ele>197</ele>
        <time>2018-04-11T10:46:26Z</time>
      </trkpt>
      <trkpt lat="45.97226" lon="4.71692">
        <ele>197</ele>
        <time>2018-04-11T10:46:27Z</time>
      </trkpt>
      <trkpt lat="45.97221" lon="4.71691">
        <ele>197</ele>
        <time>2018-04-11T10:46:28Z</time>
      </trkpt>
      <trkpt lat="45.97214" lon="4.71691">
        <ele>197</ele>
        <time>2018-04-11T10:46:29Z</time>
      </trkpt>
      <trkpt lat="45.97207" lon="4.7169">
        <ele>197</ele>
        <time>2018-04-11T10:46:30Z</time>
      </trkpt>
      <trkpt lat="45.97201" lon="4.7169">
        <ele>197</ele>
        <time>2018-04-11T10:46:31Z</time>
      </trkpt>
      <trkpt lat="45.97195" lon="4.7169">
        <ele>197</ele>
        <time>2018-04-11T10:46:32Z</time>
      </trkpt>
      <trkpt lat="45.97189" lon="4.71691">
        <ele>197</ele>
        <time>2018-04-11T10:46:33Z</time>
      </trkpt>
      <trkpt lat="45.97181" lon="4.7169">
        <ele>197</ele>
        <time>2018-04-11T10:46:34Z</time>
      </trkpt>
      <trkpt lat="45.97173" lon="4.71689">
        <ele>197</ele>
        <time>2018-04-11T10:46:35Z</time>
      </trkpt>
      <trkpt lat="45.97166" lon="4.71688">
        <ele>196</ele>
        <time>2018-04-11T10:46:36Z</time>
      </trkpt>
      <trkpt lat="45.97159" lon="4.71688">
        <ele>196</ele>
        <time>2018-04-11T10:46:37Z</time>
      </trkpt>
      <trkpt lat="45.97152" lon="4.71687">
        <ele>195</ele>
        <time>2018-04-11T10:46:38Z</time>
      </trkpt>
      <trkpt lat="45.97145" lon="4.71687">
        <ele>195</ele>
        <time>2018-04-11T10:46:39Z</time>
      </trkpt>
      <trkpt lat="45.97139" lon="4.71686">
        <ele>195</ele>
        <time>2018-04-11T10:46:40Z</time>
      </trkpt>
      <trkpt lat="45.97132" lon="4.71685">
        <ele>195</ele>
        <time>2018-04-11T10:46:41Z</time>
      </trkpt>
      <trkpt lat="45.97125" lon="4.71685">
        <ele>195</ele>
        <time>2018-04-11T10:46:42Z</time>
      </trkpt>
      <trkpt lat="45.97119" lon="4.71685">
        <ele>195</ele>
        <time>2018-04-11T10:46:43Z</time>
      </trkpt>
      <trkpt lat="45.97113" lon="4.71684">
        <ele>194</ele>
        <time>2018-04-11T10:46:44Z</time>
      </trkpt>
      <trkpt lat="45.97106" lon="4.71684">
        <ele>194</ele>
        <time>2018-04-11T10:46:45Z</time>
      </trkpt>
      <trkpt lat="45.971" lon="4.71683">
        <ele>194</ele>
        <time>2018-04-11T10:46:46Z</time>
      </trkpt>
      <trkpt lat="45.97094" lon="4.71684">
        <ele>194</ele>
        <time>2018-04-11T10:46:47Z</time>
      </trkpt>
      <trkpt lat="45.97087" lon="4.71683">
        <ele>194</ele>
        <time>2018-04-11T10:46:48Z</time>
      </trkpt>
      <trkpt lat="45.97081" lon="4.71681">
        <ele>194</ele>
        <time>2018-04-11T10:46:49Z</time>
      </trkpt>
      <trkpt lat="45.97075" lon="4.71681">
        <ele>194</ele>
        <time>2018-04-11T10:46:50Z</time>
      </trkpt>
      <trkpt lat="45.97068" lon="4.71679">
        <ele>193</ele>
        <time>2018-04-11T10:46:51Z</time>
      </trkpt>
      <trkpt lat="45.97061" lon="4.71677">
        <ele>193</ele>
        <time>2018-04-11T10:46:52Z</time>
      </trkpt>
      <trkpt lat="45.97055" lon="4.71677">
        <ele>193</ele>
        <time>2018-04-11T10:46:53Z</time>
      </trkpt>
      <trkpt lat="45.97048" lon="4.71675">
        <ele>193</ele>
        <time>2018-04-11T10:46:54Z</time>
      </trkpt>
      <trkpt lat="45.97041" lon="4.71675">
        <ele>193</ele>
        <time>2018-04-11T10:46:55Z</time>
      </trkpt>
      <trkpt lat="45.97034" lon="4.71674">
        <ele>193</ele>
        <time>2018-04-11T10:46:56Z</time>
      </trkpt>
      <trkpt lat="45.97027" lon="4.71673">
        <ele>193</ele>
        <time>2018-04-11T10:46:57Z</time>
      </trkpt>
      <trkpt lat="45.9702" lon="4.71672">
        <ele>193</ele>
        <time>2018-04-11T10:46:58Z</time>
      </trkpt>
      <trkpt lat="45.97012" lon="4.71673">
        <ele>193</ele>
        <time>2018-04-11T10:46:59Z</time>
      </trkpt>
      <trkpt lat="45.97004" lon="4.71673">
        <ele>193</ele>
        <time>2018-04-11T10:47:00Z</time>
      </trkpt>
      <trkpt lat="45.96996" lon="4.71673">
        <ele>193</ele>
        <time>2018-04-11T10:47:01Z</time>
      </trkpt>
      <trkpt lat="45.96988" lon="4.71673">
        <ele>193</ele>
        <time>2018-04-11T10:47:02Z</time>
      </trkpt>
      <trkpt lat="45.96981" lon="4.71673">
        <ele>192</ele>
        <time>2018-04-11T10:47:03Z</time>
      </trkpt>
      <trkpt lat="45.96974" lon="4.71673">
        <ele>192</ele>
        <time>2018-04-11T10:47:04Z</time>
      </trkpt>
      <trkpt lat="45.96967" lon="4.71673">
        <ele>192</ele>
        <time>2018-04-11T10:47:05Z</time>
      </trkpt>
      <trkpt lat="45.9696" lon="4.71672">
        <ele>192</ele>
        <time>2018-04-11T10:47:06Z</time>
      </trkpt>
      <trkpt lat="45.96952" lon="4.71671">
        <ele>192</ele>
        <time>2018-04-11T10:47:07Z</time>
      </trkpt>
      <trkpt lat="45.96945" lon="4.7167">
        <ele>192</ele>
        <time>2018-04-11T10:47:08Z</time>
      </trkpt>
      <trkpt lat="45.96938" lon="4.71669">
        <ele>193</ele>
        <time>2018-04-11T10:47:09Z</time>
      </trkpt>
      <trkpt lat="45.96931" lon="4.71669">
        <ele>193</ele>
        <time>2018-04-11T10:47:10Z</time>
      </trkpt>
      <trkpt lat="45.96923" lon="4.71669">
        <ele>194</ele>
        <time>2018-04-11T10:47:11Z</time>
      </trkpt>
      <trkpt lat="45.96916" lon="4.71669">
        <ele>194</ele>
        <time>2018-04-11T10:47:12Z</time>
      </trkpt>
      <trkpt lat="45.96909" lon="4.71668">
        <ele>193</ele>
        <time>2018-04-11T10:47:13Z</time>
      </trkpt>
      <trkpt lat="45.96903" lon="4.71668">
        <ele>192</ele>
        <time>2018-04-11T10:47:14Z</time>
      </trkpt>
      <trkpt lat="45.96895" lon="4.71667">
        <ele>192</ele>
        <time>2018-04-11T10:47:15Z</time>
      </trkpt>
      <trkpt lat="45.96889" lon="4.71666">
        <ele>195</ele>
        <time>2018-04-11T10:47:16Z</time>
      </trkpt>
      <trkpt lat="45.96882" lon="4.71665">
        <ele>195</ele>
        <time>2018-04-11T10:47:17Z</time>
      </trkpt>
      <trkpt lat="45.96875" lon="4.71664">
        <ele>195</ele>
        <time>2018-04-11T10:47:18Z</time>
      </trkpt>
      <trkpt lat="45.96868" lon="4.71663">
        <ele>195</ele>
        <time>2018-04-11T10:47:19Z</time>
      </trkpt>
      <trkpt lat="45.96861" lon="4.71661">
        <ele>195</ele>
        <time>2018-04-11T10:47:20Z</time>
      </trkpt>
      <trkpt lat="45.96855" lon="4.71661">
        <ele>194</ele>
        <time>2018-04-11T10:47:21Z</time>
      </trkpt>
      <trkpt lat="45.96848" lon="4.7166">
        <ele>194</ele>
        <time>2018-04-11T10:47:22Z</time>
      </trkpt>
      <trkpt lat="45.96841" lon="4.71659">
        <ele>193</ele>
        <time>2018-04-11T10:47:23Z</time>
      </trkpt>
      <trkpt lat="45.96833" lon="4.71659">
        <ele>192</ele>
        <time>2018-04-11T10:47:24Z</time>
      </trkpt>
      <trkpt lat="45.96825" lon="4.71658">
        <ele>192</ele>
        <time>2018-04-11T10:47:25Z</time>
      </trkpt>
      <trkpt lat="45.96817" lon="4.71657">
        <ele>193</ele>
        <time>2018-04-11T10:47:26Z</time>
      </trkpt>
      <trkpt lat="45.96809" lon="4.71656">
        <ele>193</ele>
        <time>2018-04-11T10:47:27Z</time>
      </trkpt>
      <trkpt lat="45.96801" lon="4.71655">
        <ele>193</ele>
        <time>2018-04-11T10:47:28Z</time>
      </trkpt>
      <trkpt lat="45.96794" lon="4.71654">
        <ele>192</ele>
        <time>2018-04-11T10:47:29Z</time>
      </trkpt>
      <trkpt lat="45.96787" lon="4.71652">
        <ele>192</ele>
        <time>2018-04-11T10:47:30Z</time>
      </trkpt>
      <trkpt lat="45.96781" lon="4.71652">
        <ele>192</ele>
        <time>2018-04-11T10:47:31Z</time>
      </trkpt>
      <trkpt lat="45.96773" lon="4.7165">
        <ele>192</ele>
        <time>2018-04-11T10:47:32Z</time>
      </trkpt>
      <trkpt lat="45.96765" lon="4.71648">
        <ele>192</ele>
        <time>2018-04-11T10:47:33Z</time>
      </trkpt>
      <trkpt lat="45.96757" lon="4.71646">
        <ele>191</ele>
        <time>2018-04-11T10:47:34Z</time>
      </trkpt>
      <trkpt lat="45.96749" lon="4.71644">
        <ele>190</ele>
        <time>2018-04-11T10:47:35Z</time>
      </trkpt>
      <trkpt lat="45.96741" lon="4.71643">
        <ele>190</ele>
        <time>2018-04-11T10:47:36Z</time>
      </trkpt>
      <trkpt lat="45.96734" lon="4.71643">
        <ele>190</ele>
        <time>2018-04-11T10:47:37Z</time>
      </trkpt>
      <trkpt lat="45.96726" lon="4.71643">
        <ele>190</ele>
        <time>2018-04-11T10:47:38Z</time>
      </trkpt>
      <trkpt lat="45.96718" lon="4.71642">
        <ele>190</ele>
        <time>2018-04-11T10:47:39Z</time>
      </trkpt>
      <trkpt lat="45.96712" lon="4.71641">
        <ele>190</ele>
        <time>2018-04-11T10:47:40Z</time>
      </trkpt>
      <trkpt lat="45.96704" lon="4.7164">
        <ele>190</ele>
        <time>2018-04-11T10:47:41Z</time>
      </trkpt>
      <trkpt lat="45.96696" lon="4.71639">
        <ele>190</ele>
        <time>2018-04-11T10:47:42Z</time>
      </trkpt>
      <trkpt lat="45.96689" lon="4.71638">
        <ele>190</ele>
        <time>2018-04-11T10:47:43Z</time>
      </trkpt>
      <trkpt lat="45.96682" lon="4.71637">
        <ele>190</ele>
        <time>2018-04-11T10:47:44Z</time>
      </trkpt>
      <trkpt lat="45.96675" lon="4.71637">
        <ele>190</ele>
        <time>2018-04-11T10:47:45Z</time>
      </trkpt>
      <trkpt lat="45.96667" lon="4.71636">
        <ele>190</ele>
        <time>2018-04-11T10:47:46Z</time>
      </trkpt>
      <trkpt lat="45.9666" lon="4.71634">
        <ele>188</ele>
        <time>2018-04-11T10:47:47Z</time>
      </trkpt>
      <trkpt lat="45.96652" lon="4.71633">
        <ele>188</ele>
        <time>2018-04-11T10:47:48Z</time>
      </trkpt>
      <trkpt lat="45.96645" lon="4.71631">
        <ele>188</ele>
        <time>2018-04-11T10:47:49Z</time>
      </trkpt>
      <trkpt lat="45.96637" lon="4.71629">
        <ele>188</ele>
        <time>2018-04-11T10:47:50Z</time>
      </trkpt>
      <trkpt lat="45.9663" lon="4.71628">
        <ele>188</ele>
        <time>2018-04-11T10:47:51Z</time>
      </trkpt>
      <trkpt lat="45.96622" lon="4.71627">
        <ele>188</ele>
        <time>2018-04-11T10:47:52Z</time>
      </trkpt>
      <trkpt lat="45.96616" lon="4.71626">
        <ele>188</ele>
        <time>2018-04-11T10:47:53Z</time>
      </trkpt>
      <trkpt lat="45.96609" lon="4.71625">
        <ele>187</ele>
        <time>2018-04-11T10:47:54Z</time>
      </trkpt>
      <trkpt lat="45.96601" lon="4.71625">
        <ele>187</ele>
        <time>2018-04-11T10:47:55Z</time>
      </trkpt>
      <trkpt lat="45.96594" lon="4.71624">
        <ele>187</ele>
        <time>2018-04-11T10:47:56Z</time>
      </trkpt>
      <trkpt lat="45.96587" lon="4.71622">
        <ele>187</ele>
        <time>2018-04-11T10:47:57Z</time>
      </trkpt>
      <trkpt lat="45.96579" lon="4.7162">
        <ele>185</ele>
        <time>2018-04-11T10:47:58Z</time>
      </trkpt>
      <trkpt lat="45.96572" lon="4.71619">
        <ele>185</ele>
        <time>2018-04-11T10:47:59Z</time>
      </trkpt>
      <trkpt lat="45.96564" lon="4.71618">
        <ele>185</ele>
        <time>2018-04-11T10:48:00Z</time>
      </trkpt>
      <trkpt lat="45.96557" lon="4.71617">
        <ele>185</ele>
        <time>2018-04-11T10:48:01Z</time>
      </trkpt>
      <trkpt lat="45.9655" lon="4.71614">
        <ele>185</ele>
        <time>2018-04-11T10:48:02Z</time>
      </trkpt>
      <trkpt lat="45.96544" lon="4.71611">
        <ele>185</ele>
        <time>2018-04-11T10:48:03Z</time>
      </trkpt>
      <trkpt lat="45.96537" lon="4.71606">
        <ele>185</ele>
        <time>2018-04-11T10:48:04Z</time>
      </trkpt>
      <trkpt lat="45.96531" lon="4.71603">
        <ele>185</ele>
        <time>2018-04-11T10:48:05Z</time>
      </trkpt>
      <trkpt lat="45.96524" lon="4.71603">
        <ele>185</ele>
        <time>2018-04-11T10:48:06Z</time>
      </trkpt>
      <trkpt lat="45.96517" lon="4.71606">
        <ele>184</ele>
        <time>2018-04-11T10:48:07Z</time>
      </trkpt>
      <trkpt lat="45.9651" lon="4.71607">
        <ele>184</ele>
        <time>2018-04-11T10:48:08Z</time>
      </trkpt>
      <trkpt lat="45.96503" lon="4.71609">
        <ele>184</ele>
        <time>2018-04-11T10:48:09Z</time>
      </trkpt>
      <trkpt lat="45.96496" lon="4.71608">
        <ele>183</ele>
        <time>2018-04-11T10:48:10Z</time>
      </trkpt>
      <trkpt lat="45.96489" lon="4.71607">
        <ele>183</ele>
        <time>2018-04-11T10:48:11Z</time>
      </trkpt>
      <trkpt lat="45.96483" lon="4.71605">
        <ele>183</ele>
        <time>2018-04-11T10:48:12Z</time>
      </trkpt>
      <trkpt lat="45.96476" lon="4.71604">
        <ele>183</ele>
        <time>2018-04-11T10:48:13Z</time>
      </trkpt>
      <trkpt lat="45.96469" lon="4.71603">
        <ele>183</ele>
        <time>2018-04-11T10:48:14Z</time>
      </trkpt>
      <trkpt lat="45.96462" lon="4.71602">
        <ele>183</ele>
        <time>2018-04-11T10:48:15Z</time>
      </trkpt>
      <trkpt lat="45.96456" lon="4.716">
        <ele>183</ele>
        <time>2018-04-11T10:48:16Z</time>
      </trkpt>
      <trkpt lat="45.96449" lon="4.71598">
        <ele>183</ele>
        <time>2018-04-11T10:48:17Z</time>
      </trkpt>
      <trkpt lat="45.96443" lon="4.71597">
        <ele>183</ele>
        <time>2018-04-11T10:48:18Z</time>
      </trkpt>
      <trkpt lat="45.96437" lon="4.71596">
        <ele>184</ele>
        <time>2018-04-11T10:48:19Z</time>
      </trkpt>
      <trkpt lat="45.9643" lon="4.71595">
        <ele>184</ele>
        <time>2018-04-11T10:48:20Z</time>
      </trkpt>
      <trkpt lat="45.96425" lon="4.71593">
        <ele>184</ele>
        <time>2018-04-11T10:48:21Z</time>
      </trkpt>
      <trkpt lat="45.96418" lon="4.71592">
        <ele>184</ele>
        <time>2018-04-11T10:48:22Z</time>
      </trkpt>
      <trkpt lat="45.96411" lon="4.71591">
        <ele>184</ele>
        <time>2018-04-11T10:48:23Z</time>
      </trkpt>
      <trkpt lat="45.96404" lon="4.71589">
        <ele>184</ele>
        <time>2018-04-11T10:48:24Z</time>
      </trkpt>
      <trkpt lat="45.96398" lon="4.71589">
        <ele>183</ele>
        <time>2018-04-11T10:48:25Z</time>
      </trkpt>
      <trkpt lat="45.96392" lon="4.71588">
        <ele>183</ele>
        <time>2018-04-11T10:48:26Z</time>
      </trkpt>
      <trkpt lat="45.96385" lon="4.71587">
        <ele>183</ele>
        <time>2018-04-11T10:48:27Z</time>
      </trkpt>
      <trkpt lat="45.96379" lon="4.71586">
        <ele>182</ele>
        <time>2018-04-11T10:48:28Z</time>
      </trkpt>
      <trkpt lat="45.96372" lon="4.71585">
        <ele>182</ele>
        <time>2018-04-11T10:48:29Z</time>
      </trkpt>
      <trkpt lat="45.96365" lon="4.71583">
        <ele>182</ele>
        <time>2018-04-11T10:48:30Z</time>
      </trkpt>
      <trkpt lat="45.96358" lon="4.71583">
        <ele>185</ele>
        <time>2018-04-11T10:48:31Z</time>
      </trkpt>
      <trkpt lat="45.96351" lon="4.71581">
        <ele>185</ele>
        <time>2018-04-11T10:48:32Z</time>
      </trkpt>
      <trkpt lat="45.96345" lon="4.7158">
        <ele>184</ele>
        <time>2018-04-11T10:48:33Z</time>
      </trkpt>
      <trkpt lat="45.96338" lon="4.71579">
        <ele>184</ele>
        <time>2018-04-11T10:48:34Z</time>
      </trkpt>
      <trkpt lat="45.9633" lon="4.71579">
        <ele>183</ele>
        <time>2018-04-11T10:48:35Z</time>
      </trkpt>
      <trkpt lat="45.96322" lon="4.71577">
        <ele>184</ele>
        <time>2018-04-11T10:48:36Z</time>
      </trkpt>
      <trkpt lat="45.96315" lon="4.71576">
        <ele>184</ele>
        <time>2018-04-11T10:48:37Z</time>
      </trkpt>
      <trkpt lat="45.96308" lon="4.71575">
        <ele>184</ele>
        <time>2018-04-11T10:48:38Z</time>
      </trkpt>
      <trkpt lat="45.963" lon="4.71575">
        <ele>184</ele>
        <time>2018-04-11T10:48:39Z</time>
      </trkpt>
      <trkpt lat="45.96293" lon="4.71574">
        <ele>184</ele>
        <time>2018-04-11T10:48:40Z</time>
      </trkpt>
      <trkpt lat="45.96286" lon="4.71572">
        <ele>184</ele>
        <time>2018-04-11T10:48:41Z</time>
      </trkpt>
      <trkpt lat="45.96279" lon="4.71571">
        <ele>184</ele>
        <time>2018-04-11T10:48:42Z</time>
      </trkpt>
      <trkpt lat="45.96272" lon="4.7157">
        <ele>184</ele>
        <time>2018-04-11T10:48:43Z</time>
      </trkpt>
      <trkpt lat="45.96266" lon="4.71569">
        <ele>183</ele>
        <time>2018-04-11T10:48:44Z</time>
      </trkpt>
      <trkpt lat="45.96259" lon="4.71568">
        <ele>183</ele>
        <time>2018-04-11T10:48:45Z</time>
      </trkpt>
      <trkpt lat="45.96253" lon="4.71567">
        <ele>183</ele>
        <time>2018-04-11T10:48:46Z</time>
      </trkpt>
      <trkpt lat="45.96247" lon="4.71566">
        <ele>183</ele>
        <time>2018-04-11T10:48:47Z</time>
      </trkpt>
      <trkpt lat="45.9624" lon="4.71565">
        <ele>183</ele>
        <time>2018-04-11T10:48:48Z</time>
      </trkpt>
      <trkpt lat="45.96233" lon="4.71564">
        <ele>183</ele>
        <time>2018-04-11T10:48:49Z</time>
      </trkpt>
      <trkpt lat="45.96227" lon="4.71564">
        <ele>183</ele>
        <time>2018-04-11T10:48:50Z</time>
      </trkpt>
      <trkpt lat="45.96221" lon="4.71563">
        <ele>183</ele>
        <time>2018-04-11T10:48:51Z</time>
      </trkpt>
      <trkpt lat="45.96216" lon="4.71562">
        <ele>183</ele>
        <time>2018-04-11T10:48:52Z</time>
      </trkpt>
      <trkpt lat="45.9621" lon="4.71561">
        <ele>183</ele>
        <time>2018-04-11T10:48:53Z</time>
      </trkpt>
      <trkpt lat="45.96205" lon="4.7156">
        <ele>183</ele>
        <time>2018-04-11T10:48:54Z</time>
      </trkpt>
      <trkpt lat="45.962" lon="4.71559">
        <ele>183</ele>
        <time>2018-04-11T10:48:55Z</time>
      </trkpt>
      <trkpt lat="45.96195" lon="4.71558">
        <ele>183</ele>
        <time>2018-04-11T10:48:56Z</time>
      </trkpt>
      <trkpt lat="45.96189" lon="4.71557">
        <ele>183</ele>
        <time>2018-04-11T10:48:57Z</time>
      </trkpt>
      <trkpt lat="45.96184" lon="4.71557">
        <ele>183</ele>
        <time>2018-04-11T10:48:58Z</time>
      </trkpt>
      <trkpt lat="45.96179" lon="4.71555">
        <ele>183</ele>
        <time>2018-04-11T10:48:59Z</time>
      </trkpt>
      <trkpt lat="45.96174" lon="4.71553">
        <ele>183</ele>
        <time>2018-04-11T10:49:00Z</time>
      </trkpt>
      <trkpt lat="45.96168" lon="4.71552">
        <ele>183</ele>
        <time>2018-04-11T10:49:01Z</time>
      </trkpt>
      <trkpt lat="45.96163" lon="4.71552">
        <ele>184</ele>
        <time>2018-04-11T10:49:02Z</time>
      </trkpt>
      <trkpt lat="45.96158" lon="4.71551">
        <ele>184</ele>
        <time>2018-04-11T10:49:03Z</time>
      </trkpt>
      <trkpt lat="45.96153" lon="4.7155">
        <ele>184</ele>
        <time>2018-04-11T10:49:04Z</time>
      </trkpt>
      <trkpt lat="45.96148" lon="4.71549">
        <ele>184</ele>
        <time>2018-04-11T10:49:05Z</time>
      </trkpt>
      <trkpt lat="45.96143" lon="4.71549">
        <ele>184</ele>
        <time>2018-04-11T10:49:06Z</time>
      </trkpt>
      <trkpt lat="45.96137" lon="4.71547">
        <ele>184</ele>
        <time>2018-04-11T10:49:07Z</time>
      </trkpt>
      <trkpt lat="45.96132" lon="4.71547">
        <ele>184</ele>
        <time>2018-04-11T10:49:08Z</time>
      </trkpt>
      <trkpt lat="45.96126" lon="4.71546">
        <ele>185</ele>
        <time>2018-04-11T10:49:09Z</time>
      </trkpt>
      <trkpt lat="45.9612" lon="4.71545">
        <ele>185</ele>
        <time>2018-04-11T10:49:10Z</time>
      </trkpt>
      <trkpt lat="45.96114" lon="4.71544">
        <ele>185</ele>
        <time>2018-04-11T10:49:11Z</time>
      </trkpt>
      <trkpt lat="45.96108" lon="4.71543">
        <ele>185</ele>
        <time>2018-04-11T10:49:12Z</time>
      </trkpt>
      <trkpt lat="45.96101" lon="4.71542">
        <ele>185</ele>
        <time>2018-04-11T10:49:13Z</time>
      </trkpt>
      <trkpt lat="45.96095" lon="4.71542">
        <ele>185</ele>
        <time>2018-04-11T10:49:14Z</time>
      </trkpt>
      <trkpt lat="45.96089" lon="4.71541">
        <ele>185</ele>
        <time>2018-04-11T10:49:15Z</time>
      </trkpt>
      <trkpt lat="45.96083" lon="4.7154">
        <ele>185</ele>
        <time>2018-04-11T10:49:16Z</time>
      </trkpt>
      <trkpt lat="45.96077" lon="4.71539">
        <ele>185</ele>
        <time>2018-04-11T10:49:17Z</time>
      </trkpt>
      <trkpt lat="45.96072" lon="4.71538">
        <ele>186</ele>
        <time>2018-04-11T10:49:18Z</time>
      </trkpt>
      <trkpt lat="45.96067" lon="4.71536">
        <ele>186</ele>
        <time>2018-04-11T10:49:19Z</time>
      </trkpt>
      <trkpt lat="45.96061" lon="4.71535">
        <ele>186</ele>
        <time>2018-04-11T10:49:20Z</time>
      </trkpt>
      <trkpt lat="45.96055" lon="4.71534">
        <ele>186</ele>
        <time>2018-04-11T10:49:21Z</time>
      </trkpt>
      <trkpt lat="45.9605" lon="4.71533">
        <ele>186</ele>
        <time>2018-04-11T10:49:22Z</time>
      </trkpt>
      <trkpt lat="45.96045" lon="4.71532">
        <ele>186</ele>
        <time>2018-04-11T10:49:23Z</time>
      </trkpt>
      <trkpt lat="45.9604" lon="4.7153">
        <ele>186</ele>
        <time>2018-04-11T10:49:24Z</time>
      </trkpt>
      <trkpt lat="45.96034" lon="4.71529">
        <ele>186</ele>
        <time>2018-04-11T10:49:25Z</time>
      </trkpt>
      <trkpt lat="45.96029" lon="4.71528">
        <ele>186</ele>
        <time>2018-04-11T10:49:26Z</time>
      </trkpt>
      <trkpt lat="45.96024" lon="4.71527">
        <ele>186</ele>
        <time>2018-04-11T10:49:27Z</time>
      </trkpt>
      <trkpt lat="45.96019" lon="4.71526">
        <ele>186</ele>
        <time>2018-04-11T10:49:28Z</time>
      </trkpt>
      <trkpt lat="45.96014" lon="4.71524">
        <ele>186</ele>
        <time>2018-04-11T10:49:29Z</time>
      </trkpt>
      <trkpt lat="45.96009" lon="4.71522">
        <ele>186</ele>
        <time>2018-04-11T10:49:30Z</time>
      </trkpt>
      <trkpt lat="45.96004" lon="4.71521">
        <ele>186</ele>
        <time>2018-04-11T10:49:31Z</time>
      </trkpt>
      <trkpt lat="45.96" lon="4.71518">
        <ele>186</ele>
        <time>2018-04-11T10:49:32Z</time>
      </trkpt>
      <trkpt lat="45.95995" lon="4.71515">
        <ele>186</ele>
        <time>2018-04-11T10:49:33Z</time>
      </trkpt>
      <trkpt lat="45.9599" lon="4.71512">
        <ele>186</ele>
        <time>2018-04-11T10:49:34Z</time>
      </trkpt>
      <trkpt lat="45.95985" lon="4.7151">
        <ele>186</ele>
        <time>2018-04-11T10:49:35Z</time>
      </trkpt>
      <trkpt lat="45.95979" lon="4.7151">
        <ele>185</ele>
        <time>2018-04-11T10:49:36Z</time>
      </trkpt>
      <trkpt lat="45.95974" lon="4.71511">
        <ele>185</ele>
        <time>2018-04-11T10:49:37Z</time>
      </trkpt>
      <trkpt lat="45.95968" lon="4.71514">
        <ele>185</ele>
        <time>2018-04-11T10:49:38Z</time>
      </trkpt>
      <trkpt lat="45.95962" lon="4.71516">
        <ele>184</ele>
        <time>2018-04-11T10:49:39Z</time>
      </trkpt>
      <trkpt lat="45.95957" lon="4.71518">
        <ele>184</ele>
        <time>2018-04-11T10:49:40Z</time>
      </trkpt>
      <trkpt lat="45.9595" lon="4.71519">
        <ele>184</ele>
        <time>2018-04-11T10:49:41Z</time>
      </trkpt>
      <trkpt lat="45.95944" lon="4.71519">
        <ele>184</ele>
        <time>2018-04-11T10:49:42Z</time>
      </trkpt>
      <trkpt lat="45.95937" lon="4.7152">
        <ele>184</ele>
        <time>2018-04-11T10:49:43Z</time>
      </trkpt>
      <trkpt lat="45.95931" lon="4.7152">
        <ele>184</ele>
        <time>2018-04-11T10:49:44Z</time>
      </trkpt>
      <trkpt lat="45.95925" lon="4.71521">
        <ele>184</ele>
        <time>2018-04-11T10:49:45Z</time>
      </trkpt>
      <trkpt lat="45.95919" lon="4.71521">
        <ele>184</ele>
        <time>2018-04-11T10:49:46Z</time>
      </trkpt>
      <trkpt lat="45.95912" lon="4.71522">
        <ele>183</ele>
        <time>2018-04-11T10:49:47Z</time>
      </trkpt>
      <trkpt lat="45.95906" lon="4.71522">
        <ele>183</ele>
        <time>2018-04-11T10:49:48Z</time>
      </trkpt>
      <trkpt lat="45.95899" lon="4.71522">
        <ele>182</ele>
        <time>2018-04-11T10:49:49Z</time>
      </trkpt>
      <trkpt lat="45.95892" lon="4.71521">
        <ele>182</ele>
        <time>2018-04-11T10:49:50Z</time>
      </trkpt>
      <trkpt lat="45.95885" lon="4.71521">
        <ele>182</ele>
        <time>2018-04-11T10:49:51Z</time>
      </trkpt>
      <trkpt lat="45.95878" lon="4.71521">
        <ele>182</ele>
        <time>2018-04-11T10:49:52Z</time>
      </trkpt>
      <trkpt lat="45.9587" lon="4.71521">
        <ele>182</ele>
        <time>2018-04-11T10:49:53Z</time>
      </trkpt>
      <trkpt lat="45.95862" lon="4.7152">
        <ele>182</ele>
        <time>2018-04-11T10:49:54Z</time>
      </trkpt>
      <trkpt lat="45.95855" lon="4.7152">
        <ele>182</ele>
        <time>2018-04-11T10:49:55Z</time>
      </trkpt>
      <trkpt lat="45.95849" lon="4.7152">
        <ele>182</ele>
        <time>2018-04-11T10:49:56Z</time>
      </trkpt>
      <trkpt lat="45.95842" lon="4.7152">
        <ele>182</ele>
        <time>2018-04-11T10:49:57Z</time>
      </trkpt>
      <trkpt lat="45.95834" lon="4.71519">
        <ele>182</ele>
        <time>2018-04-11T10:49:58Z</time>
      </trkpt>
      <trkpt lat="45.95826" lon="4.71519">
        <ele>182</ele>
        <time>2018-04-11T10:49:59Z</time>
      </trkpt>
      <trkpt lat="45.9582" lon="4.71519">
        <ele>182</ele>
        <time>2018-04-11T10:50:00Z</time>
      </trkpt>
      <trkpt lat="45.95812" lon="4.71519">
        <ele>181</ele>
        <time>2018-04-11T10:50:01Z</time>
      </trkpt>
      <trkpt lat="45.95806" lon="4.71518">
        <ele>181</ele>
        <time>2018-04-11T10:50:02Z</time>
      </trkpt>
      <trkpt lat="45.95799" lon="4.71518">
        <ele>181</ele>
        <time>2018-04-11T10:50:03Z</time>
      </trkpt>
      <trkpt lat="45.95792" lon="4.71517">
        <ele>181</ele>
        <time>2018-04-11T10:50:04Z</time>
      </trkpt>
      <trkpt lat="45.95785" lon="4.71517">
        <ele>181</ele>
        <time>2018-04-11T10:50:05Z</time>
      </trkpt>
      <trkpt lat="45.95778" lon="4.71516">
        <ele>181</ele>
        <time>2018-04-11T10:50:06Z</time>
      </trkpt>
      <trkpt lat="45.95771" lon="4.71515">
        <ele>181</ele>
        <time>2018-04-11T10:50:07Z</time>
      </trkpt>
      <trkpt lat="45.95765" lon="4.71516">
        <ele>181</ele>
        <time>2018-04-11T10:50:08Z</time>
      </trkpt>
      <trkpt lat="45.95758" lon="4.71516">
        <ele>181</ele>
        <time>2018-04-11T10:50:09Z</time>
      </trkpt>
      <trkpt lat="45.95751" lon="4.71516">
        <ele>181</ele>
        <time>2018-04-11T10:50:10Z</time>
      </trkpt>
      <trkpt lat="45.95743" lon="4.71515">
        <ele>181</ele>
        <time>2018-04-11T10:50:11Z</time>
      </trkpt>
      <trkpt lat="45.95737" lon="4.71514">
        <ele>181</ele>
        <time>2018-04-11T10:50:12Z</time>
      </trkpt>
      <trkpt lat="45.95729" lon="4.71514">
        <ele>180</ele>
        <time>2018-04-11T10:50:13Z</time>
      </trkpt>
      <trkpt lat="45.95722" lon="4.71513">
        <ele>180</ele>
        <time>2018-04-11T10:50:14Z</time>
      </trkpt>
      <trkpt lat="45.95714" lon="4.71512">
        <ele>180</ele>
        <time>2018-04-11T10:50:15Z</time>
      </trkpt>
      <trkpt lat="45.95706" lon="4.71512">
        <ele>180</ele>
        <time>2018-04-11T10:50:16Z</time>
      </trkpt>
      <trkpt lat="45.95698" lon="4.7151">
        <ele>180</ele>
        <time>2018-04-11T10:50:17Z</time>
      </trkpt>
      <trkpt lat="45.95691" lon="4.71509">
        <ele>181</ele>
        <time>2018-04-11T10:50:18Z</time>
      </trkpt>
      <trkpt lat="45.95683" lon="4.71508">
        <ele>181</ele>
        <time>2018-04-11T10:50:19Z</time>
      </trkpt>
      <trkpt lat="45.95676" lon="4.71507">
        <ele>181</ele>
        <time>2018-04-11T10:50:20Z</time>
      </trkpt>
      <trkpt lat="45.95668" lon="4.71507">
        <ele>181</ele>
        <time>2018-04-11T10:50:21Z</time>
      </trkpt>
      <trkpt lat="45.9566" lon="4.71507">
        <ele>181</ele>
        <time>2018-04-11T10:50:22Z</time>
      </trkpt>
      <trkpt lat="45.95653" lon="4.71507">
        <ele>180</ele>
        <time>2018-04-11T10:50:23Z</time>
      </trkpt>
      <trkpt lat="45.95645" lon="4.71506">
        <ele>180</ele>
        <time>2018-04-11T10:50:24Z</time>
      </trkpt>
      <trkpt lat="45.95637" lon="4.71505">
        <ele>180</ele>
        <time>2018-04-11T10:50:25Z</time>
      </trkpt>
      <trkpt lat="45.9563" lon="4.71504">
        <ele>180</ele>
        <time>2018-04-11T10:50:26Z</time>
      </trkpt>
      <trkpt lat="45.95622" lon="4.71502">
        <ele>180</ele>
        <time>2018-04-11T10:50:27Z</time>
      </trkpt>
      <trkpt lat="45.95615" lon="4.71501">
        <ele>179</ele>
        <time>2018-04-11T10:50:28Z</time>
      </trkpt>
      <trkpt lat="45.95608" lon="4.715">
        <ele>179</ele>
        <time>2018-04-11T10:50:29Z</time>
      </trkpt>
      <trkpt lat="45.95601" lon="4.715">
        <ele>180</ele>
        <time>2018-04-11T10:50:30Z</time>
      </trkpt>
      <trkpt lat="45.95593" lon="4.715">
        <ele>181</ele>
        <time>2018-04-11T10:50:31Z</time>
      </trkpt>
      <trkpt lat="45.95586" lon="4.71499">
        <ele>180</ele>
        <time>2018-04-11T10:50:32Z</time>
      </trkpt>
      <trkpt lat="45.95579" lon="4.71499">
        <ele>180</ele>
        <time>2018-04-11T10:50:33Z</time>
      </trkpt>
      <trkpt lat="45.95572" lon="4.71498">
        <ele>180</ele>
        <time>2018-04-11T10:50:34Z</time>
      </trkpt>
      <trkpt lat="45.95564" lon="4.71497">
        <ele>179</ele>
        <time>2018-04-11T10:50:35Z</time>
      </trkpt>
      <trkpt lat="45.95557" lon="4.71497">
        <ele>179</ele>
        <time>2018-04-11T10:50:36Z</time>
      </trkpt>
      <trkpt lat="45.95549" lon="4.71497">
        <ele>179</ele>
        <time>2018-04-11T10:50:37Z</time>
      </trkpt>
      <trkpt lat="45.95542" lon="4.71497">
        <ele>179</ele>
        <time>2018-04-11T10:50:38Z</time>
      </trkpt>
      <trkpt lat="45.95534" lon="4.71496">
        <ele>179</ele>
        <time>2018-04-11T10:50:39Z</time>
      </trkpt>
      <trkpt lat="45.95527" lon="4.71496">
        <ele>178</ele>
        <time>2018-04-11T10:50:40Z</time>
      </trkpt>
      <trkpt lat="45.95518" lon="4.71495">
        <ele>178</ele>
        <time>2018-04-11T10:50:41Z</time>
      </trkpt>
      <trkpt lat="45.9551" lon="4.71495">
        <ele>178</ele>
        <time>2018-04-11T10:50:42Z</time>
      </trkpt>
      <trkpt lat="45.95502" lon="4.71494">
        <ele>177</ele>
        <time>2018-04-11T10:50:43Z</time>
      </trkpt>
      <trkpt lat="45.95494" lon="4.71493">
        <ele>177</ele>
        <time>2018-04-11T10:50:44Z</time>
      </trkpt>
      <trkpt lat="45.95485" lon="4.71493">
        <ele>177</ele>
        <time>2018-04-11T10:50:45Z</time>
      </trkpt>
      <trkpt lat="45.95477" lon="4.71493">
        <ele>176</ele>
        <time>2018-04-11T10:50:46Z</time>
      </trkpt>
      <trkpt lat="45.95468" lon="4.71492">
        <ele>176</ele>
        <time>2018-04-11T10:50:47Z</time>
      </trkpt>
      <trkpt lat="45.95461" lon="4.71492">
        <ele>176</ele>
        <time>2018-04-11T10:50:48Z</time>
      </trkpt>
      <trkpt lat="45.95452" lon="4.71492">
        <ele>176</ele>
        <time>2018-04-11T10:50:49Z</time>
      </trkpt>
      <trkpt lat="45.95444" lon="4.71492">
        <ele>176</ele>
        <time>2018-04-11T10:50:50Z</time>
      </trkpt>
      <trkpt lat="45.95436" lon="4.71492">
        <ele>175</ele>
        <time>2018-04-11T10:50:51Z</time>
      </trkpt>
      <trkpt lat="45.95428" lon="4.71492">
        <ele>175</ele>
        <time>2018-04-11T10:50:52Z</time>
      </trkpt>
      <trkpt lat="45.9542" lon="4.71492">
        <ele>175</ele>
        <time>2018-04-11T10:50:53Z</time>
      </trkpt>
      <trkpt lat="45.95412" lon="4.71492">
        <ele>174</ele>
        <time>2018-04-11T10:50:54Z</time>
      </trkpt>
      <trkpt lat="45.95403" lon="4.7149">
        <ele>175</ele>
        <time>2018-04-11T10:50:55Z</time>
      </trkpt>
      <trkpt lat="45.95396" lon="4.71488">
        <ele>175</ele>
        <time>2018-04-11T10:50:56Z</time>
      </trkpt>
      <trkpt lat="45.95388" lon="4.71487">
        <ele>175</ele>
        <time>2018-04-11T10:50:57Z</time>
      </trkpt>
      <trkpt lat="45.9538" lon="4.71487">
        <ele>175</ele>
        <time>2018-04-11T10:50:58Z</time>
      </trkpt>
      <trkpt lat="45.95372" lon="4.71488">
        <ele>175</ele>
        <time>2018-04-11T10:50:59Z</time>
      </trkpt>
      <trkpt lat="45.95365" lon="4.71487">
        <ele>175</ele>
        <time>2018-04-11T10:51:00Z</time>
      </trkpt>
      <trkpt lat="45.95358" lon="4.71487">
        <ele>175</ele>
        <time>2018-04-11T10:51:01Z</time>
      </trkpt>
      <trkpt lat="45.9535" lon="4.71487">
        <ele>175</ele>
        <time>2018-04-11T10:51:02Z</time>
      </trkpt>
      <trkpt lat="45.95343" lon="4.71486">
        <ele>175</ele>
        <time>2018-04-11T10:51:03Z</time>
      </trkpt>
      <trkpt lat="45.95336" lon="4.71486">
        <ele>175</ele>
        <time>2018-04-11T10:51:04Z</time>
      </trkpt>
      <trkpt lat="45.95328" lon="4.71485">
        <ele>175</ele>
        <time>2018-04-11T10:51:05Z</time>
      </trkpt>
      <trkpt lat="45.95321" lon="4.71485">
        <ele>175</ele>
        <time>2018-04-11T10:51:06Z</time>
      </trkpt>
      <trkpt lat="45.95313" lon="4.71485">
        <ele>175</ele>
        <time>2018-04-11T10:51:07Z</time>
      </trkpt>
      <trkpt lat="45.95306" lon="4.71485">
        <ele>175</ele>
        <time>2018-04-11T10:51:08Z</time>
      </trkpt>
      <trkpt lat="45.95299" lon="4.71484">
        <ele>176</ele>
        <time>2018-04-11T10:51:09Z</time>
      </trkpt>
      <trkpt lat="45.95292" lon="4.71484">
        <ele>176</ele>
        <time>2018-04-11T10:51:10Z</time>
      </trkpt>
      <trkpt lat="45.95285" lon="4.71483">
        <ele>176</ele>
        <time>2018-04-11T10:51:11Z</time>
      </trkpt>
      <trkpt lat="45.95278" lon="4.71483">
        <ele>176</ele>
        <time>2018-04-11T10:51:12Z</time>
      </trkpt>
      <trkpt lat="45.95272" lon="4.71482">
        <ele>176</ele>
        <time>2018-04-11T10:51:13Z</time>
      </trkpt>
      <trkpt lat="45.95265" lon="4.71481">
        <ele>176</ele>
        <time>2018-04-11T10:51:14Z</time>
      </trkpt>
      <trkpt lat="45.95259" lon="4.71481">
        <ele>176</ele>
        <time>2018-04-11T10:51:15Z</time>
      </trkpt>
      <trkpt lat="45.95253" lon="4.71481">
        <ele>176</ele>
        <time>2018-04-11T10:51:16Z</time>
      </trkpt>
      <trkpt lat="45.95247" lon="4.71481">
        <ele>177</ele>
        <time>2018-04-11T10:51:17Z</time>
      </trkpt>
      <trkpt lat="45.9524" lon="4.7148">
        <ele>177</ele>
        <time>2018-04-11T10:51:18Z</time>
      </trkpt>
      <trkpt lat="45.95234" lon="4.71479">
        <ele>177</ele>
        <time>2018-04-11T10:51:19Z</time>
      </trkpt>
      <trkpt lat="45.95228" lon="4.71479">
        <ele>177</ele>
        <time>2018-04-11T10:51:20Z</time>
      </trkpt>
      <trkpt lat="45.95222" lon="4.71478">
        <ele>177</ele>
        <time>2018-04-11T10:51:21Z</time>
      </trkpt>
      <trkpt lat="45.95216" lon="4.71477">
        <ele>177</ele>
        <time>2018-04-11T10:51:22Z</time>
      </trkpt>
      <trkpt lat="45.9521" lon="4.71477">
        <ele>177</ele>
        <time>2018-04-11T10:51:23Z</time>
      </trkpt>
      <trkpt lat="45.95204" lon="4.71476">
        <ele>177</ele>
        <time>2018-04-11T10:51:24Z</time>
      </trkpt>
      <trkpt lat="45.95197" lon="4.71476">
        <ele>177</ele>
        <time>2018-04-11T10:51:25Z</time>
      </trkpt>
      <trkpt lat="45.95191" lon="4.71475">
        <ele>177</ele>
        <time>2018-04-11T10:51:26Z</time>
      </trkpt>
      <trkpt lat="45.95185" lon="4.71474">
        <ele>177</ele>
        <time>2018-04-11T10:51:27Z</time>
      </trkpt>
      <trkpt lat="45.95179" lon="4.71474">
        <ele>177</ele>
        <time>2018-04-11T10:51:28Z</time>
      </trkpt>
      <trkpt lat="45.95173" lon="4.71474">
        <ele>177</ele>
        <time>2018-04-11T10:51:29Z</time>
      </trkpt>
      <trkpt lat="45.95166" lon="4.71473">
        <ele>178</ele>
        <time>2018-04-11T10:51:30Z</time>
      </trkpt>
      <trkpt lat="45.9516" lon="4.71473">
        <ele>178</ele>
        <time>2018-04-11T10:51:31Z</time>
      </trkpt>
      <trkpt lat="45.95154" lon="4.71472">
        <ele>178</ele>
        <time>2018-04-11T10:51:32Z</time>
      </trkpt>
      <trkpt lat="45.95147" lon="4.71471">
        <ele>178</ele>
        <time>2018-04-11T10:51:33Z</time>
      </trkpt>
      <trkpt lat="45.95141" lon="4.71471">
        <ele>178</ele>
        <time>2018-04-11T10:51:34Z</time>
      </trkpt>
      <trkpt lat="45.95135" lon="4.7147">
        <ele>178</ele>
        <time>2018-04-11T10:51:35Z</time>
      </trkpt>
      <trkpt lat="45.9513" lon="4.7147">
        <ele>178</ele>
        <time>2018-04-11T10:51:36Z</time>
      </trkpt>
      <trkpt lat="45.95124" lon="4.7147">
        <ele>178</ele>
        <time>2018-04-11T10:51:37Z</time>
      </trkpt>
      <trkpt lat="45.95119" lon="4.71469">
        <ele>179</ele>
        <time>2018-04-11T10:51:38Z</time>
      </trkpt>
      <trkpt lat="45.95113" lon="4.71468">
        <ele>179</ele>
        <time>2018-04-11T10:51:39Z</time>
      </trkpt>
      <trkpt lat="45.95107" lon="4.71468">
        <ele>179</ele>
        <time>2018-04-11T10:51:40Z</time>
      </trkpt>
      <trkpt lat="45.95101" lon="4.71467">
        <ele>179</ele>
        <time>2018-04-11T10:51:41Z</time>
      </trkpt>
      <trkpt lat="45.95095" lon="4.71467">
        <ele>179</ele>
        <time>2018-04-11T10:51:42Z</time>
      </trkpt>
      <trkpt lat="45.95089" lon="4.71467">
        <ele>179</ele>
        <time>2018-04-11T10:51:43Z</time>
      </trkpt>
      <trkpt lat="45.95084" lon="4.71467">
        <ele>179</ele>
        <time>2018-04-11T10:51:44Z</time>
      </trkpt>
      <trkpt lat="45.95078" lon="4.71466">
        <ele>181</ele>
        <time>2018-04-11T10:51:45Z</time>
      </trkpt>
      <trkpt lat="45.95073" lon="4.71467">
        <ele>181</ele>
        <time>2018-04-11T10:51:46Z</time>
      </trkpt>
      <trkpt lat="45.95068" lon="4.71465">
        <ele>181</ele>
        <time>2018-04-11T10:51:47Z</time>
      </trkpt>
      <trkpt lat="45.95062" lon="4.71465">
        <ele>181</ele>
        <time>2018-04-11T10:51:48Z</time>
      </trkpt>
      <trkpt lat="45.95056" lon="4.71465">
        <ele>181</ele>
        <time>2018-04-11T10:51:49Z</time>
      </trkpt>
      <trkpt lat="45.95051" lon="4.71464">
        <ele>181</ele>
        <time>2018-04-11T10:51:50Z</time>
      </trkpt>
      <trkpt lat="45.95046" lon="4.71464">
        <ele>182</ele>
        <time>2018-04-11T10:51:51Z</time>
      </trkpt>
      <trkpt lat="45.95038" lon="4.71463">
        <ele>182</ele>
        <time>2018-04-11T10:51:53Z</time>
      </trkpt>
      <trkpt lat="45.95036" lon="4.71464">
        <ele>182</ele>
        <time>2018-04-11T10:51:54Z</time>
      </trkpt>
      <trkpt lat="45.95033" lon="4.71463">
        <ele>182</ele>
        <time>2018-04-11T10:51:55Z</time>
      </trkpt>
      <trkpt lat="45.95026" lon="4.71462">
        <ele>182</ele>
        <time>2018-04-11T10:51:56Z</time>
      </trkpt>
      <trkpt lat="45.95018" lon="4.71462">
        <ele>182</ele>
        <time>2018-04-11T10:51:58Z</time>
      </trkpt>
      <trkpt lat="45.95012" lon="4.71462">
        <ele>182</ele>
        <time>2018-04-11T10:51:59Z</time>
      </trkpt>
      <trkpt lat="45.95007" lon="4.71463">
        <ele>182</ele>
        <time>2018-04-11T10:52:00Z</time>
      </trkpt>
      <trkpt lat="45.95002" lon="4.71461">
        <ele>182</ele>
        <time>2018-04-11T10:52:01Z</time>
      </trkpt>
      <trkpt lat="45.94994" lon="4.71455">
        <ele>184</ele>
        <time>2018-04-11T10:52:03Z</time>
      </trkpt>
      <trkpt lat="45.94992" lon="4.71451">
        <ele>184</ele>
        <time>2018-04-11T10:52:04Z</time>
      </trkpt>
      <trkpt lat="45.94989" lon="4.71446">
        <ele>184</ele>
        <time>2018-04-11T10:52:05Z</time>
      </trkpt>
      <trkpt lat="45.94985" lon="4.71441">
        <ele>184</ele>
        <time>2018-04-11T10:52:06Z</time>
      </trkpt>
      <trkpt lat="45.94981" lon="4.71436">
        <ele>185</ele>
        <time>2018-04-11T10:52:07Z</time>
      </trkpt>
      <trkpt lat="45.94976" lon="4.71433">
        <ele>185</ele>
        <time>2018-04-11T10:52:08Z</time>
      </trkpt>
      <trkpt lat="45.94971" lon="4.71433">
        <ele>185</ele>
        <time>2018-04-11T10:52:09Z</time>
      </trkpt>
      <trkpt lat="45.94966" lon="4.71434">
        <ele>184</ele>
        <time>2018-04-11T10:52:10Z</time>
      </trkpt>
      <trkpt lat="45.9496" lon="4.71436">
        <ele>184</ele>
        <time>2018-04-11T10:52:11Z</time>
      </trkpt>
      <trkpt lat="45.94954" lon="4.71441">
        <ele>184</ele>
        <time>2018-04-11T10:52:12Z</time>
      </trkpt>
      <trkpt lat="45.9495" lon="4.71448">
        <ele>184</ele>
        <time>2018-04-11T10:52:13Z</time>
      </trkpt>
      <trkpt lat="45.94945" lon="4.71452">
        <ele>184</ele>
        <time>2018-04-11T10:52:14Z</time>
      </trkpt>
      <trkpt lat="45.9494" lon="4.71455">
        <ele>184</ele>
        <time>2018-04-11T10:52:15Z</time>
      </trkpt>
      <trkpt lat="45.94936" lon="4.71457">
        <ele>184</ele>
        <time>2018-04-11T10:52:16Z</time>
      </trkpt>
      <trkpt lat="45.9493" lon="4.71457">
        <ele>184</ele>
        <time>2018-04-11T10:52:17Z</time>
      </trkpt>
      <trkpt lat="45.94925" lon="4.71457">
        <ele>184</ele>
        <time>2018-04-11T10:52:18Z</time>
      </trkpt>
      <trkpt lat="45.94919" lon="4.71457">
        <ele>184</ele>
        <time>2018-04-11T10:52:19Z</time>
      </trkpt>
      <trkpt lat="45.94913" lon="4.71457">
        <ele>184</ele>
        <time>2018-04-11T10:52:20Z</time>
      </trkpt>
      <trkpt lat="45.94907" lon="4.71456">
        <ele>184</ele>
        <time>2018-04-11T10:52:21Z</time>
      </trkpt>
      <trkpt lat="45.94902" lon="4.71456">
        <ele>184</ele>
        <time>2018-04-11T10:52:22Z</time>
      </trkpt>
      <trkpt lat="45.94897" lon="4.71455">
        <ele>184</ele>
        <time>2018-04-11T10:52:23Z</time>
      </trkpt>
      <trkpt lat="45.94892" lon="4.71455">
        <ele>184</ele>
        <time>2018-04-11T10:52:24Z</time>
      </trkpt>
      <trkpt lat="45.94887" lon="4.71455">
        <ele>184</ele>
        <time>2018-04-11T10:52:25Z</time>
      </trkpt>
      <trkpt lat="45.94882" lon="4.71454">
        <ele>184</ele>
        <time>2018-04-11T10:52:26Z</time>
      </trkpt>
      <trkpt lat="45.94876" lon="4.71454">
        <ele>184</ele>
        <time>2018-04-11T10:52:27Z</time>
      </trkpt>
      <trkpt lat="45.94871" lon="4.71453">
        <ele>184</ele>
        <time>2018-04-11T10:52:28Z</time>
      </trkpt>
      <trkpt lat="45.94866" lon="4.71453">
        <ele>184</ele>
        <time>2018-04-11T10:52:29Z</time>
      </trkpt>
      <trkpt lat="45.94861" lon="4.71452">
        <ele>184</ele>
        <time>2018-04-11T10:52:30Z</time>
      </trkpt>
      <trkpt lat="45.94855" lon="4.71451">
        <ele>184</ele>
        <time>2018-04-11T10:52:31Z</time>
      </trkpt>
      <trkpt lat="45.9485" lon="4.7145">
        <ele>184</ele>
        <time>2018-04-11T10:52:32Z</time>
      </trkpt>
      <trkpt lat="45.94846" lon="4.7145">
        <ele>184</ele>
        <time>2018-04-11T10:52:33Z</time>
      </trkpt>
      <trkpt lat="45.94841" lon="4.7145">
        <ele>184</ele>
        <time>2018-04-11T10:52:34Z</time>
      </trkpt>
      <trkpt lat="45.94835" lon="4.71449">
        <ele>184</ele>
        <time>2018-04-11T10:52:35Z</time>
      </trkpt>
      <trkpt lat="45.9483" lon="4.71449">
        <ele>184</ele>
        <time>2018-04-11T10:52:36Z</time>
      </trkpt>
      <trkpt lat="45.94825" lon="4.71448">
        <ele>184</ele>
        <time>2018-04-11T10:52:37Z</time>
      </trkpt>
      <trkpt lat="45.9482" lon="4.71448">
        <ele>184</ele>
        <time>2018-04-11T10:52:38Z</time>
      </trkpt>
      <trkpt lat="45.94815" lon="4.71448">
        <ele>184</ele>
        <time>2018-04-11T10:52:39Z</time>
      </trkpt>
      <trkpt lat="45.9481" lon="4.71448">
        <ele>184</ele>
        <time>2018-04-11T10:52:40Z</time>
      </trkpt>
      <trkpt lat="45.94805" lon="4.71447">
        <ele>183</ele>
        <time>2018-04-11T10:52:41Z</time>
      </trkpt>
      <trkpt lat="45.948" lon="4.71447">
        <ele>183</ele>
        <time>2018-04-11T10:52:42Z</time>
      </trkpt>
      <trkpt lat="45.94795" lon="4.71446">
        <ele>183</ele>
        <time>2018-04-11T10:52:43Z</time>
      </trkpt>
      <trkpt lat="45.94789" lon="4.71446">
        <ele>183</ele>
        <time>2018-04-11T10:52:44Z</time>
      </trkpt>
      <trkpt lat="45.94785" lon="4.71446">
        <ele>183</ele>
        <time>2018-04-11T10:52:45Z</time>
      </trkpt>
      <trkpt lat="45.94779" lon="4.71446">
        <ele>183</ele>
        <time>2018-04-11T10:52:46Z</time>
      </trkpt>
      <trkpt lat="45.94775" lon="4.71445">
        <ele>183</ele>
        <time>2018-04-11T10:52:47Z</time>
      </trkpt>
      <trkpt lat="45.9477" lon="4.71445">
        <ele>184</ele>
        <time>2018-04-11T10:52:48Z</time>
      </trkpt>
      <trkpt lat="45.94765" lon="4.71445">
        <ele>184</ele>
        <time>2018-04-11T10:52:49Z</time>
      </trkpt>
      <trkpt lat="45.9476" lon="4.71445">
        <ele>184</ele>
        <time>2018-04-11T10:52:50Z</time>
      </trkpt>
      <trkpt lat="45.94755" lon="4.71445">
        <ele>184</ele>
        <time>2018-04-11T10:52:51Z</time>
      </trkpt>
      <trkpt lat="45.94751" lon="4.71444">
        <ele>184</ele>
        <time>2018-04-11T10:52:52Z</time>
      </trkpt>
      <trkpt lat="45.94745" lon="4.71443">
        <ele>183</ele>
        <time>2018-04-11T10:52:53Z</time>
      </trkpt>
      <trkpt lat="45.94741" lon="4.71443">
        <ele>183</ele>
        <time>2018-04-11T10:52:54Z</time>
      </trkpt>
      <trkpt lat="45.94736" lon="4.71443">
        <ele>183</ele>
        <time>2018-04-11T10:52:55Z</time>
      </trkpt>
      <trkpt lat="45.9473" lon="4.71443">
        <ele>183</ele>
        <time>2018-04-11T10:52:56Z</time>
      </trkpt>
      <trkpt lat="45.94726" lon="4.71443">
        <ele>182</ele>
        <time>2018-04-11T10:52:57Z</time>
      </trkpt>
      <trkpt lat="45.9472" lon="4.71443">
        <ele>182</ele>
        <time>2018-04-11T10:52:58Z</time>
      </trkpt>
      <trkpt lat="45.94715" lon="4.71443">
        <ele>182</ele>
        <time>2018-04-11T10:52:59Z</time>
      </trkpt>
      <trkpt lat="45.9471" lon="4.71443">
        <ele>182</ele>
        <time>2018-04-11T10:53:00Z</time>
      </trkpt>
      <trkpt lat="45.94706" lon="4.71443">
        <ele>182</ele>
        <time>2018-04-11T10:53:01Z</time>
      </trkpt>
      <trkpt lat="45.94701" lon="4.71443">
        <ele>182</ele>
        <time>2018-04-11T10:53:02Z</time>
      </trkpt>
      <trkpt lat="45.94697" lon="4.71442">
        <ele>182</ele>
        <time>2018-04-11T10:53:03Z</time>
      </trkpt>
      <trkpt lat="45.94691" lon="4.71442">
        <ele>182</ele>
        <time>2018-04-11T10:53:04Z</time>
      </trkpt>
      <trkpt lat="45.94686" lon="4.71442">
        <ele>182</ele>
        <time>2018-04-11T10:53:05Z</time>
      </trkpt>
      <trkpt lat="45.94681" lon="4.71442">
        <ele>182</ele>
        <time>2018-04-11T10:53:06Z</time>
      </trkpt>
      <trkpt lat="45.94676" lon="4.71441">
        <ele>182</ele>
        <time>2018-04-11T10:53:07Z</time>
      </trkpt>
      <trkpt lat="45.9467" lon="4.71441">
        <ele>182</ele>
        <time>2018-04-11T10:53:08Z</time>
      </trkpt>
      <trkpt lat="45.94665" lon="4.71441">
        <ele>182</ele>
        <time>2018-04-11T10:53:09Z</time>
      </trkpt>
      <trkpt lat="45.9466" lon="4.71439">
        <ele>182</ele>
        <time>2018-04-11T10:53:10Z</time>
      </trkpt>
      <trkpt lat="45.94654" lon="4.71439">
        <ele>182</ele>
        <time>2018-04-11T10:53:11Z</time>
      </trkpt>
      <trkpt lat="45.94649" lon="4.71438">
        <ele>182</ele>
        <time>2018-04-11T10:53:12Z</time>
      </trkpt>
      <trkpt lat="45.94642" lon="4.71437">
        <ele>182</ele>
        <time>2018-04-11T10:53:13Z</time>
      </trkpt>
      <trkpt lat="45.94637" lon="4.71437">
        <ele>181</ele>
        <time>2018-04-11T10:53:14Z</time>
      </trkpt>
      <trkpt lat="45.9463" lon="4.71436">
        <ele>181</ele>
        <time>2018-04-11T10:53:15Z</time>
      </trkpt>
      <trkpt lat="45.94624" lon="4.71436">
        <ele>182</ele>
        <time>2018-04-11T10:53:16Z</time>
      </trkpt>
      <trkpt lat="45.94619" lon="4.71435">
        <ele>182</ele>
        <time>2018-04-11T10:53:17Z</time>
      </trkpt>
      <trkpt lat="45.94614" lon="4.71435">
        <ele>182</ele>
        <time>2018-04-11T10:53:18Z</time>
      </trkpt>
      <trkpt lat="45.94609" lon="4.71434">
        <ele>182</ele>
        <time>2018-04-11T10:53:19Z</time>
      </trkpt>
      <trkpt lat="45.94603" lon="4.71434">
        <ele>182</ele>
        <time>2018-04-11T10:53:20Z</time>
      </trkpt>
      <trkpt lat="45.94597" lon="4.71434">
        <ele>182</ele>
        <time>2018-04-11T10:53:21Z</time>
      </trkpt>
      <trkpt lat="45.94592" lon="4.71434">
        <ele>182</ele>
        <time>2018-04-11T10:53:22Z</time>
      </trkpt>
      <trkpt lat="45.94587" lon="4.71435">
        <ele>183</ele>
        <time>2018-04-11T10:53:23Z</time>
      </trkpt>
      <trkpt lat="45.94581" lon="4.71434">
        <ele>182</ele>
        <time>2018-04-11T10:53:24Z</time>
      </trkpt>
      <trkpt lat="45.94575" lon="4.71435">
        <ele>182</ele>
        <time>2018-04-11T10:53:25Z</time>
      </trkpt>
      <trkpt lat="45.9457" lon="4.71435">
        <ele>182</ele>
        <time>2018-04-11T10:53:26Z</time>
      </trkpt>
      <trkpt lat="45.94564" lon="4.71437">
        <ele>182</ele>
        <time>2018-04-11T10:53:27Z</time>
      </trkpt>
      <trkpt lat="45.94559" lon="4.71437">
        <ele>181</ele>
        <time>2018-04-11T10:53:28Z</time>
      </trkpt>
      <trkpt lat="45.94553" lon="4.7144">
        <ele>181</ele>
        <time>2018-04-11T10:53:29Z</time>
      </trkpt>
      <trkpt lat="45.94547" lon="4.71442">
        <ele>181</ele>
        <time>2018-04-11T10:53:30Z</time>
      </trkpt>
      <trkpt lat="45.94541" lon="4.71444">
        <ele>181</ele>
        <time>2018-04-11T10:53:31Z</time>
      </trkpt>
      <trkpt lat="45.94535" lon="4.71446">
        <ele>180</ele>
        <time>2018-04-11T10:53:32Z</time>
      </trkpt>
      <trkpt lat="45.94529" lon="4.71448">
        <ele>180</ele>
        <time>2018-04-11T10:53:33Z</time>
      </trkpt>
      <trkpt lat="45.94523" lon="4.71451">
        <ele>180</ele>
        <time>2018-04-11T10:53:34Z</time>
      </trkpt>
      <trkpt lat="45.94516" lon="4.71454">
        <ele>180</ele>
        <time>2018-04-11T10:53:35Z</time>
      </trkpt>
      <trkpt lat="45.9451" lon="4.71456">
        <ele>180</ele>
        <time>2018-04-11T10:53:36Z</time>
      </trkpt>
      <trkpt lat="45.94504" lon="4.71458">
        <ele>180</ele>
        <time>2018-04-11T10:53:37Z</time>
      </trkpt>
      <trkpt lat="45.94497" lon="4.7146">
        <ele>179</ele>
        <time>2018-04-11T10:53:38Z</time>
      </trkpt>
      <trkpt lat="45.94491" lon="4.71463">
        <ele>179</ele>
        <time>2018-04-11T10:53:39Z</time>
      </trkpt>
      <trkpt lat="45.94484" lon="4.71467">
        <ele>179</ele>
        <time>2018-04-11T10:53:40Z</time>
      </trkpt>
      <trkpt lat="45.94477" lon="4.71469">
        <ele>179</ele>
        <time>2018-04-11T10:53:41Z</time>
      </trkpt>
      <trkpt lat="45.9447" lon="4.71471">
        <ele>179</ele>
        <time>2018-04-11T10:53:42Z</time>
      </trkpt>
      <trkpt lat="45.94464" lon="4.71474">
        <ele>179</ele>
        <time>2018-04-11T10:53:43Z</time>
      </trkpt>
      <trkpt lat="45.94457" lon="4.71477">
        <ele>179</ele>
        <time>2018-04-11T10:53:44Z</time>
      </trkpt>
      <trkpt lat="45.9445" lon="4.71479">
        <ele>179</ele>
        <time>2018-04-11T10:53:45Z</time>
      </trkpt>
      <trkpt lat="45.94443" lon="4.71481">
        <ele>179</ele>
        <time>2018-04-11T10:53:46Z</time>
      </trkpt>
      <trkpt lat="45.94436" lon="4.71484">
        <ele>179</ele>
        <time>2018-04-11T10:53:47Z</time>
      </trkpt>
      <trkpt lat="45.9443" lon="4.71487">
        <ele>178</ele>
        <time>2018-04-11T10:53:48Z</time>
      </trkpt>
      <trkpt lat="45.94423" lon="4.71491">
        <ele>178</ele>
        <time>2018-04-11T10:53:49Z</time>
      </trkpt>
      <trkpt lat="45.94417" lon="4.71494">
        <ele>178</ele>
        <time>2018-04-11T10:53:50Z</time>
      </trkpt>
      <trkpt lat="45.94409" lon="4.71496">
        <ele>178</ele>
        <time>2018-04-11T10:53:51Z</time>
      </trkpt>
      <trkpt lat="45.94402" lon="4.71499">
        <ele>178</ele>
        <time>2018-04-11T10:53:52Z</time>
      </trkpt>
      <trkpt lat="45.94394" lon="4.71502">
        <ele>177</ele>
        <time>2018-04-11T10:53:53Z</time>
      </trkpt>
      <trkpt lat="45.94386" lon="4.71506">
        <ele>177</ele>
        <time>2018-04-11T10:53:54Z</time>
      </trkpt>
      <trkpt lat="45.94379" lon="4.71509">
        <ele>177</ele>
        <time>2018-04-11T10:53:55Z</time>
      </trkpt>
      <trkpt lat="45.94371" lon="4.71512">
        <ele>176</ele>
        <time>2018-04-11T10:53:56Z</time>
      </trkpt>
      <trkpt lat="45.94362" lon="4.71517">
        <ele>176</ele>
        <time>2018-04-11T10:53:57Z</time>
      </trkpt>
      <trkpt lat="45.94354" lon="4.7152">
        <ele>176</ele>
        <time>2018-04-11T10:53:58Z</time>
      </trkpt>
      <trkpt lat="45.94345" lon="4.71523">
        <ele>176</ele>
        <time>2018-04-11T10:53:59Z</time>
      </trkpt>
      <trkpt lat="45.94337" lon="4.71527">
        <ele>176</ele>
        <time>2018-04-11T10:54:00Z</time>
      </trkpt>
      <trkpt lat="45.94329" lon="4.71529">
        <ele>176</ele>
        <time>2018-04-11T10:54:01Z</time>
      </trkpt>
      <trkpt lat="45.94321" lon="4.71533">
        <ele>176</ele>
        <time>2018-04-11T10:54:02Z</time>
      </trkpt>
      <trkpt lat="45.94313" lon="4.71536">
        <ele>175</ele>
        <time>2018-04-11T10:54:03Z</time>
      </trkpt>
      <trkpt lat="45.94305" lon="4.71538">
        <ele>175</ele>
        <time>2018-04-11T10:54:04Z</time>
      </trkpt>
      <trkpt lat="45.94298" lon="4.71541">
        <ele>175</ele>
        <time>2018-04-11T10:54:05Z</time>
      </trkpt>
      <trkpt lat="45.94291" lon="4.71543">
        <ele>175</ele>
        <time>2018-04-11T10:54:06Z</time>
      </trkpt>
      <trkpt lat="45.94284" lon="4.71545">
        <ele>175</ele>
        <time>2018-04-11T10:54:07Z</time>
      </trkpt>
      <trkpt lat="45.94276" lon="4.71547">
        <ele>175</ele>
        <time>2018-04-11T10:54:08Z</time>
      </trkpt>
      <trkpt lat="45.9427" lon="4.71551">
        <ele>175</ele>
        <time>2018-04-11T10:54:09Z</time>
      </trkpt>
      <trkpt lat="45.94263" lon="4.71556">
        <ele>175</ele>
        <time>2018-04-11T10:54:10Z</time>
      </trkpt>
      <trkpt lat="45.94256" lon="4.71559">
        <ele>175</ele>
        <time>2018-04-11T10:54:11Z</time>
      </trkpt>
      <trkpt lat="45.94249" lon="4.7156">
        <ele>174</ele>
        <time>2018-04-11T10:54:12Z</time>
      </trkpt>
      <trkpt lat="45.94241" lon="4.71563">
        <ele>174</ele>
        <time>2018-04-11T10:54:13Z</time>
      </trkpt>
      <trkpt lat="45.94234" lon="4.71566">
        <ele>174</ele>
        <time>2018-04-11T10:54:14Z</time>
      </trkpt>
      <trkpt lat="45.94227" lon="4.71568">
        <ele>174</ele>
        <time>2018-04-11T10:54:15Z</time>
      </trkpt>
      <trkpt lat="45.94221" lon="4.7157">
        <ele>174</ele>
        <time>2018-04-11T10:54:16Z</time>
      </trkpt>
      <trkpt lat="45.94214" lon="4.71573">
        <ele>174</ele>
        <time>2018-04-11T10:54:17Z</time>
      </trkpt>
      <trkpt lat="45.94206" lon="4.71575">
        <ele>174</ele>
        <time>2018-04-11T10:54:18Z</time>
      </trkpt>
      <trkpt lat="45.942" lon="4.71579">
        <ele>174</ele>
        <time>2018-04-11T10:54:19Z</time>
      </trkpt>
      <trkpt lat="45.94193" lon="4.71584">
        <ele>173</ele>
        <time>2018-04-11T10:54:20Z</time>
      </trkpt>
      <trkpt lat="45.94186" lon="4.71585">
        <ele>173</ele>
        <time>2018-04-11T10:54:21Z</time>
      </trkpt>
      <trkpt lat="45.94179" lon="4.71588">
        <ele>173</ele>
        <time>2018-04-11T10:54:22Z</time>
      </trkpt>
      <trkpt lat="45.94173" lon="4.71592">
        <ele>174</ele>
        <time>2018-04-11T10:54:23Z</time>
      </trkpt>
      <trkpt lat="45.94166" lon="4.71594">
        <ele>174</ele>
        <time>2018-04-11T10:54:24Z</time>
      </trkpt>
      <trkpt lat="45.9416" lon="4.71596">
        <ele>173</ele>
        <time>2018-04-11T10:54:25Z</time>
      </trkpt>
      <trkpt lat="45.94154" lon="4.71599">
        <ele>173</ele>
        <time>2018-04-11T10:54:26Z</time>
      </trkpt>
      <trkpt lat="45.94147" lon="4.71601">
        <ele>173</ele>
        <time>2018-04-11T10:54:27Z</time>
      </trkpt>
      <trkpt lat="45.9414" lon="4.71603">
        <ele>173</ele>
        <time>2018-04-11T10:54:28Z</time>
      </trkpt>
      <trkpt lat="45.94134" lon="4.71606">
        <ele>173</ele>
        <time>2018-04-11T10:54:29Z</time>
      </trkpt>
      <trkpt lat="45.94128" lon="4.71609">
        <ele>173</ele>
        <time>2018-04-11T10:54:30Z</time>
      </trkpt>
      <trkpt lat="45.94122" lon="4.7161">
        <ele>173</ele>
        <time>2018-04-11T10:54:31Z</time>
      </trkpt>
      <trkpt lat="45.94116" lon="4.71612">
        <ele>173</ele>
        <time>2018-04-11T10:54:32Z</time>
      </trkpt>
      <trkpt lat="45.9411" lon="4.71615">
        <ele>173</ele>
        <time>2018-04-11T10:54:33Z</time>
      </trkpt>
      <trkpt lat="45.94104" lon="4.71617">
        <ele>173</ele>
        <time>2018-04-11T10:54:34Z</time>
      </trkpt>
      <trkpt lat="45.94099" lon="4.71619">
        <ele>173</ele>
        <time>2018-04-11T10:54:35Z</time>
      </trkpt>
      <trkpt lat="45.94093" lon="4.71621">
        <ele>173</ele>
        <time>2018-04-11T10:54:36Z</time>
      </trkpt>
      <trkpt lat="45.94086" lon="4.71623">
        <ele>173</ele>
        <time>2018-04-11T10:54:37Z</time>
      </trkpt>
      <trkpt lat="45.94079" lon="4.71625">
        <ele>174</ele>
        <time>2018-04-11T10:54:38Z</time>
      </trkpt>
      <trkpt lat="45.94072" lon="4.71628">
        <ele>174</ele>
        <time>2018-04-11T10:54:39Z</time>
      </trkpt>
      <trkpt lat="45.94067" lon="4.71629">
        <ele>174</ele>
        <time>2018-04-11T10:54:40Z</time>
      </trkpt>
      <trkpt lat="45.94062" lon="4.71631">
        <ele>174</ele>
        <time>2018-04-11T10:54:41Z</time>
      </trkpt>
      <trkpt lat="45.94056" lon="4.71633">
        <ele>174</ele>
        <time>2018-04-11T10:54:42Z</time>
      </trkpt>
      <trkpt lat="45.94051" lon="4.71636">
        <ele>175</ele>
        <time>2018-04-11T10:54:43Z</time>
      </trkpt>
      <trkpt lat="45.94045" lon="4.71637">
        <ele>175</ele>
        <time>2018-04-11T10:54:44Z</time>
      </trkpt>
      <trkpt lat="45.94039" lon="4.7164">
        <ele>175</ele>
        <time>2018-04-11T10:54:45Z</time>
      </trkpt>
      <trkpt lat="45.94034" lon="4.71642">
        <ele>175</ele>
        <time>2018-04-11T10:54:46Z</time>
      </trkpt>
      <trkpt lat="45.94028" lon="4.71644">
        <ele>175</ele>
        <time>2018-04-11T10:54:47Z</time>
      </trkpt>
      <trkpt lat="45.94023" lon="4.71647">
        <ele>175</ele>
        <time>2018-04-11T10:54:48Z</time>
      </trkpt>
      <trkpt lat="45.94018" lon="4.7165">
        <ele>176</ele>
        <time>2018-04-11T10:54:49Z</time>
      </trkpt>
      <trkpt lat="45.94013" lon="4.71653">
        <ele>176</ele>
        <time>2018-04-11T10:54:50Z</time>
      </trkpt>
      <trkpt lat="45.94008" lon="4.71656">
        <ele>176</ele>
        <time>2018-04-11T10:54:51Z</time>
      </trkpt>
      <trkpt lat="45.94003" lon="4.71658">
        <ele>176</ele>
        <time>2018-04-11T10:54:52Z</time>
      </trkpt>
      <trkpt lat="45.93998" lon="4.71659">
        <ele>177</ele>
        <time>2018-04-11T10:54:53Z</time>
      </trkpt>
      <trkpt lat="45.93992" lon="4.7166">
        <ele>177</ele>
        <time>2018-04-11T10:54:54Z</time>
      </trkpt>
      <trkpt lat="45.93987" lon="4.7166">
        <ele>177</ele>
        <time>2018-04-11T10:54:55Z</time>
      </trkpt>
      <trkpt lat="45.93981" lon="4.71661">
        <ele>177</ele>
        <time>2018-04-11T10:54:56Z</time>
      </trkpt>
      <trkpt lat="45.93976" lon="4.71664">
        <ele>177</ele>
        <time>2018-04-11T10:54:57Z</time>
      </trkpt>
      <trkpt lat="45.9397" lon="4.71666">
        <ele>177</ele>
        <time>2018-04-11T10:54:58Z</time>
      </trkpt>
      <trkpt lat="45.93964" lon="4.71668">
        <ele>175</ele>
        <time>2018-04-11T10:54:59Z</time>
      </trkpt>
      <trkpt lat="45.93959" lon="4.7167">
        <ele>175</ele>
        <time>2018-04-11T10:55:00Z</time>
      </trkpt>
      <trkpt lat="45.93952" lon="4.71672">
        <ele>175</ele>
        <time>2018-04-11T10:55:01Z</time>
      </trkpt>
      <trkpt lat="45.93947" lon="4.71675">
        <ele>175</ele>
        <time>2018-04-11T10:55:02Z</time>
      </trkpt>
      <trkpt lat="45.93941" lon="4.71676">
        <ele>175</ele>
        <time>2018-04-11T10:55:03Z</time>
      </trkpt>
      <trkpt lat="45.93935" lon="4.71679">
        <ele>175</ele>
        <time>2018-04-11T10:55:04Z</time>
      </trkpt>
      <trkpt lat="45.93929" lon="4.7168">
        <ele>175</ele>
        <time>2018-04-11T10:55:05Z</time>
      </trkpt>
      <trkpt lat="45.93923" lon="4.71683">
        <ele>175</ele>
        <time>2018-04-11T10:55:06Z</time>
      </trkpt>
      <trkpt lat="45.93916" lon="4.71685">
        <ele>175</ele>
        <time>2018-04-11T10:55:07Z</time>
      </trkpt>
      <trkpt lat="45.9391" lon="4.71686">
        <ele>174</ele>
        <time>2018-04-11T10:55:08Z</time>
      </trkpt>
      <trkpt lat="45.93904" lon="4.7169">
        <ele>174</ele>
        <time>2018-04-11T10:55:09Z</time>
      </trkpt>
      <trkpt lat="45.93898" lon="4.71693">
        <ele>174</ele>
        <time>2018-04-11T10:55:10Z</time>
      </trkpt>
      <trkpt lat="45.93893" lon="4.71695">
        <ele>174</ele>
        <time>2018-04-11T10:55:11Z</time>
      </trkpt>
      <trkpt lat="45.93887" lon="4.71697">
        <ele>174</ele>
        <time>2018-04-11T10:55:12Z</time>
      </trkpt>
      <trkpt lat="45.93882" lon="4.717">
        <ele>174</ele>
        <time>2018-04-11T10:55:13Z</time>
      </trkpt>
      <trkpt lat="45.93877" lon="4.71701">
        <ele>174</ele>
        <time>2018-04-11T10:55:14Z</time>
      </trkpt>
      <trkpt lat="45.93872" lon="4.71703">
        <ele>174</ele>
        <time>2018-04-11T10:55:15Z</time>
      </trkpt>
      <trkpt lat="45.93867" lon="4.71705">
        <ele>174</ele>
        <time>2018-04-11T10:55:16Z</time>
      </trkpt>
      <trkpt lat="45.93861" lon="4.71707">
        <ele>174</ele>
        <time>2018-04-11T10:55:17Z</time>
      </trkpt>
      <trkpt lat="45.93856" lon="4.71709">
        <ele>174</ele>
        <time>2018-04-11T10:55:18Z</time>
      </trkpt>
      <trkpt lat="45.9385" lon="4.71712">
        <ele>174</ele>
        <time>2018-04-11T10:55:19Z</time>
      </trkpt>
      <trkpt lat="45.93845" lon="4.71714">
        <ele>174</ele>
        <time>2018-04-11T10:55:20Z</time>
      </trkpt>
      <trkpt lat="45.93839" lon="4.71717">
        <ele>175</ele>
        <time>2018-04-11T10:55:21Z</time>
      </trkpt>
      <trkpt lat="45.93831" lon="4.71719">
        <ele>175</ele>
        <time>2018-04-11T10:55:22Z</time>
      </trkpt>
      <trkpt lat="45.93827" lon="4.71721">
        <ele>175</ele>
        <time>2018-04-11T10:55:23Z</time>
      </trkpt>
      <trkpt lat="45.93822" lon="4.71723">
        <ele>175</ele>
        <time>2018-04-11T10:55:24Z</time>
      </trkpt>
      <trkpt lat="45.93816" lon="4.71724">
        <ele>175</ele>
        <time>2018-04-11T10:55:25Z</time>
      </trkpt>
      <trkpt lat="45.93811" lon="4.71726">
        <ele>175</ele>
        <time>2018-04-11T10:55:26Z</time>
      </trkpt>
      <trkpt lat="45.93805" lon="4.71729">
        <ele>175</ele>
        <time>2018-04-11T10:55:27Z</time>
      </trkpt>
      <trkpt lat="45.938" lon="4.71731">
        <ele>175</ele>
        <time>2018-04-11T10:55:28Z</time>
      </trkpt>
      <trkpt lat="45.93793" lon="4.71733">
        <ele>175</ele>
        <time>2018-04-11T10:55:29Z</time>
      </trkpt>
      <trkpt lat="45.93787" lon="4.71736">
        <ele>175</ele>
        <time>2018-04-11T10:55:30Z</time>
      </trkpt>
      <trkpt lat="45.93781" lon="4.71738">
        <ele>175</ele>
        <time>2018-04-11T10:55:31Z</time>
      </trkpt>
      <trkpt lat="45.93775" lon="4.7174">
        <ele>175</ele>
        <time>2018-04-11T10:55:32Z</time>
      </trkpt>
      <trkpt lat="45.93769" lon="4.71743">
        <ele>175</ele>
        <time>2018-04-11T10:55:33Z</time>
      </trkpt>
      <trkpt lat="45.93763" lon="4.71745">
        <ele>175</ele>
        <time>2018-04-11T10:55:34Z</time>
      </trkpt>
      <trkpt lat="45.93757" lon="4.71748">
        <ele>175</ele>
        <time>2018-04-11T10:55:35Z</time>
      </trkpt>
      <trkpt lat="45.93752" lon="4.71749">
        <ele>175</ele>
        <time>2018-04-11T10:55:36Z</time>
      </trkpt>
      <trkpt lat="45.93747" lon="4.71752">
        <ele>175</ele>
        <time>2018-04-11T10:55:37Z</time>
      </trkpt>
      <trkpt lat="45.93741" lon="4.71753">
        <ele>175</ele>
        <time>2018-04-11T10:55:38Z</time>
      </trkpt>
      <trkpt lat="45.93736" lon="4.71753">
        <ele>176</ele>
        <time>2018-04-11T10:55:39Z</time>
      </trkpt>
      <trkpt lat="45.93732" lon="4.71756">
        <ele>176</ele>
        <time>2018-04-11T10:55:40Z</time>
      </trkpt>
      <trkpt lat="45.93727" lon="4.7176">
        <ele>176</ele>
        <time>2018-04-11T10:55:41Z</time>
      </trkpt>
      <trkpt lat="45.93722" lon="4.71763">
        <ele>176</ele>
        <time>2018-04-11T10:55:44Z</time>
      </trkpt>
      <trkpt lat="45.93716" lon="4.71769">
        <ele>176</ele>
        <time>2018-04-11T10:55:45Z</time>
      </trkpt>
      <trkpt lat="45.93712" lon="4.71777">
        <ele>176</ele>
        <time>2018-04-11T10:55:47Z</time>
      </trkpt>
      <trkpt lat="45.93711" lon="4.71782">
        <ele>176</ele>
        <time>2018-04-11T10:55:48Z</time>
      </trkpt>
      <trkpt lat="45.93708" lon="4.71793">
        <ele>176</ele>
        <time>2018-04-11T10:55:50Z</time>
      </trkpt>
      <trkpt lat="45.93707" lon="4.718">
        <ele>176</ele>
        <time>2018-04-11T10:55:51Z</time>
      </trkpt>
      <trkpt lat="45.93704" lon="4.71811">
        <ele>176</ele>
        <time>2018-04-11T10:55:53Z</time>
      </trkpt>
      <trkpt lat="45.93702" lon="4.71815">
        <ele>176</ele>
        <time>2018-04-11T10:55:54Z</time>
      </trkpt>
      <trkpt lat="45.93698" lon="4.71822">
        <ele>176</ele>
        <time>2018-04-11T10:55:55Z</time>
      </trkpt>
      <trkpt lat="45.93696" lon="4.71828">
        <ele>176</ele>
        <time>2018-04-11T10:55:56Z</time>
      </trkpt>
      <trkpt lat="45.93694" lon="4.71837">
        <ele>175</ele>
        <time>2018-04-11T10:55:57Z</time>
      </trkpt>
      <trkpt lat="45.93692" lon="4.71844">
        <ele>175</ele>
        <time>2018-04-11T10:55:58Z</time>
      </trkpt>
      <trkpt lat="45.93687" lon="4.71852">
        <ele>175</ele>
        <time>2018-04-11T10:56:01Z</time>
      </trkpt>
      <trkpt lat="45.93685" lon="4.71855">
        <ele>175</ele>
        <time>2018-04-11T10:56:02Z</time>
      </trkpt>
      <trkpt lat="45.93683" lon="4.71864">
        <ele>175</ele>
        <time>2018-04-11T10:56:04Z</time>
      </trkpt>
      <trkpt lat="45.93681" lon="4.71868">
        <ele>175</ele>
        <time>2018-04-11T10:56:05Z</time>
      </trkpt>
      <trkpt lat="45.93678" lon="4.71882">
        <ele>175</ele>
        <time>2018-04-11T10:56:06Z</time>
      </trkpt>
      <trkpt lat="45.93676" lon="4.71887">
        <ele>175</ele>
        <time>2018-04-11T10:56:07Z</time>
      </trkpt>
      <trkpt lat="45.93673" lon="4.71894">
        <ele>175</ele>
        <time>2018-04-11T10:56:08Z</time>
      </trkpt>
      <trkpt lat="45.9367" lon="4.71905">
        <ele>175</ele>
        <time>2018-04-11T10:56:11Z</time>
      </trkpt>
      <trkpt lat="45.93669" lon="4.71908">
        <ele>175</ele>
        <time>2018-04-11T10:56:12Z</time>
      </trkpt>
      <trkpt lat="45.93665" lon="4.71919">
        <ele>175</ele>
        <time>2018-04-11T10:56:15Z</time>
      </trkpt>
      <trkpt lat="45.93663" lon="4.71923">
        <ele>175</ele>
        <time>2018-04-11T10:56:16Z</time>
      </trkpt>
      <trkpt lat="45.93655" lon="4.71933">
        <ele>175</ele>
        <time>2018-04-11T10:56:17Z</time>
      </trkpt>
      <trkpt lat="45.93651" lon="4.71943">
        <ele>175</ele>
        <time>2018-04-11T10:56:18Z</time>
      </trkpt>
      <trkpt lat="45.93649" lon="4.71948">
        <ele>175</ele>
        <time>2018-04-11T10:56:19Z</time>
      </trkpt>
      <trkpt lat="45.93647" lon="4.71955">
        <ele>175</ele>
        <time>2018-04-11T10:56:20Z</time>
      </trkpt>
      <trkpt lat="45.93645" lon="4.71966">
        <ele>175</ele>
        <time>2018-04-11T10:56:21Z</time>
      </trkpt>
      <trkpt lat="45.93642" lon="4.71974">
        <ele>175</ele>
        <time>2018-04-11T10:56:22Z</time>
      </trkpt>
      <trkpt lat="45.93639" lon="4.7198">
        <ele>175</ele>
        <time>2018-04-11T10:56:23Z</time>
      </trkpt>
      <trkpt lat="45.93636" lon="4.71988">
        <ele>175</ele>
        <time>2018-04-11T10:56:24Z</time>
      </trkpt>
      <trkpt lat="45.93634" lon="4.71994">
        <ele>175</ele>
        <time>2018-04-11T10:56:25Z</time>
      </trkpt>
      <trkpt lat="45.93631" lon="4.72001">
        <ele>174</ele>
        <time>2018-04-11T10:56:26Z</time>
      </trkpt>
      <trkpt lat="45.93629" lon="4.72007">
        <ele>175</ele>
        <time>2018-04-11T10:56:27Z</time>
      </trkpt>
      <trkpt lat="45.93625" lon="4.72011">
        <ele>175</ele>
        <time>2018-04-11T10:56:28Z</time>
      </trkpt>
      <trkpt lat="45.93623" lon="4.72022">
        <ele>175</ele>
        <time>2018-04-11T10:56:29Z</time>
      </trkpt>
      <trkpt lat="45.93621" lon="4.72029">
        <ele>175</ele>
        <time>2018-04-11T10:56:30Z</time>
      </trkpt>
      <trkpt lat="45.93618" lon="4.72038">
        <ele>175</ele>
        <time>2018-04-11T10:56:31Z</time>
      </trkpt>
      <trkpt lat="45.93616" lon="4.72045">
        <ele>175</ele>
        <time>2018-04-11T10:56:32Z</time>
      </trkpt>
      <trkpt lat="45.93613" lon="4.72051">
        <ele>175</ele>
        <time>2018-04-11T10:56:33Z</time>
      </trkpt>
      <trkpt lat="45.93609" lon="4.72063">
        <ele>175</ele>
        <time>2018-04-11T10:56:35Z</time>
      </trkpt>
      <trkpt lat="45.93607" lon="4.72069">
        <ele>175</ele>
        <time>2018-04-11T10:56:36Z</time>
      </trkpt>
      <trkpt lat="45.93606" lon="4.72074">
        <ele>175</ele>
        <time>2018-04-11T10:56:37Z</time>
      </trkpt>
      <trkpt lat="45.93603" lon="4.72085">
        <ele>174</ele>
        <time>2018-04-11T10:56:38Z</time>
      </trkpt>
      <trkpt lat="45.936" lon="4.7209">
        <ele>175</ele>
        <time>2018-04-11T10:56:39Z</time>
      </trkpt>
      <trkpt lat="45.936" lon="4.72101">
        <ele>174</ele>
        <time>2018-04-11T10:56:40Z</time>
      </trkpt>
      <trkpt lat="45.93596" lon="4.72108">
        <ele>174</ele>
        <time>2018-04-11T10:56:42Z</time>
      </trkpt>
      <trkpt lat="45.93593" lon="4.72114">
        <ele>174</ele>
        <time>2018-04-11T10:56:43Z</time>
      </trkpt>
      <trkpt lat="45.9359" lon="4.72119">
        <ele>174</ele>
        <time>2018-04-11T10:56:44Z</time>
      </trkpt>
      <trkpt lat="45.93587" lon="4.72124">
        <ele>174</ele>
        <time>2018-04-11T10:56:45Z</time>
      </trkpt>
      <trkpt lat="45.93581" lon="4.72133">
        <ele>174</ele>
        <time>2018-04-11T10:56:47Z</time>
      </trkpt>
      <trkpt lat="45.93578" lon="4.7214">
        <ele>174</ele>
        <time>2018-04-11T10:56:48Z</time>
      </trkpt>
      <trkpt lat="45.93576" lon="4.72152">
        <ele>174</ele>
        <time>2018-04-11T10:56:50Z</time>
      </trkpt>
      <trkpt lat="45.9357" lon="4.72157">
        <ele>174</ele>
        <time>2018-04-11T10:56:51Z</time>
      </trkpt>
      <trkpt lat="45.93567" lon="4.72165">
        <ele>174</ele>
        <time>2018-04-11T10:56:52Z</time>
      </trkpt>
      <trkpt lat="45.93564" lon="4.72168">
        <ele>173</ele>
        <time>2018-04-11T10:56:53Z</time>
      </trkpt>
      <trkpt lat="45.93562" lon="4.72174">
        <ele>173</ele>
        <time>2018-04-11T10:56:54Z</time>
      </trkpt>
      <trkpt lat="45.93557" lon="4.72183">
        <ele>173</ele>
        <time>2018-04-11T10:56:55Z</time>
      </trkpt>
      <trkpt lat="45.93553" lon="4.72191">
        <ele>173</ele>
        <time>2018-04-11T10:56:56Z</time>
      </trkpt>
      <trkpt lat="45.93551" lon="4.72197">
        <ele>173</ele>
        <time>2018-04-11T10:56:57Z</time>
      </trkpt>
      <trkpt lat="45.9355" lon="4.72204">
        <ele>173</ele>
        <time>2018-04-11T10:56:58Z</time>
      </trkpt>
      <trkpt lat="45.93547" lon="4.72211">
        <ele>173</ele>
        <time>2018-04-11T10:56:59Z</time>
      </trkpt>
      <trkpt lat="45.93544" lon="4.72222">
        <ele>172</ele>
        <time>2018-04-11T10:57:01Z</time>
      </trkpt>
      <trkpt lat="45.93542" lon="4.72228">
        <ele>172</ele>
        <time>2018-04-11T10:57:02Z</time>
      </trkpt>
      <trkpt lat="45.93539" lon="4.72234">
        <ele>172</ele>
        <time>2018-04-11T10:57:03Z</time>
      </trkpt>
      <trkpt lat="45.93537" lon="4.72241">
        <ele>172</ele>
        <time>2018-04-11T10:57:04Z</time>
      </trkpt>
      <trkpt lat="45.93533" lon="4.72251">
        <ele>172</ele>
        <time>2018-04-11T10:57:06Z</time>
      </trkpt>
      <trkpt lat="45.93531" lon="4.72258">
        <ele>172</ele>
        <time>2018-04-11T10:57:07Z</time>
      </trkpt>
      <trkpt lat="45.93528" lon="4.72263">
        <ele>172</ele>
        <time>2018-04-11T10:57:08Z</time>
      </trkpt>
      <trkpt lat="45.93526" lon="4.7227">
        <ele>172</ele>
        <time>2018-04-11T10:57:09Z</time>
      </trkpt>
      <trkpt lat="45.93522" lon="4.72277">
        <ele>172</ele>
        <time>2018-04-11T10:57:10Z</time>
      </trkpt>
      <trkpt lat="45.93519" lon="4.72282">
        <ele>172</ele>
        <time>2018-04-11T10:57:11Z</time>
      </trkpt>
      <trkpt lat="45.93516" lon="4.72292">
        <ele>172</ele>
        <time>2018-04-11T10:57:12Z</time>
      </trkpt>
      <trkpt lat="45.93512" lon="4.72298">
        <ele>172</ele>
        <time>2018-04-11T10:57:13Z</time>
      </trkpt>
      <trkpt lat="45.93508" lon="4.72305">
        <ele>173</ele>
        <time>2018-04-11T10:57:14Z</time>
      </trkpt>
      <trkpt lat="45.93504" lon="4.7231">
        <ele>173</ele>
        <time>2018-04-11T10:57:15Z</time>
      </trkpt>
      <trkpt lat="45.93498" lon="4.72318">
        <ele>173</ele>
        <time>2018-04-11T10:57:16Z</time>
      </trkpt>
      <trkpt lat="45.93494" lon="4.72323">
        <ele>173</ele>
        <time>2018-04-11T10:57:17Z</time>
      </trkpt>
      <trkpt lat="45.93489" lon="4.72329">
        <ele>173</ele>
        <time>2018-04-11T10:57:18Z</time>
      </trkpt>
      <trkpt lat="45.93485" lon="4.72335">
        <ele>173</ele>
        <time>2018-04-11T10:57:19Z</time>
      </trkpt>
      <trkpt lat="45.93481" lon="4.72341">
        <ele>173</ele>
        <time>2018-04-11T10:57:20Z</time>
      </trkpt>
      <trkpt lat="45.93476" lon="4.72345">
        <ele>173</ele>
        <time>2018-04-11T10:57:21Z</time>
      </trkpt>
      <trkpt lat="45.93471" lon="4.72351">
        <ele>173</ele>
        <time>2018-04-11T10:57:22Z</time>
      </trkpt>
      <trkpt lat="45.93467" lon="4.72357">
        <ele>173</ele>
        <time>2018-04-11T10:57:23Z</time>
      </trkpt>
      <trkpt lat="45.93463" lon="4.72361">
        <ele>173</ele>
        <time>2018-04-11T10:57:24Z</time>
      </trkpt>
      <trkpt lat="45.93459" lon="4.72367">
        <ele>173</ele>
        <time>2018-04-11T10:57:25Z</time>
      </trkpt>
      <trkpt lat="45.93454" lon="4.72372">
        <ele>173</ele>
        <time>2018-04-11T10:57:26Z</time>
      </trkpt>
      <trkpt lat="45.9345" lon="4.7238">
        <ele>173</ele>
        <time>2018-04-11T10:57:27Z</time>
      </trkpt>
      <trkpt lat="45.93445" lon="4.72384">
        <ele>173</ele>
        <time>2018-04-11T10:57:28Z</time>
      </trkpt>
      <trkpt lat="45.9344" lon="4.72388">
        <ele>173</ele>
        <time>2018-04-11T10:57:29Z</time>
      </trkpt>
      <trkpt lat="45.93435" lon="4.72393">
        <ele>173</ele>
        <time>2018-04-11T10:57:30Z</time>
      </trkpt>
      <trkpt lat="45.93429" lon="4.72397">
        <ele>174</ele>
        <time>2018-04-11T10:57:31Z</time>
      </trkpt>
      <trkpt lat="45.93424" lon="4.72399">
        <ele>174</ele>
        <time>2018-04-11T10:57:32Z</time>
      </trkpt>
      <trkpt lat="45.93418" lon="4.72402">
        <ele>174</ele>
        <time>2018-04-11T10:57:33Z</time>
      </trkpt>
      <trkpt lat="45.93413" lon="4.72405">
        <ele>174</ele>
        <time>2018-04-11T10:57:34Z</time>
      </trkpt>
      <trkpt lat="45.93408" lon="4.72406">
        <ele>174</ele>
        <time>2018-04-11T10:57:35Z</time>
      </trkpt>
      <trkpt lat="45.93403" lon="4.72404">
        <ele>174</ele>
        <time>2018-04-11T10:57:36Z</time>
      </trkpt>
      <trkpt lat="45.93398" lon="4.72403">
        <ele>174</ele>
        <time>2018-04-11T10:57:37Z</time>
      </trkpt>
      <trkpt lat="45.93392" lon="4.72403">
        <ele>174</ele>
        <time>2018-04-11T10:57:38Z</time>
      </trkpt>
      <trkpt lat="45.93387" lon="4.72407">
        <ele>174</ele>
        <time>2018-04-11T10:57:39Z</time>
      </trkpt>
      <trkpt lat="45.93384" lon="4.72412">
        <ele>174</ele>
        <time>2018-04-11T10:57:40Z</time>
      </trkpt>
      <trkpt lat="45.93382" lon="4.72419">
        <ele>173</ele>
        <time>2018-04-11T10:57:41Z</time>
      </trkpt>
      <trkpt lat="45.93382" lon="4.72427">
        <ele>173</ele>
        <time>2018-04-11T10:57:42Z</time>
      </trkpt>
      <trkpt lat="45.93384" lon="4.72434">
        <ele>173</ele>
        <time>2018-04-11T10:57:43Z</time>
      </trkpt>
      <trkpt lat="45.93387" lon="4.72441">
        <ele>173</ele>
        <time>2018-04-11T10:57:44Z</time>
      </trkpt>
      <trkpt lat="45.93389" lon="4.72449">
        <ele>173</ele>
        <time>2018-04-11T10:57:45Z</time>
      </trkpt>
      <trkpt lat="45.93389" lon="4.72456">
        <ele>173</ele>
        <time>2018-04-11T10:57:46Z</time>
      </trkpt>
      <trkpt lat="45.93388" lon="4.72463">
        <ele>173</ele>
        <time>2018-04-11T10:57:47Z</time>
      </trkpt>
      <trkpt lat="45.93383" lon="4.72473">
        <ele>173</ele>
        <time>2018-04-11T10:57:49Z</time>
      </trkpt>
      <trkpt lat="45.9338" lon="4.72477">
        <ele>173</ele>
        <time>2018-04-11T10:57:50Z</time>
      </trkpt>
      <trkpt lat="45.93376" lon="4.72482">
        <ele>173</ele>
        <time>2018-04-11T10:57:51Z</time>
      </trkpt>
      <trkpt lat="45.93371" lon="4.72488">
        <ele>173</ele>
        <time>2018-04-11T10:57:52Z</time>
      </trkpt>
      <trkpt lat="45.93367" lon="4.72493">
        <ele>173</ele>
        <time>2018-04-11T10:57:53Z</time>
      </trkpt>
      <trkpt lat="45.93363" lon="4.72498">
        <ele>173</ele>
        <time>2018-04-11T10:57:54Z</time>
      </trkpt>
      <trkpt lat="45.93359" lon="4.72503">
        <ele>172</ele>
        <time>2018-04-11T10:57:55Z</time>
      </trkpt>
      <trkpt lat="45.93354" lon="4.72507">
        <ele>172</ele>
        <time>2018-04-11T10:57:56Z</time>
      </trkpt>
      <trkpt lat="45.93349" lon="4.72512">
        <ele>172</ele>
        <time>2018-04-11T10:57:57Z</time>
      </trkpt>
      <trkpt lat="45.93345" lon="4.72517">
        <ele>172</ele>
        <time>2018-04-11T10:57:58Z</time>
      </trkpt>
      <trkpt lat="45.93341" lon="4.72521">
        <ele>172</ele>
        <time>2018-04-11T10:57:59Z</time>
      </trkpt>
      <trkpt lat="45.93337" lon="4.72528">
        <ele>172</ele>
        <time>2018-04-11T10:58:00Z</time>
      </trkpt>
      <trkpt lat="45.93332" lon="4.72535">
        <ele>172</ele>
        <time>2018-04-11T10:58:01Z</time>
      </trkpt>
      <trkpt lat="45.93327" lon="4.7254">
        <ele>172</ele>
        <time>2018-04-11T10:58:02Z</time>
      </trkpt>
      <trkpt lat="45.93322" lon="4.72545">
        <ele>172</ele>
        <time>2018-04-11T10:58:03Z</time>
      </trkpt>
      <trkpt lat="45.93318" lon="4.7255">
        <ele>172</ele>
        <time>2018-04-11T10:58:04Z</time>
      </trkpt>
      <trkpt lat="45.93315" lon="4.72555">
        <ele>172</ele>
        <time>2018-04-11T10:58:05Z</time>
      </trkpt>
      <trkpt lat="45.93311" lon="4.72559">
        <ele>172</ele>
        <time>2018-04-11T10:58:06Z</time>
      </trkpt>
      <trkpt lat="45.93307" lon="4.72565">
        <ele>171</ele>
        <time>2018-04-11T10:58:07Z</time>
      </trkpt>
      <trkpt lat="45.93303" lon="4.72571">
        <ele>171</ele>
        <time>2018-04-11T10:58:08Z</time>
      </trkpt>
      <trkpt lat="45.933" lon="4.72576">
        <ele>171</ele>
        <time>2018-04-11T10:58:09Z</time>
      </trkpt>
      <trkpt lat="45.93296" lon="4.72581">
        <ele>171</ele>
        <time>2018-04-11T10:58:10Z</time>
      </trkpt>
      <trkpt lat="45.93291" lon="4.72586">
        <ele>170</ele>
        <time>2018-04-11T10:58:11Z</time>
      </trkpt>
      <trkpt lat="45.93287" lon="4.72592">
        <ele>170</ele>
        <time>2018-04-11T10:58:12Z</time>
      </trkpt>
      <trkpt lat="45.93282" lon="4.72597">
        <ele>170</ele>
        <time>2018-04-11T10:58:13Z</time>
      </trkpt>
      <trkpt lat="45.93278" lon="4.72601">
        <ele>170</ele>
        <time>2018-04-11T10:58:14Z</time>
      </trkpt>
      <trkpt lat="45.93274" lon="4.72606">
        <ele>170</ele>
        <time>2018-04-11T10:58:15Z</time>
      </trkpt>
      <trkpt lat="45.93269" lon="4.72611">
        <ele>170</ele>
        <time>2018-04-11T10:58:16Z</time>
      </trkpt>
      <trkpt lat="45.93264" lon="4.72615">
        <ele>170</ele>
        <time>2018-04-11T10:58:17Z</time>
      </trkpt>
      <trkpt lat="45.9326" lon="4.7262">
        <ele>170</ele>
        <time>2018-04-11T10:58:18Z</time>
      </trkpt>
      <trkpt lat="45.93255" lon="4.72625">
        <ele>170</ele>
        <time>2018-04-11T10:58:19Z</time>
      </trkpt>
      <trkpt lat="45.9325" lon="4.7263">
        <ele>170</ele>
        <time>2018-04-11T10:58:20Z</time>
      </trkpt>
      <trkpt lat="45.93246" lon="4.72636">
        <ele>170</ele>
        <time>2018-04-11T10:58:21Z</time>
      </trkpt>
      <trkpt lat="45.93243" lon="4.72639">
        <ele>170</ele>
        <time>2018-04-11T10:58:22Z</time>
      </trkpt>
      <trkpt lat="45.93239" lon="4.72644">
        <ele>170</ele>
        <time>2018-04-11T10:58:23Z</time>
      </trkpt>
      <trkpt lat="45.93236" lon="4.72648">
        <ele>170</ele>
        <time>2018-04-11T10:58:24Z</time>
      </trkpt>
      <trkpt lat="45.93232" lon="4.72652">
        <ele>170</ele>
        <time>2018-04-11T10:58:25Z</time>
      </trkpt>
      <trkpt lat="45.93228" lon="4.72656">
        <ele>170</ele>
        <time>2018-04-11T10:58:26Z</time>
      </trkpt>
      <trkpt lat="45.93224" lon="4.7266">
        <ele>170</ele>
        <time>2018-04-11T10:58:27Z</time>
      </trkpt>
      <trkpt lat="45.9322" lon="4.72662">
        <ele>170</ele>
        <time>2018-04-11T10:58:28Z</time>
      </trkpt>
      <trkpt lat="45.93216" lon="4.72667">
        <ele>169</ele>
        <time>2018-04-11T10:58:29Z</time>
      </trkpt>
      <trkpt lat="45.93213" lon="4.72671">
        <ele>169</ele>
        <time>2018-04-11T10:58:30Z</time>
      </trkpt>
      <trkpt lat="45.93206" lon="4.7268">
        <ele>169</ele>
        <time>2018-04-11T10:58:32Z</time>
      </trkpt>
      <trkpt lat="45.93202" lon="4.72685">
        <ele>169</ele>
        <time>2018-04-11T10:58:33Z</time>
      </trkpt>
      <trkpt lat="45.93198" lon="4.7269">
        <ele>169</ele>
        <time>2018-04-11T10:58:34Z</time>
      </trkpt>
      <trkpt lat="45.93194" lon="4.72695">
        <ele>169</ele>
        <time>2018-04-11T10:58:35Z</time>
      </trkpt>
      <trkpt lat="45.9319" lon="4.72701">
        <ele>169</ele>
        <time>2018-04-11T10:58:36Z</time>
      </trkpt>
      <trkpt lat="45.93185" lon="4.72706">
        <ele>169</ele>
        <time>2018-04-11T10:58:37Z</time>
      </trkpt>
      <trkpt lat="45.93181" lon="4.72711">
        <ele>169</ele>
        <time>2018-04-11T10:58:38Z</time>
      </trkpt>
      <trkpt lat="45.93177" lon="4.72717">
        <ele>170</ele>
        <time>2018-04-11T10:58:39Z</time>
      </trkpt>
      <trkpt lat="45.93172" lon="4.72723">
        <ele>170</ele>
        <time>2018-04-11T10:58:40Z</time>
      </trkpt>
      <trkpt lat="45.93167" lon="4.72728">
        <ele>170</ele>
        <time>2018-04-11T10:58:41Z</time>
      </trkpt>
      <trkpt lat="45.93162" lon="4.72733">
        <ele>170</ele>
        <time>2018-04-11T10:58:42Z</time>
      </trkpt>
      <trkpt lat="45.93157" lon="4.72738">
        <ele>170</ele>
        <time>2018-04-11T10:58:43Z</time>
      </trkpt>
      <trkpt lat="45.93152" lon="4.72743">
        <ele>170</ele>
        <time>2018-04-11T10:58:44Z</time>
      </trkpt>
      <trkpt lat="45.93148" lon="4.72748">
        <ele>170</ele>
        <time>2018-04-11T10:58:45Z</time>
      </trkpt>
      <trkpt lat="45.93144" lon="4.72753">
        <ele>171</ele>
        <time>2018-04-11T10:58:46Z</time>
      </trkpt>
      <trkpt lat="45.93139" lon="4.72758">
        <ele>171</ele>
        <time>2018-04-11T10:58:47Z</time>
      </trkpt>
      <trkpt lat="45.93134" lon="4.72765">
        <ele>171</ele>
        <time>2018-04-11T10:58:48Z</time>
      </trkpt>
      <trkpt lat="45.93129" lon="4.7277">
        <ele>171</ele>
        <time>2018-04-11T10:58:49Z</time>
      </trkpt>
      <trkpt lat="45.93123" lon="4.72775">
        <ele>171</ele>
        <time>2018-04-11T10:58:50Z</time>
      </trkpt>
      <trkpt lat="45.93118" lon="4.72781">
        <ele>171</ele>
        <time>2018-04-11T10:58:51Z</time>
      </trkpt>
      <trkpt lat="45.93114" lon="4.72789">
        <ele>171</ele>
        <time>2018-04-11T10:58:52Z</time>
      </trkpt>
      <trkpt lat="45.9311" lon="4.72794">
        <ele>171</ele>
        <time>2018-04-11T10:58:53Z</time>
      </trkpt>
      <trkpt lat="45.93105" lon="4.72799">
        <ele>171</ele>
        <time>2018-04-11T10:58:54Z</time>
      </trkpt>
      <trkpt lat="45.931" lon="4.72805">
        <ele>171</ele>
        <time>2018-04-11T10:58:55Z</time>
      </trkpt>
      <trkpt lat="45.93095" lon="4.72811">
        <ele>172</ele>
        <time>2018-04-11T10:58:56Z</time>
      </trkpt>
      <trkpt lat="45.9309" lon="4.72816">
        <ele>172</ele>
        <time>2018-04-11T10:58:57Z</time>
      </trkpt>
      <trkpt lat="45.93086" lon="4.72821">
        <ele>172</ele>
        <time>2018-04-11T10:58:58Z</time>
      </trkpt>
      <trkpt lat="45.9308" lon="4.72827">
        <ele>173</ele>
        <time>2018-04-11T10:58:59Z</time>
      </trkpt>
      <trkpt lat="45.93078" lon="4.72831">
        <ele>173</ele>
        <time>2018-04-11T10:59:01Z</time>
      </trkpt>
      <trkpt lat="45.93076" lon="4.72839">
        <ele>173</ele>
        <time>2018-04-11T10:59:02Z</time>
      </trkpt>
      <trkpt lat="45.93075" lon="4.72848">
        <ele>172</ele>
        <time>2018-04-11T10:59:03Z</time>
      </trkpt>
      <trkpt lat="45.93073" lon="4.72855">
        <ele>172</ele>
        <time>2018-04-11T10:59:04Z</time>
      </trkpt>
      <trkpt lat="45.93065" lon="4.72863">
        <ele>172</ele>
        <time>2018-04-11T10:59:05Z</time>
      </trkpt>
      <trkpt lat="45.93056" lon="4.72862">
        <ele>172</ele>
        <time>2018-04-11T10:59:06Z</time>
      </trkpt>
      <trkpt lat="45.93049" lon="4.72864">
        <ele>172</ele>
        <time>2018-04-11T10:59:07Z</time>
      </trkpt>
      <trkpt lat="45.93045" lon="4.72869">
        <ele>172</ele>
        <time>2018-04-11T10:59:08Z</time>
      </trkpt>
      <trkpt lat="45.93041" lon="4.72874">
        <ele>172</ele>
        <time>2018-04-11T10:59:09Z</time>
      </trkpt>
      <trkpt lat="45.93036" lon="4.72879">
        <ele>172</ele>
        <time>2018-04-11T10:59:10Z</time>
      </trkpt>
      <trkpt lat="45.93032" lon="4.72883">
        <ele>172</ele>
        <time>2018-04-11T10:59:11Z</time>
      </trkpt>
      <trkpt lat="45.93027" lon="4.72889">
        <ele>172</ele>
        <time>2018-04-11T10:59:12Z</time>
      </trkpt>
      <trkpt lat="45.93023" lon="4.72895">
        <ele>172</ele>
        <time>2018-04-11T10:59:13Z</time>
      </trkpt>
      <trkpt lat="45.93017" lon="4.729">
        <ele>172</ele>
        <time>2018-04-11T10:59:14Z</time>
      </trkpt>
      <trkpt lat="45.93012" lon="4.72905">
        <ele>171</ele>
        <time>2018-04-11T10:59:15Z</time>
      </trkpt>
      <trkpt lat="45.93008" lon="4.72909">
        <ele>171</ele>
        <time>2018-04-11T10:59:16Z</time>
      </trkpt>
      <trkpt lat="45.93004" lon="4.72914">
        <ele>171</ele>
        <time>2018-04-11T10:59:17Z</time>
      </trkpt>
      <trkpt lat="45.93" lon="4.72918">
        <ele>171</ele>
        <time>2018-04-11T10:59:18Z</time>
      </trkpt>
      <trkpt lat="45.92996" lon="4.72922">
        <ele>171</ele>
        <time>2018-04-11T10:59:19Z</time>
      </trkpt>
      <trkpt lat="45.92991" lon="4.72926">
        <ele>171</ele>
        <time>2018-04-11T10:59:20Z</time>
      </trkpt>
      <trkpt lat="45.92987" lon="4.72933">
        <ele>171</ele>
        <time>2018-04-11T10:59:21Z</time>
      </trkpt>
      <trkpt lat="45.92983" lon="4.72939">
        <ele>171</ele>
        <time>2018-04-11T10:59:22Z</time>
      </trkpt>
      <trkpt lat="45.92979" lon="4.72944">
        <ele>171</ele>
        <time>2018-04-11T10:59:23Z</time>
      </trkpt>
      <trkpt lat="45.92974" lon="4.72949">
        <ele>171</ele>
        <time>2018-04-11T10:59:24Z</time>
      </trkpt>
      <trkpt lat="45.9297" lon="4.72954">
        <ele>171</ele>
        <time>2018-04-11T10:59:25Z</time>
      </trkpt>
      <trkpt lat="45.92966" lon="4.72959">
        <ele>171</ele>
        <time>2018-04-11T10:59:26Z</time>
      </trkpt>
      <trkpt lat="45.92961" lon="4.72963">
        <ele>171</ele>
        <time>2018-04-11T10:59:27Z</time>
      </trkpt>
      <trkpt lat="45.92957" lon="4.72968">
        <ele>171</ele>
        <time>2018-04-11T10:59:28Z</time>
      </trkpt>
      <trkpt lat="45.92953" lon="4.72972">
        <ele>171</ele>
        <time>2018-04-11T10:59:29Z</time>
      </trkpt>
      <trkpt lat="45.9295" lon="4.72977">
        <ele>171</ele>
        <time>2018-04-11T10:59:30Z</time>
      </trkpt>
      <trkpt lat="45.92946" lon="4.72982">
        <ele>171</ele>
        <time>2018-04-11T10:59:31Z</time>
      </trkpt>
      <trkpt lat="45.92941" lon="4.72987">
        <ele>171</ele>
        <time>2018-04-11T10:59:32Z</time>
      </trkpt>
      <trkpt lat="45.92938" lon="4.72992">
        <ele>171</ele>
        <time>2018-04-11T10:59:33Z</time>
      </trkpt>
      <trkpt lat="45.92934" lon="4.72998">
        <ele>172</ele>
        <time>2018-04-11T10:59:34Z</time>
      </trkpt>
      <trkpt lat="45.9293" lon="4.73004">
        <ele>172</ele>
        <time>2018-04-11T10:59:35Z</time>
      </trkpt>
      <trkpt lat="45.92926" lon="4.73009">
        <ele>172</ele>
        <time>2018-04-11T10:59:36Z</time>
      </trkpt>
      <trkpt lat="45.92921" lon="4.73014">
        <ele>172</ele>
        <time>2018-04-11T10:59:37Z</time>
      </trkpt>
      <trkpt lat="45.92917" lon="4.73019">
        <ele>172</ele>
        <time>2018-04-11T10:59:38Z</time>
      </trkpt>
      <trkpt lat="45.92913" lon="4.73023">
        <ele>172</ele>
        <time>2018-04-11T10:59:39Z</time>
      </trkpt>
      <trkpt lat="45.92909" lon="4.73029">
        <ele>172</ele>
        <time>2018-04-11T10:59:40Z</time>
      </trkpt>
      <trkpt lat="45.92906" lon="4.73034">
        <ele>172</ele>
        <time>2018-04-11T10:59:41Z</time>
      </trkpt>
      <trkpt lat="45.92903" lon="4.73039">
        <ele>172</ele>
        <time>2018-04-11T10:59:42Z</time>
      </trkpt>
      <trkpt lat="45.92899" lon="4.73044">
        <ele>172</ele>
        <time>2018-04-11T10:59:43Z</time>
      </trkpt>
      <trkpt lat="45.92896" lon="4.73049">
        <ele>172</ele>
        <time>2018-04-11T10:59:44Z</time>
      </trkpt>
      <trkpt lat="45.92893" lon="4.73054">
        <ele>172</ele>
        <time>2018-04-11T10:59:45Z</time>
      </trkpt>
      <trkpt lat="45.92889" lon="4.7306">
        <ele>172</ele>
        <time>2018-04-11T10:59:46Z</time>
      </trkpt>
      <trkpt lat="45.92887" lon="4.73067">
        <ele>172</ele>
        <time>2018-04-11T10:59:47Z</time>
      </trkpt>
      <trkpt lat="45.92884" lon="4.73072">
        <ele>172</ele>
        <time>2018-04-11T10:59:48Z</time>
      </trkpt>
      <trkpt lat="45.92881" lon="4.73077">
        <ele>172</ele>
        <time>2018-04-11T10:59:49Z</time>
      </trkpt>
      <trkpt lat="45.92877" lon="4.73082">
        <ele>172</ele>
        <time>2018-04-11T10:59:50Z</time>
      </trkpt>
      <trkpt lat="45.92874" lon="4.73086">
        <ele>172</ele>
        <time>2018-04-11T10:59:51Z</time>
      </trkpt>
      <trkpt lat="45.9287" lon="4.73091">
        <ele>172</ele>
        <time>2018-04-11T10:59:52Z</time>
      </trkpt>
      <trkpt lat="45.92866" lon="4.73096">
        <ele>172</ele>
        <time>2018-04-11T10:59:53Z</time>
      </trkpt>
      <trkpt lat="45.92862" lon="4.73101">
        <ele>171</ele>
        <time>2018-04-11T10:59:54Z</time>
      </trkpt>
      <trkpt lat="45.92858" lon="4.73105">
        <ele>171</ele>
        <time>2018-04-11T10:59:55Z</time>
      </trkpt>
      <trkpt lat="45.9285" lon="4.73103">
        <ele>171</ele>
        <time>2018-04-11T10:59:57Z</time>
      </trkpt>
      <trkpt lat="45.92848" lon="4.73099">
        <ele>171</ele>
        <time>2018-04-11T10:59:58Z</time>
      </trkpt>
      <trkpt lat="45.92846" lon="4.73086">
        <ele>171</ele>
        <time>2018-04-11T11:00:00Z</time>
      </trkpt>
      <trkpt lat="45.92846" lon="4.73079">
        <ele>171</ele>
        <time>2018-04-11T11:00:01Z</time>
      </trkpt>
      <trkpt lat="45.92845" lon="4.73073">
        <ele>171</ele>
        <time>2018-04-11T11:00:02Z</time>
      </trkpt>
      <trkpt lat="45.92844" lon="4.73066">
        <ele>171</ele>
        <time>2018-04-11T11:00:03Z</time>
      </trkpt>
      <trkpt lat="45.92843" lon="4.7306">
        <ele>171</ele>
        <time>2018-04-11T11:00:04Z</time>
      </trkpt>
      <trkpt lat="45.92841" lon="4.73052">
        <ele>171</ele>
        <time>2018-04-11T11:00:05Z</time>
      </trkpt>
      <trkpt lat="45.92839" lon="4.73045">
        <ele>171</ele>
        <time>2018-04-11T11:00:06Z</time>
      </trkpt>
      <trkpt lat="45.92838" lon="4.73037">
        <ele>171</ele>
        <time>2018-04-11T11:00:07Z</time>
      </trkpt>
      <trkpt lat="45.92836" lon="4.73029">
        <ele>171</ele>
        <time>2018-04-11T11:00:08Z</time>
      </trkpt>
      <trkpt lat="45.92835" lon="4.73021">
        <ele>171</ele>
        <time>2018-04-11T11:00:09Z</time>
      </trkpt>
      <trkpt lat="45.92833" lon="4.73013">
        <ele>170</ele>
        <time>2018-04-11T11:00:10Z</time>
      </trkpt>
      <trkpt lat="45.92832" lon="4.73005">
        <ele>170</ele>
        <time>2018-04-11T11:00:11Z</time>
      </trkpt>
      <trkpt lat="45.92831" lon="4.72997">
        <ele>170</ele>
        <time>2018-04-11T11:00:12Z</time>
      </trkpt>
      <trkpt lat="45.9283" lon="4.7299">
        <ele>170</ele>
        <time>2018-04-11T11:00:13Z</time>
      </trkpt>
      <trkpt lat="45.9283" lon="4.72983">
        <ele>170</ele>
        <time>2018-04-11T11:00:14Z</time>
      </trkpt>
      <trkpt lat="45.92829" lon="4.72976">
        <ele>170</ele>
        <time>2018-04-11T11:00:15Z</time>
      </trkpt>
      <trkpt lat="45.92828" lon="4.7297">
        <ele>170</ele>
        <time>2018-04-11T11:00:16Z</time>
      </trkpt>
      <trkpt lat="45.92828" lon="4.72963">
        <ele>170</ele>
        <time>2018-04-11T11:00:17Z</time>
      </trkpt>
      <trkpt lat="45.92826" lon="4.7295">
        <ele>170</ele>
        <time>2018-04-11T11:00:19Z</time>
      </trkpt>
      <trkpt lat="45.92825" lon="4.72944">
        <ele>170</ele>
        <time>2018-04-11T11:00:20Z</time>
      </trkpt>
      <trkpt lat="45.92824" lon="4.72936">
        <ele>170</ele>
        <time>2018-04-11T11:00:21Z</time>
      </trkpt>
      <trkpt lat="45.92824" lon="4.72929">
        <ele>170</ele>
        <time>2018-04-11T11:00:22Z</time>
      </trkpt>
      <trkpt lat="45.92823" lon="4.72922">
        <ele>170</ele>
        <time>2018-04-11T11:00:23Z</time>
      </trkpt>
      <trkpt lat="45.92822" lon="4.72915">
        <ele>170</ele>
        <time>2018-04-11T11:00:24Z</time>
      </trkpt>
      <trkpt lat="45.92822" lon="4.72908">
        <ele>170</ele>
        <time>2018-04-11T11:00:25Z</time>
      </trkpt>
      <trkpt lat="45.92821" lon="4.72901">
        <ele>170</ele>
        <time>2018-04-11T11:00:26Z</time>
      </trkpt>
      <trkpt lat="45.92819" lon="4.72889">
        <ele>170</ele>
        <time>2018-04-11T11:00:28Z</time>
      </trkpt>
      <trkpt lat="45.92817" lon="4.72882">
        <ele>170</ele>
        <time>2018-04-11T11:00:29Z</time>
      </trkpt>
      <trkpt lat="45.92816" lon="4.72876">
        <ele>170</ele>
        <time>2018-04-11T11:00:30Z</time>
      </trkpt>
      <trkpt lat="45.92814" lon="4.72869">
        <ele>170</ele>
        <time>2018-04-11T11:00:31Z</time>
      </trkpt>
      <trkpt lat="45.92813" lon="4.72863">
        <ele>170</ele>
        <time>2018-04-11T11:00:32Z</time>
      </trkpt>
      <trkpt lat="45.92812" lon="4.72855">
        <ele>170</ele>
        <time>2018-04-11T11:00:33Z</time>
      </trkpt>
      <trkpt lat="45.9281" lon="4.72848">
        <ele>170</ele>
        <time>2018-04-11T11:00:34Z</time>
      </trkpt>
      <trkpt lat="45.92809" lon="4.72841">
        <ele>170</ele>
        <time>2018-04-11T11:00:35Z</time>
      </trkpt>
      <trkpt lat="45.92808" lon="4.72835">
        <ele>170</ele>
        <time>2018-04-11T11:00:36Z</time>
      </trkpt>
      <trkpt lat="45.92807" lon="4.72828">
        <ele>171</ele>
        <time>2018-04-11T11:00:37Z</time>
      </trkpt>
      <trkpt lat="45.92806" lon="4.72821">
        <ele>171</ele>
        <time>2018-04-11T11:00:38Z</time>
      </trkpt>
      <trkpt lat="45.92805" lon="4.72815">
        <ele>171</ele>
        <time>2018-04-11T11:00:39Z</time>
      </trkpt>
      <trkpt lat="45.92804" lon="4.72808">
        <ele>171</ele>
        <time>2018-04-11T11:00:40Z</time>
      </trkpt>
      <trkpt lat="45.92803" lon="4.72802">
        <ele>171</ele>
        <time>2018-04-11T11:00:41Z</time>
      </trkpt>
      <trkpt lat="45.92801" lon="4.72791">
        <ele>171</ele>
        <time>2018-04-11T11:00:43Z</time>
      </trkpt>
      <trkpt lat="45.92798" lon="4.72789">
        <ele>171</ele>
        <time>2018-04-11T11:00:44Z</time>
      </trkpt>
      <trkpt lat="45.92791" lon="4.72788">
        <ele>171</ele>
        <time>2018-04-11T11:00:46Z</time>
      </trkpt>
      <trkpt lat="45.92787" lon="4.72791">
        <ele>170</ele>
        <time>2018-04-11T11:00:47Z</time>
      </trkpt>
      <trkpt lat="45.92782" lon="4.72794">
        <ele>170</ele>
        <time>2018-04-11T11:00:48Z</time>
      </trkpt>
      <trkpt lat="45.92779" lon="4.72798">
        <ele>170</ele>
        <time>2018-04-11T11:00:49Z</time>
      </trkpt>
      <trkpt lat="45.92775" lon="4.72802">
        <ele>170</ele>
        <time>2018-04-11T11:00:50Z</time>
      </trkpt>
      <trkpt lat="45.9277" lon="4.72805">
        <ele>170</ele>
        <time>2018-04-11T11:00:51Z</time>
      </trkpt>
      <trkpt lat="45.92763" lon="4.72812">
        <ele>170</ele>
        <time>2018-04-11T11:00:53Z</time>
      </trkpt>
      <trkpt lat="45.92759" lon="4.72815">
        <ele>170</ele>
        <time>2018-04-11T11:00:54Z</time>
      </trkpt>
      <trkpt lat="45.92755" lon="4.72819">
        <ele>170</ele>
        <time>2018-04-11T11:00:55Z</time>
      </trkpt>
      <trkpt lat="45.92751" lon="4.72822">
        <ele>170</ele>
        <time>2018-04-11T11:00:56Z</time>
      </trkpt>
      <trkpt lat="45.92747" lon="4.72826">
        <ele>169</ele>
        <time>2018-04-11T11:00:57Z</time>
      </trkpt>
      <trkpt lat="45.92742" lon="4.72829">
        <ele>169</ele>
        <time>2018-04-11T11:00:58Z</time>
      </trkpt>
      <trkpt lat="45.92737" lon="4.72834">
        <ele>169</ele>
        <time>2018-04-11T11:00:59Z</time>
      </trkpt>
      <trkpt lat="45.92732" lon="4.72837">
        <ele>169</ele>
        <time>2018-04-11T11:01:00Z</time>
      </trkpt>
      <trkpt lat="45.92728" lon="4.72841">
        <ele>169</ele>
        <time>2018-04-11T11:01:01Z</time>
      </trkpt>
      <trkpt lat="45.92722" lon="4.72846">
        <ele>169</ele>
        <time>2018-04-11T11:01:02Z</time>
      </trkpt>
      <trkpt lat="45.92716" lon="4.7285">
        <ele>169</ele>
        <time>2018-04-11T11:01:03Z</time>
      </trkpt>
      <trkpt lat="45.92711" lon="4.72854">
        <ele>169</ele>
        <time>2018-04-11T11:01:04Z</time>
      </trkpt>
      <trkpt lat="45.92705" lon="4.72857">
        <ele>169</ele>
        <time>2018-04-11T11:01:05Z</time>
      </trkpt>
      <trkpt lat="45.927" lon="4.7286">
        <ele>169</ele>
        <time>2018-04-11T11:01:06Z</time>
      </trkpt>
      <trkpt lat="45.92694" lon="4.72864">
        <ele>169</ele>
        <time>2018-04-11T11:01:07Z</time>
      </trkpt>
      <trkpt lat="45.92689" lon="4.72868">
        <ele>169</ele>
        <time>2018-04-11T11:01:08Z</time>
      </trkpt>
      <trkpt lat="45.92684" lon="4.72872">
        <ele>169</ele>
        <time>2018-04-11T11:01:09Z</time>
      </trkpt>
      <trkpt lat="45.92679" lon="4.72876">
        <ele>170</ele>
        <time>2018-04-11T11:01:10Z</time>
      </trkpt>
      <trkpt lat="45.92674" lon="4.7288">
        <ele>170</ele>
        <time>2018-04-11T11:01:11Z</time>
      </trkpt>
      <trkpt lat="45.92669" lon="4.72883">
        <ele>170</ele>
        <time>2018-04-11T11:01:12Z</time>
      </trkpt>
      <trkpt lat="45.92665" lon="4.72888">
        <ele>169</ele>
        <time>2018-04-11T11:01:13Z</time>
      </trkpt>
      <trkpt lat="45.92661" lon="4.72892">
        <ele>169</ele>
        <time>2018-04-11T11:01:14Z</time>
      </trkpt>
      <trkpt lat="45.92656" lon="4.72896">
        <ele>170</ele>
        <time>2018-04-11T11:01:15Z</time>
      </trkpt>
      <trkpt lat="45.92651" lon="4.72898">
        <ele>170</ele>
        <time>2018-04-11T11:01:16Z</time>
      </trkpt>
      <trkpt lat="45.92646" lon="4.72902">
        <ele>169</ele>
        <time>2018-04-11T11:01:17Z</time>
      </trkpt>
      <trkpt lat="45.92641" lon="4.72907">
        <ele>169</ele>
        <time>2018-04-11T11:01:18Z</time>
      </trkpt>
      <trkpt lat="45.92635" lon="4.7291">
        <ele>169</ele>
        <time>2018-04-11T11:01:19Z</time>
      </trkpt>
      <trkpt lat="45.9263" lon="4.72914">
        <ele>169</ele>
        <time>2018-04-11T11:01:20Z</time>
      </trkpt>
      <trkpt lat="45.92625" lon="4.72918">
        <ele>170</ele>
        <time>2018-04-11T11:01:21Z</time>
      </trkpt>
      <trkpt lat="45.92621" lon="4.72922">
        <ele>169</ele>
        <time>2018-04-11T11:01:22Z</time>
      </trkpt>
      <trkpt lat="45.92616" lon="4.72926">
        <ele>169</ele>
        <time>2018-04-11T11:01:23Z</time>
      </trkpt>
      <trkpt lat="45.92611" lon="4.7293">
        <ele>169</ele>
        <time>2018-04-11T11:01:24Z</time>
      </trkpt>
      <trkpt lat="45.92606" lon="4.72935">
        <ele>169</ele>
        <time>2018-04-11T11:01:25Z</time>
      </trkpt>
      <trkpt lat="45.92601" lon="4.72941">
        <ele>169</ele>
        <time>2018-04-11T11:01:26Z</time>
      </trkpt>
      <trkpt lat="45.92596" lon="4.72946">
        <ele>169</ele>
        <time>2018-04-11T11:01:27Z</time>
      </trkpt>
      <trkpt lat="45.92592" lon="4.72951">
        <ele>169</ele>
        <time>2018-04-11T11:01:28Z</time>
      </trkpt>
      <trkpt lat="45.92588" lon="4.72957">
        <ele>169</ele>
        <time>2018-04-11T11:01:29Z</time>
      </trkpt>
      <trkpt lat="45.92583" lon="4.72964">
        <ele>169</ele>
        <time>2018-04-11T11:01:30Z</time>
      </trkpt>
      <trkpt lat="45.92579" lon="4.72969">
        <ele>169</ele>
        <time>2018-04-11T11:01:31Z</time>
      </trkpt>
      <trkpt lat="45.92574" lon="4.72975">
        <ele>169</ele>
        <time>2018-04-11T11:01:32Z</time>
      </trkpt>
      <trkpt lat="45.9257" lon="4.72979">
        <ele>169</ele>
        <time>2018-04-11T11:01:33Z</time>
      </trkpt>
      <trkpt lat="45.92565" lon="4.72985">
        <ele>169</ele>
        <time>2018-04-11T11:01:34Z</time>
      </trkpt>
      <trkpt lat="45.9256" lon="4.72991">
        <ele>169</ele>
        <time>2018-04-11T11:01:35Z</time>
      </trkpt>
      <trkpt lat="45.92554" lon="4.72996">
        <ele>169</ele>
        <time>2018-04-11T11:01:36Z</time>
      </trkpt>
      <trkpt lat="45.92549" lon="4.73">
        <ele>169</ele>
        <time>2018-04-11T11:01:37Z</time>
      </trkpt>
      <trkpt lat="45.92542" lon="4.73006">
        <ele>169</ele>
        <time>2018-04-11T11:01:38Z</time>
      </trkpt>
      <trkpt lat="45.92537" lon="4.73012">
        <ele>169</ele>
        <time>2018-04-11T11:01:39Z</time>
      </trkpt>
      <trkpt lat="45.92532" lon="4.73016">
        <ele>169</ele>
        <time>2018-04-11T11:01:40Z</time>
      </trkpt>
      <trkpt lat="45.92526" lon="4.73022">
        <ele>169</ele>
        <time>2018-04-11T11:01:41Z</time>
      </trkpt>
      <trkpt lat="45.9252" lon="4.73027">
        <ele>169</ele>
        <time>2018-04-11T11:01:42Z</time>
      </trkpt>
      <trkpt lat="45.92516" lon="4.73033">
        <ele>169</ele>
        <time>2018-04-11T11:01:43Z</time>
      </trkpt>
      <trkpt lat="45.9251" lon="4.73038">
        <ele>169</ele>
        <time>2018-04-11T11:01:44Z</time>
      </trkpt>
      <trkpt lat="45.92504" lon="4.73043">
        <ele>170</ele>
        <time>2018-04-11T11:01:45Z</time>
      </trkpt>
      <trkpt lat="45.92499" lon="4.73047">
        <ele>170</ele>
        <time>2018-04-11T11:01:46Z</time>
      </trkpt>
      <trkpt lat="45.92494" lon="4.73052">
        <ele>170</ele>
        <time>2018-04-11T11:01:47Z</time>
      </trkpt>
      <trkpt lat="45.92489" lon="4.73056">
        <ele>170</ele>
        <time>2018-04-11T11:01:48Z</time>
      </trkpt>
      <trkpt lat="45.92484" lon="4.73061">
        <ele>170</ele>
        <time>2018-04-11T11:01:49Z</time>
      </trkpt>
      <trkpt lat="45.92479" lon="4.73065">
        <ele>170</ele>
        <time>2018-04-11T11:01:50Z</time>
      </trkpt>
      <trkpt lat="45.92475" lon="4.73067">
        <ele>170</ele>
        <time>2018-04-11T11:01:51Z</time>
      </trkpt>
      <trkpt lat="45.9247" lon="4.73072">
        <ele>170</ele>
        <time>2018-04-11T11:01:52Z</time>
      </trkpt>
      <trkpt lat="45.92465" lon="4.73076">
        <ele>170</ele>
        <time>2018-04-11T11:01:53Z</time>
      </trkpt>
      <trkpt lat="45.92461" lon="4.7308">
        <ele>170</ele>
        <time>2018-04-11T11:01:54Z</time>
      </trkpt>
      <trkpt lat="45.92456" lon="4.73085">
        <ele>170</ele>
        <time>2018-04-11T11:01:55Z</time>
      </trkpt>
      <trkpt lat="45.92451" lon="4.73089">
        <ele>170</ele>
        <time>2018-04-11T11:01:56Z</time>
      </trkpt>
      <trkpt lat="45.92446" lon="4.73092">
        <ele>170</ele>
        <time>2018-04-11T11:01:57Z</time>
      </trkpt>
      <trkpt lat="45.92442" lon="4.73096">
        <ele>170</ele>
        <time>2018-04-11T11:01:58Z</time>
      </trkpt>
      <trkpt lat="45.92438" lon="4.73099">
        <ele>170</ele>
        <time>2018-04-11T11:01:59Z</time>
      </trkpt>
      <trkpt lat="45.92433" lon="4.73103">
        <ele>170</ele>
        <time>2018-04-11T11:02:00Z</time>
      </trkpt>
      <trkpt lat="45.92428" lon="4.73108">
        <ele>170</ele>
        <time>2018-04-11T11:02:01Z</time>
      </trkpt>
      <trkpt lat="45.92424" lon="4.73111">
        <ele>170</ele>
        <time>2018-04-11T11:02:02Z</time>
      </trkpt>
      <trkpt lat="45.92419" lon="4.73115">
        <ele>170</ele>
        <time>2018-04-11T11:02:03Z</time>
      </trkpt>
      <trkpt lat="45.92414" lon="4.73118">
        <ele>171</ele>
        <time>2018-04-11T11:02:04Z</time>
      </trkpt>
      <trkpt lat="45.92411" lon="4.73124">
        <ele>171</ele>
        <time>2018-04-11T11:02:05Z</time>
      </trkpt>
      <trkpt lat="45.92409" lon="4.7313">
        <ele>171</ele>
        <time>2018-04-11T11:02:06Z</time>
      </trkpt>
      <trkpt lat="45.92408" lon="4.73136">
        <ele>171</ele>
        <time>2018-04-11T11:02:07Z</time>
      </trkpt>
      <trkpt lat="45.92408" lon="4.73144">
        <ele>171</ele>
        <time>2018-04-11T11:02:08Z</time>
      </trkpt>
      <trkpt lat="45.92408" lon="4.73152">
        <ele>171</ele>
        <time>2018-04-11T11:02:09Z</time>
      </trkpt>
      <trkpt lat="45.92408" lon="4.7316">
        <ele>170</ele>
        <time>2018-04-11T11:02:10Z</time>
      </trkpt>
      <trkpt lat="45.92408" lon="4.73168">
        <ele>170</ele>
        <time>2018-04-11T11:02:11Z</time>
      </trkpt>
      <trkpt lat="45.92408" lon="4.73176">
        <ele>171</ele>
        <time>2018-04-11T11:02:12Z</time>
      </trkpt>
      <trkpt lat="45.92408" lon="4.73185">
        <ele>171</ele>
        <time>2018-04-11T11:02:13Z</time>
      </trkpt>
      <trkpt lat="45.92408" lon="4.73194">
        <ele>171</ele>
        <time>2018-04-11T11:02:14Z</time>
      </trkpt>
      <trkpt lat="45.92408" lon="4.73202">
        <ele>171</ele>
        <time>2018-04-11T11:02:15Z</time>
      </trkpt>
      <trkpt lat="45.92409" lon="4.73211">
        <ele>171</ele>
        <time>2018-04-11T11:02:16Z</time>
      </trkpt>
      <trkpt lat="45.9241" lon="4.7322">
        <ele>171</ele>
        <time>2018-04-11T11:02:17Z</time>
      </trkpt>
      <trkpt lat="45.92411" lon="4.73227">
        <ele>171</ele>
        <time>2018-04-11T11:02:18Z</time>
      </trkpt>
      <trkpt lat="45.92411" lon="4.73237">
        <ele>171</ele>
        <time>2018-04-11T11:02:19Z</time>
      </trkpt>
      <trkpt lat="45.92412" lon="4.73245">
        <ele>171</ele>
        <time>2018-04-11T11:02:20Z</time>
      </trkpt>
      <trkpt lat="45.92412" lon="4.73253">
        <ele>171</ele>
        <time>2018-04-11T11:02:21Z</time>
      </trkpt>
      <trkpt lat="45.92413" lon="4.73262">
        <ele>171</ele>
        <time>2018-04-11T11:02:22Z</time>
      </trkpt>
      <trkpt lat="45.92413" lon="4.7327">
        <ele>171</ele>
        <time>2018-04-11T11:02:23Z</time>
      </trkpt>
      <trkpt lat="45.92414" lon="4.73279">
        <ele>171</ele>
        <time>2018-04-11T11:02:24Z</time>
      </trkpt>
      <trkpt lat="45.92414" lon="4.73287">
        <ele>171</ele>
        <time>2018-04-11T11:02:25Z</time>
      </trkpt>
      <trkpt lat="45.92415" lon="4.73295">
        <ele>171</ele>
        <time>2018-04-11T11:02:26Z</time>
      </trkpt>
      <trkpt lat="45.92416" lon="4.73304">
        <ele>171</ele>
        <time>2018-04-11T11:02:27Z</time>
      </trkpt>
      <trkpt lat="45.92416" lon="4.73314">
        <ele>171</ele>
        <time>2018-04-11T11:02:28Z</time>
      </trkpt>
      <trkpt lat="45.92417" lon="4.73322">
        <ele>171</ele>
        <time>2018-04-11T11:02:29Z</time>
      </trkpt>
      <trkpt lat="45.92417" lon="4.73329">
        <ele>171</ele>
        <time>2018-04-11T11:02:30Z</time>
      </trkpt>
      <trkpt lat="45.92418" lon="4.73337">
        <ele>171</ele>
        <time>2018-04-11T11:02:31Z</time>
      </trkpt>
      <trkpt lat="45.92419" lon="4.73345">
        <ele>171</ele>
        <time>2018-04-11T11:02:32Z</time>
      </trkpt>
      <trkpt lat="45.92419" lon="4.73353">
        <ele>171</ele>
        <time>2018-04-11T11:02:33Z</time>
      </trkpt>
      <trkpt lat="45.92421" lon="4.73361">
        <ele>172</ele>
        <time>2018-04-11T11:02:34Z</time>
      </trkpt>
      <trkpt lat="45.92422" lon="4.73368">
        <ele>172</ele>
        <time>2018-04-11T11:02:35Z</time>
      </trkpt>
      <trkpt lat="45.92423" lon="4.73376">
        <ele>172</ele>
        <time>2018-04-11T11:02:36Z</time>
      </trkpt>
      <trkpt lat="45.92423" lon="4.73383">
        <ele>172</ele>
        <time>2018-04-11T11:02:37Z</time>
      </trkpt>
      <trkpt lat="45.92424" lon="4.7339">
        <ele>172</ele>
        <time>2018-04-11T11:02:38Z</time>
      </trkpt>
      <trkpt lat="45.92426" lon="4.73397">
        <ele>172</ele>
        <time>2018-04-11T11:02:39Z</time>
      </trkpt>
      <trkpt lat="45.92427" lon="4.73403">
        <ele>172</ele>
        <time>2018-04-11T11:02:40Z</time>
      </trkpt>
      <trkpt lat="45.92432" lon="4.73413">
        <ele>172</ele>
        <time>2018-04-11T11:02:42Z</time>
      </trkpt>
      <trkpt lat="45.92436" lon="4.73417">
        <ele>173</ele>
        <time>2018-04-11T11:02:43Z</time>
      </trkpt>
      <trkpt lat="45.9244" lon="4.73421">
        <ele>173</ele>
        <time>2018-04-11T11:02:44Z</time>
      </trkpt>
      <trkpt lat="45.92444" lon="4.73423">
        <ele>173</ele>
        <time>2018-04-11T11:02:45Z</time>
      </trkpt>
      <trkpt lat="45.92452" lon="4.73429">
        <ele>173</ele>
        <time>2018-04-11T11:02:47Z</time>
      </trkpt>
      <trkpt lat="45.92456" lon="4.73433">
        <ele>173</ele>
        <time>2018-04-11T11:02:48Z</time>
      </trkpt>
      <trkpt lat="45.92461" lon="4.73438">
        <ele>173</ele>
        <time>2018-04-11T11:02:49Z</time>
      </trkpt>
      <trkpt lat="45.92463" lon="4.73444">
        <ele>173</ele>
        <time>2018-04-11T11:02:50Z</time>
      </trkpt>
      <trkpt lat="45.92465" lon="4.7345">
        <ele>173</ele>
        <time>2018-04-11T11:02:51Z</time>
      </trkpt>
      <trkpt lat="45.92467" lon="4.73458">
        <ele>173</ele>
        <time>2018-04-11T11:02:52Z</time>
      </trkpt>
      <trkpt lat="45.92468" lon="4.73464">
        <ele>173</ele>
        <time>2018-04-11T11:02:53Z</time>
      </trkpt>
      <trkpt lat="45.92468" lon="4.73471">
        <ele>173</ele>
        <time>2018-04-11T11:02:54Z</time>
      </trkpt>
      <trkpt lat="45.92469" lon="4.73484">
        <ele>173</ele>
        <time>2018-04-11T11:02:56Z</time>
      </trkpt>
      <trkpt lat="45.92469" lon="4.7349">
        <ele>173</ele>
        <time>2018-04-11T11:02:57Z</time>
      </trkpt>
      <trkpt lat="45.92468" lon="4.73499">
        <ele>173</ele>
        <time>2018-04-11T11:02:59Z</time>
      </trkpt>
      <trkpt lat="45.92468" lon="4.73508">
        <ele>174</ele>
        <time>2018-04-11T11:03:00Z</time>
      </trkpt>
      <trkpt lat="45.92467" lon="4.73521">
        <ele>174</ele>
        <time>2018-04-11T11:03:02Z</time>
      </trkpt>
      <trkpt lat="45.92466" lon="4.73527">
        <ele>174</ele>
        <time>2018-04-11T11:03:03Z</time>
      </trkpt>
      <trkpt lat="45.92466" lon="4.73535">
        <ele>174</ele>
        <time>2018-04-11T11:03:05Z</time>
      </trkpt>
      <trkpt lat="45.92466" lon="4.73543">
        <ele>173</ele>
        <time>2018-04-11T11:03:06Z</time>
      </trkpt>
      <trkpt lat="45.92466" lon="4.73548">
        <ele>173</ele>
        <time>2018-04-11T11:03:07Z</time>
      </trkpt>
      <trkpt lat="45.92466" lon="4.73556">
        <ele>173</ele>
        <time>2018-04-11T11:03:08Z</time>
      </trkpt>
      <trkpt lat="45.92466" lon="4.73562">
        <ele>173</ele>
        <time>2018-04-11T11:03:09Z</time>
      </trkpt>
      <trkpt lat="45.92466" lon="4.73568">
        <ele>173</ele>
        <time>2018-04-11T11:03:10Z</time>
      </trkpt>
      <trkpt lat="45.92466" lon="4.73575">
        <ele>173</ele>
        <time>2018-04-11T11:03:11Z</time>
      </trkpt>
      <trkpt lat="45.92466" lon="4.73583">
        <ele>173</ele>
        <time>2018-04-11T11:03:12Z</time>
      </trkpt>
      <trkpt lat="45.92466" lon="4.73589">
        <ele>174</ele>
        <time>2018-04-11T11:03:13Z</time>
      </trkpt>
      <trkpt lat="45.92466" lon="4.73597">
        <ele>174</ele>
        <time>2018-04-11T11:03:14Z</time>
      </trkpt>
      <trkpt lat="45.92466" lon="4.73605">
        <ele>174</ele>
        <time>2018-04-11T11:03:15Z</time>
      </trkpt>
      <trkpt lat="45.92466" lon="4.73612">
        <ele>174</ele>
        <time>2018-04-11T11:03:16Z</time>
      </trkpt>
      <trkpt lat="45.92467" lon="4.73619">
        <ele>174</ele>
        <time>2018-04-11T11:03:17Z</time>
      </trkpt>
      <trkpt lat="45.92468" lon="4.73626">
        <ele>174</ele>
        <time>2018-04-11T11:03:18Z</time>
      </trkpt>
      <trkpt lat="45.92469" lon="4.73633">
        <ele>174</ele>
        <time>2018-04-11T11:03:19Z</time>
      </trkpt>
      <trkpt lat="45.92468" lon="4.73641">
        <ele>174</ele>
        <time>2018-04-11T11:03:20Z</time>
      </trkpt>
      <trkpt lat="45.92468" lon="4.73653">
        <ele>174</ele>
        <time>2018-04-11T11:03:22Z</time>
      </trkpt>
      <trkpt lat="45.92467" lon="4.73659">
        <ele>174</ele>
        <time>2018-04-11T11:03:23Z</time>
      </trkpt>
      <trkpt lat="45.92466" lon="4.73671">
        <ele>174</ele>
        <time>2018-04-11T11:03:25Z</time>
      </trkpt>
      <trkpt lat="45.92465" lon="4.73674">
        <ele>174</ele>
        <time>2018-04-11T11:03:26Z</time>
      </trkpt>
      <trkpt lat="45.92465" lon="4.73682">
        <ele>174</ele>
        <time>2018-04-11T11:03:27Z</time>
      </trkpt>
      <trkpt lat="45.92464" lon="4.73688">
        <ele>174</ele>
        <time>2018-04-11T11:03:28Z</time>
      </trkpt>
      <trkpt lat="45.92464" lon="4.737">
        <ele>174</ele>
        <time>2018-04-11T11:03:32Z</time>
      </trkpt>
      <trkpt lat="45.92463" lon="4.73702">
        <ele>174</ele>
        <time>2018-04-11T11:03:33Z</time>
      </trkpt>
      <trkpt lat="45.92462" lon="4.73706">
        <ele>174</ele>
        <time>2018-04-11T11:03:46Z</time>
      </trkpt>
      <trkpt lat="45.92462" lon="4.73706">
        <ele>174</ele>
        <time>2018-04-11T11:03:47Z</time>
      </trkpt>
      <trkpt lat="45.92462" lon="4.73706">
        <ele>174</ele>
        <time>2018-04-11T11:03:48Z</time>
      </trkpt>
      <trkpt lat="45.92454" lon="4.73701">
        <ele>174</ele>
        <time>2018-04-11T11:08:03Z</time>
      </trkpt>
      <trkpt lat="45.92453" lon="4.73701">
        <ele>174</ele>
        <time>2018-04-11T11:08:06.863Z</time>
      </trkpt>
      <trkpt lat="45.9245" lon="4.73695">
        <ele>174</ele>
        <time>2018-04-11T11:09:16Z</time>
      </trkpt>
      <trkpt lat="45.9245" lon="4.73696">
        <ele>174</ele>
        <time>2018-04-11T11:09:17Z</time>
      </trkpt>
      <trkpt lat="45.9245" lon="4.73696">
        <ele>174</ele>
        <time>2018-04-11T11:09:18Z</time>
      </trkpt>
      <trkpt lat="45.9245" lon="4.73696">
        <ele>174</ele>
        <time>2018-04-11T11:09:19Z</time>
      </trkpt>
      <trkpt lat="45.9245" lon="4.73696">
        <ele>174</ele>
        <time>2018-04-11T11:09:20Z</time>
      </trkpt>
      <trkpt lat="45.92449" lon="4.73696">
        <ele>174</ele>
        <time>2018-04-11T11:09:21Z</time>
      </trkpt>
      <trkpt lat="45.92449" lon="4.73696">
        <ele>174</ele>
        <time>2018-04-11T11:11:28Z</time>
      </trkpt>
      <trkpt lat="45.92449" lon="4.73696">
        <ele>174</ele>
        <time>2018-04-11T11:11:29Z</time>
      </trkpt>
      <trkpt lat="45.92446" lon="4.73691">
        <ele>174</ele>
        <time>2018-04-11T11:12:28.124Z</time>
      </trkpt>
    </trkseg>
  </trk>
</gpx>